<?xml version='1.0' encoding='UTF-8'?><gpx version="1.1" creator="JPX - https://github.com/jenetics/jpx" xmlns="http://www.topografix.com/GPX/1/1"><trk><trkseg><trkpt lat="43.529985" lon="10.65715"><ele>121.0</ele><time>2026-04-18T07:18:42.564Z</time></trkpt><trkpt lat="43.5299383" lon="10.6570517"><ele>121.0</ele><time>2026-04-18T07:18:44.564Z</time></trkpt><trkpt lat="43.52992" lon="10.6569333"><ele>121.0</ele><time>2026-04-18T07:18:46.565Z</time></trkpt><trkpt lat="43.52992" lon="10.6567783"><ele>121.0</ele><time>2026-04-18T07:18:48.564Z</time></trkpt><trkpt lat="43.5299117" lon="10.6566333"><ele>121.0</ele><time>2026-04-18T07:18:50.565Z</time></trkpt><trkpt lat="43.5299017" lon="10.6565033"><ele>121.4</ele><time>2026-04-18T07:18:52.564Z</time></trkpt><trkpt lat="43.529875" lon="10.6563783"><ele>121.8</ele><time>2026-04-18T07:18:54.564Z</time></trkpt><trkpt lat="43.5298383" lon="10.656245"><ele>122.20000000000002</ele><time>2026-04-18T07:18:56.564Z</time></trkpt><trkpt lat="43.5297833" lon="10.6561267"><ele>122.60000000000001</ele><time>2026-04-18T07:18:58.565Z</time></trkpt><trkpt lat="43.5297317" lon="10.6560117"><ele>123.0</ele><time>2026-04-18T07:19:00.565Z</time></trkpt><trkpt lat="43.5296867" lon="10.6558967"><ele>121.4</ele><time>2026-04-18T07:19:02.565Z</time></trkpt><trkpt lat="43.52966" lon="10.6557867"><ele>119.80000000000001</ele><time>2026-04-18T07:19:04.565Z</time></trkpt><trkpt lat="43.5296317" lon="10.6556783"><ele>118.2</ele><time>2026-04-18T07:19:06.564Z</time></trkpt><trkpt lat="43.5296017" lon="10.65554"><ele>116.6</ele><time>2026-04-18T07:19:08.564Z</time></trkpt><trkpt lat="43.5295983" lon="10.6554"><ele>115.0</ele><time>2026-04-18T07:19:10.565Z</time></trkpt><trkpt lat="43.52961" lon="10.655265"><ele>114.33333333333334</ele><time>2026-04-18T07:19:12.565Z</time></trkpt><trkpt lat="43.529615" lon="10.655145"><ele>113.66666666666667</ele><time>2026-04-18T07:19:14.564Z</time></trkpt><trkpt lat="43.5296033" lon="10.655045"><ele>113.0</ele><time>2026-04-18T07:19:16.564Z</time></trkpt><trkpt lat="43.529585" lon="10.6549533"><ele>112.33333333333334</ele><time>2026-04-18T07:19:18.564Z</time></trkpt><trkpt lat="43.5295367" lon="10.6548467"><ele>111.66666666666667</ele><time>2026-04-18T07:19:20.565Z</time></trkpt><trkpt lat="43.5294967" lon="10.6547633"><ele>111.0</ele><time>2026-04-18T07:19:22.564Z</time></trkpt><trkpt lat="43.5294517" lon="10.6546517"><ele>111.0</ele><time>2026-04-18T07:19:47.565Z</time></trkpt><trkpt lat="43.52939" lon="10.6545233"><ele>111.0</ele><time>2026-04-18T07:19:49.564Z</time></trkpt><trkpt lat="43.5293483" lon="10.6544433"><ele>111.0</ele><time>2026-04-18T07:19:51.564Z</time></trkpt><trkpt lat="43.5293383" lon="10.65454"><ele>111.0</ele><time>2026-04-18T07:20:19.564Z</time></trkpt><trkpt lat="43.5294233" lon="10.65467"><ele>111.0</ele><time>2026-04-18T07:20:21.564Z</time></trkpt><trkpt lat="43.5294733" lon="10.6547517"><ele>111.0</ele><time>2026-04-18T07:20:22.564Z</time></trkpt><trkpt lat="43.5295167" lon="10.6548467"><ele>111.0</ele><time>2026-04-18T07:20:23.565Z</time></trkpt><trkpt lat="43.5295533" lon="10.6549483"><ele>111.0</ele><time>2026-04-18T07:20:24.564Z</time></trkpt><trkpt lat="43.529585" lon="10.6550617"><ele>111.0</ele><time>2026-04-18T07:20:25.565Z</time></trkpt><trkpt lat="43.5296017" lon="10.65518"><ele>111.0</ele><time>2026-04-18T07:20:26.564Z</time></trkpt><trkpt lat="43.52961" lon="10.6553067"><ele>111.0</ele><time>2026-04-18T07:20:27.564Z</time></trkpt><trkpt lat="43.5296033" lon="10.6554367"><ele>111.8</ele><time>2026-04-18T07:20:28.565Z</time></trkpt><trkpt lat="43.5296083" lon="10.65557"><ele>112.6</ele><time>2026-04-18T07:20:29.564Z</time></trkpt><trkpt lat="43.529625" lon="10.6557017"><ele>113.4</ele><time>2026-04-18T07:20:30.564Z</time></trkpt><trkpt lat="43.5296617" lon="10.6558417"><ele>114.2</ele><time>2026-04-18T07:20:31.564Z</time></trkpt><trkpt lat="43.5297167" lon="10.6559817"><ele>115.0</ele><time>2026-04-18T07:20:32.564Z</time></trkpt><trkpt lat="43.5297767" lon="10.656115"><ele>116.6</ele><time>2026-04-18T07:20:33.565Z</time></trkpt><trkpt lat="43.5298267" lon="10.6562317"><ele>118.2</ele><time>2026-04-18T07:20:34.564Z</time></trkpt><trkpt lat="43.5298667" lon="10.6563583"><ele>119.80000000000001</ele><time>2026-04-18T07:20:35.564Z</time></trkpt><trkpt lat="43.52989" lon="10.6564933"><ele>121.4</ele><time>2026-04-18T07:20:36.564Z</time></trkpt><trkpt lat="43.529895" lon="10.656625"><ele>123.0</ele><time>2026-04-18T07:20:37.565Z</time></trkpt><trkpt lat="43.5298967" lon="10.6567467"><ele>123.0</ele><time>2026-04-18T07:20:38.564Z</time></trkpt><trkpt lat="43.5299033" lon="10.6568617"><ele>123.0</ele><time>2026-04-18T07:20:39.564Z</time></trkpt><trkpt lat="43.5299167" lon="10.6569517"><ele>123.0</ele><time>2026-04-18T07:20:40.564Z</time></trkpt><trkpt lat="43.5299733" lon="10.657105"><ele>123.0</ele><time>2026-04-18T07:20:42.564Z</time></trkpt><trkpt lat="43.530025" lon="10.657175"><ele>123.0</ele><time>2026-04-18T07:20:43.565Z</time></trkpt><trkpt lat="43.5300833" lon="10.6572267"><ele>123.0</ele><time>2026-04-18T07:20:44.565Z</time></trkpt><trkpt lat="43.5301433" lon="10.6572683"><ele>122.60000000000001</ele><time>2026-04-18T07:20:45.564Z</time></trkpt><trkpt lat="43.5302133" lon="10.657305"><ele>122.20000000000002</ele><time>2026-04-18T07:20:46.565Z</time></trkpt><trkpt lat="43.5303" lon="10.657355"><ele>121.8</ele><time>2026-04-18T07:20:47.565Z</time></trkpt><trkpt lat="43.5303967" lon="10.6574017"><ele>121.4</ele><time>2026-04-18T07:20:48.564Z</time></trkpt><trkpt lat="43.530505" lon="10.657445"><ele>121.0</ele><time>2026-04-18T07:20:49.563Z</time></trkpt><trkpt lat="43.5306017" lon="10.6574983"><ele>123.8</ele><time>2026-04-18T07:20:50.563Z</time></trkpt><trkpt lat="43.5307033" lon="10.6575383"><ele>126.6</ele><time>2026-04-18T07:20:51.563Z</time></trkpt><trkpt lat="43.5308067" lon="10.6575567"><ele>129.4</ele><time>2026-04-18T07:20:52.563Z</time></trkpt><trkpt lat="43.53091" lon="10.65755"><ele>132.2</ele><time>2026-04-18T07:20:53.563Z</time></trkpt><trkpt lat="43.53101" lon="10.6575117"><ele>135.0</ele><time>2026-04-18T07:20:54.563Z</time></trkpt><trkpt lat="43.5311083" lon="10.6574667"><ele>135.0</ele><time>2026-04-18T07:20:55.563Z</time></trkpt><trkpt lat="43.5311983" lon="10.6573967"><ele>135.0</ele><time>2026-04-18T07:20:56.564Z</time></trkpt><trkpt lat="43.5312883" lon="10.657335"><ele>135.0</ele><time>2026-04-18T07:20:57.563Z</time></trkpt><trkpt lat="43.5313617" lon="10.6573117"><ele>135.0</ele><time>2026-04-18T07:20:58.563Z</time></trkpt><trkpt lat="43.5314367" lon="10.6573"><ele>135.0</ele><time>2026-04-18T07:20:59.563Z</time></trkpt><trkpt lat="43.5315067" lon="10.6572883"><ele>135.0</ele><time>2026-04-18T07:21:00.563Z</time></trkpt><trkpt lat="43.531615" lon="10.65732"><ele>137.2</ele><time>2026-04-18T07:21:02.563Z</time></trkpt><trkpt lat="43.53172" lon="10.6574083"><ele>139.4</ele><time>2026-04-18T07:21:04.563Z</time></trkpt><trkpt lat="43.5317883" lon="10.6574617"><ele>141.6</ele><time>2026-04-18T07:21:05.563Z</time></trkpt><trkpt lat="43.531855" lon="10.6575117"><ele>143.8</ele><time>2026-04-18T07:21:06.563Z</time></trkpt><trkpt lat="43.5319233" lon="10.65757"><ele>146.0</ele><time>2026-04-18T07:21:07.563Z</time></trkpt><trkpt lat="43.532015" lon="10.6576183"><ele>144.6</ele><time>2026-04-18T07:21:08.564Z</time></trkpt><trkpt lat="43.5321167" lon="10.6576683"><ele>143.2</ele><time>2026-04-18T07:21:09.563Z</time></trkpt><trkpt lat="43.5322283" lon="10.6577167"><ele>141.8</ele><time>2026-04-18T07:21:10.563Z</time></trkpt><trkpt lat="43.5323283" lon="10.657755"><ele>140.4</ele><time>2026-04-18T07:21:11.563Z</time></trkpt><trkpt lat="43.5324067" lon="10.6577817"><ele>139.0</ele><time>2026-04-18T07:21:12.564Z</time></trkpt><trkpt lat="43.5325117" lon="10.657855"><ele>141.33333333333334</ele><time>2026-04-18T07:21:14.563Z</time></trkpt><trkpt lat="43.53254" lon="10.657995"><ele>143.66666666666669</ele><time>2026-04-18T07:21:16.563Z</time></trkpt><trkpt lat="43.5325133" lon="10.658075"><ele>146.0</ele><time>2026-04-18T07:21:17.564Z</time></trkpt><trkpt lat="43.5324517" lon="10.658145"><ele>148.33333333333334</ele><time>2026-04-18T07:21:18.563Z</time></trkpt><trkpt lat="43.5323733" lon="10.65818"><ele>150.66666666666666</ele><time>2026-04-18T07:21:19.563Z</time></trkpt><trkpt lat="43.532285" lon="10.6581817"><ele>153.0</ele><time>2026-04-18T07:21:20.563Z</time></trkpt><trkpt lat="43.5321917" lon="10.6581333"><ele>153.0</ele><time>2026-04-18T07:21:21.563Z</time></trkpt><trkpt lat="43.5320983" lon="10.658065"><ele>153.0</ele><time>2026-04-18T07:21:22.563Z</time></trkpt><trkpt lat="43.5319967" lon="10.6579917"><ele>153.0</ele><time>2026-04-18T07:21:23.563Z</time></trkpt><trkpt lat="43.5319133" lon="10.6579367"><ele>153.0</ele><time>2026-04-18T07:21:24.563Z</time></trkpt><trkpt lat="43.531835" lon="10.6579033"><ele>153.0</ele><time>2026-04-18T07:21:25.563Z</time></trkpt><trkpt lat="43.5317617" lon="10.6579017"><ele>154.20000000000002</ele><time>2026-04-18T07:21:26.563Z</time></trkpt><trkpt lat="43.53169" lon="10.6579283"><ele>155.4</ele><time>2026-04-18T07:21:27.563Z</time></trkpt><trkpt lat="43.531615" lon="10.6580533"><ele>156.60000000000002</ele><time>2026-04-18T07:21:29.563Z</time></trkpt><trkpt lat="43.5316267" lon="10.65821"><ele>157.8</ele><time>2026-04-18T07:21:31.564Z</time></trkpt><trkpt lat="43.5316783" lon="10.6582983"><ele>159.0</ele><time>2026-04-18T07:21:32.563Z</time></trkpt><trkpt lat="43.53177" lon="10.6583833"><ele>159.0</ele><time>2026-04-18T07:21:33.563Z</time></trkpt><trkpt lat="43.53189" lon="10.65847"><ele>159.0</ele><time>2026-04-18T07:21:34.563Z</time></trkpt><trkpt lat="43.53198" lon="10.6585717"><ele>159.0</ele><time>2026-04-18T07:21:35.563Z</time></trkpt><trkpt lat="43.53205" lon="10.6586983"><ele>159.0</ele><time>2026-04-18T07:21:36.563Z</time></trkpt><trkpt lat="43.5321133" lon="10.6588417"><ele>159.5</ele><time>2026-04-18T07:21:37.563Z</time></trkpt><trkpt lat="43.5321883" lon="10.658995"><ele>160.0</ele><time>2026-04-18T07:21:38.563Z</time></trkpt><trkpt lat="43.5322667" lon="10.659165"><ele>160.5</ele><time>2026-04-18T07:21:39.563Z</time></trkpt><trkpt lat="43.5323683" lon="10.65933"><ele>161.0</ele><time>2026-04-18T07:21:40.563Z</time></trkpt><trkpt lat="43.532465" lon="10.6594883"><ele>164.0</ele><time>2026-04-18T07:21:41.563Z</time></trkpt><trkpt lat="43.53256" lon="10.6596433"><ele>167.0</ele><time>2026-04-18T07:21:42.563Z</time></trkpt><trkpt lat="43.5326417" lon="10.65979"><ele>170.0</ele><time>2026-04-18T07:21:43.563Z</time></trkpt><trkpt lat="43.53274" lon="10.6599483"><ele>173.0</ele><time>2026-04-18T07:21:44.564Z</time></trkpt><trkpt lat="43.5328433" lon="10.6601083"><ele>172.0</ele><time>2026-04-18T07:21:45.563Z</time></trkpt><trkpt lat="43.5329533" lon="10.6602683"><ele>171.0</ele><time>2026-04-18T07:21:46.563Z</time></trkpt><trkpt lat="43.5330517" lon="10.6604233"><ele>170.0</ele><time>2026-04-18T07:21:47.563Z</time></trkpt><trkpt lat="43.53314" lon="10.66055"><ele>169.0</ele><time>2026-04-18T07:21:48.563Z</time></trkpt><trkpt lat="43.5332167" lon="10.6606567"><ele>169.0</ele><time>2026-04-18T07:21:49.563Z</time></trkpt><trkpt lat="43.5332933" lon="10.6607567"><ele>169.0</ele><time>2026-04-18T07:21:50.563Z</time></trkpt><trkpt lat="43.5333783" lon="10.6608367"><ele>169.0</ele><time>2026-04-18T07:21:51.563Z</time></trkpt><trkpt lat="43.5334483" lon="10.6608917"><ele>169.0</ele><time>2026-04-18T07:21:52.563Z</time></trkpt><trkpt lat="43.5335083" lon="10.6609217"><ele>169.0</ele><time>2026-04-18T07:21:53.563Z</time></trkpt><trkpt lat="43.5335717" lon="10.6609617"><ele>169.0</ele><time>2026-04-18T07:21:55.563Z</time></trkpt><trkpt lat="43.5336283" lon="10.6610333"><ele>169.0</ele><time>2026-04-18T07:21:59.564Z</time></trkpt><trkpt lat="43.5336917" lon="10.661085"><ele>169.0</ele><time>2026-04-18T07:22:02.563Z</time></trkpt><trkpt lat="43.533765" lon="10.6611067"><ele>169.0</ele><time>2026-04-18T07:22:05.563Z</time></trkpt><trkpt lat="43.53385" lon="10.66112"><ele>169.0</ele><time>2026-04-18T07:22:07.563Z</time></trkpt><trkpt lat="43.533985" lon="10.6611633"><ele>169.0</ele><time>2026-04-18T07:22:09.563Z</time></trkpt><trkpt lat="43.5340617" lon="10.6611833"><ele>167.79999999999998</ele><time>2026-04-18T07:22:10.563Z</time></trkpt><trkpt lat="43.5341283" lon="10.6612017"><ele>166.6</ele><time>2026-04-18T07:22:11.563Z</time></trkpt><trkpt lat="43.5342133" lon="10.661265"><ele>165.4</ele><time>2026-04-18T07:22:13.563Z</time></trkpt><trkpt lat="43.534245" lon="10.6613517"><ele>164.2</ele><time>2026-04-18T07:22:15.563Z</time></trkpt><trkpt lat="43.5342067" lon="10.6615033"><ele>163.0</ele><time>2026-04-18T07:22:17.563Z</time></trkpt><trkpt lat="43.5341567" lon="10.66165"><ele>163.0</ele><time>2026-04-18T07:22:18.564Z</time></trkpt><trkpt lat="43.53409" lon="10.6618167"><ele>163.0</ele><time>2026-04-18T07:22:19.563Z</time></trkpt><trkpt lat="43.5340167" lon="10.6619983"><ele>163.0</ele><time>2026-04-18T07:22:20.563Z</time></trkpt><trkpt lat="43.5339467" lon="10.6621783"><ele>163.0</ele><time>2026-04-18T07:22:21.564Z</time></trkpt><trkpt lat="43.533875" lon="10.6623567"><ele>161.0</ele><time>2026-04-18T07:22:22.563Z</time></trkpt><trkpt lat="43.5338067" lon="10.662555"><ele>159.0</ele><time>2026-04-18T07:22:23.563Z</time></trkpt><trkpt lat="43.53374" lon="10.6627567"><ele>157.0</ele><time>2026-04-18T07:22:24.563Z</time></trkpt><trkpt lat="43.5336867" lon="10.6629517"><ele>159.0</ele><time>2026-04-18T07:22:25.564Z</time></trkpt><trkpt lat="43.533645" lon="10.6631417"><ele>161.0</ele><time>2026-04-18T07:22:26.563Z</time></trkpt><trkpt lat="43.5336" lon="10.6633217"><ele>163.0</ele><time>2026-04-18T07:22:27.563Z</time></trkpt><trkpt lat="43.5335617" lon="10.6634983"><ele>165.0</ele><time>2026-04-18T07:22:28.564Z</time></trkpt><trkpt lat="43.5335233" lon="10.6636633"><ele>165.0</ele><time>2026-04-18T07:22:29.563Z</time></trkpt><trkpt lat="43.5335" lon="10.6638083"><ele>165.0</ele><time>2026-04-18T07:22:30.563Z</time></trkpt><trkpt lat="43.5334783" lon="10.6639567"><ele>165.0</ele><time>2026-04-18T07:22:31.563Z</time></trkpt><trkpt lat="43.5334667" lon="10.6641083"><ele>165.0</ele><time>2026-04-18T07:22:32.563Z</time></trkpt><trkpt lat="43.53345" lon="10.6642517"><ele>165.0</ele><time>2026-04-18T07:22:33.563Z</time></trkpt><trkpt lat="43.53343" lon="10.66439"><ele>163.0</ele><time>2026-04-18T07:22:34.563Z</time></trkpt><trkpt lat="43.5334117" lon="10.6645167"><ele>161.0</ele><time>2026-04-18T07:22:35.563Z</time></trkpt><trkpt lat="43.5333683" lon="10.6646383"><ele>159.0</ele><time>2026-04-18T07:22:36.564Z</time></trkpt><trkpt lat="43.5333" lon="10.6647533"><ele>157.0</ele><time>2026-04-18T07:22:37.563Z</time></trkpt><trkpt lat="43.5332183" lon="10.6648517"><ele>155.0</ele><time>2026-04-18T07:22:38.563Z</time></trkpt><trkpt lat="43.53312" lon="10.6649383"><ele>155.0</ele><time>2026-04-18T07:22:39.563Z</time></trkpt><trkpt lat="43.53302" lon="10.6650017"><ele>155.0</ele><time>2026-04-18T07:22:40.563Z</time></trkpt><trkpt lat="43.5329233" lon="10.665045"><ele>155.0</ele><time>2026-04-18T07:22:41.563Z</time></trkpt><trkpt lat="43.5328" lon="10.6650383"><ele>155.0</ele><time>2026-04-18T07:22:42.563Z</time></trkpt><trkpt lat="43.5326767" lon="10.6650267"><ele>154.66666666666666</ele><time>2026-04-18T07:22:43.563Z</time></trkpt><trkpt lat="43.532565" lon="10.6649933"><ele>154.33333333333331</ele><time>2026-04-18T07:22:44.563Z</time></trkpt><trkpt lat="43.5324783" lon="10.6649717"><ele>154.0</ele><time>2026-04-18T07:22:45.563Z</time></trkpt><trkpt lat="43.53241" lon="10.6649717"><ele>153.66666666666666</ele><time>2026-04-18T07:22:46.563Z</time></trkpt><trkpt lat="43.5323383" lon="10.66498"><ele>153.33333333333334</ele><time>2026-04-18T07:22:47.563Z</time></trkpt><trkpt lat="43.5322617" lon="10.6650117"><ele>153.0</ele><time>2026-04-18T07:22:48.563Z</time></trkpt><trkpt lat="43.5321833" lon="10.665075"><ele>153.0</ele><time>2026-04-18T07:22:49.563Z</time></trkpt><trkpt lat="43.5320933" lon="10.6651817"><ele>153.0</ele><time>2026-04-18T07:22:50.563Z</time></trkpt><trkpt lat="43.532" lon="10.665345"><ele>153.0</ele><time>2026-04-18T07:22:51.563Z</time></trkpt><trkpt lat="43.5319117" lon="10.6655417"><ele>153.0</ele><time>2026-04-18T07:22:52.563Z</time></trkpt><trkpt lat="43.5318317" lon="10.6657467"><ele>151.0</ele><time>2026-04-18T07:22:53.563Z</time></trkpt><trkpt lat="43.53175" lon="10.6659417"><ele>149.0</ele><time>2026-04-18T07:22:54.563Z</time></trkpt><trkpt lat="43.53167" lon="10.66614"><ele>147.0</ele><time>2026-04-18T07:22:55.563Z</time></trkpt><trkpt lat="43.5315567" lon="10.666335"><ele>147.0</ele><time>2026-04-18T07:22:56.563Z</time></trkpt><trkpt lat="43.5314367" lon="10.6665267"><ele>147.0</ele><time>2026-04-18T07:22:57.563Z</time></trkpt><trkpt lat="43.5313033" lon="10.66671"><ele>147.0</ele><time>2026-04-18T07:22:58.563Z</time></trkpt><trkpt lat="43.53117" lon="10.6669083"><ele>151.0</ele><time>2026-04-18T07:22:59.563Z</time></trkpt><trkpt lat="43.531045" lon="10.6670883"><ele>155.0</ele><time>2026-04-18T07:23:00.563Z</time></trkpt><trkpt lat="43.5309517" lon="10.6672483"><ele>159.0</ele><time>2026-04-18T07:23:01.563Z</time></trkpt><trkpt lat="43.5308667" lon="10.6673833"><ele>159.0</ele><time>2026-04-18T07:23:02.564Z</time></trkpt><trkpt lat="43.530775" lon="10.6674967"><ele>159.0</ele><time>2026-04-18T07:23:03.563Z</time></trkpt><trkpt lat="43.5306733" lon="10.6676017"><ele>159.0</ele><time>2026-04-18T07:23:04.563Z</time></trkpt><trkpt lat="43.5305583" lon="10.6677"><ele>159.0</ele><time>2026-04-18T07:23:05.564Z</time></trkpt><trkpt lat="43.5304567" lon="10.6677883"><ele>159.8</ele><time>2026-04-18T07:23:06.563Z</time></trkpt><trkpt lat="43.530375" lon="10.6678667"><ele>160.60000000000002</ele><time>2026-04-18T07:23:07.563Z</time></trkpt><trkpt lat="43.5302917" lon="10.66796"><ele>161.4</ele><time>2026-04-18T07:23:08.563Z</time></trkpt><trkpt lat="43.530225" lon="10.6680733"><ele>162.20000000000002</ele><time>2026-04-18T07:23:09.564Z</time></trkpt><trkpt lat="43.5301517" lon="10.6681767"><ele>163.0</ele><time>2026-04-18T07:23:10.564Z</time></trkpt><trkpt lat="43.5300733" lon="10.6682883"><ele>163.0</ele><time>2026-04-18T07:23:11.564Z</time></trkpt><trkpt lat="43.5300033" lon="10.6683933"><ele>163.0</ele><time>2026-04-18T07:23:12.563Z</time></trkpt><trkpt lat="43.5299267" lon="10.66852"><ele>163.0</ele><time>2026-04-18T07:23:13.564Z</time></trkpt><trkpt lat="43.5298367" lon="10.66864"><ele>163.0</ele><time>2026-04-18T07:23:14.563Z</time></trkpt><trkpt lat="43.52974" lon="10.6687783"><ele>162.5</ele><time>2026-04-18T07:23:15.564Z</time></trkpt><trkpt lat="43.5296383" lon="10.6689217"><ele>162.0</ele><time>2026-04-18T07:23:16.563Z</time></trkpt><trkpt lat="43.52953" lon="10.6690583"><ele>161.5</ele><time>2026-04-18T07:23:17.563Z</time></trkpt><trkpt lat="43.5294267" lon="10.6691833"><ele>161.0</ele><time>2026-04-18T07:23:18.563Z</time></trkpt><trkpt lat="43.5293417" lon="10.6693067"><ele>161.0</ele><time>2026-04-18T07:23:19.563Z</time></trkpt><trkpt lat="43.529255" lon="10.6693983"><ele>161.0</ele><time>2026-04-18T07:23:20.563Z</time></trkpt><trkpt lat="43.52916" lon="10.669475"><ele>161.0</ele><time>2026-04-18T07:23:21.563Z</time></trkpt><trkpt lat="43.5290783" lon="10.6695867"><ele>161.0</ele><time>2026-04-18T07:23:22.563Z</time></trkpt><trkpt lat="43.5289783" lon="10.6697017"><ele>161.5</ele><time>2026-04-18T07:23:23.563Z</time></trkpt><trkpt lat="43.5288767" lon="10.6698233"><ele>162.0</ele><time>2026-04-18T07:23:24.563Z</time></trkpt><trkpt lat="43.528775" lon="10.6699367"><ele>162.5</ele><time>2026-04-18T07:23:25.563Z</time></trkpt><trkpt lat="43.5286717" lon="10.67005"><ele>163.0</ele><time>2026-04-18T07:23:26.563Z</time></trkpt><trkpt lat="43.528565" lon="10.6701817"><ele>162.33333333333334</ele><time>2026-04-18T07:23:27.563Z</time></trkpt><trkpt lat="43.5284517" lon="10.67033"><ele>161.66666666666666</ele><time>2026-04-18T07:23:28.563Z</time></trkpt><trkpt lat="43.52834" lon="10.67047"><ele>161.0</ele><time>2026-04-18T07:23:29.564Z</time></trkpt><trkpt lat="43.52822" lon="10.6706083"><ele>161.0</ele><time>2026-04-18T07:23:30.563Z</time></trkpt><trkpt lat="43.5280967" lon="10.6707617"><ele>161.0</ele><time>2026-04-18T07:23:31.563Z</time></trkpt><trkpt lat="43.5279767" lon="10.6709317"><ele>161.0</ele><time>2026-04-18T07:23:32.563Z</time></trkpt><trkpt lat="43.5278467" lon="10.6710867"><ele>162.66666666666666</ele><time>2026-04-18T07:23:33.564Z</time></trkpt><trkpt lat="43.527725" lon="10.6712333"><ele>164.33333333333334</ele><time>2026-04-18T07:23:34.563Z</time></trkpt><trkpt lat="43.527615" lon="10.671375"><ele>166.0</ele><time>2026-04-18T07:23:35.563Z</time></trkpt><trkpt lat="43.5275217" lon="10.6715333"><ele>166.0</ele><time>2026-04-18T07:23:36.563Z</time></trkpt><trkpt lat="43.5274433" lon="10.6717017"><ele>166.0</ele><time>2026-04-18T07:23:37.563Z</time></trkpt><trkpt lat="43.5273733" lon="10.67186"><ele>166.0</ele><time>2026-04-18T07:23:38.563Z</time></trkpt><trkpt lat="43.5273067" lon="10.6720117"><ele>166.0</ele><time>2026-04-18T07:23:39.563Z</time></trkpt><trkpt lat="43.5272467" lon="10.67214"><ele>167.25</ele><time>2026-04-18T07:23:40.563Z</time></trkpt><trkpt lat="43.5271667" lon="10.6722517"><ele>168.5</ele><time>2026-04-18T07:23:41.564Z</time></trkpt><trkpt lat="43.5270717" lon="10.6723517"><ele>169.75</ele><time>2026-04-18T07:23:42.563Z</time></trkpt><trkpt lat="43.5269733" lon="10.6724267"><ele>171.0</ele><time>2026-04-18T07:23:43.563Z</time></trkpt><trkpt lat="43.52686" lon="10.6724733"><ele>171.0</ele><time>2026-04-18T07:23:44.563Z</time></trkpt><trkpt lat="43.52674" lon="10.6724717"><ele>171.0</ele><time>2026-04-18T07:23:45.563Z</time></trkpt><trkpt lat="43.526615" lon="10.6724467"><ele>171.0</ele><time>2026-04-18T07:23:46.563Z</time></trkpt><trkpt lat="43.526495" lon="10.67243"><ele>171.0</ele><time>2026-04-18T07:23:47.563Z</time></trkpt><trkpt lat="43.5263733" lon="10.6724433"><ele>171.0</ele><time>2026-04-18T07:23:48.563Z</time></trkpt><trkpt lat="43.5262567" lon="10.672485"><ele>171.0</ele><time>2026-04-18T07:23:49.563Z</time></trkpt><trkpt lat="43.52615" lon="10.672565"><ele>171.0</ele><time>2026-04-18T07:23:50.563Z</time></trkpt><trkpt lat="43.5260667" lon="10.6726467"><ele>171.0</ele><time>2026-04-18T07:23:51.564Z</time></trkpt><trkpt lat="43.525995" lon="10.6727383"><ele>171.0</ele><time>2026-04-18T07:23:52.563Z</time></trkpt><trkpt lat="43.5259283" lon="10.6728517"><ele>170.75</ele><time>2026-04-18T07:23:53.563Z</time></trkpt><trkpt lat="43.525875" lon="10.67299"><ele>170.5</ele><time>2026-04-18T07:23:54.563Z</time></trkpt><trkpt lat="43.5258417" lon="10.673165"><ele>170.25</ele><time>2026-04-18T07:23:55.563Z</time></trkpt><trkpt lat="43.5258217" lon="10.67335"><ele>170.0</ele><time>2026-04-18T07:23:56.563Z</time></trkpt><trkpt lat="43.5258083" lon="10.67356"><ele>172.0</ele><time>2026-04-18T07:23:57.563Z</time></trkpt><trkpt lat="43.52579" lon="10.6737683"><ele>174.0</ele><time>2026-04-18T07:23:58.564Z</time></trkpt><trkpt lat="43.5257783" lon="10.6739683"><ele>176.0</ele><time>2026-04-18T07:23:59.563Z</time></trkpt><trkpt lat="43.5257567" lon="10.6741717"><ele>178.0</ele><time>2026-04-18T07:24:00.563Z</time></trkpt><trkpt lat="43.5257283" lon="10.674375"><ele>179.25</ele><time>2026-04-18T07:24:01.563Z</time></trkpt><trkpt lat="43.5257033" lon="10.6745733"><ele>180.5</ele><time>2026-04-18T07:24:02.563Z</time></trkpt><trkpt lat="43.52567" lon="10.6747483"><ele>181.75</ele><time>2026-04-18T07:24:03.563Z</time></trkpt><trkpt lat="43.5256417" lon="10.67492"><ele>183.0</ele><time>2026-04-18T07:24:04.563Z</time></trkpt><trkpt lat="43.525615" lon="10.675075"><ele>183.0</ele><time>2026-04-18T07:24:05.563Z</time></trkpt><trkpt lat="43.525595" lon="10.6751983"><ele>183.0</ele><time>2026-04-18T07:24:06.563Z</time></trkpt><trkpt lat="43.5255667" lon="10.675325"><ele>183.0</ele><time>2026-04-18T07:24:07.564Z</time></trkpt><trkpt lat="43.5255317" lon="10.6754583"><ele>183.0</ele><time>2026-04-18T07:24:08.563Z</time></trkpt><trkpt lat="43.5254933" lon="10.6755617"><ele>183.0</ele><time>2026-04-18T07:24:09.563Z</time></trkpt><trkpt lat="43.5254533" lon="10.675655"><ele>183.0</ele><time>2026-04-18T07:24:10.563Z</time></trkpt><trkpt lat="43.5254167" lon="10.6757333"><ele>183.0</ele><time>2026-04-18T07:24:11.563Z</time></trkpt><trkpt lat="43.5253683" lon="10.6758017"><ele>183.0</ele><time>2026-04-18T07:24:12.563Z</time></trkpt><trkpt lat="43.5253183" lon="10.675875"><ele>183.0</ele><time>2026-04-18T07:24:13.563Z</time></trkpt><trkpt lat="43.5252483" lon="10.6759317"><ele>183.0</ele><time>2026-04-18T07:24:14.563Z</time></trkpt><trkpt lat="43.5251567" lon="10.675995"><ele>183.0</ele><time>2026-04-18T07:24:15.563Z</time></trkpt><trkpt lat="43.52507" lon="10.67607"><ele>182.8</ele><time>2026-04-18T07:24:16.562Z</time></trkpt><trkpt lat="43.5249817" lon="10.6761567"><ele>182.60000000000002</ele><time>2026-04-18T07:24:17.562Z</time></trkpt><trkpt lat="43.5248967" lon="10.6762333"><ele>182.39999999999998</ele><time>2026-04-18T07:24:18.562Z</time></trkpt><trkpt lat="43.52482" lon="10.6763083"><ele>182.2</ele><time>2026-04-18T07:24:19.562Z</time></trkpt><trkpt lat="43.5247483" lon="10.676385"><ele>182.0</ele><time>2026-04-18T07:24:20.562Z</time></trkpt><trkpt lat="43.524695" lon="10.6764717"><ele>182.0</ele><time>2026-04-18T07:24:21.562Z</time></trkpt><trkpt lat="43.524645" lon="10.6765633"><ele>182.0</ele><time>2026-04-18T07:24:22.562Z</time></trkpt><trkpt lat="43.5246017" lon="10.67665"><ele>182.0</ele><time>2026-04-18T07:24:23.562Z</time></trkpt><trkpt lat="43.5245833" lon="10.676755"><ele>182.0</ele><time>2026-04-18T07:24:24.563Z</time></trkpt><trkpt lat="43.5245567" lon="10.6768733"><ele>182.0</ele><time>2026-04-18T07:24:25.562Z</time></trkpt><trkpt lat="43.52453" lon="10.67697"><ele>182.0</ele><time>2026-04-18T07:24:26.562Z</time></trkpt><trkpt lat="43.5245017" lon="10.6771017"><ele>181.5</ele><time>2026-04-18T07:24:28.562Z</time></trkpt><trkpt lat="43.5245333" lon="10.6772133"><ele>181.0</ele><time>2026-04-18T07:24:30.562Z</time></trkpt><trkpt lat="43.524585" lon="10.6772667"><ele>180.5</ele><time>2026-04-18T07:24:31.562Z</time></trkpt><trkpt lat="43.5246333" lon="10.6773233"><ele>180.0</ele><time>2026-04-18T07:24:32.562Z</time></trkpt><trkpt lat="43.5246767" lon="10.6773883"><ele>179.5</ele><time>2026-04-18T07:24:33.562Z</time></trkpt><trkpt lat="43.524745" lon="10.67752"><ele>179.0</ele><time>2026-04-18T07:24:35.562Z</time></trkpt><trkpt lat="43.5247817" lon="10.67762"><ele>178.33333333333331</ele><time>2026-04-18T07:24:37.562Z</time></trkpt><trkpt lat="43.52476" lon="10.6777317"><ele>177.66666666666666</ele><time>2026-04-18T07:24:39.562Z</time></trkpt><trkpt lat="43.5247367" lon="10.6778433"><ele>177.0</ele><time>2026-04-18T07:24:41.562Z</time></trkpt><trkpt lat="43.52472" lon="10.6779767"><ele>176.33333333333334</ele><time>2026-04-18T07:24:43.562Z</time></trkpt><trkpt lat="43.524715" lon="10.6780783"><ele>175.66666666666669</ele><time>2026-04-18T07:24:44.562Z</time></trkpt><trkpt lat="43.524725" lon="10.67822"><ele>175.0</ele><time>2026-04-18T07:24:45.562Z</time></trkpt><trkpt lat="43.5247367" lon="10.678365"><ele>174.4</ele><time>2026-04-18T07:24:46.562Z</time></trkpt><trkpt lat="43.52476" lon="10.678515"><ele>173.8</ele><time>2026-04-18T07:24:47.562Z</time></trkpt><trkpt lat="43.5247933" lon="10.6786533"><ele>173.2</ele><time>2026-04-18T07:24:48.562Z</time></trkpt><trkpt lat="43.5248283" lon="10.678785"><ele>172.6</ele><time>2026-04-18T07:24:49.562Z</time></trkpt><trkpt lat="43.5248583" lon="10.6789233"><ele>172.0</ele><time>2026-04-18T07:24:50.562Z</time></trkpt><trkpt lat="43.52488" lon="10.679075"><ele>173.39999999999998</ele><time>2026-04-18T07:24:51.562Z</time></trkpt><trkpt lat="43.5248933" lon="10.6792333"><ele>174.79999999999998</ele><time>2026-04-18T07:24:52.563Z</time></trkpt><trkpt lat="43.52489" lon="10.6793783"><ele>176.2</ele><time>2026-04-18T07:24:53.562Z</time></trkpt><trkpt lat="43.524885" lon="10.6795217"><ele>177.6</ele><time>2026-04-18T07:24:54.562Z</time></trkpt><trkpt lat="43.5248683" lon="10.6796533"><ele>179.0</ele><time>2026-04-18T07:24:55.562Z</time></trkpt><trkpt lat="43.5248567" lon="10.6797867"><ele>179.6</ele><time>2026-04-18T07:24:56.562Z</time></trkpt><trkpt lat="43.524855" lon="10.67992"><ele>180.2</ele><time>2026-04-18T07:24:57.562Z</time></trkpt><trkpt lat="43.5248617" lon="10.6800483"><ele>180.79999999999998</ele><time>2026-04-18T07:24:58.562Z</time></trkpt><trkpt lat="43.5248883" lon="10.6801983"><ele>181.39999999999998</ele><time>2026-04-18T07:24:59.562Z</time></trkpt><trkpt lat="43.5249183" lon="10.6803467"><ele>182.0</ele><time>2026-04-18T07:25:00.562Z</time></trkpt><trkpt lat="43.5249467" lon="10.680495"><ele>180.6</ele><time>2026-04-18T07:25:01.562Z</time></trkpt><trkpt lat="43.524975" lon="10.6806333"><ele>179.2</ele><time>2026-04-18T07:25:02.563Z</time></trkpt><trkpt lat="43.5249833" lon="10.6807783"><ele>177.8</ele><time>2026-04-18T07:25:03.562Z</time></trkpt><trkpt lat="43.52498" lon="10.680925"><ele>176.4</ele><time>2026-04-18T07:25:04.562Z</time></trkpt><trkpt lat="43.5249633" lon="10.6810867"><ele>175.0</ele><time>2026-04-18T07:25:05.562Z</time></trkpt><trkpt lat="43.5249617" lon="10.6812583"><ele>174.25</ele><time>2026-04-18T07:25:06.562Z</time></trkpt><trkpt lat="43.52496" lon="10.681445"><ele>173.5</ele><time>2026-04-18T07:25:07.562Z</time></trkpt><trkpt lat="43.5249617" lon="10.68164"><ele>172.75</ele><time>2026-04-18T07:25:08.562Z</time></trkpt><trkpt lat="43.5249633" lon="10.6818233"><ele>172.0</ele><time>2026-04-18T07:25:09.562Z</time></trkpt><trkpt lat="43.5249617" lon="10.68199"><ele>171.66666666666669</ele><time>2026-04-18T07:25:10.562Z</time></trkpt><trkpt lat="43.52496" lon="10.6821417"><ele>171.33333333333334</ele><time>2026-04-18T07:25:11.563Z</time></trkpt><trkpt lat="43.524955" lon="10.6822817"><ele>171.0</ele><time>2026-04-18T07:25:12.562Z</time></trkpt><trkpt lat="43.5249667" lon="10.6823967"><ele>170.66666666666666</ele><time>2026-04-18T07:25:13.562Z</time></trkpt><trkpt lat="43.5249867" lon="10.6824917"><ele>170.33333333333331</ele><time>2026-04-18T07:25:14.562Z</time></trkpt><trkpt lat="43.5250333" lon="10.6825683"><ele>170.0</ele><time>2026-04-18T07:25:15.562Z</time></trkpt><trkpt lat="43.5250883" lon="10.6826167"><ele>170.0</ele><time>2026-04-18T07:25:16.562Z</time></trkpt><trkpt lat="43.52517" lon="10.6826467"><ele>170.0</ele><time>2026-04-18T07:25:17.562Z</time></trkpt><trkpt lat="43.5252667" lon="10.68267"><ele>170.0</ele><time>2026-04-18T07:25:18.562Z</time></trkpt><trkpt lat="43.5253433" lon="10.6827"><ele>170.0</ele><time>2026-04-18T07:25:19.562Z</time></trkpt><trkpt lat="43.5254183" lon="10.6827483"><ele>170.0</ele><time>2026-04-18T07:25:20.562Z</time></trkpt><trkpt lat="43.5254767" lon="10.68283"><ele>170.0</ele><time>2026-04-18T07:25:21.562Z</time></trkpt><trkpt lat="43.5255283" lon="10.6829283"><ele>168.8</ele><time>2026-04-18T07:25:22.562Z</time></trkpt><trkpt lat="43.5255767" lon="10.6830317"><ele>167.6</ele><time>2026-04-18T07:25:23.562Z</time></trkpt><trkpt lat="43.5256067" lon="10.6831233"><ele>166.39999999999998</ele><time>2026-04-18T07:25:24.562Z</time></trkpt><trkpt lat="43.5256367" lon="10.68326"><ele>165.2</ele><time>2026-04-18T07:25:26.562Z</time></trkpt><trkpt lat="43.5255933" lon="10.6833567"><ele>164.0</ele><time>2026-04-18T07:25:28.563Z</time></trkpt><trkpt lat="43.5255067" lon="10.6834517"><ele>164.0</ele><time>2026-04-18T07:25:30.563Z</time></trkpt><trkpt lat="43.525435" lon="10.683515"><ele>164.0</ele><time>2026-04-18T07:25:31.562Z</time></trkpt><trkpt lat="43.525355" lon="10.683575"><ele>164.0</ele><time>2026-04-18T07:25:32.562Z</time></trkpt><trkpt lat="43.52526" lon="10.683655"><ele>164.0</ele><time>2026-04-18T07:25:33.562Z</time></trkpt><trkpt lat="43.5251583" lon="10.6837333"><ele>164.0</ele><time>2026-04-18T07:25:34.562Z</time></trkpt><trkpt lat="43.5250633" lon="10.6838033"><ele>162.16666666666666</ele><time>2026-04-18T07:25:35.562Z</time></trkpt><trkpt lat="43.5249683" lon="10.68386"><ele>160.33333333333331</ele><time>2026-04-18T07:25:36.562Z</time></trkpt><trkpt lat="43.52489" lon="10.683905"><ele>158.5</ele><time>2026-04-18T07:25:37.562Z</time></trkpt><trkpt lat="43.5248183" lon="10.683935"><ele>156.66666666666666</ele><time>2026-04-18T07:25:38.562Z</time></trkpt><trkpt lat="43.5247533" lon="10.683935"><ele>154.83333333333334</ele><time>2026-04-18T07:25:39.562Z</time></trkpt><trkpt lat="43.5246517" lon="10.6838867"><ele>153.0</ele><time>2026-04-18T07:25:41.562Z</time></trkpt><trkpt lat="43.52458" lon="10.6839167"><ele>151.4</ele><time>2026-04-18T07:25:43.562Z</time></trkpt><trkpt lat="43.52453" lon="10.6840067"><ele>149.8</ele><time>2026-04-18T07:25:45.562Z</time></trkpt><trkpt lat="43.5245017" lon="10.68416"><ele>148.2</ele><time>2026-04-18T07:25:47.562Z</time></trkpt><trkpt lat="43.5244867" lon="10.6842833"><ele>146.6</ele><time>2026-04-18T07:25:49.562Z</time></trkpt><trkpt lat="43.5245517" lon="10.6844033"><ele>145.0</ele><time>2026-04-18T07:26:10.562Z</time></trkpt><trkpt lat="43.52462" lon="10.6844383"><ele>145.0</ele><time>2026-04-18T07:26:11.563Z</time></trkpt><trkpt lat="43.5247117" lon="10.68448"><ele>145.0</ele><time>2026-04-18T07:26:12.562Z</time></trkpt><trkpt lat="43.5248117" lon="10.6845267"><ele>145.0</ele><time>2026-04-18T07:26:13.562Z</time></trkpt><trkpt lat="43.5249017" lon="10.6845617"><ele>145.0</ele><time>2026-04-18T07:26:14.562Z</time></trkpt><trkpt lat="43.5249983" lon="10.684595"><ele>145.0</ele><time>2026-04-18T07:26:15.562Z</time></trkpt><trkpt lat="43.5250883" lon="10.6846417"><ele>145.0</ele><time>2026-04-18T07:26:16.563Z</time></trkpt><trkpt lat="43.525165" lon="10.6847067"><ele>145.0</ele><time>2026-04-18T07:26:17.562Z</time></trkpt><trkpt lat="43.5252317" lon="10.684785"><ele>145.0</ele><time>2026-04-18T07:26:18.562Z</time></trkpt><trkpt lat="43.5252833" lon="10.6848767"><ele>145.0</ele><time>2026-04-18T07:26:19.562Z</time></trkpt><trkpt lat="43.5253283" lon="10.6850017"><ele>145.0</ele><time>2026-04-18T07:26:20.562Z</time></trkpt><trkpt lat="43.5253517" lon="10.68515"><ele>146.0</ele><time>2026-04-18T07:26:21.562Z</time></trkpt><trkpt lat="43.5253783" lon="10.6853183"><ele>147.0</ele><time>2026-04-18T07:26:22.562Z</time></trkpt><trkpt lat="43.52541" lon="10.685505"><ele>148.0</ele><time>2026-04-18T07:26:23.563Z</time></trkpt><trkpt lat="43.5254483" lon="10.6856933"><ele>149.0</ele><time>2026-04-18T07:26:24.563Z</time></trkpt><trkpt lat="43.525495" lon="10.6858717"><ele>149.0</ele><time>2026-04-18T07:26:25.562Z</time></trkpt><trkpt lat="43.525545" lon="10.686035"><ele>149.0</ele><time>2026-04-18T07:26:26.563Z</time></trkpt><trkpt lat="43.525575" lon="10.686205"><ele>149.0</ele><time>2026-04-18T07:26:27.562Z</time></trkpt><trkpt lat="43.5255917" lon="10.6863817"><ele>149.0</ele><time>2026-04-18T07:26:28.562Z</time></trkpt><trkpt lat="43.5255933" lon="10.6865617"><ele>146.0</ele><time>2026-04-18T07:26:29.562Z</time></trkpt><trkpt lat="43.5255967" lon="10.6867317"><ele>143.0</ele><time>2026-04-18T07:26:30.563Z</time></trkpt><trkpt lat="43.5255833" lon="10.6869067"><ele>140.0</ele><time>2026-04-18T07:26:31.562Z</time></trkpt><trkpt lat="43.5255467" lon="10.6870933"><ele>137.0</ele><time>2026-04-18T07:26:32.563Z</time></trkpt><trkpt lat="43.5254967" lon="10.68728"><ele>135.25</ele><time>2026-04-18T07:26:33.562Z</time></trkpt><trkpt lat="43.525445" lon="10.68745"><ele>133.5</ele><time>2026-04-18T07:26:34.563Z</time></trkpt><trkpt lat="43.5254" lon="10.6876117"><ele>131.75</ele><time>2026-04-18T07:26:35.562Z</time></trkpt><trkpt lat="43.5253517" lon="10.68776"><ele>130.0</ele><time>2026-04-18T07:26:36.562Z</time></trkpt><trkpt lat="43.525305" lon="10.6879133"><ele>127.75</ele><time>2026-04-18T07:26:37.562Z</time></trkpt><trkpt lat="43.5252667" lon="10.688095"><ele>125.5</ele><time>2026-04-18T07:26:38.562Z</time></trkpt><trkpt lat="43.52522" lon="10.68828"><ele>123.25</ele><time>2026-04-18T07:26:39.562Z</time></trkpt><trkpt lat="43.52519" lon="10.6884783"><ele>121.0</ele><time>2026-04-18T07:26:40.562Z</time></trkpt><trkpt lat="43.5251667" lon="10.6886867"><ele>120.66666666666667</ele><time>2026-04-18T07:26:41.562Z</time></trkpt><trkpt lat="43.5251483" lon="10.68891"><ele>120.33333333333334</ele><time>2026-04-18T07:26:42.562Z</time></trkpt><trkpt lat="43.525125" lon="10.68912"><ele>120.0</ele><time>2026-04-18T07:26:43.562Z</time></trkpt><trkpt lat="43.5251" lon="10.6893317"><ele>120.0</ele><time>2026-04-18T07:26:44.562Z</time></trkpt><trkpt lat="43.525065" lon="10.689515"><ele>120.0</ele><time>2026-04-18T07:26:45.563Z</time></trkpt><trkpt lat="43.525025" lon="10.6896883"><ele>120.0</ele><time>2026-04-18T07:26:46.562Z</time></trkpt><trkpt lat="43.52501" lon="10.689865"><ele>120.0</ele><time>2026-04-18T07:26:47.562Z</time></trkpt><trkpt lat="43.5250067" lon="10.690045"><ele>120.0</ele><time>2026-04-18T07:26:48.562Z</time></trkpt><trkpt lat="43.5250183" lon="10.6902367"><ele>120.0</ele><time>2026-04-18T07:26:49.562Z</time></trkpt><trkpt lat="43.52503" lon="10.69044"><ele>120.0</ele><time>2026-04-18T07:26:50.562Z</time></trkpt><trkpt lat="43.5250533" lon="10.69065"><ele>120.0</ele><time>2026-04-18T07:26:51.562Z</time></trkpt><trkpt lat="43.5250833" lon="10.690865"><ele>118.66666666666666</ele><time>2026-04-18T07:26:52.562Z</time></trkpt><trkpt lat="43.5251167" lon="10.691065"><ele>117.33333333333333</ele><time>2026-04-18T07:26:53.562Z</time></trkpt><trkpt lat="43.5251517" lon="10.6912667"><ele>116.0</ele><time>2026-04-18T07:26:54.562Z</time></trkpt><trkpt lat="43.5252" lon="10.6914717"><ele>114.5</ele><time>2026-04-18T07:26:55.562Z</time></trkpt><trkpt lat="43.5252533" lon="10.69166"><ele>113.0</ele><time>2026-04-18T07:26:56.563Z</time></trkpt><trkpt lat="43.5253" lon="10.691835"><ele>111.5</ele><time>2026-04-18T07:26:57.562Z</time></trkpt><trkpt lat="43.5253317" lon="10.6919967"><ele>110.0</ele><time>2026-04-18T07:26:58.562Z</time></trkpt><trkpt lat="43.5253683" lon="10.6921633"><ele>109.75</ele><time>2026-04-18T07:26:59.562Z</time></trkpt><trkpt lat="43.5253983" lon="10.6923433"><ele>109.5</ele><time>2026-04-18T07:27:00.562Z</time></trkpt><trkpt lat="43.5254233" lon="10.69253"><ele>109.25</ele><time>2026-04-18T07:27:01.562Z</time></trkpt><trkpt lat="43.525435" lon="10.6927217"><ele>109.0</ele><time>2026-04-18T07:27:02.563Z</time></trkpt><trkpt lat="43.52544" lon="10.6929"><ele>109.0</ele><time>2026-04-18T07:27:03.562Z</time></trkpt><trkpt lat="43.52544" lon="10.6930567"><ele>109.0</ele><time>2026-04-18T07:27:04.562Z</time></trkpt><trkpt lat="43.52545" lon="10.69321"><ele>109.0</ele><time>2026-04-18T07:27:05.562Z</time></trkpt><trkpt lat="43.525475" lon="10.6933583"><ele>109.0</ele><time>2026-04-18T07:27:06.562Z</time></trkpt><trkpt lat="43.5255217" lon="10.693525"><ele>108.5</ele><time>2026-04-18T07:27:07.562Z</time></trkpt><trkpt lat="43.5255883" lon="10.6937033"><ele>108.0</ele><time>2026-04-18T07:27:08.562Z</time></trkpt><trkpt lat="43.5256633" lon="10.6938683"><ele>107.5</ele><time>2026-04-18T07:27:09.562Z</time></trkpt><trkpt lat="43.525735" lon="10.6940217"><ele>107.0</ele><time>2026-04-18T07:27:10.562Z</time></trkpt><trkpt lat="43.5257917" lon="10.694165"><ele>107.0</ele><time>2026-04-18T07:27:11.562Z</time></trkpt><trkpt lat="43.525835" lon="10.69431"><ele>107.0</ele><time>2026-04-18T07:27:12.562Z</time></trkpt><trkpt lat="43.525865" lon="10.69447"><ele>107.0</ele><time>2026-04-18T07:27:13.562Z</time></trkpt><trkpt lat="43.52587" lon="10.694635"><ele>107.0</ele><time>2026-04-18T07:27:14.562Z</time></trkpt><trkpt lat="43.5258617" lon="10.694805"><ele>106.6</ele><time>2026-04-18T07:27:15.562Z</time></trkpt><trkpt lat="43.5258267" lon="10.69497"><ele>106.19999999999999</ele><time>2026-04-18T07:27:16.562Z</time></trkpt><trkpt lat="43.5257683" lon="10.695115"><ele>105.8</ele><time>2026-04-18T07:27:17.562Z</time></trkpt><trkpt lat="43.525705" lon="10.6952317"><ele>105.4</ele><time>2026-04-18T07:27:18.562Z</time></trkpt><trkpt lat="43.5256533" lon="10.6953467"><ele>105.0</ele><time>2026-04-18T07:27:19.562Z</time></trkpt><trkpt lat="43.5256317" lon="10.6954667"><ele>103.75</ele><time>2026-04-18T07:27:20.563Z</time></trkpt><trkpt lat="43.525635" lon="10.6956083"><ele>102.5</ele><time>2026-04-18T07:27:21.562Z</time></trkpt><trkpt lat="43.5256617" lon="10.69576"><ele>101.25</ele><time>2026-04-18T07:27:22.562Z</time></trkpt><trkpt lat="43.5257" lon="10.6959067"><ele>100.0</ele><time>2026-04-18T07:27:23.563Z</time></trkpt><trkpt lat="43.525735" lon="10.6960783"><ele>98.75</ele><time>2026-04-18T07:27:24.562Z</time></trkpt><trkpt lat="43.525745" lon="10.6962733"><ele>97.5</ele><time>2026-04-18T07:27:25.562Z</time></trkpt><trkpt lat="43.5257333" lon="10.6964767"><ele>96.25</ele><time>2026-04-18T07:27:26.562Z</time></trkpt><trkpt lat="43.5257067" lon="10.69668"><ele>95.0</ele><time>2026-04-18T07:27:27.562Z</time></trkpt><trkpt lat="43.5256833" lon="10.6968783"><ele>94.5</ele><time>2026-04-18T07:27:28.562Z</time></trkpt><trkpt lat="43.5256317" lon="10.697055"><ele>94.0</ele><time>2026-04-18T07:27:29.562Z</time></trkpt><trkpt lat="43.5255733" lon="10.6972167"><ele>93.5</ele><time>2026-04-18T07:27:30.562Z</time></trkpt><trkpt lat="43.52551" lon="10.6973633"><ele>93.0</ele><time>2026-04-18T07:27:31.563Z</time></trkpt><trkpt lat="43.525455" lon="10.6974967"><ele>93.0</ele><time>2026-04-18T07:27:32.563Z</time></trkpt><trkpt lat="43.5254167" lon="10.6976433"><ele>93.0</ele><time>2026-04-18T07:27:33.562Z</time></trkpt><trkpt lat="43.5254033" lon="10.697795"><ele>93.0</ele><time>2026-04-18T07:27:34.562Z</time></trkpt><trkpt lat="43.5254067" lon="10.697965"><ele>93.0</ele><time>2026-04-18T07:27:35.563Z</time></trkpt><trkpt lat="43.5254383" lon="10.698155"><ele>92.0</ele><time>2026-04-18T07:27:36.563Z</time></trkpt><trkpt lat="43.5254817" lon="10.6983383"><ele>91.0</ele><time>2026-04-18T07:27:37.562Z</time></trkpt><trkpt lat="43.5255117" lon="10.6985167"><ele>90.0</ele><time>2026-04-18T07:27:38.562Z</time></trkpt><trkpt lat="43.5255283" lon="10.6986917"><ele>89.0</ele><time>2026-04-18T07:27:39.562Z</time></trkpt><trkpt lat="43.5255233" lon="10.698855"><ele>88.4</ele><time>2026-04-18T07:27:40.562Z</time></trkpt><trkpt lat="43.52549" lon="10.69901"><ele>87.80000000000001</ele><time>2026-04-18T07:27:41.562Z</time></trkpt><trkpt lat="43.5254417" lon="10.6991633"><ele>87.19999999999999</ele><time>2026-04-18T07:27:42.562Z</time></trkpt><trkpt lat="43.5253983" lon="10.6992967"><ele>86.6</ele><time>2026-04-18T07:27:43.562Z</time></trkpt><trkpt lat="43.5253483" lon="10.6994067"><ele>86.0</ele><time>2026-04-18T07:27:44.562Z</time></trkpt><trkpt lat="43.5253" lon="10.69952"><ele>84.39999999999999</ele><time>2026-04-18T07:27:45.561Z</time></trkpt><trkpt lat="43.5252817" lon="10.69964"><ele>82.8</ele><time>2026-04-18T07:27:46.561Z</time></trkpt><trkpt lat="43.5252833" lon="10.6997617"><ele>81.19999999999999</ele><time>2026-04-18T07:27:47.561Z</time></trkpt><trkpt lat="43.52532" lon="10.6999083"><ele>79.6</ele><time>2026-04-18T07:27:48.561Z</time></trkpt><trkpt lat="43.52539" lon="10.7000717"><ele>78.0</ele><time>2026-04-18T07:27:49.561Z</time></trkpt><trkpt lat="43.525455" lon="10.7002233"><ele>75.0</ele><time>2026-04-18T07:27:50.561Z</time></trkpt><trkpt lat="43.525515" lon="10.70038"><ele>72.0</ele><time>2026-04-18T07:27:51.561Z</time></trkpt><trkpt lat="43.5255833" lon="10.70056"><ele>69.0</ele><time>2026-04-18T07:27:52.561Z</time></trkpt><trkpt lat="43.52564" lon="10.7007283"><ele>66.0</ele><time>2026-04-18T07:27:53.561Z</time></trkpt><trkpt lat="43.5256917" lon="10.7008967"><ele>66.0</ele><time>2026-04-18T07:27:54.561Z</time></trkpt><trkpt lat="43.5257233" lon="10.701055"><ele>66.0</ele><time>2026-04-18T07:27:55.561Z</time></trkpt><trkpt lat="43.525745" lon="10.7012267"><ele>66.0</ele><time>2026-04-18T07:27:56.561Z</time></trkpt><trkpt lat="43.52575" lon="10.7013983"><ele>66.0</ele><time>2026-04-18T07:27:57.561Z</time></trkpt><trkpt lat="43.52575" lon="10.7015583"><ele>64.8</ele><time>2026-04-18T07:27:58.561Z</time></trkpt><trkpt lat="43.52575" lon="10.7017133"><ele>63.599999999999994</ele><time>2026-04-18T07:27:59.561Z</time></trkpt><trkpt lat="43.525755" lon="10.70187"><ele>62.4</ele><time>2026-04-18T07:28:00.561Z</time></trkpt><trkpt lat="43.5257767" lon="10.7020167"><ele>61.2</ele><time>2026-04-18T07:28:01.562Z</time></trkpt><trkpt lat="43.525815" lon="10.7021533"><ele>60.0</ele><time>2026-04-18T07:28:02.561Z</time></trkpt><trkpt lat="43.5258517" lon="10.702285"><ele>59.5</ele><time>2026-04-18T07:28:03.561Z</time></trkpt><trkpt lat="43.5258867" lon="10.7024033"><ele>59.0</ele><time>2026-04-18T07:28:04.561Z</time></trkpt><trkpt lat="43.525925" lon="10.7025083"><ele>58.5</ele><time>2026-04-18T07:28:05.561Z</time></trkpt><trkpt lat="43.5259483" lon="10.7026"><ele>58.0</ele><time>2026-04-18T07:28:06.561Z</time></trkpt><trkpt lat="43.5259783" lon="10.7026967"><ele>57.5</ele><time>2026-04-18T07:28:08.561Z</time></trkpt><trkpt lat="43.5260617" lon="10.702705"><ele>57.0</ele><time>2026-04-18T07:28:11.561Z</time></trkpt><trkpt lat="43.5261217" lon="10.702675"><ele>57.0</ele><time>2026-04-18T07:28:12.561Z</time></trkpt><trkpt lat="43.5261933" lon="10.7026167"><ele>57.0</ele><time>2026-04-18T07:28:13.561Z</time></trkpt><trkpt lat="43.5262733" lon="10.702545"><ele>57.0</ele><time>2026-04-18T07:28:14.561Z</time></trkpt><trkpt lat="43.5263617" lon="10.7024767"><ele>57.0</ele><time>2026-04-18T07:28:15.561Z</time></trkpt><trkpt lat="43.5264633" lon="10.7024233"><ele>57.0</ele><time>2026-04-18T07:28:16.561Z</time></trkpt><trkpt lat="43.5265667" lon="10.7023683"><ele>56.75</ele><time>2026-04-18T07:28:17.562Z</time></trkpt><trkpt lat="43.5266783" lon="10.7023317"><ele>56.5</ele><time>2026-04-18T07:28:18.561Z</time></trkpt><trkpt lat="43.5268033" lon="10.70231"><ele>56.25</ele><time>2026-04-18T07:28:19.561Z</time></trkpt><trkpt lat="43.5269467" lon="10.7022967"><ele>56.0</ele><time>2026-04-18T07:28:20.561Z</time></trkpt><trkpt lat="43.5271" lon="10.70228"><ele>56.0</ele><time>2026-04-18T07:28:21.561Z</time></trkpt><trkpt lat="43.5272583" lon="10.7022717"><ele>56.0</ele><time>2026-04-18T07:28:22.562Z</time></trkpt><trkpt lat="43.5274183" lon="10.702265"><ele>56.0</ele><time>2026-04-18T07:28:23.561Z</time></trkpt><trkpt lat="43.5275833" lon="10.7022567"><ele>56.0</ele><time>2026-04-18T07:28:24.561Z</time></trkpt><trkpt lat="43.5277517" lon="10.702255"><ele>56.0</ele><time>2026-04-18T07:28:25.561Z</time></trkpt><trkpt lat="43.527925" lon="10.70225"><ele>56.0</ele><time>2026-04-18T07:28:26.561Z</time></trkpt><trkpt lat="43.5281067" lon="10.702245"><ele>56.66666666666667</ele><time>2026-04-18T07:28:27.562Z</time></trkpt><trkpt lat="43.5282933" lon="10.702245"><ele>57.33333333333333</ele><time>2026-04-18T07:28:28.561Z</time></trkpt><trkpt lat="43.5284833" lon="10.7022383"><ele>58.0</ele><time>2026-04-18T07:28:29.561Z</time></trkpt><trkpt lat="43.5286617" lon="10.702235"><ele>57.0</ele><time>2026-04-18T07:28:30.561Z</time></trkpt><trkpt lat="43.528835" lon="10.7022283"><ele>56.0</ele><time>2026-04-18T07:28:31.561Z</time></trkpt><trkpt lat="43.5290133" lon="10.7022283"><ele>55.0</ele><time>2026-04-18T07:28:32.562Z</time></trkpt><trkpt lat="43.5291917" lon="10.7022167"><ele>55.0</ele><time>2026-04-18T07:28:33.561Z</time></trkpt><trkpt lat="43.5293733" lon="10.702195"><ele>55.0</ele><time>2026-04-18T07:28:34.561Z</time></trkpt><trkpt lat="43.5295533" lon="10.70217"><ele>55.0</ele><time>2026-04-18T07:28:35.561Z</time></trkpt><trkpt lat="43.5297483" lon="10.7021533"><ele>54.666666666666664</ele><time>2026-04-18T07:28:36.561Z</time></trkpt><trkpt lat="43.5299433" lon="10.7021317"><ele>54.33333333333333</ele><time>2026-04-18T07:28:37.561Z</time></trkpt><trkpt lat="43.5301367" lon="10.7021"><ele>54.0</ele><time>2026-04-18T07:28:38.561Z</time></trkpt><trkpt lat="43.5303183" lon="10.7020667"><ele>54.33333333333333</ele><time>2026-04-18T07:28:39.561Z</time></trkpt><trkpt lat="43.530505" lon="10.70204"><ele>54.666666666666664</ele><time>2026-04-18T07:28:40.561Z</time></trkpt><trkpt lat="43.5306967" lon="10.702015"><ele>55.0</ele><time>2026-04-18T07:28:41.561Z</time></trkpt><trkpt lat="43.530885" lon="10.7019833"><ele>55.0</ele><time>2026-04-18T07:28:42.561Z</time></trkpt><trkpt lat="43.5310817" lon="10.7019533"><ele>55.0</ele><time>2026-04-18T07:28:43.561Z</time></trkpt><trkpt lat="43.531285" lon="10.70191"><ele>55.0</ele><time>2026-04-18T07:28:44.561Z</time></trkpt><trkpt lat="43.5314817" lon="10.70187"><ele>55.0</ele><time>2026-04-18T07:28:45.561Z</time></trkpt><trkpt lat="43.5316817" lon="10.701825"><ele>55.0</ele><time>2026-04-18T07:28:46.561Z</time></trkpt><trkpt lat="43.5318783" lon="10.7017867"><ele>55.0</ele><time>2026-04-18T07:28:47.561Z</time></trkpt><trkpt lat="43.5320883" lon="10.7017533"><ele>55.0</ele><time>2026-04-18T07:28:48.561Z</time></trkpt><trkpt lat="43.5323067" lon="10.7017117"><ele>55.0</ele><time>2026-04-18T07:28:49.561Z</time></trkpt><trkpt lat="43.5325067" lon="10.7016717"><ele>55.0</ele><time>2026-04-18T07:28:50.561Z</time></trkpt><trkpt lat="43.5327017" lon="10.7016267"><ele>55.33333333333333</ele><time>2026-04-18T07:28:51.562Z</time></trkpt><trkpt lat="43.5328917" lon="10.7015867"><ele>55.66666666666667</ele><time>2026-04-18T07:28:52.561Z</time></trkpt><trkpt lat="43.53307" lon="10.701545"><ele>56.0</ele><time>2026-04-18T07:28:53.561Z</time></trkpt><trkpt lat="43.5332483" lon="10.7015117"><ele>56.0</ele><time>2026-04-18T07:28:54.561Z</time></trkpt><trkpt lat="43.5334217" lon="10.701475"><ele>56.0</ele><time>2026-04-18T07:28:55.561Z</time></trkpt><trkpt lat="43.5335983" lon="10.7014483"><ele>56.0</ele><time>2026-04-18T07:28:56.562Z</time></trkpt><trkpt lat="43.533765" lon="10.7014133"><ele>56.66666666666667</ele><time>2026-04-18T07:28:57.561Z</time></trkpt><trkpt lat="43.53393" lon="10.7013783"><ele>57.33333333333333</ele><time>2026-04-18T07:28:58.561Z</time></trkpt><trkpt lat="43.534095" lon="10.7013433"><ele>58.0</ele><time>2026-04-18T07:28:59.561Z</time></trkpt><trkpt lat="43.5342583" lon="10.7013067"><ele>58.0</ele><time>2026-04-18T07:29:00.561Z</time></trkpt><trkpt lat="43.5344233" lon="10.70127"><ele>58.0</ele><time>2026-04-18T07:29:01.561Z</time></trkpt><trkpt lat="43.53459" lon="10.7012333"><ele>58.0</ele><time>2026-04-18T07:29:02.561Z</time></trkpt><trkpt lat="43.5347517" lon="10.7011967"><ele>57.33333333333333</ele><time>2026-04-18T07:29:03.562Z</time></trkpt><trkpt lat="43.5349133" lon="10.701165"><ele>56.66666666666667</ele><time>2026-04-18T07:29:04.561Z</time></trkpt><trkpt lat="43.535075" lon="10.7011267"><ele>56.0</ele><time>2026-04-18T07:29:05.561Z</time></trkpt><trkpt lat="43.5352567" lon="10.70109"><ele>56.333333333333336</ele><time>2026-04-18T07:29:06.561Z</time></trkpt><trkpt lat="43.53543" lon="10.7010533"><ele>56.66666666666667</ele><time>2026-04-18T07:29:07.561Z</time></trkpt><trkpt lat="43.5355933" lon="10.701025"><ele>57.0</ele><time>2026-04-18T07:29:08.561Z</time></trkpt><trkpt lat="43.5357383" lon="10.700995"><ele>57.0</ele><time>2026-04-18T07:29:09.561Z</time></trkpt><trkpt lat="43.53587" lon="10.7009617"><ele>57.0</ele><time>2026-04-18T07:29:10.561Z</time></trkpt><trkpt lat="43.535985" lon="10.7009333"><ele>57.0</ele><time>2026-04-18T07:29:11.561Z</time></trkpt><trkpt lat="43.5360917" lon="10.7009067"><ele>57.0</ele><time>2026-04-18T07:29:12.561Z</time></trkpt><trkpt lat="43.5362067" lon="10.7008883"><ele>56.5</ele><time>2026-04-18T07:29:13.561Z</time></trkpt><trkpt lat="43.536335" lon="10.7008633"><ele>56.0</ele><time>2026-04-18T07:29:14.561Z</time></trkpt><trkpt lat="43.5364717" lon="10.7008417"><ele>55.5</ele><time>2026-04-18T07:29:15.561Z</time></trkpt><trkpt lat="43.5366233" lon="10.7008083"><ele>55.0</ele><time>2026-04-18T07:29:16.561Z</time></trkpt><trkpt lat="43.5367767" lon="10.7007767"><ele>55.0</ele><time>2026-04-18T07:29:17.561Z</time></trkpt><trkpt lat="43.5369383" lon="10.7007433"><ele>55.0</ele><time>2026-04-18T07:29:18.561Z</time></trkpt><trkpt lat="43.5371067" lon="10.7007033"><ele>55.0</ele><time>2026-04-18T07:29:19.561Z</time></trkpt><trkpt lat="43.537235" lon="10.70068"><ele>55.4</ele><time>2026-04-18T07:29:20.561Z</time></trkpt><trkpt lat="43.5373283" lon="10.700665"><ele>55.8</ele><time>2026-04-18T07:29:21.561Z</time></trkpt><trkpt lat="43.537405" lon="10.70066"><ele>56.2</ele><time>2026-04-18T07:29:23.561Z</time></trkpt><trkpt lat="43.5374967" lon="10.7006733"><ele>56.6</ele><time>2026-04-18T07:29:35.561Z</time></trkpt><trkpt lat="43.5375667" lon="10.7006733"><ele>57.0</ele><time>2026-04-18T07:29:36.561Z</time></trkpt><trkpt lat="43.5376867" lon="10.7006583"><ele>57.0</ele><time>2026-04-18T07:29:37.561Z</time></trkpt><trkpt lat="43.5378367" lon="10.7006333"><ele>57.0</ele><time>2026-04-18T07:29:38.561Z</time></trkpt><trkpt lat="43.5379817" lon="10.7006067"><ele>57.0</ele><time>2026-04-18T07:29:39.561Z</time></trkpt><trkpt lat="43.538135" lon="10.7005733"><ele>57.0</ele><time>2026-04-18T07:29:40.561Z</time></trkpt><trkpt lat="43.5382917" lon="10.700545"><ele>57.0</ele><time>2026-04-18T07:29:41.561Z</time></trkpt><trkpt lat="43.5384567" lon="10.7005183"><ele>57.0</ele><time>2026-04-18T07:29:42.562Z</time></trkpt><trkpt lat="43.5386233" lon="10.7004917"><ele>56.66666666666667</ele><time>2026-04-18T07:29:43.561Z</time></trkpt><trkpt lat="43.5387883" lon="10.7004717"><ele>56.333333333333336</ele><time>2026-04-18T07:29:44.561Z</time></trkpt><trkpt lat="43.538955" lon="10.7004433"><ele>56.0</ele><time>2026-04-18T07:29:45.561Z</time></trkpt><trkpt lat="43.5390967" lon="10.7004317"><ele>56.0</ele><time>2026-04-18T07:29:46.561Z</time></trkpt><trkpt lat="43.5392433" lon="10.7004117"><ele>56.0</ele><time>2026-04-18T07:29:47.561Z</time></trkpt><trkpt lat="43.5393883" lon="10.7003933"><ele>56.0</ele><time>2026-04-18T07:29:48.561Z</time></trkpt><trkpt lat="43.5395383" lon="10.7003817"><ele>56.0</ele><time>2026-04-18T07:29:49.561Z</time></trkpt><trkpt lat="43.5396883" lon="10.7003633"><ele>56.25</ele><time>2026-04-18T07:29:50.561Z</time></trkpt><trkpt lat="43.5398283" lon="10.700345"><ele>56.5</ele><time>2026-04-18T07:29:51.561Z</time></trkpt><trkpt lat="43.539975" lon="10.7003183"><ele>56.75</ele><time>2026-04-18T07:29:52.561Z</time></trkpt><trkpt lat="43.5401233" lon="10.7003033"><ele>57.0</ele><time>2026-04-18T07:29:53.561Z</time></trkpt><trkpt lat="43.5402617" lon="10.7002883"><ele>56.66666666666667</ele><time>2026-04-18T07:29:54.561Z</time></trkpt><trkpt lat="43.54041" lon="10.7002567"><ele>56.333333333333336</ele><time>2026-04-18T07:29:55.561Z</time></trkpt><trkpt lat="43.5405633" lon="10.7002467"><ele>56.0</ele><time>2026-04-18T07:29:56.561Z</time></trkpt><trkpt lat="43.5407133" lon="10.70022"><ele>56.5</ele><time>2026-04-18T07:29:57.561Z</time></trkpt><trkpt lat="43.54085" lon="10.7001967"><ele>57.0</ele><time>2026-04-18T07:29:58.562Z</time></trkpt><trkpt lat="43.5409733" lon="10.7001783"><ele>57.5</ele><time>2026-04-18T07:29:59.561Z</time></trkpt><trkpt lat="43.5410917" lon="10.700155"><ele>58.0</ele><time>2026-04-18T07:30:00.561Z</time></trkpt><trkpt lat="43.5411983" lon="10.700135"><ele>57.666666666666664</ele><time>2026-04-18T07:30:01.561Z</time></trkpt><trkpt lat="43.5413067" lon="10.7001117"><ele>57.33333333333333</ele><time>2026-04-18T07:30:02.561Z</time></trkpt><trkpt lat="43.541405" lon="10.7001033"><ele>57.0</ele><time>2026-04-18T07:30:03.561Z</time></trkpt><trkpt lat="43.5414917" lon="10.7001017"><ele>56.66666666666667</ele><time>2026-04-18T07:30:04.561Z</time></trkpt><trkpt lat="43.5415667" lon="10.7001133"><ele>56.333333333333336</ele><time>2026-04-18T07:30:05.561Z</time></trkpt><trkpt lat="43.5416317" lon="10.7001567"><ele>56.0</ele><time>2026-04-18T07:30:06.561Z</time></trkpt><trkpt lat="43.5417" lon="10.7002333"><ele>56.0</ele><time>2026-04-18T07:30:07.561Z</time></trkpt><trkpt lat="43.5417483" lon="10.7003267"><ele>55.99999999999999</ele><time>2026-04-18T07:30:08.561Z</time></trkpt><trkpt lat="43.5417817" lon="10.7004517"><ele>55.99999999999999</ele><time>2026-04-18T07:30:09.561Z</time></trkpt><trkpt lat="43.5417933" lon="10.7005917"><ele>56.0</ele><time>2026-04-18T07:30:10.561Z</time></trkpt><trkpt lat="43.5418083" lon="10.700725"><ele>56.0</ele><time>2026-04-18T07:30:11.561Z</time></trkpt><trkpt lat="43.54182" lon="10.7008717"><ele>56.0</ele><time>2026-04-18T07:30:12.562Z</time></trkpt><trkpt lat="43.5418333" lon="10.70103"><ele>56.0</ele><time>2026-04-18T07:30:13.561Z</time></trkpt><trkpt lat="43.5418517" lon="10.7012"><ele>56.0</ele><time>2026-04-18T07:30:14.561Z</time></trkpt><trkpt lat="43.5418817" lon="10.70137"><ele>56.0</ele><time>2026-04-18T07:30:15.562Z</time></trkpt><trkpt lat="43.5419167" lon="10.7015567"><ele>55.5</ele><time>2026-04-18T07:30:16.561Z</time></trkpt><trkpt lat="43.541945" lon="10.70175"><ele>55.0</ele><time>2026-04-18T07:30:17.561Z</time></trkpt><trkpt lat="43.5419717" lon="10.7019483"><ele>54.5</ele><time>2026-04-18T07:30:18.561Z</time></trkpt><trkpt lat="43.5420033" lon="10.702145"><ele>54.0</ele><time>2026-04-18T07:30:19.561Z</time></trkpt><trkpt lat="43.542025" lon="10.7023517"><ele>54.0</ele><time>2026-04-18T07:30:20.561Z</time></trkpt><trkpt lat="43.54205" lon="10.7025417"><ele>54.0</ele><time>2026-04-18T07:30:21.562Z</time></trkpt><trkpt lat="43.54207" lon="10.7027283"><ele>54.0</ele><time>2026-04-18T07:30:22.561Z</time></trkpt><trkpt lat="43.5421" lon="10.7029117"><ele>54.0</ele><time>2026-04-18T07:30:23.561Z</time></trkpt><trkpt lat="43.5421267" lon="10.7031"><ele>53.25</ele><time>2026-04-18T07:30:24.561Z</time></trkpt><trkpt lat="43.5421517" lon="10.7032917"><ele>52.5</ele><time>2026-04-18T07:30:25.562Z</time></trkpt><trkpt lat="43.5421783" lon="10.7034933"><ele>51.75</ele><time>2026-04-18T07:30:26.561Z</time></trkpt><trkpt lat="43.542205" lon="10.7037083"><ele>51.0</ele><time>2026-04-18T07:30:27.561Z</time></trkpt><trkpt lat="43.542235" lon="10.7039183"><ele>51.0</ele><time>2026-04-18T07:30:28.561Z</time></trkpt><trkpt lat="43.542265" lon="10.7041383"><ele>51.0</ele><time>2026-04-18T07:30:29.561Z</time></trkpt><trkpt lat="43.5422933" lon="10.7043533"><ele>51.0</ele><time>2026-04-18T07:30:30.562Z</time></trkpt><trkpt lat="43.54233" lon="10.704565"><ele>50.33333333333333</ele><time>2026-04-18T07:30:31.561Z</time></trkpt><trkpt lat="43.5423617" lon="10.7047833"><ele>49.666666666666664</ele><time>2026-04-18T07:30:32.561Z</time></trkpt><trkpt lat="43.5423833" lon="10.7050083"><ele>49.0</ele><time>2026-04-18T07:30:33.561Z</time></trkpt><trkpt lat="43.5424067" lon="10.70524"><ele>49.33333333333333</ele><time>2026-04-18T07:30:34.562Z</time></trkpt><trkpt lat="43.5424383" lon="10.7054783"><ele>49.66666666666667</ele><time>2026-04-18T07:30:35.561Z</time></trkpt><trkpt lat="43.5424667" lon="10.70571"><ele>50.0</ele><time>2026-04-18T07:30:36.561Z</time></trkpt><trkpt lat="43.5424983" lon="10.70594"><ele>50.25</ele><time>2026-04-18T07:30:37.562Z</time></trkpt><trkpt lat="43.5425217" lon="10.7061433"><ele>50.5</ele><time>2026-04-18T07:30:38.561Z</time></trkpt><trkpt lat="43.542545" lon="10.7063417"><ele>50.75</ele><time>2026-04-18T07:30:39.561Z</time></trkpt><trkpt lat="43.542575" lon="10.7065283"><ele>51.0</ele><time>2026-04-18T07:30:40.561Z</time></trkpt><trkpt lat="43.5426" lon="10.7067033"><ele>51.0</ele><time>2026-04-18T07:30:41.561Z</time></trkpt><trkpt lat="43.5426267" lon="10.7068783"><ele>51.0</ele><time>2026-04-18T07:30:42.562Z</time></trkpt><trkpt lat="43.5426583" lon="10.7070567"><ele>51.0</ele><time>2026-04-18T07:30:43.561Z</time></trkpt><trkpt lat="43.5426883" lon="10.7072467"><ele>51.0</ele><time>2026-04-18T07:30:44.561Z</time></trkpt><trkpt lat="43.542715" lon="10.7074333"><ele>50.5</ele><time>2026-04-18T07:30:45.561Z</time></trkpt><trkpt lat="43.5427367" lon="10.7076167"><ele>50.0</ele><time>2026-04-18T07:30:46.561Z</time></trkpt><trkpt lat="43.5427617" lon="10.7077967"><ele>49.5</ele><time>2026-04-18T07:30:47.561Z</time></trkpt><trkpt lat="43.5427833" lon="10.7079717"><ele>49.0</ele><time>2026-04-18T07:30:48.561Z</time></trkpt><trkpt lat="43.5428067" lon="10.7081533"><ele>49.0</ele><time>2026-04-18T07:30:49.561Z</time></trkpt><trkpt lat="43.5428267" lon="10.708345"><ele>49.0</ele><time>2026-04-18T07:30:50.561Z</time></trkpt><trkpt lat="43.5428583" lon="10.7085417"><ele>49.0</ele><time>2026-04-18T07:30:51.561Z</time></trkpt><trkpt lat="43.542885" lon="10.7087433"><ele>49.0</ele><time>2026-04-18T07:30:52.561Z</time></trkpt><trkpt lat="43.5429117" lon="10.7089717"><ele>49.0</ele><time>2026-04-18T07:30:53.562Z</time></trkpt><trkpt lat="43.5429433" lon="10.7092"><ele>49.0</ele><time>2026-04-18T07:30:54.561Z</time></trkpt><trkpt lat="43.5429683" lon="10.70943"><ele>49.0</ele><time>2026-04-18T07:30:55.561Z</time></trkpt><trkpt lat="43.543" lon="10.709665"><ele>48.666666666666664</ele><time>2026-04-18T07:30:56.562Z</time></trkpt><trkpt lat="43.5430333" lon="10.7099167"><ele>48.33333333333333</ele><time>2026-04-18T07:30:57.561Z</time></trkpt><trkpt lat="43.5430783" lon="10.7101717"><ele>48.0</ele><time>2026-04-18T07:30:58.561Z</time></trkpt><trkpt lat="43.5431183" lon="10.710425"><ele>47.0</ele><time>2026-04-18T07:30:59.561Z</time></trkpt><trkpt lat="43.5431583" lon="10.7106667"><ele>46.0</ele><time>2026-04-18T07:31:00.561Z</time></trkpt><trkpt lat="43.5431883" lon="10.710885"><ele>45.0</ele><time>2026-04-18T07:31:01.562Z</time></trkpt><trkpt lat="43.5432217" lon="10.7111083"><ele>44.333333333333336</ele><time>2026-04-18T07:31:02.561Z</time></trkpt><trkpt lat="43.5432417" lon="10.711315"><ele>43.66666666666667</ele><time>2026-04-18T07:31:03.561Z</time></trkpt><trkpt lat="43.5432717" lon="10.71153"><ele>43.0</ele><time>2026-04-18T07:31:04.561Z</time></trkpt><trkpt lat="43.5433" lon="10.711745"><ele>43.0</ele><time>2026-04-18T07:31:05.561Z</time></trkpt><trkpt lat="43.5433267" lon="10.7119817"><ele>43.0</ele><time>2026-04-18T07:31:06.561Z</time></trkpt><trkpt lat="43.543355" lon="10.71221"><ele>43.0</ele><time>2026-04-18T07:31:07.561Z</time></trkpt><trkpt lat="43.5433817" lon="10.7124133"><ele>43.0</ele><time>2026-04-18T07:31:08.561Z</time></trkpt><trkpt lat="43.5434067" lon="10.7125983"><ele>43.0</ele><time>2026-04-18T07:31:09.561Z</time></trkpt><trkpt lat="43.5434317" lon="10.71278"><ele>43.0</ele><time>2026-04-18T07:31:10.561Z</time></trkpt><trkpt lat="43.5434567" lon="10.7129483"><ele>43.0</ele><time>2026-04-18T07:31:11.561Z</time></trkpt><trkpt lat="43.5434817" lon="10.7131083"><ele>42.75</ele><time>2026-04-18T07:31:12.561Z</time></trkpt><trkpt lat="43.5435067" lon="10.713275"><ele>42.5</ele><time>2026-04-18T07:31:13.561Z</time></trkpt><trkpt lat="43.5435333" lon="10.7134667"><ele>42.25</ele><time>2026-04-18T07:31:14.561Z</time></trkpt><trkpt lat="43.54357" lon="10.71368"><ele>42.0</ele><time>2026-04-18T07:31:15.56Z</time></trkpt><trkpt lat="43.5435983" lon="10.7138967"><ele>41.75</ele><time>2026-04-18T07:31:16.56Z</time></trkpt><trkpt lat="43.5436217" lon="10.7140967"><ele>41.5</ele><time>2026-04-18T07:31:17.56Z</time></trkpt><trkpt lat="43.5436433" lon="10.7142917"><ele>41.25</ele><time>2026-04-18T07:31:18.56Z</time></trkpt><trkpt lat="43.54367" lon="10.7144667"><ele>41.0</ele><time>2026-04-18T07:31:19.561Z</time></trkpt><trkpt lat="43.543685" lon="10.71461"><ele>41.83333333333333</ele><time>2026-04-18T07:31:20.56Z</time></trkpt><trkpt lat="43.54371" lon="10.714715"><ele>42.666666666666664</ele><time>2026-04-18T07:31:21.561Z</time></trkpt><trkpt lat="43.5437367" lon="10.714795"><ele>43.5</ele><time>2026-04-18T07:31:22.56Z</time></trkpt><trkpt lat="43.5437783" lon="10.7148867"><ele>44.333333333333336</ele><time>2026-04-18T07:31:24.56Z</time></trkpt><trkpt lat="43.5437917" lon="10.7150067"><ele>45.16666666666667</ele><time>2026-04-18T07:31:27.56Z</time></trkpt><trkpt lat="43.543795" lon="10.71511"><ele>46.0</ele><time>2026-04-18T07:31:30.56Z</time></trkpt><trkpt lat="43.54372" lon="10.7151383"><ele>46.0</ele><time>2026-04-18T07:31:33.56Z</time></trkpt><trkpt lat="43.5436683" lon="10.7150867"><ele>46.0</ele><time>2026-04-18T07:31:35.561Z</time></trkpt><trkpt lat="43.5436367" lon="10.7149817"><ele>46.0</ele><time>2026-04-18T07:31:38.56Z</time></trkpt><trkpt lat="43.5436117" lon="10.7148867"><ele>46.0</ele><time>2026-04-18T07:31:42.561Z</time></trkpt><trkpt lat="43.5435867" lon="10.71478"><ele>46.0</ele><time>2026-04-18T07:31:44.56Z</time></trkpt><trkpt lat="43.5435333" lon="10.7146017"><ele>46.0</ele><time>2026-04-18T07:31:46.56Z</time></trkpt><trkpt lat="43.5434967" lon="10.71448"><ele>45.16666666666667</ele><time>2026-04-18T07:31:47.56Z</time></trkpt><trkpt lat="43.5434567" lon="10.714365"><ele>44.333333333333336</ele><time>2026-04-18T07:31:48.56Z</time></trkpt><trkpt lat="43.5434067" lon="10.7142617"><ele>43.5</ele><time>2026-04-18T07:31:49.56Z</time></trkpt><trkpt lat="43.5433533" lon="10.7141817"><ele>42.666666666666664</ele><time>2026-04-18T07:31:50.56Z</time></trkpt><trkpt lat="43.5432917" lon="10.7141167"><ele>41.83333333333333</ele><time>2026-04-18T07:31:51.56Z</time></trkpt><trkpt lat="43.5432267" lon="10.714075"><ele>41.0</ele><time>2026-04-18T07:31:52.56Z</time></trkpt><trkpt lat="43.543155" lon="10.7140467"><ele>41.0</ele><time>2026-04-18T07:31:53.56Z</time></trkpt><trkpt lat="43.54308" lon="10.7140333"><ele>41.0</ele><time>2026-04-18T07:31:54.56Z</time></trkpt><trkpt lat="43.5430033" lon="10.7140383"><ele>41.0</ele><time>2026-04-18T07:31:55.56Z</time></trkpt><trkpt lat="43.5429283" lon="10.714045"><ele>41.0</ele><time>2026-04-18T07:31:56.561Z</time></trkpt><trkpt lat="43.542845" lon="10.7140583"><ele>41.0</ele><time>2026-04-18T07:31:57.56Z</time></trkpt><trkpt lat="43.5427517" lon="10.7140633"><ele>41.0</ele><time>2026-04-18T07:31:58.56Z</time></trkpt><trkpt lat="43.5426467" lon="10.7140683"><ele>41.0</ele><time>2026-04-18T07:31:59.56Z</time></trkpt><trkpt lat="43.5425383" lon="10.714065"><ele>41.0</ele><time>2026-04-18T07:32:00.56Z</time></trkpt><trkpt lat="43.542425" lon="10.7140617"><ele>41.0</ele><time>2026-04-18T07:32:01.56Z</time></trkpt><trkpt lat="43.542315" lon="10.7140783"><ele>41.0</ele><time>2026-04-18T07:32:02.56Z</time></trkpt><trkpt lat="43.5422017" lon="10.714105"><ele>41.0</ele><time>2026-04-18T07:32:03.56Z</time></trkpt><trkpt lat="43.5420883" lon="10.7141333"><ele>40.8</ele><time>2026-04-18T07:32:04.56Z</time></trkpt><trkpt lat="43.5419717" lon="10.7141617"><ele>40.599999999999994</ele><time>2026-04-18T07:32:05.561Z</time></trkpt><trkpt lat="43.541855" lon="10.71419"><ele>40.4</ele><time>2026-04-18T07:32:06.56Z</time></trkpt><trkpt lat="43.54175" lon="10.71422"><ele>40.2</ele><time>2026-04-18T07:32:07.56Z</time></trkpt><trkpt lat="43.541655" lon="10.7142467"><ele>40.0</ele><time>2026-04-18T07:32:08.561Z</time></trkpt><trkpt lat="43.541555" lon="10.7142817"><ele>40.0</ele><time>2026-04-18T07:32:09.56Z</time></trkpt><trkpt lat="43.54145" lon="10.7143267"><ele>40.0</ele><time>2026-04-18T07:32:10.56Z</time></trkpt><trkpt lat="43.541345" lon="10.7143717"><ele>40.0</ele><time>2026-04-18T07:32:11.561Z</time></trkpt><trkpt lat="43.5412433" lon="10.7144117"><ele>40.0</ele><time>2026-04-18T07:32:12.56Z</time></trkpt><trkpt lat="43.5411483" lon="10.7144433"><ele>40.0</ele><time>2026-04-18T07:32:13.56Z</time></trkpt><trkpt lat="43.54105" lon="10.7144717"><ele>41.2</ele><time>2026-04-18T07:32:14.56Z</time></trkpt><trkpt lat="43.54095" lon="10.7144867"><ele>42.4</ele><time>2026-04-18T07:32:15.56Z</time></trkpt><trkpt lat="43.5408533" lon="10.7144933"><ele>43.599999999999994</ele><time>2026-04-18T07:32:16.56Z</time></trkpt><trkpt lat="43.540755" lon="10.7145"><ele>44.8</ele><time>2026-04-18T07:32:17.56Z</time></trkpt><trkpt lat="43.5406583" lon="10.7145117"><ele>46.0</ele><time>2026-04-18T07:32:18.561Z</time></trkpt><trkpt lat="43.5405617" lon="10.7145233"><ele>46.0</ele><time>2026-04-18T07:32:19.56Z</time></trkpt><trkpt lat="43.5404633" lon="10.7145317"><ele>46.0</ele><time>2026-04-18T07:32:20.56Z</time></trkpt><trkpt lat="43.5403667" lon="10.7145367"><ele>46.0</ele><time>2026-04-18T07:32:21.56Z</time></trkpt><trkpt lat="43.5402767" lon="10.7145417"><ele>46.0</ele><time>2026-04-18T07:32:22.56Z</time></trkpt><trkpt lat="43.540205" lon="10.7145433"><ele>46.0</ele><time>2026-04-18T07:32:23.56Z</time></trkpt><trkpt lat="43.540135" lon="10.7145367"><ele>46.0</ele><time>2026-04-18T07:32:24.56Z</time></trkpt><trkpt lat="43.5400633" lon="10.7145233"><ele>47.199999999999996</ele><time>2026-04-18T07:32:25.56Z</time></trkpt><trkpt lat="43.53999" lon="10.714515"><ele>48.4</ele><time>2026-04-18T07:32:26.561Z</time></trkpt><trkpt lat="43.53992" lon="10.7145033"><ele>49.6</ele><time>2026-04-18T07:32:27.56Z</time></trkpt><trkpt lat="43.5398017" lon="10.71448"><ele>50.8</ele><time>2026-04-18T07:32:29.56Z</time></trkpt><trkpt lat="43.5396917" lon="10.7144533"><ele>52.0</ele><time>2026-04-18T07:32:31.56Z</time></trkpt><trkpt lat="43.5396067" lon="10.714435"><ele>51.83333333333333</ele><time>2026-04-18T07:32:33.56Z</time></trkpt><trkpt lat="43.5395233" lon="10.71452"><ele>51.666666666666664</ele><time>2026-04-18T07:32:42.56Z</time></trkpt><trkpt lat="43.5394433" lon="10.7146283"><ele>51.5</ele><time>2026-04-18T07:32:44.56Z</time></trkpt><trkpt lat="43.5394" lon="10.714715"><ele>51.33333333333333</ele><time>2026-04-18T07:32:45.56Z</time></trkpt><trkpt lat="43.53936" lon="10.7147917"><ele>51.166666666666664</ele><time>2026-04-18T07:32:46.56Z</time></trkpt><trkpt lat="43.53932" lon="10.71486"><ele>51.0</ele><time>2026-04-18T07:32:47.56Z</time></trkpt><trkpt lat="43.5392583" lon="10.7149233"><ele>51.0</ele><time>2026-04-18T07:32:49.56Z</time></trkpt><trkpt lat="43.5391867" lon="10.714895"><ele>51.0</ele><time>2026-04-18T07:32:51.56Z</time></trkpt><trkpt lat="43.5391283" lon="10.7147883"><ele>51.0</ele><time>2026-04-18T07:32:53.56Z</time></trkpt><trkpt lat="43.5390817" lon="10.71463"><ele>51.0</ele><time>2026-04-18T07:32:55.56Z</time></trkpt><trkpt lat="43.5390517" lon="10.714545"><ele>51.0</ele><time>2026-04-18T07:32:56.56Z</time></trkpt><trkpt lat="43.5390133" lon="10.714465"><ele>51.0</ele><time>2026-04-18T07:32:57.56Z</time></trkpt><trkpt lat="43.5389733" lon="10.714385"><ele>49.666666666666664</ele><time>2026-04-18T07:32:58.561Z</time></trkpt><trkpt lat="43.538915" lon="10.7143083"><ele>48.333333333333336</ele><time>2026-04-18T07:32:59.56Z</time></trkpt><trkpt lat="43.5388517" lon="10.714245"><ele>47.0</ele><time>2026-04-18T07:33:00.56Z</time></trkpt><trkpt lat="43.53879" lon="10.7141933"><ele>45.66666666666667</ele><time>2026-04-18T07:33:01.56Z</time></trkpt><trkpt lat="43.53873" lon="10.7141467"><ele>44.333333333333336</ele><time>2026-04-18T07:33:02.56Z</time></trkpt><trkpt lat="43.5386717" lon="10.7141083"><ele>43.0</ele><time>2026-04-18T07:33:03.56Z</time></trkpt><trkpt lat="43.5385617" lon="10.7140533"><ele>43.0</ele><time>2026-04-18T07:33:05.56Z</time></trkpt><trkpt lat="43.53847" lon="10.714"><ele>43.0</ele><time>2026-04-18T07:33:07.56Z</time></trkpt><trkpt lat="43.5384017" lon="10.7139033"><ele>43.0</ele><time>2026-04-18T07:33:09.561Z</time></trkpt><trkpt lat="43.538325" lon="10.713785"><ele>43.0</ele><time>2026-04-18T07:33:11.561Z</time></trkpt><trkpt lat="43.5382733" lon="10.7136683"><ele>43.0</ele><time>2026-04-18T07:33:13.56Z</time></trkpt><trkpt lat="43.538255" lon="10.7135567"><ele>42.833333333333336</ele><time>2026-04-18T07:33:15.56Z</time></trkpt><trkpt lat="43.5382683" lon="10.7134617"><ele>42.66666666666667</ele><time>2026-04-18T07:33:17.56Z</time></trkpt><trkpt lat="43.5382967" lon="10.71334"><ele>42.5</ele><time>2026-04-18T07:33:20.561Z</time></trkpt><trkpt lat="43.5382983" lon="10.71325"><ele>42.333333333333336</ele><time>2026-04-18T07:33:23.56Z</time></trkpt><trkpt lat="43.5382433" lon="10.7131717"><ele>42.166666666666664</ele><time>2026-04-18T07:33:27.56Z</time></trkpt><trkpt lat="43.53817" lon="10.7131083"><ele>42.0</ele><time>2026-04-18T07:33:29.56Z</time></trkpt><trkpt lat="43.5380967" lon="10.71304"><ele>42.0</ele><time>2026-04-18T07:33:31.56Z</time></trkpt><trkpt lat="43.53801" lon="10.7129633"><ele>42.0</ele><time>2026-04-18T07:33:33.56Z</time></trkpt><trkpt lat="43.53796" lon="10.7128917"><ele>42.0</ele><time>2026-04-18T07:33:34.56Z</time></trkpt><trkpt lat="43.537905" lon="10.7128167"><ele>42.0</ele><time>2026-04-18T07:33:35.56Z</time></trkpt><trkpt lat="43.5378567" lon="10.7127467"><ele>42.0</ele><time>2026-04-18T07:33:36.56Z</time></trkpt><trkpt lat="43.5377883" lon="10.71267"><ele>42.0</ele><time>2026-04-18T07:33:37.561Z</time></trkpt><trkpt lat="43.5377183" lon="10.7125983"><ele>42.0</ele><time>2026-04-18T07:33:38.56Z</time></trkpt><trkpt lat="43.53765" lon="10.7125383"><ele>42.0</ele><time>2026-04-18T07:33:39.561Z</time></trkpt><trkpt lat="43.5375817" lon="10.71248"><ele>42.0</ele><time>2026-04-18T07:33:40.56Z</time></trkpt><trkpt lat="43.5375133" lon="10.7124133"><ele>42.0</ele><time>2026-04-18T07:33:41.56Z</time></trkpt><trkpt lat="43.537445" lon="10.7123433"><ele>42.0</ele><time>2026-04-18T07:33:42.559Z</time></trkpt><trkpt lat="43.5373717" lon="10.7122733"><ele>42.0</ele><time>2026-04-18T07:33:43.56Z</time></trkpt><trkpt lat="43.5373017" lon="10.712205"><ele>42.0</ele><time>2026-04-18T07:33:44.56Z</time></trkpt><trkpt lat="43.5372317" lon="10.71214"><ele>42.0</ele><time>2026-04-18T07:33:45.561Z</time></trkpt><trkpt lat="43.537165" lon="10.7120817"><ele>42.0</ele><time>2026-04-18T07:33:46.56Z</time></trkpt><trkpt lat="43.5371033" lon="10.7120267"><ele>42.0</ele><time>2026-04-18T07:33:47.56Z</time></trkpt><trkpt lat="43.5370383" lon="10.71197"><ele>42.0</ele><time>2026-04-18T07:33:48.56Z</time></trkpt><trkpt lat="43.5369767" lon="10.711915"><ele>42.0</ele><time>2026-04-18T07:33:49.56Z</time></trkpt><trkpt lat="43.53692" lon="10.71187"><ele>42.0</ele><time>2026-04-18T07:33:50.56Z</time></trkpt><trkpt lat="43.5368483" lon="10.711835"><ele>42.0</ele><time>2026-04-18T07:33:51.56Z</time></trkpt><trkpt lat="43.536765" lon="10.7118017"><ele>42.0</ele><time>2026-04-18T07:33:52.56Z</time></trkpt><trkpt lat="43.5366817" lon="10.7117733"><ele>42.0</ele><time>2026-04-18T07:33:53.56Z</time></trkpt><trkpt lat="43.5365983" lon="10.7117567"><ele>42.0</ele><time>2026-04-18T07:33:54.56Z</time></trkpt><trkpt lat="43.5365117" lon="10.7117467"><ele>42.0</ele><time>2026-04-18T07:33:55.56Z</time></trkpt><trkpt lat="43.5364267" lon="10.7117367"><ele>42.0</ele><time>2026-04-18T07:33:56.56Z</time></trkpt><trkpt lat="43.536345" lon="10.7117367"><ele>42.0</ele><time>2026-04-18T07:33:57.56Z</time></trkpt><trkpt lat="43.5362733" lon="10.7117267"><ele>42.0</ele><time>2026-04-18T07:33:58.56Z</time></trkpt><trkpt lat="43.5362033" lon="10.71172"><ele>42.0</ele><time>2026-04-18T07:33:59.56Z</time></trkpt><trkpt lat="43.5361367" lon="10.7117033"><ele>42.0</ele><time>2026-04-18T07:34:00.56Z</time></trkpt><trkpt lat="43.5360583" lon="10.7116917"><ele>42.0</ele><time>2026-04-18T07:34:01.56Z</time></trkpt><trkpt lat="43.5359783" lon="10.71168"><ele>41.857142857142854</ele><time>2026-04-18T07:34:02.56Z</time></trkpt><trkpt lat="43.5359067" lon="10.7116667"><ele>41.714285714285715</ele><time>2026-04-18T07:34:03.561Z</time></trkpt><trkpt lat="43.5358417" lon="10.7116483"><ele>41.57142857142857</ele><time>2026-04-18T07:34:04.56Z</time></trkpt><trkpt lat="43.5357783" lon="10.7116283"><ele>41.42857142857143</ele><time>2026-04-18T07:34:05.56Z</time></trkpt><trkpt lat="43.535715" lon="10.7115967"><ele>41.285714285714285</ele><time>2026-04-18T07:34:06.56Z</time></trkpt><trkpt lat="43.5356467" lon="10.7115667"><ele>41.14285714285714</ele><time>2026-04-18T07:34:07.56Z</time></trkpt><trkpt lat="43.5355717" lon="10.711535"><ele>41.0</ele><time>2026-04-18T07:34:08.56Z</time></trkpt><trkpt lat="43.5354817" lon="10.71149"><ele>40.99999999999999</ele><time>2026-04-18T07:34:09.56Z</time></trkpt><trkpt lat="43.5353983" lon="10.7114467"><ele>41.0</ele><time>2026-04-18T07:34:10.56Z</time></trkpt><trkpt lat="43.53533" lon="10.711405"><ele>41.0</ele><time>2026-04-18T07:34:11.56Z</time></trkpt><trkpt lat="43.5352567" lon="10.711375"><ele>41.0</ele><time>2026-04-18T07:34:12.56Z</time></trkpt><trkpt lat="43.535195" lon="10.7113417"><ele>41.0</ele><time>2026-04-18T07:34:13.56Z</time></trkpt><trkpt lat="43.5351333" lon="10.7113167"><ele>40.99999999999999</ele><time>2026-04-18T07:34:14.56Z</time></trkpt><trkpt lat="43.53507" lon="10.7112867"><ele>41.0</ele><time>2026-04-18T07:34:15.56Z</time></trkpt><trkpt lat="43.5349983" lon="10.7112617"><ele>41.0</ele><time>2026-04-18T07:34:16.56Z</time></trkpt><trkpt lat="43.5348867" lon="10.71122"><ele>41.0</ele><time>2026-04-18T07:34:18.56Z</time></trkpt><trkpt lat="43.5347867" lon="10.7111583"><ele>41.0</ele><time>2026-04-18T07:34:20.56Z</time></trkpt><trkpt lat="43.5346767" lon="10.7110867"><ele>41.0</ele><time>2026-04-18T07:34:22.56Z</time></trkpt><trkpt lat="43.5345667" lon="10.711015"><ele>41.0</ele><time>2026-04-18T07:34:24.561Z</time></trkpt><trkpt lat="43.5344683" lon="10.710945"><ele>41.0</ele><time>2026-04-18T07:34:26.56Z</time></trkpt><trkpt lat="43.5344" lon="10.7109067"><ele>41.0</ele><time>2026-04-18T07:34:28.561Z</time></trkpt><trkpt lat="43.5343267" lon="10.71088"><ele>41.0</ele><time>2026-04-18T07:34:52.559Z</time></trkpt><trkpt lat="43.5342517" lon="10.7109017"><ele>41.0</ele><time>2026-04-18T07:34:56.56Z</time></trkpt><trkpt lat="43.5342117" lon="10.71099"><ele>41.0</ele><time>2026-04-18T07:34:59.559Z</time></trkpt><trkpt lat="43.53417" lon="10.711115"><ele>40.99999999999999</ele><time>2026-04-18T07:35:01.559Z</time></trkpt><trkpt lat="43.5341517" lon="10.711205"><ele>41.0</ele><time>2026-04-18T07:35:02.559Z</time></trkpt><trkpt lat="43.5341283" lon="10.7112967"><ele>41.0</ele><time>2026-04-18T07:35:03.559Z</time></trkpt><trkpt lat="43.5341" lon="10.7113867"><ele>41.0</ele><time>2026-04-18T07:35:04.559Z</time></trkpt><trkpt lat="43.5340733" lon="10.71148"><ele>41.0</ele><time>2026-04-18T07:35:05.559Z</time></trkpt><trkpt lat="43.534055" lon="10.7115733"><ele>40.99999999999999</ele><time>2026-04-18T07:35:06.559Z</time></trkpt><trkpt lat="43.534015" lon="10.7116933"><ele>41.0</ele><time>2026-04-18T07:35:08.56Z</time></trkpt><trkpt lat="43.53395" lon="10.71175"><ele>41.0</ele><time>2026-04-18T07:35:10.56Z</time></trkpt><trkpt lat="43.53382" lon="10.711785"><ele>41.0</ele><time>2026-04-18T07:35:12.559Z</time></trkpt><trkpt lat="43.53373" lon="10.7118067"><ele>41.0</ele><time>2026-04-18T07:35:13.559Z</time></trkpt><trkpt lat="43.5336367" lon="10.711835"><ele>41.0</ele><time>2026-04-18T07:35:14.559Z</time></trkpt><trkpt lat="43.53353" lon="10.71188"><ele>41.0</ele><time>2026-04-18T07:35:15.559Z</time></trkpt><trkpt lat="43.533415" lon="10.7119217"><ele>41.599999999999994</ele><time>2026-04-18T07:35:16.559Z</time></trkpt><trkpt lat="43.5333033" lon="10.711955"><ele>42.2</ele><time>2026-04-18T07:35:17.559Z</time></trkpt><trkpt lat="43.5331933" lon="10.7119917"><ele>42.8</ele><time>2026-04-18T07:35:18.56Z</time></trkpt><trkpt lat="43.5330983" lon="10.7120267"><ele>43.400000000000006</ele><time>2026-04-18T07:35:19.56Z</time></trkpt><trkpt lat="43.5329933" lon="10.7120617"><ele>44.0</ele><time>2026-04-18T07:35:20.559Z</time></trkpt><trkpt lat="43.5328883" lon="10.7121167"><ele>44.0</ele><time>2026-04-18T07:35:21.56Z</time></trkpt><trkpt lat="43.5327783" lon="10.7121583"><ele>44.0</ele><time>2026-04-18T07:35:22.559Z</time></trkpt><trkpt lat="43.5326633" lon="10.7122083"><ele>44.0</ele><time>2026-04-18T07:35:23.559Z</time></trkpt><trkpt lat="43.5325433" lon="10.7122583"><ele>44.0</ele><time>2026-04-18T07:35:24.559Z</time></trkpt><trkpt lat="43.53243" lon="10.7123033"><ele>44.0</ele><time>2026-04-18T07:35:25.559Z</time></trkpt><trkpt lat="43.5323117" lon="10.712355"><ele>44.0</ele><time>2026-04-18T07:35:26.559Z</time></trkpt><trkpt lat="43.5321933" lon="10.7124"><ele>44.0</ele><time>2026-04-18T07:35:27.559Z</time></trkpt><trkpt lat="43.5320783" lon="10.7124467"><ele>44.0</ele><time>2026-04-18T07:35:28.559Z</time></trkpt><trkpt lat="43.5319633" lon="10.7124933"><ele>43.5</ele><time>2026-04-18T07:35:29.559Z</time></trkpt><trkpt lat="43.5318433" lon="10.71254"><ele>43.0</ele><time>2026-04-18T07:35:30.56Z</time></trkpt><trkpt lat="43.5317283" lon="10.7125867"><ele>42.5</ele><time>2026-04-18T07:35:31.559Z</time></trkpt><trkpt lat="43.5316167" lon="10.71263"><ele>42.0</ele><time>2026-04-18T07:35:32.559Z</time></trkpt><trkpt lat="43.5315083" lon="10.71268"><ele>42.0</ele><time>2026-04-18T07:35:33.559Z</time></trkpt><trkpt lat="43.5314017" lon="10.7127283"><ele>42.0</ele><time>2026-04-18T07:35:34.559Z</time></trkpt><trkpt lat="43.531295" lon="10.7127733"><ele>42.0</ele><time>2026-04-18T07:35:35.559Z</time></trkpt><trkpt lat="43.5311883" lon="10.7128133"><ele>42.0</ele><time>2026-04-18T07:35:36.559Z</time></trkpt><trkpt lat="43.5310783" lon="10.71287"><ele>42.25</ele><time>2026-04-18T07:35:37.559Z</time></trkpt><trkpt lat="43.5309617" lon="10.7129183"><ele>42.5</ele><time>2026-04-18T07:35:38.559Z</time></trkpt><trkpt lat="43.5308417" lon="10.712965"><ele>42.75</ele><time>2026-04-18T07:35:39.559Z</time></trkpt><trkpt lat="43.53072" lon="10.71302"><ele>43.0</ele><time>2026-04-18T07:35:40.559Z</time></trkpt><trkpt lat="43.5305917" lon="10.71308"><ele>43.0</ele><time>2026-04-18T07:35:41.559Z</time></trkpt><trkpt lat="43.5304783" lon="10.7131233"><ele>43.0</ele><time>2026-04-18T07:35:42.559Z</time></trkpt><trkpt lat="43.530375" lon="10.713165"><ele>43.0</ele><time>2026-04-18T07:35:43.559Z</time></trkpt><trkpt lat="43.5302783" lon="10.7131983"><ele>43.0</ele><time>2026-04-18T07:35:44.56Z</time></trkpt><trkpt lat="43.530185" lon="10.7132283"><ele>43.0</ele><time>2026-04-18T07:35:45.559Z</time></trkpt><trkpt lat="43.5300983" lon="10.7132583"><ele>43.16666666666667</ele><time>2026-04-18T07:35:46.559Z</time></trkpt><trkpt lat="43.5300267" lon="10.71328"><ele>43.333333333333336</ele><time>2026-04-18T07:35:47.559Z</time></trkpt><trkpt lat="43.5299633" lon="10.713305"><ele>43.5</ele><time>2026-04-18T07:35:48.56Z</time></trkpt><trkpt lat="43.5298967" lon="10.7133317"><ele>43.666666666666664</ele><time>2026-04-18T07:35:49.559Z</time></trkpt><trkpt lat="43.5298183" lon="10.71337"><ele>43.83333333333333</ele><time>2026-04-18T07:35:50.559Z</time></trkpt><trkpt lat="43.5297167" lon="10.7134133"><ele>44.0</ele><time>2026-04-18T07:35:51.559Z</time></trkpt><trkpt lat="43.5296017" lon="10.7134533"><ele>44.25</ele><time>2026-04-18T07:35:52.559Z</time></trkpt><trkpt lat="43.5294833" lon="10.7135"><ele>44.5</ele><time>2026-04-18T07:35:53.559Z</time></trkpt><trkpt lat="43.5293733" lon="10.71354"><ele>44.75</ele><time>2026-04-18T07:35:54.559Z</time></trkpt><trkpt lat="43.5292667" lon="10.7135833"><ele>45.0</ele><time>2026-04-18T07:35:55.559Z</time></trkpt><trkpt lat="43.5291533" lon="10.7136267"><ele>45.0</ele><time>2026-04-18T07:35:56.559Z</time></trkpt><trkpt lat="43.5290483" lon="10.713665"><ele>45.0</ele><time>2026-04-18T07:35:57.559Z</time></trkpt><trkpt lat="43.5289483" lon="10.713705"><ele>45.0</ele><time>2026-04-18T07:35:58.559Z</time></trkpt><trkpt lat="43.5288383" lon="10.7137517"><ele>45.0</ele><time>2026-04-18T07:35:59.56Z</time></trkpt><trkpt lat="43.5287217" lon="10.713805"><ele>45.0</ele><time>2026-04-18T07:36:00.559Z</time></trkpt><trkpt lat="43.5285933" lon="10.7138533"><ele>45.0</ele><time>2026-04-18T07:36:01.559Z</time></trkpt><trkpt lat="43.5284433" lon="10.713915"><ele>45.0</ele><time>2026-04-18T07:36:02.56Z</time></trkpt><trkpt lat="43.5282983" lon="10.7139733"><ele>45.0</ele><time>2026-04-18T07:36:03.559Z</time></trkpt><trkpt lat="43.5281583" lon="10.7140283"><ele>45.0</ele><time>2026-04-18T07:36:04.56Z</time></trkpt><trkpt lat="43.5280267" lon="10.7140867"><ele>45.0</ele><time>2026-04-18T07:36:05.559Z</time></trkpt><trkpt lat="43.5278917" lon="10.7141367"><ele>45.0</ele><time>2026-04-18T07:36:06.559Z</time></trkpt><trkpt lat="43.527745" lon="10.7141883"><ele>45.0</ele><time>2026-04-18T07:36:07.559Z</time></trkpt><trkpt lat="43.527605" lon="10.714245"><ele>45.0</ele><time>2026-04-18T07:36:08.559Z</time></trkpt><trkpt lat="43.52747" lon="10.7142967"><ele>45.0</ele><time>2026-04-18T07:36:09.559Z</time></trkpt><trkpt lat="43.5273367" lon="10.7143533"><ele>45.0</ele><time>2026-04-18T07:36:10.559Z</time></trkpt><trkpt lat="43.5272133" lon="10.7144033"><ele>45.0</ele><time>2026-04-18T07:36:11.559Z</time></trkpt><trkpt lat="43.5270917" lon="10.714455"><ele>46.75</ele><time>2026-04-18T07:36:12.56Z</time></trkpt><trkpt lat="43.526965" lon="10.7145083"><ele>48.5</ele><time>2026-04-18T07:36:13.56Z</time></trkpt><trkpt lat="43.5268483" lon="10.7145533"><ele>50.25</ele><time>2026-04-18T07:36:14.559Z</time></trkpt><trkpt lat="43.5267283" lon="10.714605"><ele>52.0</ele><time>2026-04-18T07:36:15.559Z</time></trkpt><trkpt lat="43.5266217" lon="10.71465"><ele>52.0</ele><time>2026-04-18T07:36:16.559Z</time></trkpt><trkpt lat="43.5265167" lon="10.7146933"><ele>52.0</ele><time>2026-04-18T07:36:17.559Z</time></trkpt><trkpt lat="43.5264133" lon="10.7147367"><ele>52.0</ele><time>2026-04-18T07:36:18.559Z</time></trkpt><trkpt lat="43.52632" lon="10.7147817"><ele>52.0</ele><time>2026-04-18T07:36:19.559Z</time></trkpt><trkpt lat="43.52622" lon="10.7148183"><ele>52.0</ele><time>2026-04-18T07:36:20.56Z</time></trkpt><trkpt lat="43.52611" lon="10.7148567"><ele>50.8</ele><time>2026-04-18T07:36:21.559Z</time></trkpt><trkpt lat="43.5260033" lon="10.7149033"><ele>49.6</ele><time>2026-04-18T07:36:22.559Z</time></trkpt><trkpt lat="43.5258933" lon="10.71495"><ele>48.4</ele><time>2026-04-18T07:36:23.56Z</time></trkpt><trkpt lat="43.525785" lon="10.7149917"><ele>47.199999999999996</ele><time>2026-04-18T07:36:24.559Z</time></trkpt><trkpt lat="43.5256867" lon="10.715035"><ele>46.0</ele><time>2026-04-18T07:36:25.56Z</time></trkpt><trkpt lat="43.5255817" lon="10.7150767"><ele>46.0</ele><time>2026-04-18T07:36:26.559Z</time></trkpt><trkpt lat="43.5254717" lon="10.7151167"><ele>46.0</ele><time>2026-04-18T07:36:27.559Z</time></trkpt><trkpt lat="43.5253633" lon="10.71516"><ele>46.0</ele><time>2026-04-18T07:36:28.56Z</time></trkpt><trkpt lat="43.5252633" lon="10.715205"><ele>46.0</ele><time>2026-04-18T07:36:29.559Z</time></trkpt><trkpt lat="43.5251717" lon="10.715245"><ele>46.0</ele><time>2026-04-18T07:36:30.559Z</time></trkpt><trkpt lat="43.5250917" lon="10.7152817"><ele>46.4</ele><time>2026-04-18T07:36:31.559Z</time></trkpt><trkpt lat="43.5250217" lon="10.7153117"><ele>46.8</ele><time>2026-04-18T07:36:32.559Z</time></trkpt><trkpt lat="43.524955" lon="10.7153367"><ele>47.199999999999996</ele><time>2026-04-18T07:36:33.559Z</time></trkpt><trkpt lat="43.524845" lon="10.71536"><ele>47.599999999999994</ele><time>2026-04-18T07:36:35.559Z</time></trkpt><trkpt lat="43.5247483" lon="10.7154067"><ele>48.0</ele><time>2026-04-18T07:36:37.559Z</time></trkpt><trkpt lat="43.5246717" lon="10.7155017"><ele>48.0</ele><time>2026-04-18T07:36:39.56Z</time></trkpt><trkpt lat="43.5246183" lon="10.715665"><ele>48.0</ele><time>2026-04-18T07:36:41.559Z</time></trkpt><trkpt lat="43.5246017" lon="10.7157617"><ele>48.0</ele><time>2026-04-18T07:36:42.559Z</time></trkpt><trkpt lat="43.5245883" lon="10.7158767"><ele>48.0</ele><time>2026-04-18T07:36:43.559Z</time></trkpt><trkpt lat="43.5245833" lon="10.7159983"><ele>48.0</ele><time>2026-04-18T07:36:44.559Z</time></trkpt><trkpt lat="43.5245833" lon="10.7160967"><ele>48.0</ele><time>2026-04-18T07:36:45.559Z</time></trkpt><trkpt lat="43.5245817" lon="10.7162467"><ele>47.2</ele><time>2026-04-18T07:36:47.559Z</time></trkpt><trkpt lat="43.5245733" lon="10.7163333"><ele>46.4</ele><time>2026-04-18T07:36:48.559Z</time></trkpt><trkpt lat="43.52456" lon="10.716505"><ele>45.6</ele><time>2026-04-18T07:36:50.559Z</time></trkpt><trkpt lat="43.5245433" lon="10.716655"><ele>44.800000000000004</ele><time>2026-04-18T07:36:52.559Z</time></trkpt><trkpt lat="43.5245167" lon="10.7168033"><ele>44.0</ele><time>2026-04-18T07:36:54.559Z</time></trkpt><trkpt lat="43.5244817" lon="10.71694"><ele>44.0</ele><time>2026-04-18T07:36:56.559Z</time></trkpt><trkpt lat="43.524425" lon="10.7170767"><ele>44.0</ele><time>2026-04-18T07:36:58.559Z</time></trkpt><trkpt lat="43.524395" lon="10.717155"><ele>44.0</ele><time>2026-04-18T07:36:59.56Z</time></trkpt><trkpt lat="43.5243633" lon="10.7172483"><ele>44.0</ele><time>2026-04-18T07:37:00.559Z</time></trkpt><trkpt lat="43.5243233" lon="10.7173617"><ele>44.0</ele><time>2026-04-18T07:37:01.559Z</time></trkpt><trkpt lat="43.5242833" lon="10.7174733"><ele>44.0</ele><time>2026-04-18T07:37:02.559Z</time></trkpt><trkpt lat="43.52424" lon="10.71759"><ele>44.0</ele><time>2026-04-18T07:37:03.559Z</time></trkpt><trkpt lat="43.524205" lon="10.7176967"><ele>44.0</ele><time>2026-04-18T07:37:04.559Z</time></trkpt><trkpt lat="43.524175" lon="10.7178083"><ele>44.0</ele><time>2026-04-18T07:37:05.559Z</time></trkpt><trkpt lat="43.524145" lon="10.7179167"><ele>44.0</ele><time>2026-04-18T07:37:06.559Z</time></trkpt><trkpt lat="43.52412" lon="10.7180283"><ele>44.0</ele><time>2026-04-18T07:37:07.56Z</time></trkpt><trkpt lat="43.5240917" lon="10.7181433"><ele>44.0</ele><time>2026-04-18T07:37:08.559Z</time></trkpt><trkpt lat="43.5240717" lon="10.7182483"><ele>44.6</ele><time>2026-04-18T07:37:09.559Z</time></trkpt><trkpt lat="43.5240533" lon="10.7183583"><ele>45.2</ele><time>2026-04-18T07:37:10.559Z</time></trkpt><trkpt lat="43.52403" lon="10.7184533"><ele>45.800000000000004</ele><time>2026-04-18T07:37:11.559Z</time></trkpt><trkpt lat="43.5240067" lon="10.71854"><ele>46.400000000000006</ele><time>2026-04-18T07:37:12.559Z</time></trkpt><trkpt lat="43.5239717" lon="10.718695"><ele>47.0</ele><time>2026-04-18T07:37:14.559Z</time></trkpt><trkpt lat="43.5239217" lon="10.7188433"><ele>47.166666666666664</ele><time>2026-04-18T07:37:16.559Z</time></trkpt><trkpt lat="43.5238933" lon="10.7189317"><ele>47.33333333333333</ele><time>2026-04-18T07:37:18.559Z</time></trkpt><trkpt lat="43.5238567" lon="10.71904"><ele>47.5</ele><time>2026-04-18T07:37:21.559Z</time></trkpt><trkpt lat="43.5238217" lon="10.7191417"><ele>47.666666666666664</ele><time>2026-04-18T07:37:24.56Z</time></trkpt><trkpt lat="43.5238033" lon="10.7192317"><ele>47.833333333333336</ele><time>2026-04-18T07:37:28.559Z</time></trkpt><trkpt lat="43.5237717" lon="10.7193317"><ele>48.0</ele><time>2026-04-18T07:37:33.559Z</time></trkpt><trkpt lat="43.5237517" lon="10.7194233"><ele>47.4</ele><time>2026-04-18T07:37:36.559Z</time></trkpt><trkpt lat="43.5237083" lon="10.7195583"><ele>46.8</ele><time>2026-04-18T07:37:39.559Z</time></trkpt><trkpt lat="43.52366" lon="10.7197083"><ele>46.2</ele><time>2026-04-18T07:37:41.56Z</time></trkpt><trkpt lat="43.5236333" lon="10.7197933"><ele>45.6</ele><time>2026-04-18T07:37:42.559Z</time></trkpt><trkpt lat="43.523605" lon="10.71989"><ele>45.0</ele><time>2026-04-18T07:37:43.56Z</time></trkpt><trkpt lat="43.5235717" lon="10.7199933"><ele>45.0</ele><time>2026-04-18T07:37:44.559Z</time></trkpt><trkpt lat="43.5235283" lon="10.720095"><ele>45.0</ele><time>2026-04-18T07:37:45.559Z</time></trkpt><trkpt lat="43.5234933" lon="10.7201967"><ele>45.0</ele><time>2026-04-18T07:37:46.559Z</time></trkpt><trkpt lat="43.523445" lon="10.7203"><ele>45.0</ele><time>2026-04-18T07:37:47.56Z</time></trkpt><trkpt lat="43.5234083" lon="10.7203983"><ele>45.0</ele><time>2026-04-18T07:37:48.559Z</time></trkpt><trkpt lat="43.5233667" lon="10.72051"><ele>45.0</ele><time>2026-04-18T07:37:49.559Z</time></trkpt><trkpt lat="43.523335" lon="10.720635"><ele>45.2</ele><time>2026-04-18T07:37:50.559Z</time></trkpt><trkpt lat="43.5233083" lon="10.72077"><ele>45.4</ele><time>2026-04-18T07:37:51.559Z</time></trkpt><trkpt lat="43.523285" lon="10.7209067"><ele>45.599999999999994</ele><time>2026-04-18T07:37:52.559Z</time></trkpt><trkpt lat="43.5232517" lon="10.7210533"><ele>45.8</ele><time>2026-04-18T07:37:53.559Z</time></trkpt><trkpt lat="43.5232167" lon="10.7211783"><ele>46.0</ele><time>2026-04-18T07:37:54.559Z</time></trkpt><trkpt lat="43.523175" lon="10.7213"><ele>46.0</ele><time>2026-04-18T07:37:55.559Z</time></trkpt><trkpt lat="43.5231383" lon="10.7214117"><ele>46.0</ele><time>2026-04-18T07:37:56.56Z</time></trkpt><trkpt lat="43.5230983" lon="10.7215183"><ele>46.0</ele><time>2026-04-18T07:37:57.559Z</time></trkpt><trkpt lat="43.5230517" lon="10.7216317"><ele>46.0</ele><time>2026-04-18T07:37:58.559Z</time></trkpt><trkpt lat="43.52301" lon="10.721725"><ele>46.0</ele><time>2026-04-18T07:37:59.559Z</time></trkpt><trkpt lat="43.5229583" lon="10.721805"><ele>46.0</ele><time>2026-04-18T07:38:00.56Z</time></trkpt><trkpt lat="43.5229167" lon="10.7218917"><ele>46.66666666666667</ele><time>2026-04-18T07:38:01.559Z</time></trkpt><trkpt lat="43.522875" lon="10.7219667"><ele>47.333333333333336</ele><time>2026-04-18T07:38:02.559Z</time></trkpt><trkpt lat="43.522835" lon="10.72204"><ele>48.0</ele><time>2026-04-18T07:38:03.559Z</time></trkpt><trkpt lat="43.5227817" lon="10.72213"><ele>48.66666666666667</ele><time>2026-04-18T07:38:04.559Z</time></trkpt><trkpt lat="43.5227233" lon="10.722215"><ele>49.333333333333336</ele><time>2026-04-18T07:38:05.559Z</time></trkpt><trkpt lat="43.5226633" lon="10.722295"><ele>50.0</ele><time>2026-04-18T07:38:06.559Z</time></trkpt><trkpt lat="43.522585" lon="10.722385"><ele>50.0</ele><time>2026-04-18T07:38:07.56Z</time></trkpt><trkpt lat="43.5225117" lon="10.7224667"><ele>50.0</ele><time>2026-04-18T07:38:08.56Z</time></trkpt><trkpt lat="43.5224317" lon="10.7225567"><ele>50.0</ele><time>2026-04-18T07:38:09.559Z</time></trkpt><trkpt lat="43.5223583" lon="10.7226383"><ele>50.0</ele><time>2026-04-18T07:38:10.56Z</time></trkpt><trkpt lat="43.5222917" lon="10.7227017"><ele>50.0</ele><time>2026-04-18T07:38:11.558Z</time></trkpt><trkpt lat="43.5222233" lon="10.722765"><ele>50.00000000000001</ele><time>2026-04-18T07:38:12.558Z</time></trkpt><trkpt lat="43.5221517" lon="10.7228317"><ele>50.0</ele><time>2026-04-18T07:38:13.558Z</time></trkpt><trkpt lat="43.5220783" lon="10.7228933"><ele>50.0</ele><time>2026-04-18T07:38:14.558Z</time></trkpt><trkpt lat="43.522015" lon="10.7229533"><ele>50.0</ele><time>2026-04-18T07:38:15.558Z</time></trkpt><trkpt lat="43.5219533" lon="10.7230067"><ele>50.00000000000001</ele><time>2026-04-18T07:38:16.558Z</time></trkpt><trkpt lat="43.521885" lon="10.723065"><ele>50.0</ele><time>2026-04-18T07:38:17.558Z</time></trkpt><trkpt lat="43.5218117" lon="10.723125"><ele>50.0</ele><time>2026-04-18T07:38:18.558Z</time></trkpt><trkpt lat="43.5217317" lon="10.7232017"><ele>50.0</ele><time>2026-04-18T07:38:19.558Z</time></trkpt><trkpt lat="43.5216533" lon="10.72328"><ele>50.0</ele><time>2026-04-18T07:38:20.558Z</time></trkpt><trkpt lat="43.5215733" lon="10.7233733"><ele>50.0</ele><time>2026-04-18T07:38:21.558Z</time></trkpt><trkpt lat="43.5214933" lon="10.7234717"><ele>50.0</ele><time>2026-04-18T07:38:22.558Z</time></trkpt><trkpt lat="43.521425" lon="10.7235767"><ele>49.8</ele><time>2026-04-18T07:38:23.558Z</time></trkpt><trkpt lat="43.5213617" lon="10.72368"><ele>49.6</ele><time>2026-04-18T07:38:24.558Z</time></trkpt><trkpt lat="43.5212967" lon="10.7237917"><ele>49.400000000000006</ele><time>2026-04-18T07:38:25.558Z</time></trkpt><trkpt lat="43.5212283" lon="10.7239067"><ele>49.2</ele><time>2026-04-18T07:38:26.558Z</time></trkpt><trkpt lat="43.521165" lon="10.7240233"><ele>49.0</ele><time>2026-04-18T07:38:27.558Z</time></trkpt><trkpt lat="43.5211017" lon="10.7241333"><ele>48.83333333333333</ele><time>2026-04-18T07:38:28.558Z</time></trkpt><trkpt lat="43.5210333" lon="10.72425"><ele>48.666666666666664</ele><time>2026-04-18T07:38:29.558Z</time></trkpt><trkpt lat="43.5209817" lon="10.7243617"><ele>48.5</ele><time>2026-04-18T07:38:30.558Z</time></trkpt><trkpt lat="43.52092" lon="10.7244583"><ele>48.33333333333333</ele><time>2026-04-18T07:38:31.558Z</time></trkpt><trkpt lat="43.52087" lon="10.7245433"><ele>48.166666666666664</ele><time>2026-04-18T07:38:32.558Z</time></trkpt><trkpt lat="43.5208267" lon="10.724615"><ele>48.0</ele><time>2026-04-18T07:38:33.558Z</time></trkpt><trkpt lat="43.52077" lon="10.7247517"><ele>48.0</ele><time>2026-04-18T07:38:35.558Z</time></trkpt><trkpt lat="43.5207567" lon="10.724935"><ele>48.0</ele><time>2026-04-18T07:38:37.558Z</time></trkpt><trkpt lat="43.5207633" lon="10.7250583"><ele>48.0</ele><time>2026-04-18T07:38:38.558Z</time></trkpt><trkpt lat="43.5207833" lon="10.7251917"><ele>48.0</ele><time>2026-04-18T07:38:39.558Z</time></trkpt><trkpt lat="43.520795" lon="10.7253317"><ele>48.0</ele><time>2026-04-18T07:38:40.559Z</time></trkpt><trkpt lat="43.5208033" lon="10.7254517"><ele>48.2</ele><time>2026-04-18T07:38:41.558Z</time></trkpt><trkpt lat="43.5208133" lon="10.7255683"><ele>48.4</ele><time>2026-04-18T07:38:42.558Z</time></trkpt><trkpt lat="43.5208367" lon="10.7256867"><ele>48.6</ele><time>2026-04-18T07:38:43.558Z</time></trkpt><trkpt lat="43.52087" lon="10.7258183"><ele>48.800000000000004</ele><time>2026-04-18T07:38:44.558Z</time></trkpt><trkpt lat="43.520895" lon="10.7259517"><ele>49.0</ele><time>2026-04-18T07:38:45.558Z</time></trkpt><trkpt lat="43.5209217" lon="10.726065"><ele>49.33333333333333</ele><time>2026-04-18T07:38:46.558Z</time></trkpt><trkpt lat="43.52095" lon="10.7261517"><ele>49.666666666666664</ele><time>2026-04-18T07:38:47.558Z</time></trkpt><trkpt lat="43.5209733" lon="10.7262667"><ele>50.0</ele><time>2026-04-18T07:38:49.558Z</time></trkpt><trkpt lat="43.520925" lon="10.7263467"><ele>50.33333333333333</ele><time>2026-04-18T07:38:51.558Z</time></trkpt><trkpt lat="43.52087" lon="10.7264"><ele>50.666666666666664</ele><time>2026-04-18T07:38:52.558Z</time></trkpt><trkpt lat="43.5208133" lon="10.7264517"><ele>51.0</ele><time>2026-04-18T07:38:53.558Z</time></trkpt><trkpt lat="43.5207383" lon="10.7265217"><ele>51.0</ele><time>2026-04-18T07:38:55.558Z</time></trkpt><trkpt lat="43.52068" lon="10.726565"><ele>51.0</ele><time>2026-04-18T07:38:57.558Z</time></trkpt><trkpt lat="43.5205683" lon="10.7266333"><ele>51.0</ele><time>2026-04-18T07:38:59.558Z</time></trkpt><trkpt lat="43.520495" lon="10.7266767"><ele>51.0</ele><time>2026-04-18T07:39:00.558Z</time></trkpt><trkpt lat="43.5204233" lon="10.726735"><ele>51.0</ele><time>2026-04-18T07:39:01.559Z</time></trkpt><trkpt lat="43.5203617" lon="10.7267867"><ele>51.0</ele><time>2026-04-18T07:39:02.558Z</time></trkpt><trkpt lat="43.5203" lon="10.72684"><ele>51.0</ele><time>2026-04-18T07:39:03.558Z</time></trkpt><trkpt lat="43.5202083" lon="10.7269167"><ele>51.0</ele><time>2026-04-18T07:39:05.558Z</time></trkpt><trkpt lat="43.5201367" lon="10.7269833"><ele>51.0</ele><time>2026-04-18T07:39:08.559Z</time></trkpt><trkpt lat="43.52008" lon="10.727065"><ele>51.0</ele><time>2026-04-18T07:39:11.558Z</time></trkpt><trkpt lat="43.5200067" lon="10.7271533"><ele>51.0</ele><time>2026-04-18T07:39:13.558Z</time></trkpt><trkpt lat="43.5199517" lon="10.7272083"><ele>51.0</ele><time>2026-04-18T07:39:14.559Z</time></trkpt><trkpt lat="43.5198883" lon="10.727265"><ele>51.0</ele><time>2026-04-18T07:39:15.558Z</time></trkpt><trkpt lat="43.51983" lon="10.72731"><ele>51.0</ele><time>2026-04-18T07:39:16.558Z</time></trkpt><trkpt lat="43.5197483" lon="10.7273917"><ele>51.0</ele><time>2026-04-18T07:39:18.559Z</time></trkpt><trkpt lat="43.5197167" lon="10.72747"><ele>51.0</ele><time>2026-04-18T07:39:20.558Z</time></trkpt><trkpt lat="43.5196783" lon="10.72759"><ele>51.0</ele><time>2026-04-18T07:39:22.558Z</time></trkpt><trkpt lat="43.5196567" lon="10.7276933"><ele>51.0</ele><time>2026-04-18T07:39:24.559Z</time></trkpt><trkpt lat="43.5196567" lon="10.7278117"><ele>52.0</ele><time>2026-04-18T07:39:27.558Z</time></trkpt><trkpt lat="43.519655" lon="10.72792"><ele>53.0</ele><time>2026-04-18T07:39:29.558Z</time></trkpt><trkpt lat="43.5196433" lon="10.7280467"><ele>53.99999999999999</ele><time>2026-04-18T07:39:31.558Z</time></trkpt><trkpt lat="43.519625" lon="10.72821"><ele>55.0</ele><time>2026-04-18T07:39:33.559Z</time></trkpt><trkpt lat="43.5196233" lon="10.7282983"><ele>56.0</ele><time>2026-04-18T07:39:34.558Z</time></trkpt><trkpt lat="43.5196117" lon="10.7284567"><ele>57.0</ele><time>2026-04-18T07:39:36.558Z</time></trkpt><trkpt lat="43.5196" lon="10.7286033"><ele>58.0</ele><time>2026-04-18T07:39:38.558Z</time></trkpt><trkpt lat="43.5196083" lon="10.7287617"><ele>59.0</ele><time>2026-04-18T07:39:40.558Z</time></trkpt><trkpt lat="43.5196283" lon="10.7289267"><ele>60.0</ele><time>2026-04-18T07:39:42.558Z</time></trkpt><trkpt lat="43.51965" lon="10.72908"><ele>60.0</ele><time>2026-04-18T07:39:44.558Z</time></trkpt><trkpt lat="43.51966" lon="10.7292333"><ele>60.0</ele><time>2026-04-18T07:39:46.558Z</time></trkpt><trkpt lat="43.519675" lon="10.7293717"><ele>60.0</ele><time>2026-04-18T07:39:48.558Z</time></trkpt><trkpt lat="43.519685" lon="10.729515"><ele>60.0</ele><time>2026-04-18T07:39:50.558Z</time></trkpt><trkpt lat="43.5196983" lon="10.7296633"><ele>60.0</ele><time>2026-04-18T07:39:52.558Z</time></trkpt><trkpt lat="43.519665" lon="10.7298133"><ele>60.4</ele><time>2026-04-18T07:39:54.558Z</time></trkpt><trkpt lat="43.519635" lon="10.7299317"><ele>60.8</ele><time>2026-04-18T07:39:56.558Z</time></trkpt><trkpt lat="43.5196" lon="10.7300517"><ele>61.2</ele><time>2026-04-18T07:39:58.558Z</time></trkpt><trkpt lat="43.51958" lon="10.73019"><ele>61.6</ele><time>2026-04-18T07:40:00.558Z</time></trkpt><trkpt lat="43.5195933" lon="10.7303033"><ele>62.0</ele><time>2026-04-18T07:40:02.558Z</time></trkpt><trkpt lat="43.5196017" lon="10.730435"><ele>63.25</ele><time>2026-04-18T07:40:04.558Z</time></trkpt><trkpt lat="43.519615" lon="10.7305733"><ele>64.5</ele><time>2026-04-18T07:40:06.558Z</time></trkpt><trkpt lat="43.5196367" lon="10.7307317"><ele>65.75</ele><time>2026-04-18T07:40:08.558Z</time></trkpt><trkpt lat="43.5196467" lon="10.7308983"><ele>67.0</ele><time>2026-04-18T07:40:10.558Z</time></trkpt><trkpt lat="43.5196533" lon="10.7310533"><ele>69.4</ele><time>2026-04-18T07:40:12.558Z</time></trkpt><trkpt lat="43.51966" lon="10.7312017"><ele>71.80000000000001</ele><time>2026-04-18T07:40:14.558Z</time></trkpt><trkpt lat="43.51966" lon="10.7313317"><ele>74.2</ele><time>2026-04-18T07:40:16.558Z</time></trkpt><trkpt lat="43.519655" lon="10.7314533"><ele>76.60000000000001</ele><time>2026-04-18T07:40:18.558Z</time></trkpt><trkpt lat="43.5196917" lon="10.73159"><ele>79.0</ele><time>2026-04-18T07:40:20.558Z</time></trkpt><trkpt lat="43.51973" lon="10.7317033"><ele>79.0</ele><time>2026-04-18T07:40:22.558Z</time></trkpt><trkpt lat="43.51976" lon="10.7317983"><ele>79.0</ele><time>2026-04-18T07:40:24.558Z</time></trkpt><trkpt lat="43.5197983" lon="10.7319083"><ele>79.0</ele><time>2026-04-18T07:40:26.558Z</time></trkpt><trkpt lat="43.51983" lon="10.7319867"><ele>79.0</ele><time>2026-04-18T07:40:28.558Z</time></trkpt><trkpt lat="43.5198517" lon="10.7320983"><ele>79.0</ele><time>2026-04-18T07:40:30.558Z</time></trkpt><trkpt lat="43.5198683" lon="10.73222"><ele>79.0</ele><time>2026-04-18T07:40:32.558Z</time></trkpt><trkpt lat="43.519875" lon="10.73235"><ele>80.16666666666666</ele><time>2026-04-18T07:40:34.558Z</time></trkpt><trkpt lat="43.519875" lon="10.732485"><ele>81.33333333333333</ele><time>2026-04-18T07:40:36.558Z</time></trkpt><trkpt lat="43.5198767" lon="10.7325917"><ele>82.5</ele><time>2026-04-18T07:40:38.558Z</time></trkpt><trkpt lat="43.5198733" lon="10.732685"><ele>83.66666666666667</ele><time>2026-04-18T07:40:40.558Z</time></trkpt><trkpt lat="43.5198517" lon="10.7328267"><ele>84.83333333333334</ele><time>2026-04-18T07:40:43.558Z</time></trkpt><trkpt lat="43.519865" lon="10.73292"><ele>86.0</ele><time>2026-04-18T07:40:44.558Z</time></trkpt><trkpt lat="43.5198667" lon="10.7330217"><ele>87.42857142857143</ele><time>2026-04-18T07:40:45.558Z</time></trkpt><trkpt lat="43.51987" lon="10.7331333"><ele>88.85714285714286</ele><time>2026-04-18T07:40:46.558Z</time></trkpt><trkpt lat="43.519875" lon="10.733245"><ele>90.28571428571428</ele><time>2026-04-18T07:40:47.558Z</time></trkpt><trkpt lat="43.5198883" lon="10.733355"><ele>91.71428571428572</ele><time>2026-04-18T07:40:48.558Z</time></trkpt><trkpt lat="43.5198933" lon="10.7334533"><ele>93.14285714285714</ele><time>2026-04-18T07:40:49.558Z</time></trkpt><trkpt lat="43.5198917" lon="10.7335433"><ele>94.57142857142857</ele><time>2026-04-18T07:40:50.558Z</time></trkpt><trkpt lat="43.519885" lon="10.7336317"><ele>96.0</ele><time>2026-04-18T07:40:51.558Z</time></trkpt><trkpt lat="43.5198667" lon="10.7337217"><ele>96.83333333333333</ele><time>2026-04-18T07:40:52.558Z</time></trkpt><trkpt lat="43.519855" lon="10.7338133"><ele>97.66666666666666</ele><time>2026-04-18T07:40:53.558Z</time></trkpt><trkpt lat="43.519845" lon="10.7339133"><ele>98.5</ele><time>2026-04-18T07:40:54.558Z</time></trkpt><trkpt lat="43.5198383" lon="10.7340033"><ele>99.33333333333333</ele><time>2026-04-18T07:40:55.558Z</time></trkpt><trkpt lat="43.5198383" lon="10.7341633"><ele>100.16666666666666</ele><time>2026-04-18T07:40:57.558Z</time></trkpt><trkpt lat="43.5198383" lon="10.7342733"><ele>101.0</ele><time>2026-04-18T07:40:59.558Z</time></trkpt><trkpt lat="43.5198867" lon="10.7343783"><ele>100.4</ele><time>2026-04-18T07:41:02.558Z</time></trkpt><trkpt lat="43.5199667" lon="10.734425"><ele>99.8</ele><time>2026-04-18T07:41:04.558Z</time></trkpt><trkpt lat="43.5200317" lon="10.7344633"><ele>99.2</ele><time>2026-04-18T07:41:05.558Z</time></trkpt><trkpt lat="43.520095" lon="10.7345"><ele>98.60000000000001</ele><time>2026-04-18T07:41:06.558Z</time></trkpt><trkpt lat="43.520205" lon="10.7345667"><ele>98.0</ele><time>2026-04-18T07:41:08.558Z</time></trkpt><trkpt lat="43.5202983" lon="10.7346567"><ele>98.0</ele><time>2026-04-18T07:41:10.558Z</time></trkpt><trkpt lat="43.520395" lon="10.734735"><ele>98.0</ele><time>2026-04-18T07:41:12.559Z</time></trkpt><trkpt lat="43.5205" lon="10.7348167"><ele>98.0</ele><time>2026-04-18T07:41:14.559Z</time></trkpt><trkpt lat="43.5205933" lon="10.7349167"><ele>98.0</ele><time>2026-04-18T07:41:16.558Z</time></trkpt><trkpt lat="43.520665" lon="10.73501"><ele>98.0</ele><time>2026-04-18T07:41:18.558Z</time></trkpt><trkpt lat="43.5207167" lon="10.7351483"><ele>101.4</ele><time>2026-04-18T07:41:20.558Z</time></trkpt><trkpt lat="43.5207433" lon="10.7352317"><ele>104.80000000000001</ele><time>2026-04-18T07:41:21.558Z</time></trkpt><trkpt lat="43.52078" lon="10.735375"><ele>108.2</ele><time>2026-04-18T07:41:23.558Z</time></trkpt><trkpt lat="43.5208367" lon="10.735485"><ele>111.6</ele><time>2026-04-18T07:41:25.558Z</time></trkpt><trkpt lat="43.5209183" lon="10.7355917"><ele>115.0</ele><time>2026-04-18T07:41:27.558Z</time></trkpt><trkpt lat="43.5210017" lon="10.735715"><ele>115.0</ele><time>2026-04-18T07:41:29.559Z</time></trkpt><trkpt lat="43.5210817" lon="10.7358217"><ele>115.0</ele><time>2026-04-18T07:41:31.559Z</time></trkpt><trkpt lat="43.5211683" lon="10.7358967"><ele>115.0</ele><time>2026-04-18T07:41:33.558Z</time></trkpt><trkpt lat="43.5212617" lon="10.735975"><ele>115.0</ele><time>2026-04-18T07:41:35.559Z</time></trkpt><trkpt lat="43.5213533" lon="10.73606"><ele>115.0</ele><time>2026-04-18T07:41:37.557Z</time></trkpt><trkpt lat="43.5214017" lon="10.7361233"><ele>118.16666666666667</ele><time>2026-04-18T07:41:38.557Z</time></trkpt><trkpt lat="43.5214533" lon="10.73619"><ele>121.33333333333334</ele><time>2026-04-18T07:41:39.557Z</time></trkpt><trkpt lat="43.5215117" lon="10.7362467"><ele>124.5</ele><time>2026-04-18T07:41:40.557Z</time></trkpt><trkpt lat="43.5215633" lon="10.7363167"><ele>127.66666666666666</ele><time>2026-04-18T07:41:41.557Z</time></trkpt><trkpt lat="43.5216117" lon="10.7363883"><ele>130.83333333333331</ele><time>2026-04-18T07:41:42.557Z</time></trkpt><trkpt lat="43.5216833" lon="10.7365117"><ele>134.0</ele><time>2026-04-18T07:41:44.557Z</time></trkpt><trkpt lat="43.521725" lon="10.7365917"><ele>134.0</ele><time>2026-04-18T07:41:46.557Z</time></trkpt><trkpt lat="43.5217783" lon="10.736665"><ele>134.0</ele><time>2026-04-18T07:41:48.557Z</time></trkpt><trkpt lat="43.5218433" lon="10.7367417"><ele>134.0</ele><time>2026-04-18T07:41:50.557Z</time></trkpt><trkpt lat="43.5219083" lon="10.7368333"><ele>134.0</ele><time>2026-04-18T07:41:52.557Z</time></trkpt><trkpt lat="43.5219883" lon="10.736955"><ele>134.0</ele><time>2026-04-18T07:41:54.557Z</time></trkpt><trkpt lat="43.5220633" lon="10.7370533"><ele>133.66666666666666</ele><time>2026-04-18T07:41:56.558Z</time></trkpt><trkpt lat="43.5221333" lon="10.7371017"><ele>133.33333333333331</ele><time>2026-04-18T07:41:59.557Z</time></trkpt><trkpt lat="43.52213" lon="10.7372"><ele>133.0</ele><time>2026-04-18T07:42:04.557Z</time></trkpt><trkpt lat="43.522095" lon="10.7373183"><ele>132.66666666666666</ele><time>2026-04-18T07:42:19.557Z</time></trkpt><trkpt lat="43.522065" lon="10.7374317"><ele>132.33333333333334</ele><time>2026-04-18T07:42:20.557Z</time></trkpt><trkpt lat="43.5220283" lon="10.7375683"><ele>132.0</ele><time>2026-04-18T07:42:21.557Z</time></trkpt><trkpt lat="43.5219883" lon="10.7376983"><ele>134.0</ele><time>2026-04-18T07:42:22.557Z</time></trkpt><trkpt lat="43.52193" lon="10.7378117"><ele>136.0</ele><time>2026-04-18T07:42:23.558Z</time></trkpt><trkpt lat="43.5218633" lon="10.7378883"><ele>138.0</ele><time>2026-04-18T07:42:24.557Z</time></trkpt><trkpt lat="43.5218083" lon="10.73794"><ele>140.0</ele><time>2026-04-18T07:42:25.557Z</time></trkpt><trkpt lat="43.5217283" lon="10.73802"><ele>142.0</ele><time>2026-04-18T07:42:27.557Z</time></trkpt><trkpt lat="43.5216833" lon="10.73811"><ele>144.0</ele><time>2026-04-18T07:42:30.558Z</time></trkpt><trkpt lat="43.5217033" lon="10.7382067"><ele>144.0</ele><time>2026-04-18T07:42:32.557Z</time></trkpt><trkpt lat="43.5217367" lon="10.7383117"><ele>144.0</ele><time>2026-04-18T07:42:34.557Z</time></trkpt><trkpt lat="43.521755" lon="10.73845"><ele>144.0</ele><time>2026-04-18T07:42:36.557Z</time></trkpt><trkpt lat="43.5217733" lon="10.7385583"><ele>144.0</ele><time>2026-04-18T07:42:37.557Z</time></trkpt><trkpt lat="43.521795" lon="10.738675"><ele>144.0</ele><time>2026-04-18T07:42:38.557Z</time></trkpt><trkpt lat="43.5218217" lon="10.7387983"><ele>144.0</ele><time>2026-04-18T07:42:39.557Z</time></trkpt><trkpt lat="43.521855" lon="10.7389183"><ele>144.0</ele><time>2026-04-18T07:42:40.557Z</time></trkpt><trkpt lat="43.5218867" lon="10.7390483"><ele>144.0</ele><time>2026-04-18T07:42:41.557Z</time></trkpt><trkpt lat="43.52193" lon="10.7391767"><ele>144.0</ele><time>2026-04-18T07:42:42.557Z</time></trkpt><trkpt lat="43.5219733" lon="10.739305"><ele>144.0</ele><time>2026-04-18T07:42:43.557Z</time></trkpt><trkpt lat="43.52202" lon="10.73943"><ele>144.0</ele><time>2026-04-18T07:42:44.557Z</time></trkpt><trkpt lat="43.5220617" lon="10.73955"><ele>146.0</ele><time>2026-04-18T07:42:45.557Z</time></trkpt><trkpt lat="43.5220967" lon="10.7396667"><ele>148.0</ele><time>2026-04-18T07:42:46.557Z</time></trkpt><trkpt lat="43.5221367" lon="10.73977"><ele>150.0</ele><time>2026-04-18T07:42:47.557Z</time></trkpt><trkpt lat="43.522175" lon="10.7398533"><ele>152.0</ele><time>2026-04-18T07:42:48.557Z</time></trkpt><trkpt lat="43.5222133" lon="10.739945"><ele>154.0</ele><time>2026-04-18T07:42:49.557Z</time></trkpt><trkpt lat="43.52225" lon="10.7400317"><ele>156.0</ele><time>2026-04-18T07:42:50.557Z</time></trkpt><trkpt lat="43.5222867" lon="10.7401283"><ele>156.57142857142858</ele><time>2026-04-18T07:42:51.557Z</time></trkpt><trkpt lat="43.5223233" lon="10.7402233"><ele>157.14285714285714</ele><time>2026-04-18T07:42:52.557Z</time></trkpt><trkpt lat="43.522355" lon="10.7403233"><ele>157.71428571428572</ele><time>2026-04-18T07:42:53.557Z</time></trkpt><trkpt lat="43.5223867" lon="10.7404117"><ele>158.28571428571428</ele><time>2026-04-18T07:42:54.557Z</time></trkpt><trkpt lat="43.5224217" lon="10.740495"><ele>158.85714285714286</ele><time>2026-04-18T07:42:55.557Z</time></trkpt><trkpt lat="43.5224617" lon="10.74058"><ele>159.42857142857142</ele><time>2026-04-18T07:42:56.557Z</time></trkpt><trkpt lat="43.5224983" lon="10.7406617"><ele>160.0</ele><time>2026-04-18T07:42:57.558Z</time></trkpt><trkpt lat="43.5225617" lon="10.7407983"><ele>160.0</ele><time>2026-04-18T07:42:59.557Z</time></trkpt><trkpt lat="43.52264" lon="10.7409417"><ele>160.0</ele><time>2026-04-18T07:43:01.557Z</time></trkpt><trkpt lat="43.5226917" lon="10.7410417"><ele>160.0</ele><time>2026-04-18T07:43:02.557Z</time></trkpt><trkpt lat="43.5227467" lon="10.7411417"><ele>160.0</ele><time>2026-04-18T07:43:03.557Z</time></trkpt><trkpt lat="43.5228083" lon="10.7412417"><ele>160.0</ele><time>2026-04-18T07:43:04.557Z</time></trkpt><trkpt lat="43.52287" lon="10.7413267"><ele>159.83333333333334</ele><time>2026-04-18T07:43:05.557Z</time></trkpt><trkpt lat="43.5229333" lon="10.7413933"><ele>159.66666666666669</ele><time>2026-04-18T07:43:06.557Z</time></trkpt><trkpt lat="43.5230033" lon="10.7414583"><ele>159.5</ele><time>2026-04-18T07:43:07.557Z</time></trkpt><trkpt lat="43.5230833" lon="10.74153"><ele>159.33333333333334</ele><time>2026-04-18T07:43:08.557Z</time></trkpt><trkpt lat="43.5231433" lon="10.7415833"><ele>159.16666666666666</ele><time>2026-04-18T07:43:09.557Z</time></trkpt><trkpt lat="43.5232033" lon="10.7416417"><ele>159.0</ele><time>2026-04-18T07:43:10.557Z</time></trkpt><trkpt lat="43.5232667" lon="10.7417"><ele>159.0</ele><time>2026-04-18T07:43:11.557Z</time></trkpt><trkpt lat="43.52333" lon="10.7417617"><ele>159.0</ele><time>2026-04-18T07:43:12.557Z</time></trkpt><trkpt lat="43.52339" lon="10.7418217"><ele>159.0</ele><time>2026-04-18T07:43:13.557Z</time></trkpt><trkpt lat="43.5234467" lon="10.7418767"><ele>159.0</ele><time>2026-04-18T07:43:14.557Z</time></trkpt><trkpt lat="43.5234983" lon="10.7419267"><ele>159.0</ele><time>2026-04-18T07:43:15.557Z</time></trkpt><trkpt lat="43.5236" lon="10.7420033"><ele>159.0</ele><time>2026-04-18T07:43:17.557Z</time></trkpt><trkpt lat="43.5237317" lon="10.74203"><ele>159.5</ele><time>2026-04-18T07:43:19.557Z</time></trkpt><trkpt lat="43.5238017" lon="10.7420217"><ele>160.0</ele><time>2026-04-18T07:43:20.557Z</time></trkpt><trkpt lat="43.523865" lon="10.7420133"><ele>160.5</ele><time>2026-04-18T07:43:21.557Z</time></trkpt><trkpt lat="43.52393" lon="10.7419933"><ele>161.0</ele><time>2026-04-18T07:43:22.558Z</time></trkpt><trkpt lat="43.5239983" lon="10.7419767"><ele>161.5</ele><time>2026-04-18T07:43:23.557Z</time></trkpt><trkpt lat="43.5241333" lon="10.7419367"><ele>162.0</ele><time>2026-04-18T07:43:25.557Z</time></trkpt><trkpt lat="43.5242117" lon="10.7418933"><ele>162.5</ele><time>2026-04-18T07:43:26.557Z</time></trkpt><trkpt lat="43.5242933" lon="10.741865"><ele>163.0</ele><time>2026-04-18T07:43:27.557Z</time></trkpt><trkpt lat="43.52438" lon="10.741825"><ele>163.5</ele><time>2026-04-18T07:43:28.558Z</time></trkpt><trkpt lat="43.5244617" lon="10.7417833"><ele>164.0</ele><time>2026-04-18T07:43:29.557Z</time></trkpt><trkpt lat="43.5245483" lon="10.741745"><ele>164.5</ele><time>2026-04-18T07:43:30.557Z</time></trkpt><trkpt lat="43.5246283" lon="10.741725"><ele>165.0</ele><time>2026-04-18T07:43:31.558Z</time></trkpt><trkpt lat="43.52471" lon="10.7417133"><ele>166.16666666666666</ele><time>2026-04-18T07:43:32.557Z</time></trkpt><trkpt lat="43.5247883" lon="10.7417217"><ele>167.33333333333334</ele><time>2026-04-18T07:43:33.557Z</time></trkpt><trkpt lat="43.5248683" lon="10.7417367"><ele>168.5</ele><time>2026-04-18T07:43:34.557Z</time></trkpt><trkpt lat="43.524945" lon="10.7417533"><ele>169.66666666666669</ele><time>2026-04-18T07:43:35.557Z</time></trkpt><trkpt lat="43.525025" lon="10.7417733"><ele>170.83333333333334</ele><time>2026-04-18T07:43:36.557Z</time></trkpt><trkpt lat="43.5251067" lon="10.7417733"><ele>172.0</ele><time>2026-04-18T07:43:37.557Z</time></trkpt><trkpt lat="43.5251867" lon="10.7417733"><ele>172.0</ele><time>2026-04-18T07:43:38.557Z</time></trkpt><trkpt lat="43.525265" lon="10.74176"><ele>172.0</ele><time>2026-04-18T07:43:39.558Z</time></trkpt><trkpt lat="43.5253433" lon="10.741735"><ele>172.0</ele><time>2026-04-18T07:43:40.557Z</time></trkpt><trkpt lat="43.5254167" lon="10.7417117"><ele>172.0</ele><time>2026-04-18T07:43:41.557Z</time></trkpt><trkpt lat="43.5254767" lon="10.74168"><ele>172.0</ele><time>2026-04-18T07:43:42.557Z</time></trkpt><trkpt lat="43.5255583" lon="10.741585"><ele>172.0</ele><time>2026-04-18T07:43:44.557Z</time></trkpt><trkpt lat="43.5256317" lon="10.7415117"><ele>171.39999999999998</ele><time>2026-04-18T07:43:46.557Z</time></trkpt><trkpt lat="43.5257117" lon="10.7414333"><ele>170.79999999999998</ele><time>2026-04-18T07:43:48.557Z</time></trkpt><trkpt lat="43.5258" lon="10.7413667"><ele>170.2</ele><time>2026-04-18T07:43:50.557Z</time></trkpt><trkpt lat="43.5258867" lon="10.7412983"><ele>169.6</ele><time>2026-04-18T07:43:52.557Z</time></trkpt><trkpt lat="43.5259783" lon="10.7412967"><ele>169.0</ele><time>2026-04-18T07:43:55.557Z</time></trkpt><trkpt lat="43.5260533" lon="10.7413967"><ele>169.0</ele><time>2026-04-18T07:43:57.557Z</time></trkpt><trkpt lat="43.52612" lon="10.7414683"><ele>169.0</ele><time>2026-04-18T07:43:58.557Z</time></trkpt><trkpt lat="43.5261983" lon="10.7415683"><ele>169.0</ele><time>2026-04-18T07:43:59.557Z</time></trkpt><trkpt lat="43.5262833" lon="10.741685"><ele>169.0</ele><time>2026-04-18T07:44:00.557Z</time></trkpt><trkpt lat="43.5263833" lon="10.7418317"><ele>169.5</ele><time>2026-04-18T07:44:01.557Z</time></trkpt><trkpt lat="43.526475" lon="10.741975"><ele>170.0</ele><time>2026-04-18T07:44:02.557Z</time></trkpt><trkpt lat="43.526555" lon="10.7421"><ele>170.5</ele><time>2026-04-18T07:44:03.557Z</time></trkpt><trkpt lat="43.5266383" lon="10.7422067"><ele>171.0</ele><time>2026-04-18T07:44:04.557Z</time></trkpt><trkpt lat="43.5267167" lon="10.7423083"><ele>171.0</ele><time>2026-04-18T07:44:05.557Z</time></trkpt><trkpt lat="43.5267917" lon="10.742415"><ele>171.0</ele><time>2026-04-18T07:44:06.557Z</time></trkpt><trkpt lat="43.526865" lon="10.7425333"><ele>171.0</ele><time>2026-04-18T07:44:07.557Z</time></trkpt><trkpt lat="43.5269317" lon="10.7426767"><ele>171.0</ele><time>2026-04-18T07:44:08.557Z</time></trkpt><trkpt lat="43.52698" lon="10.74283"><ele>171.4</ele><time>2026-04-18T07:44:09.557Z</time></trkpt><trkpt lat="43.5270283" lon="10.7429733"><ele>171.8</ele><time>2026-04-18T07:44:10.557Z</time></trkpt><trkpt lat="43.5270633" lon="10.7431"><ele>172.20000000000002</ele><time>2026-04-18T07:44:11.557Z</time></trkpt><trkpt lat="43.5271017" lon="10.74322"><ele>172.60000000000002</ele><time>2026-04-18T07:44:12.557Z</time></trkpt><trkpt lat="43.527145" lon="10.74333"><ele>173.0</ele><time>2026-04-18T07:44:13.557Z</time></trkpt><trkpt lat="43.5271767" lon="10.743435"><ele>172.66666666666666</ele><time>2026-04-18T07:44:14.557Z</time></trkpt><trkpt lat="43.527205" lon="10.7435467"><ele>172.33333333333331</ele><time>2026-04-18T07:44:15.557Z</time></trkpt><trkpt lat="43.5272367" lon="10.743655"><ele>172.0</ele><time>2026-04-18T07:44:16.557Z</time></trkpt><trkpt lat="43.527255" lon="10.7437583"><ele>171.66666666666666</ele><time>2026-04-18T07:44:17.557Z</time></trkpt><trkpt lat="43.527265" lon="10.7438467"><ele>171.33333333333334</ele><time>2026-04-18T07:44:18.557Z</time></trkpt><trkpt lat="43.5273083" lon="10.74401"><ele>171.0</ele><time>2026-04-18T07:44:20.557Z</time></trkpt><trkpt lat="43.5273467" lon="10.74408"><ele>171.0</ele><time>2026-04-18T07:44:21.557Z</time></trkpt><trkpt lat="43.5274217" lon="10.7441883"><ele>171.0</ele><time>2026-04-18T07:44:23.557Z</time></trkpt><trkpt lat="43.5275233" lon="10.744255"><ele>171.0</ele><time>2026-04-18T07:44:25.557Z</time></trkpt><trkpt lat="43.5276483" lon="10.7443133"><ele>171.0</ele><time>2026-04-18T07:44:27.557Z</time></trkpt><trkpt lat="43.5277183" lon="10.7443483"><ele>171.0</ele><time>2026-04-18T07:44:28.557Z</time></trkpt><trkpt lat="43.5277883" lon="10.744385"><ele>170.28571428571428</ele><time>2026-04-18T07:44:29.558Z</time></trkpt><trkpt lat="43.5278583" lon="10.7444383"><ele>169.57142857142856</ele><time>2026-04-18T07:44:30.557Z</time></trkpt><trkpt lat="43.5279267" lon="10.7444833"><ele>168.85714285714283</ele><time>2026-04-18T07:44:31.557Z</time></trkpt><trkpt lat="43.5279867" lon="10.744525"><ele>168.14285714285714</ele><time>2026-04-18T07:44:32.557Z</time></trkpt><trkpt lat="43.5280433" lon="10.7445733"><ele>167.42857142857144</ele><time>2026-04-18T07:44:33.557Z</time></trkpt><trkpt lat="43.5280917" lon="10.7446317"><ele>166.7142857142857</ele><time>2026-04-18T07:44:34.557Z</time></trkpt><trkpt lat="43.5281367" lon="10.7447033"><ele>166.0</ele><time>2026-04-18T07:44:35.557Z</time></trkpt><trkpt lat="43.5281867" lon="10.7448"><ele>165.83333333333334</ele><time>2026-04-18T07:44:36.557Z</time></trkpt><trkpt lat="43.528235" lon="10.7449067"><ele>165.66666666666669</ele><time>2026-04-18T07:44:37.557Z</time></trkpt><trkpt lat="43.5282833" lon="10.7450167"><ele>165.5</ele><time>2026-04-18T07:44:38.557Z</time></trkpt><trkpt lat="43.5283317" lon="10.7451217"><ele>165.33333333333334</ele><time>2026-04-18T07:44:39.557Z</time></trkpt><trkpt lat="43.528375" lon="10.74522"><ele>165.16666666666666</ele><time>2026-04-18T07:44:40.557Z</time></trkpt><trkpt lat="43.5284167" lon="10.7453067"><ele>165.0</ele><time>2026-04-18T07:44:41.557Z</time></trkpt><trkpt lat="43.5284767" lon="10.745425"><ele>165.00000000000003</ele><time>2026-04-18T07:44:43.557Z</time></trkpt><trkpt lat="43.5285533" lon="10.7454333"><ele>165.0</ele><time>2026-04-18T07:44:53.557Z</time></trkpt><trkpt lat="43.5285917" lon="10.7453617"><ele>165.0</ele><time>2026-04-18T07:44:57.558Z</time></trkpt><trkpt lat="43.5286633" lon="10.7453233"><ele>165.0</ele><time>2026-04-18T07:45:00.557Z</time></trkpt><trkpt lat="43.5287383" lon="10.7453017"><ele>165.0</ele><time>2026-04-18T07:45:02.556Z</time></trkpt><trkpt lat="43.52881" lon="10.7452817"><ele>165.00000000000003</ele><time>2026-04-18T07:45:04.556Z</time></trkpt><trkpt lat="43.5288783" lon="10.7452617"><ele>165.0</ele><time>2026-04-18T07:45:06.556Z</time></trkpt><trkpt lat="43.5289517" lon="10.7452433"><ele>165.0</ele><time>2026-04-18T07:45:08.556Z</time></trkpt><trkpt lat="43.529025" lon="10.7452283"><ele>165.0</ele><time>2026-04-18T07:45:10.556Z</time></trkpt><trkpt lat="43.5290933" lon="10.7452083"><ele>165.0</ele><time>2026-04-18T07:45:12.556Z</time></trkpt><trkpt lat="43.5291817" lon="10.7451717"><ele>165.0</ele><time>2026-04-18T07:45:14.556Z</time></trkpt><trkpt lat="43.529255" lon="10.7451267"><ele>165.0</ele><time>2026-04-18T07:45:16.556Z</time></trkpt><trkpt lat="43.52935" lon="10.74511"><ele>165.0</ele><time>2026-04-18T07:45:32.556Z</time></trkpt><trkpt lat="43.5294417" lon="10.74514"><ele>163.83333333333334</ele><time>2026-04-18T07:45:38.556Z</time></trkpt><trkpt lat="43.52952" lon="10.7451867"><ele>162.66666666666666</ele><time>2026-04-18T07:45:40.556Z</time></trkpt><trkpt lat="43.5296367" lon="10.7452583"><ele>161.5</ele><time>2026-04-18T07:45:42.556Z</time></trkpt><trkpt lat="43.529715" lon="10.7453033"><ele>160.33333333333331</ele><time>2026-04-18T07:45:44.556Z</time></trkpt><trkpt lat="43.5297783" lon="10.7453233"><ele>159.16666666666666</ele><time>2026-04-18T07:45:47.556Z</time></trkpt><trkpt lat="43.52986" lon="10.7452867"><ele>158.0</ele><time>2026-04-18T07:45:50.556Z</time></trkpt><trkpt lat="43.5299367" lon="10.7452567"><ele>157.16666666666666</ele><time>2026-04-18T07:45:52.556Z</time></trkpt><trkpt lat="43.5300383" lon="10.74519"><ele>156.33333333333331</ele><time>2026-04-18T07:45:54.556Z</time></trkpt><trkpt lat="43.5300933" lon="10.7451367"><ele>155.5</ele><time>2026-04-18T07:45:55.556Z</time></trkpt><trkpt lat="43.5301583" lon="10.7450683"><ele>154.66666666666666</ele><time>2026-04-18T07:45:56.556Z</time></trkpt><trkpt lat="43.5302233" lon="10.7449983"><ele>153.83333333333334</ele><time>2026-04-18T07:45:57.556Z</time></trkpt><trkpt lat="43.5303017" lon="10.7449267"><ele>153.0</ele><time>2026-04-18T07:45:58.556Z</time></trkpt><trkpt lat="43.5303833" lon="10.744865"><ele>153.5</ele><time>2026-04-18T07:45:59.556Z</time></trkpt><trkpt lat="43.5304717" lon="10.74481"><ele>154.0</ele><time>2026-04-18T07:46:00.556Z</time></trkpt><trkpt lat="43.530565" lon="10.74477"><ele>154.5</ele><time>2026-04-18T07:46:01.556Z</time></trkpt><trkpt lat="43.53064" lon="10.7447367"><ele>155.0</ele><time>2026-04-18T07:46:02.556Z</time></trkpt><trkpt lat="43.5307067" lon="10.7446967"><ele>155.5</ele><time>2026-04-18T07:46:03.556Z</time></trkpt><trkpt lat="43.5307667" lon="10.744655"><ele>156.0</ele><time>2026-04-18T07:46:04.557Z</time></trkpt><trkpt lat="43.5308283" lon="10.7445983"><ele>156.0</ele><time>2026-04-18T07:46:05.556Z</time></trkpt><trkpt lat="43.5308833" lon="10.744535"><ele>156.0</ele><time>2026-04-18T07:46:06.556Z</time></trkpt><trkpt lat="43.5309133" lon="10.744425"><ele>156.0</ele><time>2026-04-18T07:46:07.557Z</time></trkpt><trkpt lat="43.530935" lon="10.7443133"><ele>156.0</ele><time>2026-04-18T07:46:08.556Z</time></trkpt><trkpt lat="43.5309533" lon="10.744195"><ele>156.0</ele><time>2026-04-18T07:46:09.556Z</time></trkpt><trkpt lat="43.5309767" lon="10.7440817"><ele>156.0</ele><time>2026-04-18T07:46:10.556Z</time></trkpt><trkpt lat="43.5309817" lon="10.743965"><ele>156.0</ele><time>2026-04-18T07:46:11.556Z</time></trkpt><trkpt lat="43.530975" lon="10.7438483"><ele>156.0</ele><time>2026-04-18T07:46:12.556Z</time></trkpt><trkpt lat="43.5309667" lon="10.743735"><ele>156.0</ele><time>2026-04-18T07:46:13.556Z</time></trkpt><trkpt lat="43.5309567" lon="10.7436183"><ele>156.0</ele><time>2026-04-18T07:46:14.556Z</time></trkpt><trkpt lat="43.5309383" lon="10.7434967"><ele>156.0</ele><time>2026-04-18T07:46:15.556Z</time></trkpt><trkpt lat="43.5309117" lon="10.7433767"><ele>156.0</ele><time>2026-04-18T07:46:16.556Z</time></trkpt><trkpt lat="43.5308917" lon="10.7432483"><ele>157.0</ele><time>2026-04-18T07:46:17.556Z</time></trkpt><trkpt lat="43.5308817" lon="10.7431317"><ele>158.0</ele><time>2026-04-18T07:46:18.556Z</time></trkpt><trkpt lat="43.5308733" lon="10.743015"><ele>159.0</ele><time>2026-04-18T07:46:19.556Z</time></trkpt><trkpt lat="43.5308783" lon="10.7429083"><ele>160.0</ele><time>2026-04-18T07:46:20.557Z</time></trkpt><trkpt lat="43.530895" lon="10.7428083"><ele>161.0</ele><time>2026-04-18T07:46:21.556Z</time></trkpt><trkpt lat="43.5309117" lon="10.7427167"><ele>162.0</ele><time>2026-04-18T07:46:22.557Z</time></trkpt><trkpt lat="43.5309217" lon="10.7426267"><ele>162.8</ele><time>2026-04-18T07:46:23.556Z</time></trkpt><trkpt lat="43.5309167" lon="10.7424617"><ele>163.6</ele><time>2026-04-18T07:46:25.556Z</time></trkpt><trkpt lat="43.5309033" lon="10.7423717"><ele>164.4</ele><time>2026-04-18T07:46:26.556Z</time></trkpt><trkpt lat="43.5308783" lon="10.7422683"><ele>165.20000000000002</ele><time>2026-04-18T07:46:27.556Z</time></trkpt><trkpt lat="43.5308467" lon="10.74215"><ele>166.0</ele><time>2026-04-18T07:46:28.557Z</time></trkpt><trkpt lat="43.53081" lon="10.7420267"><ele>166.0</ele><time>2026-04-18T07:46:29.557Z</time></trkpt><trkpt lat="43.5307717" lon="10.7419117"><ele>166.0</ele><time>2026-04-18T07:46:30.557Z</time></trkpt><trkpt lat="43.5307417" lon="10.7418033"><ele>166.0</ele><time>2026-04-18T07:46:31.557Z</time></trkpt><trkpt lat="43.530715" lon="10.74171"><ele>166.0</ele><time>2026-04-18T07:46:32.556Z</time></trkpt><trkpt lat="43.530695" lon="10.7415883"><ele>166.0</ele><time>2026-04-18T07:46:34.556Z</time></trkpt><trkpt lat="43.5306867" lon="10.7414783"><ele>166.0</ele><time>2026-04-18T07:46:37.556Z</time></trkpt><trkpt lat="43.530695" lon="10.74134"><ele>166.33333333333334</ele><time>2026-04-18T07:46:40.556Z</time></trkpt><trkpt lat="43.530755" lon="10.741185"><ele>166.66666666666669</ele><time>2026-04-18T07:46:42.556Z</time></trkpt><trkpt lat="43.530795" lon="10.7410983"><ele>167.0</ele><time>2026-04-18T07:46:43.556Z</time></trkpt><trkpt lat="43.5308317" lon="10.741015"><ele>167.33333333333334</ele><time>2026-04-18T07:46:44.557Z</time></trkpt><trkpt lat="43.5308733" lon="10.740925"><ele>167.66666666666666</ele><time>2026-04-18T07:46:45.556Z</time></trkpt><trkpt lat="43.530905" lon="10.740845"><ele>168.0</ele><time>2026-04-18T07:46:46.556Z</time></trkpt><trkpt lat="43.5309367" lon="10.7407633"><ele>168.0</ele><time>2026-04-18T07:46:47.556Z</time></trkpt><trkpt lat="43.5309633" lon="10.7406767"><ele>168.0</ele><time>2026-04-18T07:46:48.556Z</time></trkpt><trkpt lat="43.530985" lon="10.7405917"><ele>168.0</ele><time>2026-04-18T07:46:49.557Z</time></trkpt><trkpt lat="43.5310033" lon="10.7405083"><ele>168.0</ele><time>2026-04-18T07:46:50.557Z</time></trkpt><trkpt lat="43.5310217" lon="10.740425"><ele>168.0</ele><time>2026-04-18T07:46:51.556Z</time></trkpt><trkpt lat="43.5310467" lon="10.74033"><ele>168.0</ele><time>2026-04-18T07:46:52.556Z</time></trkpt><trkpt lat="43.5310733" lon="10.7402383"><ele>168.0</ele><time>2026-04-18T07:46:53.556Z</time></trkpt><trkpt lat="43.5311233" lon="10.7400883"><ele>168.2</ele><time>2026-04-18T07:46:55.556Z</time></trkpt><trkpt lat="43.53114" lon="10.7399733"><ele>168.4</ele><time>2026-04-18T07:46:57.556Z</time></trkpt><trkpt lat="43.531155" lon="10.7398617"><ele>168.6</ele><time>2026-04-18T07:46:59.556Z</time></trkpt><trkpt lat="43.5312033" lon="10.7397267"><ele>168.79999999999998</ele><time>2026-04-18T07:47:01.556Z</time></trkpt><trkpt lat="43.5312767" lon="10.7396067"><ele>169.0</ele><time>2026-04-18T07:47:03.556Z</time></trkpt><trkpt lat="43.5313233" lon="10.7395433"><ele>166.79999999999998</ele><time>2026-04-18T07:47:04.556Z</time></trkpt><trkpt lat="43.5313817" lon="10.7394817"><ele>164.6</ele><time>2026-04-18T07:47:05.556Z</time></trkpt><trkpt lat="43.5314533" lon="10.7394117"><ele>162.4</ele><time>2026-04-18T07:47:06.556Z</time></trkpt><trkpt lat="43.5315317" lon="10.7393367"><ele>160.2</ele><time>2026-04-18T07:47:07.556Z</time></trkpt><trkpt lat="43.5316133" lon="10.7392533"><ele>158.0</ele><time>2026-04-18T07:47:08.557Z</time></trkpt><trkpt lat="43.5317" lon="10.7391767"><ele>158.0</ele><time>2026-04-18T07:47:09.557Z</time></trkpt><trkpt lat="43.53179" lon="10.7390983"><ele>158.0</ele><time>2026-04-18T07:47:10.556Z</time></trkpt><trkpt lat="43.5318767" lon="10.73901"><ele>158.0</ele><time>2026-04-18T07:47:11.557Z</time></trkpt><trkpt lat="43.5319583" lon="10.73893"><ele>158.0</ele><time>2026-04-18T07:47:12.556Z</time></trkpt><trkpt lat="43.5320433" lon="10.7388633"><ele>158.0</ele><time>2026-04-18T07:47:13.557Z</time></trkpt><trkpt lat="43.5321333" lon="10.73879"><ele>156.8</ele><time>2026-04-18T07:47:14.556Z</time></trkpt><trkpt lat="43.5322183" lon="10.738745"><ele>155.60000000000002</ele><time>2026-04-18T07:47:15.556Z</time></trkpt><trkpt lat="43.5323033" lon="10.7386933"><ele>154.39999999999998</ele><time>2026-04-18T07:47:16.556Z</time></trkpt><trkpt lat="43.5323933" lon="10.738635"><ele>153.2</ele><time>2026-04-18T07:47:17.556Z</time></trkpt><trkpt lat="43.5324767" lon="10.7385733"><ele>152.0</ele><time>2026-04-18T07:47:18.556Z</time></trkpt><trkpt lat="43.5325633" lon="10.7385183"><ele>152.0</ele><time>2026-04-18T07:47:19.556Z</time></trkpt><trkpt lat="43.532645" lon="10.7384533"><ele>152.0</ele><time>2026-04-18T07:47:20.556Z</time></trkpt><trkpt lat="43.53273" lon="10.7383833"><ele>152.0</ele><time>2026-04-18T07:47:21.556Z</time></trkpt><trkpt lat="43.5328133" lon="10.73832"><ele>152.0</ele><time>2026-04-18T07:47:22.556Z</time></trkpt><trkpt lat="43.5328933" lon="10.7382517"><ele>152.0</ele><time>2026-04-18T07:47:23.556Z</time></trkpt><trkpt lat="43.5329767" lon="10.7381783"><ele>151.2</ele><time>2026-04-18T07:47:24.556Z</time></trkpt><trkpt lat="43.5330567" lon="10.7380883"><ele>150.39999999999998</ele><time>2026-04-18T07:47:25.556Z</time></trkpt><trkpt lat="43.5331467" lon="10.7380017"><ele>149.60000000000002</ele><time>2026-04-18T07:47:26.556Z</time></trkpt><trkpt lat="43.5332283" lon="10.73791"><ele>148.8</ele><time>2026-04-18T07:47:27.556Z</time></trkpt><trkpt lat="43.5332967" lon="10.737835"><ele>148.0</ele><time>2026-04-18T07:47:28.556Z</time></trkpt><trkpt lat="43.53336" lon="10.737775"><ele>148.0</ele><time>2026-04-18T07:47:29.556Z</time></trkpt><trkpt lat="43.53342" lon="10.7377267"><ele>148.0</ele><time>2026-04-18T07:47:30.556Z</time></trkpt><trkpt lat="43.5334783" lon="10.737685"><ele>148.0</ele><time>2026-04-18T07:47:31.556Z</time></trkpt><trkpt lat="43.5335683" lon="10.737655"><ele>148.0</ele><time>2026-04-18T07:47:33.556Z</time></trkpt><trkpt lat="43.53366" lon="10.7376267"><ele>148.0</ele><time>2026-04-18T07:47:35.556Z</time></trkpt><trkpt lat="43.5337233" lon="10.7376083"><ele>148.0</ele><time>2026-04-18T07:47:36.556Z</time></trkpt><trkpt lat="43.5337833" lon="10.73758"><ele>147.42857142857144</ele><time>2026-04-18T07:47:37.556Z</time></trkpt><trkpt lat="43.5338483" lon="10.7375517"><ele>146.85714285714286</ele><time>2026-04-18T07:47:38.556Z</time></trkpt><trkpt lat="43.533915" lon="10.7375217"><ele>146.28571428571428</ele><time>2026-04-18T07:47:39.556Z</time></trkpt><trkpt lat="43.5339833" lon="10.7374883"><ele>145.71428571428572</ele><time>2026-04-18T07:47:40.556Z</time></trkpt><trkpt lat="43.53405" lon="10.7374567"><ele>145.14285714285714</ele><time>2026-04-18T07:47:41.556Z</time></trkpt><trkpt lat="43.5341167" lon="10.7374283"><ele>144.57142857142858</ele><time>2026-04-18T07:47:42.556Z</time></trkpt><trkpt lat="43.5341933" lon="10.7373883"><ele>144.0</ele><time>2026-04-18T07:47:43.556Z</time></trkpt><trkpt lat="43.534275" lon="10.7373467"><ele>144.0</ele><time>2026-04-18T07:47:44.556Z</time></trkpt><trkpt lat="43.534355" lon="10.7373017"><ele>144.0</ele><time>2026-04-18T07:47:45.556Z</time></trkpt><trkpt lat="43.5344367" lon="10.7372517"><ele>144.0</ele><time>2026-04-18T07:47:46.556Z</time></trkpt><trkpt lat="43.5345267" lon="10.737205"><ele>144.0</ele><time>2026-04-18T07:47:47.556Z</time></trkpt><trkpt lat="43.5346167" lon="10.737155"><ele>144.0</ele><time>2026-04-18T07:47:48.556Z</time></trkpt><trkpt lat="43.534705" lon="10.7371133"><ele>143.0</ele><time>2026-04-18T07:47:49.556Z</time></trkpt><trkpt lat="43.5348" lon="10.7370633"><ele>142.0</ele><time>2026-04-18T07:47:50.556Z</time></trkpt><trkpt lat="43.534885" lon="10.7370117"><ele>141.0</ele><time>2026-04-18T07:47:51.556Z</time></trkpt><trkpt lat="43.5349683" lon="10.7369567"><ele>140.0</ele><time>2026-04-18T07:47:52.556Z</time></trkpt><trkpt lat="43.53505" lon="10.7368883"><ele>139.0</ele><time>2026-04-18T07:47:53.556Z</time></trkpt><trkpt lat="43.5351367" lon="10.7368067"><ele>138.8</ele><time>2026-04-18T07:47:54.556Z</time></trkpt><trkpt lat="43.5352317" lon="10.7367233"><ele>138.60000000000002</ele><time>2026-04-18T07:47:55.556Z</time></trkpt><trkpt lat="43.5353233" lon="10.736635"><ele>138.4</ele><time>2026-04-18T07:47:56.556Z</time></trkpt><trkpt lat="43.5354133" lon="10.7365517"><ele>138.20000000000002</ele><time>2026-04-18T07:47:57.556Z</time></trkpt><trkpt lat="43.5355" lon="10.7364733"><ele>138.0</ele><time>2026-04-18T07:47:58.556Z</time></trkpt><trkpt lat="43.5355767" lon="10.7364033"><ele>137.66666666666666</ele><time>2026-04-18T07:47:59.556Z</time></trkpt><trkpt lat="43.5356533" lon="10.736335"><ele>137.33333333333334</ele><time>2026-04-18T07:48:00.556Z</time></trkpt><trkpt lat="43.5357333" lon="10.7362583"><ele>137.0</ele><time>2026-04-18T07:48:01.556Z</time></trkpt><trkpt lat="43.5358067" lon="10.7361883"><ele>136.66666666666669</ele><time>2026-04-18T07:48:02.556Z</time></trkpt><trkpt lat="43.5358733" lon="10.7361233"><ele>136.33333333333334</ele><time>2026-04-18T07:48:03.557Z</time></trkpt><trkpt lat="43.5359383" lon="10.736065"><ele>136.0</ele><time>2026-04-18T07:48:04.557Z</time></trkpt><trkpt lat="43.5360367" lon="10.735985"><ele>135.33333333333334</ele><time>2026-04-18T07:48:06.556Z</time></trkpt><trkpt lat="43.5360967" lon="10.7359317"><ele>134.66666666666669</ele><time>2026-04-18T07:48:08.556Z</time></trkpt><trkpt lat="43.5361733" lon="10.7358583"><ele>134.0</ele><time>2026-04-18T07:48:11.556Z</time></trkpt><trkpt lat="43.5362433" lon="10.7357917"><ele>133.33333333333334</ele><time>2026-04-18T07:48:13.556Z</time></trkpt><trkpt lat="43.536315" lon="10.7357167"><ele>132.66666666666666</ele><time>2026-04-18T07:48:15.556Z</time></trkpt><trkpt lat="43.5363933" lon="10.735635"><ele>132.0</ele><time>2026-04-18T07:48:17.556Z</time></trkpt><trkpt lat="43.5364817" lon="10.73555"><ele>131.0</ele><time>2026-04-18T07:48:19.556Z</time></trkpt><trkpt lat="43.5365517" lon="10.735475"><ele>130.0</ele><time>2026-04-18T07:48:21.556Z</time></trkpt><trkpt lat="43.536625" lon="10.7354067"><ele>129.0</ele><time>2026-04-18T07:48:23.556Z</time></trkpt><trkpt lat="43.536685" lon="10.73535"><ele>128.0</ele><time>2026-04-18T07:48:24.556Z</time></trkpt><trkpt lat="43.5367567" lon="10.7352767"><ele>127.0</ele><time>2026-04-18T07:48:25.556Z</time></trkpt><trkpt lat="43.536845" lon="10.7351967"><ele>126.0</ele><time>2026-04-18T07:48:26.556Z</time></trkpt><trkpt lat="43.5369267" lon="10.735115"><ele>125.19999999999999</ele><time>2026-04-18T07:48:27.556Z</time></trkpt><trkpt lat="43.5370083" lon="10.7350317"><ele>124.39999999999999</ele><time>2026-04-18T07:48:28.556Z</time></trkpt><trkpt lat="43.537085" lon="10.7349633"><ele>123.6</ele><time>2026-04-18T07:48:29.556Z</time></trkpt><trkpt lat="43.5371467" lon="10.7349067"><ele>122.8</ele><time>2026-04-18T07:48:30.555Z</time></trkpt><trkpt lat="43.5372067" lon="10.7348567"><ele>122.0</ele><time>2026-04-18T07:48:31.555Z</time></trkpt><trkpt lat="43.5373017" lon="10.73476"><ele>121.99999999999999</ele><time>2026-04-18T07:48:33.555Z</time></trkpt><trkpt lat="43.5373633" lon="10.7346933"><ele>122.0</ele><time>2026-04-18T07:48:34.555Z</time></trkpt><trkpt lat="43.53743" lon="10.73462"><ele>122.0</ele><time>2026-04-18T07:48:35.555Z</time></trkpt><trkpt lat="43.53749" lon="10.734555"><ele>122.0</ele><time>2026-04-18T07:48:36.555Z</time></trkpt><trkpt lat="43.5375683" lon="10.7344717"><ele>121.99999999999999</ele><time>2026-04-18T07:48:38.555Z</time></trkpt><trkpt lat="43.5376283" lon="10.734385"><ele>122.0</ele><time>2026-04-18T07:48:40.555Z</time></trkpt><trkpt lat="43.5377033" lon="10.734245"><ele>120.19999999999999</ele><time>2026-04-18T07:48:42.555Z</time></trkpt><trkpt lat="43.5377467" lon="10.7341067"><ele>118.39999999999999</ele><time>2026-04-18T07:48:44.556Z</time></trkpt><trkpt lat="43.5377667" lon="10.7339583"><ele>116.60000000000001</ele><time>2026-04-18T07:48:46.555Z</time></trkpt><trkpt lat="43.5377967" lon="10.7338"><ele>114.80000000000001</ele><time>2026-04-18T07:48:48.555Z</time></trkpt><trkpt lat="43.5378033" lon="10.7337067"><ele>113.0</ele><time>2026-04-18T07:48:49.555Z</time></trkpt><trkpt lat="43.5378067" lon="10.7336183"><ele>111.66666666666666</ele><time>2026-04-18T07:48:50.555Z</time></trkpt><trkpt lat="43.5378133" lon="10.7335217"><ele>110.33333333333333</ele><time>2026-04-18T07:48:51.555Z</time></trkpt><trkpt lat="43.5378167" lon="10.7334233"><ele>109.0</ele><time>2026-04-18T07:48:52.555Z</time></trkpt><trkpt lat="43.5378083" lon="10.7333183"><ele>107.66666666666666</ele><time>2026-04-18T07:48:53.555Z</time></trkpt><trkpt lat="43.5377917" lon="10.7332167"><ele>106.33333333333333</ele><time>2026-04-18T07:48:54.555Z</time></trkpt><trkpt lat="43.53777" lon="10.7331033"><ele>105.0</ele><time>2026-04-18T07:48:55.555Z</time></trkpt><trkpt lat="43.5377533" lon="10.7329917"><ele>105.0</ele><time>2026-04-18T07:48:56.555Z</time></trkpt><trkpt lat="43.5377433" lon="10.7328883"><ele>105.0</ele><time>2026-04-18T07:48:57.555Z</time></trkpt><trkpt lat="43.5377367" lon="10.7327867"><ele>105.0</ele><time>2026-04-18T07:48:58.555Z</time></trkpt><trkpt lat="43.5377367" lon="10.7326767"><ele>105.0</ele><time>2026-04-18T07:48:59.555Z</time></trkpt><trkpt lat="43.53774" lon="10.7325617"><ele>105.0</ele><time>2026-04-18T07:49:00.555Z</time></trkpt><trkpt lat="43.537745" lon="10.73245"><ele>105.0</ele><time>2026-04-18T07:49:01.556Z</time></trkpt><trkpt lat="43.53776" lon="10.7323467"><ele>104.71428571428571</ele><time>2026-04-18T07:49:02.555Z</time></trkpt><trkpt lat="43.5377783" lon="10.73226"><ele>104.42857142857143</ele><time>2026-04-18T07:49:03.555Z</time></trkpt><trkpt lat="43.5378033" lon="10.7321733"><ele>104.14285714285714</ele><time>2026-04-18T07:49:04.555Z</time></trkpt><trkpt lat="43.5378367" lon="10.7320867"><ele>103.85714285714286</ele><time>2026-04-18T07:49:05.555Z</time></trkpt><trkpt lat="43.53788" lon="10.7319967"><ele>103.57142857142857</ele><time>2026-04-18T07:49:06.555Z</time></trkpt><trkpt lat="43.5379333" lon="10.731915"><ele>103.28571428571428</ele><time>2026-04-18T07:49:07.555Z</time></trkpt><trkpt lat="43.5379783" lon="10.73182"><ele>103.0</ele><time>2026-04-18T07:49:08.555Z</time></trkpt><trkpt lat="43.5380183" lon="10.7317467"><ele>103.00000000000001</ele><time>2026-04-18T07:49:09.555Z</time></trkpt><trkpt lat="43.5380633" lon="10.7316817"><ele>103.0</ele><time>2026-04-18T07:49:10.556Z</time></trkpt><trkpt lat="43.5381217" lon="10.7316183"><ele>103.0</ele><time>2026-04-18T07:49:11.555Z</time></trkpt><trkpt lat="43.53819" lon="10.73156"><ele>103.0</ele><time>2026-04-18T07:49:12.555Z</time></trkpt><trkpt lat="43.538265" lon="10.7315117"><ele>103.00000000000001</ele><time>2026-04-18T07:49:13.555Z</time></trkpt><trkpt lat="43.5383383" lon="10.73146"><ele>103.0</ele><time>2026-04-18T07:49:14.555Z</time></trkpt><trkpt lat="43.5384117" lon="10.7314117"><ele>103.00000000000001</ele><time>2026-04-18T07:49:15.556Z</time></trkpt><trkpt lat="43.53848" lon="10.7313667"><ele>103.0</ele><time>2026-04-18T07:49:16.555Z</time></trkpt><trkpt lat="43.5385533" lon="10.73131"><ele>103.0</ele><time>2026-04-18T07:49:17.556Z</time></trkpt><trkpt lat="43.53862" lon="10.7312633"><ele>103.0</ele><time>2026-04-18T07:49:18.555Z</time></trkpt><trkpt lat="43.5386833" lon="10.7312133"><ele>103.00000000000001</ele><time>2026-04-18T07:49:19.556Z</time></trkpt><trkpt lat="43.5387483" lon="10.7311617"><ele>103.0</ele><time>2026-04-18T07:49:20.555Z</time></trkpt><trkpt lat="43.5388133" lon="10.7311033"><ele>101.42857142857142</ele><time>2026-04-18T07:49:21.555Z</time></trkpt><trkpt lat="43.538885" lon="10.7310383"><ele>99.85714285714286</ele><time>2026-04-18T07:49:22.555Z</time></trkpt><trkpt lat="43.5389467" lon="10.73098"><ele>98.28571428571428</ele><time>2026-04-18T07:49:23.555Z</time></trkpt><trkpt lat="43.5390033" lon="10.7309233"><ele>96.71428571428571</ele><time>2026-04-18T07:49:24.555Z</time></trkpt><trkpt lat="43.5390583" lon="10.7308617"><ele>95.14285714285714</ele><time>2026-04-18T07:49:25.555Z</time></trkpt><trkpt lat="43.5391117" lon="10.73079"><ele>93.57142857142857</ele><time>2026-04-18T07:49:26.555Z</time></trkpt><trkpt lat="43.5391617" lon="10.7307183"><ele>92.0</ele><time>2026-04-18T07:49:27.555Z</time></trkpt><trkpt lat="43.5392117" lon="10.7306417"><ele>92.0</ele><time>2026-04-18T07:49:28.555Z</time></trkpt><trkpt lat="43.539255" lon="10.73056"><ele>92.0</ele><time>2026-04-18T07:49:29.556Z</time></trkpt><trkpt lat="43.5393" lon="10.7304817"><ele>92.0</ele><time>2026-04-18T07:49:30.555Z</time></trkpt><trkpt lat="43.53935" lon="10.7303917"><ele>92.0</ele><time>2026-04-18T07:49:31.555Z</time></trkpt><trkpt lat="43.539395" lon="10.7303083"><ele>92.0</ele><time>2026-04-18T07:49:32.555Z</time></trkpt><trkpt lat="43.5394467" lon="10.730225"><ele>92.0</ele><time>2026-04-18T07:49:33.555Z</time></trkpt><trkpt lat="43.5394917" lon="10.73014"><ele>90.16666666666667</ele><time>2026-04-18T07:49:34.556Z</time></trkpt><trkpt lat="43.539535" lon="10.7300617"><ele>88.33333333333334</ele><time>2026-04-18T07:49:35.555Z</time></trkpt><trkpt lat="43.5395817" lon="10.72999"><ele>86.5</ele><time>2026-04-18T07:49:36.556Z</time></trkpt><trkpt lat="43.5396383" lon="10.7299233"><ele>84.66666666666667</ele><time>2026-04-18T07:49:37.555Z</time></trkpt><trkpt lat="43.53971" lon="10.7298633"><ele>82.83333333333333</ele><time>2026-04-18T07:49:38.555Z</time></trkpt><trkpt lat="43.5397833" lon="10.729815"><ele>81.0</ele><time>2026-04-18T07:49:39.555Z</time></trkpt><trkpt lat="43.5398567" lon="10.7297733"><ele>80.57142857142857</ele><time>2026-04-18T07:49:40.555Z</time></trkpt><trkpt lat="43.5399367" lon="10.7297333"><ele>80.14285714285714</ele><time>2026-04-18T07:49:41.555Z</time></trkpt><trkpt lat="43.540015" lon="10.7296883"><ele>79.71428571428572</ele><time>2026-04-18T07:49:42.555Z</time></trkpt><trkpt lat="43.5400817" lon="10.72965"><ele>79.28571428571428</ele><time>2026-04-18T07:49:43.555Z</time></trkpt><trkpt lat="43.540145" lon="10.7296067"><ele>78.85714285714285</ele><time>2026-04-18T07:49:44.555Z</time></trkpt><trkpt lat="43.5402067" lon="10.7295667"><ele>78.42857142857143</ele><time>2026-04-18T07:49:45.556Z</time></trkpt><trkpt lat="43.5402683" lon="10.72953"><ele>78.0</ele><time>2026-04-18T07:49:46.555Z</time></trkpt><trkpt lat="43.54033" lon="10.7294983"><ele>78.0</ele><time>2026-04-18T07:49:47.555Z</time></trkpt><trkpt lat="43.5404483" lon="10.7294767"><ele>78.0</ele><time>2026-04-18T07:49:49.556Z</time></trkpt><trkpt lat="43.5405583" lon="10.7294517"><ele>78.0</ele><time>2026-04-18T07:49:51.555Z</time></trkpt><trkpt lat="43.54065" lon="10.7294167"><ele>78.0</ele><time>2026-04-18T07:49:53.555Z</time></trkpt><trkpt lat="43.5407283" lon="10.7293683"><ele>78.0</ele><time>2026-04-18T07:49:55.555Z</time></trkpt><trkpt lat="43.540805" lon="10.7292833"><ele>76.0</ele><time>2026-04-18T07:49:57.555Z</time></trkpt><trkpt lat="43.540875" lon="10.7291433"><ele>74.0</ele><time>2026-04-18T07:49:59.556Z</time></trkpt><trkpt lat="43.5409083" lon="10.729055"><ele>72.0</ele><time>2026-04-18T07:50:00.556Z</time></trkpt><trkpt lat="43.5409433" lon="10.7289567"><ele>70.0</ele><time>2026-04-18T07:50:01.556Z</time></trkpt><trkpt lat="43.5409767" lon="10.7288567"><ele>68.0</ele><time>2026-04-18T07:50:02.555Z</time></trkpt><trkpt lat="43.5410183" lon="10.7287333"><ele>68.0</ele><time>2026-04-18T07:50:03.555Z</time></trkpt><trkpt lat="43.5410633" lon="10.7286033"><ele>68.0</ele><time>2026-04-18T07:50:04.555Z</time></trkpt><trkpt lat="43.541105" lon="10.7284833"><ele>68.0</ele><time>2026-04-18T07:50:05.556Z</time></trkpt><trkpt lat="43.5411467" lon="10.72836"><ele>68.0</ele><time>2026-04-18T07:50:06.555Z</time></trkpt><trkpt lat="43.5411867" lon="10.72824"><ele>68.0</ele><time>2026-04-18T07:50:07.555Z</time></trkpt><trkpt lat="43.5412233" lon="10.728125"><ele>66.5</ele><time>2026-04-18T07:50:08.555Z</time></trkpt><trkpt lat="43.5412567" lon="10.728025"><ele>65.0</ele><time>2026-04-18T07:50:09.555Z</time></trkpt><trkpt lat="43.5412883" lon="10.72792"><ele>63.5</ele><time>2026-04-18T07:50:10.556Z</time></trkpt><trkpt lat="43.5413183" lon="10.7278183"><ele>62.0</ele><time>2026-04-18T07:50:11.555Z</time></trkpt><trkpt lat="43.541335" lon="10.727705"><ele>60.50000000000001</ele><time>2026-04-18T07:50:12.555Z</time></trkpt><trkpt lat="43.54135" lon="10.72758"><ele>59.0</ele><time>2026-04-18T07:50:13.556Z</time></trkpt><trkpt lat="43.541365" lon="10.727455"><ele>58.6</ele><time>2026-04-18T07:50:14.555Z</time></trkpt><trkpt lat="43.5413867" lon="10.7273483"><ele>58.2</ele><time>2026-04-18T07:50:15.555Z</time></trkpt><trkpt lat="43.5414217" lon="10.727245"><ele>57.800000000000004</ele><time>2026-04-18T07:50:16.555Z</time></trkpt><trkpt lat="43.541475" lon="10.7271383"><ele>57.400000000000006</ele><time>2026-04-18T07:50:17.555Z</time></trkpt><trkpt lat="43.54154" lon="10.7270383"><ele>57.0</ele><time>2026-04-18T07:50:18.555Z</time></trkpt><trkpt lat="43.54161" lon="10.7269267"><ele>57.5</ele><time>2026-04-18T07:50:19.556Z</time></trkpt><trkpt lat="43.5416883" lon="10.7268083"><ele>58.0</ele><time>2026-04-18T07:50:20.555Z</time></trkpt><trkpt lat="43.5417633" lon="10.7266983"><ele>58.5</ele><time>2026-04-18T07:50:21.555Z</time></trkpt><trkpt lat="43.5418433" lon="10.726585"><ele>59.0</ele><time>2026-04-18T07:50:22.555Z</time></trkpt><trkpt lat="43.5419217" lon="10.7264583"><ele>59.0</ele><time>2026-04-18T07:50:23.556Z</time></trkpt><trkpt lat="43.54201" lon="10.7263317"><ele>59.0</ele><time>2026-04-18T07:50:24.555Z</time></trkpt><trkpt lat="43.5421017" lon="10.7261883"><ele>59.0</ele><time>2026-04-18T07:50:25.555Z</time></trkpt><trkpt lat="43.5421867" lon="10.7260583"><ele>59.0</ele><time>2026-04-18T07:50:26.555Z</time></trkpt><trkpt lat="43.5422633" lon="10.725935"><ele>60.16666666666667</ele><time>2026-04-18T07:50:27.555Z</time></trkpt><trkpt lat="43.5423367" lon="10.7258317"><ele>61.333333333333336</ele><time>2026-04-18T07:50:28.555Z</time></trkpt><trkpt lat="43.5424067" lon="10.7257333"><ele>62.5</ele><time>2026-04-18T07:50:29.556Z</time></trkpt><trkpt lat="43.542455" lon="10.7256767"><ele>63.66666666666667</ele><time>2026-04-18T07:50:30.555Z</time></trkpt><trkpt lat="43.542535" lon="10.7256267"><ele>64.83333333333333</ele><time>2026-04-18T07:50:32.555Z</time></trkpt><trkpt lat="43.5426067" lon="10.7256283"><ele>66.0</ele><time>2026-04-18T07:50:34.555Z</time></trkpt><trkpt lat="43.5426967" lon="10.7256383"><ele>66.0</ele><time>2026-04-18T07:50:36.555Z</time></trkpt><trkpt lat="43.54279" lon="10.7255883"><ele>66.0</ele><time>2026-04-18T07:50:38.555Z</time></trkpt><trkpt lat="43.5428517" lon="10.7254817"><ele>66.0</ele><time>2026-04-18T07:50:40.555Z</time></trkpt><trkpt lat="43.5428933" lon="10.7253267"><ele>66.0</ele><time>2026-04-18T07:50:42.555Z</time></trkpt><trkpt lat="43.54292" lon="10.7251583"><ele>66.0</ele><time>2026-04-18T07:50:44.555Z</time></trkpt><trkpt lat="43.54293" lon="10.7250717"><ele>70.83333333333333</ele><time>2026-04-18T07:50:45.555Z</time></trkpt><trkpt lat="43.5429433" lon="10.7249733"><ele>75.66666666666667</ele><time>2026-04-18T07:50:46.555Z</time></trkpt><trkpt lat="43.5429567" lon="10.724875"><ele>80.5</ele><time>2026-04-18T07:50:47.555Z</time></trkpt><trkpt lat="43.5429733" lon="10.7247667"><ele>85.33333333333334</ele><time>2026-04-18T07:50:48.555Z</time></trkpt><trkpt lat="43.543" lon="10.7246733"><ele>90.16666666666667</ele><time>2026-04-18T07:50:49.555Z</time></trkpt><trkpt lat="43.5430317" lon="10.7245917"><ele>95.0</ele><time>2026-04-18T07:50:50.556Z</time></trkpt><trkpt lat="43.5431333" lon="10.7245017"><ele>95.0</ele><time>2026-04-18T07:50:52.556Z</time></trkpt><trkpt lat="43.5431983" lon="10.7244683"><ele>95.0</ele><time>2026-04-18T07:50:53.555Z</time></trkpt><trkpt lat="43.5432617" lon="10.72443"><ele>95.0</ele><time>2026-04-18T07:50:54.555Z</time></trkpt><trkpt lat="43.543325" lon="10.7243833"><ele>95.0</ele><time>2026-04-18T07:50:55.555Z</time></trkpt><trkpt lat="43.543385" lon="10.724345"><ele>95.0</ele><time>2026-04-18T07:50:56.555Z</time></trkpt><trkpt lat="43.5434333" lon="10.7242833"><ele>95.0</ele><time>2026-04-18T07:50:57.555Z</time></trkpt><trkpt lat="43.5434933" lon="10.72415"><ele>95.5</ele><time>2026-04-18T07:50:59.555Z</time></trkpt><trkpt lat="43.543535" lon="10.7239967"><ele>96.0</ele><time>2026-04-18T07:51:01.553Z</time></trkpt><trkpt lat="43.5435667" lon="10.7239167"><ele>96.5</ele><time>2026-04-18T07:51:02.555Z</time></trkpt><trkpt lat="43.543615" lon="10.7238383"><ele>97.0</ele><time>2026-04-18T07:51:03.555Z</time></trkpt><trkpt lat="43.5436733" lon="10.723755"><ele>97.49999999999999</ele><time>2026-04-18T07:51:04.556Z</time></trkpt><trkpt lat="43.5437383" lon="10.7236667"><ele>98.0</ele><time>2026-04-18T07:51:05.555Z</time></trkpt><trkpt lat="43.5438033" lon="10.723585"><ele>101.80000000000001</ele><time>2026-04-18T07:51:06.555Z</time></trkpt><trkpt lat="43.5438667" lon="10.7235067"><ele>105.6</ele><time>2026-04-18T07:51:07.555Z</time></trkpt><trkpt lat="43.5439183" lon="10.7234133"><ele>109.39999999999999</ele><time>2026-04-18T07:51:08.555Z</time></trkpt><trkpt lat="43.5439683" lon="10.7233317"><ele>113.19999999999999</ele><time>2026-04-18T07:51:09.556Z</time></trkpt><trkpt lat="43.5440217" lon="10.723215"><ele>117.0</ele><time>2026-04-18T07:51:11.555Z</time></trkpt><trkpt lat="43.54405" lon="10.7230583"><ele>117.0</ele><time>2026-04-18T07:51:13.555Z</time></trkpt><trkpt lat="43.5440717" lon="10.7229633"><ele>117.0</ele><time>2026-04-18T07:51:14.555Z</time></trkpt><trkpt lat="43.5440933" lon="10.7228633"><ele>117.0</ele><time>2026-04-18T07:51:15.555Z</time></trkpt><trkpt lat="43.5441333" lon="10.7227617"><ele>117.0</ele><time>2026-04-18T07:51:16.555Z</time></trkpt><trkpt lat="43.5441867" lon="10.7226383"><ele>117.0</ele><time>2026-04-18T07:51:17.555Z</time></trkpt><trkpt lat="43.5442433" lon="10.7225033"><ele>117.0</ele><time>2026-04-18T07:51:18.555Z</time></trkpt><trkpt lat="43.544305" lon="10.7223633"><ele>117.6</ele><time>2026-04-18T07:51:19.555Z</time></trkpt><trkpt lat="43.5443633" lon="10.7222367"><ele>118.19999999999999</ele><time>2026-04-18T07:51:20.555Z</time></trkpt><trkpt lat="43.5444283" lon="10.7221317"><ele>118.8</ele><time>2026-04-18T07:51:21.555Z</time></trkpt><trkpt lat="43.544485" lon="10.7220433"><ele>119.4</ele><time>2026-04-18T07:51:22.555Z</time></trkpt><trkpt lat="43.544535" lon="10.7219517"><ele>120.0</ele><time>2026-04-18T07:51:23.555Z</time></trkpt><trkpt lat="43.5445983" lon="10.721875"><ele>120.0</ele><time>2026-04-18T07:51:24.555Z</time></trkpt><trkpt lat="43.5446567" lon="10.7218017"><ele>120.0</ele><time>2026-04-18T07:51:25.556Z</time></trkpt><trkpt lat="43.5447183" lon="10.7217283"><ele>120.0</ele><time>2026-04-18T07:51:26.555Z</time></trkpt><trkpt lat="43.54479" lon="10.7216583"><ele>120.0</ele><time>2026-04-18T07:51:27.555Z</time></trkpt><trkpt lat="43.544885" lon="10.72161"><ele>120.0</ele><time>2026-04-18T07:51:28.556Z</time></trkpt><trkpt lat="43.5450067" lon="10.72156"><ele>120.0</ele><time>2026-04-18T07:51:29.555Z</time></trkpt><trkpt lat="43.54514" lon="10.721505"><ele>120.0</ele><time>2026-04-18T07:51:30.555Z</time></trkpt><trkpt lat="43.54527" lon="10.7214533"><ele>120.0</ele><time>2026-04-18T07:51:31.556Z</time></trkpt><trkpt lat="43.5453917" lon="10.7213967"><ele>120.0</ele><time>2026-04-18T07:51:32.555Z</time></trkpt><trkpt lat="43.5454983" lon="10.721335"><ele>119.5</ele><time>2026-04-18T07:51:33.555Z</time></trkpt><trkpt lat="43.5455917" lon="10.7212817"><ele>119.0</ele><time>2026-04-18T07:51:34.556Z</time></trkpt><trkpt lat="43.54567" lon="10.7212483"><ele>118.5</ele><time>2026-04-18T07:51:35.555Z</time></trkpt><trkpt lat="43.54574" lon="10.7212117"><ele>118.0</ele><time>2026-04-18T07:51:36.556Z</time></trkpt><trkpt lat="43.5457983" lon="10.7211567"><ele>117.5</ele><time>2026-04-18T07:51:38.555Z</time></trkpt><trkpt lat="43.5457583" lon="10.721015"><ele>117.0</ele><time>2026-04-18T07:51:41.555Z</time></trkpt><trkpt lat="43.5457033" lon="10.720945"><ele>118.0</ele><time>2026-04-18T07:51:42.555Z</time></trkpt><trkpt lat="43.5456083" lon="10.7208567"><ele>119.0</ele><time>2026-04-18T07:51:43.555Z</time></trkpt><trkpt lat="43.5454867" lon="10.7207817"><ele>120.0</ele><time>2026-04-18T07:51:44.555Z</time></trkpt><trkpt lat="43.5453617" lon="10.720745"><ele>121.0</ele><time>2026-04-18T07:51:45.555Z</time></trkpt><trkpt lat="43.5452533" lon="10.7207217"><ele>121.0</ele><time>2026-04-18T07:51:46.555Z</time></trkpt><trkpt lat="43.54516" lon="10.72069"><ele>121.0</ele><time>2026-04-18T07:51:47.555Z</time></trkpt><trkpt lat="43.545085" lon="10.72065"><ele>121.0</ele><time>2026-04-18T07:51:48.555Z</time></trkpt><trkpt lat="43.5450133" lon="10.720545"><ele>121.0</ele><time>2026-04-18T07:51:50.555Z</time></trkpt><trkpt lat="43.54503" lon="10.7204017"><ele>121.0</ele><time>2026-04-18T07:51:52.554Z</time></trkpt><trkpt lat="43.5450633" lon="10.7203183"><ele>121.00000000000001</ele><time>2026-04-18T07:51:53.554Z</time></trkpt><trkpt lat="43.5451117" lon="10.7202333"><ele>121.0</ele><time>2026-04-18T07:51:54.554Z</time></trkpt><trkpt lat="43.54517" lon="10.7201383"><ele>121.0</ele><time>2026-04-18T07:51:55.554Z</time></trkpt><trkpt lat="43.545235" lon="10.7200583"><ele>121.0</ele><time>2026-04-18T07:51:56.554Z</time></trkpt><trkpt lat="43.5452917" lon="10.719985"><ele>121.00000000000001</ele><time>2026-04-18T07:51:57.554Z</time></trkpt><trkpt lat="43.54535" lon="10.719915"><ele>121.0</ele><time>2026-04-18T07:51:58.554Z</time></trkpt><trkpt lat="43.545415" lon="10.71984"><ele>120.66666666666667</ele><time>2026-04-18T07:51:59.554Z</time></trkpt><trkpt lat="43.5454983" lon="10.7197883"><ele>120.33333333333334</ele><time>2026-04-18T07:52:00.554Z</time></trkpt><trkpt lat="43.5455833" lon="10.71974"><ele>120.0</ele><time>2026-04-18T07:52:01.555Z</time></trkpt><trkpt lat="43.5456683" lon="10.7197017"><ele>119.66666666666666</ele><time>2026-04-18T07:52:02.555Z</time></trkpt><trkpt lat="43.54575" lon="10.71967"><ele>119.33333333333333</ele><time>2026-04-18T07:52:03.554Z</time></trkpt><trkpt lat="43.5458217" lon="10.71963"><ele>119.0</ele><time>2026-04-18T07:52:04.554Z</time></trkpt><trkpt lat="43.545895" lon="10.7195983"><ele>118.99999999999999</ele><time>2026-04-18T07:52:05.555Z</time></trkpt><trkpt lat="43.5459683" lon="10.7195717"><ele>119.0</ele><time>2026-04-18T07:52:06.554Z</time></trkpt><trkpt lat="43.54604" lon="10.7195433"><ele>119.0</ele><time>2026-04-18T07:52:07.554Z</time></trkpt><trkpt lat="43.546105" lon="10.7195067"><ele>119.0</ele><time>2026-04-18T07:52:08.554Z</time></trkpt><trkpt lat="43.54617" lon="10.719475"><ele>118.99999999999999</ele><time>2026-04-18T07:52:09.554Z</time></trkpt><trkpt lat="43.5462333" lon="10.7194567"><ele>119.0</ele><time>2026-04-18T07:52:10.554Z</time></trkpt><trkpt lat="43.546355" lon="10.7194133"><ele>117.49999999999999</ele><time>2026-04-18T07:52:12.554Z</time></trkpt><trkpt lat="43.5464333" lon="10.7193833"><ele>116.0</ele><time>2026-04-18T07:52:13.554Z</time></trkpt><trkpt lat="43.5465217" lon="10.719365"><ele>114.5</ele><time>2026-04-18T07:52:14.554Z</time></trkpt><trkpt lat="43.5466083" lon="10.719355"><ele>113.0</ele><time>2026-04-18T07:52:15.554Z</time></trkpt><trkpt lat="43.5466967" lon="10.7193667"><ele>111.49999999999999</ele><time>2026-04-18T07:52:16.554Z</time></trkpt><trkpt lat="43.5467767" lon="10.7193767"><ele>110.0</ele><time>2026-04-18T07:52:17.555Z</time></trkpt><trkpt lat="43.54685" lon="10.7193767"><ele>109.99999999999999</ele><time>2026-04-18T07:52:18.554Z</time></trkpt><trkpt lat="43.54693" lon="10.7193717"><ele>110.0</ele><time>2026-04-18T07:52:19.554Z</time></trkpt><trkpt lat="43.54701" lon="10.7193633"><ele>110.0</ele><time>2026-04-18T07:52:20.555Z</time></trkpt><trkpt lat="43.5471017" lon="10.7193633"><ele>110.0</ele><time>2026-04-18T07:52:21.554Z</time></trkpt><trkpt lat="43.5471867" lon="10.7193667"><ele>109.99999999999999</ele><time>2026-04-18T07:52:22.554Z</time></trkpt><trkpt lat="43.54727" lon="10.7193667"><ele>110.0</ele><time>2026-04-18T07:52:23.554Z</time></trkpt><trkpt lat="43.5473417" lon="10.7193667"><ele>109.66666666666666</ele><time>2026-04-18T07:52:24.555Z</time></trkpt><trkpt lat="43.5474067" lon="10.7193567"><ele>109.33333333333333</ele><time>2026-04-18T07:52:25.554Z</time></trkpt><trkpt lat="43.5474767" lon="10.7193517"><ele>109.0</ele><time>2026-04-18T07:52:26.554Z</time></trkpt><trkpt lat="43.54755" lon="10.7193417"><ele>108.66666666666666</ele><time>2026-04-18T07:52:27.554Z</time></trkpt><trkpt lat="43.5476317" lon="10.7193317"><ele>108.33333333333333</ele><time>2026-04-18T07:52:28.554Z</time></trkpt><trkpt lat="43.5477167" lon="10.71933"><ele>108.0</ele><time>2026-04-18T07:52:29.554Z</time></trkpt><trkpt lat="43.547805" lon="10.7193233"><ele>109.2</ele><time>2026-04-18T07:52:30.553Z</time></trkpt><trkpt lat="43.5479" lon="10.7193183"><ele>110.4</ele><time>2026-04-18T07:52:31.554Z</time></trkpt><trkpt lat="43.5479933" lon="10.719315"><ele>111.60000000000001</ele><time>2026-04-18T07:52:32.554Z</time></trkpt><trkpt lat="43.5480883" lon="10.719315"><ele>112.80000000000001</ele><time>2026-04-18T07:52:33.554Z</time></trkpt><trkpt lat="43.5481833" lon="10.719315"><ele>114.0</ele><time>2026-04-18T07:52:34.555Z</time></trkpt><trkpt lat="43.548275" lon="10.7193183"><ele>114.0</ele><time>2026-04-18T07:52:35.554Z</time></trkpt><trkpt lat="43.5483717" lon="10.7193117"><ele>114.0</ele><time>2026-04-18T07:52:36.555Z</time></trkpt><trkpt lat="43.54847" lon="10.7193"><ele>114.0</ele><time>2026-04-18T07:52:37.555Z</time></trkpt><trkpt lat="43.5485767" lon="10.7192883"><ele>114.0</ele><time>2026-04-18T07:52:38.554Z</time></trkpt><trkpt lat="43.54869" lon="10.7193"><ele>114.0</ele><time>2026-04-18T07:52:39.554Z</time></trkpt><trkpt lat="43.5488" lon="10.7193133"><ele>114.4</ele><time>2026-04-18T07:52:40.555Z</time></trkpt><trkpt lat="43.548915" lon="10.719335"><ele>114.80000000000001</ele><time>2026-04-18T07:52:41.554Z</time></trkpt><trkpt lat="43.54902" lon="10.7193733"><ele>115.19999999999999</ele><time>2026-04-18T07:52:42.554Z</time></trkpt><trkpt lat="43.5491117" lon="10.71942"><ele>115.6</ele><time>2026-04-18T07:52:43.554Z</time></trkpt><trkpt lat="43.549195" lon="10.7194633"><ele>116.0</ele><time>2026-04-18T07:52:44.555Z</time></trkpt><trkpt lat="43.5492667" lon="10.719515"><ele>117.16666666666666</ele><time>2026-04-18T07:52:45.554Z</time></trkpt><trkpt lat="43.5493333" lon="10.7195867"><ele>118.33333333333333</ele><time>2026-04-18T07:52:46.554Z</time></trkpt><trkpt lat="43.5493867" lon="10.7196733"><ele>119.5</ele><time>2026-04-18T07:52:47.555Z</time></trkpt><trkpt lat="43.54944" lon="10.71975"><ele>120.66666666666666</ele><time>2026-04-18T07:52:48.554Z</time></trkpt><trkpt lat="43.5494817" lon="10.7198167"><ele>121.83333333333333</ele><time>2026-04-18T07:52:49.554Z</time></trkpt><trkpt lat="43.5495233" lon="10.71989"><ele>123.0</ele><time>2026-04-18T07:52:50.554Z</time></trkpt><trkpt lat="43.5495617" lon="10.7199833"><ele>123.0</ele><time>2026-04-18T07:52:51.554Z</time></trkpt><trkpt lat="43.5496083" lon="10.720065"><ele>123.0</ele><time>2026-04-18T07:52:52.554Z</time></trkpt><trkpt lat="43.54965" lon="10.720165"><ele>123.0</ele><time>2026-04-18T07:52:53.554Z</time></trkpt><trkpt lat="43.54968" lon="10.7202717"><ele>123.0</ele><time>2026-04-18T07:52:54.554Z</time></trkpt><trkpt lat="43.54969" lon="10.7203917"><ele>123.0</ele><time>2026-04-18T07:52:55.555Z</time></trkpt><trkpt lat="43.5496917" lon="10.7205367"><ele>123.0</ele><time>2026-04-18T07:52:56.554Z</time></trkpt><trkpt lat="43.5496883" lon="10.7206817"><ele>123.83333333333333</ele><time>2026-04-18T07:52:57.555Z</time></trkpt><trkpt lat="43.5496817" lon="10.7208233"><ele>124.66666666666666</ele><time>2026-04-18T07:52:58.554Z</time></trkpt><trkpt lat="43.5496733" lon="10.720955"><ele>125.5</ele><time>2026-04-18T07:52:59.555Z</time></trkpt><trkpt lat="43.5496683" lon="10.72107"><ele>126.33333333333333</ele><time>2026-04-18T07:53:00.555Z</time></trkpt><trkpt lat="43.54966" lon="10.7211583"><ele>127.16666666666666</ele><time>2026-04-18T07:53:01.554Z</time></trkpt><trkpt lat="43.5496417" lon="10.7212867"><ele>128.0</ele><time>2026-04-18T07:53:03.554Z</time></trkpt><trkpt lat="43.5496083" lon="10.72141"><ele>129.20000000000002</ele><time>2026-04-18T07:53:05.554Z</time></trkpt><trkpt lat="43.5495933" lon="10.7215917"><ele>130.4</ele><time>2026-04-18T07:53:07.554Z</time></trkpt><trkpt lat="43.5496017" lon="10.721695"><ele>131.60000000000002</ele><time>2026-04-18T07:53:08.554Z</time></trkpt><trkpt lat="43.549625" lon="10.721795"><ele>132.8</ele><time>2026-04-18T07:53:09.554Z</time></trkpt><trkpt lat="43.54967" lon="10.7219183"><ele>134.0</ele><time>2026-04-18T07:53:10.554Z</time></trkpt><trkpt lat="43.54972" lon="10.7220433"><ele>134.33333333333331</ele><time>2026-04-18T07:53:11.554Z</time></trkpt><trkpt lat="43.5497683" lon="10.72216"><ele>134.66666666666666</ele><time>2026-04-18T07:53:12.554Z</time></trkpt><trkpt lat="43.5498133" lon="10.7222517"><ele>135.0</ele><time>2026-04-18T07:53:13.554Z</time></trkpt><trkpt lat="43.54985" lon="10.72235"><ele>135.33333333333334</ele><time>2026-04-18T07:53:14.554Z</time></trkpt><trkpt lat="43.54987" lon="10.7224467"><ele>135.66666666666669</ele><time>2026-04-18T07:53:15.554Z</time></trkpt><trkpt lat="43.549875" lon="10.7225667"><ele>136.0</ele><time>2026-04-18T07:53:16.554Z</time></trkpt><trkpt lat="43.5498717" lon="10.7226867"><ele>135.4</ele><time>2026-04-18T07:53:17.554Z</time></trkpt><trkpt lat="43.5498667" lon="10.72281"><ele>134.8</ele><time>2026-04-18T07:53:18.554Z</time></trkpt><trkpt lat="43.5498717" lon="10.7229383"><ele>134.20000000000002</ele><time>2026-04-18T07:53:19.554Z</time></trkpt><trkpt lat="43.5499067" lon="10.7230733"><ele>133.6</ele><time>2026-04-18T07:53:20.555Z</time></trkpt><trkpt lat="43.5499517" lon="10.72322"><ele>133.0</ele><time>2026-04-18T07:53:21.554Z</time></trkpt><trkpt lat="43.5499933" lon="10.7233717"><ele>133.0</ele><time>2026-04-18T07:53:22.554Z</time></trkpt><trkpt lat="43.5500233" lon="10.7235167"><ele>133.0</ele><time>2026-04-18T07:53:23.554Z</time></trkpt><trkpt lat="43.55005" lon="10.7236483"><ele>133.0</ele><time>2026-04-18T07:53:24.554Z</time></trkpt><trkpt lat="43.5500883" lon="10.723785"><ele>133.0</ele><time>2026-04-18T07:53:25.554Z</time></trkpt><trkpt lat="43.55014" lon="10.7239167"><ele>133.0</ele><time>2026-04-18T07:53:26.555Z</time></trkpt><trkpt lat="43.550205" lon="10.724045"><ele>131.6</ele><time>2026-04-18T07:53:27.555Z</time></trkpt><trkpt lat="43.5502783" lon="10.72415"><ele>130.20000000000002</ele><time>2026-04-18T07:53:28.554Z</time></trkpt><trkpt lat="43.5503533" lon="10.7242283"><ele>128.8</ele><time>2026-04-18T07:53:29.554Z</time></trkpt><trkpt lat="43.5504533" lon="10.7242683"><ele>127.4</ele><time>2026-04-18T07:53:30.554Z</time></trkpt><trkpt lat="43.5505667" lon="10.7242933"><ele>126.0</ele><time>2026-04-18T07:53:31.554Z</time></trkpt><trkpt lat="43.5506833" lon="10.724305"><ele>126.0</ele><time>2026-04-18T07:53:32.554Z</time></trkpt><trkpt lat="43.5508133" lon="10.724315"><ele>126.0</ele><time>2026-04-18T07:53:33.554Z</time></trkpt><trkpt lat="43.55095" lon="10.7243383"><ele>126.0</ele><time>2026-04-18T07:53:34.554Z</time></trkpt><trkpt lat="43.5510867" lon="10.7243867"><ele>126.0</ele><time>2026-04-18T07:53:35.554Z</time></trkpt><trkpt lat="43.5512317" lon="10.7244367"><ele>119.75</ele><time>2026-04-18T07:53:36.554Z</time></trkpt><trkpt lat="43.5513817" lon="10.72449"><ele>113.5</ele><time>2026-04-18T07:53:37.554Z</time></trkpt><trkpt lat="43.551525" lon="10.7245367"><ele>107.25</ele><time>2026-04-18T07:53:38.554Z</time></trkpt><trkpt lat="43.5516633" lon="10.724585"><ele>101.0</ele><time>2026-04-18T07:53:39.555Z</time></trkpt><trkpt lat="43.5518017" lon="10.7246267"><ele>101.0</ele><time>2026-04-18T07:53:40.554Z</time></trkpt><trkpt lat="43.551935" lon="10.7246617"><ele>101.0</ele><time>2026-04-18T07:53:41.554Z</time></trkpt><trkpt lat="43.55207" lon="10.7246533"><ele>101.0</ele><time>2026-04-18T07:53:42.554Z</time></trkpt><trkpt lat="43.5521983" lon="10.7246283"><ele>101.0</ele><time>2026-04-18T07:53:43.554Z</time></trkpt><trkpt lat="43.55233" lon="10.724595"><ele>99.5</ele><time>2026-04-18T07:53:44.554Z</time></trkpt><trkpt lat="43.5524683" lon="10.72459"><ele>98.0</ele><time>2026-04-18T07:53:45.554Z</time></trkpt><trkpt lat="43.5526183" lon="10.7246033"><ele>96.5</ele><time>2026-04-18T07:53:46.554Z</time></trkpt><trkpt lat="43.5527717" lon="10.7246233"><ele>95.0</ele><time>2026-04-18T07:53:47.554Z</time></trkpt><trkpt lat="43.5529133" lon="10.7246533"><ele>92.0</ele><time>2026-04-18T07:53:48.554Z</time></trkpt><trkpt lat="43.5530567" lon="10.72468"><ele>89.0</ele><time>2026-04-18T07:53:49.554Z</time></trkpt><trkpt lat="43.55321" lon="10.7247067"><ele>86.0</ele><time>2026-04-18T07:53:50.554Z</time></trkpt><trkpt lat="43.55336" lon="10.7247383"><ele>86.0</ele><time>2026-04-18T07:53:51.554Z</time></trkpt><trkpt lat="43.5535117" lon="10.7247733"><ele>86.0</ele><time>2026-04-18T07:53:52.554Z</time></trkpt><trkpt lat="43.5536633" lon="10.7248117"><ele>86.0</ele><time>2026-04-18T07:53:53.554Z</time></trkpt><trkpt lat="43.5538283" lon="10.7248417"><ele>84.33333333333334</ele><time>2026-04-18T07:53:54.555Z</time></trkpt><trkpt lat="43.5540083" lon="10.7248683"><ele>82.66666666666667</ele><time>2026-04-18T07:53:55.554Z</time></trkpt><trkpt lat="43.5541883" lon="10.7248967"><ele>81.0</ele><time>2026-04-18T07:53:56.554Z</time></trkpt><trkpt lat="43.554375" lon="10.7249133"><ele>78.0</ele><time>2026-04-18T07:53:57.554Z</time></trkpt><trkpt lat="43.5545667" lon="10.72491"><ele>75.0</ele><time>2026-04-18T07:53:58.554Z</time></trkpt><trkpt lat="43.5547583" lon="10.7249"><ele>72.0</ele><time>2026-04-18T07:53:59.554Z</time></trkpt><trkpt lat="43.5549417" lon="10.7248817"><ele>72.0</ele><time>2026-04-18T07:54:00.554Z</time></trkpt><trkpt lat="43.55512" lon="10.7248767"><ele>72.0</ele><time>2026-04-18T07:54:01.554Z</time></trkpt><trkpt lat="43.555295" lon="10.724875"><ele>72.0</ele><time>2026-04-18T07:54:02.555Z</time></trkpt><trkpt lat="43.5554633" lon="10.7248833"><ele>70.33333333333333</ele><time>2026-04-18T07:54:03.554Z</time></trkpt><trkpt lat="43.555635" lon="10.7248817"><ele>68.66666666666666</ele><time>2026-04-18T07:54:04.554Z</time></trkpt><trkpt lat="43.5558133" lon="10.724895"><ele>67.0</ele><time>2026-04-18T07:54:05.555Z</time></trkpt><trkpt lat="43.5559967" lon="10.724935"><ele>67.0</ele><time>2026-04-18T07:54:06.554Z</time></trkpt><trkpt lat="43.5561683" lon="10.72499"><ele>67.0</ele><time>2026-04-18T07:54:07.554Z</time></trkpt><trkpt lat="43.5563383" lon="10.72505"><ele>67.0</ele><time>2026-04-18T07:54:08.554Z</time></trkpt><trkpt lat="43.556495" lon="10.7251167"><ele>66.33333333333333</ele><time>2026-04-18T07:54:09.555Z</time></trkpt><trkpt lat="43.5566467" lon="10.72518"><ele>65.66666666666667</ele><time>2026-04-18T07:54:10.554Z</time></trkpt><trkpt lat="43.5568017" lon="10.725245"><ele>65.0</ele><time>2026-04-18T07:54:11.554Z</time></trkpt><trkpt lat="43.5569467" lon="10.725305"><ele>60.0</ele><time>2026-04-18T07:54:12.554Z</time></trkpt><trkpt lat="43.557095" lon="10.72538"><ele>55.0</ele><time>2026-04-18T07:54:13.555Z</time></trkpt><trkpt lat="43.5572483" lon="10.7254917"><ele>50.0</ele><time>2026-04-18T07:54:14.554Z</time></trkpt><trkpt lat="43.5573883" lon="10.7256367"><ele>50.0</ele><time>2026-04-18T07:54:15.554Z</time></trkpt><trkpt lat="43.5575167" lon="10.7258167"><ele>50.0</ele><time>2026-04-18T07:54:16.554Z</time></trkpt><trkpt lat="43.5576467" lon="10.7260033"><ele>50.0</ele><time>2026-04-18T07:54:17.555Z</time></trkpt><trkpt lat="43.55777" lon="10.726205"><ele>50.66666666666667</ele><time>2026-04-18T07:54:18.555Z</time></trkpt><trkpt lat="43.5578983" lon="10.726405"><ele>51.33333333333333</ele><time>2026-04-18T07:54:19.554Z</time></trkpt><trkpt lat="43.55802" lon="10.726605"><ele>52.0</ele><time>2026-04-18T07:54:20.554Z</time></trkpt><trkpt lat="43.5581417" lon="10.7268117"><ele>50.33333333333333</ele><time>2026-04-18T07:54:21.554Z</time></trkpt><trkpt lat="43.55827" lon="10.7270183"><ele>48.666666666666664</ele><time>2026-04-18T07:54:22.554Z</time></trkpt><trkpt lat="43.5584083" lon="10.72723"><ele>47.0</ele><time>2026-04-18T07:54:23.554Z</time></trkpt><trkpt lat="43.5585417" lon="10.7274467"><ele>47.0</ele><time>2026-04-18T07:54:24.554Z</time></trkpt><trkpt lat="43.5586767" lon="10.7276567"><ele>47.0</ele><time>2026-04-18T07:54:25.554Z</time></trkpt><trkpt lat="43.558815" lon="10.7278767"><ele>47.0</ele><time>2026-04-18T07:54:26.555Z</time></trkpt><trkpt lat="43.558945" lon="10.72808"><ele>47.0</ele><time>2026-04-18T07:54:27.554Z</time></trkpt><trkpt lat="43.5590617" lon="10.7282717"><ele>47.0</ele><time>2026-04-18T07:54:28.554Z</time></trkpt><trkpt lat="43.55918" lon="10.7284683"><ele>47.0</ele><time>2026-04-18T07:54:29.554Z</time></trkpt><trkpt lat="43.5592933" lon="10.7286483"><ele>47.666666666666664</ele><time>2026-04-18T07:54:30.554Z</time></trkpt><trkpt lat="43.5594067" lon="10.7288283"><ele>48.33333333333333</ele><time>2026-04-18T07:54:31.554Z</time></trkpt><trkpt lat="43.559515" lon="10.729015"><ele>49.0</ele><time>2026-04-18T07:54:32.554Z</time></trkpt><trkpt lat="43.5596283" lon="10.7291933"><ele>47.666666666666664</ele><time>2026-04-18T07:54:33.554Z</time></trkpt><trkpt lat="43.559735" lon="10.729365"><ele>46.33333333333333</ele><time>2026-04-18T07:54:34.554Z</time></trkpt><trkpt lat="43.5598417" lon="10.7295433"><ele>45.0</ele><time>2026-04-18T07:54:35.554Z</time></trkpt><trkpt lat="43.5599533" lon="10.729715"><ele>45.0</ele><time>2026-04-18T07:54:36.554Z</time></trkpt><trkpt lat="43.5600667" lon="10.7298933"><ele>45.0</ele><time>2026-04-18T07:54:37.554Z</time></trkpt><trkpt lat="43.5601783" lon="10.7300717"><ele>45.0</ele><time>2026-04-18T07:54:38.554Z</time></trkpt><trkpt lat="43.5603017" lon="10.7302517"><ele>45.0</ele><time>2026-04-18T07:54:39.555Z</time></trkpt><trkpt lat="43.5604283" lon="10.7304483"><ele>45.0</ele><time>2026-04-18T07:54:40.554Z</time></trkpt><trkpt lat="43.5605533" lon="10.7306433"><ele>45.0</ele><time>2026-04-18T07:54:41.554Z</time></trkpt><trkpt lat="43.5606817" lon="10.7308417"><ele>45.0</ele><time>2026-04-18T07:54:42.555Z</time></trkpt><trkpt lat="43.5608133" lon="10.7310533"><ele>45.0</ele><time>2026-04-18T07:54:43.555Z</time></trkpt><trkpt lat="43.5609467" lon="10.7312733"><ele>45.0</ele><time>2026-04-18T07:54:44.554Z</time></trkpt><trkpt lat="43.56108" lon="10.731495"><ele>45.0</ele><time>2026-04-18T07:54:45.554Z</time></trkpt><trkpt lat="43.5612267" lon="10.7317233"><ele>45.0</ele><time>2026-04-18T07:54:46.554Z</time></trkpt><trkpt lat="43.5613717" lon="10.73195"><ele>45.0</ele><time>2026-04-18T07:54:47.555Z</time></trkpt><trkpt lat="43.5615233" lon="10.7321917"><ele>45.0</ele><time>2026-04-18T07:54:48.554Z</time></trkpt><trkpt lat="43.5616783" lon="10.7324317"><ele>45.0</ele><time>2026-04-18T07:54:49.554Z</time></trkpt><trkpt lat="43.5618267" lon="10.7326667"><ele>45.333333333333336</ele><time>2026-04-18T07:54:50.554Z</time></trkpt><trkpt lat="43.5619717" lon="10.7328917"><ele>45.66666666666667</ele><time>2026-04-18T07:54:51.554Z</time></trkpt><trkpt lat="43.5621" lon="10.7331133"><ele>46.0</ele><time>2026-04-18T07:54:52.554Z</time></trkpt><trkpt lat="43.5622383" lon="10.7333233"><ele>46.333333333333336</ele><time>2026-04-18T07:54:53.554Z</time></trkpt><trkpt lat="43.562365" lon="10.7335283"><ele>46.666666666666664</ele><time>2026-04-18T07:54:54.554Z</time></trkpt><trkpt lat="43.5624967" lon="10.733745"><ele>47.0</ele><time>2026-04-18T07:54:55.554Z</time></trkpt><trkpt lat="43.5626333" lon="10.733955"><ele>47.0</ele><time>2026-04-18T07:54:56.554Z</time></trkpt><trkpt lat="43.5627717" lon="10.7341733"><ele>47.0</ele><time>2026-04-18T07:54:57.554Z</time></trkpt><trkpt lat="43.562905" lon="10.7343983"><ele>47.0</ele><time>2026-04-18T07:54:58.554Z</time></trkpt><trkpt lat="43.563035" lon="10.7346283"><ele>47.0</ele><time>2026-04-18T07:54:59.554Z</time></trkpt><trkpt lat="43.5631633" lon="10.7348883"><ele>47.0</ele><time>2026-04-18T07:55:00.554Z</time></trkpt><trkpt lat="43.56327" lon="10.73515"><ele>47.0</ele><time>2026-04-18T07:55:01.555Z</time></trkpt><trkpt lat="43.56338" lon="10.7354233"><ele>47.0</ele><time>2026-04-18T07:55:02.554Z</time></trkpt><trkpt lat="43.5634883" lon="10.7356817"><ele>47.0</ele><time>2026-04-18T07:55:03.554Z</time></trkpt><trkpt lat="43.563595" lon="10.735935"><ele>47.0</ele><time>2026-04-18T07:55:04.554Z</time></trkpt><trkpt lat="43.56371" lon="10.7361917"><ele>47.33333333333333</ele><time>2026-04-18T07:55:05.554Z</time></trkpt><trkpt lat="43.5638217" lon="10.7364383"><ele>47.666666666666664</ele><time>2026-04-18T07:55:06.555Z</time></trkpt><trkpt lat="43.5639167" lon="10.7366817"><ele>48.0</ele><time>2026-04-18T07:55:07.554Z</time></trkpt><trkpt lat="43.5640117" lon="10.7369167"><ele>48.0</ele><time>2026-04-18T07:55:08.555Z</time></trkpt><trkpt lat="43.5641067" lon="10.7371417"><ele>48.0</ele><time>2026-04-18T07:55:09.554Z</time></trkpt><trkpt lat="43.5641983" lon="10.7373767"><ele>48.0</ele><time>2026-04-18T07:55:10.554Z</time></trkpt><trkpt lat="43.5643017" lon="10.7375967"><ele>48.0</ele><time>2026-04-18T07:55:11.554Z</time></trkpt><trkpt lat="43.5643967" lon="10.7378067"><ele>48.0</ele><time>2026-04-18T07:55:12.554Z</time></trkpt><trkpt lat="43.56449" lon="10.7380167"><ele>48.0</ele><time>2026-04-18T07:55:13.554Z</time></trkpt><trkpt lat="43.564575" lon="10.7382317"><ele>48.33333333333333</ele><time>2026-04-18T07:55:14.554Z</time></trkpt><trkpt lat="43.56466" lon="10.738435"><ele>48.666666666666664</ele><time>2026-04-18T07:55:15.554Z</time></trkpt><trkpt lat="43.5647433" lon="10.73861"><ele>49.0</ele><time>2026-04-18T07:55:16.554Z</time></trkpt><trkpt lat="43.564825" lon="10.7387617"><ele>49.400000000000006</ele><time>2026-04-18T07:55:17.554Z</time></trkpt><trkpt lat="43.5649033" lon="10.7388783"><ele>49.8</ele><time>2026-04-18T07:55:18.553Z</time></trkpt><trkpt lat="43.5649717" lon="10.7389833"><ele>50.2</ele><time>2026-04-18T07:55:19.553Z</time></trkpt><trkpt lat="43.5650233" lon="10.739075"><ele>50.599999999999994</ele><time>2026-04-18T07:55:20.553Z</time></trkpt><trkpt lat="43.5650533" lon="10.7391733"><ele>51.0</ele><time>2026-04-18T07:55:21.553Z</time></trkpt><trkpt lat="43.5650667" lon="10.73928"><ele>51.0</ele><time>2026-04-18T07:55:22.554Z</time></trkpt><trkpt lat="43.5650583" lon="10.7393767"><ele>51.0</ele><time>2026-04-18T07:55:23.554Z</time></trkpt><trkpt lat="43.5650367" lon="10.7394617"><ele>51.0</ele><time>2026-04-18T07:55:24.553Z</time></trkpt><trkpt lat="43.565" lon="10.73955"><ele>51.0</ele><time>2026-04-18T07:55:25.553Z</time></trkpt><trkpt lat="43.5649583" lon="10.73964"><ele>51.0</ele><time>2026-04-18T07:55:26.553Z</time></trkpt><trkpt lat="43.5649" lon="10.7397317"><ele>51.0</ele><time>2026-04-18T07:55:27.554Z</time></trkpt><trkpt lat="43.5648367" lon="10.73984"><ele>51.0</ele><time>2026-04-18T07:55:28.553Z</time></trkpt><trkpt lat="43.5647617" lon="10.7399583"><ele>51.0</ele><time>2026-04-18T07:55:29.553Z</time></trkpt><trkpt lat="43.56468" lon="10.7401"><ele>51.0</ele><time>2026-04-18T07:55:30.553Z</time></trkpt><trkpt lat="43.56459" lon="10.7402683"><ele>51.0</ele><time>2026-04-18T07:55:31.553Z</time></trkpt><trkpt lat="43.5644883" lon="10.7404567"><ele>51.0</ele><time>2026-04-18T07:55:32.553Z</time></trkpt><trkpt lat="43.5643767" lon="10.7406583"><ele>51.0</ele><time>2026-04-18T07:55:33.553Z</time></trkpt><trkpt lat="43.5642583" lon="10.7408633"><ele>51.0</ele><time>2026-04-18T07:55:34.553Z</time></trkpt><trkpt lat="43.56414" lon="10.741075"><ele>53.0</ele><time>2026-04-18T07:55:35.553Z</time></trkpt><trkpt lat="43.5640117" lon="10.7412917"><ele>55.0</ele><time>2026-04-18T07:55:36.554Z</time></trkpt><trkpt lat="43.563885" lon="10.74151"><ele>57.0</ele><time>2026-04-18T07:55:37.553Z</time></trkpt><trkpt lat="43.5637567" lon="10.7417383"><ele>56.33333333333333</ele><time>2026-04-18T07:55:38.553Z</time></trkpt><trkpt lat="43.5636233" lon="10.741965"><ele>55.666666666666664</ele><time>2026-04-18T07:55:39.554Z</time></trkpt><trkpt lat="43.563485" lon="10.7421983"><ele>55.0</ele><time>2026-04-18T07:55:40.554Z</time></trkpt><trkpt lat="43.5633567" lon="10.7424267"><ele>55.0</ele><time>2026-04-18T07:55:41.554Z</time></trkpt><trkpt lat="43.5632417" lon="10.7426433"><ele>55.0</ele><time>2026-04-18T07:55:42.553Z</time></trkpt><trkpt lat="43.5631267" lon="10.7428583"><ele>55.0</ele><time>2026-04-18T07:55:43.553Z</time></trkpt><trkpt lat="43.5630067" lon="10.7430717"><ele>55.0</ele><time>2026-04-18T07:55:44.553Z</time></trkpt><trkpt lat="43.5628967" lon="10.743275"><ele>55.0</ele><time>2026-04-18T07:55:45.554Z</time></trkpt><trkpt lat="43.5627867" lon="10.7434833"><ele>55.0</ele><time>2026-04-18T07:55:46.553Z</time></trkpt><trkpt lat="43.5626783" lon="10.7436833"><ele>55.0</ele><time>2026-04-18T07:55:47.553Z</time></trkpt><trkpt lat="43.5625783" lon="10.7438717"><ele>55.0</ele><time>2026-04-18T07:55:48.553Z</time></trkpt><trkpt lat="43.5624933" lon="10.7440533"><ele>55.0</ele><time>2026-04-18T07:55:49.553Z</time></trkpt><trkpt lat="43.56242" lon="10.7442383"><ele>55.75</ele><time>2026-04-18T07:55:50.553Z</time></trkpt><trkpt lat="43.5623583" lon="10.7444217"><ele>56.5</ele><time>2026-04-18T07:55:51.553Z</time></trkpt><trkpt lat="43.562305" lon="10.7446033"><ele>57.25</ele><time>2026-04-18T07:55:52.553Z</time></trkpt><trkpt lat="43.5622567" lon="10.7447817"><ele>58.0</ele><time>2026-04-18T07:55:53.553Z</time></trkpt><trkpt lat="43.5622217" lon="10.744975"><ele>58.0</ele><time>2026-04-18T07:55:54.553Z</time></trkpt><trkpt lat="43.562195" lon="10.74517"><ele>58.0</ele><time>2026-04-18T07:55:55.553Z</time></trkpt><trkpt lat="43.5621767" lon="10.745375"><ele>58.0</ele><time>2026-04-18T07:55:56.554Z</time></trkpt><trkpt lat="43.56216" lon="10.745575"><ele>58.0</ele><time>2026-04-18T07:55:57.553Z</time></trkpt><trkpt lat="43.5621483" lon="10.7457717"><ele>58.0</ele><time>2026-04-18T07:55:58.553Z</time></trkpt><trkpt lat="43.5621467" lon="10.74596"><ele>58.0</ele><time>2026-04-18T07:55:59.553Z</time></trkpt><trkpt lat="43.5621467" lon="10.7461617"><ele>58.0</ele><time>2026-04-18T07:56:00.553Z</time></trkpt><trkpt lat="43.5621517" lon="10.7463583"><ele>58.0</ele><time>2026-04-18T07:56:01.553Z</time></trkpt><trkpt lat="43.56217" lon="10.74655"><ele>57.0</ele><time>2026-04-18T07:56:02.553Z</time></trkpt><trkpt lat="43.562195" lon="10.7467267"><ele>56.0</ele><time>2026-04-18T07:56:03.554Z</time></trkpt><trkpt lat="43.5622267" lon="10.74689"><ele>55.0</ele><time>2026-04-18T07:56:04.553Z</time></trkpt><trkpt lat="43.5622567" lon="10.7470383"><ele>54.0</ele><time>2026-04-18T07:56:05.553Z</time></trkpt><trkpt lat="43.5622967" lon="10.7471783"><ele>53.75</ele><time>2026-04-18T07:56:06.553Z</time></trkpt><trkpt lat="43.56234" lon="10.7473183"><ele>53.5</ele><time>2026-04-18T07:56:07.553Z</time></trkpt><trkpt lat="43.5623883" lon="10.7474617"><ele>53.25</ele><time>2026-04-18T07:56:08.553Z</time></trkpt><trkpt lat="43.5624383" lon="10.747615"><ele>53.0</ele><time>2026-04-18T07:56:09.554Z</time></trkpt><trkpt lat="43.5624917" lon="10.7477733"><ele>53.0</ele><time>2026-04-18T07:56:10.553Z</time></trkpt><trkpt lat="43.562545" lon="10.7479133"><ele>53.0</ele><time>2026-04-18T07:56:11.553Z</time></trkpt><trkpt lat="43.5625917" lon="10.748055"><ele>53.0</ele><time>2026-04-18T07:56:12.553Z</time></trkpt><trkpt lat="43.5626383" lon="10.7481883"><ele>53.0</ele><time>2026-04-18T07:56:13.553Z</time></trkpt><trkpt lat="43.5626767" lon="10.7483117"><ele>53.0</ele><time>2026-04-18T07:56:14.553Z</time></trkpt><trkpt lat="43.562715" lon="10.74842"><ele>53.00000000000001</ele><time>2026-04-18T07:56:15.553Z</time></trkpt><trkpt lat="43.5627283" lon="10.7485267"><ele>53.0</ele><time>2026-04-18T07:56:16.553Z</time></trkpt><trkpt lat="43.562735" lon="10.74862"><ele>53.0</ele><time>2026-04-18T07:56:17.554Z</time></trkpt><trkpt lat="43.562715" lon="10.7487133"><ele>53.0</ele><time>2026-04-18T07:56:18.553Z</time></trkpt><trkpt lat="43.5626667" lon="10.7488017"><ele>53.00000000000001</ele><time>2026-04-18T07:56:19.553Z</time></trkpt><trkpt lat="43.5625933" lon="10.74887"><ele>53.0</ele><time>2026-04-18T07:56:20.553Z</time></trkpt><trkpt lat="43.562515" lon="10.7489133"><ele>52.75</ele><time>2026-04-18T07:56:21.553Z</time></trkpt><trkpt lat="43.56241" lon="10.74893"><ele>52.5</ele><time>2026-04-18T07:56:22.553Z</time></trkpt><trkpt lat="43.5622867" lon="10.748925"><ele>52.25</ele><time>2026-04-18T07:56:23.553Z</time></trkpt><trkpt lat="43.56215" lon="10.7488933"><ele>52.0</ele><time>2026-04-18T07:56:24.553Z</time></trkpt><trkpt lat="43.5619983" lon="10.7488667"><ele>51.5</ele><time>2026-04-18T07:56:25.553Z</time></trkpt><trkpt lat="43.5618533" lon="10.7488333"><ele>51.0</ele><time>2026-04-18T07:56:26.554Z</time></trkpt><trkpt lat="43.5617217" lon="10.7488033"><ele>50.5</ele><time>2026-04-18T07:56:27.553Z</time></trkpt><trkpt lat="43.561585" lon="10.7487867"><ele>50.0</ele><time>2026-04-18T07:56:28.553Z</time></trkpt><trkpt lat="43.5614417" lon="10.7487783"><ele>50.0</ele><time>2026-04-18T07:56:29.553Z</time></trkpt><trkpt lat="43.561295" lon="10.7487817"><ele>50.0</ele><time>2026-04-18T07:56:30.553Z</time></trkpt><trkpt lat="43.561145" lon="10.7488"><ele>50.0</ele><time>2026-04-18T07:56:31.553Z</time></trkpt><trkpt lat="43.56097" lon="10.7488517"><ele>50.66666666666667</ele><time>2026-04-18T07:56:32.553Z</time></trkpt><trkpt lat="43.5607983" lon="10.748905"><ele>51.33333333333333</ele><time>2026-04-18T07:56:33.553Z</time></trkpt><trkpt lat="43.5606233" lon="10.748955"><ele>52.0</ele><time>2026-04-18T07:56:34.554Z</time></trkpt><trkpt lat="43.56045" lon="10.7490133"><ele>51.666666666666664</ele><time>2026-04-18T07:56:35.553Z</time></trkpt><trkpt lat="43.560285" lon="10.7490533"><ele>51.33333333333333</ele><time>2026-04-18T07:56:36.553Z</time></trkpt><trkpt lat="43.560135" lon="10.749095"><ele>51.0</ele><time>2026-04-18T07:56:37.553Z</time></trkpt><trkpt lat="43.56" lon="10.7491267"><ele>51.0</ele><time>2026-04-18T07:56:38.553Z</time></trkpt><trkpt lat="43.5598633" lon="10.7491733"><ele>51.0</ele><time>2026-04-18T07:56:39.553Z</time></trkpt><trkpt lat="43.5597317" lon="10.7492483"><ele>51.0</ele><time>2026-04-18T07:56:40.554Z</time></trkpt><trkpt lat="43.5595983" lon="10.7493483"><ele>51.0</ele><time>2026-04-18T07:56:41.553Z</time></trkpt><trkpt lat="43.5594817" lon="10.7494783"><ele>51.0</ele><time>2026-04-18T07:56:42.554Z</time></trkpt><trkpt lat="43.5593783" lon="10.7496367"><ele>51.0</ele><time>2026-04-18T07:56:43.553Z</time></trkpt><trkpt lat="43.5592783" lon="10.7498"><ele>51.0</ele><time>2026-04-18T07:56:44.553Z</time></trkpt><trkpt lat="43.5591783" lon="10.74996"><ele>51.0</ele><time>2026-04-18T07:56:45.553Z</time></trkpt><trkpt lat="43.5590767" lon="10.7500983"><ele>51.0</ele><time>2026-04-18T07:56:46.553Z</time></trkpt><trkpt lat="43.5589817" lon="10.7502117"><ele>51.0</ele><time>2026-04-18T07:56:47.553Z</time></trkpt><trkpt lat="43.55891" lon="10.7503067"><ele>51.0</ele><time>2026-04-18T07:56:48.554Z</time></trkpt><trkpt lat="43.55885" lon="10.750435"><ele>52.0</ele><time>2026-04-18T07:56:50.553Z</time></trkpt><trkpt lat="43.5588867" lon="10.7505767"><ele>53.0</ele><time>2026-04-18T07:56:52.553Z</time></trkpt><trkpt lat="43.5589417" lon="10.7506683"><ele>53.99999999999999</ele><time>2026-04-18T07:56:53.553Z</time></trkpt><trkpt lat="43.5590033" lon="10.7507733"><ele>55.0</ele><time>2026-04-18T07:56:54.553Z</time></trkpt><trkpt lat="43.5590567" lon="10.7508817"><ele>56.0</ele><time>2026-04-18T07:56:55.553Z</time></trkpt><trkpt lat="43.5590967" lon="10.7510117"><ele>57.25</ele><time>2026-04-18T07:56:56.553Z</time></trkpt><trkpt lat="43.5591267" lon="10.7511617"><ele>58.5</ele><time>2026-04-18T07:56:57.553Z</time></trkpt><trkpt lat="43.55915" lon="10.7513317"><ele>59.75</ele><time>2026-04-18T07:56:58.553Z</time></trkpt><trkpt lat="43.5591683" lon="10.7514967"><ele>61.0</ele><time>2026-04-18T07:56:59.553Z</time></trkpt><trkpt lat="43.5591933" lon="10.75166"><ele>60.99999999999999</ele><time>2026-04-18T07:57:00.553Z</time></trkpt><trkpt lat="43.559205" lon="10.7518033"><ele>61.0</ele><time>2026-04-18T07:57:01.553Z</time></trkpt><trkpt lat="43.5592083" lon="10.75192"><ele>61.0</ele><time>2026-04-18T07:57:02.553Z</time></trkpt><trkpt lat="43.5592117" lon="10.7520383"><ele>61.0</ele><time>2026-04-18T07:57:03.553Z</time></trkpt><trkpt lat="43.559175" lon="10.7521233"><ele>60.99999999999999</ele><time>2026-04-18T07:57:04.553Z</time></trkpt><trkpt lat="43.559105" lon="10.7522067"><ele>61.0</ele><time>2026-04-18T07:57:05.554Z</time></trkpt><trkpt lat="43.5590117" lon="10.7522583"><ele>62.0</ele><time>2026-04-18T07:57:06.553Z</time></trkpt><trkpt lat="43.5589067" lon="10.7522917"><ele>62.99999999999999</ele><time>2026-04-18T07:57:07.554Z</time></trkpt><trkpt lat="43.5588067" lon="10.752325"><ele>63.99999999999999</ele><time>2026-04-18T07:57:08.553Z</time></trkpt><trkpt lat="43.55872" lon="10.7523867"><ele>65.0</ele><time>2026-04-18T07:57:09.553Z</time></trkpt><trkpt lat="43.5586583" lon="10.7524567"><ele>66.0</ele><time>2026-04-18T07:57:10.553Z</time></trkpt><trkpt lat="43.5586083" lon="10.752545"><ele>66.39999999999999</ele><time>2026-04-18T07:57:11.554Z</time></trkpt><trkpt lat="43.55857" lon="10.7526483"><ele>66.8</ele><time>2026-04-18T07:57:12.554Z</time></trkpt><trkpt lat="43.5585367" lon="10.7527617"><ele>67.19999999999999</ele><time>2026-04-18T07:57:13.553Z</time></trkpt><trkpt lat="43.5585067" lon="10.7528867"><ele>67.6</ele><time>2026-04-18T07:57:14.553Z</time></trkpt><trkpt lat="43.558495" lon="10.7530183"><ele>68.0</ele><time>2026-04-18T07:57:15.553Z</time></trkpt><trkpt lat="43.5584883" lon="10.7531667"><ele>69.25</ele><time>2026-04-18T07:57:16.553Z</time></trkpt><trkpt lat="43.55848" lon="10.7533283"><ele>70.5</ele><time>2026-04-18T07:57:17.553Z</time></trkpt><trkpt lat="43.55846" lon="10.753505"><ele>71.75</ele><time>2026-04-18T07:57:18.554Z</time></trkpt><trkpt lat="43.55844" lon="10.75369"><ele>73.0</ele><time>2026-04-18T07:57:19.553Z</time></trkpt><trkpt lat="43.5584167" lon="10.7538767"><ele>75.5</ele><time>2026-04-18T07:57:20.553Z</time></trkpt><trkpt lat="43.5583867" lon="10.7540617"><ele>78.0</ele><time>2026-04-18T07:57:21.553Z</time></trkpt><trkpt lat="43.558345" lon="10.7542533"><ele>80.5</ele><time>2026-04-18T07:57:22.553Z</time></trkpt><trkpt lat="43.558315" lon="10.7544517"><ele>83.0</ele><time>2026-04-18T07:57:23.553Z</time></trkpt><trkpt lat="43.558275" lon="10.7546617"><ele>84.75</ele><time>2026-04-18T07:57:24.553Z</time></trkpt><trkpt lat="43.55824" lon="10.7548517"><ele>86.5</ele><time>2026-04-18T07:57:25.553Z</time></trkpt><trkpt lat="43.5581967" lon="10.7550183"><ele>88.25</ele><time>2026-04-18T07:57:26.553Z</time></trkpt><trkpt lat="43.5581483" lon="10.7551667"><ele>90.0</ele><time>2026-04-18T07:57:27.553Z</time></trkpt><trkpt lat="43.558095" lon="10.7553183"><ele>90.0</ele><time>2026-04-18T07:57:28.553Z</time></trkpt><trkpt lat="43.5580383" lon="10.7554633"><ele>90.0</ele><time>2026-04-18T07:57:29.553Z</time></trkpt><trkpt lat="43.5579667" lon="10.7556133"><ele>90.0</ele><time>2026-04-18T07:57:30.553Z</time></trkpt><trkpt lat="43.557895" lon="10.755745"><ele>90.0</ele><time>2026-04-18T07:57:31.553Z</time></trkpt><trkpt lat="43.5578283" lon="10.7558767"><ele>90.0</ele><time>2026-04-18T07:57:32.554Z</time></trkpt><trkpt lat="43.557785" lon="10.7559967"><ele>90.0</ele><time>2026-04-18T07:57:33.553Z</time></trkpt><trkpt lat="43.5577667" lon="10.756095"><ele>90.0</ele><time>2026-04-18T07:57:34.553Z</time></trkpt><trkpt lat="43.557765" lon="10.7562083"><ele>90.0</ele><time>2026-04-18T07:57:35.553Z</time></trkpt><trkpt lat="43.5577917" lon="10.7563183"><ele>90.0</ele><time>2026-04-18T07:57:36.553Z</time></trkpt><trkpt lat="43.55785" lon="10.7564367"><ele>90.0</ele><time>2026-04-18T07:57:37.553Z</time></trkpt><trkpt lat="43.5579017" lon="10.7565817"><ele>92.0</ele><time>2026-04-18T07:57:38.553Z</time></trkpt><trkpt lat="43.5579367" lon="10.75673"><ele>94.0</ele><time>2026-04-18T07:57:39.553Z</time></trkpt><trkpt lat="43.557965" lon="10.7568783"><ele>96.0</ele><time>2026-04-18T07:57:40.553Z</time></trkpt><trkpt lat="43.5579683" lon="10.75705"><ele>98.0</ele><time>2026-04-18T07:57:41.553Z</time></trkpt><trkpt lat="43.5579517" lon="10.7572217"><ele>98.0</ele><time>2026-04-18T07:57:42.553Z</time></trkpt><trkpt lat="43.55793" lon="10.75742"><ele>98.0</ele><time>2026-04-18T07:57:43.553Z</time></trkpt><trkpt lat="43.5578933" lon="10.7576167"><ele>98.0</ele><time>2026-04-18T07:57:44.553Z</time></trkpt><trkpt lat="43.55785" lon="10.757845"><ele>98.66666666666666</ele><time>2026-04-18T07:57:45.553Z</time></trkpt><trkpt lat="43.5578117" lon="10.7580717"><ele>99.33333333333334</ele><time>2026-04-18T07:57:46.553Z</time></trkpt><trkpt lat="43.5577717" lon="10.758265"><ele>100.0</ele><time>2026-04-18T07:57:47.553Z</time></trkpt><trkpt lat="43.5577133" lon="10.7584533"><ele>102.25</ele><time>2026-04-18T07:57:48.553Z</time></trkpt><trkpt lat="43.557645" lon="10.758625"><ele>104.5</ele><time>2026-04-18T07:57:49.553Z</time></trkpt><trkpt lat="43.5575683" lon="10.7587967"><ele>106.75</ele><time>2026-04-18T07:57:50.553Z</time></trkpt><trkpt lat="43.5574783" lon="10.75895"><ele>109.0</ele><time>2026-04-18T07:57:51.553Z</time></trkpt><trkpt lat="43.5573683" lon="10.7591017"><ele>109.0</ele><time>2026-04-18T07:57:52.553Z</time></trkpt><trkpt lat="43.557265" lon="10.75923"><ele>109.0</ele><time>2026-04-18T07:57:53.553Z</time></trkpt><trkpt lat="43.55718" lon="10.7593217"><ele>109.0</ele><time>2026-04-18T07:57:54.553Z</time></trkpt><trkpt lat="43.5571117" lon="10.7594183"><ele>109.0</ele><time>2026-04-18T07:57:55.553Z</time></trkpt><trkpt lat="43.5570617" lon="10.759505"><ele>109.0</ele><time>2026-04-18T07:57:56.554Z</time></trkpt><trkpt lat="43.5570283" lon="10.7596033"><ele>109.4</ele><time>2026-04-18T07:57:57.553Z</time></trkpt><trkpt lat="43.5570167" lon="10.7597067"><ele>109.80000000000001</ele><time>2026-04-18T07:57:58.553Z</time></trkpt><trkpt lat="43.5570217" lon="10.7598267"><ele>110.19999999999999</ele><time>2026-04-18T07:57:59.553Z</time></trkpt><trkpt lat="43.5570367" lon="10.7599683"><ele>110.6</ele><time>2026-04-18T07:58:00.553Z</time></trkpt><trkpt lat="43.5570767" lon="10.7601383"><ele>111.0</ele><time>2026-04-18T07:58:01.554Z</time></trkpt><trkpt lat="43.5571367" lon="10.760345"><ele>114.0</ele><time>2026-04-18T07:58:02.553Z</time></trkpt><trkpt lat="43.5571983" lon="10.7605583"><ele>117.0</ele><time>2026-04-18T07:58:03.553Z</time></trkpt><trkpt lat="43.557245" lon="10.7607633"><ele>120.0</ele><time>2026-04-18T07:58:04.554Z</time></trkpt><trkpt lat="43.5572867" lon="10.760965"><ele>121.33333333333334</ele><time>2026-04-18T07:58:05.554Z</time></trkpt><trkpt lat="43.5573317" lon="10.7611633"><ele>122.66666666666667</ele><time>2026-04-18T07:58:06.553Z</time></trkpt><trkpt lat="43.5573667" lon="10.7613583"><ele>124.0</ele><time>2026-04-18T07:58:07.553Z</time></trkpt><trkpt lat="43.55741" lon="10.7615717"><ele>124.0</ele><time>2026-04-18T07:58:08.553Z</time></trkpt><trkpt lat="43.5574533" lon="10.7617967"><ele>124.0</ele><time>2026-04-18T07:58:09.553Z</time></trkpt><trkpt lat="43.5574983" lon="10.7619933"><ele>124.0</ele><time>2026-04-18T07:58:10.553Z</time></trkpt><trkpt lat="43.55754" lon="10.7621767"><ele>124.75</ele><time>2026-04-18T07:58:11.553Z</time></trkpt><trkpt lat="43.5575733" lon="10.7623483"><ele>125.5</ele><time>2026-04-18T07:58:12.553Z</time></trkpt><trkpt lat="43.5575967" lon="10.7625183"><ele>126.25</ele><time>2026-04-18T07:58:13.553Z</time></trkpt><trkpt lat="43.5576" lon="10.7626983"><ele>127.0</ele><time>2026-04-18T07:58:14.553Z</time></trkpt><trkpt lat="43.5575967" lon="10.7628933"><ele>128.0</ele><time>2026-04-18T07:58:15.553Z</time></trkpt><trkpt lat="43.557585" lon="10.7630767"><ele>129.0</ele><time>2026-04-18T07:58:16.553Z</time></trkpt><trkpt lat="43.5575767" lon="10.76324"><ele>130.0</ele><time>2026-04-18T07:58:17.553Z</time></trkpt><trkpt lat="43.557575" lon="10.7633667"><ele>131.0</ele><time>2026-04-18T07:58:18.554Z</time></trkpt><trkpt lat="43.5575683" lon="10.7634667"><ele>132.0</ele><time>2026-04-18T07:58:19.553Z</time></trkpt><trkpt lat="43.5575717" lon="10.7635633"><ele>133.16666666666666</ele><time>2026-04-18T07:58:20.553Z</time></trkpt><trkpt lat="43.5575833" lon="10.7636567"><ele>134.33333333333334</ele><time>2026-04-18T07:58:21.553Z</time></trkpt><trkpt lat="43.5576067" lon="10.7637483"><ele>135.5</ele><time>2026-04-18T07:58:22.553Z</time></trkpt><trkpt lat="43.5576433" lon="10.7639183"><ele>136.66666666666669</ele><time>2026-04-18T07:58:24.553Z</time></trkpt><trkpt lat="43.5576533" lon="10.7640417"><ele>137.83333333333334</ele><time>2026-04-18T07:58:25.553Z</time></trkpt><trkpt lat="43.55764" lon="10.7641383"><ele>139.0</ele><time>2026-04-18T07:58:26.553Z</time></trkpt><trkpt lat="43.5576133" lon="10.7642233"><ele>139.0</ele><time>2026-04-18T07:58:27.553Z</time></trkpt><trkpt lat="43.5575767" lon="10.7643067"><ele>139.0</ele><time>2026-04-18T07:58:28.553Z</time></trkpt><trkpt lat="43.5574917" lon="10.76437"><ele>139.0</ele><time>2026-04-18T07:58:29.553Z</time></trkpt><trkpt lat="43.5573867" lon="10.76443"><ele>139.0</ele><time>2026-04-18T07:58:30.553Z</time></trkpt><trkpt lat="43.5572967" lon="10.7645367"><ele>139.0</ele><time>2026-04-18T07:58:31.553Z</time></trkpt><trkpt lat="43.5572167" lon="10.7646833"><ele>140.75</ele><time>2026-04-18T07:58:32.553Z</time></trkpt><trkpt lat="43.5571533" lon="10.764845"><ele>142.5</ele><time>2026-04-18T07:58:33.553Z</time></trkpt><trkpt lat="43.557095" lon="10.7650383"><ele>144.25</ele><time>2026-04-18T07:58:34.553Z</time></trkpt><trkpt lat="43.5570383" lon="10.7652417"><ele>146.0</ele><time>2026-04-18T07:58:35.554Z</time></trkpt><trkpt lat="43.556985" lon="10.7654367"><ele>146.0</ele><time>2026-04-18T07:58:36.553Z</time></trkpt><trkpt lat="43.5569383" lon="10.7656083"><ele>146.0</ele><time>2026-04-18T07:58:37.553Z</time></trkpt><trkpt lat="43.556885" lon="10.7657467"><ele>146.0</ele><time>2026-04-18T07:58:38.554Z</time></trkpt><trkpt lat="43.5568217" lon="10.7658633"><ele>146.0</ele><time>2026-04-18T07:58:39.553Z</time></trkpt><trkpt lat="43.5567367" lon="10.7659817"><ele>149.0</ele><time>2026-04-18T07:58:40.553Z</time></trkpt><trkpt lat="43.5566367" lon="10.766095"><ele>152.0</ele><time>2026-04-18T07:58:41.554Z</time></trkpt><trkpt lat="43.5565367" lon="10.7661883"><ele>155.0</ele><time>2026-04-18T07:58:42.553Z</time></trkpt><trkpt lat="43.5564383" lon="10.766275"><ele>158.0</ele><time>2026-04-18T07:58:43.553Z</time></trkpt><trkpt lat="43.556355" lon="10.7663683"><ele>158.0</ele><time>2026-04-18T07:58:44.553Z</time></trkpt><trkpt lat="43.55627" lon="10.766445"><ele>158.0</ele><time>2026-04-18T07:58:45.553Z</time></trkpt><trkpt lat="43.5561767" lon="10.7665133"><ele>158.0</ele><time>2026-04-18T07:58:46.552Z</time></trkpt><trkpt lat="43.55609" lon="10.7665617"><ele>158.0</ele><time>2026-04-18T07:58:47.552Z</time></trkpt><trkpt lat="43.55601" lon="10.7665917"><ele>158.0</ele><time>2026-04-18T07:58:48.552Z</time></trkpt><trkpt lat="43.5559317" lon="10.766625"><ele>156.83333333333331</ele><time>2026-04-18T07:58:49.553Z</time></trkpt><trkpt lat="43.55586" lon="10.76666"><ele>155.66666666666666</ele><time>2026-04-18T07:58:50.552Z</time></trkpt><trkpt lat="43.55579" lon="10.7666967"><ele>154.5</ele><time>2026-04-18T07:58:51.552Z</time></trkpt><trkpt lat="43.5557333" lon="10.76675"><ele>153.33333333333334</ele><time>2026-04-18T07:58:52.552Z</time></trkpt><trkpt lat="43.55568" lon="10.7668017"><ele>152.16666666666669</ele><time>2026-04-18T07:58:53.552Z</time></trkpt><trkpt lat="43.55561" lon="10.766935"><ele>151.0</ele><time>2026-04-18T07:58:55.553Z</time></trkpt><trkpt lat="43.55561" lon="10.7671167"><ele>150.8</ele><time>2026-04-18T07:58:57.552Z</time></trkpt><trkpt lat="43.5556217" lon="10.7672117"><ele>150.6</ele><time>2026-04-18T07:58:58.552Z</time></trkpt><trkpt lat="43.5556683" lon="10.7673417"><ele>150.4</ele><time>2026-04-18T07:58:59.552Z</time></trkpt><trkpt lat="43.5557483" lon="10.7674783"><ele>150.2</ele><time>2026-04-18T07:59:00.552Z</time></trkpt><trkpt lat="43.555835" lon="10.7676083"><ele>150.0</ele><time>2026-04-18T07:59:01.552Z</time></trkpt><trkpt lat="43.5559" lon="10.7677267"><ele>149.0</ele><time>2026-04-18T07:59:02.552Z</time></trkpt><trkpt lat="43.555955" lon="10.7678383"><ele>148.0</ele><time>2026-04-18T07:59:03.552Z</time></trkpt><trkpt lat="43.5559917" lon="10.76794"><ele>147.0</ele><time>2026-04-18T07:59:04.552Z</time></trkpt><trkpt lat="43.5559717" lon="10.7681133"><ele>146.0</ele><time>2026-04-18T07:59:06.552Z</time></trkpt><trkpt lat="43.5559267" lon="10.7681967"><ele>145.0</ele><time>2026-04-18T07:59:07.552Z</time></trkpt><trkpt lat="43.5558417" lon="10.768295"><ele>145.0</ele><time>2026-04-18T07:59:08.552Z</time></trkpt><trkpt lat="43.5557167" lon="10.768415"><ele>145.0</ele><time>2026-04-18T07:59:09.552Z</time></trkpt><trkpt lat="43.55555" lon="10.76859"><ele>145.0</ele><time>2026-04-18T07:59:10.552Z</time></trkpt><trkpt lat="43.5554233" lon="10.7687333"><ele>142.66666666666669</ele><time>2026-04-18T07:59:11.552Z</time></trkpt><trkpt lat="43.5552883" lon="10.76889"><ele>140.33333333333334</ele><time>2026-04-18T07:59:12.553Z</time></trkpt><trkpt lat="43.5551617" lon="10.7690433"><ele>138.0</ele><time>2026-04-18T07:59:13.552Z</time></trkpt><trkpt lat="43.5550517" lon="10.7691867"><ele>138.0</ele><time>2026-04-18T07:59:14.552Z</time></trkpt><trkpt lat="43.554945" lon="10.7693217"><ele>138.0</ele><time>2026-04-18T07:59:15.553Z</time></trkpt><trkpt lat="43.5548567" lon="10.7694383"><ele>138.0</ele><time>2026-04-18T07:59:16.553Z</time></trkpt><trkpt lat="43.554765" lon="10.7695567"><ele>138.0</ele><time>2026-04-18T07:59:17.552Z</time></trkpt><trkpt lat="43.55469" lon="10.76968"><ele>137.0</ele><time>2026-04-18T07:59:18.552Z</time></trkpt><trkpt lat="43.5546133" lon="10.769835"><ele>136.0</ele><time>2026-04-18T07:59:19.552Z</time></trkpt><trkpt lat="43.55454" lon="10.7700283"><ele>135.0</ele><time>2026-04-18T07:59:20.552Z</time></trkpt><trkpt lat="43.55447" lon="10.770235"><ele>137.33333333333334</ele><time>2026-04-18T07:59:21.552Z</time></trkpt><trkpt lat="43.5543917" lon="10.7704383"><ele>139.66666666666669</ele><time>2026-04-18T07:59:22.553Z</time></trkpt><trkpt lat="43.55433" lon="10.7706367"><ele>142.0</ele><time>2026-04-18T07:59:23.552Z</time></trkpt><trkpt lat="43.55427" lon="10.7708133"><ele>142.0</ele><time>2026-04-18T07:59:24.552Z</time></trkpt><trkpt lat="43.554215" lon="10.7709667"><ele>142.0</ele><time>2026-04-18T07:59:25.552Z</time></trkpt><trkpt lat="43.5541617" lon="10.77111"><ele>142.0</ele><time>2026-04-18T07:59:26.552Z</time></trkpt><trkpt lat="43.5541283" lon="10.7712383"><ele>142.0</ele><time>2026-04-18T07:59:27.553Z</time></trkpt><trkpt lat="43.554105" lon="10.7713783"><ele>142.0</ele><time>2026-04-18T07:59:28.552Z</time></trkpt><trkpt lat="43.55409" lon="10.771535"><ele>142.0</ele><time>2026-04-18T07:59:29.552Z</time></trkpt><trkpt lat="43.5540933" lon="10.77171"><ele>142.0</ele><time>2026-04-18T07:59:30.552Z</time></trkpt><trkpt lat="43.5541067" lon="10.7718967"><ele>142.0</ele><time>2026-04-18T07:59:31.552Z</time></trkpt><trkpt lat="43.55412" lon="10.7721"><ele>142.0</ele><time>2026-04-18T07:59:32.552Z</time></trkpt><trkpt lat="43.5541367" lon="10.7723183"><ele>142.0</ele><time>2026-04-18T07:59:33.552Z</time></trkpt><trkpt lat="43.5541417" lon="10.7725333"><ele>142.0</ele><time>2026-04-18T07:59:34.553Z</time></trkpt><trkpt lat="43.5541517" lon="10.7727633"><ele>142.0</ele><time>2026-04-18T07:59:35.552Z</time></trkpt><trkpt lat="43.5541583" lon="10.773005"><ele>143.0</ele><time>2026-04-18T07:59:36.552Z</time></trkpt><trkpt lat="43.5541683" lon="10.7732483"><ele>144.0</ele><time>2026-04-18T07:59:37.552Z</time></trkpt><trkpt lat="43.554185" lon="10.7734733"><ele>145.0</ele><time>2026-04-18T07:59:38.553Z</time></trkpt><trkpt lat="43.554195" lon="10.773685"><ele>147.33333333333334</ele><time>2026-04-18T07:59:39.552Z</time></trkpt><trkpt lat="43.5541983" lon="10.7738933"><ele>149.66666666666666</ele><time>2026-04-18T07:59:40.552Z</time></trkpt><trkpt lat="43.554195" lon="10.7741067"><ele>152.0</ele><time>2026-04-18T07:59:41.553Z</time></trkpt><trkpt lat="43.5541833" lon="10.7743217"><ele>154.0</ele><time>2026-04-18T07:59:42.552Z</time></trkpt><trkpt lat="43.5541567" lon="10.7745167"><ele>156.0</ele><time>2026-04-18T07:59:43.553Z</time></trkpt><trkpt lat="43.5541367" lon="10.7746983"><ele>158.0</ele><time>2026-04-18T07:59:44.552Z</time></trkpt><trkpt lat="43.5541167" lon="10.774865"><ele>160.0</ele><time>2026-04-18T07:59:45.552Z</time></trkpt><trkpt lat="43.554105" lon="10.7750067"><ele>160.0</ele><time>2026-04-18T07:59:46.552Z</time></trkpt><trkpt lat="43.55411" lon="10.77514"><ele>160.0</ele><time>2026-04-18T07:59:47.552Z</time></trkpt><trkpt lat="43.554135" lon="10.77525"><ele>160.0</ele><time>2026-04-18T07:59:48.553Z</time></trkpt><trkpt lat="43.5541783" lon="10.77535"><ele>160.0</ele><time>2026-04-18T07:59:49.552Z</time></trkpt><trkpt lat="43.554245" lon="10.7754417"><ele>160.0</ele><time>2026-04-18T07:59:50.553Z</time></trkpt><trkpt lat="43.5543333" lon="10.7755233"><ele>160.0</ele><time>2026-04-18T07:59:51.552Z</time></trkpt><trkpt lat="43.554435" lon="10.7755833"><ele>160.0</ele><time>2026-04-18T07:59:52.552Z</time></trkpt><trkpt lat="43.55453" lon="10.77569"><ele>160.0</ele><time>2026-04-18T07:59:53.552Z</time></trkpt><trkpt lat="43.55462" lon="10.7758233"><ele>160.0</ele><time>2026-04-18T07:59:54.552Z</time></trkpt><trkpt lat="43.5547167" lon="10.7759683"><ele>165.25</ele><time>2026-04-18T07:59:55.553Z</time></trkpt><trkpt lat="43.554805" lon="10.7761283"><ele>170.5</ele><time>2026-04-18T07:59:56.552Z</time></trkpt><trkpt lat="43.5548783" lon="10.7762883"><ele>175.75</ele><time>2026-04-18T07:59:57.552Z</time></trkpt><trkpt lat="43.55494" lon="10.7764283"><ele>181.0</ele><time>2026-04-18T07:59:58.552Z</time></trkpt><trkpt lat="43.5549733" lon="10.7765633"><ele>181.0</ele><time>2026-04-18T07:59:59.552Z</time></trkpt><trkpt lat="43.5549817" lon="10.77669"><ele>181.0</ele><time>2026-04-18T08:00:00.552Z</time></trkpt><trkpt lat="43.55497" lon="10.776825"><ele>181.0</ele><time>2026-04-18T08:00:01.552Z</time></trkpt><trkpt lat="43.5549467" lon="10.7769633"><ele>181.0</ele><time>2026-04-18T08:00:02.552Z</time></trkpt><trkpt lat="43.5549283" lon="10.77709"><ele>181.0</ele><time>2026-04-18T08:00:03.552Z</time></trkpt><trkpt lat="43.5549183" lon="10.7772233"><ele>181.33333333333334</ele><time>2026-04-18T08:00:04.552Z</time></trkpt><trkpt lat="43.55491" lon="10.777345"><ele>181.66666666666669</ele><time>2026-04-18T08:00:05.553Z</time></trkpt><trkpt lat="43.5549233" lon="10.777455"><ele>182.0</ele><time>2026-04-18T08:00:06.552Z</time></trkpt><trkpt lat="43.55495" lon="10.77755"><ele>182.33333333333334</ele><time>2026-04-18T08:00:07.552Z</time></trkpt><trkpt lat="43.5550033" lon="10.777635"><ele>182.66666666666666</ele><time>2026-04-18T08:00:08.552Z</time></trkpt><trkpt lat="43.5550733" lon="10.7777083"><ele>183.0</ele><time>2026-04-18T08:00:09.552Z</time></trkpt><trkpt lat="43.5551583" lon="10.7777733"><ele>183.0</ele><time>2026-04-18T08:00:10.552Z</time></trkpt><trkpt lat="43.5552317" lon="10.77784"><ele>183.0</ele><time>2026-04-18T08:00:11.553Z</time></trkpt><trkpt lat="43.555285" lon="10.7779017"><ele>183.0</ele><time>2026-04-18T08:00:12.552Z</time></trkpt><trkpt lat="43.5553383" lon="10.7779533"><ele>183.0</ele><time>2026-04-18T08:00:13.553Z</time></trkpt><trkpt lat="43.5553733" lon="10.7780933"><ele>183.0</ele><time>2026-04-18T08:00:15.552Z</time></trkpt><trkpt lat="43.5553733" lon="10.7781817"><ele>183.0</ele><time>2026-04-18T08:00:16.552Z</time></trkpt><trkpt lat="43.5553867" lon="10.77829"><ele>183.0</ele><time>2026-04-18T08:00:17.552Z</time></trkpt><trkpt lat="43.555395" lon="10.778435"><ele>183.0</ele><time>2026-04-18T08:00:18.552Z</time></trkpt><trkpt lat="43.5554033" lon="10.7785917"><ele>183.0</ele><time>2026-04-18T08:00:19.552Z</time></trkpt><trkpt lat="43.5554133" lon="10.778755"><ele>183.0</ele><time>2026-04-18T08:00:20.552Z</time></trkpt><trkpt lat="43.55542" lon="10.7789083"><ele>183.0</ele><time>2026-04-18T08:00:21.552Z</time></trkpt><trkpt lat="43.5554167" lon="10.7790467"><ele>182.5</ele><time>2026-04-18T08:00:22.552Z</time></trkpt><trkpt lat="43.55542" lon="10.7791833"><ele>182.0</ele><time>2026-04-18T08:00:23.552Z</time></trkpt><trkpt lat="43.5554133" lon="10.77931"><ele>181.5</ele><time>2026-04-18T08:00:24.552Z</time></trkpt><trkpt lat="43.55541" lon="10.7794267"><ele>181.0</ele><time>2026-04-18T08:00:25.552Z</time></trkpt><trkpt lat="43.5554133" lon="10.779545"><ele>180.5</ele><time>2026-04-18T08:00:26.553Z</time></trkpt><trkpt lat="43.5554233" lon="10.7796617"><ele>180.0</ele><time>2026-04-18T08:00:27.552Z</time></trkpt><trkpt lat="43.5554367" lon="10.7797933"><ele>180.2</ele><time>2026-04-18T08:00:28.553Z</time></trkpt><trkpt lat="43.5554667" lon="10.7799217"><ele>180.4</ele><time>2026-04-18T08:00:29.553Z</time></trkpt><trkpt lat="43.5555117" lon="10.7800533"><ele>180.60000000000002</ele><time>2026-04-18T08:00:30.552Z</time></trkpt><trkpt lat="43.5555533" lon="10.78018"><ele>180.8</ele><time>2026-04-18T08:00:31.552Z</time></trkpt><trkpt lat="43.5556" lon="10.7803117"><ele>181.0</ele><time>2026-04-18T08:00:32.553Z</time></trkpt><trkpt lat="43.5556417" lon="10.7804383"><ele>181.0</ele><time>2026-04-18T08:00:33.552Z</time></trkpt><trkpt lat="43.5556817" lon="10.7805717"><ele>181.0</ele><time>2026-04-18T08:00:34.552Z</time></trkpt><trkpt lat="43.5557183" lon="10.7806983"><ele>181.0</ele><time>2026-04-18T08:00:35.552Z</time></trkpt><trkpt lat="43.5557483" lon="10.7808217"><ele>181.0</ele><time>2026-04-18T08:00:36.552Z</time></trkpt><trkpt lat="43.5557583" lon="10.780935"><ele>181.0</ele><time>2026-04-18T08:00:37.552Z</time></trkpt><trkpt lat="43.555765" lon="10.7810517"><ele>181.0</ele><time>2026-04-18T08:00:38.552Z</time></trkpt><trkpt lat="43.5557717" lon="10.78118"><ele>181.0</ele><time>2026-04-18T08:00:39.553Z</time></trkpt><trkpt lat="43.5557733" lon="10.781315"><ele>181.0</ele><time>2026-04-18T08:00:40.552Z</time></trkpt><trkpt lat="43.5557767" lon="10.7814567"><ele>181.0</ele><time>2026-04-18T08:00:41.552Z</time></trkpt><trkpt lat="43.55577" lon="10.781585"><ele>181.0</ele><time>2026-04-18T08:00:42.552Z</time></trkpt><trkpt lat="43.5557533" lon="10.7817"><ele>181.0</ele><time>2026-04-18T08:00:43.552Z</time></trkpt><trkpt lat="43.5557267" lon="10.7818"><ele>181.0</ele><time>2026-04-18T08:00:44.552Z</time></trkpt><trkpt lat="43.5557067" lon="10.7819017"><ele>181.0</ele><time>2026-04-18T08:00:45.552Z</time></trkpt><trkpt lat="43.555675" lon="10.7819783"><ele>181.0</ele><time>2026-04-18T08:00:46.553Z</time></trkpt><trkpt lat="43.5556383" lon="10.7820767"><ele>181.0</ele><time>2026-04-18T08:00:48.552Z</time></trkpt><trkpt lat="43.5556033" lon="10.782195"><ele>181.0</ele><time>2026-04-18T08:00:50.552Z</time></trkpt><trkpt lat="43.5555817" lon="10.7823517"><ele>179.66666666666669</ele><time>2026-04-18T08:00:52.552Z</time></trkpt><trkpt lat="43.555555" lon="10.7825333"><ele>178.33333333333334</ele><time>2026-04-18T08:00:54.552Z</time></trkpt><trkpt lat="43.5555367" lon="10.7826317"><ele>177.0</ele><time>2026-04-18T08:00:55.552Z</time></trkpt><trkpt lat="43.555525" lon="10.782735"><ele>175.66666666666666</ele><time>2026-04-18T08:00:56.552Z</time></trkpt><trkpt lat="43.5555217" lon="10.7828433"><ele>174.33333333333331</ele><time>2026-04-18T08:00:57.552Z</time></trkpt><trkpt lat="43.555515" lon="10.7829567"><ele>173.0</ele><time>2026-04-18T08:00:58.552Z</time></trkpt><trkpt lat="43.5555083" lon="10.7830817"><ele>171.33333333333331</ele><time>2026-04-18T08:00:59.552Z</time></trkpt><trkpt lat="43.55551" lon="10.7832167"><ele>169.66666666666666</ele><time>2026-04-18T08:01:00.553Z</time></trkpt><trkpt lat="43.5555067" lon="10.78334"><ele>168.0</ele><time>2026-04-18T08:01:01.552Z</time></trkpt><trkpt lat="43.5554983" lon="10.7834467"><ele>166.33333333333334</ele><time>2026-04-18T08:01:02.552Z</time></trkpt><trkpt lat="43.55549" lon="10.78355"><ele>164.66666666666669</ele><time>2026-04-18T08:01:03.552Z</time></trkpt><trkpt lat="43.555475" lon="10.7836533"><ele>163.0</ele><time>2026-04-18T08:01:04.552Z</time></trkpt><trkpt lat="43.5554617" lon="10.783765"><ele>161.83333333333334</ele><time>2026-04-18T08:01:05.552Z</time></trkpt><trkpt lat="43.5554583" lon="10.7838767"><ele>160.66666666666669</ele><time>2026-04-18T08:01:06.552Z</time></trkpt><trkpt lat="43.5554567" lon="10.78398"><ele>159.5</ele><time>2026-04-18T08:01:07.552Z</time></trkpt><trkpt lat="43.5554533" lon="10.7840767"><ele>158.33333333333334</ele><time>2026-04-18T08:01:08.552Z</time></trkpt><trkpt lat="43.55547" lon="10.7841867"><ele>157.16666666666666</ele><time>2026-04-18T08:01:09.552Z</time></trkpt><trkpt lat="43.5555" lon="10.78431"><ele>156.0</ele><time>2026-04-18T08:01:10.552Z</time></trkpt><trkpt lat="43.555545" lon="10.7844383"><ele>155.66666666666666</ele><time>2026-04-18T08:01:11.553Z</time></trkpt><trkpt lat="43.5555917" lon="10.7845683"><ele>155.33333333333334</ele><time>2026-04-18T08:01:12.552Z</time></trkpt><trkpt lat="43.55564" lon="10.7846833"><ele>155.0</ele><time>2026-04-18T08:01:13.552Z</time></trkpt><trkpt lat="43.5556767" lon="10.784795"><ele>154.66666666666669</ele><time>2026-04-18T08:01:14.552Z</time></trkpt><trkpt lat="43.5557067" lon="10.784905"><ele>154.33333333333334</ele><time>2026-04-18T08:01:15.552Z</time></trkpt><trkpt lat="43.5557183" lon="10.785005"><ele>154.0</ele><time>2026-04-18T08:01:16.552Z</time></trkpt><trkpt lat="43.55572" lon="10.785115"><ele>154.5</ele><time>2026-04-18T08:01:17.552Z</time></trkpt><trkpt lat="43.55571" lon="10.7852367"><ele>155.0</ele><time>2026-04-18T08:01:18.552Z</time></trkpt><trkpt lat="43.5556933" lon="10.785355"><ele>155.5</ele><time>2026-04-18T08:01:19.552Z</time></trkpt><trkpt lat="43.5556733" lon="10.785465"><ele>156.0</ele><time>2026-04-18T08:01:20.553Z</time></trkpt><trkpt lat="43.555655" lon="10.7855633"><ele>156.5</ele><time>2026-04-18T08:01:21.552Z</time></trkpt><trkpt lat="43.5556517" lon="10.7856567"><ele>157.0</ele><time>2026-04-18T08:01:22.552Z</time></trkpt><trkpt lat="43.5556617" lon="10.7858167"><ele>157.0</ele><time>2026-04-18T08:01:24.552Z</time></trkpt><trkpt lat="43.555715" lon="10.7859433"><ele>157.0</ele><time>2026-04-18T08:01:26.552Z</time></trkpt><trkpt lat="43.555815" lon="10.7860467"><ele>157.0</ele><time>2026-04-18T08:01:28.552Z</time></trkpt><trkpt lat="43.5558817" lon="10.7861117"><ele>157.0</ele><time>2026-04-18T08:01:29.552Z</time></trkpt><trkpt lat="43.55596" lon="10.7861883"><ele>157.0</ele><time>2026-04-18T08:01:30.552Z</time></trkpt><trkpt lat="43.5560433" lon="10.786275"><ele>156.79999999999998</ele><time>2026-04-18T08:01:31.552Z</time></trkpt><trkpt lat="43.55612" lon="10.7863733"><ele>156.6</ele><time>2026-04-18T08:01:32.552Z</time></trkpt><trkpt lat="43.5562" lon="10.7864833"><ele>156.39999999999998</ele><time>2026-04-18T08:01:33.552Z</time></trkpt><trkpt lat="43.5562733" lon="10.7865967"><ele>156.2</ele><time>2026-04-18T08:01:34.552Z</time></trkpt><trkpt lat="43.5563417" lon="10.78669"><ele>156.0</ele><time>2026-04-18T08:01:35.552Z</time></trkpt><trkpt lat="43.5563967" lon="10.7867883"><ele>155.33333333333334</ele><time>2026-04-18T08:01:36.552Z</time></trkpt><trkpt lat="43.5564517" lon="10.78687"><ele>154.66666666666666</ele><time>2026-04-18T08:01:37.552Z</time></trkpt><trkpt lat="43.556505" lon="10.786955"><ele>154.0</ele><time>2026-04-18T08:01:38.553Z</time></trkpt><trkpt lat="43.5565533" lon="10.7870383"><ele>153.33333333333331</ele><time>2026-04-18T08:01:39.552Z</time></trkpt><trkpt lat="43.556605" lon="10.78712"><ele>152.66666666666666</ele><time>2026-04-18T08:01:40.552Z</time></trkpt><trkpt lat="43.556655" lon="10.7871983"><ele>152.0</ele><time>2026-04-18T08:01:41.552Z</time></trkpt><trkpt lat="43.556695" lon="10.78728"><ele>152.0</ele><time>2026-04-18T08:01:42.552Z</time></trkpt><trkpt lat="43.55674" lon="10.7873767"><ele>152.0</ele><time>2026-04-18T08:01:43.552Z</time></trkpt><trkpt lat="43.5567883" lon="10.78749"><ele>152.0</ele><time>2026-04-18T08:01:44.552Z</time></trkpt><trkpt lat="43.556835" lon="10.7876183"><ele>152.0</ele><time>2026-04-18T08:01:45.552Z</time></trkpt><trkpt lat="43.5568767" lon="10.7877667"><ele>152.0</ele><time>2026-04-18T08:01:46.552Z</time></trkpt><trkpt lat="43.55692" lon="10.78791"><ele>152.79999999999998</ele><time>2026-04-18T08:01:47.552Z</time></trkpt><trkpt lat="43.5569583" lon="10.7880483"><ele>153.6</ele><time>2026-04-18T08:01:48.553Z</time></trkpt><trkpt lat="43.557" lon="10.78818"><ele>154.39999999999998</ele><time>2026-04-18T08:01:49.552Z</time></trkpt><trkpt lat="43.5570417" lon="10.7883133"><ele>155.2</ele><time>2026-04-18T08:01:50.552Z</time></trkpt><trkpt lat="43.557095" lon="10.78845"><ele>156.0</ele><time>2026-04-18T08:01:51.552Z</time></trkpt><trkpt lat="43.5571517" lon="10.7885767"><ele>156.0</ele><time>2026-04-18T08:01:52.552Z</time></trkpt><trkpt lat="43.5572067" lon="10.7886983"><ele>156.0</ele><time>2026-04-18T08:01:53.552Z</time></trkpt><trkpt lat="43.5572583" lon="10.7888183"><ele>156.0</ele><time>2026-04-18T08:01:54.552Z</time></trkpt><trkpt lat="43.557305" lon="10.7889383"><ele>156.0</ele><time>2026-04-18T08:01:55.552Z</time></trkpt><trkpt lat="43.5573383" lon="10.7890467"><ele>156.0</ele><time>2026-04-18T08:01:56.552Z</time></trkpt><trkpt lat="43.5573567" lon="10.7891667"><ele>156.0</ele><time>2026-04-18T08:01:57.552Z</time></trkpt><trkpt lat="43.55737" lon="10.7892933"><ele>156.0</ele><time>2026-04-18T08:01:58.553Z</time></trkpt><trkpt lat="43.5573767" lon="10.7894017"><ele>156.0</ele><time>2026-04-18T08:01:59.552Z</time></trkpt><trkpt lat="43.5573967" lon="10.7895067"><ele>156.0</ele><time>2026-04-18T08:02:00.552Z</time></trkpt><trkpt lat="43.5574133" lon="10.7895983"><ele>156.0</ele><time>2026-04-18T08:02:01.553Z</time></trkpt><trkpt lat="43.5574483" lon="10.78975"><ele>156.0</ele><time>2026-04-18T08:02:03.552Z</time></trkpt><trkpt lat="43.5575067" lon="10.7898983"><ele>155.2</ele><time>2026-04-18T08:02:05.552Z</time></trkpt><trkpt lat="43.5575583" lon="10.789995"><ele>154.39999999999998</ele><time>2026-04-18T08:02:06.552Z</time></trkpt><trkpt lat="43.5576117" lon="10.79011"><ele>153.6</ele><time>2026-04-18T08:02:07.552Z</time></trkpt><trkpt lat="43.5576617" lon="10.790215"><ele>152.79999999999998</ele><time>2026-04-18T08:02:08.552Z</time></trkpt><trkpt lat="43.5577183" lon="10.7903283"><ele>152.0</ele><time>2026-04-18T08:02:09.552Z</time></trkpt><trkpt lat="43.5577783" lon="10.7904433"><ele>150.2</ele><time>2026-04-18T08:02:10.552Z</time></trkpt><trkpt lat="43.5578417" lon="10.7905617"><ele>148.39999999999998</ele><time>2026-04-18T08:02:11.552Z</time></trkpt><trkpt lat="43.5578983" lon="10.7906767"><ele>146.60000000000002</ele><time>2026-04-18T08:02:12.552Z</time></trkpt><trkpt lat="43.5579517" lon="10.7907883"><ele>144.8</ele><time>2026-04-18T08:02:13.552Z</time></trkpt><trkpt lat="43.5579967" lon="10.790885"><ele>143.0</ele><time>2026-04-18T08:02:14.552Z</time></trkpt><trkpt lat="43.5580283" lon="10.79097"><ele>142.16666666666666</ele><time>2026-04-18T08:02:15.552Z</time></trkpt><trkpt lat="43.5580533" lon="10.7910567"><ele>141.33333333333331</ele><time>2026-04-18T08:02:16.552Z</time></trkpt><trkpt lat="43.5580683" lon="10.7911467"><ele>140.5</ele><time>2026-04-18T08:02:17.552Z</time></trkpt><trkpt lat="43.5580783" lon="10.79125"><ele>139.66666666666666</ele><time>2026-04-18T08:02:18.552Z</time></trkpt><trkpt lat="43.55807" lon="10.7913583"><ele>138.83333333333334</ele><time>2026-04-18T08:02:19.552Z</time></trkpt><trkpt lat="43.558055" lon="10.7914817"><ele>138.0</ele><time>2026-04-18T08:02:20.552Z</time></trkpt><trkpt lat="43.5580333" lon="10.79161"><ele>138.0</ele><time>2026-04-18T08:02:21.551Z</time></trkpt><trkpt lat="43.558" lon="10.7917383"><ele>138.0</ele><time>2026-04-18T08:02:22.551Z</time></trkpt><trkpt lat="43.5579483" lon="10.7918717"><ele>138.0</ele><time>2026-04-18T08:02:23.551Z</time></trkpt><trkpt lat="43.557895" lon="10.79198"><ele>138.0</ele><time>2026-04-18T08:02:24.551Z</time></trkpt><trkpt lat="43.55785" lon="10.79208"><ele>138.0</ele><time>2026-04-18T08:02:25.552Z</time></trkpt><trkpt lat="43.55782" lon="10.792175"><ele>138.6</ele><time>2026-04-18T08:02:26.551Z</time></trkpt><trkpt lat="43.5578067" lon="10.7923317"><ele>139.20000000000002</ele><time>2026-04-18T08:02:28.551Z</time></trkpt><trkpt lat="43.5578217" lon="10.792435"><ele>139.8</ele><time>2026-04-18T08:02:29.551Z</time></trkpt><trkpt lat="43.5578567" lon="10.792575"><ele>140.4</ele><time>2026-04-18T08:02:30.551Z</time></trkpt><trkpt lat="43.5579083" lon="10.7927567"><ele>141.0</ele><time>2026-04-18T08:02:31.551Z</time></trkpt><trkpt lat="43.557965" lon="10.7929617"><ele>143.25</ele><time>2026-04-18T08:02:32.551Z</time></trkpt><trkpt lat="43.5580167" lon="10.7931617"><ele>145.5</ele><time>2026-04-18T08:02:33.551Z</time></trkpt><trkpt lat="43.5580617" lon="10.7933417"><ele>147.75</ele><time>2026-04-18T08:02:34.552Z</time></trkpt><trkpt lat="43.5581033" lon="10.7934983"><ele>150.0</ele><time>2026-04-18T08:02:35.551Z</time></trkpt><trkpt lat="43.55815" lon="10.7936517"><ele>150.0</ele><time>2026-04-18T08:02:36.551Z</time></trkpt><trkpt lat="43.5581783" lon="10.79379"><ele>150.0</ele><time>2026-04-18T08:02:37.551Z</time></trkpt><trkpt lat="43.55819" lon="10.7939067"><ele>150.0</ele><time>2026-04-18T08:02:38.552Z</time></trkpt><trkpt lat="43.5582017" lon="10.79402"><ele>150.0</ele><time>2026-04-18T08:02:39.551Z</time></trkpt><trkpt lat="43.5582217" lon="10.7941317"><ele>150.0</ele><time>2026-04-18T08:02:40.551Z</time></trkpt><trkpt lat="43.5582483" lon="10.7942333"><ele>150.0</ele><time>2026-04-18T08:02:41.551Z</time></trkpt><trkpt lat="43.5582883" lon="10.79434"><ele>148.25</ele><time>2026-04-18T08:02:42.551Z</time></trkpt><trkpt lat="43.5583383" lon="10.7944533"><ele>146.5</ele><time>2026-04-18T08:02:43.551Z</time></trkpt><trkpt lat="43.5584083" lon="10.794585"><ele>144.75</ele><time>2026-04-18T08:02:44.551Z</time></trkpt><trkpt lat="43.5584767" lon="10.7947317"><ele>143.0</ele><time>2026-04-18T08:02:45.551Z</time></trkpt><trkpt lat="43.5585433" lon="10.7948867"><ele>143.0</ele><time>2026-04-18T08:02:46.551Z</time></trkpt><trkpt lat="43.5586067" lon="10.7950183"><ele>143.0</ele><time>2026-04-18T08:02:47.551Z</time></trkpt><trkpt lat="43.5586767" lon="10.7951367"><ele>143.0</ele><time>2026-04-18T08:02:48.551Z</time></trkpt><trkpt lat="43.5587533" lon="10.7952517"><ele>143.0</ele><time>2026-04-18T08:02:49.551Z</time></trkpt><trkpt lat="43.558835" lon="10.7953533"><ele>143.0</ele><time>2026-04-18T08:02:50.552Z</time></trkpt><trkpt lat="43.55893" lon="10.7954567"><ele>145.0</ele><time>2026-04-18T08:02:51.551Z</time></trkpt><trkpt lat="43.5590383" lon="10.7955583"><ele>147.0</ele><time>2026-04-18T08:02:52.551Z</time></trkpt><trkpt lat="43.5591433" lon="10.795645"><ele>149.0</ele><time>2026-04-18T08:02:53.551Z</time></trkpt><trkpt lat="43.55924" lon="10.79572"><ele>151.0</ele><time>2026-04-18T08:02:54.551Z</time></trkpt><trkpt lat="43.55933" lon="10.7957967"><ele>151.0</ele><time>2026-04-18T08:02:55.551Z</time></trkpt><trkpt lat="43.559395" lon="10.7958633"><ele>151.0</ele><time>2026-04-18T08:02:56.552Z</time></trkpt><trkpt lat="43.5594633" lon="10.7959467"><ele>151.0</ele><time>2026-04-18T08:02:57.551Z</time></trkpt><trkpt lat="43.55953" lon="10.7960567"><ele>151.0</ele><time>2026-04-18T08:02:58.551Z</time></trkpt><trkpt lat="43.5595983" lon="10.7961883"><ele>151.0</ele><time>2026-04-18T08:02:59.551Z</time></trkpt><trkpt lat="43.5596583" lon="10.7963233"><ele>155.25</ele><time>2026-04-18T08:03:00.551Z</time></trkpt><trkpt lat="43.5597217" lon="10.796445"><ele>159.5</ele><time>2026-04-18T08:03:01.551Z</time></trkpt><trkpt lat="43.5597933" lon="10.7965683"><ele>163.75</ele><time>2026-04-18T08:03:02.552Z</time></trkpt><trkpt lat="43.5598717" lon="10.7966917"><ele>168.0</ele><time>2026-04-18T08:03:03.551Z</time></trkpt><trkpt lat="43.5599567" lon="10.7968183"><ele>165.8</ele><time>2026-04-18T08:03:04.551Z</time></trkpt><trkpt lat="43.56004" lon="10.7969483"><ele>163.60000000000002</ele><time>2026-04-18T08:03:05.551Z</time></trkpt><trkpt lat="43.5601117" lon="10.7970683"><ele>161.39999999999998</ele><time>2026-04-18T08:03:06.551Z</time></trkpt><trkpt lat="43.5601683" lon="10.797165"><ele>159.2</ele><time>2026-04-18T08:03:07.551Z</time></trkpt><trkpt lat="43.5602233" lon="10.797245"><ele>157.0</ele><time>2026-04-18T08:03:08.551Z</time></trkpt><trkpt lat="43.56028" lon="10.7973117"><ele>157.0</ele><time>2026-04-18T08:03:09.551Z</time></trkpt><trkpt lat="43.560355" lon="10.7973733"><ele>157.0</ele><time>2026-04-18T08:03:10.551Z</time></trkpt><trkpt lat="43.56044" lon="10.7974167"><ele>157.0</ele><time>2026-04-18T08:03:11.552Z</time></trkpt><trkpt lat="43.5605267" lon="10.797455"><ele>157.0</ele><time>2026-04-18T08:03:12.551Z</time></trkpt><trkpt lat="43.560625" lon="10.7974767"><ele>157.0</ele><time>2026-04-18T08:03:13.551Z</time></trkpt><trkpt lat="43.5607433" lon="10.7974817"><ele>159.75</ele><time>2026-04-18T08:03:14.551Z</time></trkpt><trkpt lat="43.5608733" lon="10.797475"><ele>162.5</ele><time>2026-04-18T08:03:15.551Z</time></trkpt><trkpt lat="43.560975" lon="10.797425"><ele>165.25</ele><time>2026-04-18T08:03:16.551Z</time></trkpt><trkpt lat="43.5611" lon="10.797445"><ele>168.0</ele><time>2026-04-18T08:03:17.551Z</time></trkpt><trkpt lat="43.5612217" lon="10.7974717"><ele>168.0</ele><time>2026-04-18T08:03:18.551Z</time></trkpt><trkpt lat="43.5613433" lon="10.7974983"><ele>168.0</ele><time>2026-04-18T08:03:19.552Z</time></trkpt><trkpt lat="43.5614733" lon="10.7975283"><ele>168.0</ele><time>2026-04-18T08:03:20.552Z</time></trkpt><trkpt lat="43.5616017" lon="10.7975733"><ele>168.0</ele><time>2026-04-18T08:03:21.551Z</time></trkpt><trkpt lat="43.5617367" lon="10.797615"><ele>168.0</ele><time>2026-04-18T08:03:22.551Z</time></trkpt><trkpt lat="43.5618583" lon="10.7976533"><ele>168.0</ele><time>2026-04-18T08:03:23.552Z</time></trkpt><trkpt lat="43.5619617" lon="10.7976883"><ele>168.0</ele><time>2026-04-18T08:03:24.551Z</time></trkpt><trkpt lat="43.5620533" lon="10.7977167"><ele>168.0</ele><time>2026-04-18T08:03:25.551Z</time></trkpt><trkpt lat="43.5621333" lon="10.7977467"><ele>168.0</ele><time>2026-04-18T08:03:26.551Z</time></trkpt><trkpt lat="43.5622017" lon="10.7977833"><ele>170.0</ele><time>2026-04-18T08:03:27.551Z</time></trkpt><trkpt lat="43.562265" lon="10.7978333"><ele>172.0</ele><time>2026-04-18T08:03:28.552Z</time></trkpt><trkpt lat="43.5623283" lon="10.797885"><ele>174.0</ele><time>2026-04-18T08:03:29.551Z</time></trkpt><trkpt lat="43.5624083" lon="10.797965"><ele>176.0</ele><time>2026-04-18T08:03:30.551Z</time></trkpt><trkpt lat="43.5624933" lon="10.7980517"><ele>178.0</ele><time>2026-04-18T08:03:31.551Z</time></trkpt><trkpt lat="43.56259" lon="10.79816"><ele>178.0</ele><time>2026-04-18T08:03:32.551Z</time></trkpt><trkpt lat="43.5626967" lon="10.798265"><ele>178.0</ele><time>2026-04-18T08:03:33.551Z</time></trkpt><trkpt lat="43.5628117" lon="10.7983783"><ele>178.0</ele><time>2026-04-18T08:03:34.551Z</time></trkpt><trkpt lat="43.5629317" lon="10.7984817"><ele>178.0</ele><time>2026-04-18T08:03:35.552Z</time></trkpt><trkpt lat="43.5630333" lon="10.798585"><ele>180.2</ele><time>2026-04-18T08:03:36.552Z</time></trkpt><trkpt lat="43.5631333" lon="10.7986783"><ele>182.4</ele><time>2026-04-18T08:03:37.552Z</time></trkpt><trkpt lat="43.5632217" lon="10.7987633"><ele>184.6</ele><time>2026-04-18T08:03:38.551Z</time></trkpt><trkpt lat="43.5633183" lon="10.7988267"><ele>186.79999999999998</ele><time>2026-04-18T08:03:39.551Z</time></trkpt><trkpt lat="43.5634083" lon="10.798895"><ele>189.0</ele><time>2026-04-18T08:03:40.551Z</time></trkpt><trkpt lat="43.5634767" lon="10.79895"><ele>189.0</ele><time>2026-04-18T08:03:41.551Z</time></trkpt><trkpt lat="43.563545" lon="10.799015"><ele>189.0</ele><time>2026-04-18T08:03:42.551Z</time></trkpt><trkpt lat="43.5636117" lon="10.7990917"><ele>189.0</ele><time>2026-04-18T08:03:43.552Z</time></trkpt><trkpt lat="43.5636717" lon="10.7991633"><ele>189.0</ele><time>2026-04-18T08:03:44.551Z</time></trkpt><trkpt lat="43.5637217" lon="10.7992467"><ele>189.0</ele><time>2026-04-18T08:03:45.551Z</time></trkpt><trkpt lat="43.56376" lon="10.7993417"><ele>189.0</ele><time>2026-04-18T08:03:46.551Z</time></trkpt><trkpt lat="43.5637917" lon="10.7994383"><ele>188.33333333333334</ele><time>2026-04-18T08:03:47.551Z</time></trkpt><trkpt lat="43.563825" lon="10.7995517"><ele>187.66666666666666</ele><time>2026-04-18T08:03:48.551Z</time></trkpt><trkpt lat="43.5638583" lon="10.7996617"><ele>187.0</ele><time>2026-04-18T08:03:49.551Z</time></trkpt><trkpt lat="43.563905" lon="10.7997567"><ele>186.33333333333331</ele><time>2026-04-18T08:03:50.551Z</time></trkpt><trkpt lat="43.5639717" lon="10.7998383"><ele>185.66666666666666</ele><time>2026-04-18T08:03:51.551Z</time></trkpt><trkpt lat="43.56405" lon="10.79991"><ele>185.0</ele><time>2026-04-18T08:03:52.551Z</time></trkpt><trkpt lat="43.5641433" lon="10.799975"><ele>185.0</ele><time>2026-04-18T08:03:53.551Z</time></trkpt><trkpt lat="43.564245" lon="10.8000467"><ele>185.0</ele><time>2026-04-18T08:03:54.551Z</time></trkpt><trkpt lat="43.5643517" lon="10.8001067"><ele>185.0</ele><time>2026-04-18T08:03:55.551Z</time></trkpt><trkpt lat="43.5644533" lon="10.80016"><ele>185.0</ele><time>2026-04-18T08:03:56.551Z</time></trkpt><trkpt lat="43.5645433" lon="10.8002117"><ele>185.0</ele><time>2026-04-18T08:03:57.551Z</time></trkpt><trkpt lat="43.5646383" lon="10.80026"><ele>184.16666666666666</ele><time>2026-04-18T08:03:58.551Z</time></trkpt><trkpt lat="43.564735" lon="10.8003033"><ele>183.33333333333331</ele><time>2026-04-18T08:03:59.551Z</time></trkpt><trkpt lat="43.5648183" lon="10.8003417"><ele>182.5</ele><time>2026-04-18T08:04:00.551Z</time></trkpt><trkpt lat="43.564895" lon="10.80037"><ele>181.66666666666666</ele><time>2026-04-18T08:04:01.551Z</time></trkpt><trkpt lat="43.5649733" lon="10.80039"><ele>180.83333333333334</ele><time>2026-04-18T08:04:02.551Z</time></trkpt><trkpt lat="43.56505" lon="10.80041"><ele>180.0</ele><time>2026-04-18T08:04:03.551Z</time></trkpt><trkpt lat="43.5651283" lon="10.8004183"><ele>180.0</ele><time>2026-04-18T08:04:04.551Z</time></trkpt><trkpt lat="43.5651983" lon="10.8004183"><ele>180.0</ele><time>2026-04-18T08:04:05.552Z</time></trkpt><trkpt lat="43.565265" lon="10.8004167"><ele>180.0</ele><time>2026-04-18T08:04:06.551Z</time></trkpt><trkpt lat="43.5653283" lon="10.8004183"><ele>180.0</ele><time>2026-04-18T08:04:07.551Z</time></trkpt><trkpt lat="43.5654" lon="10.80043"><ele>180.0</ele><time>2026-04-18T08:04:08.551Z</time></trkpt><trkpt lat="43.565475" lon="10.800455"><ele>180.0</ele><time>2026-04-18T08:04:09.551Z</time></trkpt><trkpt lat="43.56555" lon="10.8004933"><ele>180.0</ele><time>2026-04-18T08:04:10.551Z</time></trkpt><trkpt lat="43.5656083" lon="10.8005533"><ele>180.4</ele><time>2026-04-18T08:04:11.551Z</time></trkpt><trkpt lat="43.5656617" lon="10.8006317"><ele>180.8</ele><time>2026-04-18T08:04:12.551Z</time></trkpt><trkpt lat="43.56573" lon="10.8007217"><ele>181.2</ele><time>2026-04-18T08:04:13.551Z</time></trkpt><trkpt lat="43.5658033" lon="10.8008117"><ele>181.6</ele><time>2026-04-18T08:04:14.551Z</time></trkpt><trkpt lat="43.56589" lon="10.80089"><ele>182.0</ele><time>2026-04-18T08:04:15.551Z</time></trkpt><trkpt lat="43.5659917" lon="10.8009733"><ele>182.25</ele><time>2026-04-18T08:04:16.551Z</time></trkpt><trkpt lat="43.566105" lon="10.8010567"><ele>182.5</ele><time>2026-04-18T08:04:17.552Z</time></trkpt><trkpt lat="43.56624" lon="10.8011417"><ele>182.75</ele><time>2026-04-18T08:04:18.551Z</time></trkpt><trkpt lat="43.56638" lon="10.8012333"><ele>183.0</ele><time>2026-04-18T08:04:19.552Z</time></trkpt><trkpt lat="43.566515" lon="10.80132"><ele>183.0</ele><time>2026-04-18T08:04:20.551Z</time></trkpt><trkpt lat="43.566655" lon="10.801405"><ele>183.0</ele><time>2026-04-18T08:04:21.551Z</time></trkpt><trkpt lat="43.5668183" lon="10.8014967"><ele>183.0</ele><time>2026-04-18T08:04:22.551Z</time></trkpt><trkpt lat="43.5669883" lon="10.8015983"><ele>185.0</ele><time>2026-04-18T08:04:23.551Z</time></trkpt><trkpt lat="43.5671583" lon="10.801695"><ele>187.0</ele><time>2026-04-18T08:04:24.551Z</time></trkpt><trkpt lat="43.567315" lon="10.8017683"><ele>189.0</ele><time>2026-04-18T08:04:25.551Z</time></trkpt><trkpt lat="43.5674517" lon="10.8018217"><ele>187.79999999999998</ele><time>2026-04-18T08:04:26.551Z</time></trkpt><trkpt lat="43.5675817" lon="10.801855"><ele>186.6</ele><time>2026-04-18T08:04:27.551Z</time></trkpt><trkpt lat="43.5676917" lon="10.8018783"><ele>185.4</ele><time>2026-04-18T08:04:28.551Z</time></trkpt><trkpt lat="43.567795" lon="10.80189"><ele>184.2</ele><time>2026-04-18T08:04:29.551Z</time></trkpt><trkpt lat="43.5678867" lon="10.8018967"><ele>183.0</ele><time>2026-04-18T08:04:30.551Z</time></trkpt><trkpt lat="43.5679717" lon="10.8019033"><ele>182.66666666666666</ele><time>2026-04-18T08:04:31.551Z</time></trkpt><trkpt lat="43.56806" lon="10.8019"><ele>182.33333333333334</ele><time>2026-04-18T08:04:32.552Z</time></trkpt><trkpt lat="43.5681433" lon="10.8019033"><ele>182.0</ele><time>2026-04-18T08:04:33.551Z</time></trkpt><trkpt lat="43.56822" lon="10.8019067"><ele>181.66666666666669</ele><time>2026-04-18T08:04:34.551Z</time></trkpt><trkpt lat="43.568305" lon="10.8019133"><ele>181.33333333333334</ele><time>2026-04-18T08:04:35.551Z</time></trkpt><trkpt lat="43.5683967" lon="10.8019233"><ele>181.0</ele><time>2026-04-18T08:04:36.551Z</time></trkpt><trkpt lat="43.5685067" lon="10.8019383"><ele>181.0</ele><time>2026-04-18T08:04:37.551Z</time></trkpt><trkpt lat="43.5686317" lon="10.801955"><ele>181.0</ele><time>2026-04-18T08:04:38.551Z</time></trkpt><trkpt lat="43.5687817" lon="10.8019417"><ele>181.0</ele><time>2026-04-18T08:04:39.552Z</time></trkpt><trkpt lat="43.5689283" lon="10.8019217"><ele>181.0</ele><time>2026-04-18T08:04:40.551Z</time></trkpt><trkpt lat="43.5690617" lon="10.801885"><ele>183.60000000000002</ele><time>2026-04-18T08:04:41.551Z</time></trkpt><trkpt lat="43.56918" lon="10.8018417"><ele>186.2</ele><time>2026-04-18T08:04:42.551Z</time></trkpt><trkpt lat="43.5692967" lon="10.80181"><ele>188.8</ele><time>2026-04-18T08:04:43.551Z</time></trkpt><trkpt lat="43.569395" lon="10.8018067"><ele>191.39999999999998</ele><time>2026-04-18T08:04:44.551Z</time></trkpt><trkpt lat="43.5694783" lon="10.8018533"><ele>194.0</ele><time>2026-04-18T08:04:45.551Z</time></trkpt><trkpt lat="43.5695483" lon="10.8019417"><ele>199.0</ele><time>2026-04-18T08:04:46.551Z</time></trkpt><trkpt lat="43.5696133" lon="10.8020433"><ele>204.0</ele><time>2026-04-18T08:04:47.551Z</time></trkpt><trkpt lat="43.569665" lon="10.8021667"><ele>208.99999999999997</ele><time>2026-04-18T08:04:48.551Z</time></trkpt><trkpt lat="43.569715" lon="10.8022867"><ele>214.0</ele><time>2026-04-18T08:04:49.551Z</time></trkpt><trkpt lat="43.56977" lon="10.8024"><ele>219.0</ele><time>2026-04-18T08:04:50.551Z</time></trkpt><trkpt lat="43.5698067" lon="10.80253"><ele>219.0</ele><time>2026-04-18T08:04:51.551Z</time></trkpt><trkpt lat="43.5698517" lon="10.8026583"><ele>218.99999999999997</ele><time>2026-04-18T08:04:52.551Z</time></trkpt><trkpt lat="43.5699033" lon="10.8027917"><ele>218.99999999999997</ele><time>2026-04-18T08:04:53.551Z</time></trkpt><trkpt lat="43.569965" lon="10.8029283"><ele>219.0</ele><time>2026-04-18T08:04:54.551Z</time></trkpt><trkpt lat="43.5700267" lon="10.80305"><ele>219.0</ele><time>2026-04-18T08:04:55.551Z</time></trkpt><trkpt lat="43.5700983" lon="10.8031633"><ele>216.5</ele><time>2026-04-18T08:04:56.551Z</time></trkpt><trkpt lat="43.57018" lon="10.8032583"><ele>214.0</ele><time>2026-04-18T08:04:57.551Z</time></trkpt><trkpt lat="43.5702867" lon="10.80334"><ele>211.5</ele><time>2026-04-18T08:04:58.551Z</time></trkpt><trkpt lat="43.5704167" lon="10.8034117"><ele>209.0</ele><time>2026-04-18T08:04:59.551Z</time></trkpt><trkpt lat="43.57053" lon="10.8034717"><ele>207.25</ele><time>2026-04-18T08:05:00.551Z</time></trkpt><trkpt lat="43.5706483" lon="10.8035317"><ele>205.5</ele><time>2026-04-18T08:05:01.551Z</time></trkpt><trkpt lat="43.5707583" lon="10.8036033"><ele>203.75</ele><time>2026-04-18T08:05:02.551Z</time></trkpt><trkpt lat="43.5708483" lon="10.803695"><ele>202.0</ele><time>2026-04-18T08:05:03.552Z</time></trkpt><trkpt lat="43.5709267" lon="10.803805"><ele>202.0</ele><time>2026-04-18T08:05:04.552Z</time></trkpt><trkpt lat="43.5709933" lon="10.80393"><ele>202.0</ele><time>2026-04-18T08:05:05.552Z</time></trkpt><trkpt lat="43.5710317" lon="10.8040733"><ele>202.0</ele><time>2026-04-18T08:05:06.551Z</time></trkpt><trkpt lat="43.571065" lon="10.8042433"><ele>202.0</ele><time>2026-04-18T08:05:07.552Z</time></trkpt><trkpt lat="43.57108" lon="10.8044267"><ele>198.66666666666666</ele><time>2026-04-18T08:05:08.551Z</time></trkpt><trkpt lat="43.5710783" lon="10.8046383"><ele>195.33333333333331</ele><time>2026-04-18T08:05:09.551Z</time></trkpt><trkpt lat="43.5710683" lon="10.8048467"><ele>192.0</ele><time>2026-04-18T08:05:10.551Z</time></trkpt><trkpt lat="43.5710483" lon="10.8050567"><ele>189.25</ele><time>2026-04-18T08:05:11.552Z</time></trkpt><trkpt lat="43.5710267" lon="10.8052633"><ele>186.5</ele><time>2026-04-18T08:05:12.551Z</time></trkpt><trkpt lat="43.571005" lon="10.805465"><ele>183.75</ele><time>2026-04-18T08:05:13.552Z</time></trkpt><trkpt lat="43.5709917" lon="10.8056617"><ele>181.0</ele><time>2026-04-18T08:05:14.551Z</time></trkpt><trkpt lat="43.57099" lon="10.8058717"><ele>179.33333333333334</ele><time>2026-04-18T08:05:15.551Z</time></trkpt><trkpt lat="43.5710033" lon="10.8061033"><ele>177.66666666666666</ele><time>2026-04-18T08:05:16.551Z</time></trkpt><trkpt lat="43.5710333" lon="10.8063317"><ele>176.0</ele><time>2026-04-18T08:05:17.551Z</time></trkpt><trkpt lat="43.57107" lon="10.80656"><ele>176.0</ele><time>2026-04-18T08:05:18.551Z</time></trkpt><trkpt lat="43.5711" lon="10.8067683"><ele>176.0</ele><time>2026-04-18T08:05:19.551Z</time></trkpt><trkpt lat="43.5711317" lon="10.806955"><ele>176.0</ele><time>2026-04-18T08:05:20.552Z</time></trkpt><trkpt lat="43.5711617" lon="10.8071217"><ele>176.0</ele><time>2026-04-18T08:05:21.551Z</time></trkpt><trkpt lat="43.57117" lon="10.8072817"><ele>176.0</ele><time>2026-04-18T08:05:22.551Z</time></trkpt><trkpt lat="43.5711433" lon="10.80745"><ele>176.0</ele><time>2026-04-18T08:05:23.551Z</time></trkpt><trkpt lat="43.5710967" lon="10.80762"><ele>176.0</ele><time>2026-04-18T08:05:24.551Z</time></trkpt><trkpt lat="43.571025" lon="10.807805"><ele>176.0</ele><time>2026-04-18T08:05:25.551Z</time></trkpt><trkpt lat="43.57093" lon="10.8079717"><ele>176.0</ele><time>2026-04-18T08:05:26.551Z</time></trkpt><trkpt lat="43.570835" lon="10.8081267"><ele>176.0</ele><time>2026-04-18T08:05:27.551Z</time></trkpt><trkpt lat="43.57074" lon="10.8082833"><ele>176.0</ele><time>2026-04-18T08:05:28.551Z</time></trkpt><trkpt lat="43.57064" lon="10.808445"><ele>176.0</ele><time>2026-04-18T08:05:29.552Z</time></trkpt><trkpt lat="43.5705483" lon="10.8085833"><ele>174.5</ele><time>2026-04-18T08:05:30.551Z</time></trkpt><trkpt lat="43.5704483" lon="10.8086883"><ele>173.0</ele><time>2026-04-18T08:05:31.551Z</time></trkpt><trkpt lat="43.570345" lon="10.8087667"><ele>171.5</ele><time>2026-04-18T08:05:32.551Z</time></trkpt><trkpt lat="43.5702433" lon="10.808825"><ele>170.0</ele><time>2026-04-18T08:05:33.552Z</time></trkpt><trkpt lat="43.570135" lon="10.8088483"><ele>170.0</ele><time>2026-04-18T08:05:34.551Z</time></trkpt><trkpt lat="43.570015" lon="10.8088183"><ele>170.0</ele><time>2026-04-18T08:05:35.551Z</time></trkpt><trkpt lat="43.56989" lon="10.808765"><ele>170.0</ele><time>2026-04-18T08:05:36.551Z</time></trkpt><trkpt lat="43.569775" lon="10.8086933"><ele>170.0</ele><time>2026-04-18T08:05:37.551Z</time></trkpt><trkpt lat="43.5696683" lon="10.8086483"><ele>170.0</ele><time>2026-04-18T08:05:38.551Z</time></trkpt><trkpt lat="43.569565" lon="10.808635"><ele>170.0</ele><time>2026-04-18T08:05:39.551Z</time></trkpt><trkpt lat="43.56946" lon="10.8086567"><ele>170.0</ele><time>2026-04-18T08:05:40.552Z</time></trkpt><trkpt lat="43.5693567" lon="10.8087133"><ele>170.0</ele><time>2026-04-18T08:05:41.552Z</time></trkpt><trkpt lat="43.5692367" lon="10.808815"><ele>169.33333333333331</ele><time>2026-04-18T08:05:42.551Z</time></trkpt><trkpt lat="43.5690983" lon="10.808955"><ele>168.66666666666666</ele><time>2026-04-18T08:05:43.551Z</time></trkpt><trkpt lat="43.568975" lon="10.8091233"><ele>168.0</ele><time>2026-04-18T08:05:44.551Z</time></trkpt><trkpt lat="43.56888" lon="10.8092817"><ele>168.25</ele><time>2026-04-18T08:05:45.551Z</time></trkpt><trkpt lat="43.568785" lon="10.8094283"><ele>168.5</ele><time>2026-04-18T08:05:46.551Z</time></trkpt><trkpt lat="43.5687" lon="10.80956"><ele>168.75</ele><time>2026-04-18T08:05:47.552Z</time></trkpt><trkpt lat="43.5686183" lon="10.809675"><ele>169.0</ele><time>2026-04-18T08:05:48.551Z</time></trkpt><trkpt lat="43.5685367" lon="10.80977"><ele>169.0</ele><time>2026-04-18T08:05:49.552Z</time></trkpt><trkpt lat="43.5684483" lon="10.8098367"><ele>169.0</ele><time>2026-04-18T08:05:50.551Z</time></trkpt><trkpt lat="43.5683517" lon="10.8098833"><ele>169.0</ele><time>2026-04-18T08:05:51.551Z</time></trkpt><trkpt lat="43.5682467" lon="10.8099167"><ele>169.0</ele><time>2026-04-18T08:05:52.552Z</time></trkpt><trkpt lat="43.5681433" lon="10.809965"><ele>169.0</ele><time>2026-04-18T08:05:53.551Z</time></trkpt><trkpt lat="43.5680367" lon="10.810055"><ele>167.75</ele><time>2026-04-18T08:05:54.551Z</time></trkpt><trkpt lat="43.5679467" lon="10.81018"><ele>166.5</ele><time>2026-04-18T08:05:55.551Z</time></trkpt><trkpt lat="43.5678683" lon="10.8103317"><ele>165.25</ele><time>2026-04-18T08:05:56.55Z</time></trkpt><trkpt lat="43.5678017" lon="10.8104933"><ele>164.0</ele><time>2026-04-18T08:05:57.55Z</time></trkpt><trkpt lat="43.567755" lon="10.8106467"><ele>164.75</ele><time>2026-04-18T08:05:58.55Z</time></trkpt><trkpt lat="43.5677417" lon="10.810795"><ele>165.5</ele><time>2026-04-18T08:05:59.55Z</time></trkpt><trkpt lat="43.567755" lon="10.81095"><ele>166.25</ele><time>2026-04-18T08:06:00.55Z</time></trkpt><trkpt lat="43.5678067" lon="10.8111417"><ele>167.0</ele><time>2026-04-18T08:06:01.55Z</time></trkpt><trkpt lat="43.5678683" lon="10.8113617"><ele>167.0</ele><time>2026-04-18T08:06:02.55Z</time></trkpt><trkpt lat="43.567935" lon="10.8115933"><ele>167.0</ele><time>2026-04-18T08:06:03.55Z</time></trkpt><trkpt lat="43.5680017" lon="10.8118367"><ele>167.0</ele><time>2026-04-18T08:06:04.551Z</time></trkpt><trkpt lat="43.568065" lon="10.8120833"><ele>168.66666666666666</ele><time>2026-04-18T08:06:05.55Z</time></trkpt><trkpt lat="43.568135" lon="10.8123067"><ele>170.33333333333334</ele><time>2026-04-18T08:06:06.551Z</time></trkpt><trkpt lat="43.5681983" lon="10.8125017"><ele>172.0</ele><time>2026-04-18T08:06:07.55Z</time></trkpt><trkpt lat="43.5682283" lon="10.812675"><ele>172.0</ele><time>2026-04-18T08:06:08.55Z</time></trkpt><trkpt lat="43.5682167" lon="10.8128483"><ele>172.0</ele><time>2026-04-18T08:06:09.551Z</time></trkpt><trkpt lat="43.5681817" lon="10.81301"><ele>172.0</ele><time>2026-04-18T08:06:10.55Z</time></trkpt><trkpt lat="43.5681233" lon="10.813175"><ele>172.0</ele><time>2026-04-18T08:06:11.55Z</time></trkpt><trkpt lat="43.56807" lon="10.8133367"><ele>172.25</ele><time>2026-04-18T08:06:12.55Z</time></trkpt><trkpt lat="43.5680317" lon="10.8135133"><ele>172.5</ele><time>2026-04-18T08:06:13.55Z</time></trkpt><trkpt lat="43.5680067" lon="10.8137083"><ele>172.75</ele><time>2026-04-18T08:06:14.55Z</time></trkpt><trkpt lat="43.5680117" lon="10.8139417"><ele>173.0</ele><time>2026-04-18T08:06:15.55Z</time></trkpt><trkpt lat="43.5680333" lon="10.81422"><ele>174.66666666666666</ele><time>2026-04-18T08:06:16.55Z</time></trkpt><trkpt lat="43.56807" lon="10.8145133"><ele>176.33333333333334</ele><time>2026-04-18T08:06:17.551Z</time></trkpt><trkpt lat="43.5681" lon="10.814785"><ele>178.0</ele><time>2026-04-18T08:06:18.55Z</time></trkpt><trkpt lat="43.5681333" lon="10.815035"><ele>179.0</ele><time>2026-04-18T08:06:19.55Z</time></trkpt><trkpt lat="43.5681683" lon="10.8152667"><ele>180.0</ele><time>2026-04-18T08:06:20.55Z</time></trkpt><trkpt lat="43.5682033" lon="10.815485"><ele>181.0</ele><time>2026-04-18T08:06:21.55Z</time></trkpt><trkpt lat="43.568255" lon="10.815675"><ele>181.0</ele><time>2026-04-18T08:06:22.551Z</time></trkpt><trkpt lat="43.5683233" lon="10.8158567"><ele>181.0</ele><time>2026-04-18T08:06:23.55Z</time></trkpt><trkpt lat="43.5683933" lon="10.8160233"><ele>181.0</ele><time>2026-04-18T08:06:24.55Z</time></trkpt><trkpt lat="43.5684633" lon="10.8161767"><ele>181.0</ele><time>2026-04-18T08:06:25.551Z</time></trkpt><trkpt lat="43.56853" lon="10.816325"><ele>181.25</ele><time>2026-04-18T08:06:26.55Z</time></trkpt><trkpt lat="43.5686" lon="10.8164717"><ele>181.5</ele><time>2026-04-18T08:06:27.55Z</time></trkpt><trkpt lat="43.5686867" lon="10.81662"><ele>181.75</ele><time>2026-04-18T08:06:28.55Z</time></trkpt><trkpt lat="43.5687633" lon="10.816785"><ele>182.0</ele><time>2026-04-18T08:06:29.55Z</time></trkpt><trkpt lat="43.5688433" lon="10.81696"><ele>182.0</ele><time>2026-04-18T08:06:30.55Z</time></trkpt><trkpt lat="43.568925" lon="10.8171433"><ele>182.0</ele><time>2026-04-18T08:06:31.55Z</time></trkpt><trkpt lat="43.56901" lon="10.81734"><ele>182.0</ele><time>2026-04-18T08:06:32.55Z</time></trkpt><trkpt lat="43.5690917" lon="10.8175167"><ele>179.5</ele><time>2026-04-18T08:06:33.55Z</time></trkpt><trkpt lat="43.569155" lon="10.8176933"><ele>177.0</ele><time>2026-04-18T08:06:34.55Z</time></trkpt><trkpt lat="43.5692233" lon="10.8178667"><ele>174.5</ele><time>2026-04-18T08:06:35.551Z</time></trkpt><trkpt lat="43.5693" lon="10.818035"><ele>172.0</ele><time>2026-04-18T08:06:36.55Z</time></trkpt><trkpt lat="43.5693667" lon="10.8181933"><ele>172.0</ele><time>2026-04-18T08:06:37.55Z</time></trkpt><trkpt lat="43.5694233" lon="10.818345"><ele>172.0</ele><time>2026-04-18T08:06:38.55Z</time></trkpt><trkpt lat="43.569465" lon="10.81851"><ele>172.0</ele><time>2026-04-18T08:06:39.55Z</time></trkpt><trkpt lat="43.56949" lon="10.818675"><ele>172.0</ele><time>2026-04-18T08:06:40.55Z</time></trkpt><trkpt lat="43.5694933" lon="10.8188517"><ele>171.5</ele><time>2026-04-18T08:06:41.55Z</time></trkpt><trkpt lat="43.5694767" lon="10.8190133"><ele>171.0</ele><time>2026-04-18T08:06:42.55Z</time></trkpt><trkpt lat="43.5694483" lon="10.8191683"><ele>170.5</ele><time>2026-04-18T08:06:43.55Z</time></trkpt><trkpt lat="43.5693733" lon="10.8193367"><ele>170.0</ele><time>2026-04-18T08:06:44.55Z</time></trkpt><trkpt lat="43.5692867" lon="10.81952"><ele>169.66666666666666</ele><time>2026-04-18T08:06:45.55Z</time></trkpt><trkpt lat="43.5692" lon="10.8197083"><ele>169.33333333333334</ele><time>2026-04-18T08:06:46.55Z</time></trkpt><trkpt lat="43.5691183" lon="10.8198783"><ele>169.0</ele><time>2026-04-18T08:06:47.55Z</time></trkpt><trkpt lat="43.5690433" lon="10.8200417"><ele>167.6</ele><time>2026-04-18T08:06:48.55Z</time></trkpt><trkpt lat="43.5689717" lon="10.8201967"><ele>166.2</ele><time>2026-04-18T08:06:49.55Z</time></trkpt><trkpt lat="43.5689233" lon="10.82034"><ele>164.79999999999998</ele><time>2026-04-18T08:06:50.55Z</time></trkpt><trkpt lat="43.5688933" lon="10.82047"><ele>163.39999999999998</ele><time>2026-04-18T08:06:51.55Z</time></trkpt><trkpt lat="43.5688883" lon="10.8206067"><ele>162.0</ele><time>2026-04-18T08:06:52.55Z</time></trkpt><trkpt lat="43.5689" lon="10.8207683"><ele>162.0</ele><time>2026-04-18T08:06:53.55Z</time></trkpt><trkpt lat="43.568925" lon="10.82096"><ele>162.0</ele><time>2026-04-18T08:06:54.55Z</time></trkpt><trkpt lat="43.5689617" lon="10.8211883"><ele>162.0</ele><time>2026-04-18T08:06:55.55Z</time></trkpt><trkpt lat="43.569005" lon="10.8214183"><ele>159.0</ele><time>2026-04-18T08:06:56.55Z</time></trkpt><trkpt lat="43.5690517" lon="10.82165"><ele>156.0</ele><time>2026-04-18T08:06:57.55Z</time></trkpt><trkpt lat="43.5690817" lon="10.821855"><ele>153.0</ele><time>2026-04-18T08:06:58.55Z</time></trkpt><trkpt lat="43.5690983" lon="10.82205"><ele>151.33333333333334</ele><time>2026-04-18T08:06:59.55Z</time></trkpt><trkpt lat="43.5691017" lon="10.8222517"><ele>149.66666666666669</ele><time>2026-04-18T08:07:00.55Z</time></trkpt><trkpt lat="43.56909" lon="10.8224817"><ele>148.0</ele><time>2026-04-18T08:07:01.55Z</time></trkpt><trkpt lat="43.569075" lon="10.8227383"><ele>147.33333333333334</ele><time>2026-04-18T08:07:02.55Z</time></trkpt><trkpt lat="43.5690483" lon="10.822985"><ele>146.66666666666666</ele><time>2026-04-18T08:07:03.551Z</time></trkpt><trkpt lat="43.5690233" lon="10.823235"><ele>146.0</ele><time>2026-04-18T08:07:04.55Z</time></trkpt><trkpt lat="43.5689933" lon="10.8234817"><ele>144.33333333333331</ele><time>2026-04-18T08:07:05.55Z</time></trkpt><trkpt lat="43.568955" lon="10.823725"><ele>142.66666666666666</ele><time>2026-04-18T08:07:06.55Z</time></trkpt><trkpt lat="43.568915" lon="10.8239533"><ele>141.0</ele><time>2026-04-18T08:07:07.551Z</time></trkpt><trkpt lat="43.568875" lon="10.8241667"><ele>140.0</ele><time>2026-04-18T08:07:08.551Z</time></trkpt><trkpt lat="43.5688433" lon="10.8243617"><ele>139.0</ele><time>2026-04-18T08:07:09.55Z</time></trkpt><trkpt lat="43.5688167" lon="10.82453"><ele>138.0</ele><time>2026-04-18T08:07:10.55Z</time></trkpt><trkpt lat="43.56879" lon="10.8246683"><ele>137.0</ele><time>2026-04-18T08:07:11.551Z</time></trkpt><trkpt lat="43.5687733" lon="10.824775"><ele>137.0</ele><time>2026-04-18T08:07:12.551Z</time></trkpt><trkpt lat="43.5687667" lon="10.824865"><ele>137.0</ele><time>2026-04-18T08:07:13.55Z</time></trkpt><trkpt lat="43.5687267" lon="10.8249717"><ele>137.0</ele><time>2026-04-18T08:07:15.55Z</time></trkpt><trkpt lat="43.5686567" lon="10.8250117"><ele>137.0</ele><time>2026-04-18T08:07:17.55Z</time></trkpt><trkpt lat="43.5685767" lon="10.8249183"><ele>137.0</ele><time>2026-04-18T08:07:19.551Z</time></trkpt><trkpt lat="43.5685567" lon="10.8248033"><ele>137.0</ele><time>2026-04-18T08:07:20.55Z</time></trkpt><trkpt lat="43.5685383" lon="10.82466"><ele>136.66666666666666</ele><time>2026-04-18T08:07:21.55Z</time></trkpt><trkpt lat="43.568515" lon="10.82447"><ele>136.33333333333334</ele><time>2026-04-18T08:07:22.55Z</time></trkpt><trkpt lat="43.568485" lon="10.82423"><ele>136.0</ele><time>2026-04-18T08:07:23.55Z</time></trkpt><trkpt lat="43.56845" lon="10.823995"><ele>134.33333333333334</ele><time>2026-04-18T08:07:24.55Z</time></trkpt><trkpt lat="43.56843" lon="10.8237533"><ele>132.66666666666666</ele><time>2026-04-18T08:07:25.551Z</time></trkpt><trkpt lat="43.56841" lon="10.8235317"><ele>131.0</ele><time>2026-04-18T08:07:26.55Z</time></trkpt><trkpt lat="43.5683967" lon="10.8233117"><ele>130.75</ele><time>2026-04-18T08:07:27.55Z</time></trkpt><trkpt lat="43.568385" lon="10.8231067"><ele>130.5</ele><time>2026-04-18T08:07:28.55Z</time></trkpt><trkpt lat="43.5683783" lon="10.8228983"><ele>130.25</ele><time>2026-04-18T08:07:29.55Z</time></trkpt><trkpt lat="43.568365" lon="10.8226967"><ele>130.0</ele><time>2026-04-18T08:07:30.55Z</time></trkpt><trkpt lat="43.56835" lon="10.8225117"><ele>130.0</ele><time>2026-04-18T08:07:31.55Z</time></trkpt><trkpt lat="43.5683267" lon="10.8223467"><ele>130.0</ele><time>2026-04-18T08:07:32.55Z</time></trkpt><trkpt lat="43.5682867" lon="10.8222033"><ele>130.0</ele><time>2026-04-18T08:07:33.55Z</time></trkpt><trkpt lat="43.5682317" lon="10.8220717"><ele>130.0</ele><time>2026-04-18T08:07:34.55Z</time></trkpt><trkpt lat="43.56816" lon="10.82196"><ele>130.0</ele><time>2026-04-18T08:07:35.55Z</time></trkpt><trkpt lat="43.5680683" lon="10.8218817"><ele>130.0</ele><time>2026-04-18T08:07:36.55Z</time></trkpt><trkpt lat="43.5679533" lon="10.821835"><ele>130.0</ele><time>2026-04-18T08:07:37.55Z</time></trkpt><trkpt lat="43.56784" lon="10.8218017"><ele>130.0</ele><time>2026-04-18T08:07:38.55Z</time></trkpt><trkpt lat="43.5677183" lon="10.8217683"><ele>129.0</ele><time>2026-04-18T08:07:39.55Z</time></trkpt><trkpt lat="43.567595" lon="10.82174"><ele>128.0</ele><time>2026-04-18T08:07:40.55Z</time></trkpt><trkpt lat="43.5674767" lon="10.8217067"><ele>127.0</ele><time>2026-04-18T08:07:41.55Z</time></trkpt><trkpt lat="43.5673583" lon="10.8216667"><ele>126.0</ele><time>2026-04-18T08:07:42.55Z</time></trkpt><trkpt lat="43.5672317" lon="10.8216383"><ele>126.0</ele><time>2026-04-18T08:07:43.55Z</time></trkpt><trkpt lat="43.5671067" lon="10.8216083"><ele>126.0</ele><time>2026-04-18T08:07:44.551Z</time></trkpt><trkpt lat="43.5669867" lon="10.82157"><ele>126.0</ele><time>2026-04-18T08:07:45.55Z</time></trkpt><trkpt lat="43.5668783" lon="10.8215383"><ele>126.0</ele><time>2026-04-18T08:07:46.55Z</time></trkpt><trkpt lat="43.5667717" lon="10.8215033"><ele>122.0</ele><time>2026-04-18T08:07:47.55Z</time></trkpt><trkpt lat="43.5666633" lon="10.8214583"><ele>118.0</ele><time>2026-04-18T08:07:48.55Z</time></trkpt><trkpt lat="43.5665417" lon="10.8214283"><ele>114.0</ele><time>2026-04-18T08:07:49.55Z</time></trkpt><trkpt lat="43.5664233" lon="10.821395"><ele>110.0</ele><time>2026-04-18T08:07:50.55Z</time></trkpt><trkpt lat="43.5663017" lon="10.8213567"><ele>107.25</ele><time>2026-04-18T08:07:51.551Z</time></trkpt><trkpt lat="43.5661917" lon="10.8213317"><ele>104.5</ele><time>2026-04-18T08:07:52.55Z</time></trkpt><trkpt lat="43.56608" lon="10.8213083"><ele>101.75</ele><time>2026-04-18T08:07:53.55Z</time></trkpt><trkpt lat="43.5659567" lon="10.8212817"><ele>99.0</ele><time>2026-04-18T08:07:54.55Z</time></trkpt><trkpt lat="43.565825" lon="10.8212517"><ele>99.0</ele><time>2026-04-18T08:07:55.551Z</time></trkpt><trkpt lat="43.5657" lon="10.8212083"><ele>99.0</ele><time>2026-04-18T08:07:56.55Z</time></trkpt><trkpt lat="43.5655783" lon="10.8211367"><ele>99.0</ele><time>2026-04-18T08:07:57.55Z</time></trkpt><trkpt lat="43.5654517" lon="10.82103"><ele>99.0</ele><time>2026-04-18T08:07:58.55Z</time></trkpt><trkpt lat="43.5653183" lon="10.8208933"><ele>99.0</ele><time>2026-04-18T08:07:59.551Z</time></trkpt><trkpt lat="43.5651733" lon="10.8207267"><ele>99.0</ele><time>2026-04-18T08:08:00.55Z</time></trkpt><trkpt lat="43.565025" lon="10.820565"><ele>99.0</ele><time>2026-04-18T08:08:01.55Z</time></trkpt><trkpt lat="43.5648783" lon="10.8204033"><ele>99.0</ele><time>2026-04-18T08:08:02.55Z</time></trkpt><trkpt lat="43.5647383" lon="10.820255"><ele>99.0</ele><time>2026-04-18T08:08:03.55Z</time></trkpt><trkpt lat="43.5646033" lon="10.8200967"><ele>99.0</ele><time>2026-04-18T08:08:04.55Z</time></trkpt><trkpt lat="43.56448" lon="10.819935"><ele>94.33333333333333</ele><time>2026-04-18T08:08:05.55Z</time></trkpt><trkpt lat="43.5643767" lon="10.8197583"><ele>89.66666666666666</ele><time>2026-04-18T08:08:06.55Z</time></trkpt><trkpt lat="43.5642833" lon="10.8195783"><ele>85.0</ele><time>2026-04-18T08:08:07.55Z</time></trkpt><trkpt lat="43.5641983" lon="10.81939"><ele>85.5</ele><time>2026-04-18T08:08:08.55Z</time></trkpt><trkpt lat="43.564115" lon="10.8192083"><ele>86.0</ele><time>2026-04-18T08:08:09.55Z</time></trkpt><trkpt lat="43.56404" lon="10.8190383"><ele>86.5</ele><time>2026-04-18T08:08:10.551Z</time></trkpt><trkpt lat="43.563975" lon="10.818895"><ele>87.0</ele><time>2026-04-18T08:08:11.55Z</time></trkpt><trkpt lat="43.563925" lon="10.8187717"><ele>87.0</ele><time>2026-04-18T08:08:12.55Z</time></trkpt><trkpt lat="43.5638867" lon="10.81868"><ele>87.0</ele><time>2026-04-18T08:08:13.55Z</time></trkpt><trkpt lat="43.5638367" lon="10.8186183"><ele>87.0</ele><time>2026-04-18T08:08:14.55Z</time></trkpt><trkpt lat="43.5637233" lon="10.8185467"><ele>87.0</ele><time>2026-04-18T08:08:16.55Z</time></trkpt><trkpt lat="43.5636583" lon="10.8185167"><ele>87.0</ele><time>2026-04-18T08:08:17.55Z</time></trkpt><trkpt lat="43.5635883" lon="10.81851"><ele>87.0</ele><time>2026-04-18T08:08:18.551Z</time></trkpt><trkpt lat="43.56351" lon="10.8185233"><ele>85.0</ele><time>2026-04-18T08:08:19.55Z</time></trkpt><trkpt lat="43.56342" lon="10.8185633"><ele>83.0</ele><time>2026-04-18T08:08:20.55Z</time></trkpt><trkpt lat="43.56332" lon="10.8186283"><ele>81.0</ele><time>2026-04-18T08:08:21.55Z</time></trkpt><trkpt lat="43.5632083" lon="10.818705"><ele>79.0</ele><time>2026-04-18T08:08:22.55Z</time></trkpt><trkpt lat="43.563075" lon="10.8187883"><ele>79.0</ele><time>2026-04-18T08:08:23.55Z</time></trkpt><trkpt lat="43.5629417" lon="10.8188817"><ele>79.0</ele><time>2026-04-18T08:08:24.55Z</time></trkpt><trkpt lat="43.5628067" lon="10.81898"><ele>79.0</ele><time>2026-04-18T08:08:25.55Z</time></trkpt><trkpt lat="43.5626867" lon="10.8190617"><ele>79.0</ele><time>2026-04-18T08:08:26.55Z</time></trkpt><trkpt lat="43.5625883" lon="10.819125"><ele>80.0</ele><time>2026-04-18T08:08:27.551Z</time></trkpt><trkpt lat="43.5624917" lon="10.819175"><ele>81.0</ele><time>2026-04-18T08:08:28.55Z</time></trkpt><trkpt lat="43.5624067" lon="10.819205"><ele>82.0</ele><time>2026-04-18T08:08:29.55Z</time></trkpt><trkpt lat="43.5623183" lon="10.8192117"><ele>83.0</ele><time>2026-04-18T08:08:30.551Z</time></trkpt><trkpt lat="43.5622233" lon="10.81919"><ele>84.0</ele><time>2026-04-18T08:08:31.55Z</time></trkpt><trkpt lat="43.562135" lon="10.8191367"><ele>84.0</ele><time>2026-04-18T08:08:32.55Z</time></trkpt><trkpt lat="43.5620517" lon="10.8190583"><ele>84.0</ele><time>2026-04-18T08:08:33.55Z</time></trkpt><trkpt lat="43.5619683" lon="10.8189433"><ele>84.0</ele><time>2026-04-18T08:08:34.55Z</time></trkpt><trkpt lat="43.5618783" lon="10.8187867"><ele>84.0</ele><time>2026-04-18T08:08:35.55Z</time></trkpt><trkpt lat="43.56178" lon="10.8186083"><ele>83.33333333333333</ele><time>2026-04-18T08:08:36.551Z</time></trkpt><trkpt lat="43.561675" lon="10.8184267"><ele>82.66666666666666</ele><time>2026-04-18T08:08:37.55Z</time></trkpt><trkpt lat="43.5615667" lon="10.8182533"><ele>82.0</ele><time>2026-04-18T08:08:38.55Z</time></trkpt><trkpt lat="43.5614567" lon="10.8180617"><ele>82.0</ele><time>2026-04-18T08:08:39.55Z</time></trkpt><trkpt lat="43.5613433" lon="10.8178617"><ele>82.0</ele><time>2026-04-18T08:08:40.55Z</time></trkpt><trkpt lat="43.5612367" lon="10.8176633"><ele>82.0</ele><time>2026-04-18T08:08:41.55Z</time></trkpt><trkpt lat="43.5611317" lon="10.81748"><ele>83.0</ele><time>2026-04-18T08:08:42.55Z</time></trkpt><trkpt lat="43.56103" lon="10.8173133"><ele>84.0</ele><time>2026-04-18T08:08:43.55Z</time></trkpt><trkpt lat="43.56093" lon="10.8171433"><ele>85.0</ele><time>2026-04-18T08:08:44.55Z</time></trkpt><trkpt lat="43.560835" lon="10.817"><ele>85.0</ele><time>2026-04-18T08:08:45.55Z</time></trkpt><trkpt lat="43.560735" lon="10.8168717"><ele>85.0</ele><time>2026-04-18T08:08:46.55Z</time></trkpt><trkpt lat="43.5606267" lon="10.816755"><ele>85.0</ele><time>2026-04-18T08:08:47.55Z</time></trkpt><trkpt lat="43.560505" lon="10.8166333"><ele>85.0</ele><time>2026-04-18T08:08:48.55Z</time></trkpt><trkpt lat="43.560375" lon="10.8165033"><ele>86.0</ele><time>2026-04-18T08:08:49.55Z</time></trkpt><trkpt lat="43.5602517" lon="10.8163817"><ele>87.0</ele><time>2026-04-18T08:08:50.55Z</time></trkpt><trkpt lat="43.5601233" lon="10.81626"><ele>88.0</ele><time>2026-04-18T08:08:51.55Z</time></trkpt><trkpt lat="43.5600033" lon="10.8161433"><ele>88.0</ele><time>2026-04-18T08:08:52.55Z</time></trkpt><trkpt lat="43.5598983" lon="10.8160333"><ele>88.0</ele><time>2026-04-18T08:08:53.55Z</time></trkpt><trkpt lat="43.5597983" lon="10.81593"><ele>88.0</ele><time>2026-04-18T08:08:54.55Z</time></trkpt><trkpt lat="43.5596967" lon="10.815845"><ele>88.0</ele><time>2026-04-18T08:08:55.55Z</time></trkpt><trkpt lat="43.55959" lon="10.815775"><ele>86.25</ele><time>2026-04-18T08:08:56.55Z</time></trkpt><trkpt lat="43.5594733" lon="10.81572"><ele>84.5</ele><time>2026-04-18T08:08:57.551Z</time></trkpt><trkpt lat="43.559345" lon="10.8156783"><ele>82.75</ele><time>2026-04-18T08:08:58.551Z</time></trkpt><trkpt lat="43.55921" lon="10.8156433"><ele>81.0</ele><time>2026-04-18T08:08:59.55Z</time></trkpt><trkpt lat="43.5590683" lon="10.8156017"><ele>81.0</ele><time>2026-04-18T08:09:00.55Z</time></trkpt><trkpt lat="43.5589083" lon="10.8155583"><ele>81.0</ele><time>2026-04-18T08:09:01.55Z</time></trkpt><trkpt lat="43.558735" lon="10.8155183"><ele>81.0</ele><time>2026-04-18T08:09:02.55Z</time></trkpt><trkpt lat="43.5585433" lon="10.81549"><ele>80.66666666666667</ele><time>2026-04-18T08:09:03.55Z</time></trkpt><trkpt lat="43.5583483" lon="10.8154533"><ele>80.33333333333334</ele><time>2026-04-18T08:09:04.55Z</time></trkpt><trkpt lat="43.5581383" lon="10.8154033"><ele>80.0</ele><time>2026-04-18T08:09:05.55Z</time></trkpt><trkpt lat="43.55792" lon="10.8153533"><ele>79.0</ele><time>2026-04-18T08:09:06.55Z</time></trkpt><trkpt lat="43.5577183" lon="10.8153"><ele>78.0</ele><time>2026-04-18T08:09:07.551Z</time></trkpt><trkpt lat="43.55753" lon="10.8152533"><ele>77.0</ele><time>2026-04-18T08:09:08.55Z</time></trkpt><trkpt lat="43.5573583" lon="10.8152267"><ele>77.0</ele><time>2026-04-18T08:09:09.55Z</time></trkpt><trkpt lat="43.557205" lon="10.8151983"><ele>77.0</ele><time>2026-04-18T08:09:10.55Z</time></trkpt><trkpt lat="43.5570717" lon="10.815185"><ele>77.0</ele><time>2026-04-18T08:09:11.55Z</time></trkpt><trkpt lat="43.556955" lon="10.815175"><ele>77.0</ele><time>2026-04-18T08:09:12.55Z</time></trkpt><trkpt lat="43.5568283" lon="10.8151833"><ele>78.0</ele><time>2026-04-18T08:09:13.55Z</time></trkpt><trkpt lat="43.55671" lon="10.8152033"><ele>79.0</ele><time>2026-04-18T08:09:14.55Z</time></trkpt><trkpt lat="43.556575" lon="10.8152417"><ele>80.0</ele><time>2026-04-18T08:09:15.55Z</time></trkpt><trkpt lat="43.5564333" lon="10.8152883"><ele>81.0</ele><time>2026-04-18T08:09:16.55Z</time></trkpt><trkpt lat="43.5562867" lon="10.8153417"><ele>83.0</ele><time>2026-04-18T08:09:17.55Z</time></trkpt><trkpt lat="43.55615" lon="10.8153967"><ele>85.0</ele><time>2026-04-18T08:09:18.55Z</time></trkpt><trkpt lat="43.5560167" lon="10.8154467"><ele>87.0</ele><time>2026-04-18T08:09:19.55Z</time></trkpt><trkpt lat="43.55589" lon="10.8154933"><ele>89.0</ele><time>2026-04-18T08:09:20.55Z</time></trkpt><trkpt lat="43.5557783" lon="10.8155333"><ele>89.0</ele><time>2026-04-18T08:09:21.55Z</time></trkpt><trkpt lat="43.55568" lon="10.8155767"><ele>89.0</ele><time>2026-04-18T08:09:22.55Z</time></trkpt><trkpt lat="43.5555967" lon="10.8156267"><ele>89.0</ele><time>2026-04-18T08:09:23.55Z</time></trkpt><trkpt lat="43.5555117" lon="10.8156983"><ele>89.0</ele><time>2026-04-18T08:09:24.55Z</time></trkpt><trkpt lat="43.555425" lon="10.8157883"><ele>89.0</ele><time>2026-04-18T08:09:25.549Z</time></trkpt><trkpt lat="43.555335" lon="10.8158967"><ele>91.0</ele><time>2026-04-18T08:09:26.549Z</time></trkpt><trkpt lat="43.555255" lon="10.816035"><ele>93.0</ele><time>2026-04-18T08:09:27.549Z</time></trkpt><trkpt lat="43.5551667" lon="10.8161933"><ele>95.0</ele><time>2026-04-18T08:09:28.549Z</time></trkpt><trkpt lat="43.5550733" lon="10.816375"><ele>97.0</ele><time>2026-04-18T08:09:29.549Z</time></trkpt><trkpt lat="43.55496" lon="10.816585"><ele>97.0</ele><time>2026-04-18T08:09:30.55Z</time></trkpt><trkpt lat="43.554835" lon="10.8168083"><ele>97.0</ele><time>2026-04-18T08:09:31.55Z</time></trkpt><trkpt lat="43.5547117" lon="10.8170267"><ele>97.0</ele><time>2026-04-18T08:09:32.549Z</time></trkpt><trkpt lat="43.5545917" lon="10.8172383"><ele>99.0</ele><time>2026-04-18T08:09:33.549Z</time></trkpt><trkpt lat="43.554465" lon="10.817475"><ele>101.0</ele><time>2026-04-18T08:09:34.549Z</time></trkpt><trkpt lat="43.5543383" lon="10.817705"><ele>103.0</ele><time>2026-04-18T08:09:35.55Z</time></trkpt><trkpt lat="43.5542233" lon="10.8179117"><ele>105.0</ele><time>2026-04-18T08:09:36.549Z</time></trkpt><trkpt lat="43.554115" lon="10.81811"><ele>107.0</ele><time>2026-04-18T08:09:37.549Z</time></trkpt><trkpt lat="43.5540067" lon="10.8183133"><ele>109.0</ele><time>2026-04-18T08:09:38.549Z</time></trkpt><trkpt lat="43.553895" lon="10.8185217"><ele>110.33333333333334</ele><time>2026-04-18T08:09:39.549Z</time></trkpt><trkpt lat="43.5537683" lon="10.8187383"><ele>111.66666666666666</ele><time>2026-04-18T08:09:40.549Z</time></trkpt><trkpt lat="43.5536433" lon="10.8189633"><ele>113.0</ele><time>2026-04-18T08:09:41.549Z</time></trkpt><trkpt lat="43.5535167" lon="10.8191917"><ele>116.0</ele><time>2026-04-18T08:09:42.549Z</time></trkpt><trkpt lat="43.5534033" lon="10.8194"><ele>119.0</ele><time>2026-04-18T08:09:43.55Z</time></trkpt><trkpt lat="43.5532833" lon="10.8196183"><ele>122.0</ele><time>2026-04-18T08:09:44.549Z</time></trkpt><trkpt lat="43.5531617" lon="10.8198417"><ele>122.0</ele><time>2026-04-18T08:09:45.549Z</time></trkpt><trkpt lat="43.5530483" lon="10.8200483"><ele>122.0</ele><time>2026-04-18T08:09:46.549Z</time></trkpt><trkpt lat="43.55294" lon="10.8202417"><ele>122.0</ele><time>2026-04-18T08:09:47.549Z</time></trkpt><trkpt lat="43.5528433" lon="10.8204133"><ele>123.33333333333333</ele><time>2026-04-18T08:09:48.549Z</time></trkpt><trkpt lat="43.552745" lon="10.82059"><ele>124.66666666666666</ele><time>2026-04-18T08:09:49.549Z</time></trkpt><trkpt lat="43.55265" lon="10.820775"><ele>126.0</ele><time>2026-04-18T08:09:50.549Z</time></trkpt><trkpt lat="43.55255" lon="10.820965"><ele>127.66666666666666</ele><time>2026-04-18T08:09:51.549Z</time></trkpt><trkpt lat="43.5524433" lon="10.821165"><ele>129.33333333333331</ele><time>2026-04-18T08:09:52.549Z</time></trkpt><trkpt lat="43.55234" lon="10.8213617"><ele>131.0</ele><time>2026-04-18T08:09:53.549Z</time></trkpt><trkpt lat="43.5522333" lon="10.8215583"><ele>131.0</ele><time>2026-04-18T08:09:54.549Z</time></trkpt><trkpt lat="43.55214" lon="10.8217317"><ele>131.0</ele><time>2026-04-18T08:09:55.549Z</time></trkpt><trkpt lat="43.55205" lon="10.8218917"><ele>131.0</ele><time>2026-04-18T08:09:56.549Z</time></trkpt><trkpt lat="43.5519567" lon="10.82205"><ele>132.5</ele><time>2026-04-18T08:09:57.55Z</time></trkpt><trkpt lat="43.55187" lon="10.822195"><ele>134.0</ele><time>2026-04-18T08:09:58.549Z</time></trkpt><trkpt lat="43.5517917" lon="10.8223317"><ele>135.5</ele><time>2026-04-18T08:09:59.55Z</time></trkpt><trkpt lat="43.55172" lon="10.82245"><ele>137.0</ele><time>2026-04-18T08:10:00.549Z</time></trkpt><trkpt lat="43.551655" lon="10.8225683"><ele>138.66666666666666</ele><time>2026-04-18T08:10:01.549Z</time></trkpt><trkpt lat="43.5516033" lon="10.8226783"><ele>140.33333333333331</ele><time>2026-04-18T08:10:02.549Z</time></trkpt><trkpt lat="43.5515433" lon="10.8227667"><ele>142.0</ele><time>2026-04-18T08:10:03.549Z</time></trkpt><trkpt lat="43.5514833" lon="10.822845"><ele>143.66666666666666</ele><time>2026-04-18T08:10:04.549Z</time></trkpt><trkpt lat="43.5514067" lon="10.8229067"><ele>145.33333333333334</ele><time>2026-04-18T08:10:05.549Z</time></trkpt><trkpt lat="43.5513167" lon="10.822935"><ele>147.0</ele><time>2026-04-18T08:10:06.549Z</time></trkpt><trkpt lat="43.5512183" lon="10.82295"><ele>147.0</ele><time>2026-04-18T08:10:07.549Z</time></trkpt><trkpt lat="43.5511117" lon="10.8229567"><ele>147.0</ele><time>2026-04-18T08:10:08.549Z</time></trkpt><trkpt lat="43.5509883" lon="10.82295"><ele>147.0</ele><time>2026-04-18T08:10:09.549Z</time></trkpt><trkpt lat="43.550865" lon="10.822935"><ele>147.0</ele><time>2026-04-18T08:10:10.549Z</time></trkpt><trkpt lat="43.5507283" lon="10.8229083"><ele>147.0</ele><time>2026-04-18T08:10:11.549Z</time></trkpt><trkpt lat="43.5505717" lon="10.8228683"><ele>147.0</ele><time>2026-04-18T08:10:12.549Z</time></trkpt><trkpt lat="43.5503933" lon="10.8228183"><ele>147.0</ele><time>2026-04-18T08:10:13.549Z</time></trkpt><trkpt lat="43.5502183" lon="10.82276"><ele>148.0</ele><time>2026-04-18T08:10:14.549Z</time></trkpt><trkpt lat="43.5500417" lon="10.822705"><ele>149.0</ele><time>2026-04-18T08:10:15.549Z</time></trkpt><trkpt lat="43.5498767" lon="10.8226633"><ele>150.0</ele><time>2026-04-18T08:10:16.549Z</time></trkpt><trkpt lat="43.5497133" lon="10.82263"><ele>148.33333333333334</ele><time>2026-04-18T08:10:17.55Z</time></trkpt><trkpt lat="43.5495483" lon="10.8225883"><ele>146.66666666666669</ele><time>2026-04-18T08:10:18.549Z</time></trkpt><trkpt lat="43.5493833" lon="10.8225483"><ele>145.0</ele><time>2026-04-18T08:10:19.549Z</time></trkpt><trkpt lat="43.5492267" lon="10.8225083"><ele>145.0</ele><time>2026-04-18T08:10:20.549Z</time></trkpt><trkpt lat="43.5490783" lon="10.8224683"><ele>145.0</ele><time>2026-04-18T08:10:21.549Z</time></trkpt><trkpt lat="43.5489583" lon="10.82243"><ele>145.0</ele><time>2026-04-18T08:10:22.549Z</time></trkpt><trkpt lat="43.548845" lon="10.82239"><ele>145.0</ele><time>2026-04-18T08:10:23.55Z</time></trkpt><trkpt lat="43.54873" lon="10.8223467"><ele>147.25</ele><time>2026-04-18T08:10:24.549Z</time></trkpt><trkpt lat="43.54863" lon="10.822285"><ele>149.5</ele><time>2026-04-18T08:10:25.549Z</time></trkpt><trkpt lat="43.548525" lon="10.822215"><ele>151.75</ele><time>2026-04-18T08:10:26.549Z</time></trkpt><trkpt lat="43.5484317" lon="10.8221267"><ele>154.0</ele><time>2026-04-18T08:10:27.549Z</time></trkpt><trkpt lat="43.5483433" lon="10.822035"><ele>154.0</ele><time>2026-04-18T08:10:28.549Z</time></trkpt><trkpt lat="43.5482633" lon="10.8219333"><ele>154.0</ele><time>2026-04-18T08:10:29.549Z</time></trkpt><trkpt lat="43.5481883" lon="10.82182"><ele>154.0</ele><time>2026-04-18T08:10:30.549Z</time></trkpt><trkpt lat="43.5481067" lon="10.8217117"><ele>154.0</ele><time>2026-04-18T08:10:31.549Z</time></trkpt><trkpt lat="43.54804" lon="10.8216167"><ele>154.0</ele><time>2026-04-18T08:10:32.549Z</time></trkpt><trkpt lat="43.5479817" lon="10.821525"><ele>152.6</ele><time>2026-04-18T08:10:33.549Z</time></trkpt><trkpt lat="43.5479133" lon="10.8214483"><ele>151.2</ele><time>2026-04-18T08:10:34.549Z</time></trkpt><trkpt lat="43.5478467" lon="10.8213483"><ele>149.79999999999998</ele><time>2026-04-18T08:10:36.549Z</time></trkpt><trkpt lat="43.54776" lon="10.8212633"><ele>148.4</ele><time>2026-04-18T08:11:07.549Z</time></trkpt><trkpt lat="43.54768" lon="10.8211433"><ele>147.0</ele><time>2026-04-18T08:11:09.549Z</time></trkpt><trkpt lat="43.54763" lon="10.8210683"><ele>146.4</ele><time>2026-04-18T08:11:10.549Z</time></trkpt><trkpt lat="43.5475717" lon="10.8209917"><ele>145.79999999999998</ele><time>2026-04-18T08:11:11.55Z</time></trkpt><trkpt lat="43.5475067" lon="10.820895"><ele>145.2</ele><time>2026-04-18T08:11:12.549Z</time></trkpt><trkpt lat="43.5474267" lon="10.820785"><ele>144.6</ele><time>2026-04-18T08:11:13.549Z</time></trkpt><trkpt lat="43.5473567" lon="10.8206783"><ele>144.0</ele><time>2026-04-18T08:11:14.549Z</time></trkpt><trkpt lat="43.5472883" lon="10.8205733"><ele>144.0</ele><time>2026-04-18T08:11:15.549Z</time></trkpt><trkpt lat="43.547235" lon="10.8204883"><ele>144.0</ele><time>2026-04-18T08:11:16.549Z</time></trkpt><trkpt lat="43.5471883" lon="10.8204283"><ele>144.0</ele><time>2026-04-18T08:11:17.549Z</time></trkpt><trkpt lat="43.5471033" lon="10.8203483"><ele>144.0</ele><time>2026-04-18T08:11:19.549Z</time></trkpt><trkpt lat="43.5470067" lon="10.8203433"><ele>144.0</ele><time>2026-04-18T08:11:21.549Z</time></trkpt><trkpt lat="43.5469033" lon="10.8204317"><ele>141.0</ele><time>2026-04-18T08:11:23.549Z</time></trkpt><trkpt lat="43.5468683" lon="10.8205183"><ele>138.0</ele><time>2026-04-18T08:11:24.55Z</time></trkpt><trkpt lat="43.546835" lon="10.8206317"><ele>135.0</ele><time>2026-04-18T08:11:25.549Z</time></trkpt><trkpt lat="43.5468067" lon="10.8207683"><ele>132.0</ele><time>2026-04-18T08:11:26.549Z</time></trkpt><trkpt lat="43.5467817" lon="10.820925"><ele>129.0</ele><time>2026-04-18T08:11:27.549Z</time></trkpt><trkpt lat="43.5467533" lon="10.8210767"><ele>128.6</ele><time>2026-04-18T08:11:28.549Z</time></trkpt><trkpt lat="43.546715" lon="10.82123"><ele>128.2</ele><time>2026-04-18T08:11:29.549Z</time></trkpt><trkpt lat="43.5466817" lon="10.821375"><ele>127.79999999999998</ele><time>2026-04-18T08:11:30.549Z</time></trkpt><trkpt lat="43.5466517" lon="10.8215217"><ele>127.39999999999999</ele><time>2026-04-18T08:11:31.549Z</time></trkpt><trkpt lat="43.5466167" lon="10.8216667"><ele>127.0</ele><time>2026-04-18T08:11:32.549Z</time></trkpt><trkpt lat="43.5465833" lon="10.8218167"><ele>126.39999999999999</ele><time>2026-04-18T08:11:33.549Z</time></trkpt><trkpt lat="43.5465517" lon="10.8219517"><ele>125.79999999999998</ele><time>2026-04-18T08:11:34.549Z</time></trkpt><trkpt lat="43.5465183" lon="10.82208"><ele>125.2</ele><time>2026-04-18T08:11:35.549Z</time></trkpt><trkpt lat="43.5464917" lon="10.822195"><ele>124.6</ele><time>2026-04-18T08:11:36.549Z</time></trkpt><trkpt lat="43.54647" lon="10.8223117"><ele>124.0</ele><time>2026-04-18T08:11:37.549Z</time></trkpt><trkpt lat="43.5464483" lon="10.8224233"><ele>124.0</ele><time>2026-04-18T08:11:38.549Z</time></trkpt><trkpt lat="43.5464317" lon="10.8225267"><ele>124.0</ele><time>2026-04-18T08:11:39.549Z</time></trkpt><trkpt lat="43.5464083" lon="10.82261"><ele>124.0</ele><time>2026-04-18T08:11:40.55Z</time></trkpt><trkpt lat="43.546365" lon="10.822725"><ele>124.0</ele><time>2026-04-18T08:11:42.549Z</time></trkpt><trkpt lat="43.546285" lon="10.8228217"><ele>124.0</ele><time>2026-04-18T08:11:44.549Z</time></trkpt><trkpt lat="43.5461717" lon="10.8228583"><ele>121.2</ele><time>2026-04-18T08:11:46.549Z</time></trkpt><trkpt lat="43.5460583" lon="10.8228017"><ele>118.4</ele><time>2026-04-18T08:11:48.549Z</time></trkpt><trkpt lat="43.546" lon="10.8227267"><ele>115.6</ele><time>2026-04-18T08:11:49.549Z</time></trkpt><trkpt lat="43.5459383" lon="10.8226183"><ele>112.8</ele><time>2026-04-18T08:11:50.549Z</time></trkpt><trkpt lat="43.5458783" lon="10.8224867"><ele>110.0</ele><time>2026-04-18T08:11:51.55Z</time></trkpt><trkpt lat="43.5458183" lon="10.8223583"><ele>110.0</ele><time>2026-04-18T08:11:52.55Z</time></trkpt><trkpt lat="43.5457617" lon="10.822235"><ele>110.0</ele><time>2026-04-18T08:11:53.549Z</time></trkpt><trkpt lat="43.5457133" lon="10.8221"><ele>110.0</ele><time>2026-04-18T08:11:54.549Z</time></trkpt><trkpt lat="43.5456717" lon="10.8219433"><ele>110.0</ele><time>2026-04-18T08:11:55.549Z</time></trkpt><trkpt lat="43.5456333" lon="10.82177"><ele>110.0</ele><time>2026-04-18T08:11:56.549Z</time></trkpt><trkpt lat="43.5455933" lon="10.8215883"><ele>110.0</ele><time>2026-04-18T08:11:57.55Z</time></trkpt><trkpt lat="43.5455567" lon="10.8214"><ele>110.0</ele><time>2026-04-18T08:11:58.549Z</time></trkpt><trkpt lat="43.5455267" lon="10.8212233"><ele>110.0</ele><time>2026-04-18T08:11:59.549Z</time></trkpt><trkpt lat="43.5454933" lon="10.82106"><ele>109.8</ele><time>2026-04-18T08:12:00.549Z</time></trkpt><trkpt lat="43.5454617" lon="10.8209067"><ele>109.6</ele><time>2026-04-18T08:12:01.549Z</time></trkpt><trkpt lat="43.545435" lon="10.8207733"><ele>109.4</ele><time>2026-04-18T08:12:02.549Z</time></trkpt><trkpt lat="43.5454033" lon="10.82064"><ele>109.2</ele><time>2026-04-18T08:12:03.549Z</time></trkpt><trkpt lat="43.5453667" lon="10.82052"><ele>109.0</ele><time>2026-04-18T08:12:04.549Z</time></trkpt><trkpt lat="43.5453233" lon="10.820415"><ele>106.6</ele><time>2026-04-18T08:12:05.549Z</time></trkpt><trkpt lat="43.5452733" lon="10.8203183"><ele>104.2</ele><time>2026-04-18T08:12:06.549Z</time></trkpt><trkpt lat="43.5452017" lon="10.82022"><ele>101.8</ele><time>2026-04-18T08:12:07.549Z</time></trkpt><trkpt lat="43.545115" lon="10.8201233"><ele>99.39999999999999</ele><time>2026-04-18T08:12:08.549Z</time></trkpt><trkpt lat="43.5450217" lon="10.82002"><ele>97.0</ele><time>2026-04-18T08:12:09.549Z</time></trkpt><trkpt lat="43.54493" lon="10.8199033"><ele>97.0</ele><time>2026-04-18T08:12:10.549Z</time></trkpt><trkpt lat="43.5448433" lon="10.8197817"><ele>97.0</ele><time>2026-04-18T08:12:11.549Z</time></trkpt><trkpt lat="43.5447817" lon="10.8196467"><ele>97.0</ele><time>2026-04-18T08:12:12.549Z</time></trkpt><trkpt lat="43.54473" lon="10.819495"><ele>97.0</ele><time>2026-04-18T08:12:13.549Z</time></trkpt><trkpt lat="43.5447" lon="10.8193317"><ele>98.0</ele><time>2026-04-18T08:12:14.549Z</time></trkpt><trkpt lat="43.54467" lon="10.8191483"><ele>99.0</ele><time>2026-04-18T08:12:15.549Z</time></trkpt><trkpt lat="43.544635" lon="10.8189317"><ele>100.0</ele><time>2026-04-18T08:12:16.549Z</time></trkpt><trkpt lat="43.544595" lon="10.818675"><ele>98.66666666666667</ele><time>2026-04-18T08:12:17.549Z</time></trkpt><trkpt lat="43.5445533" lon="10.8184133"><ele>97.33333333333334</ele><time>2026-04-18T08:12:18.549Z</time></trkpt><trkpt lat="43.54452" lon="10.81815"><ele>96.0</ele><time>2026-04-18T08:12:19.549Z</time></trkpt><trkpt lat="43.54449" lon="10.8179217"><ele>92.75</ele><time>2026-04-18T08:12:20.549Z</time></trkpt><trkpt lat="43.54446" lon="10.817715"><ele>89.5</ele><time>2026-04-18T08:12:21.549Z</time></trkpt><trkpt lat="43.54444" lon="10.8175217"><ele>86.25</ele><time>2026-04-18T08:12:22.549Z</time></trkpt><trkpt lat="43.5444183" lon="10.8173583"><ele>83.0</ele><time>2026-04-18T08:12:23.549Z</time></trkpt><trkpt lat="43.5443983" lon="10.817215"><ele>83.0</ele><time>2026-04-18T08:12:24.549Z</time></trkpt><trkpt lat="43.5443683" lon="10.8170917"><ele>83.0</ele><time>2026-04-18T08:12:25.549Z</time></trkpt><trkpt lat="43.5443417" lon="10.816995"><ele>83.0</ele><time>2026-04-18T08:12:26.55Z</time></trkpt><trkpt lat="43.544305" lon="10.8169167"><ele>83.0</ele><time>2026-04-18T08:12:27.549Z</time></trkpt><trkpt lat="43.5442633" lon="10.8168417"><ele>83.0</ele><time>2026-04-18T08:12:28.549Z</time></trkpt><trkpt lat="43.5442" lon="10.8167817"><ele>83.0</ele><time>2026-04-18T08:12:29.55Z</time></trkpt><trkpt lat="43.54413" lon="10.8167367"><ele>83.33333333333334</ele><time>2026-04-18T08:12:30.549Z</time></trkpt><trkpt lat="43.5440583" lon="10.81672"><ele>83.66666666666667</ele><time>2026-04-18T08:12:31.549Z</time></trkpt><trkpt lat="43.54398" lon="10.816735"><ele>84.0</ele><time>2026-04-18T08:12:32.549Z</time></trkpt><trkpt lat="43.5438917" lon="10.816765"><ele>84.33333333333333</ele><time>2026-04-18T08:12:33.549Z</time></trkpt><trkpt lat="43.5437967" lon="10.8168"><ele>84.66666666666666</ele><time>2026-04-18T08:12:34.549Z</time></trkpt><trkpt lat="43.5436983" lon="10.81685"><ele>85.0</ele><time>2026-04-18T08:12:35.55Z</time></trkpt><trkpt lat="43.5436" lon="10.816895"><ele>83.75</ele><time>2026-04-18T08:12:36.549Z</time></trkpt><trkpt lat="43.543485" lon="10.81695"><ele>82.5</ele><time>2026-04-18T08:12:37.549Z</time></trkpt><trkpt lat="43.543355" lon="10.8170083"><ele>81.25</ele><time>2026-04-18T08:12:38.55Z</time></trkpt><trkpt lat="43.5432317" lon="10.81706"><ele>80.0</ele><time>2026-04-18T08:12:39.55Z</time></trkpt><trkpt lat="43.5431233" lon="10.8171167"><ele>80.0</ele><time>2026-04-18T08:12:40.549Z</time></trkpt><trkpt lat="43.5430217" lon="10.8171683"><ele>80.0</ele><time>2026-04-18T08:12:41.549Z</time></trkpt><trkpt lat="43.5429433" lon="10.8172233"><ele>80.0</ele><time>2026-04-18T08:12:42.549Z</time></trkpt><trkpt lat="43.5428717" lon="10.8172833"><ele>80.0</ele><time>2026-04-18T08:12:43.549Z</time></trkpt><trkpt lat="43.5428033" lon="10.81736"><ele>80.0</ele><time>2026-04-18T08:12:44.549Z</time></trkpt><trkpt lat="43.5427583" lon="10.8174533"><ele>80.0</ele><time>2026-04-18T08:12:45.549Z</time></trkpt><trkpt lat="43.5427167" lon="10.8175667"><ele>82.4</ele><time>2026-04-18T08:12:46.549Z</time></trkpt><trkpt lat="43.5426867" lon="10.8176783"><ele>84.8</ele><time>2026-04-18T08:12:47.549Z</time></trkpt><trkpt lat="43.54266" lon="10.8178017"><ele>87.19999999999999</ele><time>2026-04-18T08:12:48.55Z</time></trkpt><trkpt lat="43.5426433" lon="10.8179433"><ele>89.6</ele><time>2026-04-18T08:12:49.549Z</time></trkpt><trkpt lat="43.5426267" lon="10.81811"><ele>92.0</ele><time>2026-04-18T08:12:50.549Z</time></trkpt><trkpt lat="43.54262" lon="10.8183"><ele>93.66666666666667</ele><time>2026-04-18T08:12:51.55Z</time></trkpt><trkpt lat="43.5426133" lon="10.8185117"><ele>95.33333333333334</ele><time>2026-04-18T08:12:52.548Z</time></trkpt><trkpt lat="43.542605" lon="10.8187383"><ele>97.0</ele><time>2026-04-18T08:12:53.548Z</time></trkpt><trkpt lat="43.5425833" lon="10.8189583"><ele>97.0</ele><time>2026-04-18T08:12:54.548Z</time></trkpt><trkpt lat="43.5425783" lon="10.8191617"><ele>97.0</ele><time>2026-04-18T08:12:55.548Z</time></trkpt><trkpt lat="43.5425617" lon="10.8193567"><ele>97.0</ele><time>2026-04-18T08:12:56.548Z</time></trkpt><trkpt lat="43.542545" lon="10.8195517"><ele>97.0</ele><time>2026-04-18T08:12:57.548Z</time></trkpt><trkpt lat="43.5425233" lon="10.8197383"><ele>98.0</ele><time>2026-04-18T08:12:58.548Z</time></trkpt><trkpt lat="43.5424933" lon="10.819915"><ele>99.0</ele><time>2026-04-18T08:12:59.548Z</time></trkpt><trkpt lat="43.542465" lon="10.8200917"><ele>100.0</ele><time>2026-04-18T08:13:00.549Z</time></trkpt><trkpt lat="43.5424233" lon="10.82028"><ele>101.0</ele><time>2026-04-18T08:13:01.548Z</time></trkpt><trkpt lat="43.5423733" lon="10.8204833"><ele>101.75</ele><time>2026-04-18T08:13:02.548Z</time></trkpt><trkpt lat="43.54232" lon="10.8206867"><ele>102.5</ele><time>2026-04-18T08:13:03.548Z</time></trkpt><trkpt lat="43.542275" lon="10.8208583"><ele>103.25</ele><time>2026-04-18T08:13:04.548Z</time></trkpt><trkpt lat="43.5422283" lon="10.8209983"><ele>104.0</ele><time>2026-04-18T08:13:05.548Z</time></trkpt><trkpt lat="43.5421717" lon="10.82114"><ele>104.0</ele><time>2026-04-18T08:13:06.548Z</time></trkpt><trkpt lat="43.5421" lon="10.82128"><ele>104.0</ele><time>2026-04-18T08:13:07.548Z</time></trkpt><trkpt lat="43.54202" lon="10.8214133"><ele>104.0</ele><time>2026-04-18T08:13:08.548Z</time></trkpt><trkpt lat="43.541945" lon="10.8215417"><ele>104.0</ele><time>2026-04-18T08:13:09.548Z</time></trkpt><trkpt lat="43.54188" lon="10.82168"><ele>107.2</ele><time>2026-04-18T08:13:10.548Z</time></trkpt><trkpt lat="43.5418367" lon="10.821815"><ele>110.4</ele><time>2026-04-18T08:13:11.548Z</time></trkpt><trkpt lat="43.5418083" lon="10.8219533"><ele>113.6</ele><time>2026-04-18T08:13:12.548Z</time></trkpt><trkpt lat="43.541785" lon="10.8221133"><ele>116.8</ele><time>2026-04-18T08:13:13.548Z</time></trkpt><trkpt lat="43.5417783" lon="10.8222783"><ele>120.0</ele><time>2026-04-18T08:13:14.548Z</time></trkpt><trkpt lat="43.5417767" lon="10.822435"><ele>120.4</ele><time>2026-04-18T08:13:15.548Z</time></trkpt><trkpt lat="43.5417767" lon="10.822585"><ele>120.8</ele><time>2026-04-18T08:13:16.548Z</time></trkpt><trkpt lat="43.5417667" lon="10.8227367"><ele>121.19999999999999</ele><time>2026-04-18T08:13:17.548Z</time></trkpt><trkpt lat="43.5417383" lon="10.82288"><ele>121.6</ele><time>2026-04-18T08:13:18.548Z</time></trkpt><trkpt lat="43.5417017" lon="10.8230333"><ele>122.0</ele><time>2026-04-18T08:13:19.548Z</time></trkpt><trkpt lat="43.5416617" lon="10.8231733"><ele>122.75</ele><time>2026-04-18T08:13:20.548Z</time></trkpt><trkpt lat="43.5416233" lon="10.8233183"><ele>123.5</ele><time>2026-04-18T08:13:21.548Z</time></trkpt><trkpt lat="43.5415767" lon="10.8234883"><ele>124.25</ele><time>2026-04-18T08:13:22.548Z</time></trkpt><trkpt lat="43.5415217" lon="10.82367"><ele>125.0</ele><time>2026-04-18T08:13:23.548Z</time></trkpt><trkpt lat="43.5414533" lon="10.823875"><ele>125.0</ele><time>2026-04-18T08:13:24.548Z</time></trkpt><trkpt lat="43.54139" lon="10.8240583"><ele>125.0</ele><time>2026-04-18T08:13:25.549Z</time></trkpt><trkpt lat="43.54134" lon="10.8242283"><ele>125.0</ele><time>2026-04-18T08:13:26.548Z</time></trkpt><trkpt lat="43.54128" lon="10.8244083"><ele>125.0</ele><time>2026-04-18T08:13:27.548Z</time></trkpt><trkpt lat="43.54122" lon="10.8246083"><ele>130.33333333333331</ele><time>2026-04-18T08:13:28.548Z</time></trkpt><trkpt lat="43.5411583" lon="10.8248083"><ele>135.66666666666666</ele><time>2026-04-18T08:13:29.548Z</time></trkpt><trkpt lat="43.5411017" lon="10.8250033"><ele>141.0</ele><time>2026-04-18T08:13:30.548Z</time></trkpt><trkpt lat="43.541045" lon="10.8252067"><ele>141.0</ele><time>2026-04-18T08:13:31.548Z</time></trkpt><trkpt lat="43.5409833" lon="10.8254183"><ele>141.0</ele><time>2026-04-18T08:13:32.548Z</time></trkpt><trkpt lat="43.5409167" lon="10.8256517"><ele>141.0</ele><time>2026-04-18T08:13:33.548Z</time></trkpt><trkpt lat="43.540855" lon="10.825895"><ele>141.66666666666666</ele><time>2026-04-18T08:13:34.548Z</time></trkpt><trkpt lat="43.5407967" lon="10.8261217"><ele>142.33333333333331</ele><time>2026-04-18T08:13:35.549Z</time></trkpt><trkpt lat="43.5407483" lon="10.8263183"><ele>143.0</ele><time>2026-04-18T08:13:36.548Z</time></trkpt><trkpt lat="43.5406983" lon="10.826505"><ele>143.0</ele><time>2026-04-18T08:13:37.548Z</time></trkpt><trkpt lat="43.5406533" lon="10.826685"><ele>143.0</ele><time>2026-04-18T08:13:38.549Z</time></trkpt><trkpt lat="43.5406017" lon="10.8268667"><ele>143.0</ele><time>2026-04-18T08:13:39.548Z</time></trkpt><trkpt lat="43.5405583" lon="10.8270367"><ele>143.0</ele><time>2026-04-18T08:13:40.549Z</time></trkpt><trkpt lat="43.5404967" lon="10.8272067"><ele>142.5</ele><time>2026-04-18T08:13:41.549Z</time></trkpt><trkpt lat="43.5404333" lon="10.82737"><ele>142.0</ele><time>2026-04-18T08:13:42.549Z</time></trkpt><trkpt lat="43.5403633" lon="10.827535"><ele>141.5</ele><time>2026-04-18T08:13:43.548Z</time></trkpt><trkpt lat="43.5402883" lon="10.8276717"><ele>141.0</ele><time>2026-04-18T08:13:44.548Z</time></trkpt><trkpt lat="43.540215" lon="10.827795"><ele>143.0</ele><time>2026-04-18T08:13:45.548Z</time></trkpt><trkpt lat="43.54016" lon="10.8279033"><ele>145.0</ele><time>2026-04-18T08:13:46.548Z</time></trkpt><trkpt lat="43.5401133" lon="10.827985"><ele>147.0</ele><time>2026-04-18T08:13:47.548Z</time></trkpt><trkpt lat="43.5400467" lon="10.8281117"><ele>149.0</ele><time>2026-04-18T08:13:49.548Z</time></trkpt><trkpt lat="43.5400233" lon="10.82824"><ele>151.0</ele><time>2026-04-18T08:13:51.548Z</time></trkpt><trkpt lat="43.5400283" lon="10.8284167"><ele>151.25</ele><time>2026-04-18T08:13:53.548Z</time></trkpt><trkpt lat="43.5400433" lon="10.8285517"><ele>151.5</ele><time>2026-04-18T08:13:54.548Z</time></trkpt><trkpt lat="43.5400633" lon="10.8287217"><ele>151.75</ele><time>2026-04-18T08:13:55.548Z</time></trkpt><trkpt lat="43.5400933" lon="10.8289067"><ele>152.0</ele><time>2026-04-18T08:13:56.548Z</time></trkpt><trkpt lat="43.5401233" lon="10.829115"><ele>152.33333333333331</ele><time>2026-04-18T08:13:57.548Z</time></trkpt><trkpt lat="43.5401617" lon="10.8293383"><ele>152.66666666666666</ele><time>2026-04-18T08:13:58.548Z</time></trkpt><trkpt lat="43.5401967" lon="10.8295667"><ele>153.0</ele><time>2026-04-18T08:13:59.548Z</time></trkpt><trkpt lat="43.5402267" lon="10.8297967"><ele>153.0</ele><time>2026-04-18T08:14:00.549Z</time></trkpt><trkpt lat="43.54025" lon="10.8300217"><ele>153.0</ele><time>2026-04-18T08:14:01.548Z</time></trkpt><trkpt lat="43.5402633" lon="10.8302417"><ele>153.0</ele><time>2026-04-18T08:14:02.549Z</time></trkpt><trkpt lat="43.54027" lon="10.8304583"><ele>154.33333333333334</ele><time>2026-04-18T08:14:03.549Z</time></trkpt><trkpt lat="43.540265" lon="10.830685"><ele>155.66666666666669</ele><time>2026-04-18T08:14:04.548Z</time></trkpt><trkpt lat="43.5402517" lon="10.8309117"><ele>157.0</ele><time>2026-04-18T08:14:05.548Z</time></trkpt><trkpt lat="43.540235" lon="10.8311367"><ele>158.66666666666669</ele><time>2026-04-18T08:14:06.548Z</time></trkpt><trkpt lat="43.5402233" lon="10.8313583"><ele>160.33333333333334</ele><time>2026-04-18T08:14:07.548Z</time></trkpt><trkpt lat="43.5402167" lon="10.8315733"><ele>162.0</ele><time>2026-04-18T08:14:08.548Z</time></trkpt><trkpt lat="43.540205" lon="10.831775"><ele>163.0</ele><time>2026-04-18T08:14:09.548Z</time></trkpt><trkpt lat="43.5402" lon="10.8319483"><ele>164.0</ele><time>2026-04-18T08:14:10.548Z</time></trkpt><trkpt lat="43.540205" lon="10.832115"><ele>165.0</ele><time>2026-04-18T08:14:11.548Z</time></trkpt><trkpt lat="43.5402267" lon="10.8322717"><ele>166.0</ele><time>2026-04-18T08:14:12.548Z</time></trkpt><trkpt lat="43.5402533" lon="10.8324417"><ele>166.0</ele><time>2026-04-18T08:14:13.548Z</time></trkpt><trkpt lat="43.5402867" lon="10.8326067"><ele>166.0</ele><time>2026-04-18T08:14:14.548Z</time></trkpt><trkpt lat="43.54032" lon="10.8327683"><ele>166.0</ele><time>2026-04-18T08:14:15.548Z</time></trkpt><trkpt lat="43.54034" lon="10.83292"><ele>166.0</ele><time>2026-04-18T08:14:16.548Z</time></trkpt><trkpt lat="43.5403483" lon="10.8330767"><ele>165.25</ele><time>2026-04-18T08:14:17.548Z</time></trkpt><trkpt lat="43.540355" lon="10.8332617"><ele>164.5</ele><time>2026-04-18T08:14:18.548Z</time></trkpt><trkpt lat="43.5403617" lon="10.833465"><ele>163.75</ele><time>2026-04-18T08:14:19.548Z</time></trkpt><trkpt lat="43.5403667" lon="10.833685"><ele>163.0</ele><time>2026-04-18T08:14:20.548Z</time></trkpt><trkpt lat="43.5403533" lon="10.8339333"><ele>162.33333333333334</ele><time>2026-04-18T08:14:21.548Z</time></trkpt><trkpt lat="43.540335" lon="10.8341883"><ele>161.66666666666666</ele><time>2026-04-18T08:14:22.548Z</time></trkpt><trkpt lat="43.5403233" lon="10.8344467"><ele>161.0</ele><time>2026-04-18T08:14:23.548Z</time></trkpt><trkpt lat="43.54031" lon="10.8346883"><ele>161.0</ele><time>2026-04-18T08:14:24.548Z</time></trkpt><trkpt lat="43.5403" lon="10.8349117"><ele>161.0</ele><time>2026-04-18T08:14:25.549Z</time></trkpt><trkpt lat="43.5402883" lon="10.8351167"><ele>161.0</ele><time>2026-04-18T08:14:26.549Z</time></trkpt><trkpt lat="43.5402833" lon="10.8353217"><ele>160.75</ele><time>2026-04-18T08:14:27.548Z</time></trkpt><trkpt lat="43.540275" lon="10.8355183"><ele>160.5</ele><time>2026-04-18T08:14:28.549Z</time></trkpt><trkpt lat="43.54027" lon="10.8357033"><ele>160.25</ele><time>2026-04-18T08:14:29.548Z</time></trkpt><trkpt lat="43.5402617" lon="10.8358833"><ele>160.0</ele><time>2026-04-18T08:14:30.548Z</time></trkpt><trkpt lat="43.5402567" lon="10.8360717"><ele>159.25</ele><time>2026-04-18T08:14:31.548Z</time></trkpt><trkpt lat="43.54025" lon="10.836255"><ele>158.5</ele><time>2026-04-18T08:14:32.548Z</time></trkpt><trkpt lat="43.540245" lon="10.8364383"><ele>157.75</ele><time>2026-04-18T08:14:33.548Z</time></trkpt><trkpt lat="43.5402433" lon="10.83663"><ele>157.0</ele><time>2026-04-18T08:14:34.548Z</time></trkpt><trkpt lat="43.54025" lon="10.83682"><ele>157.0</ele><time>2026-04-18T08:14:35.548Z</time></trkpt><trkpt lat="43.54026" lon="10.8370283"><ele>157.0</ele><time>2026-04-18T08:14:36.548Z</time></trkpt><trkpt lat="43.5402683" lon="10.8372383"><ele>157.0</ele><time>2026-04-18T08:14:37.548Z</time></trkpt><trkpt lat="43.5402867" lon="10.8374683"><ele>157.66666666666669</ele><time>2026-04-18T08:14:38.548Z</time></trkpt><trkpt lat="43.540315" lon="10.8377067"><ele>158.33333333333334</ele><time>2026-04-18T08:14:39.548Z</time></trkpt><trkpt lat="43.5403567" lon="10.837945"><ele>159.0</ele><time>2026-04-18T08:14:40.548Z</time></trkpt><trkpt lat="43.5404017" lon="10.8381717"><ele>159.0</ele><time>2026-04-18T08:14:41.548Z</time></trkpt><trkpt lat="43.5404433" lon="10.8384117"><ele>159.0</ele><time>2026-04-18T08:14:42.548Z</time></trkpt><trkpt lat="43.5404883" lon="10.8386483"><ele>159.0</ele><time>2026-04-18T08:14:43.548Z</time></trkpt><trkpt lat="43.5405383" lon="10.8388783"><ele>161.25</ele><time>2026-04-18T08:14:44.548Z</time></trkpt><trkpt lat="43.5405783" lon="10.8390933"><ele>163.5</ele><time>2026-04-18T08:14:45.548Z</time></trkpt><trkpt lat="43.5406117" lon="10.8392867"><ele>165.75</ele><time>2026-04-18T08:14:46.548Z</time></trkpt><trkpt lat="43.5406367" lon="10.8394567"><ele>168.0</ele><time>2026-04-18T08:14:47.548Z</time></trkpt><trkpt lat="43.5406583" lon="10.839585"><ele>169.16666666666666</ele><time>2026-04-18T08:14:48.548Z</time></trkpt><trkpt lat="43.5406833" lon="10.8397017"><ele>170.33333333333334</ele><time>2026-04-18T08:14:50.548Z</time></trkpt><trkpt lat="43.5406133" lon="10.8397"><ele>171.5</ele><time>2026-04-18T08:14:53.548Z</time></trkpt><trkpt lat="43.54051" lon="10.8396167"><ele>172.66666666666669</ele><time>2026-04-18T08:14:55.548Z</time></trkpt><trkpt lat="43.5404433" lon="10.8395767"><ele>173.83333333333334</ele><time>2026-04-18T08:14:56.548Z</time></trkpt><trkpt lat="43.5403783" lon="10.8395633"><ele>175.0</ele><time>2026-04-18T08:14:57.548Z</time></trkpt><trkpt lat="43.5402633" lon="10.83957"><ele>175.16666666666669</ele><time>2026-04-18T08:14:59.548Z</time></trkpt><trkpt lat="43.54016" lon="10.839515"><ele>175.33333333333334</ele><time>2026-04-18T08:15:01.548Z</time></trkpt><trkpt lat="43.5401" lon="10.8394717"><ele>175.5</ele><time>2026-04-18T08:15:02.548Z</time></trkpt><trkpt lat="43.54004" lon="10.839425"><ele>175.66666666666666</ele><time>2026-04-18T08:15:03.548Z</time></trkpt><trkpt lat="43.53998" lon="10.83938"><ele>175.83333333333331</ele><time>2026-04-18T08:15:04.548Z</time></trkpt><trkpt lat="43.5399167" lon="10.83932"><ele>176.0</ele><time>2026-04-18T08:15:05.548Z</time></trkpt><trkpt lat="43.53985" lon="10.8392617"><ele>175.0</ele><time>2026-04-18T08:15:06.548Z</time></trkpt><trkpt lat="43.5397883" lon="10.8391983"><ele>174.0</ele><time>2026-04-18T08:15:07.548Z</time></trkpt><trkpt lat="43.5397233" lon="10.839135"><ele>173.0</ele><time>2026-04-18T08:15:08.548Z</time></trkpt><trkpt lat="43.5396533" lon="10.8390733"><ele>172.0</ele><time>2026-04-18T08:15:09.548Z</time></trkpt><trkpt lat="43.5395817" lon="10.83902"><ele>171.0</ele><time>2026-04-18T08:15:10.548Z</time></trkpt><trkpt lat="43.5395233" lon="10.838965"><ele>170.0</ele><time>2026-04-18T08:15:11.548Z</time></trkpt><trkpt lat="43.5394617" lon="10.8389217"><ele>169.8</ele><time>2026-04-18T08:15:12.548Z</time></trkpt><trkpt lat="43.539375" lon="10.8388633"><ele>169.6</ele><time>2026-04-18T08:15:14.548Z</time></trkpt><trkpt lat="43.53931" lon="10.8387933"><ele>169.39999999999998</ele><time>2026-04-18T08:15:16.548Z</time></trkpt><trkpt lat="43.5392017" lon="10.8386967"><ele>169.2</ele><time>2026-04-18T08:15:18.548Z</time></trkpt><trkpt lat="43.5391333" lon="10.838635"><ele>169.0</ele><time>2026-04-18T08:15:19.548Z</time></trkpt><trkpt lat="43.5390683" lon="10.83858"><ele>169.0</ele><time>2026-04-18T08:15:20.548Z</time></trkpt><trkpt lat="43.53901" lon="10.8385267"><ele>169.0</ele><time>2026-04-18T08:15:21.548Z</time></trkpt><trkpt lat="43.53895" lon="10.838475"><ele>169.0</ele><time>2026-04-18T08:15:22.548Z</time></trkpt><trkpt lat="43.5388833" lon="10.8384217"><ele>169.0</ele><time>2026-04-18T08:15:23.548Z</time></trkpt><trkpt lat="43.5388117" lon="10.83837"><ele>169.0</ele><time>2026-04-18T08:15:24.548Z</time></trkpt><trkpt lat="43.5387217" lon="10.8383083"><ele>169.0</ele><time>2026-04-18T08:15:25.548Z</time></trkpt><trkpt lat="43.538635" lon="10.8382517"><ele>168.2</ele><time>2026-04-18T08:15:26.549Z</time></trkpt><trkpt lat="43.53857" lon="10.8381917"><ele>167.39999999999998</ele><time>2026-04-18T08:15:27.549Z</time></trkpt><trkpt lat="43.538515" lon="10.838135"><ele>166.6</ele><time>2026-04-18T08:15:28.548Z</time></trkpt><trkpt lat="43.5384283" lon="10.838055"><ele>165.8</ele><time>2026-04-18T08:15:30.548Z</time></trkpt><trkpt lat="43.5383567" lon="10.838"><ele>165.0</ele><time>2026-04-18T08:15:32.548Z</time></trkpt><trkpt lat="43.5382467" lon="10.837905"><ele>165.0</ele><time>2026-04-18T08:15:34.548Z</time></trkpt><trkpt lat="43.5381517" lon="10.8378283"><ele>165.0</ele><time>2026-04-18T08:15:36.548Z</time></trkpt><trkpt lat="43.538065" lon="10.837745"><ele>165.0</ele><time>2026-04-18T08:15:38.548Z</time></trkpt><trkpt lat="43.537965" lon="10.83766"><ele>165.0</ele><time>2026-04-18T08:15:40.548Z</time></trkpt><trkpt lat="43.537855" lon="10.8375817"><ele>163.83333333333334</ele><time>2026-04-18T08:15:42.548Z</time></trkpt><trkpt lat="43.5377517" lon="10.8374967"><ele>162.66666666666666</ele><time>2026-04-18T08:15:44.548Z</time></trkpt><trkpt lat="43.5376533" lon="10.8374167"><ele>161.5</ele><time>2026-04-18T08:15:46.548Z</time></trkpt><trkpt lat="43.537595" lon="10.8373817"><ele>160.33333333333331</ele><time>2026-04-18T08:15:47.548Z</time></trkpt><trkpt lat="43.5375317" lon="10.8373367"><ele>159.16666666666666</ele><time>2026-04-18T08:15:48.548Z</time></trkpt><trkpt lat="43.5374617" lon="10.8373017"><ele>158.0</ele><time>2026-04-18T08:15:49.548Z</time></trkpt><trkpt lat="43.5373883" lon="10.83728"><ele>158.00000000000003</ele><time>2026-04-18T08:15:50.548Z</time></trkpt><trkpt lat="43.5373167" lon="10.83726"><ele>158.0</ele><time>2026-04-18T08:15:51.549Z</time></trkpt><trkpt lat="43.53724" lon="10.8372367"><ele>158.0</ele><time>2026-04-18T08:15:52.548Z</time></trkpt><trkpt lat="43.5371633" lon="10.837215"><ele>158.0</ele><time>2026-04-18T08:15:53.549Z</time></trkpt><trkpt lat="43.5370933" lon="10.8371867"><ele>158.0</ele><time>2026-04-18T08:15:54.548Z</time></trkpt><trkpt lat="43.5370283" lon="10.8371567"><ele>158.00000000000003</ele><time>2026-04-18T08:15:55.548Z</time></trkpt><trkpt lat="43.536965" lon="10.8371117"><ele>158.0</ele><time>2026-04-18T08:15:56.548Z</time></trkpt><trkpt lat="43.536895" lon="10.83705"><ele>157.8</ele><time>2026-04-18T08:15:57.549Z</time></trkpt><trkpt lat="43.5368233" lon="10.8369767"><ele>157.60000000000002</ele><time>2026-04-18T08:15:58.548Z</time></trkpt><trkpt lat="43.53674" lon="10.83691"><ele>157.39999999999998</ele><time>2026-04-18T08:15:59.548Z</time></trkpt><trkpt lat="43.5366567" lon="10.8368533"><ele>157.2</ele><time>2026-04-18T08:16:00.548Z</time></trkpt><trkpt lat="43.5365783" lon="10.8368"><ele>157.0</ele><time>2026-04-18T08:16:01.548Z</time></trkpt><trkpt lat="43.5364983" lon="10.83675"><ele>157.0</ele><time>2026-04-18T08:16:02.548Z</time></trkpt><trkpt lat="43.5364383" lon="10.8367033"><ele>157.0</ele><time>2026-04-18T08:16:03.548Z</time></trkpt><trkpt lat="43.5363467" lon="10.83661"><ele>157.0</ele><time>2026-04-18T08:16:05.549Z</time></trkpt><trkpt lat="43.536295" lon="10.8365467"><ele>157.0</ele><time>2026-04-18T08:16:06.548Z</time></trkpt><trkpt lat="43.53624" lon="10.8364783"><ele>157.0</ele><time>2026-04-18T08:16:07.549Z</time></trkpt><trkpt lat="43.5361917" lon="10.8364183"><ele>157.0</ele><time>2026-04-18T08:16:08.548Z</time></trkpt><trkpt lat="43.53613" lon="10.8363717"><ele>157.7142857142857</ele><time>2026-04-18T08:16:09.548Z</time></trkpt><trkpt lat="43.5360633" lon="10.8363333"><ele>158.42857142857142</ele><time>2026-04-18T08:16:10.548Z</time></trkpt><trkpt lat="43.5359983" lon="10.8362867"><ele>159.14285714285714</ele><time>2026-04-18T08:16:11.548Z</time></trkpt><trkpt lat="43.535935" lon="10.83624"><ele>159.85714285714283</ele><time>2026-04-18T08:16:12.548Z</time></trkpt><trkpt lat="43.5358833" lon="10.8361867"><ele>160.57142857142856</ele><time>2026-04-18T08:16:13.549Z</time></trkpt><trkpt lat="43.53583" lon="10.836115"><ele>161.28571428571428</ele><time>2026-04-18T08:16:14.549Z</time></trkpt><trkpt lat="43.5357817" lon="10.83603"><ele>162.0</ele><time>2026-04-18T08:16:15.548Z</time></trkpt><trkpt lat="43.5357283" lon="10.8359483"><ele>162.0</ele><time>2026-04-18T08:16:16.548Z</time></trkpt><trkpt lat="43.5356733" lon="10.835865"><ele>162.0</ele><time>2026-04-18T08:16:17.548Z</time></trkpt><trkpt lat="43.5356167" lon="10.8357717"><ele>162.0</ele><time>2026-04-18T08:16:18.548Z</time></trkpt><trkpt lat="43.535555" lon="10.835685"><ele>162.0</ele><time>2026-04-18T08:16:19.547Z</time></trkpt><trkpt lat="43.5354883" lon="10.8356017"><ele>162.0</ele><time>2026-04-18T08:16:20.547Z</time></trkpt><trkpt lat="43.5354217" lon="10.8355217"><ele>162.0</ele><time>2026-04-18T08:16:21.547Z</time></trkpt><trkpt lat="43.5353483" lon="10.83544"><ele>163.33333333333334</ele><time>2026-04-18T08:16:22.547Z</time></trkpt><trkpt lat="43.53527" lon="10.83537"><ele>164.66666666666666</ele><time>2026-04-18T08:16:23.547Z</time></trkpt><trkpt lat="43.5351933" lon="10.8353117"><ele>166.0</ele><time>2026-04-18T08:16:24.547Z</time></trkpt><trkpt lat="43.5351267" lon="10.835265"><ele>167.33333333333331</ele><time>2026-04-18T08:16:25.547Z</time></trkpt><trkpt lat="43.535065" lon="10.83522"><ele>168.66666666666666</ele><time>2026-04-18T08:16:26.547Z</time></trkpt><trkpt lat="43.5350117" lon="10.83517"><ele>170.0</ele><time>2026-04-18T08:16:27.547Z</time></trkpt><trkpt lat="43.5349383" lon="10.8351"><ele>170.0</ele><time>2026-04-18T08:16:29.548Z</time></trkpt><trkpt lat="43.5349" lon="10.835005"><ele>170.0</ele><time>2026-04-18T08:16:31.547Z</time></trkpt><trkpt lat="43.534845" lon="10.834835"><ele>170.0</ele><time>2026-04-18T08:16:33.547Z</time></trkpt><trkpt lat="43.5348017" lon="10.834735"><ele>170.0</ele><time>2026-04-18T08:16:34.547Z</time></trkpt><trkpt lat="43.5347583" lon="10.8346417"><ele>170.0</ele><time>2026-04-18T08:16:35.547Z</time></trkpt><trkpt lat="43.5347117" lon="10.83456"><ele>170.0</ele><time>2026-04-18T08:16:36.547Z</time></trkpt><trkpt lat="43.5346633" lon="10.8344833"><ele>170.0</ele><time>2026-04-18T08:16:37.547Z</time></trkpt><trkpt lat="43.5346017" lon="10.834395"><ele>170.0</ele><time>2026-04-18T08:16:38.547Z</time></trkpt><trkpt lat="43.5345333" lon="10.834305"><ele>170.0</ele><time>2026-04-18T08:16:39.547Z</time></trkpt><trkpt lat="43.5344667" lon="10.8342233"><ele>170.0</ele><time>2026-04-18T08:16:40.547Z</time></trkpt><trkpt lat="43.5344067" lon="10.83415"><ele>170.0</ele><time>2026-04-18T08:16:41.547Z</time></trkpt><trkpt lat="43.534345" lon="10.8340817"><ele>170.33333333333331</ele><time>2026-04-18T08:16:42.548Z</time></trkpt><trkpt lat="43.5342917" lon="10.83402"><ele>170.66666666666666</ele><time>2026-04-18T08:16:43.547Z</time></trkpt><trkpt lat="43.5341917" lon="10.833925"><ele>171.0</ele><time>2026-04-18T08:16:45.547Z</time></trkpt><trkpt lat="43.5341267" lon="10.833875"><ele>171.33333333333334</ele><time>2026-04-18T08:16:46.548Z</time></trkpt><trkpt lat="43.53406" lon="10.8338267"><ele>171.66666666666669</ele><time>2026-04-18T08:16:47.547Z</time></trkpt><trkpt lat="43.5339967" lon="10.833775"><ele>172.0</ele><time>2026-04-18T08:16:48.547Z</time></trkpt><trkpt lat="43.5339417" lon="10.8337183"><ele>172.0</ele><time>2026-04-18T08:16:49.547Z</time></trkpt><trkpt lat="43.5338933" lon="10.8336467"><ele>172.0</ele><time>2026-04-18T08:16:50.548Z</time></trkpt><trkpt lat="43.533845" lon="10.8335617"><ele>172.0</ele><time>2026-04-18T08:16:51.547Z</time></trkpt><trkpt lat="43.5337933" lon="10.833475"><ele>172.0</ele><time>2026-04-18T08:16:52.547Z</time></trkpt><trkpt lat="43.5337383" lon="10.8333783"><ele>172.0</ele><time>2026-04-18T08:16:53.547Z</time></trkpt><trkpt lat="43.5336817" lon="10.8332767"><ele>172.0</ele><time>2026-04-18T08:16:54.547Z</time></trkpt><trkpt lat="43.533625" lon="10.8331783"><ele>171.6</ele><time>2026-04-18T08:16:55.547Z</time></trkpt><trkpt lat="43.5335633" lon="10.8330817"><ele>171.2</ele><time>2026-04-18T08:16:56.547Z</time></trkpt><trkpt lat="43.5335" lon="10.8329717"><ele>170.8</ele><time>2026-04-18T08:16:57.547Z</time></trkpt><trkpt lat="43.5334483" lon="10.8328567"><ele>170.4</ele><time>2026-04-18T08:16:58.548Z</time></trkpt><trkpt lat="43.5333983" lon="10.8327467"><ele>170.0</ele><time>2026-04-18T08:16:59.547Z</time></trkpt><trkpt lat="43.53336" lon="10.8326383"><ele>170.0</ele><time>2026-04-18T08:17:00.547Z</time></trkpt><trkpt lat="43.5333267" lon="10.8325417"><ele>170.0</ele><time>2026-04-18T08:17:01.547Z</time></trkpt><trkpt lat="43.533285" lon="10.83245"><ele>170.0</ele><time>2026-04-18T08:17:02.548Z</time></trkpt><trkpt lat="43.5332433" lon="10.8323667"><ele>170.0</ele><time>2026-04-18T08:17:03.548Z</time></trkpt><trkpt lat="43.5331967" lon="10.83229"><ele>170.0</ele><time>2026-04-18T08:17:04.547Z</time></trkpt><trkpt lat="43.5331367" lon="10.8322033"><ele>170.0</ele><time>2026-04-18T08:17:05.547Z</time></trkpt><trkpt lat="43.5330567" lon="10.8321017"><ele>170.0</ele><time>2026-04-18T08:17:06.547Z</time></trkpt><trkpt lat="43.532975" lon="10.83198"><ele>170.0</ele><time>2026-04-18T08:17:07.547Z</time></trkpt><trkpt lat="43.5328983" lon="10.8318383"><ele>170.0</ele><time>2026-04-18T08:17:08.547Z</time></trkpt><trkpt lat="43.532835" lon="10.8316983"><ele>170.0</ele><time>2026-04-18T08:17:09.547Z</time></trkpt><trkpt lat="43.5327767" lon="10.8315617"><ele>170.0</ele><time>2026-04-18T08:17:10.547Z</time></trkpt><trkpt lat="43.5327233" lon="10.8314483"><ele>170.0</ele><time>2026-04-18T08:17:11.547Z</time></trkpt><trkpt lat="43.532675" lon="10.8313567"><ele>170.0</ele><time>2026-04-18T08:17:12.547Z</time></trkpt><trkpt lat="43.5326233" lon="10.8312817"><ele>170.0</ele><time>2026-04-18T08:17:13.547Z</time></trkpt><trkpt lat="43.53257" lon="10.8312067"><ele>170.0</ele><time>2026-04-18T08:17:14.547Z</time></trkpt><trkpt lat="43.532505" lon="10.8311333"><ele>170.0</ele><time>2026-04-18T08:17:15.547Z</time></trkpt><trkpt lat="43.5324317" lon="10.831055"><ele>170.0</ele><time>2026-04-18T08:17:16.547Z</time></trkpt><trkpt lat="43.5323533" lon="10.83099"><ele>170.0</ele><time>2026-04-18T08:17:17.547Z</time></trkpt><trkpt lat="43.532265" lon="10.83094"><ele>170.0</ele><time>2026-04-18T08:17:18.547Z</time></trkpt><trkpt lat="43.53217" lon="10.8308883"><ele>170.0</ele><time>2026-04-18T08:17:19.547Z</time></trkpt><trkpt lat="43.53207" lon="10.830835"><ele>170.0</ele><time>2026-04-18T08:17:20.548Z</time></trkpt><trkpt lat="43.53196" lon="10.83078"><ele>172.75</ele><time>2026-04-18T08:17:21.547Z</time></trkpt><trkpt lat="43.531845" lon="10.8307233"><ele>175.5</ele><time>2026-04-18T08:17:22.548Z</time></trkpt><trkpt lat="43.5317167" lon="10.8306717"><ele>178.25</ele><time>2026-04-18T08:17:23.547Z</time></trkpt><trkpt lat="43.531605" lon="10.8306"><ele>181.0</ele><time>2026-04-18T08:17:24.547Z</time></trkpt><trkpt lat="43.5315067" lon="10.8305333"><ele>181.0</ele><time>2026-04-18T08:17:25.547Z</time></trkpt><trkpt lat="43.5314133" lon="10.83048"><ele>181.0</ele><time>2026-04-18T08:17:26.547Z</time></trkpt><trkpt lat="43.5313283" lon="10.8304467"><ele>181.0</ele><time>2026-04-18T08:17:27.547Z</time></trkpt><trkpt lat="43.53127" lon="10.8304067"><ele>181.0</ele><time>2026-04-18T08:17:28.547Z</time></trkpt><trkpt lat="43.5311717" lon="10.83032"><ele>181.0</ele><time>2026-04-18T08:17:30.547Z</time></trkpt><trkpt lat="43.5310833" lon="10.83021"><ele>180.4</ele><time>2026-04-18T08:17:32.547Z</time></trkpt><trkpt lat="43.5310267" lon="10.8300383"><ele>179.8</ele><time>2026-04-18T08:17:34.547Z</time></trkpt><trkpt lat="43.5310033" lon="10.829935"><ele>179.20000000000002</ele><time>2026-04-18T08:17:35.547Z</time></trkpt><trkpt lat="43.530985" lon="10.829815"><ele>178.60000000000002</ele><time>2026-04-18T08:17:36.547Z</time></trkpt><trkpt lat="43.5309633" lon="10.8296917"><ele>178.0</ele><time>2026-04-18T08:17:37.547Z</time></trkpt><trkpt lat="43.5309533" lon="10.829575"><ele>178.0</ele><time>2026-04-18T08:17:38.547Z</time></trkpt><trkpt lat="43.5309433" lon="10.8294717"><ele>178.0</ele><time>2026-04-18T08:17:39.547Z</time></trkpt><trkpt lat="43.5309383" lon="10.82938"><ele>178.0</ele><time>2026-04-18T08:17:40.547Z</time></trkpt><trkpt lat="43.530925" lon="10.8292817"><ele>178.0</ele><time>2026-04-18T08:17:41.547Z</time></trkpt><trkpt lat="43.5309017" lon="10.8291767"><ele>178.0</ele><time>2026-04-18T08:17:42.547Z</time></trkpt><trkpt lat="43.5308683" lon="10.829065"><ele>178.0</ele><time>2026-04-18T08:17:43.547Z</time></trkpt><trkpt lat="43.5308317" lon="10.8289583"><ele>177.66666666666669</ele><time>2026-04-18T08:17:44.547Z</time></trkpt><trkpt lat="43.5307867" lon="10.8288683"><ele>177.33333333333334</ele><time>2026-04-18T08:17:45.547Z</time></trkpt><trkpt lat="43.5307467" lon="10.8287817"><ele>177.0</ele><time>2026-04-18T08:17:46.547Z</time></trkpt><trkpt lat="43.530695" lon="10.8287"><ele>176.66666666666666</ele><time>2026-04-18T08:17:47.547Z</time></trkpt><trkpt lat="43.5306417" lon="10.828605"><ele>176.33333333333331</ele><time>2026-04-18T08:17:48.547Z</time></trkpt><trkpt lat="43.5305833" lon="10.8285083"><ele>176.0</ele><time>2026-04-18T08:17:49.547Z</time></trkpt><trkpt lat="43.5305267" lon="10.828425"><ele>175.33333333333331</ele><time>2026-04-18T08:17:50.547Z</time></trkpt><trkpt lat="43.5304783" lon="10.8283533"><ele>174.66666666666666</ele><time>2026-04-18T08:17:51.547Z</time></trkpt><trkpt lat="43.5304333" lon="10.8282833"><ele>174.0</ele><time>2026-04-18T08:17:52.547Z</time></trkpt><trkpt lat="43.5303867" lon="10.8282217"><ele>173.33333333333334</ele><time>2026-04-18T08:17:53.547Z</time></trkpt><trkpt lat="43.5303067" lon="10.8281167"><ele>172.66666666666669</ele><time>2026-04-18T08:17:55.547Z</time></trkpt><trkpt lat="43.530235" lon="10.828035"><ele>172.0</ele><time>2026-04-18T08:17:57.547Z</time></trkpt><trkpt lat="43.5301617" lon="10.8279533"><ele>171.42857142857144</ele><time>2026-04-18T08:17:59.547Z</time></trkpt><trkpt lat="43.5301117" lon="10.827885"><ele>170.85714285714286</ele><time>2026-04-18T08:18:01.547Z</time></trkpt><trkpt lat="43.53006" lon="10.8278233"><ele>170.28571428571428</ele><time>2026-04-18T08:18:04.547Z</time></trkpt><trkpt lat="43.5300117" lon="10.827715"><ele>169.71428571428572</ele><time>2026-04-18T08:18:08.548Z</time></trkpt><trkpt lat="43.52998" lon="10.827635"><ele>169.14285714285714</ele><time>2026-04-18T08:18:10.547Z</time></trkpt><trkpt lat="43.5299383" lon="10.827565"><ele>168.57142857142858</ele><time>2026-04-18T08:18:12.547Z</time></trkpt><trkpt lat="43.5298983" lon="10.8274933"><ele>168.0</ele><time>2026-04-18T08:18:14.547Z</time></trkpt><trkpt lat="43.5298383" lon="10.8273917"><ele>168.0</ele><time>2026-04-18T08:18:17.547Z</time></trkpt><trkpt lat="43.5297867" lon="10.8273"><ele>168.0</ele><time>2026-04-18T08:18:20.547Z</time></trkpt><trkpt lat="43.5297517" lon="10.8272133"><ele>168.0</ele><time>2026-04-18T08:18:23.547Z</time></trkpt><trkpt lat="43.5296983" lon="10.8271133"><ele>168.0</ele><time>2026-04-18T08:18:26.547Z</time></trkpt><trkpt lat="43.529655" lon="10.8270283"><ele>168.0</ele><time>2026-04-18T08:18:28.547Z</time></trkpt><trkpt lat="43.5296117" lon="10.8269467"><ele>168.0</ele><time>2026-04-18T08:18:30.547Z</time></trkpt><trkpt lat="43.5295517" lon="10.826865"><ele>165.83333333333334</ele><time>2026-04-18T08:18:33.547Z</time></trkpt><trkpt lat="43.5294967" lon="10.826785"><ele>163.66666666666666</ele><time>2026-04-18T08:18:35.548Z</time></trkpt><trkpt lat="43.5294483" lon="10.8267133"><ele>161.5</ele><time>2026-04-18T08:18:37.547Z</time></trkpt><trkpt lat="43.5294083" lon="10.8266317"><ele>159.33333333333331</ele><time>2026-04-18T08:18:39.547Z</time></trkpt><trkpt lat="43.5293617" lon="10.8265283"><ele>157.16666666666666</ele><time>2026-04-18T08:18:41.547Z</time></trkpt><trkpt lat="43.529305" lon="10.82641"><ele>155.0</ele><time>2026-04-18T08:18:43.548Z</time></trkpt><trkpt lat="43.529255" lon="10.8263167"><ele>155.0</ele><time>2026-04-18T08:18:45.547Z</time></trkpt><trkpt lat="43.52921" lon="10.8262333"><ele>155.0</ele><time>2026-04-18T08:18:47.547Z</time></trkpt><trkpt lat="43.5291633" lon="10.826135"><ele>155.0</ele><time>2026-04-18T08:18:49.547Z</time></trkpt><trkpt lat="43.5290967" lon="10.82599"><ele>155.0</ele><time>2026-04-18T08:18:51.547Z</time></trkpt><trkpt lat="43.5290283" lon="10.825855"><ele>155.0</ele><time>2026-04-18T08:18:53.547Z</time></trkpt><trkpt lat="43.5289933" lon="10.8257767"><ele>153.0</ele><time>2026-04-18T08:18:54.548Z</time></trkpt><trkpt lat="43.52896" lon="10.825695"><ele>151.0</ele><time>2026-04-18T08:18:55.547Z</time></trkpt><trkpt lat="43.5289317" lon="10.8256083"><ele>149.0</ele><time>2026-04-18T08:18:56.547Z</time></trkpt><trkpt lat="43.528905" lon="10.8255133"><ele>147.0</ele><time>2026-04-18T08:18:57.547Z</time></trkpt><trkpt lat="43.528885" lon="10.8254233"><ele>145.0</ele><time>2026-04-18T08:18:58.547Z</time></trkpt><trkpt lat="43.5288483" lon="10.8252733"><ele>143.0</ele><time>2026-04-18T08:19:00.547Z</time></trkpt><trkpt lat="43.5288133" lon="10.8251333"><ele>141.8</ele><time>2026-04-18T08:19:02.547Z</time></trkpt><trkpt lat="43.52879" lon="10.8249967"><ele>140.60000000000002</ele><time>2026-04-18T08:19:04.547Z</time></trkpt><trkpt lat="43.5287667" lon="10.8248667"><ele>139.39999999999998</ele><time>2026-04-18T08:19:06.547Z</time></trkpt><trkpt lat="43.52874" lon="10.8247433"><ele>138.2</ele><time>2026-04-18T08:19:08.547Z</time></trkpt><trkpt lat="43.52871" lon="10.824645"><ele>137.0</ele><time>2026-04-18T08:19:10.548Z</time></trkpt><trkpt lat="43.52868" lon="10.8245233"><ele>137.0</ele><time>2026-04-18T08:19:13.547Z</time></trkpt><trkpt lat="43.528605" lon="10.8243333"><ele>137.0</ele><time>2026-04-18T08:19:28.547Z</time></trkpt><trkpt lat="43.5285783" lon="10.82421"><ele>137.0</ele><time>2026-04-18T08:19:30.547Z</time></trkpt><trkpt lat="43.5285367" lon="10.8240967"><ele>137.0</ele><time>2026-04-18T08:19:32.547Z</time></trkpt><trkpt lat="43.5285067" lon="10.8239967"><ele>137.0</ele><time>2026-04-18T08:19:34.547Z</time></trkpt><trkpt lat="43.5284767" lon="10.82388"><ele>136.75</ele><time>2026-04-18T08:19:36.547Z</time></trkpt><trkpt lat="43.528435" lon="10.8237417"><ele>136.5</ele><time>2026-04-18T08:19:38.547Z</time></trkpt><trkpt lat="43.5283833" lon="10.8236017"><ele>136.25</ele><time>2026-04-18T08:19:40.547Z</time></trkpt><trkpt lat="43.5283217" lon="10.823465"><ele>136.0</ele><time>2026-04-18T08:19:42.547Z</time></trkpt><trkpt lat="43.5282533" lon="10.823315"><ele>134.83333333333334</ele><time>2026-04-18T08:19:44.547Z</time></trkpt><trkpt lat="43.5282133" lon="10.8232283"><ele>133.66666666666669</ele><time>2026-04-18T08:19:45.547Z</time></trkpt><trkpt lat="43.52817" lon="10.823135"><ele>132.5</ele><time>2026-04-18T08:19:46.546Z</time></trkpt><trkpt lat="43.5281233" lon="10.8230417"><ele>131.33333333333334</ele><time>2026-04-18T08:19:47.546Z</time></trkpt><trkpt lat="43.5280783" lon="10.8229467"><ele>130.16666666666666</ele><time>2026-04-18T08:19:48.547Z</time></trkpt><trkpt lat="43.5280333" lon="10.8228483"><ele>129.0</ele><time>2026-04-18T08:19:49.546Z</time></trkpt><trkpt lat="43.5279917" lon="10.8227567"><ele>129.0</ele><time>2026-04-18T08:19:50.546Z</time></trkpt><trkpt lat="43.5279533" lon="10.8226717"><ele>129.0</ele><time>2026-04-18T08:19:51.546Z</time></trkpt><trkpt lat="43.527915" lon="10.822595"><ele>129.0</ele><time>2026-04-18T08:19:52.546Z</time></trkpt><trkpt lat="43.5278617" lon="10.8224617"><ele>129.0</ele><time>2026-04-18T08:19:54.546Z</time></trkpt><trkpt lat="43.5278533" lon="10.82237"><ele>129.0</ele><time>2026-04-18T08:19:56.546Z</time></trkpt><trkpt lat="43.527875" lon="10.8221933"><ele>129.0</ele><time>2026-04-18T08:21:46.546Z</time></trkpt><trkpt lat="43.52794" lon="10.82208"><ele>127.5</ele><time>2026-04-18T08:21:48.546Z</time></trkpt><trkpt lat="43.5279767" lon="10.8220033"><ele>126.0</ele><time>2026-04-18T08:21:49.546Z</time></trkpt><trkpt lat="43.528005" lon="10.82191"><ele>124.5</ele><time>2026-04-18T08:21:50.547Z</time></trkpt><trkpt lat="43.5280233" lon="10.82181"><ele>123.0</ele><time>2026-04-18T08:21:51.546Z</time></trkpt><trkpt lat="43.5280283" lon="10.8216983"><ele>121.5</ele><time>2026-04-18T08:21:52.546Z</time></trkpt><trkpt lat="43.5280217" lon="10.82159"><ele>120.0</ele><time>2026-04-18T08:21:53.546Z</time></trkpt><trkpt lat="43.5280117" lon="10.82147"><ele>118.4</ele><time>2026-04-18T08:21:54.546Z</time></trkpt><trkpt lat="43.5280017" lon="10.821345"><ele>116.8</ele><time>2026-04-18T08:21:55.546Z</time></trkpt><trkpt lat="43.527985" lon="10.8212183"><ele>115.19999999999999</ele><time>2026-04-18T08:21:56.546Z</time></trkpt><trkpt lat="43.5279617" lon="10.8210867"><ele>113.6</ele><time>2026-04-18T08:21:57.546Z</time></trkpt><trkpt lat="43.527935" lon="10.8209583"><ele>112.0</ele><time>2026-04-18T08:21:58.546Z</time></trkpt><trkpt lat="43.5279117" lon="10.82083"><ele>111.66666666666667</ele><time>2026-04-18T08:21:59.547Z</time></trkpt><trkpt lat="43.5278933" lon="10.8207267"><ele>111.33333333333334</ele><time>2026-04-18T08:22:00.546Z</time></trkpt><trkpt lat="43.527865" lon="10.8206417"><ele>111.0</ele><time>2026-04-18T08:22:01.547Z</time></trkpt><trkpt lat="43.5278267" lon="10.82057"><ele>110.66666666666666</ele><time>2026-04-18T08:22:02.546Z</time></trkpt><trkpt lat="43.5277183" lon="10.8204617"><ele>110.33333333333333</ele><time>2026-04-18T08:22:04.546Z</time></trkpt><trkpt lat="43.52764" lon="10.82043"><ele>110.0</ele><time>2026-04-18T08:22:05.546Z</time></trkpt><trkpt lat="43.5275567" lon="10.8204033"><ele>109.99999999999999</ele><time>2026-04-18T08:22:06.546Z</time></trkpt><trkpt lat="43.5274717" lon="10.820375"><ele>110.0</ele><time>2026-04-18T08:22:07.546Z</time></trkpt><trkpt lat="43.5273817" lon="10.8203517"><ele>110.0</ele><time>2026-04-18T08:22:08.546Z</time></trkpt><trkpt lat="43.527295" lon="10.820335"><ele>110.0</ele><time>2026-04-18T08:22:09.546Z</time></trkpt><trkpt lat="43.5272117" lon="10.8203117"><ele>109.99999999999999</ele><time>2026-04-18T08:22:10.546Z</time></trkpt><trkpt lat="43.5271433" lon="10.820275"><ele>110.0</ele><time>2026-04-18T08:22:11.546Z</time></trkpt><trkpt lat="43.5270533" lon="10.8201583"><ele>107.16666666666666</ele><time>2026-04-18T08:22:13.546Z</time></trkpt><trkpt lat="43.5270217" lon="10.8200667"><ele>104.33333333333333</ele><time>2026-04-18T08:22:14.546Z</time></trkpt><trkpt lat="43.5270117" lon="10.81998"><ele>101.5</ele><time>2026-04-18T08:22:15.547Z</time></trkpt><trkpt lat="43.52701" lon="10.819875"><ele>98.66666666666666</ele><time>2026-04-18T08:22:16.546Z</time></trkpt><trkpt lat="43.5270167" lon="10.8197567"><ele>95.83333333333333</ele><time>2026-04-18T08:22:17.546Z</time></trkpt><trkpt lat="43.5270267" lon="10.8196383"><ele>93.0</ele><time>2026-04-18T08:22:18.547Z</time></trkpt><trkpt lat="43.5270383" lon="10.8195183"><ele>93.0</ele><time>2026-04-18T08:22:19.546Z</time></trkpt><trkpt lat="43.5270483" lon="10.8194017"><ele>93.0</ele><time>2026-04-18T08:22:20.547Z</time></trkpt><trkpt lat="43.5270533" lon="10.81929"><ele>93.0</ele><time>2026-04-18T08:22:21.546Z</time></trkpt><trkpt lat="43.52705" lon="10.8191883"><ele>93.0</ele><time>2026-04-18T08:22:22.546Z</time></trkpt><trkpt lat="43.5270433" lon="10.8190867"><ele>93.0</ele><time>2026-04-18T08:22:23.546Z</time></trkpt><trkpt lat="43.5270167" lon="10.8189967"><ele>93.0</ele><time>2026-04-18T08:22:24.546Z</time></trkpt><trkpt lat="43.5269817" lon="10.8189083"><ele>92.33333333333333</ele><time>2026-04-18T08:22:25.547Z</time></trkpt><trkpt lat="43.5269433" lon="10.81882"><ele>91.66666666666667</ele><time>2026-04-18T08:22:26.546Z</time></trkpt><trkpt lat="43.5269083" lon="10.818745"><ele>91.0</ele><time>2026-04-18T08:22:27.546Z</time></trkpt><trkpt lat="43.5268417" lon="10.818635"><ele>90.33333333333334</ele><time>2026-04-18T08:22:29.546Z</time></trkpt><trkpt lat="43.5268317" lon="10.8185183"><ele>89.66666666666667</ele><time>2026-04-18T08:22:32.546Z</time></trkpt><trkpt lat="43.5268967" lon="10.8184067"><ele>89.0</ele><time>2026-04-18T08:22:34.546Z</time></trkpt><trkpt lat="43.5269383" lon="10.818325"><ele>89.0</ele><time>2026-04-18T08:22:35.546Z</time></trkpt><trkpt lat="43.5269883" lon="10.8182267"><ele>89.0</ele><time>2026-04-18T08:22:36.546Z</time></trkpt><trkpt lat="43.527055" lon="10.8181117"><ele>89.0</ele><time>2026-04-18T08:22:37.546Z</time></trkpt><trkpt lat="43.5271167" lon="10.8179817"><ele>89.0</ele><time>2026-04-18T08:22:38.546Z</time></trkpt><trkpt lat="43.52718" lon="10.8178667"><ele>89.0</ele><time>2026-04-18T08:22:39.546Z</time></trkpt><trkpt lat="43.5272367" lon="10.817755"><ele>88.0</ele><time>2026-04-18T08:22:40.547Z</time></trkpt><trkpt lat="43.527295" lon="10.8176417"><ele>87.0</ele><time>2026-04-18T08:22:41.546Z</time></trkpt><trkpt lat="43.5273583" lon="10.8175267"><ele>86.0</ele><time>2026-04-18T08:22:42.546Z</time></trkpt><trkpt lat="43.527425" lon="10.8174267"><ele>85.0</ele><time>2026-04-18T08:22:43.547Z</time></trkpt><trkpt lat="43.5274983" lon="10.81735"><ele>84.0</ele><time>2026-04-18T08:22:44.547Z</time></trkpt><trkpt lat="43.527575" lon="10.817295"><ele>84.0</ele><time>2026-04-18T08:22:45.546Z</time></trkpt><trkpt lat="43.5276567" lon="10.8172333"><ele>84.0</ele><time>2026-04-18T08:22:46.546Z</time></trkpt><trkpt lat="43.5277167" lon="10.8171583"><ele>84.0</ele><time>2026-04-18T08:22:47.546Z</time></trkpt><trkpt lat="43.5277533" lon="10.81708"><ele>84.0</ele><time>2026-04-18T08:22:48.546Z</time></trkpt><trkpt lat="43.527795" lon="10.8169233"><ele>84.0</ele><time>2026-04-18T08:22:50.546Z</time></trkpt><trkpt lat="43.5278367" lon="10.8167767"><ele>84.14285714285714</ele><time>2026-04-18T08:22:52.547Z</time></trkpt><trkpt lat="43.5278683" lon="10.816695"><ele>84.28571428571428</ele><time>2026-04-18T08:22:53.546Z</time></trkpt><trkpt lat="43.5278983" lon="10.816605"><ele>84.42857142857143</ele><time>2026-04-18T08:22:54.546Z</time></trkpt><trkpt lat="43.5279283" lon="10.816515"><ele>84.57142857142857</ele><time>2026-04-18T08:22:55.546Z</time></trkpt><trkpt lat="43.527965" lon="10.816425"><ele>84.71428571428571</ele><time>2026-04-18T08:22:56.546Z</time></trkpt><trkpt lat="43.5279967" lon="10.8163383"><ele>84.85714285714286</ele><time>2026-04-18T08:22:57.546Z</time></trkpt><trkpt lat="43.52803" lon="10.8162467"><ele>85.0</ele><time>2026-04-18T08:22:58.547Z</time></trkpt><trkpt lat="43.5280683" lon="10.816155"><ele>85.83333333333333</ele><time>2026-04-18T08:22:59.546Z</time></trkpt><trkpt lat="43.5281217" lon="10.8160633"><ele>86.66666666666666</ele><time>2026-04-18T08:23:00.546Z</time></trkpt><trkpt lat="43.5281883" lon="10.816005"><ele>87.5</ele><time>2026-04-18T08:23:01.546Z</time></trkpt><trkpt lat="43.52826" lon="10.8159733"><ele>88.33333333333333</ele><time>2026-04-18T08:23:02.546Z</time></trkpt><trkpt lat="43.5283333" lon="10.8159767"><ele>89.16666666666667</ele><time>2026-04-18T08:23:03.546Z</time></trkpt><trkpt lat="43.5284217" lon="10.8160017"><ele>90.0</ele><time>2026-04-18T08:23:04.545Z</time></trkpt><trkpt lat="43.52853" lon="10.81603"><ele>90.0</ele><time>2026-04-18T08:23:05.545Z</time></trkpt><trkpt lat="43.5286483" lon="10.816055"><ele>90.0</ele><time>2026-04-18T08:23:06.545Z</time></trkpt><trkpt lat="43.5287633" lon="10.81607"><ele>90.0</ele><time>2026-04-18T08:23:07.545Z</time></trkpt><trkpt lat="43.5288567" lon="10.816075"><ele>90.0</ele><time>2026-04-18T08:23:08.545Z</time></trkpt><trkpt lat="43.5289433" lon="10.8160667"><ele>90.0</ele><time>2026-04-18T08:23:09.545Z</time></trkpt><trkpt lat="43.529025" lon="10.8160433"><ele>91.8</ele><time>2026-04-18T08:23:10.545Z</time></trkpt><trkpt lat="43.5291333" lon="10.815995"><ele>93.6</ele><time>2026-04-18T08:23:11.545Z</time></trkpt><trkpt lat="43.5292267" lon="10.8159483"><ele>95.4</ele><time>2026-04-18T08:23:12.545Z</time></trkpt><trkpt lat="43.5293117" lon="10.8159083"><ele>97.2</ele><time>2026-04-18T08:23:13.545Z</time></trkpt><trkpt lat="43.5293967" lon="10.8158683"><ele>99.0</ele><time>2026-04-18T08:23:14.546Z</time></trkpt><trkpt lat="43.5294867" lon="10.8158267"><ele>103.16666666666667</ele><time>2026-04-18T08:23:15.545Z</time></trkpt><trkpt lat="43.529575" lon="10.8157917"><ele>107.33333333333334</ele><time>2026-04-18T08:23:16.545Z</time></trkpt><trkpt lat="43.5296617" lon="10.8157633"><ele>111.5</ele><time>2026-04-18T08:23:17.545Z</time></trkpt><trkpt lat="43.5297483" lon="10.815735"><ele>115.66666666666667</ele><time>2026-04-18T08:23:18.545Z</time></trkpt><trkpt lat="43.5298267" lon="10.8157217"><ele>119.83333333333334</ele><time>2026-04-18T08:23:19.545Z</time></trkpt><trkpt lat="43.5298983" lon="10.815715"><ele>124.0</ele><time>2026-04-18T08:23:20.545Z</time></trkpt><trkpt lat="43.5299817" lon="10.8157017"><ele>124.0</ele><time>2026-04-18T08:23:21.545Z</time></trkpt><trkpt lat="43.5300817" lon="10.815685"><ele>124.0</ele><time>2026-04-18T08:23:22.545Z</time></trkpt><trkpt lat="43.5301833" lon="10.815675"><ele>124.0</ele><time>2026-04-18T08:23:23.545Z</time></trkpt><trkpt lat="43.5302967" lon="10.8156567"><ele>124.0</ele><time>2026-04-18T08:23:24.545Z</time></trkpt><trkpt lat="43.5304017" lon="10.8156433"><ele>124.0</ele><time>2026-04-18T08:23:25.545Z</time></trkpt><trkpt lat="43.530485" lon="10.8156283"><ele>124.50000000000001</ele><time>2026-04-18T08:23:26.546Z</time></trkpt><trkpt lat="43.5305667" lon="10.8156117"><ele>125.0</ele><time>2026-04-18T08:23:27.545Z</time></trkpt><trkpt lat="43.5306467" lon="10.8155917"><ele>125.5</ele><time>2026-04-18T08:23:28.545Z</time></trkpt><trkpt lat="43.5307317" lon="10.8155783"><ele>126.0</ele><time>2026-04-18T08:23:29.545Z</time></trkpt><trkpt lat="43.5308183" lon="10.8155883"><ele>126.50000000000001</ele><time>2026-04-18T08:23:30.545Z</time></trkpt><trkpt lat="43.5309083" lon="10.8156233"><ele>127.0</ele><time>2026-04-18T08:23:31.545Z</time></trkpt><trkpt lat="43.5310033" lon="10.8156583"><ele>127.0</ele><time>2026-04-18T08:23:32.545Z</time></trkpt><trkpt lat="43.5311017" lon="10.8156983"><ele>126.99999999999999</ele><time>2026-04-18T08:23:33.545Z</time></trkpt><trkpt lat="43.5312017" lon="10.81574"><ele>126.99999999999999</ele><time>2026-04-18T08:23:34.546Z</time></trkpt><trkpt lat="43.5313" lon="10.81578"><ele>127.0</ele><time>2026-04-18T08:23:35.545Z</time></trkpt><trkpt lat="43.5313883" lon="10.8158117"><ele>127.0</ele><time>2026-04-18T08:23:36.545Z</time></trkpt><trkpt lat="43.5314833" lon="10.8158283"><ele>128.0</ele><time>2026-04-18T08:23:37.545Z</time></trkpt><trkpt lat="43.5315833" lon="10.815835"><ele>129.0</ele><time>2026-04-18T08:23:38.545Z</time></trkpt><trkpt lat="43.5316783" lon="10.8158417"><ele>130.0</ele><time>2026-04-18T08:23:39.545Z</time></trkpt><trkpt lat="43.53177" lon="10.81585"><ele>131.0</ele><time>2026-04-18T08:23:40.545Z</time></trkpt><trkpt lat="43.5318617" lon="10.815865"><ele>132.0</ele><time>2026-04-18T08:23:41.545Z</time></trkpt><trkpt lat="43.5319533" lon="10.8158917"><ele>132.0</ele><time>2026-04-18T08:23:42.545Z</time></trkpt><trkpt lat="43.5320417" lon="10.8159383"><ele>132.0</ele><time>2026-04-18T08:23:43.545Z</time></trkpt><trkpt lat="43.5321183" lon="10.81599"><ele>132.0</ele><time>2026-04-18T08:23:44.545Z</time></trkpt><trkpt lat="43.532205" lon="10.8160533"><ele>132.0</ele><time>2026-04-18T08:23:45.546Z</time></trkpt><trkpt lat="43.5323" lon="10.8161217"><ele>132.0</ele><time>2026-04-18T08:23:46.545Z</time></trkpt><trkpt lat="43.532395" lon="10.8161933"><ele>133.2</ele><time>2026-04-18T08:23:47.545Z</time></trkpt><trkpt lat="43.53248" lon="10.816255"><ele>134.39999999999998</ele><time>2026-04-18T08:23:48.545Z</time></trkpt><trkpt lat="43.5325633" lon="10.8163033"><ele>135.60000000000002</ele><time>2026-04-18T08:23:49.545Z</time></trkpt><trkpt lat="43.5326617" lon="10.816355"><ele>136.8</ele><time>2026-04-18T08:23:50.545Z</time></trkpt><trkpt lat="43.5327717" lon="10.8164017"><ele>138.0</ele><time>2026-04-18T08:23:51.545Z</time></trkpt><trkpt lat="43.5328867" lon="10.81645"><ele>137.75</ele><time>2026-04-18T08:23:52.545Z</time></trkpt><trkpt lat="43.533005" lon="10.8165067"><ele>137.5</ele><time>2026-04-18T08:23:53.546Z</time></trkpt><trkpt lat="43.53313" lon="10.8165617"><ele>137.25</ele><time>2026-04-18T08:23:54.546Z</time></trkpt><trkpt lat="43.5332533" lon="10.8166117"><ele>137.0</ele><time>2026-04-18T08:23:55.545Z</time></trkpt><trkpt lat="43.5333517" lon="10.816665"><ele>137.0</ele><time>2026-04-18T08:23:56.546Z</time></trkpt><trkpt lat="43.5334333" lon="10.8167033"><ele>137.0</ele><time>2026-04-18T08:23:57.546Z</time></trkpt><trkpt lat="43.5335033" lon="10.8167317"><ele>137.0</ele><time>2026-04-18T08:23:58.545Z</time></trkpt><trkpt lat="43.5335733" lon="10.8167433"><ele>137.0</ele><time>2026-04-18T08:23:59.545Z</time></trkpt><trkpt lat="43.533645" lon="10.8167367"><ele>137.0</ele><time>2026-04-18T08:24:00.545Z</time></trkpt><trkpt lat="43.5337267" lon="10.816725"><ele>137.0</ele><time>2026-04-18T08:24:01.545Z</time></trkpt><trkpt lat="43.5338217" lon="10.8166983"><ele>138.2</ele><time>2026-04-18T08:24:02.546Z</time></trkpt><trkpt lat="43.5339217" lon="10.816665"><ele>139.39999999999998</ele><time>2026-04-18T08:24:03.545Z</time></trkpt><trkpt lat="43.5340267" lon="10.81663"><ele>140.60000000000002</ele><time>2026-04-18T08:24:04.546Z</time></trkpt><trkpt lat="43.5341267" lon="10.8166167"><ele>141.8</ele><time>2026-04-18T08:24:05.546Z</time></trkpt><trkpt lat="43.5342183" lon="10.81662"><ele>143.0</ele><time>2026-04-18T08:24:06.545Z</time></trkpt><trkpt lat="43.5343" lon="10.81662"><ele>143.0</ele><time>2026-04-18T08:24:07.545Z</time></trkpt><trkpt lat="43.5343833" lon="10.8166317"><ele>143.0</ele><time>2026-04-18T08:24:08.545Z</time></trkpt><trkpt lat="43.5344667" lon="10.8166367"><ele>143.0</ele><time>2026-04-18T08:24:09.545Z</time></trkpt><trkpt lat="43.5345517" lon="10.8166483"><ele>143.0</ele><time>2026-04-18T08:24:10.545Z</time></trkpt><trkpt lat="43.5346383" lon="10.8166617"><ele>143.0</ele><time>2026-04-18T08:24:11.545Z</time></trkpt><trkpt lat="43.534725" lon="10.816675"><ele>143.0</ele><time>2026-04-18T08:24:12.546Z</time></trkpt><trkpt lat="43.5348117" lon="10.8166967"><ele>144.5</ele><time>2026-04-18T08:24:13.546Z</time></trkpt><trkpt lat="43.5348883" lon="10.81671"><ele>146.0</ele><time>2026-04-18T08:24:14.545Z</time></trkpt><trkpt lat="43.5349667" lon="10.81671"><ele>147.5</ele><time>2026-04-18T08:24:15.545Z</time></trkpt><trkpt lat="43.5350417" lon="10.8166867"><ele>149.0</ele><time>2026-04-18T08:24:16.545Z</time></trkpt><trkpt lat="43.5351183" lon="10.8166383"><ele>150.5</ele><time>2026-04-18T08:24:17.545Z</time></trkpt><trkpt lat="43.5351883" lon="10.816585"><ele>152.0</ele><time>2026-04-18T08:24:18.546Z</time></trkpt><trkpt lat="43.535265" lon="10.8165283"><ele>152.0</ele><time>2026-04-18T08:24:19.545Z</time></trkpt><trkpt lat="43.5353417" lon="10.8164617"><ele>152.0</ele><time>2026-04-18T08:24:20.545Z</time></trkpt><trkpt lat="43.5354267" lon="10.8163883"><ele>152.0</ele><time>2026-04-18T08:24:21.545Z</time></trkpt><trkpt lat="43.535515" lon="10.8162983"><ele>152.0</ele><time>2026-04-18T08:24:22.546Z</time></trkpt><trkpt lat="43.535605" lon="10.8162067"><ele>152.0</ele><time>2026-04-18T08:24:23.545Z</time></trkpt><trkpt lat="43.5356917" lon="10.8161183"><ele>154.39999999999998</ele><time>2026-04-18T08:24:24.545Z</time></trkpt><trkpt lat="43.5357767" lon="10.8160317"><ele>156.79999999999998</ele><time>2026-04-18T08:24:25.545Z</time></trkpt><trkpt lat="43.5358683" lon="10.8159417"><ele>159.2</ele><time>2026-04-18T08:24:26.545Z</time></trkpt><trkpt lat="43.535955" lon="10.8158733"><ele>161.6</ele><time>2026-04-18T08:24:27.545Z</time></trkpt><trkpt lat="43.53604" lon="10.8158183"><ele>164.0</ele><time>2026-04-18T08:24:28.545Z</time></trkpt><trkpt lat="43.5361217" lon="10.8157683"><ele>164.0</ele><time>2026-04-18T08:24:29.545Z</time></trkpt><trkpt lat="43.5362017" lon="10.8157283"><ele>164.0</ele><time>2026-04-18T08:24:30.545Z</time></trkpt><trkpt lat="43.5362883" lon="10.8156883"><ele>164.0</ele><time>2026-04-18T08:24:31.546Z</time></trkpt><trkpt lat="43.5363683" lon="10.8156633"><ele>164.0</ele><time>2026-04-18T08:24:32.545Z</time></trkpt><trkpt lat="43.53644" lon="10.815645"><ele>164.0</ele><time>2026-04-18T08:24:33.545Z</time></trkpt><trkpt lat="43.5365183" lon="10.8156283"><ele>164.0</ele><time>2026-04-18T08:24:34.545Z</time></trkpt><trkpt lat="43.5365883" lon="10.8156267"><ele>165.33333333333331</ele><time>2026-04-18T08:24:35.545Z</time></trkpt><trkpt lat="43.5366633" lon="10.8156217"><ele>166.66666666666666</ele><time>2026-04-18T08:24:36.545Z</time></trkpt><trkpt lat="43.5367333" lon="10.8156283"><ele>168.0</ele><time>2026-04-18T08:24:37.545Z</time></trkpt><trkpt lat="43.5368117" lon="10.8156333"><ele>169.33333333333334</ele><time>2026-04-18T08:24:38.545Z</time></trkpt><trkpt lat="43.53688" lon="10.81563"><ele>170.66666666666669</ele><time>2026-04-18T08:24:39.545Z</time></trkpt><trkpt lat="43.5369917" lon="10.815555"><ele>172.0</ele><time>2026-04-18T08:24:41.546Z</time></trkpt><trkpt lat="43.53704" lon="10.8154833"><ele>170.33333333333334</ele><time>2026-04-18T08:24:42.545Z</time></trkpt><trkpt lat="43.5370867" lon="10.8153883"><ele>168.66666666666669</ele><time>2026-04-18T08:24:43.545Z</time></trkpt><trkpt lat="43.5371367" lon="10.8153017"><ele>167.0</ele><time>2026-04-18T08:24:44.545Z</time></trkpt><trkpt lat="43.53719" lon="10.8151767"><ele>165.33333333333334</ele><time>2026-04-18T08:24:46.545Z</time></trkpt><trkpt lat="43.5372333" lon="10.8150717"><ele>163.66666666666666</ele><time>2026-04-18T08:24:48.546Z</time></trkpt><trkpt lat="43.5372483" lon="10.8149533"><ele>162.0</ele><time>2026-04-18T08:24:50.545Z</time></trkpt><trkpt lat="43.5372183" lon="10.8147683"><ele>161.6</ele><time>2026-04-18T08:24:52.545Z</time></trkpt><trkpt lat="43.5371883" lon="10.8146433"><ele>161.2</ele><time>2026-04-18T08:24:53.545Z</time></trkpt><trkpt lat="43.5371683" lon="10.8145083"><ele>160.8</ele><time>2026-04-18T08:24:54.545Z</time></trkpt><trkpt lat="43.5371583" lon="10.814365"><ele>160.4</ele><time>2026-04-18T08:24:55.545Z</time></trkpt><trkpt lat="43.5371683" lon="10.8142283"><ele>160.0</ele><time>2026-04-18T08:24:56.545Z</time></trkpt><trkpt lat="43.537195" lon="10.814095"><ele>161.4</ele><time>2026-04-18T08:24:57.545Z</time></trkpt><trkpt lat="43.5372433" lon="10.8139617"><ele>162.8</ele><time>2026-04-18T08:24:58.545Z</time></trkpt><trkpt lat="43.5373033" lon="10.8138217"><ele>164.2</ele><time>2026-04-18T08:24:59.545Z</time></trkpt><trkpt lat="43.53737" lon="10.813695"><ele>165.6</ele><time>2026-04-18T08:25:00.545Z</time></trkpt><trkpt lat="43.5374233" lon="10.8135683"><ele>167.0</ele><time>2026-04-18T08:25:01.545Z</time></trkpt><trkpt lat="43.5374817" lon="10.8134433"><ele>169.0</ele><time>2026-04-18T08:25:02.545Z</time></trkpt><trkpt lat="43.53753" lon="10.8133233"><ele>171.0</ele><time>2026-04-18T08:25:03.545Z</time></trkpt><trkpt lat="43.53756" lon="10.8132067"><ele>173.0</ele><time>2026-04-18T08:25:04.545Z</time></trkpt><trkpt lat="43.53756" lon="10.8130833"><ele>175.0</ele><time>2026-04-18T08:25:05.545Z</time></trkpt><trkpt lat="43.5375317" lon="10.8129467"><ele>177.0</ele><time>2026-04-18T08:25:06.545Z</time></trkpt><trkpt lat="43.5374783" lon="10.8128233"><ele>177.0</ele><time>2026-04-18T08:25:07.545Z</time></trkpt><trkpt lat="43.5374" lon="10.8127217"><ele>177.0</ele><time>2026-04-18T08:25:08.545Z</time></trkpt><trkpt lat="43.5373117" lon="10.8126433"><ele>177.0</ele><time>2026-04-18T08:25:09.545Z</time></trkpt><trkpt lat="43.5372217" lon="10.8125567"><ele>177.0</ele><time>2026-04-18T08:25:10.545Z</time></trkpt><trkpt lat="43.5371417" lon="10.812475"><ele>177.0</ele><time>2026-04-18T08:25:11.545Z</time></trkpt><trkpt lat="43.5370583" lon="10.8123917"><ele>176.6</ele><time>2026-04-18T08:25:12.545Z</time></trkpt><trkpt lat="43.5369833" lon="10.81231"><ele>176.2</ele><time>2026-04-18T08:25:13.545Z</time></trkpt><trkpt lat="43.5369083" lon="10.81223"><ele>175.8</ele><time>2026-04-18T08:25:14.545Z</time></trkpt><trkpt lat="43.5368383" lon="10.81212"><ele>175.4</ele><time>2026-04-18T08:25:15.546Z</time></trkpt><trkpt lat="43.5367617" lon="10.8119983"><ele>175.0</ele><time>2026-04-18T08:25:16.545Z</time></trkpt><trkpt lat="43.5366783" lon="10.811865"><ele>173.5</ele><time>2026-04-18T08:25:17.545Z</time></trkpt><trkpt lat="43.5365933" lon="10.811725"><ele>172.0</ele><time>2026-04-18T08:25:18.545Z</time></trkpt><trkpt lat="43.536525" lon="10.8115817"><ele>170.5</ele><time>2026-04-18T08:25:19.545Z</time></trkpt><trkpt lat="43.5364767" lon="10.8114267"><ele>169.0</ele><time>2026-04-18T08:25:20.546Z</time></trkpt><trkpt lat="43.5364517" lon="10.811255"><ele>169.0</ele><time>2026-04-18T08:25:21.545Z</time></trkpt><trkpt lat="43.53644" lon="10.8110567"><ele>169.0</ele><time>2026-04-18T08:25:22.546Z</time></trkpt><trkpt lat="43.5364267" lon="10.8108567"><ele>169.0</ele><time>2026-04-18T08:25:23.545Z</time></trkpt><trkpt lat="43.5364267" lon="10.81066"><ele>169.0</ele><time>2026-04-18T08:25:24.545Z</time></trkpt><trkpt lat="43.536435" lon="10.8104817"><ele>168.5</ele><time>2026-04-18T08:25:25.545Z</time></trkpt><trkpt lat="43.5364367" lon="10.81032"><ele>168.0</ele><time>2026-04-18T08:25:26.545Z</time></trkpt><trkpt lat="43.53641" lon="10.8101833"><ele>167.5</ele><time>2026-04-18T08:25:27.545Z</time></trkpt><trkpt lat="43.536355" lon="10.8100483"><ele>167.0</ele><time>2026-04-18T08:25:28.545Z</time></trkpt><trkpt lat="43.5362817" lon="10.8099083"><ele>167.75</ele><time>2026-04-18T08:25:29.545Z</time></trkpt><trkpt lat="43.5361967" lon="10.8097783"><ele>168.5</ele><time>2026-04-18T08:25:30.545Z</time></trkpt><trkpt lat="43.5361283" lon="10.8096383"><ele>169.25</ele><time>2026-04-18T08:25:31.545Z</time></trkpt><trkpt lat="43.53608" lon="10.80949"><ele>170.0</ele><time>2026-04-18T08:25:32.545Z</time></trkpt><trkpt lat="43.5360367" lon="10.8093267"><ele>168.5</ele><time>2026-04-18T08:25:33.545Z</time></trkpt><trkpt lat="43.5360033" lon="10.80915"><ele>167.0</ele><time>2026-04-18T08:25:34.546Z</time></trkpt><trkpt lat="43.5359817" lon="10.80898"><ele>165.5</ele><time>2026-04-18T08:25:35.545Z</time></trkpt><trkpt lat="43.5359783" lon="10.808805"><ele>164.0</ele><time>2026-04-18T08:25:36.546Z</time></trkpt><trkpt lat="43.535985" lon="10.8086183"><ele>163.25</ele><time>2026-04-18T08:25:37.545Z</time></trkpt><trkpt lat="43.53601" lon="10.808425"><ele>162.5</ele><time>2026-04-18T08:25:38.546Z</time></trkpt><trkpt lat="43.5360533" lon="10.80823"><ele>161.75</ele><time>2026-04-18T08:25:39.546Z</time></trkpt><trkpt lat="43.5360883" lon="10.8080433"><ele>161.0</ele><time>2026-04-18T08:25:40.545Z</time></trkpt><trkpt lat="43.536105" lon="10.8078567"><ele>161.66666666666666</ele><time>2026-04-18T08:25:41.545Z</time></trkpt><trkpt lat="43.5361183" lon="10.8076567"><ele>162.33333333333334</ele><time>2026-04-18T08:25:42.545Z</time></trkpt><trkpt lat="43.5361183" lon="10.8074483"><ele>163.0</ele><time>2026-04-18T08:25:43.545Z</time></trkpt><trkpt lat="43.5361083" lon="10.8072317"><ele>163.0</ele><time>2026-04-18T08:25:44.545Z</time></trkpt><trkpt lat="43.536085" lon="10.8070067"><ele>163.0</ele><time>2026-04-18T08:25:45.546Z</time></trkpt><trkpt lat="43.5360583" lon="10.806795"><ele>163.0</ele><time>2026-04-18T08:25:46.546Z</time></trkpt><trkpt lat="43.53603" lon="10.8065933"><ele>163.25</ele><time>2026-04-18T08:25:47.545Z</time></trkpt><trkpt lat="43.5360033" lon="10.8064133"><ele>163.5</ele><time>2026-04-18T08:25:48.545Z</time></trkpt><trkpt lat="43.5359983" lon="10.8062283"><ele>163.75</ele><time>2026-04-18T08:25:49.545Z</time></trkpt><trkpt lat="43.53601" lon="10.8060417"><ele>164.0</ele><time>2026-04-18T08:25:50.545Z</time></trkpt><trkpt lat="43.536035" lon="10.8058367"><ele>164.0</ele><time>2026-04-18T08:25:51.546Z</time></trkpt><trkpt lat="43.53608" lon="10.8056333"><ele>164.0</ele><time>2026-04-18T08:25:52.545Z</time></trkpt><trkpt lat="43.5361317" lon="10.8054333"><ele>164.0</ele><time>2026-04-18T08:25:53.545Z</time></trkpt><trkpt lat="43.5362017" lon="10.8052233"><ele>164.0</ele><time>2026-04-18T08:25:54.545Z</time></trkpt><trkpt lat="43.53628" lon="10.80502"><ele>164.0</ele><time>2026-04-18T08:25:55.545Z</time></trkpt><trkpt lat="43.53635" lon="10.8048267"><ele>164.0</ele><time>2026-04-18T08:25:56.546Z</time></trkpt><trkpt lat="43.53642" lon="10.8046367"><ele>164.0</ele><time>2026-04-18T08:25:57.545Z</time></trkpt><trkpt lat="43.5364867" lon="10.8044383"><ele>164.0</ele><time>2026-04-18T08:25:58.545Z</time></trkpt><trkpt lat="43.5365517" lon="10.80423"><ele>164.0</ele><time>2026-04-18T08:25:59.545Z</time></trkpt><trkpt lat="43.536605" lon="10.8040117"><ele>162.0</ele><time>2026-04-18T08:26:00.545Z</time></trkpt><trkpt lat="43.5366467" lon="10.80378"><ele>160.0</ele><time>2026-04-18T08:26:01.545Z</time></trkpt><trkpt lat="43.5366833" lon="10.8035483"><ele>158.0</ele><time>2026-04-18T08:26:02.545Z</time></trkpt><trkpt lat="43.5366967" lon="10.8032983"><ele>157.33333333333331</ele><time>2026-04-18T08:26:03.545Z</time></trkpt><trkpt lat="43.53671" lon="10.803045"><ele>156.66666666666666</ele><time>2026-04-18T08:26:04.546Z</time></trkpt><trkpt lat="43.5367167" lon="10.80279"><ele>156.0</ele><time>2026-04-18T08:26:05.545Z</time></trkpt><trkpt lat="43.5367267" lon="10.80255"><ele>157.33333333333334</ele><time>2026-04-18T08:26:06.545Z</time></trkpt><trkpt lat="43.536735" lon="10.8023233"><ele>158.66666666666669</ele><time>2026-04-18T08:26:07.545Z</time></trkpt><trkpt lat="43.5367617" lon="10.8021233"><ele>160.0</ele><time>2026-04-18T08:26:08.545Z</time></trkpt><trkpt lat="43.5368167" lon="10.8019433"><ele>161.0</ele><time>2026-04-18T08:26:09.545Z</time></trkpt><trkpt lat="43.5368767" lon="10.8017683"><ele>162.0</ele><time>2026-04-18T08:26:10.545Z</time></trkpt><trkpt lat="43.5369433" lon="10.801615"><ele>163.0</ele><time>2026-04-18T08:26:11.545Z</time></trkpt><trkpt lat="43.5370267" lon="10.8014783"><ele>164.0</ele><time>2026-04-18T08:26:12.546Z</time></trkpt><trkpt lat="43.537135" lon="10.8013583"><ele>164.0</ele><time>2026-04-18T08:26:13.545Z</time></trkpt><trkpt lat="43.537245" lon="10.801255"><ele>164.0</ele><time>2026-04-18T08:26:14.546Z</time></trkpt><trkpt lat="43.5373517" lon="10.8011617"><ele>164.0</ele><time>2026-04-18T08:26:15.545Z</time></trkpt><trkpt lat="43.5374567" lon="10.80107"><ele>164.0</ele><time>2026-04-18T08:26:16.545Z</time></trkpt><trkpt lat="43.5375567" lon="10.80097"><ele>163.2</ele><time>2026-04-18T08:26:17.545Z</time></trkpt><trkpt lat="43.5376383" lon="10.8008817"><ele>162.39999999999998</ele><time>2026-04-18T08:26:18.545Z</time></trkpt><trkpt lat="43.53772" lon="10.8007833"><ele>161.6</ele><time>2026-04-18T08:26:19.545Z</time></trkpt><trkpt lat="43.5378067" lon="10.80068"><ele>160.8</ele><time>2026-04-18T08:26:20.545Z</time></trkpt><trkpt lat="43.537885" lon="10.8005833"><ele>160.0</ele><time>2026-04-18T08:26:21.545Z</time></trkpt><trkpt lat="43.5379467" lon="10.8004817"><ele>160.0</ele><time>2026-04-18T08:26:22.544Z</time></trkpt><trkpt lat="43.5380033" lon="10.80038"><ele>160.0</ele><time>2026-04-18T08:26:23.544Z</time></trkpt><trkpt lat="43.53805" lon="10.8002683"><ele>160.0</ele><time>2026-04-18T08:26:24.544Z</time></trkpt><trkpt lat="43.5380983" lon="10.8001483"><ele>160.0</ele><time>2026-04-18T08:26:25.544Z</time></trkpt><trkpt lat="43.5381533" lon="10.8000217"><ele>160.0</ele><time>2026-04-18T08:26:26.544Z</time></trkpt><trkpt lat="43.53821" lon="10.7998883"><ele>160.4</ele><time>2026-04-18T08:26:27.544Z</time></trkpt><trkpt lat="43.538265" lon="10.799745"><ele>160.8</ele><time>2026-04-18T08:26:28.544Z</time></trkpt><trkpt lat="43.5383183" lon="10.7996017"><ele>161.2</ele><time>2026-04-18T08:26:29.545Z</time></trkpt><trkpt lat="43.538375" lon="10.7994717"><ele>161.6</ele><time>2026-04-18T08:26:30.544Z</time></trkpt><trkpt lat="43.5384217" lon="10.7993433"><ele>162.0</ele><time>2026-04-18T08:26:31.544Z</time></trkpt><trkpt lat="43.5384583" lon="10.7992217"><ele>162.0</ele><time>2026-04-18T08:26:32.544Z</time></trkpt><trkpt lat="43.5384867" lon="10.7991017"><ele>162.0</ele><time>2026-04-18T08:26:33.544Z</time></trkpt><trkpt lat="43.5385117" lon="10.7989733"><ele>162.0</ele><time>2026-04-18T08:26:34.544Z</time></trkpt><trkpt lat="43.5385267" lon="10.798835"><ele>162.0</ele><time>2026-04-18T08:26:35.544Z</time></trkpt><trkpt lat="43.53853" lon="10.7986733"><ele>162.0</ele><time>2026-04-18T08:26:36.544Z</time></trkpt><trkpt lat="43.5385233" lon="10.798495"><ele>160.75</ele><time>2026-04-18T08:26:37.544Z</time></trkpt><trkpt lat="43.5385083" lon="10.7983133"><ele>159.5</ele><time>2026-04-18T08:26:38.544Z</time></trkpt><trkpt lat="43.5384817" lon="10.7981117"><ele>158.25</ele><time>2026-04-18T08:26:39.544Z</time></trkpt><trkpt lat="43.538455" lon="10.7979"><ele>157.0</ele><time>2026-04-18T08:26:40.544Z</time></trkpt><trkpt lat="43.53843" lon="10.797675"><ele>157.75</ele><time>2026-04-18T08:26:41.545Z</time></trkpt><trkpt lat="43.5383933" lon="10.79745"><ele>158.5</ele><time>2026-04-18T08:26:42.544Z</time></trkpt><trkpt lat="43.53836" lon="10.7972483"><ele>159.25</ele><time>2026-04-18T08:26:43.544Z</time></trkpt><trkpt lat="43.5383217" lon="10.79708"><ele>160.0</ele><time>2026-04-18T08:26:44.544Z</time></trkpt><trkpt lat="43.5382717" lon="10.796915"><ele>162.0</ele><time>2026-04-18T08:26:45.544Z</time></trkpt><trkpt lat="43.5382183" lon="10.79674"><ele>164.0</ele><time>2026-04-18T08:26:46.544Z</time></trkpt><trkpt lat="43.5381667" lon="10.7965667"><ele>166.0</ele><time>2026-04-18T08:26:47.545Z</time></trkpt><trkpt lat="43.538125" lon="10.7964"><ele>168.0</ele><time>2026-04-18T08:26:48.544Z</time></trkpt><trkpt lat="43.5381033" lon="10.79625"><ele>168.0</ele><time>2026-04-18T08:26:49.544Z</time></trkpt><trkpt lat="43.538105" lon="10.7961133"><ele>168.0</ele><time>2026-04-18T08:26:50.544Z</time></trkpt><trkpt lat="43.5381283" lon="10.7959867"><ele>168.0</ele><time>2026-04-18T08:26:51.544Z</time></trkpt><trkpt lat="43.5381633" lon="10.7958517"><ele>168.0</ele><time>2026-04-18T08:26:52.544Z</time></trkpt><trkpt lat="43.5382067" lon="10.7957317"><ele>168.0</ele><time>2026-04-18T08:26:53.544Z</time></trkpt><trkpt lat="43.5382617" lon="10.7956133"><ele>169.4</ele><time>2026-04-18T08:26:54.544Z</time></trkpt><trkpt lat="43.5383267" lon="10.7955367"><ele>170.8</ele><time>2026-04-18T08:26:55.544Z</time></trkpt><trkpt lat="43.5384083" lon="10.795465"><ele>172.2</ele><time>2026-04-18T08:26:56.545Z</time></trkpt><trkpt lat="43.538505" lon="10.795405"><ele>173.6</ele><time>2026-04-18T08:26:57.545Z</time></trkpt><trkpt lat="43.538605" lon="10.7953367"><ele>175.0</ele><time>2026-04-18T08:26:58.545Z</time></trkpt><trkpt lat="43.5387167" lon="10.79526"><ele>175.8</ele><time>2026-04-18T08:26:59.544Z</time></trkpt><trkpt lat="43.5388083" lon="10.7951717"><ele>176.6</ele><time>2026-04-18T08:27:00.544Z</time></trkpt><trkpt lat="43.53888" lon="10.79509"><ele>177.39999999999998</ele><time>2026-04-18T08:27:01.544Z</time></trkpt><trkpt lat="43.5389233" lon="10.7949733"><ele>178.2</ele><time>2026-04-18T08:27:02.545Z</time></trkpt><trkpt lat="43.5389583" lon="10.7948483"><ele>179.0</ele><time>2026-04-18T08:27:03.544Z</time></trkpt><trkpt lat="43.538975" lon="10.7947233"><ele>179.00000000000003</ele><time>2026-04-18T08:27:04.545Z</time></trkpt><trkpt lat="43.5389883" lon="10.7946067"><ele>179.0</ele><time>2026-04-18T08:27:05.544Z</time></trkpt><trkpt lat="43.539" lon="10.7945083"><ele>179.0</ele><time>2026-04-18T08:27:06.544Z</time></trkpt><trkpt lat="43.5390133" lon="10.7944183"><ele>179.0</ele><time>2026-04-18T08:27:07.544Z</time></trkpt><trkpt lat="43.5390267" lon="10.7943333"><ele>179.0</ele><time>2026-04-18T08:27:08.545Z</time></trkpt><trkpt lat="43.5390433" lon="10.7942467"><ele>179.00000000000003</ele><time>2026-04-18T08:27:09.544Z</time></trkpt><trkpt lat="43.5390683" lon="10.7941633"><ele>179.0</ele><time>2026-04-18T08:27:10.544Z</time></trkpt><trkpt lat="43.5391083" lon="10.794085"><ele>179.16666666666666</ele><time>2026-04-18T08:27:11.544Z</time></trkpt><trkpt lat="43.5391567" lon="10.79402"><ele>179.33333333333331</ele><time>2026-04-18T08:27:12.544Z</time></trkpt><trkpt lat="43.5392517" lon="10.79393"><ele>179.5</ele><time>2026-04-18T08:27:14.544Z</time></trkpt><trkpt lat="43.53933" lon="10.7938483"><ele>179.66666666666666</ele><time>2026-04-18T08:27:16.544Z</time></trkpt><trkpt lat="43.539395" lon="10.7937717"><ele>179.83333333333334</ele><time>2026-04-18T08:27:19.545Z</time></trkpt><trkpt lat="43.53944" lon="10.7937"><ele>180.0</ele><time>2026-04-18T08:27:22.544Z</time></trkpt><trkpt lat="43.5395083" lon="10.7936133"><ele>180.16666666666666</ele><time>2026-04-18T08:27:29.544Z</time></trkpt><trkpt lat="43.539555" lon="10.79349"><ele>180.33333333333334</ele><time>2026-04-18T08:27:33.545Z</time></trkpt><trkpt lat="43.539575" lon="10.7933817"><ele>180.5</ele><time>2026-04-18T08:27:35.544Z</time></trkpt><trkpt lat="43.5395933" lon="10.7932717"><ele>180.66666666666669</ele><time>2026-04-18T08:27:38.544Z</time></trkpt><trkpt lat="43.5396017" lon="10.7931667"><ele>180.83333333333334</ele><time>2026-04-18T08:27:41.544Z</time></trkpt><trkpt lat="43.539605" lon="10.793075"><ele>181.0</ele><time>2026-04-18T08:27:45.545Z</time></trkpt><trkpt lat="43.5395767" lon="10.7931533"><ele>181.0</ele><time>2026-04-18T08:28:30.544Z</time></trkpt><trkpt lat="43.5395748" lon="10.7933101"><ele>181.0</ele><time>2026-04-18T08:28:46.544Z</time></trkpt><trkpt lat="43.5395718" lon="10.7934089"><ele>181.0</ele><time>2026-04-18T08:28:48.544Z</time></trkpt><trkpt lat="43.5395618" lon="10.7935005"><ele>181.0</ele><time>2026-04-18T08:28:53.544Z</time></trkpt><trkpt lat="43.539528" lon="10.7935845"><ele>181.0</ele><time>2026-04-18T08:29:01.544Z</time></trkpt><trkpt lat="43.5395502" lon="10.7934626"><ele>181.0</ele><time>2026-04-18T09:00:04.542Z</time></trkpt><trkpt lat="43.5395802" lon="10.7933778"><ele>181.0</ele><time>2026-04-18T09:00:08.542Z</time></trkpt><trkpt lat="43.5395956" lon="10.79328"><ele>181.0</ele><time>2026-04-18T09:00:13.542Z</time></trkpt><trkpt lat="43.5395822" lon="10.7931163"><ele>181.0</ele><time>2026-04-18T09:00:27.542Z</time></trkpt><trkpt lat="43.5395845" lon="10.7930143"><ele>181.0</ele><time>2026-04-18T09:00:30.543Z</time></trkpt><trkpt lat="43.5396515" lon="10.7929366"><ele>181.0</ele><time>2026-04-18T09:03:10.542Z</time></trkpt><trkpt lat="43.5396243" lon="10.7930206"><ele>181.0</ele><time>2026-04-18T09:03:14.542Z</time></trkpt><trkpt lat="43.5395663" lon="10.7929749"><ele>181.0</ele><time>2026-04-18T09:03:23.541Z</time></trkpt><trkpt lat="43.5395185" lon="10.7927973"><ele>181.0</ele><time>2026-04-18T09:03:25.541Z</time></trkpt><trkpt lat="43.5394756" lon="10.7926885"><ele>181.0</ele><time>2026-04-18T09:03:26.542Z</time></trkpt><trkpt lat="43.5394331" lon="10.7925749"><ele>181.0</ele><time>2026-04-18T09:03:27.541Z</time></trkpt><trkpt lat="43.5393944" lon="10.7924685"><ele>181.0</ele><time>2026-04-18T09:03:28.542Z</time></trkpt><trkpt lat="43.5393472" lon="10.7923566"><ele>181.0</ele><time>2026-04-18T09:03:29.541Z</time></trkpt><trkpt lat="43.5393017" lon="10.79223"><ele>181.0</ele><time>2026-04-18T09:03:30.542Z</time></trkpt><trkpt lat="43.539255" lon="10.79212"><ele>181.0</ele><time>2026-04-18T09:03:31.541Z</time></trkpt><trkpt lat="43.539225" lon="10.7920183"><ele>181.0</ele><time>2026-04-18T09:03:32.541Z</time></trkpt><trkpt lat="43.5391883" lon="10.79192"><ele>181.0</ele><time>2026-04-18T09:03:33.542Z</time></trkpt><trkpt lat="43.53915" lon="10.791835"><ele>181.0</ele><time>2026-04-18T09:03:34.541Z</time></trkpt><trkpt lat="43.5390983" lon="10.7917567"><ele>182.4</ele><time>2026-04-18T09:03:35.541Z</time></trkpt><trkpt lat="43.539055" lon="10.7916533"><ele>183.8</ele><time>2026-04-18T09:03:36.541Z</time></trkpt><trkpt lat="43.53901" lon="10.791555"><ele>185.20000000000002</ele><time>2026-04-18T09:03:37.541Z</time></trkpt><trkpt lat="43.5389467" lon="10.7914617"><ele>186.60000000000002</ele><time>2026-04-18T09:03:38.541Z</time></trkpt><trkpt lat="43.538875" lon="10.791365"><ele>188.0</ele><time>2026-04-18T09:03:39.541Z</time></trkpt><trkpt lat="43.5387983" lon="10.7912667"><ele>186.2</ele><time>2026-04-18T09:03:40.541Z</time></trkpt><trkpt lat="43.5387167" lon="10.7911667"><ele>184.4</ele><time>2026-04-18T09:03:41.541Z</time></trkpt><trkpt lat="43.538645" lon="10.7910733"><ele>182.6</ele><time>2026-04-18T09:03:42.541Z</time></trkpt><trkpt lat="43.538585" lon="10.7909917"><ele>180.79999999999998</ele><time>2026-04-18T09:03:43.541Z</time></trkpt><trkpt lat="43.5385167" lon="10.7909033"><ele>179.0</ele><time>2026-04-18T09:03:45.542Z</time></trkpt><trkpt lat="43.5384667" lon="10.790845"><ele>179.0</ele><time>2026-04-18T09:03:47.542Z</time></trkpt><trkpt lat="43.53835" lon="10.790775"><ele>179.0</ele><time>2026-04-18T09:03:49.541Z</time></trkpt><trkpt lat="43.5382833" lon="10.7907367"><ele>179.0</ele><time>2026-04-18T09:03:50.542Z</time></trkpt><trkpt lat="43.5382067" lon="10.7906967"><ele>179.0</ele><time>2026-04-18T09:03:51.542Z</time></trkpt><trkpt lat="43.5381133" lon="10.790655"><ele>179.0</ele><time>2026-04-18T09:03:52.541Z</time></trkpt><trkpt lat="43.538015" lon="10.7906217"><ele>179.0</ele><time>2026-04-18T09:03:53.541Z</time></trkpt><trkpt lat="43.5378933" lon="10.7905983"><ele>179.0</ele><time>2026-04-18T09:03:54.541Z</time></trkpt><trkpt lat="43.5377733" lon="10.790585"><ele>179.0</ele><time>2026-04-18T09:03:55.541Z</time></trkpt><trkpt lat="43.5376583" lon="10.7906033"><ele>179.0</ele><time>2026-04-18T09:03:56.541Z</time></trkpt><trkpt lat="43.5375467" lon="10.7906317"><ele>179.0</ele><time>2026-04-18T09:03:57.541Z</time></trkpt><trkpt lat="43.5374333" lon="10.7906767"><ele>179.0</ele><time>2026-04-18T09:03:58.541Z</time></trkpt><trkpt lat="43.537325" lon="10.7907217"><ele>179.0</ele><time>2026-04-18T09:03:59.541Z</time></trkpt><trkpt lat="43.5372233" lon="10.79076"><ele>179.0</ele><time>2026-04-18T09:04:00.541Z</time></trkpt><trkpt lat="43.5371183" lon="10.7907933"><ele>179.0</ele><time>2026-04-18T09:04:01.542Z</time></trkpt><trkpt lat="43.5370283" lon="10.79081"><ele>179.0</ele><time>2026-04-18T09:04:02.542Z</time></trkpt><trkpt lat="43.53694" lon="10.7908067"><ele>179.0</ele><time>2026-04-18T09:04:03.541Z</time></trkpt><trkpt lat="43.53684" lon="10.7907883"><ele>179.0</ele><time>2026-04-18T09:04:04.541Z</time></trkpt><trkpt lat="43.5367467" lon="10.7907717"><ele>179.0</ele><time>2026-04-18T09:04:05.541Z</time></trkpt><trkpt lat="43.5366517" lon="10.79076"><ele>179.0</ele><time>2026-04-18T09:04:06.541Z</time></trkpt><trkpt lat="43.5365383" lon="10.79077"><ele>179.0</ele><time>2026-04-18T09:04:07.541Z</time></trkpt><trkpt lat="43.5364383" lon="10.7907833"><ele>179.0</ele><time>2026-04-18T09:04:08.541Z</time></trkpt><trkpt lat="43.5363583" lon="10.7908083"><ele>179.0</ele><time>2026-04-18T09:04:09.541Z</time></trkpt><trkpt lat="43.536285" lon="10.790825"><ele>179.0</ele><time>2026-04-18T09:04:10.542Z</time></trkpt><trkpt lat="43.5362033" lon="10.79084"><ele>179.0</ele><time>2026-04-18T09:04:11.542Z</time></trkpt><trkpt lat="43.5361317" lon="10.790835"><ele>179.0</ele><time>2026-04-18T09:04:12.541Z</time></trkpt><trkpt lat="43.5360567" lon="10.7908183"><ele>178.83333333333331</ele><time>2026-04-18T09:04:13.541Z</time></trkpt><trkpt lat="43.5359833" lon="10.7908017"><ele>178.66666666666666</ele><time>2026-04-18T09:04:14.541Z</time></trkpt><trkpt lat="43.53592" lon="10.7907567"><ele>178.5</ele><time>2026-04-18T09:04:15.541Z</time></trkpt><trkpt lat="43.5358467" lon="10.7907033"><ele>178.33333333333334</ele><time>2026-04-18T09:04:16.541Z</time></trkpt><trkpt lat="43.535765" lon="10.7906467"><ele>178.16666666666669</ele><time>2026-04-18T09:04:17.541Z</time></trkpt><trkpt lat="43.5356583" lon="10.7905717"><ele>178.0</ele><time>2026-04-18T09:04:18.541Z</time></trkpt><trkpt lat="43.53556" lon="10.7904667"><ele>178.0</ele><time>2026-04-18T09:04:19.541Z</time></trkpt><trkpt lat="43.5354517" lon="10.7903733"><ele>178.0</ele><time>2026-04-18T09:04:20.541Z</time></trkpt><trkpt lat="43.53535" lon="10.7902833"><ele>178.0</ele><time>2026-04-18T09:04:21.541Z</time></trkpt><trkpt lat="43.535245" lon="10.7901933"><ele>178.0</ele><time>2026-04-18T09:04:22.541Z</time></trkpt><trkpt lat="43.535145" lon="10.7900983"><ele>176.25</ele><time>2026-04-18T09:04:23.541Z</time></trkpt><trkpt lat="43.5350267" lon="10.7900067"><ele>174.5</ele><time>2026-04-18T09:04:24.541Z</time></trkpt><trkpt lat="43.534915" lon="10.7899117"><ele>172.75</ele><time>2026-04-18T09:04:25.541Z</time></trkpt><trkpt lat="43.5347967" lon="10.789835"><ele>171.0</ele><time>2026-04-18T09:04:26.541Z</time></trkpt><trkpt lat="43.5346867" lon="10.789755"><ele>171.0</ele><time>2026-04-18T09:04:27.541Z</time></trkpt><trkpt lat="43.53458" lon="10.7896883"><ele>171.0</ele><time>2026-04-18T09:04:28.541Z</time></trkpt><trkpt lat="43.534475" lon="10.7896267"><ele>171.0</ele><time>2026-04-18T09:04:29.541Z</time></trkpt><trkpt lat="43.534385" lon="10.7895633"><ele>171.0</ele><time>2026-04-18T09:04:30.541Z</time></trkpt><trkpt lat="43.5343033" lon="10.78951"><ele>171.0</ele><time>2026-04-18T09:04:31.541Z</time></trkpt><trkpt lat="43.53422" lon="10.7894633"><ele>170.8</ele><time>2026-04-18T09:04:32.541Z</time></trkpt><trkpt lat="43.53414" lon="10.7894217"><ele>170.60000000000002</ele><time>2026-04-18T09:04:33.541Z</time></trkpt><trkpt lat="43.5340583" lon="10.7893733"><ele>170.4</ele><time>2026-04-18T09:04:34.541Z</time></trkpt><trkpt lat="43.533965" lon="10.789315"><ele>170.2</ele><time>2026-04-18T09:04:35.541Z</time></trkpt><trkpt lat="43.5338617" lon="10.7892517"><ele>170.0</ele><time>2026-04-18T09:04:36.541Z</time></trkpt><trkpt lat="43.533755" lon="10.7891733"><ele>168.0</ele><time>2026-04-18T09:04:37.541Z</time></trkpt><trkpt lat="43.5336333" lon="10.7891"><ele>166.0</ele><time>2026-04-18T09:04:38.541Z</time></trkpt><trkpt lat="43.5334933" lon="10.789035"><ele>164.0</ele><time>2026-04-18T09:04:39.541Z</time></trkpt><trkpt lat="43.533355" lon="10.788975"><ele>162.0</ele><time>2026-04-18T09:04:40.541Z</time></trkpt><trkpt lat="43.53322" lon="10.78891"><ele>162.0</ele><time>2026-04-18T09:04:41.541Z</time></trkpt><trkpt lat="43.53309" lon="10.7888433"><ele>162.0</ele><time>2026-04-18T09:04:42.541Z</time></trkpt><trkpt lat="43.5329683" lon="10.7887667"><ele>162.0</ele><time>2026-04-18T09:04:43.541Z</time></trkpt><trkpt lat="43.532845" lon="10.7886917"><ele>162.0</ele><time>2026-04-18T09:04:44.542Z</time></trkpt><trkpt lat="43.532725" lon="10.788625"><ele>160.75</ele><time>2026-04-18T09:04:45.541Z</time></trkpt><trkpt lat="43.5326217" lon="10.7885517"><ele>159.5</ele><time>2026-04-18T09:04:46.542Z</time></trkpt><trkpt lat="43.532515" lon="10.7884833"><ele>158.25</ele><time>2026-04-18T09:04:47.541Z</time></trkpt><trkpt lat="43.53241" lon="10.7884233"><ele>157.0</ele><time>2026-04-18T09:04:48.541Z</time></trkpt><trkpt lat="43.532305" lon="10.788365"><ele>157.0</ele><time>2026-04-18T09:04:49.541Z</time></trkpt><trkpt lat="43.5322067" lon="10.7883117"><ele>157.0</ele><time>2026-04-18T09:04:50.542Z</time></trkpt><trkpt lat="43.53212" lon="10.7882617"><ele>157.0</ele><time>2026-04-18T09:04:51.541Z</time></trkpt><trkpt lat="43.53204" lon="10.7882017"><ele>157.0</ele><time>2026-04-18T09:04:52.541Z</time></trkpt><trkpt lat="43.5319667" lon="10.788145"><ele>157.0</ele><time>2026-04-18T09:04:53.541Z</time></trkpt><trkpt lat="43.5318933" lon="10.7880867"><ele>156.2</ele><time>2026-04-18T09:04:54.541Z</time></trkpt><trkpt lat="43.53183" lon="10.788005"><ele>155.39999999999998</ele><time>2026-04-18T09:04:55.541Z</time></trkpt><trkpt lat="43.53176" lon="10.7879117"><ele>154.60000000000002</ele><time>2026-04-18T09:04:56.541Z</time></trkpt><trkpt lat="43.5316883" lon="10.7877967"><ele>153.8</ele><time>2026-04-18T09:04:57.541Z</time></trkpt><trkpt lat="43.531615" lon="10.7876767"><ele>153.0</ele><time>2026-04-18T09:04:58.541Z</time></trkpt><trkpt lat="43.5315467" lon="10.7875467"><ele>153.0</ele><time>2026-04-18T09:04:59.541Z</time></trkpt><trkpt lat="43.53147" lon="10.78742"><ele>153.0</ele><time>2026-04-18T09:05:00.541Z</time></trkpt><trkpt lat="43.5314017" lon="10.7872833"><ele>153.0</ele><time>2026-04-18T09:05:01.541Z</time></trkpt><trkpt lat="43.531335" lon="10.7871583"><ele>153.0</ele><time>2026-04-18T09:05:02.541Z</time></trkpt><trkpt lat="43.5312733" lon="10.7870417"><ele>150.6</ele><time>2026-04-18T09:05:03.541Z</time></trkpt><trkpt lat="43.5312017" lon="10.7869283"><ele>148.20000000000002</ele><time>2026-04-18T09:05:04.541Z</time></trkpt><trkpt lat="43.5311333" lon="10.7868167"><ele>145.8</ele><time>2026-04-18T09:05:05.541Z</time></trkpt><trkpt lat="43.5310583" lon="10.786705"><ele>143.4</ele><time>2026-04-18T09:05:06.541Z</time></trkpt><trkpt lat="43.5309767" lon="10.786595"><ele>141.0</ele><time>2026-04-18T09:05:07.542Z</time></trkpt><trkpt lat="43.5309067" lon="10.7864833"><ele>141.0</ele><time>2026-04-18T09:05:08.541Z</time></trkpt><trkpt lat="43.5308333" lon="10.7863933"><ele>141.0</ele><time>2026-04-18T09:05:09.541Z</time></trkpt><trkpt lat="43.5307733" lon="10.7863117"><ele>141.0</ele><time>2026-04-18T09:05:10.541Z</time></trkpt><trkpt lat="43.5307283" lon="10.78625"><ele>141.0</ele><time>2026-04-18T09:05:11.541Z</time></trkpt><trkpt lat="43.53067" lon="10.78613"><ele>141.0</ele><time>2026-04-18T09:05:13.541Z</time></trkpt><trkpt lat="43.5306567" lon="10.78599"><ele>141.5</ele><time>2026-04-18T09:05:15.541Z</time></trkpt><trkpt lat="43.53069" lon="10.7858233"><ele>142.0</ele><time>2026-04-18T09:05:17.541Z</time></trkpt><trkpt lat="43.5307367" lon="10.785725"><ele>142.5</ele><time>2026-04-18T09:05:18.541Z</time></trkpt><trkpt lat="43.530775" lon="10.7856267"><ele>143.0</ele><time>2026-04-18T09:05:19.541Z</time></trkpt><trkpt lat="43.5308183" lon="10.78554"><ele>143.5</ele><time>2026-04-18T09:05:20.541Z</time></trkpt><trkpt lat="43.5308483" lon="10.7854567"><ele>144.0</ele><time>2026-04-18T09:05:21.541Z</time></trkpt><trkpt lat="43.530875" lon="10.78537"><ele>144.0</ele><time>2026-04-18T09:05:22.541Z</time></trkpt><trkpt lat="43.5308933" lon="10.7852"><ele>144.0</ele><time>2026-04-18T09:05:24.541Z</time></trkpt><trkpt lat="43.5308883" lon="10.7850917"><ele>144.0</ele><time>2026-04-18T09:05:25.541Z</time></trkpt><trkpt lat="43.5308717" lon="10.7849683"><ele>144.0</ele><time>2026-04-18T09:05:26.541Z</time></trkpt><trkpt lat="43.5308483" lon="10.78485"><ele>144.0</ele><time>2026-04-18T09:05:27.541Z</time></trkpt><trkpt lat="43.5308183" lon="10.78473"><ele>143.16666666666666</ele><time>2026-04-18T09:05:28.541Z</time></trkpt><trkpt lat="43.5307867" lon="10.7846117"><ele>142.33333333333334</ele><time>2026-04-18T09:05:29.541Z</time></trkpt><trkpt lat="43.5307583" lon="10.7845"><ele>141.5</ele><time>2026-04-18T09:05:30.541Z</time></trkpt><trkpt lat="43.530725" lon="10.7843983"><ele>140.66666666666669</ele><time>2026-04-18T09:05:31.541Z</time></trkpt><trkpt lat="43.5306933" lon="10.784305"><ele>139.83333333333334</ele><time>2026-04-18T09:05:32.541Z</time></trkpt><trkpt lat="43.5306567" lon="10.78417"><ele>139.0</ele><time>2026-04-18T09:05:34.541Z</time></trkpt><trkpt lat="43.5306083" lon="10.7840933"><ele>138.2</ele><time>2026-04-18T09:05:38.541Z</time></trkpt><trkpt lat="43.5305433" lon="10.7841033"><ele>137.4</ele><time>2026-04-18T09:05:40.542Z</time></trkpt><trkpt lat="43.5304317" lon="10.784185"><ele>136.6</ele><time>2026-04-18T09:05:42.541Z</time></trkpt><trkpt lat="43.5303583" lon="10.7842567"><ele>135.8</ele><time>2026-04-18T09:05:43.541Z</time></trkpt><trkpt lat="43.5302817" lon="10.7843383"><ele>135.0</ele><time>2026-04-18T09:05:44.541Z</time></trkpt><trkpt lat="43.53022" lon="10.784405"><ele>135.0</ele><time>2026-04-18T09:05:45.541Z</time></trkpt><trkpt lat="43.5301217" lon="10.7845133"><ele>135.0</ele><time>2026-04-18T09:05:47.541Z</time></trkpt><trkpt lat="43.5300133" lon="10.7845833"><ele>135.0</ele><time>2026-04-18T09:05:49.541Z</time></trkpt><trkpt lat="43.5299017" lon="10.784655"><ele>135.0</ele><time>2026-04-18T09:05:51.541Z</time></trkpt><trkpt lat="43.5298283" lon="10.7846817"><ele>135.0</ele><time>2026-04-18T09:05:52.541Z</time></trkpt><trkpt lat="43.5297533" lon="10.784695"><ele>135.0</ele><time>2026-04-18T09:05:53.541Z</time></trkpt><trkpt lat="43.52966" lon="10.7847"><ele>135.0</ele><time>2026-04-18T09:05:54.542Z</time></trkpt><trkpt lat="43.5295767" lon="10.784705"><ele>135.0</ele><time>2026-04-18T09:05:55.541Z</time></trkpt><trkpt lat="43.5294883" lon="10.7847083"><ele>135.0</ele><time>2026-04-18T09:05:56.542Z</time></trkpt><trkpt lat="43.5293983" lon="10.7847067"><ele>135.0</ele><time>2026-04-18T09:05:57.541Z</time></trkpt><trkpt lat="43.529305" lon="10.7846933"><ele>135.0</ele><time>2026-04-18T09:05:58.541Z</time></trkpt><trkpt lat="43.5292067" lon="10.7846767"><ele>131.33333333333334</ele><time>2026-04-18T09:05:59.542Z</time></trkpt><trkpt lat="43.529115" lon="10.78467"><ele>127.66666666666666</ele><time>2026-04-18T09:06:00.541Z</time></trkpt><trkpt lat="43.5290267" lon="10.7846483"><ele>124.0</ele><time>2026-04-18T09:06:01.541Z</time></trkpt><trkpt lat="43.5289433" lon="10.7846383"><ele>120.33333333333333</ele><time>2026-04-18T09:06:02.541Z</time></trkpt><trkpt lat="43.52886" lon="10.7846283"><ele>116.66666666666666</ele><time>2026-04-18T09:06:03.542Z</time></trkpt><trkpt lat="43.5287833" lon="10.7846117"><ele>113.0</ele><time>2026-04-18T09:06:04.541Z</time></trkpt><trkpt lat="43.5286983" lon="10.7846"><ele>110.99999999999999</ele><time>2026-04-18T09:06:05.541Z</time></trkpt><trkpt lat="43.5286233" lon="10.7845967"><ele>109.0</ele><time>2026-04-18T09:06:06.541Z</time></trkpt><trkpt lat="43.5285017" lon="10.78462"><ele>107.0</ele><time>2026-04-18T09:06:08.541Z</time></trkpt><trkpt lat="43.5284383" lon="10.7846383"><ele>105.0</ele><time>2026-04-18T09:06:09.541Z</time></trkpt><trkpt lat="43.5283683" lon="10.7846583"><ele>102.99999999999999</ele><time>2026-04-18T09:06:10.541Z</time></trkpt><trkpt lat="43.528295" lon="10.784665"><ele>101.0</ele><time>2026-04-18T09:06:11.541Z</time></trkpt><trkpt lat="43.528225" lon="10.78467"><ele>100.99999999999999</ele><time>2026-04-18T09:06:12.541Z</time></trkpt><trkpt lat="43.528145" lon="10.784675"><ele>101.0</ele><time>2026-04-18T09:06:13.541Z</time></trkpt><trkpt lat="43.5280617" lon="10.7846717"><ele>101.0</ele><time>2026-04-18T09:06:14.541Z</time></trkpt><trkpt lat="43.5279733" lon="10.7846683"><ele>101.0</ele><time>2026-04-18T09:06:15.541Z</time></trkpt><trkpt lat="43.5278883" lon="10.7846633"><ele>100.99999999999999</ele><time>2026-04-18T09:06:16.541Z</time></trkpt><trkpt lat="43.5278083" lon="10.7846533"><ele>101.0</ele><time>2026-04-18T09:06:17.541Z</time></trkpt><trkpt lat="43.5277283" lon="10.78464"><ele>98.99999999999999</ele><time>2026-04-18T09:06:18.542Z</time></trkpt><trkpt lat="43.5275983" lon="10.7846033"><ele>97.0</ele><time>2026-04-18T09:06:20.541Z</time></trkpt><trkpt lat="43.52753" lon="10.7845767"><ele>95.0</ele><time>2026-04-18T09:06:21.541Z</time></trkpt><trkpt lat="43.5274683" lon="10.7845317"><ele>93.0</ele><time>2026-04-18T09:06:22.541Z</time></trkpt><trkpt lat="43.52741" lon="10.78449"><ele>91.0</ele><time>2026-04-18T09:06:23.541Z</time></trkpt><trkpt lat="43.5273517" lon="10.7844367"><ele>89.0</ele><time>2026-04-18T09:06:24.541Z</time></trkpt><trkpt lat="43.5272983" lon="10.7843767"><ele>89.33333333333334</ele><time>2026-04-18T09:06:25.541Z</time></trkpt><trkpt lat="43.5272433" lon="10.7842917"><ele>89.66666666666667</ele><time>2026-04-18T09:06:26.541Z</time></trkpt><trkpt lat="43.5271983" lon="10.7842017"><ele>90.0</ele><time>2026-04-18T09:06:27.541Z</time></trkpt><trkpt lat="43.5271567" lon="10.78411"><ele>90.33333333333333</ele><time>2026-04-18T09:06:28.541Z</time></trkpt><trkpt lat="43.52711" lon="10.7840083"><ele>90.66666666666666</ele><time>2026-04-18T09:06:29.541Z</time></trkpt><trkpt lat="43.5270517" lon="10.78391"><ele>91.0</ele><time>2026-04-18T09:06:30.541Z</time></trkpt><trkpt lat="43.5269867" lon="10.7838117"><ele>91.0</ele><time>2026-04-18T09:06:31.541Z</time></trkpt><trkpt lat="43.5269317" lon="10.78372"><ele>91.0</ele><time>2026-04-18T09:06:32.541Z</time></trkpt><trkpt lat="43.5268767" lon="10.7836167"><ele>91.0</ele><time>2026-04-18T09:06:33.541Z</time></trkpt><trkpt lat="43.5268183" lon="10.7835217"><ele>91.0</ele><time>2026-04-18T09:06:34.541Z</time></trkpt><trkpt lat="43.5267667" lon="10.783435"><ele>91.0</ele><time>2026-04-18T09:06:35.541Z</time></trkpt><trkpt lat="43.5267133" lon="10.7833433"><ele>91.0</ele><time>2026-04-18T09:06:36.541Z</time></trkpt><trkpt lat="43.5266617" lon="10.7832533"><ele>90.19999999999999</ele><time>2026-04-18T09:06:37.541Z</time></trkpt><trkpt lat="43.52662" lon="10.7831517"><ele>89.39999999999999</ele><time>2026-04-18T09:06:38.541Z</time></trkpt><trkpt lat="43.52658" lon="10.78304"><ele>88.6</ele><time>2026-04-18T09:06:39.541Z</time></trkpt><trkpt lat="43.52654" lon="10.7829017"><ele>87.8</ele><time>2026-04-18T09:06:40.541Z</time></trkpt><trkpt lat="43.5264917" lon="10.78275"><ele>87.0</ele><time>2026-04-18T09:06:41.541Z</time></trkpt><trkpt lat="43.5264483" lon="10.78261"><ele>84.0</ele><time>2026-04-18T09:06:42.541Z</time></trkpt><trkpt lat="43.5264083" lon="10.7824567"><ele>81.0</ele><time>2026-04-18T09:06:43.541Z</time></trkpt><trkpt lat="43.5263633" lon="10.782305"><ele>78.0</ele><time>2026-04-18T09:06:44.541Z</time></trkpt><trkpt lat="43.52632" lon="10.7821617"><ele>75.0</ele><time>2026-04-18T09:06:45.541Z</time></trkpt><trkpt lat="43.52628" lon="10.7820283"><ele>75.0</ele><time>2026-04-18T09:06:46.541Z</time></trkpt><trkpt lat="43.526245" lon="10.7819"><ele>75.0</ele><time>2026-04-18T09:06:47.541Z</time></trkpt><trkpt lat="43.5262033" lon="10.78177"><ele>75.0</ele><time>2026-04-18T09:06:48.541Z</time></trkpt><trkpt lat="43.5261667" lon="10.78165"><ele>75.0</ele><time>2026-04-18T09:06:49.542Z</time></trkpt><trkpt lat="43.526135" lon="10.7815267"><ele>75.0</ele><time>2026-04-18T09:06:50.541Z</time></trkpt><trkpt lat="43.5261083" lon="10.7814217"><ele>74.0</ele><time>2026-04-18T09:06:51.541Z</time></trkpt><trkpt lat="43.52608" lon="10.7813383"><ele>73.0</ele><time>2026-04-18T09:06:52.541Z</time></trkpt><trkpt lat="43.526035" lon="10.78122"><ele>72.0</ele><time>2026-04-18T09:06:54.542Z</time></trkpt><trkpt lat="43.5259583" lon="10.781195"><ele>71.0</ele><time>2026-04-18T09:06:57.541Z</time></trkpt><trkpt lat="43.5258767" lon="10.7812567"><ele>70.0</ele><time>2026-04-18T09:06:59.541Z</time></trkpt><trkpt lat="43.525815" lon="10.781325"><ele>69.0</ele><time>2026-04-18T09:07:00.541Z</time></trkpt><trkpt lat="43.5257433" lon="10.7814017"><ele>69.0</ele><time>2026-04-18T09:07:01.541Z</time></trkpt><trkpt lat="43.525645" lon="10.7814983"><ele>69.0</ele><time>2026-04-18T09:07:02.541Z</time></trkpt><trkpt lat="43.5255333" lon="10.7816033"><ele>69.0</ele><time>2026-04-18T09:07:03.541Z</time></trkpt><trkpt lat="43.5254217" lon="10.7817067"><ele>69.0</ele><time>2026-04-18T09:07:04.541Z</time></trkpt><trkpt lat="43.525305" lon="10.7818267"><ele>69.5</ele><time>2026-04-18T09:07:05.541Z</time></trkpt><trkpt lat="43.5251833" lon="10.78195"><ele>70.0</ele><time>2026-04-18T09:07:06.541Z</time></trkpt><trkpt lat="43.525065" lon="10.7820733"><ele>70.5</ele><time>2026-04-18T09:07:07.542Z</time></trkpt><trkpt lat="43.5249583" lon="10.78218"><ele>71.0</ele><time>2026-04-18T09:07:08.541Z</time></trkpt><trkpt lat="43.52486" lon="10.7822883"><ele>71.0</ele><time>2026-04-18T09:07:09.541Z</time></trkpt><trkpt lat="43.5247617" lon="10.7824133"><ele>71.0</ele><time>2026-04-18T09:07:10.541Z</time></trkpt><trkpt lat="43.52467" lon="10.782565"><ele>71.0</ele><time>2026-04-18T09:07:11.542Z</time></trkpt><trkpt lat="43.5245867" lon="10.7827383"><ele>71.0</ele><time>2026-04-18T09:07:12.541Z</time></trkpt><trkpt lat="43.5244983" lon="10.7829217"><ele>69.0</ele><time>2026-04-18T09:07:13.541Z</time></trkpt><trkpt lat="43.52441" lon="10.783115"><ele>67.0</ele><time>2026-04-18T09:07:14.541Z</time></trkpt><trkpt lat="43.5243033" lon="10.78332"><ele>65.0</ele><time>2026-04-18T09:07:15.541Z</time></trkpt><trkpt lat="43.5242083" lon="10.783535"><ele>65.0</ele><time>2026-04-18T09:07:16.541Z</time></trkpt><trkpt lat="43.5241183" lon="10.78372"><ele>65.0</ele><time>2026-04-18T09:07:17.541Z</time></trkpt><trkpt lat="43.5240283" lon="10.7839017"><ele>65.0</ele><time>2026-04-18T09:07:18.541Z</time></trkpt><trkpt lat="43.52396" lon="10.7840583"><ele>65.0</ele><time>2026-04-18T09:07:19.541Z</time></trkpt><trkpt lat="43.5238833" lon="10.7841883"><ele>65.0</ele><time>2026-04-18T09:07:20.541Z</time></trkpt><trkpt lat="43.5238033" lon="10.7843083"><ele>65.0</ele><time>2026-04-18T09:07:21.541Z</time></trkpt><trkpt lat="43.5237017" lon="10.7844183"><ele>65.0</ele><time>2026-04-18T09:07:22.541Z</time></trkpt><trkpt lat="43.5235783" lon="10.7845217"><ele>66.33333333333334</ele><time>2026-04-18T09:07:23.541Z</time></trkpt><trkpt lat="43.5234333" lon="10.7846183"><ele>67.66666666666667</ele><time>2026-04-18T09:07:24.541Z</time></trkpt><trkpt lat="43.523285" lon="10.7847067"><ele>69.0</ele><time>2026-04-18T09:07:25.541Z</time></trkpt><trkpt lat="43.5231233" lon="10.7847867"><ele>69.0</ele><time>2026-04-18T09:07:26.541Z</time></trkpt><trkpt lat="43.5229733" lon="10.7848633"><ele>69.0</ele><time>2026-04-18T09:07:27.541Z</time></trkpt><trkpt lat="43.5228433" lon="10.78494"><ele>69.0</ele><time>2026-04-18T09:07:28.541Z</time></trkpt><trkpt lat="43.5227233" lon="10.7849967"><ele>69.0</ele><time>2026-04-18T09:07:29.542Z</time></trkpt><trkpt lat="43.52261" lon="10.78507"><ele>69.0</ele><time>2026-04-18T09:07:30.541Z</time></trkpt><trkpt lat="43.5225117" lon="10.7851367"><ele>69.0</ele><time>2026-04-18T09:07:31.541Z</time></trkpt><trkpt lat="43.5224467" lon="10.7851783"><ele>69.0</ele><time>2026-04-18T09:07:32.541Z</time></trkpt><trkpt lat="43.5223833" lon="10.7852583"><ele>69.0</ele><time>2026-04-18T09:07:34.54Z</time></trkpt><trkpt lat="43.5223833" lon="10.7853633"><ele>69.0</ele><time>2026-04-18T09:07:36.54Z</time></trkpt><trkpt lat="43.5224533" lon="10.785495"><ele>69.0</ele><time>2026-04-18T09:07:38.54Z</time></trkpt><trkpt lat="43.522505" lon="10.7855867"><ele>69.0</ele><time>2026-04-18T09:07:39.54Z</time></trkpt><trkpt lat="43.5225483" lon="10.7856833"><ele>69.0</ele><time>2026-04-18T09:07:40.54Z</time></trkpt><trkpt lat="43.5225733" lon="10.7857983"><ele>69.0</ele><time>2026-04-18T09:07:41.54Z</time></trkpt><trkpt lat="43.522585" lon="10.7859267"><ele>69.0</ele><time>2026-04-18T09:07:42.54Z</time></trkpt><trkpt lat="43.52259" lon="10.786065"><ele>69.0</ele><time>2026-04-18T09:07:43.54Z</time></trkpt><trkpt lat="43.5225867" lon="10.7862083"><ele>69.16666666666667</ele><time>2026-04-18T09:07:44.54Z</time></trkpt><trkpt lat="43.522585" lon="10.7863383"><ele>69.33333333333333</ele><time>2026-04-18T09:07:45.54Z</time></trkpt><trkpt lat="43.5225883" lon="10.7864533"><ele>69.5</ele><time>2026-04-18T09:07:46.54Z</time></trkpt><trkpt lat="43.522595" lon="10.7865667"><ele>69.66666666666666</ele><time>2026-04-18T09:07:47.54Z</time></trkpt><trkpt lat="43.522605" lon="10.7866817"><ele>69.83333333333333</ele><time>2026-04-18T09:07:48.54Z</time></trkpt><trkpt lat="43.5226217" lon="10.7868017"><ele>70.0</ele><time>2026-04-18T09:07:49.54Z</time></trkpt><trkpt lat="43.5226367" lon="10.7869367"><ele>70.4</ele><time>2026-04-18T09:07:50.54Z</time></trkpt><trkpt lat="43.522655" lon="10.7870833"><ele>70.8</ele><time>2026-04-18T09:07:51.54Z</time></trkpt><trkpt lat="43.522675" lon="10.787235"><ele>71.2</ele><time>2026-04-18T09:07:52.54Z</time></trkpt><trkpt lat="43.5226967" lon="10.787385"><ele>71.6</ele><time>2026-04-18T09:07:53.54Z</time></trkpt><trkpt lat="43.52272" lon="10.7875233"><ele>72.0</ele><time>2026-04-18T09:07:54.541Z</time></trkpt><trkpt lat="43.5227433" lon="10.7876683"><ele>72.5</ele><time>2026-04-18T09:07:55.54Z</time></trkpt><trkpt lat="43.522765" lon="10.7878167"><ele>73.0</ele><time>2026-04-18T09:07:56.54Z</time></trkpt><trkpt lat="43.5227833" lon="10.7879717"><ele>73.5</ele><time>2026-04-18T09:07:57.54Z</time></trkpt><trkpt lat="43.5228083" lon="10.78814"><ele>74.0</ele><time>2026-04-18T09:07:58.54Z</time></trkpt><trkpt lat="43.5228333" lon="10.788305"><ele>74.0</ele><time>2026-04-18T09:07:59.54Z</time></trkpt><trkpt lat="43.5228517" lon="10.7884767"><ele>74.0</ele><time>2026-04-18T09:08:00.54Z</time></trkpt><trkpt lat="43.522885" lon="10.78865"><ele>74.0</ele><time>2026-04-18T09:08:01.54Z</time></trkpt><trkpt lat="43.522915" lon="10.7888217"><ele>74.0</ele><time>2026-04-18T09:08:02.54Z</time></trkpt><trkpt lat="43.5229483" lon="10.7889967"><ele>76.5</ele><time>2026-04-18T09:08:03.54Z</time></trkpt><trkpt lat="43.5229717" lon="10.7891683"><ele>79.0</ele><time>2026-04-18T09:08:04.54Z</time></trkpt><trkpt lat="43.5229917" lon="10.7893417"><ele>81.5</ele><time>2026-04-18T09:08:05.54Z</time></trkpt><trkpt lat="43.5230183" lon="10.78951"><ele>84.0</ele><time>2026-04-18T09:08:06.54Z</time></trkpt><trkpt lat="43.5230417" lon="10.78966"><ele>85.0</ele><time>2026-04-18T09:08:07.541Z</time></trkpt><trkpt lat="43.5230733" lon="10.7897833"><ele>86.0</ele><time>2026-04-18T09:08:08.54Z</time></trkpt><trkpt lat="43.5231017" lon="10.7898867"><ele>87.0</ele><time>2026-04-18T09:08:09.54Z</time></trkpt><trkpt lat="43.52311" lon="10.7899833"><ele>88.0</ele><time>2026-04-18T09:08:10.54Z</time></trkpt><trkpt lat="43.5231233" lon="10.7900833"><ele>89.0</ele><time>2026-04-18T09:08:11.54Z</time></trkpt><trkpt lat="43.5231417" lon="10.7901767"><ele>90.0</ele><time>2026-04-18T09:08:12.54Z</time></trkpt><trkpt lat="43.5231467" lon="10.7902767"><ele>91.16666666666667</ele><time>2026-04-18T09:08:13.54Z</time></trkpt><trkpt lat="43.5231583" lon="10.7903933"><ele>92.33333333333334</ele><time>2026-04-18T09:08:14.54Z</time></trkpt><trkpt lat="43.5231733" lon="10.7905067"><ele>93.5</ele><time>2026-04-18T09:08:15.54Z</time></trkpt><trkpt lat="43.5231783" lon="10.7906117"><ele>94.66666666666667</ele><time>2026-04-18T09:08:16.54Z</time></trkpt><trkpt lat="43.523185" lon="10.790725"><ele>95.83333333333334</ele><time>2026-04-18T09:08:17.54Z</time></trkpt><trkpt lat="43.5232083" lon="10.790825"><ele>97.0</ele><time>2026-04-18T09:08:18.54Z</time></trkpt><trkpt lat="43.5232367" lon="10.7909033"><ele>97.00000000000001</ele><time>2026-04-18T09:08:19.54Z</time></trkpt><trkpt lat="43.523265" lon="10.7909833"><ele>97.0</ele><time>2026-04-18T09:08:20.54Z</time></trkpt><trkpt lat="43.52331" lon="10.79106"><ele>97.0</ele><time>2026-04-18T09:08:21.54Z</time></trkpt><trkpt lat="43.523365" lon="10.7911417"><ele>97.0</ele><time>2026-04-18T09:08:22.54Z</time></trkpt><trkpt lat="43.5234267" lon="10.7912267"><ele>97.00000000000001</ele><time>2026-04-18T09:08:23.54Z</time></trkpt><trkpt lat="43.5234917" lon="10.7913217"><ele>97.0</ele><time>2026-04-18T09:08:24.541Z</time></trkpt><trkpt lat="43.5235567" lon="10.7914233"><ele>96.33333333333334</ele><time>2026-04-18T09:08:25.54Z</time></trkpt><trkpt lat="43.5236067" lon="10.7915283"><ele>95.66666666666667</ele><time>2026-04-18T09:08:26.541Z</time></trkpt><trkpt lat="43.5236517" lon="10.79162"><ele>95.0</ele><time>2026-04-18T09:08:27.54Z</time></trkpt><trkpt lat="43.5236833" lon="10.791705"><ele>94.33333333333334</ele><time>2026-04-18T09:08:28.54Z</time></trkpt><trkpt lat="43.523705" lon="10.7917967"><ele>93.66666666666667</ele><time>2026-04-18T09:08:29.54Z</time></trkpt><trkpt lat="43.5237233" lon="10.7919"><ele>93.0</ele><time>2026-04-18T09:08:30.54Z</time></trkpt><trkpt lat="43.5237067" lon="10.792025"><ele>93.0</ele><time>2026-04-18T09:08:31.54Z</time></trkpt><trkpt lat="43.5236883" lon="10.7921567"><ele>93.0</ele><time>2026-04-18T09:08:32.54Z</time></trkpt><trkpt lat="43.5236633" lon="10.7922867"><ele>93.0</ele><time>2026-04-18T09:08:33.54Z</time></trkpt><trkpt lat="43.523625" lon="10.792425"><ele>93.0</ele><time>2026-04-18T09:08:34.54Z</time></trkpt><trkpt lat="43.5235917" lon="10.7925583"><ele>93.0</ele><time>2026-04-18T09:08:35.54Z</time></trkpt><trkpt lat="43.5235583" lon="10.7927033"><ele>93.75</ele><time>2026-04-18T09:08:36.54Z</time></trkpt><trkpt lat="43.523525" lon="10.792865"><ele>94.5</ele><time>2026-04-18T09:08:37.54Z</time></trkpt><trkpt lat="43.523505" lon="10.793045"><ele>95.25</ele><time>2026-04-18T09:08:38.54Z</time></trkpt><trkpt lat="43.5234967" lon="10.79322"><ele>96.0</ele><time>2026-04-18T09:08:39.54Z</time></trkpt><trkpt lat="43.5234967" lon="10.7934217"><ele>96.0</ele><time>2026-04-18T09:08:40.54Z</time></trkpt><trkpt lat="43.5235" lon="10.7936067"><ele>96.0</ele><time>2026-04-18T09:08:41.54Z</time></trkpt><trkpt lat="43.5235" lon="10.7937817"><ele>96.0</ele><time>2026-04-18T09:08:42.54Z</time></trkpt><trkpt lat="43.5234967" lon="10.7939433"><ele>96.0</ele><time>2026-04-18T09:08:43.54Z</time></trkpt><trkpt lat="43.5234983" lon="10.7941133"><ele>96.0</ele><time>2026-04-18T09:08:44.54Z</time></trkpt><trkpt lat="43.5234833" lon="10.7943117"><ele>96.0</ele><time>2026-04-18T09:08:45.541Z</time></trkpt><trkpt lat="43.52347" lon="10.7944933"><ele>96.0</ele><time>2026-04-18T09:08:46.54Z</time></trkpt><trkpt lat="43.5234617" lon="10.79465"><ele>96.0</ele><time>2026-04-18T09:08:47.54Z</time></trkpt><trkpt lat="43.52345" lon="10.794785"><ele>96.0</ele><time>2026-04-18T09:08:48.54Z</time></trkpt><trkpt lat="43.5234533" lon="10.7949083"><ele>96.0</ele><time>2026-04-18T09:08:49.54Z</time></trkpt><trkpt lat="43.52346" lon="10.795035"><ele>96.0</ele><time>2026-04-18T09:08:50.54Z</time></trkpt><trkpt lat="43.5234783" lon="10.7951683"><ele>96.0</ele><time>2026-04-18T09:08:51.54Z</time></trkpt><trkpt lat="43.5235083" lon="10.7953183"><ele>96.0</ele><time>2026-04-18T09:08:52.54Z</time></trkpt><trkpt lat="43.523545" lon="10.7954667"><ele>95.75</ele><time>2026-04-18T09:08:53.54Z</time></trkpt><trkpt lat="43.5235933" lon="10.7956367"><ele>95.5</ele><time>2026-04-18T09:08:54.541Z</time></trkpt><trkpt lat="43.523645" lon="10.7958033"><ele>95.25</ele><time>2026-04-18T09:08:55.54Z</time></trkpt><trkpt lat="43.5236933" lon="10.7959567"><ele>95.0</ele><time>2026-04-18T09:08:56.54Z</time></trkpt><trkpt lat="43.523745" lon="10.7960933"><ele>95.0</ele><time>2026-04-18T09:08:57.54Z</time></trkpt><trkpt lat="43.5237933" lon="10.796225"><ele>95.0</ele><time>2026-04-18T09:08:58.54Z</time></trkpt><trkpt lat="43.52384" lon="10.7963533"><ele>95.0</ele><time>2026-04-18T09:08:59.54Z</time></trkpt><trkpt lat="43.5238767" lon="10.7964967"><ele>95.0</ele><time>2026-04-18T09:09:00.541Z</time></trkpt><trkpt lat="43.5239067" lon="10.7966517"><ele>95.0</ele><time>2026-04-18T09:09:01.54Z</time></trkpt><trkpt lat="43.5239367" lon="10.796815"><ele>94.75</ele><time>2026-04-18T09:09:02.54Z</time></trkpt><trkpt lat="43.5239667" lon="10.7969833"><ele>94.5</ele><time>2026-04-18T09:09:03.54Z</time></trkpt><trkpt lat="43.523995" lon="10.79717"><ele>94.25</ele><time>2026-04-18T09:09:04.54Z</time></trkpt><trkpt lat="43.5240083" lon="10.7973567"><ele>94.0</ele><time>2026-04-18T09:09:05.54Z</time></trkpt><trkpt lat="43.5240183" lon="10.7975667"><ele>95.33333333333333</ele><time>2026-04-18T09:09:06.541Z</time></trkpt><trkpt lat="43.524025" lon="10.797775"><ele>96.66666666666666</ele><time>2026-04-18T09:09:07.54Z</time></trkpt><trkpt lat="43.5240417" lon="10.7979783"><ele>98.0</ele><time>2026-04-18T09:09:08.54Z</time></trkpt><trkpt lat="43.524055" lon="10.798185"><ele>98.0</ele><time>2026-04-18T09:09:09.541Z</time></trkpt><trkpt lat="43.5240783" lon="10.7983817"><ele>98.0</ele><time>2026-04-18T09:09:10.54Z</time></trkpt><trkpt lat="43.5241117" lon="10.7985783"><ele>98.0</ele><time>2026-04-18T09:09:11.54Z</time></trkpt><trkpt lat="43.5241517" lon="10.79877"><ele>98.0</ele><time>2026-04-18T09:09:12.54Z</time></trkpt><trkpt lat="43.524185" lon="10.7989467"><ele>98.60000000000001</ele><time>2026-04-18T09:09:13.54Z</time></trkpt><trkpt lat="43.5242117" lon="10.7991167"><ele>99.2</ele><time>2026-04-18T09:09:14.54Z</time></trkpt><trkpt lat="43.52423" lon="10.799255"><ele>99.8</ele><time>2026-04-18T09:09:15.54Z</time></trkpt><trkpt lat="43.5242433" lon="10.799395"><ele>100.4</ele><time>2026-04-18T09:09:16.54Z</time></trkpt><trkpt lat="43.524245" lon="10.7995183"><ele>101.0</ele><time>2026-04-18T09:09:17.54Z</time></trkpt><trkpt lat="43.5242367" lon="10.7996367"><ele>100.8</ele><time>2026-04-18T09:09:18.541Z</time></trkpt><trkpt lat="43.5242233" lon="10.7997633"><ele>100.6</ele><time>2026-04-18T09:09:19.54Z</time></trkpt><trkpt lat="43.524205" lon="10.7999017"><ele>100.4</ele><time>2026-04-18T09:09:20.54Z</time></trkpt><trkpt lat="43.5241817" lon="10.8000467"><ele>100.2</ele><time>2026-04-18T09:09:21.54Z</time></trkpt><trkpt lat="43.5241733" lon="10.8002033"><ele>100.0</ele><time>2026-04-18T09:09:22.54Z</time></trkpt><trkpt lat="43.5241583" lon="10.800365"><ele>100.0</ele><time>2026-04-18T09:09:23.54Z</time></trkpt><trkpt lat="43.524155" lon="10.800515"><ele>100.0</ele><time>2026-04-18T09:09:24.541Z</time></trkpt><trkpt lat="43.5241483" lon="10.8006433"><ele>100.0</ele><time>2026-04-18T09:09:25.54Z</time></trkpt><trkpt lat="43.5241433" lon="10.800765"><ele>100.0</ele><time>2026-04-18T09:09:26.54Z</time></trkpt><trkpt lat="43.5241317" lon="10.8008883"><ele>100.0</ele><time>2026-04-18T09:09:27.54Z</time></trkpt><trkpt lat="43.5241133" lon="10.8010167"><ele>98.8</ele><time>2026-04-18T09:09:28.54Z</time></trkpt><trkpt lat="43.52408" lon="10.801145"><ele>97.6</ele><time>2026-04-18T09:09:29.54Z</time></trkpt><trkpt lat="43.5240383" lon="10.8012833"><ele>96.4</ele><time>2026-04-18T09:09:30.541Z</time></trkpt><trkpt lat="43.5239883" lon="10.801415"><ele>95.2</ele><time>2026-04-18T09:09:31.54Z</time></trkpt><trkpt lat="43.5239367" lon="10.8015367"><ele>94.0</ele><time>2026-04-18T09:09:32.54Z</time></trkpt><trkpt lat="43.5238933" lon="10.801655"><ele>94.0</ele><time>2026-04-18T09:09:33.541Z</time></trkpt><trkpt lat="43.523845" lon="10.8017533"><ele>94.0</ele><time>2026-04-18T09:09:34.54Z</time></trkpt><trkpt lat="43.52379" lon="10.8018483"><ele>94.0</ele><time>2026-04-18T09:09:35.54Z</time></trkpt><trkpt lat="43.5237333" lon="10.8019283"><ele>94.0</ele><time>2026-04-18T09:09:36.54Z</time></trkpt><trkpt lat="43.5236717" lon="10.8019867"><ele>94.0</ele><time>2026-04-18T09:09:37.54Z</time></trkpt><trkpt lat="43.5236" lon="10.8020467"><ele>94.0</ele><time>2026-04-18T09:09:38.541Z</time></trkpt><trkpt lat="43.52352" lon="10.8021033"><ele>95.5</ele><time>2026-04-18T09:09:39.541Z</time></trkpt><trkpt lat="43.52343" lon="10.8021583"><ele>97.0</ele><time>2026-04-18T09:09:40.54Z</time></trkpt><trkpt lat="43.523345" lon="10.8022133"><ele>98.5</ele><time>2026-04-18T09:09:41.54Z</time></trkpt><trkpt lat="43.5232733" lon="10.802265"><ele>100.0</ele><time>2026-04-18T09:09:42.54Z</time></trkpt><trkpt lat="43.5232133" lon="10.8023233"><ele>101.50000000000001</ele><time>2026-04-18T09:09:43.54Z</time></trkpt><trkpt lat="43.5231617" lon="10.8023817"><ele>103.0</ele><time>2026-04-18T09:09:44.54Z</time></trkpt><trkpt lat="43.5231117" lon="10.8024567"><ele>103.00000000000001</ele><time>2026-04-18T09:09:45.54Z</time></trkpt><trkpt lat="43.5230633" lon="10.8025467"><ele>103.0</ele><time>2026-04-18T09:09:46.54Z</time></trkpt><trkpt lat="43.52302" lon="10.8026517"><ele>103.0</ele><time>2026-04-18T09:09:47.54Z</time></trkpt><trkpt lat="43.5229867" lon="10.8027717"><ele>103.0</ele><time>2026-04-18T09:09:48.54Z</time></trkpt><trkpt lat="43.522965" lon="10.8028917"><ele>103.00000000000001</ele><time>2026-04-18T09:09:49.54Z</time></trkpt><trkpt lat="43.52295" lon="10.8029933"><ele>103.0</ele><time>2026-04-18T09:09:50.54Z</time></trkpt><trkpt lat="43.5229283" lon="10.803155"><ele>103.50000000000001</ele><time>2026-04-18T09:09:52.54Z</time></trkpt><trkpt lat="43.522925" lon="10.8032533"><ele>104.0</ele><time>2026-04-18T09:09:53.54Z</time></trkpt><trkpt lat="43.5229217" lon="10.8033567"><ele>104.5</ele><time>2026-04-18T09:09:54.54Z</time></trkpt><trkpt lat="43.522925" lon="10.8034617"><ele>105.0</ele><time>2026-04-18T09:09:55.54Z</time></trkpt><trkpt lat="43.5229417" lon="10.803565"><ele>105.50000000000001</ele><time>2026-04-18T09:09:56.541Z</time></trkpt><trkpt lat="43.5229617" lon="10.80368"><ele>106.0</ele><time>2026-04-18T09:09:57.54Z</time></trkpt><trkpt lat="43.5229917" lon="10.8037917"><ele>106.0</ele><time>2026-04-18T09:09:58.54Z</time></trkpt><trkpt lat="43.5230317" lon="10.8038967"><ele>106.0</ele><time>2026-04-18T09:09:59.54Z</time></trkpt><trkpt lat="43.5230867" lon="10.804005"><ele>106.0</ele><time>2026-04-18T09:10:00.54Z</time></trkpt><trkpt lat="43.52315" lon="10.80413"><ele>106.0</ele><time>2026-04-18T09:10:01.54Z</time></trkpt><trkpt lat="43.52322" lon="10.8042617"><ele>106.0</ele><time>2026-04-18T09:10:02.54Z</time></trkpt><trkpt lat="43.523285" lon="10.804405"><ele>104.5</ele><time>2026-04-18T09:10:03.541Z</time></trkpt><trkpt lat="43.52335" lon="10.8045633"><ele>103.0</ele><time>2026-04-18T09:10:04.54Z</time></trkpt><trkpt lat="43.5234133" lon="10.8047167"><ele>101.5</ele><time>2026-04-18T09:10:05.541Z</time></trkpt><trkpt lat="43.5234683" lon="10.8048417"><ele>100.0</ele><time>2026-04-18T09:10:06.54Z</time></trkpt><trkpt lat="43.5235317" lon="10.80498"><ele>100.0</ele><time>2026-04-18T09:10:07.54Z</time></trkpt><trkpt lat="43.5235833" lon="10.805105"><ele>100.0</ele><time>2026-04-18T09:10:08.54Z</time></trkpt><trkpt lat="43.5236267" lon="10.8052233"><ele>100.0</ele><time>2026-04-18T09:10:09.541Z</time></trkpt><trkpt lat="43.5236583" lon="10.80535"><ele>100.0</ele><time>2026-04-18T09:10:10.541Z</time></trkpt><trkpt lat="43.52368" lon="10.8054817"><ele>100.0</ele><time>2026-04-18T09:10:11.54Z</time></trkpt><trkpt lat="43.5237033" lon="10.8056183"><ele>99.83333333333334</ele><time>2026-04-18T09:10:12.54Z</time></trkpt><trkpt lat="43.5237267" lon="10.805745"><ele>99.66666666666667</ele><time>2026-04-18T09:10:13.54Z</time></trkpt><trkpt lat="43.523755" lon="10.8058617"><ele>99.5</ele><time>2026-04-18T09:10:14.54Z</time></trkpt><trkpt lat="43.5237817" lon="10.805975"><ele>99.33333333333334</ele><time>2026-04-18T09:10:15.54Z</time></trkpt><trkpt lat="43.5238" lon="10.80607"><ele>99.16666666666667</ele><time>2026-04-18T09:10:16.54Z</time></trkpt><trkpt lat="43.52381" lon="10.806165"><ele>99.0</ele><time>2026-04-18T09:10:17.54Z</time></trkpt><trkpt lat="43.5238133" lon="10.8062633"><ele>98.57142857142857</ele><time>2026-04-18T09:10:18.54Z</time></trkpt><trkpt lat="43.5238133" lon="10.8063583"><ele>98.14285714285714</ele><time>2026-04-18T09:10:19.54Z</time></trkpt><trkpt lat="43.5238017" lon="10.8064683"><ele>97.71428571428571</ele><time>2026-04-18T09:10:20.54Z</time></trkpt><trkpt lat="43.523785" lon="10.8065733"><ele>97.28571428571428</ele><time>2026-04-18T09:10:21.54Z</time></trkpt><trkpt lat="43.5237667" lon="10.8066717"><ele>96.85714285714286</ele><time>2026-04-18T09:10:22.54Z</time></trkpt><trkpt lat="43.52375" lon="10.8067717"><ele>96.42857142857142</ele><time>2026-04-18T09:10:23.54Z</time></trkpt><trkpt lat="43.523735" lon="10.80687"><ele>96.0</ele><time>2026-04-18T09:10:24.54Z</time></trkpt><trkpt lat="43.5237217" lon="10.80697"><ele>96.0</ele><time>2026-04-18T09:10:25.54Z</time></trkpt><trkpt lat="43.523725" lon="10.80707"><ele>96.0</ele><time>2026-04-18T09:10:26.54Z</time></trkpt><trkpt lat="43.52374" lon="10.8071967"><ele>96.0</ele><time>2026-04-18T09:10:27.54Z</time></trkpt><trkpt lat="43.52376" lon="10.8073467"><ele>96.0</ele><time>2026-04-18T09:10:28.541Z</time></trkpt><trkpt lat="43.5237983" lon="10.8075183"><ele>96.0</ele><time>2026-04-18T09:10:29.54Z</time></trkpt><trkpt lat="43.5238533" lon="10.8076733"><ele>96.0</ele><time>2026-04-18T09:10:30.54Z</time></trkpt><trkpt lat="43.5239033" lon="10.807815"><ele>96.0</ele><time>2026-04-18T09:10:31.54Z</time></trkpt><trkpt lat="43.5239517" lon="10.80794"><ele>96.0</ele><time>2026-04-18T09:10:32.54Z</time></trkpt><trkpt lat="43.5240067" lon="10.8080567"><ele>96.0</ele><time>2026-04-18T09:10:33.541Z</time></trkpt><trkpt lat="43.5240567" lon="10.8081633"><ele>96.0</ele><time>2026-04-18T09:10:34.54Z</time></trkpt><trkpt lat="43.5240917" lon="10.808265"><ele>96.0</ele><time>2026-04-18T09:10:35.54Z</time></trkpt><trkpt lat="43.5241017" lon="10.8083733"><ele>96.0</ele><time>2026-04-18T09:10:36.54Z</time></trkpt><trkpt lat="43.52411" lon="10.8084867"><ele>96.0</ele><time>2026-04-18T09:10:37.54Z</time></trkpt><trkpt lat="43.5241033" lon="10.8086167"><ele>96.0</ele><time>2026-04-18T09:10:38.54Z</time></trkpt><trkpt lat="43.52408" lon="10.808775"><ele>96.0</ele><time>2026-04-18T09:10:39.54Z</time></trkpt><trkpt lat="43.5240633" lon="10.8089317"><ele>96.8</ele><time>2026-04-18T09:10:40.54Z</time></trkpt><trkpt lat="43.5240483" lon="10.809075"><ele>97.6</ele><time>2026-04-18T09:10:41.54Z</time></trkpt><trkpt lat="43.5240417" lon="10.8092067"><ele>98.4</ele><time>2026-04-18T09:10:42.54Z</time></trkpt><trkpt lat="43.5240433" lon="10.809345"><ele>99.2</ele><time>2026-04-18T09:10:43.54Z</time></trkpt><trkpt lat="43.5240533" lon="10.8094883"><ele>100.0</ele><time>2026-04-18T09:10:44.54Z</time></trkpt><trkpt lat="43.5240683" lon="10.8096317"><ele>100.6</ele><time>2026-04-18T09:10:45.54Z</time></trkpt><trkpt lat="43.5240883" lon="10.8097733"><ele>101.2</ele><time>2026-04-18T09:10:46.54Z</time></trkpt><trkpt lat="43.5241017" lon="10.8099067"><ele>101.80000000000001</ele><time>2026-04-18T09:10:47.541Z</time></trkpt><trkpt lat="43.5241067" lon="10.810025"><ele>102.4</ele><time>2026-04-18T09:10:48.54Z</time></trkpt><trkpt lat="43.524105" lon="10.81014"><ele>103.0</ele><time>2026-04-18T09:10:49.54Z</time></trkpt><trkpt lat="43.5241033" lon="10.8102633"><ele>103.2</ele><time>2026-04-18T09:10:50.54Z</time></trkpt><trkpt lat="43.524085" lon="10.8103967"><ele>103.4</ele><time>2026-04-18T09:10:51.54Z</time></trkpt><trkpt lat="43.5240583" lon="10.8105383"><ele>103.60000000000001</ele><time>2026-04-18T09:10:52.54Z</time></trkpt><trkpt lat="43.5240167" lon="10.81069"><ele>103.80000000000001</ele><time>2026-04-18T09:10:53.54Z</time></trkpt><trkpt lat="43.523995" lon="10.8108533"><ele>104.0</ele><time>2026-04-18T09:10:54.54Z</time></trkpt><trkpt lat="43.523975" lon="10.8110083"><ele>103.66666666666666</ele><time>2026-04-18T09:10:55.54Z</time></trkpt><trkpt lat="43.5239583" lon="10.81114"><ele>103.33333333333333</ele><time>2026-04-18T09:10:56.541Z</time></trkpt><trkpt lat="43.523935" lon="10.8112683"><ele>103.0</ele><time>2026-04-18T09:10:57.54Z</time></trkpt><trkpt lat="43.5239083" lon="10.8113733"><ele>102.66666666666666</ele><time>2026-04-18T09:10:58.539Z</time></trkpt><trkpt lat="43.523875" lon="10.811465"><ele>102.33333333333333</ele><time>2026-04-18T09:10:59.539Z</time></trkpt><trkpt lat="43.5238417" lon="10.8115417"><ele>102.0</ele><time>2026-04-18T09:11:00.539Z</time></trkpt><trkpt lat="43.5237983" lon="10.811615"><ele>102.0</ele><time>2026-04-18T09:11:01.54Z</time></trkpt><trkpt lat="43.5237483" lon="10.8116983"><ele>102.0</ele><time>2026-04-18T09:11:02.54Z</time></trkpt><trkpt lat="43.5236767" lon="10.8117683"><ele>102.0</ele><time>2026-04-18T09:11:03.539Z</time></trkpt><trkpt lat="43.52361" lon="10.81184"><ele>102.0</ele><time>2026-04-18T09:11:04.539Z</time></trkpt><trkpt lat="43.52356" lon="10.811905"><ele>102.0</ele><time>2026-04-18T09:11:05.539Z</time></trkpt><trkpt lat="43.5235067" lon="10.8119583"><ele>102.0</ele><time>2026-04-18T09:11:06.54Z</time></trkpt><trkpt lat="43.523445" lon="10.8120033"><ele>104.33333333333333</ele><time>2026-04-18T09:11:07.539Z</time></trkpt><trkpt lat="43.5233767" lon="10.8120417"><ele>106.66666666666666</ele><time>2026-04-18T09:11:08.54Z</time></trkpt><trkpt lat="43.5233067" lon="10.8120733"><ele>109.0</ele><time>2026-04-18T09:11:09.54Z</time></trkpt><trkpt lat="43.523235" lon="10.8120983"><ele>111.33333333333333</ele><time>2026-04-18T09:11:10.54Z</time></trkpt><trkpt lat="43.5231233" lon="10.81216"><ele>113.66666666666666</ele><time>2026-04-18T09:11:12.539Z</time></trkpt><trkpt lat="43.5230433" lon="10.8122583"><ele>116.0</ele><time>2026-04-18T09:11:14.54Z</time></trkpt><trkpt lat="43.5229683" lon="10.8123933"><ele>115.99999999999999</ele><time>2026-04-18T09:11:16.539Z</time></trkpt><trkpt lat="43.52293" lon="10.8124733"><ele>116.0</ele><time>2026-04-18T09:11:17.539Z</time></trkpt><trkpt lat="43.5228917" lon="10.812555"><ele>116.0</ele><time>2026-04-18T09:11:18.539Z</time></trkpt><trkpt lat="43.522855" lon="10.8126467"><ele>116.0</ele><time>2026-04-18T09:11:19.539Z</time></trkpt><trkpt lat="43.5228167" lon="10.812755"><ele>115.99999999999999</ele><time>2026-04-18T09:11:20.539Z</time></trkpt><trkpt lat="43.5227817" lon="10.81286"><ele>116.0</ele><time>2026-04-18T09:11:21.539Z</time></trkpt><trkpt lat="43.5227367" lon="10.812945"><ele>116.99999999999999</ele><time>2026-04-18T09:11:22.539Z</time></trkpt><trkpt lat="43.5226967" lon="10.8130133"><ele>118.0</ele><time>2026-04-18T09:11:23.539Z</time></trkpt><trkpt lat="43.522645" lon="10.81308"><ele>119.0</ele><time>2026-04-18T09:11:24.539Z</time></trkpt><trkpt lat="43.5225867" lon="10.813145"><ele>120.0</ele><time>2026-04-18T09:11:25.539Z</time></trkpt><trkpt lat="43.52252" lon="10.8132083"><ele>120.99999999999999</ele><time>2026-04-18T09:11:26.54Z</time></trkpt><trkpt lat="43.5224567" lon="10.8132767"><ele>122.0</ele><time>2026-04-18T09:11:27.539Z</time></trkpt><trkpt lat="43.522375" lon="10.81335"><ele>122.0</ele><time>2026-04-18T09:11:28.539Z</time></trkpt><trkpt lat="43.5222917" lon="10.8134183"><ele>121.99999999999999</ele><time>2026-04-18T09:11:29.539Z</time></trkpt><trkpt lat="43.5222233" lon="10.8134867"><ele>121.99999999999999</ele><time>2026-04-18T09:11:30.539Z</time></trkpt><trkpt lat="43.522165" lon="10.8135733"><ele>122.0</ele><time>2026-04-18T09:11:31.54Z</time></trkpt><trkpt lat="43.52211" lon="10.8136483"><ele>122.0</ele><time>2026-04-18T09:11:32.54Z</time></trkpt><trkpt lat="43.52204" lon="10.8138017"><ele>122.99999999999999</ele><time>2026-04-18T09:11:34.539Z</time></trkpt><trkpt lat="43.5220067" lon="10.8138967"><ele>124.0</ele><time>2026-04-18T09:11:35.539Z</time></trkpt><trkpt lat="43.52197" lon="10.814"><ele>125.0</ele><time>2026-04-18T09:11:36.539Z</time></trkpt><trkpt lat="43.521935" lon="10.8141217"><ele>126.0</ele><time>2026-04-18T09:11:37.539Z</time></trkpt><trkpt lat="43.5219083" lon="10.81425"><ele>126.99999999999999</ele><time>2026-04-18T09:11:38.539Z</time></trkpt><trkpt lat="43.5218833" lon="10.8143733"><ele>128.0</ele><time>2026-04-18T09:11:39.539Z</time></trkpt><trkpt lat="43.5218533" lon="10.8144917"><ele>128.0</ele><time>2026-04-18T09:11:40.539Z</time></trkpt><trkpt lat="43.5218083" lon="10.81461"><ele>128.0</ele><time>2026-04-18T09:11:41.539Z</time></trkpt><trkpt lat="43.5217517" lon="10.8147367"><ele>128.0</ele><time>2026-04-18T09:11:43.539Z</time></trkpt><trkpt lat="43.5217333" lon="10.81488"><ele>128.0</ele><time>2026-04-18T09:11:45.539Z</time></trkpt><trkpt lat="43.5217317" lon="10.8149867"><ele>128.0</ele><time>2026-04-18T09:11:46.539Z</time></trkpt><trkpt lat="43.52173" lon="10.8151017"><ele>127.83333333333333</ele><time>2026-04-18T09:11:47.54Z</time></trkpt><trkpt lat="43.521725" lon="10.8152117"><ele>127.66666666666666</ele><time>2026-04-18T09:11:48.539Z</time></trkpt><trkpt lat="43.521725" lon="10.8153283"><ele>127.5</ele><time>2026-04-18T09:11:49.539Z</time></trkpt><trkpt lat="43.5217267" lon="10.81544"><ele>127.33333333333334</ele><time>2026-04-18T09:11:50.539Z</time></trkpt><trkpt lat="43.5217333" lon="10.8155433"><ele>127.16666666666667</ele><time>2026-04-18T09:11:51.54Z</time></trkpt><trkpt lat="43.521735" lon="10.815635"><ele>127.0</ele><time>2026-04-18T09:11:52.539Z</time></trkpt><trkpt lat="43.5217517" lon="10.8158033"><ele>127.00000000000001</ele><time>2026-04-18T09:11:54.539Z</time></trkpt><trkpt lat="43.521785" lon="10.815895"><ele>127.0</ele><time>2026-04-18T09:11:55.539Z</time></trkpt><trkpt lat="43.52183" lon="10.8159917"><ele>127.0</ele><time>2026-04-18T09:11:56.539Z</time></trkpt><trkpt lat="43.5218833" lon="10.8160867"><ele>127.0</ele><time>2026-04-18T09:11:57.54Z</time></trkpt><trkpt lat="43.5219333" lon="10.8161867"><ele>127.00000000000001</ele><time>2026-04-18T09:11:58.54Z</time></trkpt><trkpt lat="43.5219783" lon="10.816285"><ele>127.0</ele><time>2026-04-18T09:11:59.539Z</time></trkpt><trkpt lat="43.5220367" lon="10.8164"><ele>126.50000000000001</ele><time>2026-04-18T09:12:00.539Z</time></trkpt><trkpt lat="43.5220833" lon="10.816495"><ele>126.0</ele><time>2026-04-18T09:12:01.539Z</time></trkpt><trkpt lat="43.5221183" lon="10.8165883"><ele>125.5</ele><time>2026-04-18T09:12:02.54Z</time></trkpt><trkpt lat="43.5221267" lon="10.8166917"><ele>125.0</ele><time>2026-04-18T09:12:03.54Z</time></trkpt><trkpt lat="43.522125" lon="10.8168067"><ele>124.50000000000001</ele><time>2026-04-18T09:12:04.539Z</time></trkpt><trkpt lat="43.5221183" lon="10.8169167"><ele>124.0</ele><time>2026-04-18T09:12:05.539Z</time></trkpt><trkpt lat="43.5220917" lon="10.81703"><ele>123.80000000000001</ele><time>2026-04-18T09:12:06.539Z</time></trkpt><trkpt lat="43.5220533" lon="10.8171517"><ele>123.60000000000001</ele><time>2026-04-18T09:12:07.539Z</time></trkpt><trkpt lat="43.52201" lon="10.8172867"><ele>123.4</ele><time>2026-04-18T09:12:08.539Z</time></trkpt><trkpt lat="43.5219683" lon="10.81743"><ele>123.2</ele><time>2026-04-18T09:12:09.539Z</time></trkpt><trkpt lat="43.5219233" lon="10.8175467"><ele>123.0</ele><time>2026-04-18T09:12:10.54Z</time></trkpt><trkpt lat="43.5218933" lon="10.8176517"><ele>124.33333333333333</ele><time>2026-04-18T09:12:11.539Z</time></trkpt><trkpt lat="43.5218667" lon="10.8177333"><ele>125.66666666666666</ele><time>2026-04-18T09:12:12.54Z</time></trkpt><trkpt lat="43.5218133" lon="10.8178617"><ele>127.0</ele><time>2026-04-18T09:12:14.539Z</time></trkpt><trkpt lat="43.5217417" lon="10.8179767"><ele>128.33333333333331</ele><time>2026-04-18T09:12:16.539Z</time></trkpt><trkpt lat="43.52169" lon="10.8180367"><ele>129.66666666666666</ele><time>2026-04-18T09:12:17.539Z</time></trkpt><trkpt lat="43.5216267" lon="10.818105"><ele>131.0</ele><time>2026-04-18T09:12:18.539Z</time></trkpt><trkpt lat="43.5215717" lon="10.8181733"><ele>131.0</ele><time>2026-04-18T09:12:19.539Z</time></trkpt><trkpt lat="43.52149" lon="10.81828"><ele>131.0</ele><time>2026-04-18T09:12:21.539Z</time></trkpt><trkpt lat="43.5214183" lon="10.8183583"><ele>131.0</ele><time>2026-04-18T09:12:23.539Z</time></trkpt><trkpt lat="43.5213767" lon="10.8184283"><ele>131.0</ele><time>2026-04-18T09:12:25.54Z</time></trkpt><trkpt lat="43.5213583" lon="10.8185167"><ele>131.0</ele><time>2026-04-18T09:12:27.539Z</time></trkpt><trkpt lat="43.5213217" lon="10.81864"><ele>131.0</ele><time>2026-04-18T09:12:29.539Z</time></trkpt><trkpt lat="43.5213033" lon="10.8187767"><ele>130.0</ele><time>2026-04-18T09:12:31.539Z</time></trkpt><trkpt lat="43.5213017" lon="10.8189183"><ele>129.0</ele><time>2026-04-18T09:12:33.539Z</time></trkpt><trkpt lat="43.521315" lon="10.8190133"><ele>128.0</ele><time>2026-04-18T09:12:34.539Z</time></trkpt><trkpt lat="43.5213633" lon="10.819165"><ele>127.0</ele><time>2026-04-18T09:12:36.539Z</time></trkpt><trkpt lat="43.521395" lon="10.8192483"><ele>126.0</ele><time>2026-04-18T09:12:37.54Z</time></trkpt><trkpt lat="43.5214367" lon="10.8193967"><ele>123.8</ele><time>2026-04-18T09:12:39.539Z</time></trkpt><trkpt lat="43.5214633" lon="10.8195183"><ele>121.6</ele><time>2026-04-18T09:12:41.539Z</time></trkpt><trkpt lat="43.5214583" lon="10.8196533"><ele>119.4</ele><time>2026-04-18T09:12:43.54Z</time></trkpt><trkpt lat="43.52144" lon="10.8197833"><ele>117.2</ele><time>2026-04-18T09:12:45.54Z</time></trkpt><trkpt lat="43.5213917" lon="10.8199417"><ele>115.0</ele><time>2026-04-18T09:12:47.54Z</time></trkpt><trkpt lat="43.5213517" lon="10.8200917"><ele>113.66666666666667</ele><time>2026-04-18T09:12:49.539Z</time></trkpt><trkpt lat="43.5213183" lon="10.82024"><ele>112.33333333333334</ele><time>2026-04-18T09:12:51.539Z</time></trkpt><trkpt lat="43.5213117" lon="10.8204033"><ele>111.0</ele><time>2026-04-18T09:12:53.539Z</time></trkpt><trkpt lat="43.5213183" lon="10.82049"><ele>109.66666666666666</ele><time>2026-04-18T09:12:54.539Z</time></trkpt><trkpt lat="43.5213233" lon="10.82058"><ele>108.33333333333333</ele><time>2026-04-18T09:12:55.539Z</time></trkpt><trkpt lat="43.5213267" lon="10.8206667"><ele>107.0</ele><time>2026-04-18T09:12:56.54Z</time></trkpt><trkpt lat="43.52133" lon="10.82077"><ele>107.0</ele><time>2026-04-18T09:12:57.539Z</time></trkpt><trkpt lat="43.52133" lon="10.8208883"><ele>106.99999999999999</ele><time>2026-04-18T09:12:58.539Z</time></trkpt><trkpt lat="43.5213317" lon="10.8210183"><ele>106.99999999999999</ele><time>2026-04-18T09:12:59.539Z</time></trkpt><trkpt lat="43.52134" lon="10.821165"><ele>107.0</ele><time>2026-04-18T09:13:00.54Z</time></trkpt><trkpt lat="43.52135" lon="10.8213133"><ele>107.0</ele><time>2026-04-18T09:13:01.539Z</time></trkpt><trkpt lat="43.5213617" lon="10.8214633"><ele>106.66666666666666</ele><time>2026-04-18T09:13:02.539Z</time></trkpt><trkpt lat="43.5213733" lon="10.821595"><ele>106.33333333333333</ele><time>2026-04-18T09:13:03.539Z</time></trkpt><trkpt lat="43.5213817" lon="10.821715"><ele>106.0</ele><time>2026-04-18T09:13:04.539Z</time></trkpt><trkpt lat="43.5213883" lon="10.8218317"><ele>105.66666666666666</ele><time>2026-04-18T09:13:05.539Z</time></trkpt><trkpt lat="43.52139" lon="10.821965"><ele>105.33333333333333</ele><time>2026-04-18T09:13:06.539Z</time></trkpt><trkpt lat="43.5214017" lon="10.8220783"><ele>105.0</ele><time>2026-04-18T09:13:07.54Z</time></trkpt><trkpt lat="43.5214083" lon="10.8221783"><ele>104.83333333333333</ele><time>2026-04-18T09:13:08.539Z</time></trkpt><trkpt lat="43.5214167" lon="10.8222667"><ele>104.66666666666666</ele><time>2026-04-18T09:13:09.539Z</time></trkpt><trkpt lat="43.521425" lon="10.8224067"><ele>104.5</ele><time>2026-04-18T09:13:11.539Z</time></trkpt><trkpt lat="43.5214417" lon="10.822505"><ele>104.33333333333333</ele><time>2026-04-18T09:13:13.539Z</time></trkpt><trkpt lat="43.521505" lon="10.82259"><ele>104.16666666666666</ele><time>2026-04-18T09:13:15.539Z</time></trkpt><trkpt lat="43.5216" lon="10.8226633"><ele>104.0</ele><time>2026-04-18T09:13:17.539Z</time></trkpt><trkpt lat="43.5216917" lon="10.8227317"><ele>103.80000000000001</ele><time>2026-04-18T09:13:19.539Z</time></trkpt><trkpt lat="43.521785" lon="10.8228333"><ele>103.60000000000001</ele><time>2026-04-18T09:13:21.539Z</time></trkpt><trkpt lat="43.52183" lon="10.82291"><ele>103.4</ele><time>2026-04-18T09:13:22.539Z</time></trkpt><trkpt lat="43.5218633" lon="10.8230067"><ele>103.2</ele><time>2026-04-18T09:13:23.539Z</time></trkpt><trkpt lat="43.521895" lon="10.823125"><ele>103.0</ele><time>2026-04-18T09:13:24.539Z</time></trkpt><trkpt lat="43.5219167" lon="10.82325"><ele>102.99999999999999</ele><time>2026-04-18T09:13:25.539Z</time></trkpt><trkpt lat="43.5219383" lon="10.82336"><ele>103.0</ele><time>2026-04-18T09:13:26.54Z</time></trkpt><trkpt lat="43.52196" lon="10.823465"><ele>103.0</ele><time>2026-04-18T09:13:27.54Z</time></trkpt><trkpt lat="43.5219833" lon="10.8235617"><ele>103.0</ele><time>2026-04-18T09:13:28.539Z</time></trkpt><trkpt lat="43.5220017" lon="10.8236517"><ele>103.0</ele><time>2026-04-18T09:13:29.539Z</time></trkpt><trkpt lat="43.52201" lon="10.8237517"><ele>102.99999999999999</ele><time>2026-04-18T09:13:30.539Z</time></trkpt><trkpt lat="43.522005" lon="10.8238433"><ele>103.0</ele><time>2026-04-18T09:13:31.539Z</time></trkpt><trkpt lat="43.5219833" lon="10.8239483"><ele>103.00000000000001</ele><time>2026-04-18T09:13:32.539Z</time></trkpt><trkpt lat="43.5219517" lon="10.824055"><ele>103.0</ele><time>2026-04-18T09:13:33.539Z</time></trkpt><trkpt lat="43.5219167" lon="10.8241667"><ele>103.0</ele><time>2026-04-18T09:13:34.539Z</time></trkpt><trkpt lat="43.5218867" lon="10.8242733"><ele>103.0</ele><time>2026-04-18T09:13:35.54Z</time></trkpt><trkpt lat="43.5218733" lon="10.8243633"><ele>103.00000000000001</ele><time>2026-04-18T09:13:36.539Z</time></trkpt><trkpt lat="43.5218617" lon="10.8244667"><ele>103.0</ele><time>2026-04-18T09:13:37.539Z</time></trkpt><trkpt lat="43.5218583" lon="10.8245733"><ele>102.2</ele><time>2026-04-18T09:13:38.539Z</time></trkpt><trkpt lat="43.5218717" lon="10.8246883"><ele>101.4</ele><time>2026-04-18T09:13:39.539Z</time></trkpt><trkpt lat="43.5218917" lon="10.8248233"><ele>100.60000000000001</ele><time>2026-04-18T09:13:40.539Z</time></trkpt><trkpt lat="43.5219183" lon="10.8249733"><ele>99.80000000000001</ele><time>2026-04-18T09:13:41.539Z</time></trkpt><trkpt lat="43.5219467" lon="10.825095"><ele>99.0</ele><time>2026-04-18T09:13:42.54Z</time></trkpt><trkpt lat="43.5219683" lon="10.825215"><ele>98.16666666666667</ele><time>2026-04-18T09:13:43.539Z</time></trkpt><trkpt lat="43.52199" lon="10.8253367"><ele>97.33333333333333</ele><time>2026-04-18T09:13:44.539Z</time></trkpt><trkpt lat="43.5220083" lon="10.8254433"><ele>96.5</ele><time>2026-04-18T09:13:45.539Z</time></trkpt><trkpt lat="43.5220133" lon="10.8255467"><ele>95.66666666666666</ele><time>2026-04-18T09:13:46.539Z</time></trkpt><trkpt lat="43.5220133" lon="10.8256733"><ele>94.83333333333333</ele><time>2026-04-18T09:13:47.539Z</time></trkpt><trkpt lat="43.5219967" lon="10.8258"><ele>94.0</ele><time>2026-04-18T09:13:48.539Z</time></trkpt><trkpt lat="43.521985" lon="10.8259367"><ele>94.5</ele><time>2026-04-18T09:13:49.539Z</time></trkpt><trkpt lat="43.5219717" lon="10.82607"><ele>95.0</ele><time>2026-04-18T09:13:50.539Z</time></trkpt><trkpt lat="43.5219683" lon="10.8261967"><ele>95.5</ele><time>2026-04-18T09:13:51.539Z</time></trkpt><trkpt lat="43.521965" lon="10.826305"><ele>96.0</ele><time>2026-04-18T09:13:52.539Z</time></trkpt><trkpt lat="43.5219783" lon="10.8264167"><ele>96.50000000000001</ele><time>2026-04-18T09:13:53.539Z</time></trkpt><trkpt lat="43.5219983" lon="10.8265367"><ele>97.0</ele><time>2026-04-18T09:13:54.54Z</time></trkpt><trkpt lat="43.5220267" lon="10.826665"><ele>97.0</ele><time>2026-04-18T09:13:55.54Z</time></trkpt><trkpt lat="43.52205" lon="10.8268017"><ele>97.0</ele><time>2026-04-18T09:13:56.539Z</time></trkpt><trkpt lat="43.5220783" lon="10.8269433"><ele>97.0</ele><time>2026-04-18T09:13:57.539Z</time></trkpt><trkpt lat="43.5221" lon="10.827085"><ele>97.0</ele><time>2026-04-18T09:13:58.539Z</time></trkpt><trkpt lat="43.5221367" lon="10.82723"><ele>97.0</ele><time>2026-04-18T09:13:59.539Z</time></trkpt><trkpt lat="43.5221633" lon="10.8273783"><ele>97.0</ele><time>2026-04-18T09:14:00.539Z</time></trkpt><trkpt lat="43.52219" lon="10.8275033"><ele>97.0</ele><time>2026-04-18T09:14:01.539Z</time></trkpt><trkpt lat="43.522215" lon="10.827605"><ele>97.0</ele><time>2026-04-18T09:14:02.54Z</time></trkpt><trkpt lat="43.5222367" lon="10.82775"><ele>97.0</ele><time>2026-04-18T09:14:04.539Z</time></trkpt><trkpt lat="43.5222067" lon="10.8278717"><ele>97.0</ele><time>2026-04-18T09:14:06.539Z</time></trkpt><trkpt lat="43.5221617" lon="10.8279817"><ele>97.00000000000001</ele><time>2026-04-18T09:14:08.539Z</time></trkpt><trkpt lat="43.5221217" lon="10.8280533"><ele>97.0</ele><time>2026-04-18T09:14:10.539Z</time></trkpt><trkpt lat="43.5220467" lon="10.828085"><ele>97.0</ele><time>2026-04-18T09:14:13.539Z</time></trkpt><trkpt lat="43.5219467" lon="10.8280933"><ele>97.0</ele><time>2026-04-18T09:14:15.539Z</time></trkpt><trkpt lat="43.521875" lon="10.8281"><ele>97.00000000000001</ele><time>2026-04-18T09:14:16.539Z</time></trkpt><trkpt lat="43.5218017" lon="10.8281083"><ele>97.0</ele><time>2026-04-18T09:14:17.539Z</time></trkpt><trkpt lat="43.5217383" lon="10.82812"><ele>98.85714285714285</ele><time>2026-04-18T09:14:18.539Z</time></trkpt><trkpt lat="43.521665" lon="10.82813"><ele>100.71428571428572</ele><time>2026-04-18T09:14:19.538Z</time></trkpt><trkpt lat="43.5215933" lon="10.8281383"><ele>102.57142857142857</ele><time>2026-04-18T09:14:20.538Z</time></trkpt><trkpt lat="43.5215183" lon="10.8281483"><ele>104.42857142857142</ele><time>2026-04-18T09:14:21.539Z</time></trkpt><trkpt lat="43.521445" lon="10.828155"><ele>106.28571428571428</ele><time>2026-04-18T09:14:22.538Z</time></trkpt><trkpt lat="43.521375" lon="10.8281533"><ele>108.14285714285714</ele><time>2026-04-18T09:14:23.538Z</time></trkpt><trkpt lat="43.521305" lon="10.8281617"><ele>110.0</ele><time>2026-04-18T09:14:24.538Z</time></trkpt><trkpt lat="43.5212383" lon="10.8281717"><ele>112.16666666666666</ele><time>2026-04-18T09:14:25.538Z</time></trkpt><trkpt lat="43.5211617" lon="10.8281783"><ele>114.33333333333333</ele><time>2026-04-18T09:14:26.538Z</time></trkpt><trkpt lat="43.52109" lon="10.8281817"><ele>116.5</ele><time>2026-04-18T09:14:27.539Z</time></trkpt><trkpt lat="43.5210083" lon="10.8281933"><ele>118.66666666666666</ele><time>2026-04-18T09:14:28.538Z</time></trkpt><trkpt lat="43.5209383" lon="10.8282133"><ele>120.83333333333333</ele><time>2026-04-18T09:14:29.538Z</time></trkpt><trkpt lat="43.5208683" lon="10.8282433"><ele>123.0</ele><time>2026-04-18T09:14:30.538Z</time></trkpt><trkpt lat="43.5207883" lon="10.8282933"><ele>123.0</ele><time>2026-04-18T09:14:31.538Z</time></trkpt><trkpt lat="43.5207117" lon="10.8283517"><ele>123.0</ele><time>2026-04-18T09:14:32.538Z</time></trkpt><trkpt lat="43.5206383" lon="10.828405"><ele>123.0</ele><time>2026-04-18T09:14:33.538Z</time></trkpt><trkpt lat="43.5205683" lon="10.8284617"><ele>123.0</ele><time>2026-04-18T09:14:34.538Z</time></trkpt><trkpt lat="43.5205067" lon="10.8285167"><ele>123.0</ele><time>2026-04-18T09:14:35.538Z</time></trkpt><trkpt lat="43.5204433" lon="10.8285717"><ele>123.0</ele><time>2026-04-18T09:14:36.538Z</time></trkpt><trkpt lat="43.52038" lon="10.828625"><ele>124.33333333333333</ele><time>2026-04-18T09:14:37.538Z</time></trkpt><trkpt lat="43.520315" lon="10.8286733"><ele>125.66666666666666</ele><time>2026-04-18T09:14:38.538Z</time></trkpt><trkpt lat="43.5202533" lon="10.828715"><ele>127.0</ele><time>2026-04-18T09:14:39.538Z</time></trkpt><trkpt lat="43.5201883" lon="10.828755"><ele>128.33333333333331</ele><time>2026-04-18T09:14:40.538Z</time></trkpt><trkpt lat="43.520115" lon="10.8288"><ele>129.66666666666666</ele><time>2026-04-18T09:14:41.538Z</time></trkpt><trkpt lat="43.5200417" lon="10.828835"><ele>131.0</ele><time>2026-04-18T09:14:42.539Z</time></trkpt><trkpt lat="43.51996" lon="10.8288683"><ele>131.0</ele><time>2026-04-18T09:14:43.538Z</time></trkpt><trkpt lat="43.5198717" lon="10.8289"><ele>131.0</ele><time>2026-04-18T09:14:44.538Z</time></trkpt><trkpt lat="43.5197783" lon="10.8289317"><ele>131.0</ele><time>2026-04-18T09:14:45.538Z</time></trkpt><trkpt lat="43.519685" lon="10.8289667"><ele>131.0</ele><time>2026-04-18T09:14:46.538Z</time></trkpt><trkpt lat="43.519585" lon="10.8290017"><ele>131.0</ele><time>2026-04-18T09:14:47.538Z</time></trkpt><trkpt lat="43.51949" lon="10.82903"><ele>131.66666666666666</ele><time>2026-04-18T09:14:48.538Z</time></trkpt><trkpt lat="43.5194" lon="10.82906"><ele>132.33333333333331</ele><time>2026-04-18T09:14:49.539Z</time></trkpt><trkpt lat="43.5193133" lon="10.8290883"><ele>133.0</ele><time>2026-04-18T09:14:50.539Z</time></trkpt><trkpt lat="43.5192317" lon="10.829115"><ele>133.66666666666666</ele><time>2026-04-18T09:14:51.538Z</time></trkpt><trkpt lat="43.5191667" lon="10.82914"><ele>134.33333333333334</ele><time>2026-04-18T09:14:52.538Z</time></trkpt><trkpt lat="43.519105" lon="10.82917"><ele>135.0</ele><time>2026-04-18T09:14:53.538Z</time></trkpt><trkpt lat="43.5190067" lon="10.8292183"><ele>135.0</ele><time>2026-04-18T09:14:55.539Z</time></trkpt><trkpt lat="43.5189183" lon="10.8292617"><ele>135.0</ele><time>2026-04-18T09:14:57.538Z</time></trkpt><trkpt lat="43.51882" lon="10.82931"><ele>135.0</ele><time>2026-04-18T09:14:59.538Z</time></trkpt><trkpt lat="43.5187583" lon="10.8293367"><ele>135.0</ele><time>2026-04-18T09:15:00.538Z</time></trkpt><trkpt lat="43.51868" lon="10.8293767"><ele>135.0</ele><time>2026-04-18T09:15:01.539Z</time></trkpt><trkpt lat="43.5186" lon="10.8294117"><ele>135.0</ele><time>2026-04-18T09:15:02.538Z</time></trkpt><trkpt lat="43.51852" lon="10.82944"><ele>136.33333333333334</ele><time>2026-04-18T09:15:03.538Z</time></trkpt><trkpt lat="43.5184417" lon="10.8294717"><ele>137.66666666666666</ele><time>2026-04-18T09:15:04.538Z</time></trkpt><trkpt lat="43.51836" lon="10.8295017"><ele>139.0</ele><time>2026-04-18T09:15:05.538Z</time></trkpt><trkpt lat="43.5182783" lon="10.8295317"><ele>140.33333333333331</ele><time>2026-04-18T09:15:06.538Z</time></trkpt><trkpt lat="43.51819" lon="10.8295683"><ele>141.66666666666666</ele><time>2026-04-18T09:15:07.538Z</time></trkpt><trkpt lat="43.518105" lon="10.8296"><ele>143.0</ele><time>2026-04-18T09:15:08.538Z</time></trkpt><trkpt lat="43.5180183" lon="10.8296317"><ele>143.0</ele><time>2026-04-18T09:15:09.538Z</time></trkpt><trkpt lat="43.5179333" lon="10.8296617"><ele>143.0</ele><time>2026-04-18T09:15:10.538Z</time></trkpt><trkpt lat="43.5178533" lon="10.8296967"><ele>143.0</ele><time>2026-04-18T09:15:11.539Z</time></trkpt><trkpt lat="43.5177767" lon="10.8297233"><ele>143.0</ele><time>2026-04-18T09:15:12.538Z</time></trkpt><trkpt lat="43.5177033" lon="10.8297517"><ele>143.0</ele><time>2026-04-18T09:15:13.538Z</time></trkpt><trkpt lat="43.51764" lon="10.8297767"><ele>143.0</ele><time>2026-04-18T09:15:14.538Z</time></trkpt><trkpt lat="43.5175783" lon="10.8298067"><ele>146.0</ele><time>2026-04-18T09:15:15.538Z</time></trkpt><trkpt lat="43.51747" lon="10.8298583"><ele>149.0</ele><time>2026-04-18T09:15:17.538Z</time></trkpt><trkpt lat="43.517395" lon="10.8299167"><ele>152.0</ele><time>2026-04-18T09:15:19.538Z</time></trkpt><trkpt lat="43.51733" lon="10.830015"><ele>155.0</ele><time>2026-04-18T09:15:21.538Z</time></trkpt><trkpt lat="43.5172633" lon="10.8301667"><ele>158.0</ele><time>2026-04-18T09:15:23.538Z</time></trkpt><trkpt lat="43.5172333" lon="10.8302633"><ele>158.0</ele><time>2026-04-18T09:15:24.538Z</time></trkpt><trkpt lat="43.517195" lon="10.83036"><ele>158.0</ele><time>2026-04-18T09:15:25.538Z</time></trkpt><trkpt lat="43.5171467" lon="10.83046"><ele>158.0</ele><time>2026-04-18T09:15:26.538Z</time></trkpt><trkpt lat="43.5170983" lon="10.8305517"><ele>158.0</ele><time>2026-04-18T09:15:27.538Z</time></trkpt><trkpt lat="43.5170633" lon="10.830625"><ele>158.0</ele><time>2026-04-18T09:15:28.538Z</time></trkpt><trkpt lat="43.51701" lon="10.8307383"><ele>158.0</ele><time>2026-04-18T09:15:30.538Z</time></trkpt><trkpt lat="43.51696" lon="10.830835"><ele>160.71428571428572</ele><time>2026-04-18T09:15:32.538Z</time></trkpt><trkpt lat="43.5169217" lon="10.8309117"><ele>163.42857142857144</ele><time>2026-04-18T09:15:34.538Z</time></trkpt><trkpt lat="43.5168783" lon="10.8309933"><ele>166.14285714285717</ele><time>2026-04-18T09:15:38.538Z</time></trkpt><trkpt lat="43.5168433" lon="10.8310817"><ele>168.85714285714286</ele><time>2026-04-18T09:15:46.538Z</time></trkpt><trkpt lat="43.5168033" lon="10.83116"><ele>171.57142857142856</ele><time>2026-04-18T09:15:50.538Z</time></trkpt><trkpt lat="43.5167567" lon="10.8312367"><ele>174.2857142857143</ele><time>2026-04-18T09:15:54.539Z</time></trkpt><trkpt lat="43.516725" lon="10.8313233"><ele>177.0</ele><time>2026-04-18T09:16:14.538Z</time></trkpt><trkpt lat="43.5166667" lon="10.8314567"><ele>177.0</ele><time>2026-04-18T09:16:17.538Z</time></trkpt><trkpt lat="43.516625" lon="10.8315317"><ele>177.0</ele><time>2026-04-18T09:16:18.538Z</time></trkpt><trkpt lat="43.5165517" lon="10.831665"><ele>177.0</ele><time>2026-04-18T09:16:20.538Z</time></trkpt><trkpt lat="43.51648" lon="10.8317883"><ele>177.0</ele><time>2026-04-18T09:16:22.538Z</time></trkpt><trkpt lat="43.5164117" lon="10.8318533"><ele>177.0</ele><time>2026-04-18T09:16:24.538Z</time></trkpt><trkpt lat="43.51633" lon="10.8318867"><ele>176.0</ele><time>2026-04-18T09:16:26.538Z</time></trkpt><trkpt lat="43.516205" lon="10.8319067"><ele>175.0</ele><time>2026-04-18T09:16:28.538Z</time></trkpt><trkpt lat="43.516095" lon="10.8318883"><ele>174.0</ele><time>2026-04-18T09:16:30.538Z</time></trkpt><trkpt lat="43.5160117" lon="10.83185"><ele>173.0</ele><time>2026-04-18T09:16:32.538Z</time></trkpt><trkpt lat="43.5159233" lon="10.831765"><ele>172.0</ele><time>2026-04-18T09:16:34.538Z</time></trkpt><trkpt lat="43.515835" lon="10.8316467"><ele>174.66666666666669</ele><time>2026-04-18T09:16:36.538Z</time></trkpt><trkpt lat="43.5157817" lon="10.831575"><ele>177.33333333333334</ele><time>2026-04-18T09:16:37.538Z</time></trkpt><trkpt lat="43.515725" lon="10.8315"><ele>180.0</ele><time>2026-04-18T09:16:38.538Z</time></trkpt><trkpt lat="43.5156617" lon="10.8314383"><ele>182.66666666666666</ele><time>2026-04-18T09:16:39.538Z</time></trkpt><trkpt lat="43.51559" lon="10.8313883"><ele>185.33333333333331</ele><time>2026-04-18T09:16:40.538Z</time></trkpt><trkpt lat="43.5155167" lon="10.8313383"><ele>188.0</ele><time>2026-04-18T09:16:41.538Z</time></trkpt><trkpt lat="43.5154467" lon="10.8312867"><ele>187.5</ele><time>2026-04-18T09:16:42.538Z</time></trkpt><trkpt lat="43.5153833" lon="10.831235"><ele>187.0</ele><time>2026-04-18T09:16:43.538Z</time></trkpt><trkpt lat="43.5153133" lon="10.83118"><ele>186.5</ele><time>2026-04-18T09:16:44.538Z</time></trkpt><trkpt lat="43.5152383" lon="10.8311333"><ele>186.0</ele><time>2026-04-18T09:16:45.539Z</time></trkpt><trkpt lat="43.51518" lon="10.8310933"><ele>185.5</ele><time>2026-04-18T09:16:46.538Z</time></trkpt><trkpt lat="43.515065" lon="10.8310317"><ele>185.0</ele><time>2026-04-18T09:16:48.538Z</time></trkpt><trkpt lat="43.5149983" lon="10.831015"><ele>186.8</ele><time>2026-04-18T09:16:49.538Z</time></trkpt><trkpt lat="43.5148817" lon="10.8309733"><ele>188.6</ele><time>2026-04-18T09:16:51.538Z</time></trkpt><trkpt lat="43.5147567" lon="10.8309483"><ele>190.39999999999998</ele><time>2026-04-18T09:16:53.538Z</time></trkpt><trkpt lat="43.5146317" lon="10.8309483"><ele>192.2</ele><time>2026-04-18T09:16:55.538Z</time></trkpt><trkpt lat="43.5145667" lon="10.83096"><ele>194.0</ele><time>2026-04-18T09:16:56.538Z</time></trkpt><trkpt lat="43.5145" lon="10.8309733"><ele>193.16666666666669</ele><time>2026-04-18T09:16:57.538Z</time></trkpt><trkpt lat="43.514435" lon="10.8309817"><ele>192.33333333333334</ele><time>2026-04-18T09:16:58.538Z</time></trkpt><trkpt lat="43.5143167" lon="10.8309983"><ele>191.5</ele><time>2026-04-18T09:17:00.538Z</time></trkpt><trkpt lat="43.5142517" lon="10.8310017"><ele>190.66666666666669</ele><time>2026-04-18T09:17:01.538Z</time></trkpt><trkpt lat="43.5141833" lon="10.831"><ele>189.83333333333334</ele><time>2026-04-18T09:17:02.538Z</time></trkpt><trkpt lat="43.5140983" lon="10.8310117"><ele>189.0</ele><time>2026-04-18T09:17:03.539Z</time></trkpt><trkpt lat="43.5140117" lon="10.8310267"><ele>189.0</ele><time>2026-04-18T09:17:04.538Z</time></trkpt><trkpt lat="43.51393" lon="10.8310267"><ele>189.0</ele><time>2026-04-18T09:17:05.538Z</time></trkpt><trkpt lat="43.5138533" lon="10.8310367"><ele>189.0</ele><time>2026-04-18T09:17:06.538Z</time></trkpt><trkpt lat="43.5137883" lon="10.83105"><ele>189.0</ele><time>2026-04-18T09:17:07.538Z</time></trkpt><trkpt lat="43.5136983" lon="10.8310917"><ele>189.0</ele><time>2026-04-18T09:17:09.539Z</time></trkpt><trkpt lat="43.5135917" lon="10.8311667"><ele>189.0</ele><time>2026-04-18T09:17:11.539Z</time></trkpt><trkpt lat="43.5135317" lon="10.831195"><ele>191.14285714285714</ele><time>2026-04-18T09:17:12.538Z</time></trkpt><trkpt lat="43.51347" lon="10.83122"><ele>193.28571428571428</ele><time>2026-04-18T09:17:13.538Z</time></trkpt><trkpt lat="43.5133983" lon="10.83124"><ele>195.42857142857144</ele><time>2026-04-18T09:17:14.538Z</time></trkpt><trkpt lat="43.5133283" lon="10.8312783"><ele>197.57142857142856</ele><time>2026-04-18T09:17:15.538Z</time></trkpt><trkpt lat="43.5132667" lon="10.83132"><ele>199.71428571428572</ele><time>2026-04-18T09:17:16.538Z</time></trkpt><trkpt lat="43.5132117" lon="10.8313717"><ele>201.85714285714286</ele><time>2026-04-18T09:17:17.538Z</time></trkpt><trkpt lat="43.5131567" lon="10.8314333"><ele>204.0</ele><time>2026-04-18T09:17:18.538Z</time></trkpt><trkpt lat="43.513095" lon="10.8315067"><ele>204.0</ele><time>2026-04-18T09:17:19.538Z</time></trkpt><trkpt lat="43.5130367" lon="10.8315833"><ele>204.0</ele><time>2026-04-18T09:17:20.538Z</time></trkpt><trkpt lat="43.5129833" lon="10.8316717"><ele>204.0</ele><time>2026-04-18T09:17:21.538Z</time></trkpt><trkpt lat="43.5129283" lon="10.8317533"><ele>204.0</ele><time>2026-04-18T09:17:22.539Z</time></trkpt><trkpt lat="43.5128633" lon="10.83184"><ele>204.0</ele><time>2026-04-18T09:17:23.539Z</time></trkpt><trkpt lat="43.5127917" lon="10.8319117"><ele>204.0</ele><time>2026-04-18T09:17:24.538Z</time></trkpt><trkpt lat="43.5127067" lon="10.83198"><ele>205.33333333333334</ele><time>2026-04-18T09:17:25.538Z</time></trkpt><trkpt lat="43.5126217" lon="10.832035"><ele>206.66666666666669</ele><time>2026-04-18T09:17:26.538Z</time></trkpt><trkpt lat="43.5125433" lon="10.8320733"><ele>208.0</ele><time>2026-04-18T09:17:27.538Z</time></trkpt><trkpt lat="43.512475" lon="10.8321067"><ele>209.33333333333334</ele><time>2026-04-18T09:17:28.538Z</time></trkpt><trkpt lat="43.5124067" lon="10.8321417"><ele>210.66666666666669</ele><time>2026-04-18T09:17:29.538Z</time></trkpt><trkpt lat="43.51231" lon="10.8321933"><ele>212.0</ele><time>2026-04-18T09:17:31.538Z</time></trkpt><trkpt lat="43.5122333" lon="10.832265"><ele>212.0</ele><time>2026-04-18T09:17:33.539Z</time></trkpt><trkpt lat="43.5121417" lon="10.8323833"><ele>212.0</ele><time>2026-04-18T09:17:35.538Z</time></trkpt><trkpt lat="43.5121" lon="10.8324733"><ele>212.0</ele><time>2026-04-18T09:17:36.538Z</time></trkpt><trkpt lat="43.5120533" lon="10.8325767"><ele>212.0</ele><time>2026-04-18T09:17:37.538Z</time></trkpt><trkpt lat="43.5120183" lon="10.8326833"><ele>212.0</ele><time>2026-04-18T09:17:38.538Z</time></trkpt><trkpt lat="43.5119783" lon="10.8327933"><ele>209.83333333333334</ele><time>2026-04-18T09:17:39.538Z</time></trkpt><trkpt lat="43.5119283" lon="10.8329033"><ele>207.66666666666669</ele><time>2026-04-18T09:17:40.537Z</time></trkpt><trkpt lat="43.5118867" lon="10.8330233"><ele>205.5</ele><time>2026-04-18T09:17:41.537Z</time></trkpt><trkpt lat="43.51184" lon="10.8331283"><ele>203.33333333333331</ele><time>2026-04-18T09:17:42.537Z</time></trkpt><trkpt lat="43.511795" lon="10.8332167"><ele>201.16666666666666</ele><time>2026-04-18T09:17:43.537Z</time></trkpt><trkpt lat="43.5117517" lon="10.833285"><ele>199.0</ele><time>2026-04-18T09:17:44.538Z</time></trkpt><trkpt lat="43.51166" lon="10.833395"><ele>198.99999999999997</ele><time>2026-04-18T09:17:46.537Z</time></trkpt><trkpt lat="43.5116083" lon="10.833455"><ele>199.0</ele><time>2026-04-18T09:17:47.537Z</time></trkpt><trkpt lat="43.511545" lon="10.8335133"><ele>199.0</ele><time>2026-04-18T09:17:48.537Z</time></trkpt><trkpt lat="43.51147" lon="10.8335667"><ele>199.0</ele><time>2026-04-18T09:17:49.537Z</time></trkpt><trkpt lat="43.5113883" lon="10.8336317"><ele>198.99999999999997</ele><time>2026-04-18T09:17:50.538Z</time></trkpt><trkpt lat="43.5113083" lon="10.8336983"><ele>199.0</ele><time>2026-04-18T09:17:51.537Z</time></trkpt><trkpt lat="43.5112367" lon="10.8337667"><ele>199.39999999999998</ele><time>2026-04-18T09:17:52.537Z</time></trkpt><trkpt lat="43.51117" lon="10.8338183"><ele>199.8</ele><time>2026-04-18T09:17:53.537Z</time></trkpt><trkpt lat="43.5111" lon="10.8339083"><ele>200.2</ele><time>2026-04-18T09:17:55.537Z</time></trkpt><trkpt lat="43.51106" lon="10.8340267"><ele>200.60000000000002</ele><time>2026-04-18T09:17:57.537Z</time></trkpt><trkpt lat="43.5110617" lon="10.8342067"><ele>201.0</ele><time>2026-04-18T09:17:59.537Z</time></trkpt><trkpt lat="43.5110767" lon="10.8342967"><ele>200.7142857142857</ele><time>2026-04-18T09:18:00.537Z</time></trkpt><trkpt lat="43.5110867" lon="10.8343867"><ele>200.42857142857144</ele><time>2026-04-18T09:18:01.537Z</time></trkpt><trkpt lat="43.5111" lon="10.8344783"><ele>200.14285714285714</ele><time>2026-04-18T09:18:02.537Z</time></trkpt><trkpt lat="43.5111033" lon="10.8345783"><ele>199.85714285714283</ele><time>2026-04-18T09:18:03.537Z</time></trkpt><trkpt lat="43.5111" lon="10.834675"><ele>199.57142857142856</ele><time>2026-04-18T09:18:04.537Z</time></trkpt><trkpt lat="43.5110817" lon="10.8347933"><ele>199.28571428571428</ele><time>2026-04-18T09:18:05.537Z</time></trkpt><trkpt lat="43.5110517" lon="10.8348967"><ele>199.0</ele><time>2026-04-18T09:18:06.537Z</time></trkpt><trkpt lat="43.5110217" lon="10.835"><ele>198.99999999999997</ele><time>2026-04-18T09:18:07.537Z</time></trkpt><trkpt lat="43.5109883" lon="10.8350917"><ele>199.0</ele><time>2026-04-18T09:18:08.537Z</time></trkpt><trkpt lat="43.5109567" lon="10.835185"><ele>199.0</ele><time>2026-04-18T09:18:09.537Z</time></trkpt><trkpt lat="43.5109283" lon="10.8352867"><ele>199.0</ele><time>2026-04-18T09:18:10.538Z</time></trkpt><trkpt lat="43.510905" lon="10.835405"><ele>198.99999999999997</ele><time>2026-04-18T09:18:11.537Z</time></trkpt><trkpt lat="43.5108783" lon="10.8355333"><ele>199.0</ele><time>2026-04-18T09:18:12.537Z</time></trkpt><trkpt lat="43.5108517" lon="10.8356583"><ele>197.39999999999998</ele><time>2026-04-18T09:18:13.537Z</time></trkpt><trkpt lat="43.5108317" lon="10.8357733"><ele>195.8</ele><time>2026-04-18T09:18:14.537Z</time></trkpt><trkpt lat="43.5108267" lon="10.8358883"><ele>194.2</ele><time>2026-04-18T09:18:15.537Z</time></trkpt><trkpt lat="43.51083" lon="10.8360033"><ele>192.60000000000002</ele><time>2026-04-18T09:18:16.537Z</time></trkpt><trkpt lat="43.510835" lon="10.8361267"><ele>191.0</ele><time>2026-04-18T09:18:17.538Z</time></trkpt><trkpt lat="43.51084" lon="10.836275"><ele>190.75</ele><time>2026-04-18T09:18:18.537Z</time></trkpt><trkpt lat="43.510845" lon="10.83644"><ele>190.5</ele><time>2026-04-18T09:18:19.537Z</time></trkpt><trkpt lat="43.5108483" lon="10.8366117"><ele>190.25</ele><time>2026-04-18T09:18:20.538Z</time></trkpt><trkpt lat="43.510855" lon="10.8367733"><ele>190.0</ele><time>2026-04-18T09:18:21.537Z</time></trkpt><trkpt lat="43.510855" lon="10.8369167"><ele>190.0</ele><time>2026-04-18T09:18:22.537Z</time></trkpt><trkpt lat="43.5108467" lon="10.8370483"><ele>190.0</ele><time>2026-04-18T09:18:23.537Z</time></trkpt><trkpt lat="43.510825" lon="10.83717"><ele>190.0</ele><time>2026-04-18T09:18:24.537Z</time></trkpt><trkpt lat="43.5108017" lon="10.83728"><ele>190.0</ele><time>2026-04-18T09:18:25.538Z</time></trkpt><trkpt lat="43.5107733" lon="10.8373967"><ele>190.0</ele><time>2026-04-18T09:18:26.537Z</time></trkpt><trkpt lat="43.5107433" lon="10.8375183"><ele>190.16666666666669</ele><time>2026-04-18T09:18:27.537Z</time></trkpt><trkpt lat="43.5107183" lon="10.8376367"><ele>190.33333333333334</ele><time>2026-04-18T09:18:28.537Z</time></trkpt><trkpt lat="43.5106967" lon="10.8377433"><ele>190.5</ele><time>2026-04-18T09:18:29.537Z</time></trkpt><trkpt lat="43.5106783" lon="10.8378483"><ele>190.66666666666666</ele><time>2026-04-18T09:18:30.537Z</time></trkpt><trkpt lat="43.5106667" lon="10.8379533"><ele>190.83333333333331</ele><time>2026-04-18T09:18:31.537Z</time></trkpt><trkpt lat="43.5106683" lon="10.838065"><ele>191.0</ele><time>2026-04-18T09:18:32.537Z</time></trkpt><trkpt lat="43.510685" lon="10.83818"><ele>191.0</ele><time>2026-04-18T09:18:33.537Z</time></trkpt><trkpt lat="43.5107067" lon="10.83829"><ele>191.0</ele><time>2026-04-18T09:18:34.537Z</time></trkpt><trkpt lat="43.5107317" lon="10.8383933"><ele>191.0</ele><time>2026-04-18T09:18:35.537Z</time></trkpt><trkpt lat="43.5107533" lon="10.8384867"><ele>191.0</ele><time>2026-04-18T09:18:36.537Z</time></trkpt><trkpt lat="43.5107717" lon="10.838575"><ele>191.0</ele><time>2026-04-18T09:18:37.537Z</time></trkpt><trkpt lat="43.5108083" lon="10.8387283"><ele>191.0</ele><time>2026-04-18T09:18:39.537Z</time></trkpt><trkpt lat="43.5108067" lon="10.8389067"><ele>190.42857142857144</ele><time>2026-04-18T09:18:41.537Z</time></trkpt><trkpt lat="43.51079" lon="10.8390083"><ele>189.85714285714283</ele><time>2026-04-18T09:18:42.537Z</time></trkpt><trkpt lat="43.51077" lon="10.8391117"><ele>189.28571428571428</ele><time>2026-04-18T09:18:43.537Z</time></trkpt><trkpt lat="43.51075" lon="10.8391967"><ele>188.71428571428572</ele><time>2026-04-18T09:18:44.537Z</time></trkpt><trkpt lat="43.5107283" lon="10.8392817"><ele>188.14285714285717</ele><time>2026-04-18T09:18:45.537Z</time></trkpt><trkpt lat="43.5107017" lon="10.8393617"><ele>187.57142857142856</ele><time>2026-04-18T09:18:46.538Z</time></trkpt><trkpt lat="43.5106767" lon="10.8394467"><ele>187.0</ele><time>2026-04-18T09:18:47.537Z</time></trkpt><trkpt lat="43.5106583" lon="10.839545"><ele>186.5</ele><time>2026-04-18T09:18:48.537Z</time></trkpt><trkpt lat="43.5106567" lon="10.83965"><ele>186.0</ele><time>2026-04-18T09:18:49.537Z</time></trkpt><trkpt lat="43.5106617" lon="10.839755"><ele>185.5</ele><time>2026-04-18T09:18:50.537Z</time></trkpt><trkpt lat="43.5106683" lon="10.8398667"><ele>185.0</ele><time>2026-04-18T09:18:51.537Z</time></trkpt><trkpt lat="43.5106817" lon="10.8399833"><ele>184.5</ele><time>2026-04-18T09:18:52.537Z</time></trkpt><trkpt lat="43.5106967" lon="10.8401017"><ele>184.0</ele><time>2026-04-18T09:18:53.537Z</time></trkpt><trkpt lat="43.5107133" lon="10.8402267"><ele>183.39999999999998</ele><time>2026-04-18T09:18:54.537Z</time></trkpt><trkpt lat="43.5107317" lon="10.8403517"><ele>182.8</ele><time>2026-04-18T09:18:55.537Z</time></trkpt><trkpt lat="43.5107517" lon="10.8404883"><ele>182.2</ele><time>2026-04-18T09:18:56.537Z</time></trkpt><trkpt lat="43.5107817" lon="10.84065"><ele>181.60000000000002</ele><time>2026-04-18T09:18:57.537Z</time></trkpt><trkpt lat="43.5107967" lon="10.8408067"><ele>181.0</ele><time>2026-04-18T09:18:58.537Z</time></trkpt><trkpt lat="43.5108067" lon="10.8409617"><ele>181.4</ele><time>2026-04-18T09:18:59.537Z</time></trkpt><trkpt lat="43.5108217" lon="10.8411183"><ele>181.8</ele><time>2026-04-18T09:19:00.537Z</time></trkpt><trkpt lat="43.510835" lon="10.8412633"><ele>182.20000000000002</ele><time>2026-04-18T09:19:01.537Z</time></trkpt><trkpt lat="43.5108383" lon="10.8414033"><ele>182.60000000000002</ele><time>2026-04-18T09:19:02.537Z</time></trkpt><trkpt lat="43.510855" lon="10.8415367"><ele>183.0</ele><time>2026-04-18T09:19:03.537Z</time></trkpt><trkpt lat="43.51086" lon="10.841665"><ele>183.0</ele><time>2026-04-18T09:19:04.538Z</time></trkpt><trkpt lat="43.510875" lon="10.8417817"><ele>183.0</ele><time>2026-04-18T09:19:05.537Z</time></trkpt><trkpt lat="43.5109" lon="10.8418983"><ele>183.0</ele><time>2026-04-18T09:19:06.537Z</time></trkpt><trkpt lat="43.5109467" lon="10.842015"><ele>183.0</ele><time>2026-04-18T09:19:07.537Z</time></trkpt><trkpt lat="43.510995" lon="10.84212"><ele>183.0</ele><time>2026-04-18T09:19:08.537Z</time></trkpt><trkpt lat="43.5110317" lon="10.8422167"><ele>183.0</ele><time>2026-04-18T09:19:09.538Z</time></trkpt><trkpt lat="43.5110667" lon="10.842315"><ele>183.0</ele><time>2026-04-18T09:19:10.537Z</time></trkpt><trkpt lat="43.51109" lon="10.8424233"><ele>183.0</ele><time>2026-04-18T09:19:11.537Z</time></trkpt><trkpt lat="43.5111067" lon="10.8425433"><ele>183.0</ele><time>2026-04-18T09:19:12.538Z</time></trkpt><trkpt lat="43.5111183" lon="10.8426683"><ele>183.0</ele><time>2026-04-18T09:19:13.537Z</time></trkpt><trkpt lat="43.5111233" lon="10.8428017"><ele>183.0</ele><time>2026-04-18T09:19:14.537Z</time></trkpt><trkpt lat="43.5111217" lon="10.84294"><ele>183.0</ele><time>2026-04-18T09:19:15.537Z</time></trkpt><trkpt lat="43.5111133" lon="10.8430817"><ele>183.0</ele><time>2026-04-18T09:19:16.537Z</time></trkpt><trkpt lat="43.511095" lon="10.8432267"><ele>183.0</ele><time>2026-04-18T09:19:17.537Z</time></trkpt><trkpt lat="43.5110667" lon="10.8433783"><ele>183.0</ele><time>2026-04-18T09:19:18.537Z</time></trkpt><trkpt lat="43.5110467" lon="10.8435117"><ele>183.0</ele><time>2026-04-18T09:19:19.537Z</time></trkpt><trkpt lat="43.5110283" lon="10.8436383"><ele>182.33333333333334</ele><time>2026-04-18T09:19:20.537Z</time></trkpt><trkpt lat="43.5110083" lon="10.8437517"><ele>181.66666666666666</ele><time>2026-04-18T09:19:21.537Z</time></trkpt><trkpt lat="43.510995" lon="10.8438433"><ele>181.0</ele><time>2026-04-18T09:19:22.537Z</time></trkpt><trkpt lat="43.5109933" lon="10.8439467"><ele>180.33333333333331</ele><time>2026-04-18T09:19:23.537Z</time></trkpt><trkpt lat="43.511" lon="10.8440633"><ele>179.66666666666666</ele><time>2026-04-18T09:19:24.538Z</time></trkpt><trkpt lat="43.511015" lon="10.84418"><ele>179.0</ele><time>2026-04-18T09:19:25.537Z</time></trkpt><trkpt lat="43.5110317" lon="10.8442983"><ele>178.16666666666666</ele><time>2026-04-18T09:19:26.537Z</time></trkpt><trkpt lat="43.5110467" lon="10.84441"><ele>177.33333333333331</ele><time>2026-04-18T09:19:27.537Z</time></trkpt><trkpt lat="43.5110667" lon="10.8445017"><ele>176.5</ele><time>2026-04-18T09:19:28.537Z</time></trkpt><trkpt lat="43.5110867" lon="10.8445867"><ele>175.66666666666666</ele><time>2026-04-18T09:19:29.537Z</time></trkpt><trkpt lat="43.5111217" lon="10.84474"><ele>174.83333333333334</ele><time>2026-04-18T09:19:31.537Z</time></trkpt><trkpt lat="43.5111583" lon="10.8448567"><ele>174.0</ele><time>2026-04-18T09:19:33.538Z</time></trkpt><trkpt lat="43.511205" lon="10.8449633"><ele>173.6</ele><time>2026-04-18T09:19:35.537Z</time></trkpt><trkpt lat="43.511255" lon="10.8450633"><ele>173.2</ele><time>2026-04-18T09:19:37.537Z</time></trkpt><trkpt lat="43.5112967" lon="10.8451483"><ele>172.79999999999998</ele><time>2026-04-18T09:19:39.537Z</time></trkpt><trkpt lat="43.5113583" lon="10.8452633"><ele>172.39999999999998</ele><time>2026-04-18T09:19:41.537Z</time></trkpt><trkpt lat="43.5114383" lon="10.8454"><ele>172.0</ele><time>2026-04-18T09:19:43.538Z</time></trkpt><trkpt lat="43.51151" lon="10.84553"><ele>173.0</ele><time>2026-04-18T09:19:45.538Z</time></trkpt><trkpt lat="43.511575" lon="10.845645"><ele>174.0</ele><time>2026-04-18T09:19:47.537Z</time></trkpt><trkpt lat="43.5116467" lon="10.8457717"><ele>175.0</ele><time>2026-04-18T09:19:49.537Z</time></trkpt><trkpt lat="43.5117083" lon="10.8459133"><ele>176.0</ele><time>2026-04-18T09:19:51.537Z</time></trkpt><trkpt lat="43.5117317" lon="10.845995"><ele>177.0</ele><time>2026-04-18T09:19:52.537Z</time></trkpt><trkpt lat="43.5117467" lon="10.8460817"><ele>177.39999999999998</ele><time>2026-04-18T09:19:53.537Z</time></trkpt><trkpt lat="43.511745" lon="10.8462633"><ele>177.79999999999998</ele><time>2026-04-18T09:19:55.537Z</time></trkpt><trkpt lat="43.511735" lon="10.8463567"><ele>178.2</ele><time>2026-04-18T09:19:56.537Z</time></trkpt><trkpt lat="43.5117283" lon="10.8464483"><ele>178.6</ele><time>2026-04-18T09:19:57.537Z</time></trkpt><trkpt lat="43.5117083" lon="10.846595"><ele>179.0</ele><time>2026-04-18T09:19:59.537Z</time></trkpt><trkpt lat="43.5116883" lon="10.84672"><ele>179.0</ele><time>2026-04-18T09:20:01.537Z</time></trkpt><trkpt lat="43.5116583" lon="10.846865"><ele>179.0</ele><time>2026-04-18T09:20:03.537Z</time></trkpt><trkpt lat="43.5116383" lon="10.84701"><ele>179.0</ele><time>2026-04-18T09:20:05.537Z</time></trkpt><trkpt lat="43.5116317" lon="10.8471333"><ele>179.0</ele><time>2026-04-18T09:20:07.537Z</time></trkpt><trkpt lat="43.5116367" lon="10.847235"><ele>179.0</ele><time>2026-04-18T09:20:10.537Z</time></trkpt><trkpt lat="43.51167" lon="10.8473517"><ele>179.0</ele><time>2026-04-18T09:20:13.537Z</time></trkpt><trkpt lat="43.51169" lon="10.8474667"><ele>179.0</ele><time>2026-04-18T09:20:16.537Z</time></trkpt><trkpt lat="43.511695" lon="10.84756"><ele>179.0</ele><time>2026-04-18T09:20:18.537Z</time></trkpt><trkpt lat="43.5117067" lon="10.8476867"><ele>179.0</ele><time>2026-04-18T09:20:20.537Z</time></trkpt><trkpt lat="43.5117183" lon="10.8477967"><ele>179.0</ele><time>2026-04-18T09:20:22.537Z</time></trkpt><trkpt lat="43.5117267" lon="10.84791"><ele>179.0</ele><time>2026-04-18T09:20:24.537Z</time></trkpt><trkpt lat="43.511735" lon="10.8480033"><ele>179.0</ele><time>2026-04-18T09:20:27.537Z</time></trkpt><trkpt lat="43.5117467" lon="10.8480933"><ele>179.0</ele><time>2026-04-18T09:20:29.537Z</time></trkpt><trkpt lat="43.5117667" lon="10.8482033"><ele>179.0</ele><time>2026-04-18T09:20:31.538Z</time></trkpt><trkpt lat="43.511785" lon="10.8483033"><ele>179.0</ele><time>2026-04-18T09:20:33.537Z</time></trkpt><trkpt lat="43.511805" lon="10.848395"><ele>179.0</ele><time>2026-04-18T09:20:35.537Z</time></trkpt><trkpt lat="43.5118433" lon="10.8485167"><ele>179.0</ele><time>2026-04-18T09:20:38.537Z</time></trkpt><trkpt lat="43.511885" lon="10.848655"><ele>178.66666666666666</ele><time>2026-04-18T09:20:40.537Z</time></trkpt><trkpt lat="43.5119233" lon="10.84881"><ele>178.33333333333331</ele><time>2026-04-18T09:20:42.537Z</time></trkpt><trkpt lat="43.5119483" lon="10.8488917"><ele>178.0</ele><time>2026-04-18T09:20:43.537Z</time></trkpt><trkpt lat="43.5119717" lon="10.8489733"><ele>177.66666666666666</ele><time>2026-04-18T09:20:44.537Z</time></trkpt><trkpt lat="43.51204" lon="10.84912"><ele>177.33333333333334</ele><time>2026-04-18T09:20:46.537Z</time></trkpt><trkpt lat="43.5120817" lon="10.84919"><ele>177.0</ele><time>2026-04-18T09:20:47.537Z</time></trkpt><trkpt lat="43.5121267" lon="10.849255"><ele>176.42857142857144</ele><time>2026-04-18T09:20:48.537Z</time></trkpt><trkpt lat="43.51217" lon="10.8493217"><ele>175.85714285714283</ele><time>2026-04-18T09:20:49.537Z</time></trkpt><trkpt lat="43.5122167" lon="10.8493883"><ele>175.28571428571428</ele><time>2026-04-18T09:20:50.538Z</time></trkpt><trkpt lat="43.5122617" lon="10.8494583"><ele>174.71428571428572</ele><time>2026-04-18T09:20:51.537Z</time></trkpt><trkpt lat="43.5123067" lon="10.8495267"><ele>174.14285714285717</ele><time>2026-04-18T09:20:52.537Z</time></trkpt><trkpt lat="43.5123517" lon="10.8495933"><ele>173.57142857142856</ele><time>2026-04-18T09:20:53.537Z</time></trkpt><trkpt lat="43.5124" lon="10.8496667"><ele>173.0</ele><time>2026-04-18T09:20:54.537Z</time></trkpt><trkpt lat="43.5124467" lon="10.8497417"><ele>173.0</ele><time>2026-04-18T09:20:55.537Z</time></trkpt><trkpt lat="43.5124917" lon="10.8498133"><ele>173.0</ele><time>2026-04-18T09:20:56.537Z</time></trkpt><trkpt lat="43.5125767" lon="10.8499233"><ele>173.0</ele><time>2026-04-18T09:20:58.537Z</time></trkpt><trkpt lat="43.5126567" lon="10.8500317"><ele>173.0</ele><time>2026-04-18T09:21:00.536Z</time></trkpt><trkpt lat="43.51273" lon="10.85012"><ele>173.0</ele><time>2026-04-18T09:21:02.537Z</time></trkpt><trkpt lat="43.5128033" lon="10.8502"><ele>172.4</ele><time>2026-04-18T09:21:04.536Z</time></trkpt><trkpt lat="43.5128783" lon="10.85028"><ele>171.8</ele><time>2026-04-18T09:21:06.536Z</time></trkpt><trkpt lat="43.5129567" lon="10.850365"><ele>171.2</ele><time>2026-04-18T09:21:08.536Z</time></trkpt><trkpt lat="43.5130167" lon="10.8504667"><ele>170.6</ele><time>2026-04-18T09:21:10.537Z</time></trkpt><trkpt lat="43.5130783" lon="10.850565"><ele>170.0</ele><time>2026-04-18T09:21:12.536Z</time></trkpt><trkpt lat="43.5131233" lon="10.8506617"><ele>170.0</ele><time>2026-04-18T09:21:14.536Z</time></trkpt><trkpt lat="43.5131683" lon="10.8507483"><ele>170.0</ele><time>2026-04-18T09:21:16.537Z</time></trkpt><trkpt lat="43.5132" lon="10.8508317"><ele>170.0</ele><time>2026-04-18T09:21:18.536Z</time></trkpt><trkpt lat="43.513185" lon="10.85095"><ele>170.0</ele><time>2026-04-18T09:21:20.536Z</time></trkpt><trkpt lat="43.5131217" lon="10.8511083"><ele>170.0</ele><time>2026-04-18T09:21:22.537Z</time></trkpt><trkpt lat="43.5130883" lon="10.8511917"><ele>170.0</ele><time>2026-04-18T09:21:23.537Z</time></trkpt><trkpt lat="43.5130567" lon="10.851285"><ele>170.33333333333331</ele><time>2026-04-18T09:21:24.536Z</time></trkpt><trkpt lat="43.5130317" lon="10.8513867"><ele>170.66666666666666</ele><time>2026-04-18T09:21:25.537Z</time></trkpt><trkpt lat="43.5130133" lon="10.8514983"><ele>171.0</ele><time>2026-04-18T09:21:26.536Z</time></trkpt><trkpt lat="43.513005" lon="10.8516083"><ele>171.33333333333334</ele><time>2026-04-18T09:21:27.537Z</time></trkpt><trkpt lat="43.513" lon="10.8517067"><ele>171.66666666666669</ele><time>2026-04-18T09:21:28.536Z</time></trkpt><trkpt lat="43.512975" lon="10.851875"><ele>172.0</ele><time>2026-04-18T09:21:30.536Z</time></trkpt><trkpt lat="43.51296" lon="10.8519617"><ele>172.0</ele><time>2026-04-18T09:21:31.536Z</time></trkpt><trkpt lat="43.5129383" lon="10.8520517"><ele>172.0</ele><time>2026-04-18T09:21:32.536Z</time></trkpt><trkpt lat="43.5129083" lon="10.8521467"><ele>172.0</ele><time>2026-04-18T09:21:33.536Z</time></trkpt><trkpt lat="43.5128767" lon="10.85224"><ele>172.0</ele><time>2026-04-18T09:21:34.536Z</time></trkpt><trkpt lat="43.512845" lon="10.85233"><ele>172.0</ele><time>2026-04-18T09:21:35.536Z</time></trkpt><trkpt lat="43.51281" lon="10.8524217"><ele>172.0</ele><time>2026-04-18T09:21:36.536Z</time></trkpt><trkpt lat="43.512765" lon="10.85252"><ele>172.39999999999998</ele><time>2026-04-18T09:21:37.536Z</time></trkpt><trkpt lat="43.5127283" lon="10.8525917"><ele>172.79999999999998</ele><time>2026-04-18T09:21:38.536Z</time></trkpt><trkpt lat="43.5126183" lon="10.8527033"><ele>173.2</ele><time>2026-04-18T09:21:40.536Z</time></trkpt><trkpt lat="43.5125533" lon="10.8527533"><ele>173.6</ele><time>2026-04-18T09:21:41.536Z</time></trkpt><trkpt lat="43.512495" lon="10.852805"><ele>174.0</ele><time>2026-04-18T09:21:42.536Z</time></trkpt><trkpt lat="43.512415" lon="10.852915"><ele>174.16666666666666</ele><time>2026-04-18T09:21:44.536Z</time></trkpt><trkpt lat="43.5123633" lon="10.8530283"><ele>174.33333333333334</ele><time>2026-04-18T09:21:46.536Z</time></trkpt><trkpt lat="43.5123433" lon="10.8531617"><ele>174.5</ele><time>2026-04-18T09:21:48.537Z</time></trkpt><trkpt lat="43.51234" lon="10.853255"><ele>174.66666666666669</ele><time>2026-04-18T09:21:49.536Z</time></trkpt><trkpt lat="43.5123367" lon="10.8533533"><ele>174.83333333333334</ele><time>2026-04-18T09:21:50.536Z</time></trkpt><trkpt lat="43.51234" lon="10.85344"><ele>175.0</ele><time>2026-04-18T09:21:51.536Z</time></trkpt><trkpt lat="43.5123383" lon="10.853575"><ele>175.0</ele><time>2026-04-18T09:21:53.536Z</time></trkpt><trkpt lat="43.512335" lon="10.85368"><ele>175.0</ele><time>2026-04-18T09:21:55.536Z</time></trkpt><trkpt lat="43.5123267" lon="10.8538083"><ele>175.0</ele><time>2026-04-18T09:21:57.536Z</time></trkpt><trkpt lat="43.512325" lon="10.8539183"><ele>175.0</ele><time>2026-04-18T09:21:59.536Z</time></trkpt><trkpt lat="43.512315" lon="10.8540433"><ele>175.0</ele><time>2026-04-18T09:22:02.536Z</time></trkpt><trkpt lat="43.512315" lon="10.8541417"><ele>175.0</ele><time>2026-04-18T09:22:04.536Z</time></trkpt><trkpt lat="43.5123033" lon="10.8542833"><ele>175.2</ele><time>2026-04-18T09:22:06.536Z</time></trkpt><trkpt lat="43.5123" lon="10.8544167"><ele>175.4</ele><time>2026-04-18T09:22:08.536Z</time></trkpt><trkpt lat="43.5122917" lon="10.8545367"><ele>175.60000000000002</ele><time>2026-04-18T09:22:10.536Z</time></trkpt><trkpt lat="43.5122783" lon="10.8546633"><ele>175.8</ele><time>2026-04-18T09:22:12.536Z</time></trkpt><trkpt lat="43.51227" lon="10.8548217"><ele>176.0</ele><time>2026-04-18T09:22:14.536Z</time></trkpt><trkpt lat="43.5122633" lon="10.8549133"><ele>176.0</ele><time>2026-04-18T09:22:15.536Z</time></trkpt><trkpt lat="43.5122583" lon="10.85501"><ele>176.0</ele><time>2026-04-18T09:22:16.536Z</time></trkpt><trkpt lat="43.5122517" lon="10.855105"><ele>176.0</ele><time>2026-04-18T09:22:17.536Z</time></trkpt><trkpt lat="43.5122417" lon="10.8552533"><ele>176.0</ele><time>2026-04-18T09:22:19.536Z</time></trkpt><trkpt lat="43.5122267" lon="10.8553867"><ele>176.0</ele><time>2026-04-18T09:22:21.537Z</time></trkpt><trkpt lat="43.5122133" lon="10.85552"><ele>176.0</ele><time>2026-04-18T09:22:23.536Z</time></trkpt><trkpt lat="43.5122" lon="10.8556583"><ele>176.16666666666666</ele><time>2026-04-18T09:22:25.536Z</time></trkpt><trkpt lat="43.51219" lon="10.85583"><ele>176.33333333333331</ele><time>2026-04-18T09:22:27.536Z</time></trkpt><trkpt lat="43.5121833" lon="10.855925"><ele>176.5</ele><time>2026-04-18T09:22:28.536Z</time></trkpt><trkpt lat="43.5121717" lon="10.8560233"><ele>176.66666666666666</ele><time>2026-04-18T09:22:29.536Z</time></trkpt><trkpt lat="43.5121633" lon="10.8561283"><ele>176.83333333333334</ele><time>2026-04-18T09:22:30.536Z</time></trkpt><trkpt lat="43.5121483" lon="10.8562317"><ele>177.0</ele><time>2026-04-18T09:22:31.537Z</time></trkpt><trkpt lat="43.5121333" lon="10.8563283"><ele>177.66666666666666</ele><time>2026-04-18T09:22:32.536Z</time></trkpt><trkpt lat="43.5121033" lon="10.8564817"><ele>178.33333333333334</ele><time>2026-04-18T09:22:34.536Z</time></trkpt><trkpt lat="43.512095" lon="10.8565717"><ele>179.0</ele><time>2026-04-18T09:22:35.536Z</time></trkpt><trkpt lat="43.5120767" lon="10.8566817"><ele>179.66666666666669</ele><time>2026-04-18T09:22:36.536Z</time></trkpt><trkpt lat="43.51206" lon="10.8568033"><ele>180.33333333333334</ele><time>2026-04-18T09:22:37.536Z</time></trkpt><trkpt lat="43.512045" lon="10.85692"><ele>181.0</ele><time>2026-04-18T09:22:38.536Z</time></trkpt><trkpt lat="43.5120433" lon="10.8570367"><ele>181.0</ele><time>2026-04-18T09:22:39.536Z</time></trkpt><trkpt lat="43.5120467" lon="10.8571483"><ele>181.0</ele><time>2026-04-18T09:22:40.536Z</time></trkpt><trkpt lat="43.5120533" lon="10.8572533"><ele>181.0</ele><time>2026-04-18T09:22:41.536Z</time></trkpt><trkpt lat="43.5120817" lon="10.8574167"><ele>181.0</ele><time>2026-04-18T09:22:43.537Z</time></trkpt><trkpt lat="43.5121167" lon="10.8575683"><ele>181.0</ele><time>2026-04-18T09:22:45.537Z</time></trkpt><trkpt lat="43.5121583" lon="10.8577183"><ele>181.33333333333334</ele><time>2026-04-18T09:22:47.536Z</time></trkpt><trkpt lat="43.512195" lon="10.8578583"><ele>181.66666666666669</ele><time>2026-04-18T09:22:49.537Z</time></trkpt><trkpt lat="43.512225" lon="10.857965"><ele>182.0</ele><time>2026-04-18T09:22:51.536Z</time></trkpt><trkpt lat="43.512255" lon="10.8580617"><ele>182.33333333333334</ele><time>2026-04-18T09:22:53.536Z</time></trkpt><trkpt lat="43.51229" lon="10.8581517"><ele>182.66666666666666</ele><time>2026-04-18T09:22:55.536Z</time></trkpt><trkpt lat="43.512325" lon="10.85824"><ele>183.0</ele><time>2026-04-18T09:22:57.536Z</time></trkpt><trkpt lat="43.5123617" lon="10.8583333"><ele>183.0</ele><time>2026-04-18T09:22:59.536Z</time></trkpt><trkpt lat="43.5123967" lon="10.8584333"><ele>183.0</ele><time>2026-04-18T09:23:01.536Z</time></trkpt><trkpt lat="43.51244" lon="10.85856"><ele>183.0</ele><time>2026-04-18T09:23:03.537Z</time></trkpt><trkpt lat="43.512475" lon="10.8586733"><ele>183.0</ele><time>2026-04-18T09:23:05.536Z</time></trkpt><trkpt lat="43.512525" lon="10.8587883"><ele>183.0</ele><time>2026-04-18T09:23:07.536Z</time></trkpt><trkpt lat="43.5126167" lon="10.8588983"><ele>183.33333333333334</ele><time>2026-04-18T09:23:09.537Z</time></trkpt><trkpt lat="43.5126917" lon="10.859015"><ele>183.66666666666666</ele><time>2026-04-18T09:23:11.536Z</time></trkpt><trkpt lat="43.5127367" lon="10.859095"><ele>184.0</ele><time>2026-04-18T09:23:12.536Z</time></trkpt><trkpt lat="43.5127883" lon="10.8591817"><ele>184.33333333333331</ele><time>2026-04-18T09:23:13.537Z</time></trkpt><trkpt lat="43.512845" lon="10.8592617"><ele>184.66666666666666</ele><time>2026-04-18T09:23:14.536Z</time></trkpt><trkpt lat="43.5128983" lon="10.859345"><ele>185.0</ele><time>2026-04-18T09:23:15.536Z</time></trkpt><trkpt lat="43.5129567" lon="10.8594167"><ele>184.99999999999997</ele><time>2026-04-18T09:23:16.536Z</time></trkpt><trkpt lat="43.5130217" lon="10.8594867"><ele>185.0</ele><time>2026-04-18T09:23:17.536Z</time></trkpt><trkpt lat="43.5130783" lon="10.8595483"><ele>185.0</ele><time>2026-04-18T09:23:18.536Z</time></trkpt><trkpt lat="43.5131367" lon="10.8596117"><ele>185.0</ele><time>2026-04-18T09:23:19.537Z</time></trkpt><trkpt lat="43.5131917" lon="10.85968"><ele>185.0</ele><time>2026-04-18T09:23:20.536Z</time></trkpt><trkpt lat="43.5132483" lon="10.85974"><ele>184.99999999999997</ele><time>2026-04-18T09:23:21.537Z</time></trkpt><trkpt lat="43.5132983" lon="10.8598033"><ele>185.0</ele><time>2026-04-18T09:23:22.536Z</time></trkpt><trkpt lat="43.5133467" lon="10.8598633"><ele>185.0</ele><time>2026-04-18T09:23:23.536Z</time></trkpt><trkpt lat="43.5133867" lon="10.8599417"><ele>185.0</ele><time>2026-04-18T09:23:24.536Z</time></trkpt><trkpt lat="43.513435" lon="10.8600167"><ele>185.0</ele><time>2026-04-18T09:23:25.536Z</time></trkpt><trkpt lat="43.5134833" lon="10.8600917"><ele>185.0</ele><time>2026-04-18T09:23:26.537Z</time></trkpt><trkpt lat="43.5135267" lon="10.8601583"><ele>185.0</ele><time>2026-04-18T09:23:27.536Z</time></trkpt><trkpt lat="43.5136083" lon="10.86028"><ele>185.0</ele><time>2026-04-18T09:23:29.536Z</time></trkpt><trkpt lat="43.5136583" lon="10.86034"><ele>184.7142857142857</ele><time>2026-04-18T09:23:30.536Z</time></trkpt><trkpt lat="43.5137083" lon="10.8604"><ele>184.42857142857142</ele><time>2026-04-18T09:23:31.537Z</time></trkpt><trkpt lat="43.5137717" lon="10.8604533"><ele>184.14285714285714</ele><time>2026-04-18T09:23:32.536Z</time></trkpt><trkpt lat="43.5138317" lon="10.8604983"><ele>183.85714285714283</ele><time>2026-04-18T09:23:33.536Z</time></trkpt><trkpt lat="43.5138917" lon="10.8605317"><ele>183.57142857142858</ele><time>2026-04-18T09:23:34.536Z</time></trkpt><trkpt lat="43.51396" lon="10.860555"><ele>183.28571428571428</ele><time>2026-04-18T09:23:35.537Z</time></trkpt><trkpt lat="43.5140317" lon="10.8605783"><ele>183.0</ele><time>2026-04-18T09:23:36.536Z</time></trkpt><trkpt lat="43.51409" lon="10.860615"><ele>184.57142857142858</ele><time>2026-04-18T09:23:37.536Z</time></trkpt><trkpt lat="43.5141467" lon="10.8606617"><ele>186.14285714285717</ele><time>2026-04-18T09:23:38.536Z</time></trkpt><trkpt lat="43.5142" lon="10.86072"><ele>187.71428571428572</ele><time>2026-04-18T09:23:39.537Z</time></trkpt><trkpt lat="43.51425" lon="10.8607883"><ele>189.28571428571428</ele><time>2026-04-18T09:23:40.536Z</time></trkpt><trkpt lat="43.514285" lon="10.8608717"><ele>190.85714285714286</ele><time>2026-04-18T09:23:41.537Z</time></trkpt><trkpt lat="43.5143167" lon="10.860975"><ele>192.42857142857142</ele><time>2026-04-18T09:23:42.536Z</time></trkpt><trkpt lat="43.514345" lon="10.86108"><ele>194.0</ele><time>2026-04-18T09:23:43.537Z</time></trkpt><trkpt lat="43.5143717" lon="10.8611867"><ele>195.6</ele><time>2026-04-18T09:23:44.537Z</time></trkpt><trkpt lat="43.51439" lon="10.86129"><ele>197.2</ele><time>2026-04-18T09:23:45.536Z</time></trkpt><trkpt lat="43.514405" lon="10.861375"><ele>198.79999999999998</ele><time>2026-04-18T09:23:46.537Z</time></trkpt><trkpt lat="43.514415" lon="10.861525"><ele>200.39999999999998</ele><time>2026-04-18T09:23:48.537Z</time></trkpt><trkpt lat="43.5143867" lon="10.8616667"><ele>202.0</ele><time>2026-04-18T09:23:50.536Z</time></trkpt><trkpt lat="43.5143167" lon="10.8617733"><ele>202.6</ele><time>2026-04-18T09:23:52.536Z</time></trkpt><trkpt lat="43.51421" lon="10.861855"><ele>203.2</ele><time>2026-04-18T09:23:54.536Z</time></trkpt><trkpt lat="43.5141433" lon="10.8619117"><ele>203.8</ele><time>2026-04-18T09:23:55.536Z</time></trkpt><trkpt lat="43.5140767" lon="10.8619867"><ele>204.4</ele><time>2026-04-18T09:23:56.536Z</time></trkpt><trkpt lat="43.5140183" lon="10.8620817"><ele>205.0</ele><time>2026-04-18T09:23:57.536Z</time></trkpt><trkpt lat="43.5139667" lon="10.8621917"><ele>204.99999999999997</ele><time>2026-04-18T09:23:58.536Z</time></trkpt><trkpt lat="43.5139217" lon="10.8623033"><ele>205.0</ele><time>2026-04-18T09:23:59.536Z</time></trkpt><trkpt lat="43.5138983" lon="10.862405"><ele>205.0</ele><time>2026-04-18T09:24:00.536Z</time></trkpt><trkpt lat="43.513885" lon="10.86251"><ele>205.0</ele><time>2026-04-18T09:24:01.536Z</time></trkpt><trkpt lat="43.513885" lon="10.8626167"><ele>204.99999999999997</ele><time>2026-04-18T09:24:02.536Z</time></trkpt><trkpt lat="43.5138867" lon="10.862735"><ele>205.0</ele><time>2026-04-18T09:24:03.536Z</time></trkpt><trkpt lat="43.5139017" lon="10.862855"><ele>206.0</ele><time>2026-04-18T09:24:04.536Z</time></trkpt><trkpt lat="43.51393" lon="10.8629767"><ele>207.0</ele><time>2026-04-18T09:24:05.536Z</time></trkpt><trkpt lat="43.51396" lon="10.86308"><ele>208.0</ele><time>2026-04-18T09:24:06.536Z</time></trkpt><trkpt lat="43.5140017" lon="10.863185"><ele>209.0</ele><time>2026-04-18T09:24:07.536Z</time></trkpt><trkpt lat="43.5140583" lon="10.8632883"><ele>210.0</ele><time>2026-04-18T09:24:08.536Z</time></trkpt><trkpt lat="43.51412" lon="10.86339"><ele>210.85714285714286</ele><time>2026-04-18T09:24:09.537Z</time></trkpt><trkpt lat="43.5141783" lon="10.86349"><ele>211.71428571428572</ele><time>2026-04-18T09:24:10.536Z</time></trkpt><trkpt lat="43.5142167" lon="10.8635783"><ele>212.57142857142856</ele><time>2026-04-18T09:24:11.537Z</time></trkpt><trkpt lat="43.5142383" lon="10.863665"><ele>213.42857142857144</ele><time>2026-04-18T09:24:12.536Z</time></trkpt><trkpt lat="43.51425" lon="10.8637617"><ele>214.28571428571428</ele><time>2026-04-18T09:24:13.536Z</time></trkpt><trkpt lat="43.5142567" lon="10.8638617"><ele>215.14285714285714</ele><time>2026-04-18T09:24:14.536Z</time></trkpt><trkpt lat="43.514265" lon="10.8639583"><ele>216.0</ele><time>2026-04-18T09:24:15.536Z</time></trkpt><trkpt lat="43.5142733" lon="10.86406"><ele>216.0</ele><time>2026-04-18T09:24:16.536Z</time></trkpt><trkpt lat="43.5142833" lon="10.86417"><ele>216.00000000000003</ele><time>2026-04-18T09:24:17.535Z</time></trkpt><trkpt lat="43.5142933" lon="10.864285"><ele>216.00000000000003</ele><time>2026-04-18T09:24:18.535Z</time></trkpt><trkpt lat="43.514305" lon="10.86443"><ele>216.0</ele><time>2026-04-18T09:24:19.535Z</time></trkpt><trkpt lat="43.5143183" lon="10.86458"><ele>216.0</ele><time>2026-04-18T09:24:20.535Z</time></trkpt><trkpt lat="43.514325" lon="10.864735"><ele>217.8</ele><time>2026-04-18T09:24:21.535Z</time></trkpt><trkpt lat="43.5143383" lon="10.8648967"><ele>219.60000000000002</ele><time>2026-04-18T09:24:22.535Z</time></trkpt><trkpt lat="43.5143467" lon="10.865055"><ele>221.4</ele><time>2026-04-18T09:24:23.535Z</time></trkpt><trkpt lat="43.5143583" lon="10.8652017"><ele>223.2</ele><time>2026-04-18T09:24:24.535Z</time></trkpt><trkpt lat="43.5143683" lon="10.8653133"><ele>225.0</ele><time>2026-04-18T09:24:25.535Z</time></trkpt><trkpt lat="43.51438" lon="10.865405"><ele>226.66666666666666</ele><time>2026-04-18T09:24:26.535Z</time></trkpt><trkpt lat="43.5143967" lon="10.86551"><ele>228.33333333333331</ele><time>2026-04-18T09:24:28.535Z</time></trkpt><trkpt lat="43.5144067" lon="10.8656233"><ele>230.0</ele><time>2026-04-18T09:25:05.535Z</time></trkpt><trkpt lat="43.51442" lon="10.8657433"><ele>231.66666666666666</ele><time>2026-04-18T09:25:07.535Z</time></trkpt><trkpt lat="43.5144267" lon="10.8658383"><ele>233.33333333333331</ele><time>2026-04-18T09:25:08.535Z</time></trkpt><trkpt lat="43.5144383" lon="10.8659467"><ele>235.0</ele><time>2026-04-18T09:25:09.535Z</time></trkpt><trkpt lat="43.51446" lon="10.8660633"><ele>235.99999999999997</ele><time>2026-04-18T09:25:10.535Z</time></trkpt><trkpt lat="43.514485" lon="10.8661933"><ele>237.0</ele><time>2026-04-18T09:25:11.535Z</time></trkpt><trkpt lat="43.514515" lon="10.866315"><ele>238.0</ele><time>2026-04-18T09:25:12.536Z</time></trkpt><trkpt lat="43.5145333" lon="10.866425"><ele>239.0</ele><time>2026-04-18T09:25:13.535Z</time></trkpt><trkpt lat="43.51455" lon="10.8665267"><ele>239.99999999999997</ele><time>2026-04-18T09:25:14.535Z</time></trkpt><trkpt lat="43.514565" lon="10.8666267"><ele>241.0</ele><time>2026-04-18T09:25:15.536Z</time></trkpt><trkpt lat="43.5145733" lon="10.8667367"><ele>239.83333333333331</ele><time>2026-04-18T09:25:16.535Z</time></trkpt><trkpt lat="43.5145833" lon="10.8668467"><ele>238.66666666666666</ele><time>2026-04-18T09:25:17.535Z</time></trkpt><trkpt lat="43.51458" lon="10.8669517"><ele>237.5</ele><time>2026-04-18T09:25:18.535Z</time></trkpt><trkpt lat="43.51459" lon="10.8670583"><ele>236.33333333333331</ele><time>2026-04-18T09:25:19.535Z</time></trkpt><trkpt lat="43.514605" lon="10.86717"><ele>235.16666666666666</ele><time>2026-04-18T09:25:20.536Z</time></trkpt><trkpt lat="43.5146383" lon="10.8672867"><ele>234.0</ele><time>2026-04-18T09:25:21.535Z</time></trkpt><trkpt lat="43.5146767" lon="10.867415"><ele>234.0</ele><time>2026-04-18T09:25:22.536Z</time></trkpt><trkpt lat="43.5147233" lon="10.8675567"><ele>233.99999999999997</ele><time>2026-04-18T09:25:23.535Z</time></trkpt><trkpt lat="43.5147783" lon="10.8676883"><ele>233.99999999999997</ele><time>2026-04-18T09:25:24.535Z</time></trkpt><trkpt lat="43.5148267" lon="10.86781"><ele>234.0</ele><time>2026-04-18T09:25:25.535Z</time></trkpt><trkpt lat="43.51487" lon="10.867925"><ele>234.0</ele><time>2026-04-18T09:25:26.535Z</time></trkpt><trkpt lat="43.5149167" lon="10.8680283"><ele>234.5</ele><time>2026-04-18T09:25:27.535Z</time></trkpt><trkpt lat="43.514965" lon="10.8681167"><ele>235.0</ele><time>2026-04-18T09:25:28.535Z</time></trkpt><trkpt lat="43.5150067" lon="10.8681933"><ele>235.5</ele><time>2026-04-18T09:25:29.535Z</time></trkpt><trkpt lat="43.515055" lon="10.8682867"><ele>236.0</ele><time>2026-04-18T09:25:30.535Z</time></trkpt><trkpt lat="43.515115" lon="10.8683917"><ele>236.5</ele><time>2026-04-18T09:25:31.535Z</time></trkpt><trkpt lat="43.51518" lon="10.868505"><ele>237.0</ele><time>2026-04-18T09:25:32.535Z</time></trkpt><trkpt lat="43.51525" lon="10.8686217"><ele>237.0</ele><time>2026-04-18T09:25:33.535Z</time></trkpt><trkpt lat="43.5153267" lon="10.8687483"><ele>237.0</ele><time>2026-04-18T09:25:34.535Z</time></trkpt><trkpt lat="43.515415" lon="10.8688817"><ele>237.0</ele><time>2026-04-18T09:25:35.535Z</time></trkpt><trkpt lat="43.5155133" lon="10.86901"><ele>237.0</ele><time>2026-04-18T09:25:36.535Z</time></trkpt><trkpt lat="43.5156167" lon="10.8691533"><ele>241.25</ele><time>2026-04-18T09:25:37.535Z</time></trkpt><trkpt lat="43.5157183" lon="10.8692883"><ele>245.5</ele><time>2026-04-18T09:25:38.535Z</time></trkpt><trkpt lat="43.5158183" lon="10.8694183"><ele>249.75</ele><time>2026-04-18T09:25:39.535Z</time></trkpt><trkpt lat="43.5159067" lon="10.869545"><ele>254.0</ele><time>2026-04-18T09:25:40.535Z</time></trkpt><trkpt lat="43.515995" lon="10.8696817"><ele>254.0</ele><time>2026-04-18T09:25:41.535Z</time></trkpt><trkpt lat="43.5160833" lon="10.869815"><ele>253.99999999999997</ele><time>2026-04-18T09:25:42.535Z</time></trkpt><trkpt lat="43.5161633" lon="10.8699367"><ele>253.99999999999997</ele><time>2026-04-18T09:25:43.535Z</time></trkpt><trkpt lat="43.5162317" lon="10.8700383"><ele>254.0</ele><time>2026-04-18T09:25:44.535Z</time></trkpt><trkpt lat="43.5162817" lon="10.8701283"><ele>254.0</ele><time>2026-04-18T09:25:45.535Z</time></trkpt><trkpt lat="43.5163133" lon="10.87028"><ele>259.4</ele><time>2026-04-18T09:25:47.535Z</time></trkpt><trkpt lat="43.5163" lon="10.87046"><ele>264.79999999999995</ele><time>2026-04-18T09:25:49.535Z</time></trkpt><trkpt lat="43.5162867" lon="10.8705767"><ele>270.20000000000005</ele><time>2026-04-18T09:25:50.535Z</time></trkpt><trkpt lat="43.5162817" lon="10.8706883"><ele>275.6</ele><time>2026-04-18T09:25:51.535Z</time></trkpt><trkpt lat="43.5162767" lon="10.8707883"><ele>281.0</ele><time>2026-04-18T09:25:52.535Z</time></trkpt><trkpt lat="43.5162367" lon="10.8709417"><ele>281.83333333333337</ele><time>2026-04-18T09:25:54.535Z</time></trkpt><trkpt lat="43.5161583" lon="10.8709683"><ele>282.6666666666667</ele><time>2026-04-18T09:25:56.535Z</time></trkpt><trkpt lat="43.5160917" lon="10.870955"><ele>283.5</ele><time>2026-04-18T09:25:57.535Z</time></trkpt><trkpt lat="43.5160017" lon="10.8709567"><ele>284.3333333333333</ele><time>2026-04-18T09:25:58.535Z</time></trkpt><trkpt lat="43.51592" lon="10.8709633"><ele>285.16666666666663</ele><time>2026-04-18T09:25:59.535Z</time></trkpt><trkpt lat="43.5158517" lon="10.8709933"><ele>286.0</ele><time>2026-04-18T09:26:00.536Z</time></trkpt><trkpt lat="43.5157867" lon="10.8710417"><ele>286.0</ele><time>2026-04-18T09:26:01.535Z</time></trkpt><trkpt lat="43.5157383" lon="10.8711117"><ele>286.0</ele><time>2026-04-18T09:26:02.535Z</time></trkpt><trkpt lat="43.5156933" lon="10.871195"><ele>286.0</ele><time>2026-04-18T09:26:03.535Z</time></trkpt><trkpt lat="43.51566" lon="10.8712983"><ele>286.0</ele><time>2026-04-18T09:26:04.535Z</time></trkpt><trkpt lat="43.51562" lon="10.8714133"><ele>286.0</ele><time>2026-04-18T09:26:05.536Z</time></trkpt><trkpt lat="43.515595" lon="10.8715367"><ele>286.0</ele><time>2026-04-18T09:26:06.535Z</time></trkpt><trkpt lat="43.51558" lon="10.87166"><ele>286.0</ele><time>2026-04-18T09:26:07.535Z</time></trkpt><trkpt lat="43.51557" lon="10.8717683"><ele>286.0</ele><time>2026-04-18T09:26:08.535Z</time></trkpt><trkpt lat="43.5155633" lon="10.871855"><ele>286.0</ele><time>2026-04-18T09:26:09.535Z</time></trkpt><trkpt lat="43.5155567" lon="10.87198"><ele>286.0</ele><time>2026-04-18T09:26:11.535Z</time></trkpt><trkpt lat="43.5156083" lon="10.872055"><ele>286.0</ele><time>2026-04-18T09:26:14.535Z</time></trkpt><trkpt lat="43.5157233" lon="10.87207"><ele>286.0</ele><time>2026-04-18T09:26:16.535Z</time></trkpt><trkpt lat="43.5158083" lon="10.8720783"><ele>288.0</ele><time>2026-04-18T09:26:17.535Z</time></trkpt><trkpt lat="43.5159033" lon="10.8720833"><ele>290.0</ele><time>2026-04-18T09:26:18.536Z</time></trkpt><trkpt lat="43.51599" lon="10.8721033"><ele>292.0</ele><time>2026-04-18T09:26:19.535Z</time></trkpt><trkpt lat="43.516095" lon="10.8721767"><ele>294.0</ele><time>2026-04-18T09:26:21.535Z</time></trkpt><trkpt lat="43.5161517" lon="10.8723367"><ele>296.0</ele><time>2026-04-18T09:26:23.535Z</time></trkpt><trkpt lat="43.5161533" lon="10.87244"><ele>296.0</ele><time>2026-04-18T09:26:24.535Z</time></trkpt><trkpt lat="43.516165" lon="10.8725367"><ele>296.0</ele><time>2026-04-18T09:26:25.535Z</time></trkpt><trkpt lat="43.5161833" lon="10.8726217"><ele>296.0</ele><time>2026-04-18T09:26:26.536Z</time></trkpt><trkpt lat="43.516235" lon="10.8727567"><ele>296.0</ele><time>2026-04-18T09:26:28.535Z</time></trkpt><trkpt lat="43.5163217" lon="10.8728583"><ele>296.0</ele><time>2026-04-18T09:26:30.535Z</time></trkpt><trkpt lat="43.5163783" lon="10.8729317"><ele>296.0</ele><time>2026-04-18T09:26:32.535Z</time></trkpt><trkpt lat="43.5163917" lon="10.8730167"><ele>299.33333333333337</ele><time>2026-04-18T09:26:34.535Z</time></trkpt><trkpt lat="43.516355" lon="10.8731367"><ele>302.6666666666667</ele><time>2026-04-18T09:26:36.535Z</time></trkpt><trkpt lat="43.5163317" lon="10.8732217"><ele>306.0</ele><time>2026-04-18T09:26:37.535Z</time></trkpt><trkpt lat="43.51632" lon="10.873315"><ele>309.3333333333333</ele><time>2026-04-18T09:26:38.535Z</time></trkpt><trkpt lat="43.5163117" lon="10.8734183"><ele>312.66666666666663</ele><time>2026-04-18T09:26:39.535Z</time></trkpt><trkpt lat="43.516305" lon="10.8735333"><ele>316.0</ele><time>2026-04-18T09:26:40.535Z</time></trkpt><trkpt lat="43.5162917" lon="10.8736467"><ele>316.66666666666663</ele><time>2026-04-18T09:26:41.535Z</time></trkpt><trkpt lat="43.5162817" lon="10.873755"><ele>317.3333333333333</ele><time>2026-04-18T09:26:42.535Z</time></trkpt><trkpt lat="43.5162733" lon="10.8738533"><ele>318.0</ele><time>2026-04-18T09:26:43.535Z</time></trkpt><trkpt lat="43.5162583" lon="10.87395"><ele>318.6666666666667</ele><time>2026-04-18T09:26:44.535Z</time></trkpt><trkpt lat="43.51623" lon="10.8740483"><ele>319.33333333333337</ele><time>2026-04-18T09:26:45.535Z</time></trkpt><trkpt lat="43.5161967" lon="10.8741483"><ele>320.0</ele><time>2026-04-18T09:26:46.535Z</time></trkpt><trkpt lat="43.5161533" lon="10.87425"><ele>319.1666666666667</ele><time>2026-04-18T09:26:47.535Z</time></trkpt><trkpt lat="43.5161083" lon="10.8743483"><ele>318.33333333333337</ele><time>2026-04-18T09:26:48.535Z</time></trkpt><trkpt lat="43.5160633" lon="10.8744317"><ele>317.5</ele><time>2026-04-18T09:26:49.535Z</time></trkpt><trkpt lat="43.5159883" lon="10.8745433"><ele>316.6666666666667</ele><time>2026-04-18T09:26:51.536Z</time></trkpt><trkpt lat="43.5159183" lon="10.87457"><ele>315.8333333333333</ele><time>2026-04-18T09:26:53.535Z</time></trkpt><trkpt lat="43.51585" lon="10.8745917"><ele>315.0</ele><time>2026-04-18T09:26:55.535Z</time></trkpt><trkpt lat="43.51577" lon="10.8746467"><ele>315.0</ele><time>2026-04-18T09:26:57.535Z</time></trkpt><trkpt lat="43.515675" lon="10.8747167"><ele>315.0</ele><time>2026-04-18T09:26:59.535Z</time></trkpt><trkpt lat="43.51557" lon="10.87481"><ele>315.0</ele><time>2026-04-18T09:27:01.535Z</time></trkpt><trkpt lat="43.5155183" lon="10.874865"><ele>315.0</ele><time>2026-04-18T09:27:02.535Z</time></trkpt><trkpt lat="43.5154233" lon="10.8749433"><ele>315.0</ele><time>2026-04-18T09:27:04.536Z</time></trkpt><trkpt lat="43.5153483" lon="10.87502"><ele>315.0</ele><time>2026-04-18T09:27:06.535Z</time></trkpt><trkpt lat="43.51527" lon="10.8751283"><ele>315.0</ele><time>2026-04-18T09:27:08.535Z</time></trkpt><trkpt lat="43.5152033" lon="10.8752617"><ele>315.0</ele><time>2026-04-18T09:27:10.535Z</time></trkpt><trkpt lat="43.5151717" lon="10.87541"><ele>315.0</ele><time>2026-04-18T09:27:12.535Z</time></trkpt><trkpt lat="43.51517" lon="10.875535"><ele>315.0</ele><time>2026-04-18T09:27:14.535Z</time></trkpt><trkpt lat="43.5151533" lon="10.8756783"><ele>315.0</ele><time>2026-04-18T09:27:16.535Z</time></trkpt><trkpt lat="43.5151367" lon="10.8757967"><ele>315.0</ele><time>2026-04-18T09:27:18.535Z</time></trkpt><trkpt lat="43.5151283" lon="10.8758867"><ele>315.0</ele><time>2026-04-18T09:27:21.535Z</time></trkpt><trkpt lat="43.51516" lon="10.8759683"><ele>315.0</ele><time>2026-04-18T09:27:24.535Z</time></trkpt><trkpt lat="43.5152567" lon="10.875985"><ele>315.0</ele><time>2026-04-18T09:27:26.535Z</time></trkpt><trkpt lat="43.515335" lon="10.8759933"><ele>315.0</ele><time>2026-04-18T09:27:27.535Z</time></trkpt><trkpt lat="43.5154217" lon="10.8760133"><ele>318.4</ele><time>2026-04-18T09:27:28.535Z</time></trkpt><trkpt lat="43.515515" lon="10.8760567"><ele>321.8</ele><time>2026-04-18T09:27:29.535Z</time></trkpt><trkpt lat="43.5156" lon="10.8761283"><ele>325.20000000000005</ele><time>2026-04-18T09:27:30.535Z</time></trkpt><trkpt lat="43.5156817" lon="10.8762117"><ele>328.6</ele><time>2026-04-18T09:27:31.535Z</time></trkpt><trkpt lat="43.5157717" lon="10.87628"><ele>332.0</ele><time>2026-04-18T09:27:32.536Z</time></trkpt><trkpt lat="43.5158733" lon="10.8763183"><ele>332.0</ele><time>2026-04-18T09:27:33.535Z</time></trkpt><trkpt lat="43.5159833" lon="10.87631"><ele>332.0</ele><time>2026-04-18T09:27:34.534Z</time></trkpt><trkpt lat="43.516095" lon="10.8762683"><ele>332.0</ele><time>2026-04-18T09:27:35.534Z</time></trkpt><trkpt lat="43.5162117" lon="10.8762117"><ele>332.0</ele><time>2026-04-18T09:27:36.534Z</time></trkpt><trkpt lat="43.51633" lon="10.87615"><ele>332.75</ele><time>2026-04-18T09:27:37.534Z</time></trkpt><trkpt lat="43.5164383" lon="10.876085"><ele>333.5</ele><time>2026-04-18T09:27:38.534Z</time></trkpt><trkpt lat="43.51656" lon="10.8760183"><ele>334.25</ele><time>2026-04-18T09:27:39.534Z</time></trkpt><trkpt lat="43.5166733" lon="10.8759567"><ele>335.0</ele><time>2026-04-18T09:27:40.534Z</time></trkpt><trkpt lat="43.5167683" lon="10.8758883"><ele>335.0</ele><time>2026-04-18T09:27:41.534Z</time></trkpt><trkpt lat="43.516855" lon="10.8758017"><ele>335.0</ele><time>2026-04-18T09:27:42.534Z</time></trkpt><trkpt lat="43.5169283" lon="10.875675"><ele>335.0</ele><time>2026-04-18T09:27:43.535Z</time></trkpt><trkpt lat="43.5169833" lon="10.87552"><ele>335.0</ele><time>2026-04-18T09:27:44.534Z</time></trkpt><trkpt lat="43.5170333" lon="10.8753567"><ele>337.25</ele><time>2026-04-18T09:27:45.535Z</time></trkpt><trkpt lat="43.517075" lon="10.8751983"><ele>339.5</ele><time>2026-04-18T09:27:46.534Z</time></trkpt><trkpt lat="43.517135" lon="10.8750583"><ele>341.75</ele><time>2026-04-18T09:27:47.535Z</time></trkpt><trkpt lat="43.5172267" lon="10.87495"><ele>344.0</ele><time>2026-04-18T09:27:48.534Z</time></trkpt><trkpt lat="43.5173383" lon="10.8748683"><ele>344.0</ele><time>2026-04-18T09:27:49.535Z</time></trkpt><trkpt lat="43.5174583" lon="10.8748183"><ele>344.0</ele><time>2026-04-18T09:27:50.534Z</time></trkpt><trkpt lat="43.5176017" lon="10.8747833"><ele>344.0</ele><time>2026-04-18T09:27:51.534Z</time></trkpt><trkpt lat="43.5177533" lon="10.874765"><ele>344.0</ele><time>2026-04-18T09:27:52.535Z</time></trkpt><trkpt lat="43.5179017" lon="10.87476"><ele>346.0</ele><time>2026-04-18T09:27:53.535Z</time></trkpt><trkpt lat="43.5180317" lon="10.87477"><ele>348.0</ele><time>2026-04-18T09:27:54.534Z</time></trkpt><trkpt lat="43.5181633" lon="10.87478"><ele>350.0</ele><time>2026-04-18T09:27:55.534Z</time></trkpt><trkpt lat="43.5182983" lon="10.874795"><ele>352.0</ele><time>2026-04-18T09:27:56.534Z</time></trkpt><trkpt lat="43.5184133" lon="10.874815"><ele>352.0</ele><time>2026-04-18T09:27:57.534Z</time></trkpt><trkpt lat="43.5185183" lon="10.8748467"><ele>352.0</ele><time>2026-04-18T09:27:58.534Z</time></trkpt><trkpt lat="43.5186433" lon="10.8748667"><ele>352.0</ele><time>2026-04-18T09:27:59.534Z</time></trkpt><trkpt lat="43.51876" lon="10.8748733"><ele>352.0</ele><time>2026-04-18T09:28:00.534Z</time></trkpt><trkpt lat="43.5188633" lon="10.8748833"><ele>352.20000000000005</ele><time>2026-04-18T09:28:01.534Z</time></trkpt><trkpt lat="43.5189667" lon="10.874895"><ele>352.4</ele><time>2026-04-18T09:28:02.534Z</time></trkpt><trkpt lat="43.5190583" lon="10.8749433"><ele>352.6</ele><time>2026-04-18T09:28:03.534Z</time></trkpt><trkpt lat="43.5191417" lon="10.8749967"><ele>352.79999999999995</ele><time>2026-04-18T09:28:04.535Z</time></trkpt><trkpt lat="43.5192167" lon="10.8750933"><ele>353.0</ele><time>2026-04-18T09:28:05.535Z</time></trkpt><trkpt lat="43.5192783" lon="10.8752333"><ele>353.0</ele><time>2026-04-18T09:28:06.534Z</time></trkpt><trkpt lat="43.519315" lon="10.8754067"><ele>353.0</ele><time>2026-04-18T09:28:07.535Z</time></trkpt><trkpt lat="43.5193533" lon="10.875555"><ele>353.0</ele><time>2026-04-18T09:28:08.534Z</time></trkpt><trkpt lat="43.5193967" lon="10.8756883"><ele>353.0</ele><time>2026-04-18T09:28:09.534Z</time></trkpt><trkpt lat="43.5194483" lon="10.8758117"><ele>353.0</ele><time>2026-04-18T09:28:10.534Z</time></trkpt><trkpt lat="43.5195117" lon="10.8759217"><ele>353.0</ele><time>2026-04-18T09:28:11.534Z</time></trkpt><trkpt lat="43.5195917" lon="10.8760167"><ele>353.0</ele><time>2026-04-18T09:28:12.534Z</time></trkpt><trkpt lat="43.51968" lon="10.8761017"><ele>353.0</ele><time>2026-04-18T09:28:13.535Z</time></trkpt><trkpt lat="43.5197617" lon="10.8761717"><ele>353.0</ele><time>2026-04-18T09:28:14.534Z</time></trkpt><trkpt lat="43.519835" lon="10.87626"><ele>350.25</ele><time>2026-04-18T09:28:15.534Z</time></trkpt><trkpt lat="43.51989" lon="10.8763633"><ele>347.5</ele><time>2026-04-18T09:28:16.534Z</time></trkpt><trkpt lat="43.519925" lon="10.8765033"><ele>344.75</ele><time>2026-04-18T09:28:17.534Z</time></trkpt><trkpt lat="43.519935" lon="10.87668"><ele>342.0</ele><time>2026-04-18T09:28:18.534Z</time></trkpt><trkpt lat="43.5199533" lon="10.876865"><ele>342.0</ele><time>2026-04-18T09:28:19.535Z</time></trkpt><trkpt lat="43.5199717" lon="10.8770717"><ele>342.0</ele><time>2026-04-18T09:28:20.534Z</time></trkpt><trkpt lat="43.52" lon="10.8772833"><ele>342.0</ele><time>2026-04-18T09:28:21.534Z</time></trkpt><trkpt lat="43.5200267" lon="10.8774967"><ele>343.6666666666667</ele><time>2026-04-18T09:28:22.534Z</time></trkpt><trkpt lat="43.5200733" lon="10.8777267"><ele>345.33333333333337</ele><time>2026-04-18T09:28:23.534Z</time></trkpt><trkpt lat="43.52012" lon="10.8779283"><ele>347.0</ele><time>2026-04-18T09:28:24.535Z</time></trkpt><trkpt lat="43.5201733" lon="10.8780967"><ele>347.0</ele><time>2026-04-18T09:28:25.534Z</time></trkpt><trkpt lat="43.5202217" lon="10.87825"><ele>347.0</ele><time>2026-04-18T09:28:26.535Z</time></trkpt><trkpt lat="43.5202583" lon="10.878385"><ele>347.0</ele><time>2026-04-18T09:28:27.534Z</time></trkpt><trkpt lat="43.5202683" lon="10.8784933"><ele>347.0</ele><time>2026-04-18T09:28:28.535Z</time></trkpt><trkpt lat="43.5202667" lon="10.8786217"><ele>347.0</ele><time>2026-04-18T09:28:29.534Z</time></trkpt><trkpt lat="43.52025" lon="10.878745"><ele>344.8</ele><time>2026-04-18T09:28:30.534Z</time></trkpt><trkpt lat="43.5202317" lon="10.8788683"><ele>342.6</ele><time>2026-04-18T09:28:31.534Z</time></trkpt><trkpt lat="43.5202033" lon="10.8789817"><ele>340.40000000000003</ele><time>2026-04-18T09:28:32.534Z</time></trkpt><trkpt lat="43.52015" lon="10.87909"><ele>338.20000000000005</ele><time>2026-04-18T09:28:33.534Z</time></trkpt><trkpt lat="43.52008" lon="10.87918"><ele>336.0</ele><time>2026-04-18T09:28:34.535Z</time></trkpt><trkpt lat="43.5199983" lon="10.87924"><ele>336.0</ele><time>2026-04-18T09:28:35.534Z</time></trkpt><trkpt lat="43.5198983" lon="10.8792867"><ele>336.0</ele><time>2026-04-18T09:28:36.535Z</time></trkpt><trkpt lat="43.5197867" lon="10.8792867"><ele>336.0</ele><time>2026-04-18T09:28:37.534Z</time></trkpt><trkpt lat="43.5196517" lon="10.8792383"><ele>336.0</ele><time>2026-04-18T09:28:38.534Z</time></trkpt><trkpt lat="43.5195233" lon="10.8791883"><ele>337.0</ele><time>2026-04-18T09:28:39.534Z</time></trkpt><trkpt lat="43.5194033" lon="10.8791533"><ele>338.0</ele><time>2026-04-18T09:28:40.534Z</time></trkpt><trkpt lat="43.5192867" lon="10.8791467"><ele>339.0</ele><time>2026-04-18T09:28:41.534Z</time></trkpt><trkpt lat="43.5191817" lon="10.879175"><ele>340.0</ele><time>2026-04-18T09:28:42.534Z</time></trkpt><trkpt lat="43.5191017" lon="10.87923"><ele>341.0</ele><time>2026-04-18T09:28:43.534Z</time></trkpt><trkpt lat="43.51902" lon="10.8792967"><ele>341.0</ele><time>2026-04-18T09:28:44.534Z</time></trkpt><trkpt lat="43.51896" lon="10.8793817"><ele>341.0</ele><time>2026-04-18T09:28:45.534Z</time></trkpt><trkpt lat="43.5189317" lon="10.8794633"><ele>341.0</ele><time>2026-04-18T09:28:46.535Z</time></trkpt><trkpt lat="43.518945" lon="10.8795567"><ele>341.0</ele><time>2026-04-18T09:28:47.534Z</time></trkpt><trkpt lat="43.5189733" lon="10.879645"><ele>341.0</ele><time>2026-04-18T09:28:48.535Z</time></trkpt><trkpt lat="43.5190317" lon="10.8797033"><ele>341.0</ele><time>2026-04-18T09:28:49.534Z</time></trkpt><trkpt lat="43.5191" lon="10.87975"><ele>341.0</ele><time>2026-04-18T09:28:50.534Z</time></trkpt><trkpt lat="43.519185" lon="10.87979"><ele>341.0</ele><time>2026-04-18T09:28:51.534Z</time></trkpt><trkpt lat="43.5192867" lon="10.879835"><ele>341.0</ele><time>2026-04-18T09:28:52.534Z</time></trkpt><trkpt lat="43.5194367" lon="10.8799017"><ele>341.0</ele><time>2026-04-18T09:28:53.535Z</time></trkpt><trkpt lat="43.5195283" lon="10.87998"><ele>341.0</ele><time>2026-04-18T09:28:54.535Z</time></trkpt><trkpt lat="43.51959" lon="10.88007"><ele>339.0</ele><time>2026-04-18T09:28:55.534Z</time></trkpt><trkpt lat="43.519625" lon="10.8801683"><ele>337.0</ele><time>2026-04-18T09:28:56.534Z</time></trkpt><trkpt lat="43.5196367" lon="10.8802833"><ele>335.0</ele><time>2026-04-18T09:28:57.534Z</time></trkpt><trkpt lat="43.5196333" lon="10.8804117"><ele>333.0</ele><time>2026-04-18T09:28:58.534Z</time></trkpt><trkpt lat="43.51962" lon="10.880575"><ele>331.0</ele><time>2026-04-18T09:28:59.534Z</time></trkpt><trkpt lat="43.5196" lon="10.8807717"><ele>334.0</ele><time>2026-04-18T09:29:00.534Z</time></trkpt><trkpt lat="43.5195917" lon="10.8809967"><ele>337.0</ele><time>2026-04-18T09:29:01.534Z</time></trkpt><trkpt lat="43.519575" lon="10.881245"><ele>340.0</ele><time>2026-04-18T09:29:02.534Z</time></trkpt><trkpt lat="43.5195533" lon="10.8814617"><ele>345.25</ele><time>2026-04-18T09:29:03.534Z</time></trkpt><trkpt lat="43.5195233" lon="10.8816533"><ele>350.5</ele><time>2026-04-18T09:29:04.534Z</time></trkpt><trkpt lat="43.5195017" lon="10.8818267"><ele>355.75</ele><time>2026-04-18T09:29:05.534Z</time></trkpt><trkpt lat="43.5195017" lon="10.8819817"><ele>361.0</ele><time>2026-04-18T09:29:06.534Z</time></trkpt><trkpt lat="43.5195233" lon="10.8821567"><ele>361.0</ele><time>2026-04-18T09:29:07.534Z</time></trkpt><trkpt lat="43.51957" lon="10.8823267"><ele>361.0</ele><time>2026-04-18T09:29:08.534Z</time></trkpt><trkpt lat="43.519635" lon="10.8824917"><ele>361.0</ele><time>2026-04-18T09:29:09.534Z</time></trkpt><trkpt lat="43.5197183" lon="10.8826533"><ele>361.0</ele><time>2026-04-18T09:29:10.534Z</time></trkpt><trkpt lat="43.5198167" lon="10.8827917"><ele>361.0</ele><time>2026-04-18T09:29:11.534Z</time></trkpt><trkpt lat="43.5199217" lon="10.8828983"><ele>361.0</ele><time>2026-04-18T09:29:12.534Z</time></trkpt><trkpt lat="43.520035" lon="10.8829733"><ele>361.0</ele><time>2026-04-18T09:29:13.534Z</time></trkpt><trkpt lat="43.5201367" lon="10.8830433"><ele>361.0</ele><time>2026-04-18T09:29:14.535Z</time></trkpt><trkpt lat="43.5202367" lon="10.883075"><ele>361.0</ele><time>2026-04-18T09:29:15.534Z</time></trkpt><trkpt lat="43.5203317" lon="10.8831233"><ele>361.0</ele><time>2026-04-18T09:29:16.534Z</time></trkpt><trkpt lat="43.5204167" lon="10.8831567"><ele>361.0</ele><time>2026-04-18T09:29:17.534Z</time></trkpt><trkpt lat="43.52051" lon="10.8831583"><ele>361.0</ele><time>2026-04-18T09:29:18.534Z</time></trkpt><trkpt lat="43.5206217" lon="10.88313"><ele>361.0</ele><time>2026-04-18T09:29:19.535Z</time></trkpt><trkpt lat="43.520735" lon="10.883105"><ele>359.75</ele><time>2026-04-18T09:29:20.534Z</time></trkpt><trkpt lat="43.5208583" lon="10.8830967"><ele>358.5</ele><time>2026-04-18T09:29:21.534Z</time></trkpt><trkpt lat="43.5209917" lon="10.883135"><ele>357.25</ele><time>2026-04-18T09:29:22.534Z</time></trkpt><trkpt lat="43.521105" lon="10.8832067"><ele>356.0</ele><time>2026-04-18T09:29:23.534Z</time></trkpt><trkpt lat="43.521205" lon="10.8833017"><ele>353.20000000000005</ele><time>2026-04-18T09:29:24.534Z</time></trkpt><trkpt lat="43.5212933" lon="10.8834417"><ele>350.40000000000003</ele><time>2026-04-18T09:29:25.534Z</time></trkpt><trkpt lat="43.5213417" lon="10.8835583"><ele>347.6</ele><time>2026-04-18T09:29:26.534Z</time></trkpt><trkpt lat="43.5213617" lon="10.88368"><ele>344.8</ele><time>2026-04-18T09:29:27.534Z</time></trkpt><trkpt lat="43.5213633" lon="10.883815"><ele>342.0</ele><time>2026-04-18T09:29:28.535Z</time></trkpt><trkpt lat="43.5213317" lon="10.883945"><ele>342.0</ele><time>2026-04-18T09:29:29.534Z</time></trkpt><trkpt lat="43.5212867" lon="10.8840767"><ele>342.0</ele><time>2026-04-18T09:29:30.534Z</time></trkpt><trkpt lat="43.52124" lon="10.8842"><ele>342.0</ele><time>2026-04-18T09:29:31.534Z</time></trkpt><trkpt lat="43.5211933" lon="10.8843233"><ele>342.0</ele><time>2026-04-18T09:29:32.534Z</time></trkpt><trkpt lat="43.52116" lon="10.8844433"><ele>342.0</ele><time>2026-04-18T09:29:33.534Z</time></trkpt><trkpt lat="43.5211417" lon="10.8845933"><ele>345.75</ele><time>2026-04-18T09:29:34.534Z</time></trkpt><trkpt lat="43.5211583" lon="10.88476"><ele>349.5</ele><time>2026-04-18T09:29:35.534Z</time></trkpt><trkpt lat="43.521205" lon="10.884935"><ele>353.25</ele><time>2026-04-18T09:29:36.534Z</time></trkpt><trkpt lat="43.5212633" lon="10.8851217"><ele>357.0</ele><time>2026-04-18T09:29:37.534Z</time></trkpt><trkpt lat="43.521345" lon="10.8853383"><ele>357.0</ele><time>2026-04-18T09:29:38.534Z</time></trkpt><trkpt lat="43.5214567" lon="10.88556"><ele>357.0</ele><time>2026-04-18T09:29:39.534Z</time></trkpt><trkpt lat="43.521595" lon="10.8857867"><ele>357.0</ele><time>2026-04-18T09:29:40.534Z</time></trkpt><trkpt lat="43.5217283" lon="10.8860383"><ele>363.5</ele><time>2026-04-18T09:29:41.534Z</time></trkpt><trkpt lat="43.5218517" lon="10.8863033"><ele>370.0</ele><time>2026-04-18T09:29:42.534Z</time></trkpt><trkpt lat="43.5219683" lon="10.886575"><ele>368.0</ele><time>2026-04-18T09:29:43.534Z</time></trkpt><trkpt lat="43.522075" lon="10.8868517"><ele>366.0</ele><time>2026-04-18T09:29:44.535Z</time></trkpt><trkpt lat="43.522165" lon="10.8871017"><ele>364.0</ele><time>2026-04-18T09:29:45.535Z</time></trkpt><trkpt lat="43.5222567" lon="10.887305"><ele>364.0</ele><time>2026-04-18T09:29:46.534Z</time></trkpt><trkpt lat="43.522325" lon="10.8874867"><ele>364.0</ele><time>2026-04-18T09:29:47.535Z</time></trkpt><trkpt lat="43.5223767" lon="10.8876433"><ele>364.0</ele><time>2026-04-18T09:29:48.534Z</time></trkpt><trkpt lat="43.5224217" lon="10.887785"><ele>364.0</ele><time>2026-04-18T09:29:49.535Z</time></trkpt><trkpt lat="43.522425" lon="10.8879533"><ele>366.66666666666663</ele><time>2026-04-18T09:29:50.534Z</time></trkpt><trkpt lat="43.52242" lon="10.8881433"><ele>369.3333333333333</ele><time>2026-04-18T09:29:51.534Z</time></trkpt><trkpt lat="43.5224" lon="10.8883533"><ele>372.0</ele><time>2026-04-18T09:29:52.534Z</time></trkpt><trkpt lat="43.5223717" lon="10.88858"><ele>374.6666666666667</ele><time>2026-04-18T09:29:53.534Z</time></trkpt><trkpt lat="43.5223467" lon="10.8888233"><ele>377.33333333333337</ele><time>2026-04-18T09:29:54.535Z</time></trkpt><trkpt lat="43.5223183" lon="10.889065"><ele>380.0</ele><time>2026-04-18T09:29:55.535Z</time></trkpt><trkpt lat="43.5223033" lon="10.8892967"><ele>382.0</ele><time>2026-04-18T09:29:56.534Z</time></trkpt><trkpt lat="43.52228" lon="10.8895017"><ele>384.0</ele><time>2026-04-18T09:29:57.534Z</time></trkpt><trkpt lat="43.52225" lon="10.88969"><ele>386.0</ele><time>2026-04-18T09:29:58.534Z</time></trkpt><trkpt lat="43.522235" lon="10.8898783"><ele>388.0</ele><time>2026-04-18T09:29:59.534Z</time></trkpt><trkpt lat="43.5222117" lon="10.8900583"><ele>389.0</ele><time>2026-04-18T09:30:00.534Z</time></trkpt><trkpt lat="43.52221" lon="10.89024"><ele>390.0</ele><time>2026-04-18T09:30:01.534Z</time></trkpt><trkpt lat="43.5222217" lon="10.8904183"><ele>391.0</ele><time>2026-04-18T09:30:02.534Z</time></trkpt><trkpt lat="43.5222667" lon="10.89062"><ele>392.0</ele><time>2026-04-18T09:30:03.534Z</time></trkpt><trkpt lat="43.5223217" lon="10.890835"><ele>393.3333333333333</ele><time>2026-04-18T09:30:04.534Z</time></trkpt><trkpt lat="43.52239" lon="10.8910717"><ele>394.66666666666663</ele><time>2026-04-18T09:30:05.534Z</time></trkpt><trkpt lat="43.5224633" lon="10.89131"><ele>396.0</ele><time>2026-04-18T09:30:06.534Z</time></trkpt><trkpt lat="43.5225417" lon="10.89153"><ele>396.0</ele><time>2026-04-18T09:30:07.534Z</time></trkpt><trkpt lat="43.52261" lon="10.891725"><ele>396.0</ele><time>2026-04-18T09:30:08.534Z</time></trkpt><trkpt lat="43.5226767" lon="10.891915"><ele>396.0</ele><time>2026-04-18T09:30:09.534Z</time></trkpt><trkpt lat="43.5227417" lon="10.89211"><ele>397.33333333333337</ele><time>2026-04-18T09:30:10.534Z</time></trkpt><trkpt lat="43.522815" lon="10.8923217"><ele>398.6666666666667</ele><time>2026-04-18T09:30:11.534Z</time></trkpt><trkpt lat="43.5228867" lon="10.8925533"><ele>400.0</ele><time>2026-04-18T09:30:12.535Z</time></trkpt><trkpt lat="43.522955" lon="10.8927883"><ele>400.0</ele><time>2026-04-18T09:30:13.534Z</time></trkpt><trkpt lat="43.5230217" lon="10.893005"><ele>400.0</ele><time>2026-04-18T09:30:14.534Z</time></trkpt><trkpt lat="43.5230867" lon="10.89321"><ele>400.0</ele><time>2026-04-18T09:30:15.534Z</time></trkpt><trkpt lat="43.5231467" lon="10.8934033"><ele>402.0</ele><time>2026-04-18T09:30:16.534Z</time></trkpt><trkpt lat="43.5231967" lon="10.893575"><ele>404.0</ele><time>2026-04-18T09:30:17.534Z</time></trkpt><trkpt lat="43.523245" lon="10.89375"><ele>406.0</ele><time>2026-04-18T09:30:18.534Z</time></trkpt><trkpt lat="43.5232983" lon="10.8939"><ele>408.0</ele><time>2026-04-18T09:30:19.535Z</time></trkpt><trkpt lat="43.5233467" lon="10.8940383"><ele>408.0</ele><time>2026-04-18T09:30:20.535Z</time></trkpt><trkpt lat="43.5234" lon="10.8941783"><ele>408.0</ele><time>2026-04-18T09:30:21.534Z</time></trkpt><trkpt lat="43.523455" lon="10.8943317"><ele>408.0</ele><time>2026-04-18T09:30:22.534Z</time></trkpt><trkpt lat="43.523515" lon="10.8944867"><ele>408.0</ele><time>2026-04-18T09:30:23.534Z</time></trkpt><trkpt lat="43.523585" lon="10.8946233"><ele>407.75</ele><time>2026-04-18T09:30:24.534Z</time></trkpt><trkpt lat="43.5236483" lon="10.8947617"><ele>407.5</ele><time>2026-04-18T09:30:25.534Z</time></trkpt><trkpt lat="43.5237017" lon="10.894895"><ele>407.25</ele><time>2026-04-18T09:30:26.534Z</time></trkpt><trkpt lat="43.52375" lon="10.8950267"><ele>407.0</ele><time>2026-04-18T09:30:27.534Z</time></trkpt><trkpt lat="43.5237917" lon="10.8951733"><ele>407.0</ele><time>2026-04-18T09:30:28.535Z</time></trkpt><trkpt lat="43.5238333" lon="10.89533"><ele>407.0</ele><time>2026-04-18T09:30:29.534Z</time></trkpt><trkpt lat="43.5238717" lon="10.8955017"><ele>407.0</ele><time>2026-04-18T09:30:30.534Z</time></trkpt><trkpt lat="43.52392" lon="10.895685"><ele>407.0</ele><time>2026-04-18T09:30:31.534Z</time></trkpt><trkpt lat="43.5239583" lon="10.89586"><ele>408.25</ele><time>2026-04-18T09:30:32.534Z</time></trkpt><trkpt lat="43.5240033" lon="10.896035"><ele>409.5</ele><time>2026-04-18T09:30:33.534Z</time></trkpt><trkpt lat="43.524035" lon="10.8962117"><ele>410.75</ele><time>2026-04-18T09:30:34.534Z</time></trkpt><trkpt lat="43.5240717" lon="10.8963933"><ele>412.0</ele><time>2026-04-18T09:30:35.534Z</time></trkpt><trkpt lat="43.5241133" lon="10.896555"><ele>412.0</ele><time>2026-04-18T09:30:36.534Z</time></trkpt><trkpt lat="43.5241433" lon="10.89671"><ele>412.0</ele><time>2026-04-18T09:30:37.535Z</time></trkpt><trkpt lat="43.524175" lon="10.8968533"><ele>412.0</ele><time>2026-04-18T09:30:38.534Z</time></trkpt><trkpt lat="43.52421" lon="10.8969883"><ele>412.0</ele><time>2026-04-18T09:30:39.534Z</time></trkpt><trkpt lat="43.52424" lon="10.8971317"><ele>412.0</ele><time>2026-04-18T09:30:40.534Z</time></trkpt><trkpt lat="43.5242683" lon="10.8972733"><ele>412.20000000000005</ele><time>2026-04-18T09:30:41.534Z</time></trkpt><trkpt lat="43.5242983" lon="10.8974217"><ele>412.4</ele><time>2026-04-18T09:30:42.534Z</time></trkpt><trkpt lat="43.5243283" lon="10.8975683"><ele>412.6</ele><time>2026-04-18T09:30:43.534Z</time></trkpt><trkpt lat="43.5243667" lon="10.897695"><ele>412.79999999999995</ele><time>2026-04-18T09:30:44.534Z</time></trkpt><trkpt lat="43.5243917" lon="10.89781"><ele>413.0</ele><time>2026-04-18T09:30:45.534Z</time></trkpt><trkpt lat="43.5244233" lon="10.8979117"><ele>414.0</ele><time>2026-04-18T09:30:46.534Z</time></trkpt><trkpt lat="43.5244317" lon="10.8980583"><ele>415.0</ele><time>2026-04-18T09:30:48.534Z</time></trkpt><trkpt lat="43.5243917" lon="10.8981683"><ele>416.0</ele><time>2026-04-18T09:30:50.534Z</time></trkpt><trkpt lat="43.524345" lon="10.8982317"><ele>417.0</ele><time>2026-04-18T09:30:51.535Z</time></trkpt><trkpt lat="43.52428" lon="10.898305"><ele>418.0</ele><time>2026-04-18T09:30:52.534Z</time></trkpt><trkpt lat="43.5241933" lon="10.898385"><ele>420.5</ele><time>2026-04-18T09:30:53.534Z</time></trkpt><trkpt lat="43.52409" lon="10.8984783"><ele>423.0</ele><time>2026-04-18T09:30:54.535Z</time></trkpt><trkpt lat="43.5239933" lon="10.8985717"><ele>425.5</ele><time>2026-04-18T09:30:55.535Z</time></trkpt><trkpt lat="43.5239117" lon="10.898685"><ele>428.0</ele><time>2026-04-18T09:30:56.535Z</time></trkpt><trkpt lat="43.5238167" lon="10.8987917"><ele>429.5</ele><time>2026-04-18T09:30:57.533Z</time></trkpt><trkpt lat="43.52372" lon="10.8989117"><ele>431.0</ele><time>2026-04-18T09:30:58.533Z</time></trkpt><trkpt lat="43.52362" lon="10.899025"><ele>432.5</ele><time>2026-04-18T09:30:59.533Z</time></trkpt><trkpt lat="43.5235067" lon="10.8991367"><ele>434.0</ele><time>2026-04-18T09:31:00.533Z</time></trkpt><trkpt lat="43.5233883" lon="10.899235"><ele>432.0</ele><time>2026-04-18T09:31:01.534Z</time></trkpt><trkpt lat="43.5232683" lon="10.8993283"><ele>430.0</ele><time>2026-04-18T09:31:02.533Z</time></trkpt><trkpt lat="43.5231583" lon="10.89941"><ele>428.0</ele><time>2026-04-18T09:31:03.533Z</time></trkpt><trkpt lat="43.523045" lon="10.8994867"><ele>426.0</ele><time>2026-04-18T09:31:04.533Z</time></trkpt><trkpt lat="43.522915" lon="10.8995567"><ele>426.66666666666663</ele><time>2026-04-18T09:31:05.533Z</time></trkpt><trkpt lat="43.52277" lon="10.8996333"><ele>427.3333333333333</ele><time>2026-04-18T09:31:06.534Z</time></trkpt><trkpt lat="43.5226083" lon="10.89972"><ele>428.0</ele><time>2026-04-18T09:31:07.533Z</time></trkpt><trkpt lat="43.5224617" lon="10.8997883"><ele>428.0</ele><time>2026-04-18T09:31:08.534Z</time></trkpt><trkpt lat="43.52231" lon="10.8998417"><ele>428.0</ele><time>2026-04-18T09:31:09.533Z</time></trkpt><trkpt lat="43.5221583" lon="10.8999083"><ele>428.0</ele><time>2026-04-18T09:31:10.533Z</time></trkpt><trkpt lat="43.5220067" lon="10.89999"><ele>429.66666666666663</ele><time>2026-04-18T09:31:11.533Z</time></trkpt><trkpt lat="43.5218683" lon="10.9000733"><ele>431.33333333333337</ele><time>2026-04-18T09:31:12.534Z</time></trkpt><trkpt lat="43.5217283" lon="10.90019"><ele>433.0</ele><time>2026-04-18T09:31:13.533Z</time></trkpt><trkpt lat="43.5216033" lon="10.900315"><ele>433.0</ele><time>2026-04-18T09:31:14.533Z</time></trkpt><trkpt lat="43.52148" lon="10.900445"><ele>433.0</ele><time>2026-04-18T09:31:15.533Z</time></trkpt><trkpt lat="43.5213617" lon="10.900575"><ele>433.0</ele><time>2026-04-18T09:31:16.533Z</time></trkpt><trkpt lat="43.5212233" lon="10.9007133"><ele>435.0</ele><time>2026-04-18T09:31:17.533Z</time></trkpt><trkpt lat="43.5210883" lon="10.90088"><ele>437.0</ele><time>2026-04-18T09:31:18.533Z</time></trkpt><trkpt lat="43.5209483" lon="10.9010533"><ele>439.0</ele><time>2026-04-18T09:31:19.533Z</time></trkpt><trkpt lat="43.520805" lon="10.9012333"><ele>439.0</ele><time>2026-04-18T09:31:20.533Z</time></trkpt><trkpt lat="43.52065" lon="10.9014017"><ele>439.0</ele><time>2026-04-18T09:31:21.533Z</time></trkpt><trkpt lat="43.5204883" lon="10.9015667"><ele>439.0</ele><time>2026-04-18T09:31:22.533Z</time></trkpt><trkpt lat="43.5203467" lon="10.901735"><ele>438.0</ele><time>2026-04-18T09:31:23.533Z</time></trkpt><trkpt lat="43.520205" lon="10.90189"><ele>437.0</ele><time>2026-04-18T09:31:24.533Z</time></trkpt><trkpt lat="43.520055" lon="10.902045"><ele>436.0</ele><time>2026-04-18T09:31:25.534Z</time></trkpt><trkpt lat="43.5199067" lon="10.9021933"><ele>436.0</ele><time>2026-04-18T09:31:26.533Z</time></trkpt><trkpt lat="43.519755" lon="10.90233"><ele>436.0</ele><time>2026-04-18T09:31:27.533Z</time></trkpt><trkpt lat="43.519595" lon="10.90245"><ele>436.0</ele><time>2026-04-18T09:31:28.533Z</time></trkpt><trkpt lat="43.5194233" lon="10.9025517"><ele>438.0</ele><time>2026-04-18T09:31:29.533Z</time></trkpt><trkpt lat="43.51926" lon="10.9026183"><ele>440.0</ele><time>2026-04-18T09:31:30.533Z</time></trkpt><trkpt lat="43.519095" lon="10.90266"><ele>442.0</ele><time>2026-04-18T09:31:31.533Z</time></trkpt><trkpt lat="43.51893" lon="10.902675"><ele>442.0</ele><time>2026-04-18T09:31:32.533Z</time></trkpt><trkpt lat="43.5187517" lon="10.902685"><ele>442.0</ele><time>2026-04-18T09:31:33.533Z</time></trkpt><trkpt lat="43.5185867" lon="10.9026917"><ele>442.0</ele><time>2026-04-18T09:31:34.533Z</time></trkpt><trkpt lat="43.5184133" lon="10.9026833"><ele>441.6666666666667</ele><time>2026-04-18T09:31:35.533Z</time></trkpt><trkpt lat="43.518245" lon="10.9026833"><ele>441.33333333333337</ele><time>2026-04-18T09:31:36.534Z</time></trkpt><trkpt lat="43.5180817" lon="10.9026967"><ele>441.0</ele><time>2026-04-18T09:31:37.533Z</time></trkpt><trkpt lat="43.5179317" lon="10.9027067"><ele>443.25</ele><time>2026-04-18T09:31:38.533Z</time></trkpt><trkpt lat="43.5177817" lon="10.9027117"><ele>445.5</ele><time>2026-04-18T09:31:39.533Z</time></trkpt><trkpt lat="43.51763" lon="10.9027083"><ele>447.75</ele><time>2026-04-18T09:31:40.533Z</time></trkpt><trkpt lat="43.5174883" lon="10.902685"><ele>450.0</ele><time>2026-04-18T09:31:41.533Z</time></trkpt><trkpt lat="43.5173467" lon="10.90264"><ele>449.75</ele><time>2026-04-18T09:31:42.533Z</time></trkpt><trkpt lat="43.5172267" lon="10.9025567"><ele>449.5</ele><time>2026-04-18T09:31:43.533Z</time></trkpt><trkpt lat="43.5171183" lon="10.90246"><ele>449.25</ele><time>2026-04-18T09:31:44.534Z</time></trkpt><trkpt lat="43.5170217" lon="10.90235"><ele>449.0</ele><time>2026-04-18T09:31:45.533Z</time></trkpt><trkpt lat="43.5169217" lon="10.9022283"><ele>453.0</ele><time>2026-04-18T09:31:46.534Z</time></trkpt><trkpt lat="43.5168083" lon="10.9020917"><ele>457.0</ele><time>2026-04-18T09:31:47.533Z</time></trkpt><trkpt lat="43.516685" lon="10.9019383"><ele>461.0</ele><time>2026-04-18T09:31:48.533Z</time></trkpt><trkpt lat="43.5165433" lon="10.90178"><ele>460.66666666666663</ele><time>2026-04-18T09:31:49.533Z</time></trkpt><trkpt lat="43.516405" lon="10.9016167"><ele>460.33333333333337</ele><time>2026-04-18T09:31:50.533Z</time></trkpt><trkpt lat="43.516245" lon="10.9014617"><ele>460.0</ele><time>2026-04-18T09:31:51.533Z</time></trkpt><trkpt lat="43.5160733" lon="10.901305"><ele>461.33333333333337</ele><time>2026-04-18T09:31:52.533Z</time></trkpt><trkpt lat="43.5158883" lon="10.901165"><ele>462.66666666666663</ele><time>2026-04-18T09:31:53.533Z</time></trkpt><trkpt lat="43.5156933" lon="10.901035"><ele>464.0</ele><time>2026-04-18T09:31:54.534Z</time></trkpt><trkpt lat="43.515495" lon="10.9009067"><ele>467.0</ele><time>2026-04-18T09:31:55.533Z</time></trkpt><trkpt lat="43.5152967" lon="10.90078"><ele>470.0</ele><time>2026-04-18T09:31:56.533Z</time></trkpt><trkpt lat="43.5151117" lon="10.90066"><ele>473.0</ele><time>2026-04-18T09:31:57.533Z</time></trkpt><trkpt lat="43.514935" lon="10.9005483"><ele>473.0</ele><time>2026-04-18T09:31:58.533Z</time></trkpt><trkpt lat="43.5147717" lon="10.9004517"><ele>473.0</ele><time>2026-04-18T09:31:59.533Z</time></trkpt><trkpt lat="43.514605" lon="10.9003567"><ele>473.0</ele><time>2026-04-18T09:32:00.533Z</time></trkpt><trkpt lat="43.5144433" lon="10.9002317"><ele>474.66666666666663</ele><time>2026-04-18T09:32:01.533Z</time></trkpt><trkpt lat="43.5142767" lon="10.9000833"><ele>476.33333333333337</ele><time>2026-04-18T09:32:02.533Z</time></trkpt><trkpt lat="43.5141167" lon="10.899915"><ele>478.0</ele><time>2026-04-18T09:32:03.533Z</time></trkpt><trkpt lat="43.51396" lon="10.8997417"><ele>478.0</ele><time>2026-04-18T09:32:04.533Z</time></trkpt><trkpt lat="43.5138167" lon="10.8995783"><ele>478.0</ele><time>2026-04-18T09:32:05.533Z</time></trkpt><trkpt lat="43.5136783" lon="10.89943"><ele>478.0</ele><time>2026-04-18T09:32:06.533Z</time></trkpt><trkpt lat="43.51355" lon="10.899295"><ele>479.6666666666667</ele><time>2026-04-18T09:32:07.533Z</time></trkpt><trkpt lat="43.513405" lon="10.8991683"><ele>481.33333333333337</ele><time>2026-04-18T09:32:08.533Z</time></trkpt><trkpt lat="43.5132633" lon="10.899045"><ele>483.0</ele><time>2026-04-18T09:32:09.534Z</time></trkpt><trkpt lat="43.513095" lon="10.898965"><ele>483.0</ele><time>2026-04-18T09:32:10.534Z</time></trkpt><trkpt lat="43.51292" lon="10.898915"><ele>483.0</ele><time>2026-04-18T09:32:11.533Z</time></trkpt><trkpt lat="43.5127533" lon="10.8989083"><ele>483.0</ele><time>2026-04-18T09:32:12.534Z</time></trkpt><trkpt lat="43.5125867" lon="10.8989417"><ele>481.33333333333337</ele><time>2026-04-18T09:32:13.533Z</time></trkpt><trkpt lat="43.51242" lon="10.8990017"><ele>479.6666666666667</ele><time>2026-04-18T09:32:14.534Z</time></trkpt><trkpt lat="43.5122583" lon="10.8991033"><ele>478.0</ele><time>2026-04-18T09:32:15.533Z</time></trkpt><trkpt lat="43.51211" lon="10.8992383"><ele>480.33333333333337</ele><time>2026-04-18T09:32:16.533Z</time></trkpt><trkpt lat="43.5119817" lon="10.899415"><ele>482.66666666666663</ele><time>2026-04-18T09:32:17.533Z</time></trkpt><trkpt lat="43.5118867" lon="10.89962"><ele>485.0</ele><time>2026-04-18T09:32:18.534Z</time></trkpt><trkpt lat="43.5118183" lon="10.899835"><ele>485.0</ele><time>2026-04-18T09:32:19.534Z</time></trkpt><trkpt lat="43.5117783" lon="10.9000683"><ele>485.0</ele><time>2026-04-18T09:32:20.533Z</time></trkpt><trkpt lat="43.5117617" lon="10.9003317"><ele>485.0</ele><time>2026-04-18T09:32:21.533Z</time></trkpt><trkpt lat="43.5117733" lon="10.90063"><ele>484.5</ele><time>2026-04-18T09:32:22.534Z</time></trkpt><trkpt lat="43.5118017" lon="10.900935"><ele>484.0</ele><time>2026-04-18T09:32:23.533Z</time></trkpt><trkpt lat="43.5118633" lon="10.9012483"><ele>484.0</ele><time>2026-04-18T09:32:24.533Z</time></trkpt><trkpt lat="43.51196" lon="10.90153"><ele>484.0</ele><time>2026-04-18T09:32:25.533Z</time></trkpt><trkpt lat="43.5120633" lon="10.9017817"><ele>484.0</ele><time>2026-04-18T09:32:26.533Z</time></trkpt><trkpt lat="43.5121467" lon="10.902015"><ele>484.0</ele><time>2026-04-18T09:32:27.533Z</time></trkpt><trkpt lat="43.5122067" lon="10.9022533"><ele>484.0</ele><time>2026-04-18T09:32:28.533Z</time></trkpt><trkpt lat="43.51224" lon="10.9025133"><ele>484.0</ele><time>2026-04-18T09:32:29.533Z</time></trkpt><trkpt lat="43.5122417" lon="10.902785"><ele>484.0</ele><time>2026-04-18T09:32:30.534Z</time></trkpt><trkpt lat="43.5122183" lon="10.9030617"><ele>484.0</ele><time>2026-04-18T09:32:31.533Z</time></trkpt><trkpt lat="43.512195" lon="10.9033267"><ele>484.0</ele><time>2026-04-18T09:32:32.533Z</time></trkpt><trkpt lat="43.5121767" lon="10.9035733"><ele>484.33333333333337</ele><time>2026-04-18T09:32:33.533Z</time></trkpt><trkpt lat="43.5121533" lon="10.9038133"><ele>484.66666666666663</ele><time>2026-04-18T09:32:34.533Z</time></trkpt><trkpt lat="43.512125" lon="10.9040317"><ele>485.0</ele><time>2026-04-18T09:32:35.533Z</time></trkpt><trkpt lat="43.5120767" lon="10.9042233"><ele>486.66666666666663</ele><time>2026-04-18T09:32:36.533Z</time></trkpt><trkpt lat="43.512005" lon="10.9043967"><ele>488.33333333333337</ele><time>2026-04-18T09:32:37.534Z</time></trkpt><trkpt lat="43.5119067" lon="10.904555"><ele>490.0</ele><time>2026-04-18T09:32:38.533Z</time></trkpt><trkpt lat="43.511785" lon="10.904685"><ele>490.0</ele><time>2026-04-18T09:32:39.533Z</time></trkpt><trkpt lat="43.5116383" lon="10.9047867"><ele>490.0</ele><time>2026-04-18T09:32:40.533Z</time></trkpt><trkpt lat="43.5114533" lon="10.9048633"><ele>490.0</ele><time>2026-04-18T09:32:41.533Z</time></trkpt><trkpt lat="43.5112633" lon="10.9049217"><ele>489.33333333333337</ele><time>2026-04-18T09:32:42.533Z</time></trkpt><trkpt lat="43.5110633" lon="10.9049867"><ele>488.66666666666663</ele><time>2026-04-18T09:32:43.533Z</time></trkpt><trkpt lat="43.5108383" lon="10.90506"><ele>488.0</ele><time>2026-04-18T09:32:44.533Z</time></trkpt><trkpt lat="43.5106033" lon="10.90514"><ele>489.5</ele><time>2026-04-18T09:32:45.534Z</time></trkpt><trkpt lat="43.5103583" lon="10.9052283"><ele>491.0</ele><time>2026-04-18T09:32:46.533Z</time></trkpt><trkpt lat="43.510115" lon="10.9053133"><ele>491.0</ele><time>2026-04-18T09:32:47.533Z</time></trkpt><trkpt lat="43.5098683" lon="10.9054083"><ele>491.0</ele><time>2026-04-18T09:32:48.534Z</time></trkpt><trkpt lat="43.50963" lon="10.90549"><ele>495.0</ele><time>2026-04-18T09:32:49.533Z</time></trkpt><trkpt lat="43.509395" lon="10.9055717"><ele>499.0</ele><time>2026-04-18T09:32:50.534Z</time></trkpt><trkpt lat="43.5091567" lon="10.9056533"><ele>499.0</ele><time>2026-04-18T09:32:51.533Z</time></trkpt><trkpt lat="43.508915" lon="10.9057417"><ele>499.0</ele><time>2026-04-18T09:32:52.533Z</time></trkpt><trkpt lat="43.508675" lon="10.905825"><ele>502.0</ele><time>2026-04-18T09:32:53.533Z</time></trkpt><trkpt lat="43.5084267" lon="10.90591"><ele>505.0</ele><time>2026-04-18T09:32:54.533Z</time></trkpt><trkpt lat="43.5082083" lon="10.9059833"><ele>505.6666666666667</ele><time>2026-04-18T09:32:55.533Z</time></trkpt><trkpt lat="43.5079967" lon="10.9060567"><ele>506.33333333333337</ele><time>2026-04-18T09:32:56.533Z</time></trkpt><trkpt lat="43.5078033" lon="10.9061367"><ele>507.0</ele><time>2026-04-18T09:32:57.533Z</time></trkpt><trkpt lat="43.5076217" lon="10.9062433"><ele>508.0</ele><time>2026-04-18T09:32:58.533Z</time></trkpt><trkpt lat="43.5074483" lon="10.9063767"><ele>509.0</ele><time>2026-04-18T09:32:59.532Z</time></trkpt><trkpt lat="43.5072717" lon="10.906555"><ele>510.0</ele><time>2026-04-18T09:33:00.533Z</time></trkpt><trkpt lat="43.5071033" lon="10.9067467"><ele>513.3333333333334</ele><time>2026-04-18T09:33:01.533Z</time></trkpt><trkpt lat="43.5069283" lon="10.90694"><ele>516.6666666666667</ele><time>2026-04-18T09:33:02.533Z</time></trkpt><trkpt lat="43.5067617" lon="10.9071267"><ele>520.0</ele><time>2026-04-18T09:33:03.533Z</time></trkpt><trkpt lat="43.5066117" lon="10.9073017"><ele>520.0</ele><time>2026-04-18T09:33:04.533Z</time></trkpt><trkpt lat="43.5064683" lon="10.9074733"><ele>520.0</ele><time>2026-04-18T09:33:05.533Z</time></trkpt><trkpt lat="43.506335" lon="10.9076317"><ele>520.0</ele><time>2026-04-18T09:33:06.534Z</time></trkpt><trkpt lat="43.5062133" lon="10.907775"><ele>521.3333333333334</ele><time>2026-04-18T09:33:07.533Z</time></trkpt><trkpt lat="43.5060967" lon="10.907895"><ele>522.6666666666666</ele><time>2026-04-18T09:33:08.533Z</time></trkpt><trkpt lat="43.505965" lon="10.908"><ele>524.0</ele><time>2026-04-18T09:33:09.533Z</time></trkpt><trkpt lat="43.5058217" lon="10.908085"><ele>524.0</ele><time>2026-04-18T09:33:10.533Z</time></trkpt><trkpt lat="43.505665" lon="10.908145"><ele>524.0</ele><time>2026-04-18T09:33:11.533Z</time></trkpt><trkpt lat="43.50549" lon="10.908175"><ele>524.0</ele><time>2026-04-18T09:33:12.534Z</time></trkpt><trkpt lat="43.5053083" lon="10.90818"><ele>525.3333333333333</ele><time>2026-04-18T09:33:13.533Z</time></trkpt><trkpt lat="43.5051317" lon="10.90816"><ele>526.6666666666666</ele><time>2026-04-18T09:33:14.533Z</time></trkpt><trkpt lat="43.5049517" lon="10.908125"><ele>528.0</ele><time>2026-04-18T09:33:15.534Z</time></trkpt><trkpt lat="43.50477" lon="10.9080983"><ele>528.0</ele><time>2026-04-18T09:33:16.533Z</time></trkpt><trkpt lat="43.5045917" lon="10.9080733"><ele>528.0</ele><time>2026-04-18T09:33:17.533Z</time></trkpt><trkpt lat="43.5044183" lon="10.9080383"><ele>528.0</ele><time>2026-04-18T09:33:18.533Z</time></trkpt><trkpt lat="43.50425" lon="10.9080167"><ele>530.0</ele><time>2026-04-18T09:33:19.533Z</time></trkpt><trkpt lat="43.50406" lon="10.9079933"><ele>532.0</ele><time>2026-04-18T09:33:20.533Z</time></trkpt><trkpt lat="43.503865" lon="10.9079667"><ele>534.0</ele><time>2026-04-18T09:33:21.533Z</time></trkpt><trkpt lat="43.5036733" lon="10.907925"><ele>534.6666666666666</ele><time>2026-04-18T09:33:22.533Z</time></trkpt><trkpt lat="43.5034783" lon="10.90789"><ele>535.3333333333333</ele><time>2026-04-18T09:33:23.533Z</time></trkpt><trkpt lat="43.503295" lon="10.9078633"><ele>536.0</ele><time>2026-04-18T09:33:24.533Z</time></trkpt><trkpt lat="43.5031183" lon="10.9078383"><ele>536.0</ele><time>2026-04-18T09:33:25.533Z</time></trkpt><trkpt lat="43.5029483" lon="10.9078067"><ele>536.0</ele><time>2026-04-18T09:33:26.533Z</time></trkpt><trkpt lat="43.502795" lon="10.9077833"><ele>536.0</ele><time>2026-04-18T09:33:27.534Z</time></trkpt><trkpt lat="43.5026467" lon="10.9077583"><ele>535.5</ele><time>2026-04-18T09:33:28.533Z</time></trkpt><trkpt lat="43.5025067" lon="10.9077267"><ele>535.0</ele><time>2026-04-18T09:33:29.533Z</time></trkpt><trkpt lat="43.502375" lon="10.9077017"><ele>534.5</ele><time>2026-04-18T09:33:30.534Z</time></trkpt><trkpt lat="43.5022517" lon="10.9076817"><ele>534.0</ele><time>2026-04-18T09:33:31.533Z</time></trkpt><trkpt lat="43.502135" lon="10.907665"><ele>534.75</ele><time>2026-04-18T09:33:32.533Z</time></trkpt><trkpt lat="43.5020183" lon="10.907655"><ele>535.5</ele><time>2026-04-18T09:33:33.533Z</time></trkpt><trkpt lat="43.5018967" lon="10.9076533"><ele>536.25</ele><time>2026-04-18T09:33:34.533Z</time></trkpt><trkpt lat="43.5017783" lon="10.90768"><ele>537.0</ele><time>2026-04-18T09:33:35.533Z</time></trkpt><trkpt lat="43.5016683" lon="10.907725"><ele>537.0</ele><time>2026-04-18T09:33:36.534Z</time></trkpt><trkpt lat="43.5015567" lon="10.9077983"><ele>537.0</ele><time>2026-04-18T09:33:37.534Z</time></trkpt><trkpt lat="43.5014617" lon="10.90788"><ele>537.0</ele><time>2026-04-18T09:33:38.533Z</time></trkpt><trkpt lat="43.50137" lon="10.9079767"><ele>537.0</ele><time>2026-04-18T09:33:39.533Z</time></trkpt><trkpt lat="43.5012867" lon="10.9080817"><ele>538.0</ele><time>2026-04-18T09:33:40.533Z</time></trkpt><trkpt lat="43.5012133" lon="10.9081833"><ele>539.0</ele><time>2026-04-18T09:33:41.533Z</time></trkpt><trkpt lat="43.5011467" lon="10.908295"><ele>540.0</ele><time>2026-04-18T09:33:42.533Z</time></trkpt><trkpt lat="43.5010967" lon="10.9084"><ele>541.0</ele><time>2026-04-18T09:33:43.533Z</time></trkpt><trkpt lat="43.5010467" lon="10.9085"><ele>542.0</ele><time>2026-04-18T09:33:44.534Z</time></trkpt><trkpt lat="43.5009883" lon="10.9086183"><ele>542.0</ele><time>2026-04-18T09:33:45.533Z</time></trkpt><trkpt lat="43.500935" lon="10.90876"><ele>542.0</ele><time>2026-04-18T09:33:46.533Z</time></trkpt><trkpt lat="43.5008817" lon="10.908925"><ele>542.0</ele><time>2026-04-18T09:33:47.533Z</time></trkpt><trkpt lat="43.5008317" lon="10.9091"><ele>542.0</ele><time>2026-04-18T09:33:48.533Z</time></trkpt><trkpt lat="43.5007783" lon="10.9092783"><ele>542.0</ele><time>2026-04-18T09:33:49.533Z</time></trkpt><trkpt lat="43.5007267" lon="10.9094483"><ele>542.0</ele><time>2026-04-18T09:33:50.533Z</time></trkpt><trkpt lat="43.500675" lon="10.9096283"><ele>542.0</ele><time>2026-04-18T09:33:51.533Z</time></trkpt><trkpt lat="43.5006283" lon="10.9097883"><ele>542.0</ele><time>2026-04-18T09:33:52.533Z</time></trkpt><trkpt lat="43.5005917" lon="10.90994"><ele>543.0</ele><time>2026-04-18T09:33:53.533Z</time></trkpt><trkpt lat="43.5005683" lon="10.9100983"><ele>544.0</ele><time>2026-04-18T09:33:54.533Z</time></trkpt><trkpt lat="43.50055" lon="10.9102717"><ele>545.0</ele><time>2026-04-18T09:33:55.533Z</time></trkpt><trkpt lat="43.5005583" lon="10.9104683"><ele>546.0</ele><time>2026-04-18T09:33:56.533Z</time></trkpt><trkpt lat="43.5006017" lon="10.91067"><ele>546.0</ele><time>2026-04-18T09:33:57.533Z</time></trkpt><trkpt lat="43.5006617" lon="10.9108983"><ele>546.0</ele><time>2026-04-18T09:33:58.533Z</time></trkpt><trkpt lat="43.50071" lon="10.91114"><ele>546.0</ele><time>2026-04-18T09:33:59.533Z</time></trkpt><trkpt lat="43.5007483" lon="10.9113817"><ele>546.0</ele><time>2026-04-18T09:34:00.533Z</time></trkpt><trkpt lat="43.5007783" lon="10.9116067"><ele>546.0</ele><time>2026-04-18T09:34:01.533Z</time></trkpt><trkpt lat="43.500795" lon="10.9118183"><ele>546.0</ele><time>2026-04-18T09:34:02.533Z</time></trkpt><trkpt lat="43.5007817" lon="10.9120167"><ele>544.75</ele><time>2026-04-18T09:34:03.534Z</time></trkpt><trkpt lat="43.5007517" lon="10.9122083"><ele>543.5</ele><time>2026-04-18T09:34:04.533Z</time></trkpt><trkpt lat="43.5006983" lon="10.9124017"><ele>542.25</ele><time>2026-04-18T09:34:05.533Z</time></trkpt><trkpt lat="43.500635" lon="10.91259"><ele>541.0</ele><time>2026-04-18T09:34:06.533Z</time></trkpt><trkpt lat="43.5005717" lon="10.91279"><ele>539.6666666666667</ele><time>2026-04-18T09:34:07.534Z</time></trkpt><trkpt lat="43.5005017" lon="10.91299"><ele>538.3333333333334</ele><time>2026-04-18T09:34:08.533Z</time></trkpt><trkpt lat="43.5004233" lon="10.913195"><ele>537.0</ele><time>2026-04-18T09:34:09.534Z</time></trkpt><trkpt lat="43.5003333" lon="10.9133867"><ele>537.3333333333334</ele><time>2026-04-18T09:34:10.533Z</time></trkpt><trkpt lat="43.50025" lon="10.9135683"><ele>537.6666666666667</ele><time>2026-04-18T09:34:11.533Z</time></trkpt><trkpt lat="43.500155" lon="10.9137283"><ele>538.0</ele><time>2026-04-18T09:34:12.533Z</time></trkpt><trkpt lat="43.5000683" lon="10.913895"><ele>538.0</ele><time>2026-04-18T09:34:13.533Z</time></trkpt><trkpt lat="43.4999967" lon="10.9140533"><ele>538.0</ele><time>2026-04-18T09:34:14.533Z</time></trkpt><trkpt lat="43.4999317" lon="10.9142183"><ele>538.0</ele><time>2026-04-18T09:34:15.533Z</time></trkpt><trkpt lat="43.4998783" lon="10.9143917"><ele>538.0</ele><time>2026-04-18T09:34:16.534Z</time></trkpt><trkpt lat="43.4998583" lon="10.91457"><ele>538.0</ele><time>2026-04-18T09:34:17.533Z</time></trkpt><trkpt lat="43.49986" lon="10.9147533"><ele>538.0</ele><time>2026-04-18T09:34:18.533Z</time></trkpt><trkpt lat="43.4998733" lon="10.9149383"><ele>538.0</ele><time>2026-04-18T09:34:19.533Z</time></trkpt><trkpt lat="43.499895" lon="10.9151283"><ele>538.0</ele><time>2026-04-18T09:34:20.534Z</time></trkpt><trkpt lat="43.49992" lon="10.9153233"><ele>537.6666666666667</ele><time>2026-04-18T09:34:21.533Z</time></trkpt><trkpt lat="43.4999483" lon="10.9155317"><ele>537.3333333333334</ele><time>2026-04-18T09:34:22.533Z</time></trkpt><trkpt lat="43.4999817" lon="10.9157317"><ele>537.0</ele><time>2026-04-18T09:34:23.534Z</time></trkpt><trkpt lat="43.5" lon="10.915935"><ele>536.5</ele><time>2026-04-18T09:34:24.533Z</time></trkpt><trkpt lat="43.50001" lon="10.9161217"><ele>536.0</ele><time>2026-04-18T09:34:25.533Z</time></trkpt><trkpt lat="43.4999967" lon="10.9163"><ele>535.5</ele><time>2026-04-18T09:34:26.533Z</time></trkpt><trkpt lat="43.4999617" lon="10.9164583"><ele>535.0</ele><time>2026-04-18T09:34:27.533Z</time></trkpt><trkpt lat="43.4998933" lon="10.9166083"><ele>536.0</ele><time>2026-04-18T09:34:28.532Z</time></trkpt><trkpt lat="43.4997983" lon="10.9167417"><ele>537.0</ele><time>2026-04-18T09:34:29.532Z</time></trkpt><trkpt lat="43.4996867" lon="10.9168533"><ele>538.0</ele><time>2026-04-18T09:34:30.533Z</time></trkpt><trkpt lat="43.4995783" lon="10.9169383"><ele>539.0</ele><time>2026-04-18T09:34:31.532Z</time></trkpt><trkpt lat="43.4994733" lon="10.9170167"><ele>539.8</ele><time>2026-04-18T09:34:32.532Z</time></trkpt><trkpt lat="43.4993683" lon="10.917095"><ele>540.5999999999999</ele><time>2026-04-18T09:34:33.532Z</time></trkpt><trkpt lat="43.4992717" lon="10.9171667"><ele>541.4</ele><time>2026-04-18T09:34:34.532Z</time></trkpt><trkpt lat="43.4991817" lon="10.917245"><ele>542.1999999999999</ele><time>2026-04-18T09:34:35.533Z</time></trkpt><trkpt lat="43.499085" lon="10.9173167"><ele>543.0</ele><time>2026-04-18T09:34:36.532Z</time></trkpt><trkpt lat="43.4989917" lon="10.9173933"><ele>543.0</ele><time>2026-04-18T09:34:37.532Z</time></trkpt><trkpt lat="43.4988983" lon="10.9174667"><ele>543.0</ele><time>2026-04-18T09:34:38.532Z</time></trkpt><trkpt lat="43.4988083" lon="10.9175333"><ele>543.0</ele><time>2026-04-18T09:34:39.532Z</time></trkpt><trkpt lat="43.4987133" lon="10.9176033"><ele>543.0</ele><time>2026-04-18T09:34:40.533Z</time></trkpt><trkpt lat="43.4986083" lon="10.9176533"><ele>543.0</ele><time>2026-04-18T09:34:41.532Z</time></trkpt><trkpt lat="43.4984967" lon="10.91768"><ele>542.0</ele><time>2026-04-18T09:34:42.532Z</time></trkpt><trkpt lat="43.49839" lon="10.9177"><ele>541.0</ele><time>2026-04-18T09:34:43.532Z</time></trkpt><trkpt lat="43.4982767" lon="10.9177267"><ele>540.0</ele><time>2026-04-18T09:34:44.532Z</time></trkpt><trkpt lat="43.498175" lon="10.9177683"><ele>539.0</ele><time>2026-04-18T09:34:45.532Z</time></trkpt><trkpt lat="43.49808" lon="10.91785"><ele>538.0</ele><time>2026-04-18T09:34:46.532Z</time></trkpt><trkpt lat="43.4980017" lon="10.917985"><ele>538.0</ele><time>2026-04-18T09:34:47.532Z</time></trkpt><trkpt lat="43.4979267" lon="10.9181617"><ele>538.0</ele><time>2026-04-18T09:34:48.532Z</time></trkpt><trkpt lat="43.4978733" lon="10.9183433"><ele>538.0</ele><time>2026-04-18T09:34:49.532Z</time></trkpt><trkpt lat="43.4978167" lon="10.9185183"><ele>538.0</ele><time>2026-04-18T09:34:50.532Z</time></trkpt><trkpt lat="43.4977683" lon="10.91869"><ele>538.0</ele><time>2026-04-18T09:34:51.532Z</time></trkpt><trkpt lat="43.497715" lon="10.9188583"><ele>538.0</ele><time>2026-04-18T09:34:52.532Z</time></trkpt><trkpt lat="43.497665" lon="10.9190183"><ele>538.0</ele><time>2026-04-18T09:34:53.532Z</time></trkpt><trkpt lat="43.497615" lon="10.9191783"><ele>538.0</ele><time>2026-04-18T09:34:54.533Z</time></trkpt><trkpt lat="43.4975667" lon="10.91933"><ele>536.5</ele><time>2026-04-18T09:34:55.532Z</time></trkpt><trkpt lat="43.4975117" lon="10.9194867"><ele>535.0</ele><time>2026-04-18T09:34:56.532Z</time></trkpt><trkpt lat="43.4974667" lon="10.9196417"><ele>533.5</ele><time>2026-04-18T09:34:57.533Z</time></trkpt><trkpt lat="43.497425" lon="10.919805"><ele>532.0</ele><time>2026-04-18T09:34:58.532Z</time></trkpt><trkpt lat="43.4973983" lon="10.919965"><ele>530.75</ele><time>2026-04-18T09:34:59.532Z</time></trkpt><trkpt lat="43.497395" lon="10.92014"><ele>529.5</ele><time>2026-04-18T09:35:00.532Z</time></trkpt><trkpt lat="43.497405" lon="10.9203083"><ele>528.25</ele><time>2026-04-18T09:35:01.532Z</time></trkpt><trkpt lat="43.497415" lon="10.9204583"><ele>527.0</ele><time>2026-04-18T09:35:02.532Z</time></trkpt><trkpt lat="43.4974217" lon="10.9206"><ele>527.0</ele><time>2026-04-18T09:35:03.532Z</time></trkpt><trkpt lat="43.497415" lon="10.920705"><ele>527.0</ele><time>2026-04-18T09:35:04.532Z</time></trkpt><trkpt lat="43.49738" lon="10.9208067"><ele>527.0</ele><time>2026-04-18T09:35:05.533Z</time></trkpt><trkpt lat="43.4973167" lon="10.9208867"><ele>527.0</ele><time>2026-04-18T09:35:06.532Z</time></trkpt><trkpt lat="43.497235" lon="10.920955"><ele>527.0</ele><time>2026-04-18T09:35:07.532Z</time></trkpt><trkpt lat="43.4971217" lon="10.9210167"><ele>524.75</ele><time>2026-04-18T09:35:08.532Z</time></trkpt><trkpt lat="43.4970133" lon="10.9210617"><ele>522.5</ele><time>2026-04-18T09:35:09.532Z</time></trkpt><trkpt lat="43.4968983" lon="10.92111"><ele>520.25</ele><time>2026-04-18T09:35:10.532Z</time></trkpt><trkpt lat="43.4967833" lon="10.9211583"><ele>518.0</ele><time>2026-04-18T09:35:11.533Z</time></trkpt><trkpt lat="43.4966733" lon="10.92122"><ele>518.0</ele><time>2026-04-18T09:35:12.532Z</time></trkpt><trkpt lat="43.4965517" lon="10.9212967"><ele>518.0</ele><time>2026-04-18T09:35:13.532Z</time></trkpt><trkpt lat="43.4964417" lon="10.9213983"><ele>518.0</ele><time>2026-04-18T09:35:14.532Z</time></trkpt><trkpt lat="43.4963467" lon="10.921525"><ele>518.0</ele><time>2026-04-18T09:35:15.532Z</time></trkpt><trkpt lat="43.4962617" lon="10.9216817"><ele>517.6666666666666</ele><time>2026-04-18T09:35:16.532Z</time></trkpt><trkpt lat="43.4961817" lon="10.9218583"><ele>517.3333333333334</ele><time>2026-04-18T09:35:17.532Z</time></trkpt><trkpt lat="43.4961" lon="10.9220333"><ele>517.0</ele><time>2026-04-18T09:35:18.532Z</time></trkpt><trkpt lat="43.4960133" lon="10.9222017"><ele>517.0</ele><time>2026-04-18T09:35:19.532Z</time></trkpt><trkpt lat="43.4959317" lon="10.922385"><ele>517.0</ele><time>2026-04-18T09:35:20.532Z</time></trkpt><trkpt lat="43.49584" lon="10.922565"><ele>517.0</ele><time>2026-04-18T09:35:21.532Z</time></trkpt><trkpt lat="43.4957533" lon="10.9227467"><ele>517.6666666666667</ele><time>2026-04-18T09:35:22.533Z</time></trkpt><trkpt lat="43.495645" lon="10.9229217"><ele>518.3333333333334</ele><time>2026-04-18T09:35:23.532Z</time></trkpt><trkpt lat="43.4955283" lon="10.92308"><ele>519.0</ele><time>2026-04-18T09:35:24.532Z</time></trkpt><trkpt lat="43.4954033" lon="10.9232267"><ele>517.6666666666666</ele><time>2026-04-18T09:35:25.532Z</time></trkpt><trkpt lat="43.4952717" lon="10.9233717"><ele>516.3333333333333</ele><time>2026-04-18T09:35:26.532Z</time></trkpt><trkpt lat="43.495145" lon="10.9235233"><ele>515.0</ele><time>2026-04-18T09:35:27.532Z</time></trkpt><trkpt lat="43.4950233" lon="10.923665"><ele>515.0</ele><time>2026-04-18T09:35:28.533Z</time></trkpt><trkpt lat="43.494915" lon="10.9237833"><ele>515.0</ele><time>2026-04-18T09:35:29.532Z</time></trkpt><trkpt lat="43.49481" lon="10.9239133"><ele>515.0</ele><time>2026-04-18T09:35:30.532Z</time></trkpt><trkpt lat="43.49471" lon="10.9240483"><ele>515.0</ele><time>2026-04-18T09:35:31.532Z</time></trkpt><trkpt lat="43.4946" lon="10.924195"><ele>513.0</ele><time>2026-04-18T09:35:32.533Z</time></trkpt><trkpt lat="43.4944917" lon="10.924325"><ele>511.0</ele><time>2026-04-18T09:35:33.532Z</time></trkpt><trkpt lat="43.4943867" lon="10.9244583"><ele>509.0</ele><time>2026-04-18T09:35:34.532Z</time></trkpt><trkpt lat="43.49429" lon="10.9246017"><ele>507.0</ele><time>2026-04-18T09:35:35.532Z</time></trkpt><trkpt lat="43.4941983" lon="10.9247317"><ele>507.0</ele><time>2026-04-18T09:35:36.532Z</time></trkpt><trkpt lat="43.4941133" lon="10.9248517"><ele>507.0</ele><time>2026-04-18T09:35:37.532Z</time></trkpt><trkpt lat="43.49404" lon="10.9249733"><ele>507.0</ele><time>2026-04-18T09:35:38.532Z</time></trkpt><trkpt lat="43.4939783" lon="10.9251017"><ele>507.0</ele><time>2026-04-18T09:35:39.532Z</time></trkpt><trkpt lat="43.4939333" lon="10.9252433"><ele>506.20000000000005</ele><time>2026-04-18T09:35:40.532Z</time></trkpt><trkpt lat="43.4939133" lon="10.9253983"><ele>505.40000000000003</ele><time>2026-04-18T09:35:41.532Z</time></trkpt><trkpt lat="43.4939067" lon="10.92554"><ele>504.59999999999997</ele><time>2026-04-18T09:35:42.532Z</time></trkpt><trkpt lat="43.4939083" lon="10.92569"><ele>503.79999999999995</ele><time>2026-04-18T09:35:43.533Z</time></trkpt><trkpt lat="43.49391" lon="10.9258433"><ele>503.0</ele><time>2026-04-18T09:35:44.532Z</time></trkpt><trkpt lat="43.4939033" lon="10.9259933"><ele>502.16666666666663</ele><time>2026-04-18T09:35:45.532Z</time></trkpt><trkpt lat="43.4939" lon="10.9261333"><ele>501.3333333333333</ele><time>2026-04-18T09:35:46.532Z</time></trkpt><trkpt lat="43.493895" lon="10.9262583"><ele>500.5</ele><time>2026-04-18T09:35:47.532Z</time></trkpt><trkpt lat="43.493895" lon="10.92636"><ele>499.66666666666663</ele><time>2026-04-18T09:35:48.532Z</time></trkpt><trkpt lat="43.4938933" lon="10.9265017"><ele>498.8333333333333</ele><time>2026-04-18T09:35:50.532Z</time></trkpt><trkpt lat="43.493895" lon="10.926605"><ele>498.0</ele><time>2026-04-18T09:35:52.532Z</time></trkpt><trkpt lat="43.4938617" lon="10.9267183"><ele>498.0</ele><time>2026-04-18T09:35:54.532Z</time></trkpt><trkpt lat="43.4937517" lon="10.9268383"><ele>498.0</ele><time>2026-04-18T09:35:56.532Z</time></trkpt><trkpt lat="43.4936617" lon="10.9269267"><ele>498.0</ele><time>2026-04-18T09:35:57.532Z</time></trkpt><trkpt lat="43.49357" lon="10.92704"><ele>498.0</ele><time>2026-04-18T09:35:58.532Z</time></trkpt><trkpt lat="43.4934783" lon="10.9271767"><ele>498.0</ele><time>2026-04-18T09:35:59.532Z</time></trkpt><trkpt lat="43.4933917" lon="10.9273083"><ele>498.0</ele><time>2026-04-18T09:36:00.532Z</time></trkpt><trkpt lat="43.4932917" lon="10.927455"><ele>498.0</ele><time>2026-04-18T09:36:01.532Z</time></trkpt><trkpt lat="43.4931917" lon="10.9276183"><ele>498.0</ele><time>2026-04-18T09:36:02.532Z</time></trkpt><trkpt lat="43.4930733" lon="10.9277833"><ele>497.0</ele><time>2026-04-18T09:36:03.532Z</time></trkpt><trkpt lat="43.4929633" lon="10.9279433"><ele>496.0</ele><time>2026-04-18T09:36:04.532Z</time></trkpt><trkpt lat="43.492865" lon="10.92809"><ele>495.0</ele><time>2026-04-18T09:36:05.533Z</time></trkpt><trkpt lat="43.4927717" lon="10.9282283"><ele>494.0</ele><time>2026-04-18T09:36:06.532Z</time></trkpt><trkpt lat="43.49268" lon="10.92837"><ele>491.5</ele><time>2026-04-18T09:36:07.532Z</time></trkpt><trkpt lat="43.49258" lon="10.9285017"><ele>489.0</ele><time>2026-04-18T09:36:08.532Z</time></trkpt><trkpt lat="43.4924767" lon="10.9286133"><ele>486.5</ele><time>2026-04-18T09:36:09.532Z</time></trkpt><trkpt lat="43.49237" lon="10.928705"><ele>484.0</ele><time>2026-04-18T09:36:10.532Z</time></trkpt><trkpt lat="43.4922567" lon="10.92876"><ele>484.0</ele><time>2026-04-18T09:36:11.532Z</time></trkpt><trkpt lat="43.4921267" lon="10.9288033"><ele>484.0</ele><time>2026-04-18T09:36:12.532Z</time></trkpt><trkpt lat="43.491995" lon="10.9288033"><ele>484.0</ele><time>2026-04-18T09:36:13.533Z</time></trkpt><trkpt lat="43.4918567" lon="10.9287567"><ele>484.0</ele><time>2026-04-18T09:36:14.532Z</time></trkpt><trkpt lat="43.49172" lon="10.9286783"><ele>484.5</ele><time>2026-04-18T09:36:15.532Z</time></trkpt><trkpt lat="43.4915883" lon="10.9285833"><ele>485.0</ele><time>2026-04-18T09:36:16.532Z</time></trkpt><trkpt lat="43.4914633" lon="10.9285183"><ele>485.5</ele><time>2026-04-18T09:36:17.532Z</time></trkpt><trkpt lat="43.4913333" lon="10.9285067"><ele>486.0</ele><time>2026-04-18T09:36:18.532Z</time></trkpt><trkpt lat="43.491215" lon="10.9285483"><ele>483.25</ele><time>2026-04-18T09:36:19.532Z</time></trkpt><trkpt lat="43.4911067" lon="10.92865"><ele>480.5</ele><time>2026-04-18T09:36:20.532Z</time></trkpt><trkpt lat="43.4910083" lon="10.9287833"><ele>477.75</ele><time>2026-04-18T09:36:21.532Z</time></trkpt><trkpt lat="43.4909283" lon="10.928955"><ele>475.0</ele><time>2026-04-18T09:36:22.532Z</time></trkpt><trkpt lat="43.490845" lon="10.9291433"><ele>476.6666666666667</ele><time>2026-04-18T09:36:23.532Z</time></trkpt><trkpt lat="43.490745" lon="10.9293567"><ele>478.33333333333337</ele><time>2026-04-18T09:36:24.532Z</time></trkpt><trkpt lat="43.4906533" lon="10.9295717"><ele>480.0</ele><time>2026-04-18T09:36:25.532Z</time></trkpt><trkpt lat="43.490555" lon="10.929815"><ele>480.0</ele><time>2026-04-18T09:36:26.532Z</time></trkpt><trkpt lat="43.4904617" lon="10.9300567"><ele>480.0</ele><time>2026-04-18T09:36:27.532Z</time></trkpt><trkpt lat="43.490365" lon="10.9302833"><ele>480.0</ele><time>2026-04-18T09:36:28.532Z</time></trkpt><trkpt lat="43.4902833" lon="10.9304933"><ele>474.0</ele><time>2026-04-18T09:36:29.533Z</time></trkpt><trkpt lat="43.490195" lon="10.9307267"><ele>468.0</ele><time>2026-04-18T09:36:30.532Z</time></trkpt><trkpt lat="43.4901333" lon="10.9309483"><ele>462.0</ele><time>2026-04-18T09:36:31.532Z</time></trkpt><trkpt lat="43.49009" lon="10.9311767"><ele>461.66666666666663</ele><time>2026-04-18T09:36:32.532Z</time></trkpt><trkpt lat="43.4900583" lon="10.9314"><ele>461.3333333333333</ele><time>2026-04-18T09:36:33.532Z</time></trkpt><trkpt lat="43.490055" lon="10.9316333"><ele>461.0</ele><time>2026-04-18T09:36:34.532Z</time></trkpt><trkpt lat="43.4900683" lon="10.9318517"><ele>460.4</ele><time>2026-04-18T09:36:35.533Z</time></trkpt><trkpt lat="43.4900783" lon="10.932045"><ele>459.8</ele><time>2026-04-18T09:36:36.532Z</time></trkpt><trkpt lat="43.490095" lon="10.9322067"><ele>459.19999999999993</ele><time>2026-04-18T09:36:37.532Z</time></trkpt><trkpt lat="43.4900867" lon="10.93233"><ele>458.59999999999997</ele><time>2026-04-18T09:36:38.532Z</time></trkpt><trkpt lat="43.4900517" lon="10.93244"><ele>458.0</ele><time>2026-04-18T09:36:39.532Z</time></trkpt><trkpt lat="43.49" lon="10.9324983"><ele>458.0</ele><time>2026-04-18T09:36:40.532Z</time></trkpt><trkpt lat="43.4899333" lon="10.932515"><ele>457.99999999999994</ele><time>2026-04-18T09:36:41.533Z</time></trkpt><trkpt lat="43.4898567" lon="10.9324883"><ele>457.99999999999994</ele><time>2026-04-18T09:36:42.532Z</time></trkpt><trkpt lat="43.4897933" lon="10.932395"><ele>458.0</ele><time>2026-04-18T09:36:43.532Z</time></trkpt><trkpt lat="43.48976" lon="10.9322483"><ele>458.0</ele><time>2026-04-18T09:36:44.532Z</time></trkpt><trkpt lat="43.4897417" lon="10.9320583"><ele>458.0</ele><time>2026-04-18T09:36:45.532Z</time></trkpt><trkpt lat="43.4897367" lon="10.9318433"><ele>458.0</ele><time>2026-04-18T09:36:46.533Z</time></trkpt><trkpt lat="43.48972" lon="10.9316433"><ele>458.0</ele><time>2026-04-18T09:36:47.532Z</time></trkpt><trkpt lat="43.489705" lon="10.9314317"><ele>459.0</ele><time>2026-04-18T09:36:48.532Z</time></trkpt><trkpt lat="43.489685" lon="10.9312033"><ele>460.0</ele><time>2026-04-18T09:36:49.532Z</time></trkpt><trkpt lat="43.4896683" lon="10.9309667"><ele>461.0</ele><time>2026-04-18T09:36:50.533Z</time></trkpt><trkpt lat="43.4896433" lon="10.9307283"><ele>461.3333333333333</ele><time>2026-04-18T09:36:51.532Z</time></trkpt><trkpt lat="43.489625" lon="10.9304367"><ele>461.66666666666663</ele><time>2026-04-18T09:36:52.532Z</time></trkpt><trkpt lat="43.4895833" lon="10.9302333"><ele>462.0</ele><time>2026-04-18T09:36:53.532Z</time></trkpt><trkpt lat="43.4895317" lon="10.9300283"><ele>453.66666666666663</ele><time>2026-04-18T09:36:54.532Z</time></trkpt><trkpt lat="43.48947" lon="10.9298283"><ele>445.3333333333333</ele><time>2026-04-18T09:36:55.532Z</time></trkpt><trkpt lat="43.4894083" lon="10.9296183"><ele>437.0</ele><time>2026-04-18T09:36:56.533Z</time></trkpt><trkpt lat="43.4893483" lon="10.92941"><ele>436.66666666666663</ele><time>2026-04-18T09:36:57.532Z</time></trkpt><trkpt lat="43.4892917" lon="10.9292167"><ele>436.33333333333337</ele><time>2026-04-18T09:36:58.532Z</time></trkpt><trkpt lat="43.489255" lon="10.9290167"><ele>436.0</ele><time>2026-04-18T09:36:59.532Z</time></trkpt><trkpt lat="43.4892517" lon="10.9287983"><ele>436.0</ele><time>2026-04-18T09:37:00.532Z</time></trkpt><trkpt lat="43.489265" lon="10.9285733"><ele>436.0</ele><time>2026-04-18T09:37:01.532Z</time></trkpt><trkpt lat="43.4892817" lon="10.92833"><ele>436.0</ele><time>2026-04-18T09:37:02.533Z</time></trkpt><trkpt lat="43.4893017" lon="10.9280833"><ele>435.33333333333337</ele><time>2026-04-18T09:37:03.532Z</time></trkpt><trkpt lat="43.4893117" lon="10.9278367"><ele>434.66666666666663</ele><time>2026-04-18T09:37:04.532Z</time></trkpt><trkpt lat="43.4893217" lon="10.9276"><ele>434.0</ele><time>2026-04-18T09:37:05.532Z</time></trkpt><trkpt lat="43.48934" lon="10.9273767"><ele>433.3333333333333</ele><time>2026-04-18T09:37:06.533Z</time></trkpt><trkpt lat="43.4893583" lon="10.9271567"><ele>432.66666666666663</ele><time>2026-04-18T09:37:07.532Z</time></trkpt><trkpt lat="43.4893783" lon="10.9269483"><ele>432.0</ele><time>2026-04-18T09:37:08.532Z</time></trkpt><trkpt lat="43.4893967" lon="10.926745"><ele>430.25</ele><time>2026-04-18T09:37:09.532Z</time></trkpt><trkpt lat="43.4894283" lon="10.9265417"><ele>428.5</ele><time>2026-04-18T09:37:10.532Z</time></trkpt><trkpt lat="43.4894633" lon="10.926345"><ele>426.75</ele><time>2026-04-18T09:37:11.532Z</time></trkpt><trkpt lat="43.4894917" lon="10.9261567"><ele>425.0</ele><time>2026-04-18T09:37:12.532Z</time></trkpt><trkpt lat="43.489515" lon="10.9259783"><ele>426.5</ele><time>2026-04-18T09:37:13.532Z</time></trkpt><trkpt lat="43.4895383" lon="10.9258067"><ele>428.0</ele><time>2026-04-18T09:37:14.532Z</time></trkpt><trkpt lat="43.4895683" lon="10.925635"><ele>429.5</ele><time>2026-04-18T09:37:15.532Z</time></trkpt><trkpt lat="43.4895967" lon="10.9254717"><ele>431.0</ele><time>2026-04-18T09:37:16.532Z</time></trkpt><trkpt lat="43.489615" lon="10.925305"><ele>430.99999999999994</ele><time>2026-04-18T09:37:17.532Z</time></trkpt><trkpt lat="43.4896283" lon="10.9251767"><ele>431.0</ele><time>2026-04-18T09:37:18.532Z</time></trkpt><trkpt lat="43.4896317" lon="10.9250833"><ele>431.0</ele><time>2026-04-18T09:37:19.532Z</time></trkpt><trkpt lat="43.4895983" lon="10.9249583"><ele>431.0</ele><time>2026-04-18T09:37:21.532Z</time></trkpt><trkpt lat="43.4895433" lon="10.9249033"><ele>430.99999999999994</ele><time>2026-04-18T09:37:23.532Z</time></trkpt><trkpt lat="43.48946" lon="10.9248883"><ele>431.0</ele><time>2026-04-18T09:37:25.533Z</time></trkpt><trkpt lat="43.489365" lon="10.9249317"><ele>428.20000000000005</ele><time>2026-04-18T09:37:27.532Z</time></trkpt><trkpt lat="43.4893067" lon="10.92498"><ele>425.40000000000003</ele><time>2026-04-18T09:37:28.532Z</time></trkpt><trkpt lat="43.4892183" lon="10.92508"><ele>422.6</ele><time>2026-04-18T09:37:30.532Z</time></trkpt><trkpt lat="43.489165" lon="10.9252033"><ele>419.8</ele><time>2026-04-18T09:37:32.532Z</time></trkpt><trkpt lat="43.489135" lon="10.9253367"><ele>417.0</ele><time>2026-04-18T09:37:34.532Z</time></trkpt><trkpt lat="43.4891217" lon="10.925425"><ele>417.0</ele><time>2026-04-18T09:37:35.532Z</time></trkpt><trkpt lat="43.48911" lon="10.9255967"><ele>417.0</ele><time>2026-04-18T09:37:37.532Z</time></trkpt><trkpt lat="43.489105" lon="10.92569"><ele>417.0</ele><time>2026-04-18T09:37:38.533Z</time></trkpt><trkpt lat="43.4891" lon="10.92579"><ele>417.0</ele><time>2026-04-18T09:37:39.532Z</time></trkpt><trkpt lat="43.489085" lon="10.9258833"><ele>417.0</ele><time>2026-04-18T09:37:40.532Z</time></trkpt><trkpt lat="43.4890567" lon="10.92598"><ele>417.0</ele><time>2026-04-18T09:37:41.532Z</time></trkpt><trkpt lat="43.4890167" lon="10.926075"><ele>418.3333333333333</ele><time>2026-04-18T09:37:42.533Z</time></trkpt><trkpt lat="43.4889583" lon="10.9261517"><ele>419.66666666666663</ele><time>2026-04-18T09:37:43.532Z</time></trkpt><trkpt lat="43.488895" lon="10.9262183"><ele>421.0</ele><time>2026-04-18T09:37:44.532Z</time></trkpt><trkpt lat="43.4888217" lon="10.9262783"><ele>422.3333333333333</ele><time>2026-04-18T09:37:45.533Z</time></trkpt><trkpt lat="43.4887383" lon="10.9263367"><ele>423.66666666666663</ele><time>2026-04-18T09:37:46.532Z</time></trkpt><trkpt lat="43.4886483" lon="10.9263883"><ele>425.0</ele><time>2026-04-18T09:37:47.532Z</time></trkpt><trkpt lat="43.4885617" lon="10.9264383"><ele>421.4</ele><time>2026-04-18T09:37:48.532Z</time></trkpt><trkpt lat="43.488475" lon="10.9264783"><ele>417.8</ele><time>2026-04-18T09:37:49.532Z</time></trkpt><trkpt lat="43.4883983" lon="10.92651"><ele>414.20000000000005</ele><time>2026-04-18T09:37:50.532Z</time></trkpt><trkpt lat="43.4883267" lon="10.9265383"><ele>410.6</ele><time>2026-04-18T09:37:51.532Z</time></trkpt><trkpt lat="43.4882117" lon="10.926585"><ele>407.0</ele><time>2026-04-18T09:37:53.532Z</time></trkpt><trkpt lat="43.488105" lon="10.9266817"><ele>408.16666666666663</ele><time>2026-04-18T09:37:55.532Z</time></trkpt><trkpt lat="43.4880483" lon="10.9267467"><ele>409.3333333333333</ele><time>2026-04-18T09:37:56.531Z</time></trkpt><trkpt lat="43.4879917" lon="10.9268317"><ele>410.5</ele><time>2026-04-18T09:37:57.532Z</time></trkpt><trkpt lat="43.4879367" lon="10.9269317"><ele>411.66666666666663</ele><time>2026-04-18T09:37:58.531Z</time></trkpt><trkpt lat="43.4878917" lon="10.9270167"><ele>412.8333333333333</ele><time>2026-04-18T09:37:59.531Z</time></trkpt><trkpt lat="43.487815" lon="10.9271217"><ele>414.0</ele><time>2026-04-18T09:38:01.531Z</time></trkpt><trkpt lat="43.4877167" lon="10.9271567"><ele>411.42857142857144</ele><time>2026-04-18T09:38:03.531Z</time></trkpt><trkpt lat="43.4876517" lon="10.9271267"><ele>408.8571428571429</ele><time>2026-04-18T09:38:04.532Z</time></trkpt><trkpt lat="43.4875967" lon="10.9270717"><ele>406.28571428571433</ele><time>2026-04-18T09:38:05.531Z</time></trkpt><trkpt lat="43.4875583" lon="10.9269917"><ele>403.7142857142857</ele><time>2026-04-18T09:38:06.531Z</time></trkpt><trkpt lat="43.4875483" lon="10.9269"><ele>401.1428571428571</ele><time>2026-04-18T09:38:07.531Z</time></trkpt><trkpt lat="43.487555" lon="10.9268083"><ele>398.5714285714286</ele><time>2026-04-18T09:38:08.531Z</time></trkpt><trkpt lat="43.4875583" lon="10.9267117"><ele>396.0</ele><time>2026-04-18T09:38:09.531Z</time></trkpt><trkpt lat="43.487555" lon="10.9266217"><ele>395.20000000000005</ele><time>2026-04-18T09:38:10.532Z</time></trkpt><trkpt lat="43.48749" lon="10.9264767"><ele>394.40000000000003</ele><time>2026-04-18T09:38:12.531Z</time></trkpt><trkpt lat="43.4874367" lon="10.926425"><ele>393.6</ele><time>2026-04-18T09:38:13.531Z</time></trkpt><trkpt lat="43.4873117" lon="10.9263683"><ele>392.8</ele><time>2026-04-18T09:38:15.531Z</time></trkpt><trkpt lat="43.48723" lon="10.9263533"><ele>392.0</ele><time>2026-04-18T09:38:16.531Z</time></trkpt><trkpt lat="43.487125" lon="10.92634"><ele>388.5</ele><time>2026-04-18T09:38:17.531Z</time></trkpt><trkpt lat="43.4870017" lon="10.926325"><ele>385.0</ele><time>2026-04-18T09:38:18.531Z</time></trkpt><trkpt lat="43.486875" lon="10.9263033"><ele>381.5</ele><time>2026-04-18T09:38:19.531Z</time></trkpt><trkpt lat="43.4867417" lon="10.926275"><ele>378.0</ele><time>2026-04-18T09:38:20.531Z</time></trkpt><trkpt lat="43.486605" lon="10.9262567"><ele>378.0</ele><time>2026-04-18T09:38:21.531Z</time></trkpt><trkpt lat="43.48647" lon="10.9262417"><ele>378.0</ele><time>2026-04-18T09:38:22.531Z</time></trkpt><trkpt lat="43.486335" lon="10.926235"><ele>378.0</ele><time>2026-04-18T09:38:23.531Z</time></trkpt><trkpt lat="43.4861967" lon="10.9262267"><ele>378.0</ele><time>2026-04-18T09:38:24.532Z</time></trkpt><trkpt lat="43.4860583" lon="10.9262383"><ele>377.5</ele><time>2026-04-18T09:38:25.531Z</time></trkpt><trkpt lat="43.4859183" lon="10.9262467"><ele>377.0</ele><time>2026-04-18T09:38:26.531Z</time></trkpt><trkpt lat="43.4857867" lon="10.9262567"><ele>376.5</ele><time>2026-04-18T09:38:27.531Z</time></trkpt><trkpt lat="43.4856667" lon="10.9262633"><ele>376.0</ele><time>2026-04-18T09:38:28.531Z</time></trkpt><trkpt lat="43.4855433" lon="10.926265"><ele>376.0</ele><time>2026-04-18T09:38:29.531Z</time></trkpt><trkpt lat="43.4854333" lon="10.9262733"><ele>376.0</ele><time>2026-04-18T09:38:30.531Z</time></trkpt><trkpt lat="43.4853333" lon="10.9262717"><ele>376.0</ele><time>2026-04-18T09:38:31.531Z</time></trkpt><trkpt lat="43.4852383" lon="10.9262583"><ele>376.0</ele><time>2026-04-18T09:38:32.531Z</time></trkpt><trkpt lat="43.4851517" lon="10.926225"><ele>376.0</ele><time>2026-04-18T09:38:33.531Z</time></trkpt><trkpt lat="43.4850733" lon="10.9261733"><ele>374.4</ele><time>2026-04-18T09:38:34.532Z</time></trkpt><trkpt lat="43.4849917" lon="10.926105"><ele>372.8</ele><time>2026-04-18T09:38:35.532Z</time></trkpt><trkpt lat="43.4849" lon="10.926015"><ele>371.2</ele><time>2026-04-18T09:38:36.531Z</time></trkpt><trkpt lat="43.48482" lon="10.925905"><ele>369.59999999999997</ele><time>2026-04-18T09:38:37.531Z</time></trkpt><trkpt lat="43.484745" lon="10.9258033"><ele>368.0</ele><time>2026-04-18T09:38:38.531Z</time></trkpt><trkpt lat="43.48467" lon="10.92571"><ele>368.0</ele><time>2026-04-18T09:38:39.531Z</time></trkpt><trkpt lat="43.484605" lon="10.9256283"><ele>368.0</ele><time>2026-04-18T09:38:40.531Z</time></trkpt><trkpt lat="43.484535" lon="10.9255667"><ele>368.0</ele><time>2026-04-18T09:38:41.532Z</time></trkpt><trkpt lat="43.4844667" lon="10.925525"><ele>368.0</ele><time>2026-04-18T09:38:42.531Z</time></trkpt><trkpt lat="43.4843967" lon="10.9254983"><ele>368.0</ele><time>2026-04-18T09:38:43.531Z</time></trkpt><trkpt lat="43.48432" lon="10.92549"><ele>368.0</ele><time>2026-04-18T09:38:44.531Z</time></trkpt><trkpt lat="43.48424" lon="10.925495"><ele>367.0</ele><time>2026-04-18T09:38:45.531Z</time></trkpt><trkpt lat="43.4841517" lon="10.9255133"><ele>366.0</ele><time>2026-04-18T09:38:46.531Z</time></trkpt><trkpt lat="43.4840583" lon="10.92554"><ele>365.0</ele><time>2026-04-18T09:38:47.531Z</time></trkpt><trkpt lat="43.4839683" lon="10.9255833"><ele>364.0</ele><time>2026-04-18T09:38:48.531Z</time></trkpt><trkpt lat="43.4838717" lon="10.9256567"><ele>363.0</ele><time>2026-04-18T09:38:49.531Z</time></trkpt><trkpt lat="43.4837783" lon="10.9257567"><ele>360.75</ele><time>2026-04-18T09:38:50.531Z</time></trkpt><trkpt lat="43.48368" lon="10.9258783"><ele>358.5</ele><time>2026-04-18T09:38:51.531Z</time></trkpt><trkpt lat="43.483595" lon="10.9259833"><ele>356.25</ele><time>2026-04-18T09:38:52.531Z</time></trkpt><trkpt lat="43.4835167" lon="10.92608"><ele>354.0</ele><time>2026-04-18T09:38:53.531Z</time></trkpt><trkpt lat="43.4834367" lon="10.92617"><ele>353.75</ele><time>2026-04-18T09:38:54.531Z</time></trkpt><trkpt lat="43.4833483" lon="10.926235"><ele>353.5</ele><time>2026-04-18T09:38:55.531Z</time></trkpt><trkpt lat="43.483245" lon="10.9263067"><ele>353.25</ele><time>2026-04-18T09:38:56.531Z</time></trkpt><trkpt lat="43.483115" lon="10.9263667"><ele>353.0</ele><time>2026-04-18T09:38:57.531Z</time></trkpt><trkpt lat="43.48299" lon="10.9264217"><ele>352.75</ele><time>2026-04-18T09:38:58.531Z</time></trkpt><trkpt lat="43.4828583" lon="10.92647"><ele>352.5</ele><time>2026-04-18T09:38:59.532Z</time></trkpt><trkpt lat="43.4827417" lon="10.9265167"><ele>352.25</ele><time>2026-04-18T09:39:00.532Z</time></trkpt><trkpt lat="43.4826367" lon="10.9265533"><ele>352.0</ele><time>2026-04-18T09:39:01.531Z</time></trkpt><trkpt lat="43.4825433" lon="10.9265883"><ele>352.0</ele><time>2026-04-18T09:39:02.532Z</time></trkpt><trkpt lat="43.4824517" lon="10.92664"><ele>352.0</ele><time>2026-04-18T09:39:03.531Z</time></trkpt><trkpt lat="43.4823533" lon="10.92671"><ele>352.0</ele><time>2026-04-18T09:39:04.531Z</time></trkpt><trkpt lat="43.4822567" lon="10.9268"><ele>352.0</ele><time>2026-04-18T09:39:05.531Z</time></trkpt><trkpt lat="43.482165" lon="10.92692"><ele>350.75</ele><time>2026-04-18T09:39:06.531Z</time></trkpt><trkpt lat="43.4820833" lon="10.9270517"><ele>349.5</ele><time>2026-04-18T09:39:07.531Z</time></trkpt><trkpt lat="43.4819967" lon="10.9271617"><ele>348.25</ele><time>2026-04-18T09:39:08.531Z</time></trkpt><trkpt lat="43.4819083" lon="10.92725"><ele>347.0</ele><time>2026-04-18T09:39:09.531Z</time></trkpt><trkpt lat="43.4818217" lon="10.9273167"><ele>347.0</ele><time>2026-04-18T09:39:10.532Z</time></trkpt><trkpt lat="43.4817333" lon="10.9273583"><ele>347.0</ele><time>2026-04-18T09:39:11.531Z</time></trkpt><trkpt lat="43.4816383" lon="10.9273783"><ele>347.0</ele><time>2026-04-18T09:39:12.531Z</time></trkpt><trkpt lat="43.4815317" lon="10.9273817"><ele>347.0</ele><time>2026-04-18T09:39:13.531Z</time></trkpt><trkpt lat="43.4814117" lon="10.9273633"><ele>347.0</ele><time>2026-04-18T09:39:14.531Z</time></trkpt><trkpt lat="43.4812783" lon="10.927335"><ele>346.0</ele><time>2026-04-18T09:39:15.531Z</time></trkpt><trkpt lat="43.4811233" lon="10.9273"><ele>345.0</ele><time>2026-04-18T09:39:16.531Z</time></trkpt><trkpt lat="43.4809667" lon="10.9272683"><ele>344.0</ele><time>2026-04-18T09:39:17.531Z</time></trkpt><trkpt lat="43.4808083" lon="10.92724"><ele>344.0</ele><time>2026-04-18T09:39:18.531Z</time></trkpt><trkpt lat="43.48066" lon="10.9272183"><ele>344.0</ele><time>2026-04-18T09:39:19.531Z</time></trkpt><trkpt lat="43.4805217" lon="10.9272017"><ele>344.0</ele><time>2026-04-18T09:39:20.532Z</time></trkpt><trkpt lat="43.4803917" lon="10.92719"><ele>344.0</ele><time>2026-04-18T09:39:21.531Z</time></trkpt><trkpt lat="43.4802667" lon="10.92717"><ele>343.5</ele><time>2026-04-18T09:39:22.531Z</time></trkpt><trkpt lat="43.480135" lon="10.92716"><ele>343.0</ele><time>2026-04-18T09:39:23.531Z</time></trkpt><trkpt lat="43.47999" lon="10.9271583"><ele>342.5</ele><time>2026-04-18T09:39:24.531Z</time></trkpt><trkpt lat="43.4798383" lon="10.9271617"><ele>342.0</ele><time>2026-04-18T09:39:25.531Z</time></trkpt><trkpt lat="43.4796917" lon="10.92716"><ele>341.25</ele><time>2026-04-18T09:39:26.531Z</time></trkpt><trkpt lat="43.47955" lon="10.9271617"><ele>340.5</ele><time>2026-04-18T09:39:27.531Z</time></trkpt><trkpt lat="43.479425" lon="10.9271633"><ele>339.75</ele><time>2026-04-18T09:39:28.531Z</time></trkpt><trkpt lat="43.4793067" lon="10.9271667"><ele>339.0</ele><time>2026-04-18T09:39:29.532Z</time></trkpt><trkpt lat="43.479195" lon="10.9271733"><ele>339.0</ele><time>2026-04-18T09:39:30.531Z</time></trkpt><trkpt lat="43.4790883" lon="10.9271817"><ele>339.0</ele><time>2026-04-18T09:39:31.532Z</time></trkpt><trkpt lat="43.4789867" lon="10.9271867"><ele>339.0</ele><time>2026-04-18T09:39:32.531Z</time></trkpt><trkpt lat="43.4788917" lon="10.92718"><ele>339.0</ele><time>2026-04-18T09:39:33.531Z</time></trkpt><trkpt lat="43.4787867" lon="10.927155"><ele>339.0</ele><time>2026-04-18T09:39:34.531Z</time></trkpt><trkpt lat="43.4786617" lon="10.9271133"><ele>337.5</ele><time>2026-04-18T09:39:35.531Z</time></trkpt><trkpt lat="43.478535" lon="10.9270617"><ele>336.0</ele><time>2026-04-18T09:39:36.531Z</time></trkpt><trkpt lat="43.4784083" lon="10.92701"><ele>334.5</ele><time>2026-04-18T09:39:37.531Z</time></trkpt><trkpt lat="43.4782867" lon="10.926955"><ele>333.0</ele><time>2026-04-18T09:39:38.531Z</time></trkpt><trkpt lat="43.4781667" lon="10.9269"><ele>333.0</ele><time>2026-04-18T09:39:39.531Z</time></trkpt><trkpt lat="43.4780367" lon="10.926845"><ele>333.0</ele><time>2026-04-18T09:39:40.531Z</time></trkpt><trkpt lat="43.4779083" lon="10.926795"><ele>333.0</ele><time>2026-04-18T09:39:41.531Z</time></trkpt><trkpt lat="43.4777833" lon="10.9267317"><ele>333.0</ele><time>2026-04-18T09:39:42.531Z</time></trkpt><trkpt lat="43.4776633" lon="10.9266767"><ele>334.0</ele><time>2026-04-18T09:39:43.531Z</time></trkpt><trkpt lat="43.4775433" lon="10.926615"><ele>335.0</ele><time>2026-04-18T09:39:44.531Z</time></trkpt><trkpt lat="43.4774183" lon="10.9265433"><ele>336.0</ele><time>2026-04-18T09:39:45.531Z</time></trkpt><trkpt lat="43.4772917" lon="10.9264717"><ele>337.0</ele><time>2026-04-18T09:39:46.531Z</time></trkpt><trkpt lat="43.47716" lon="10.926385"><ele>334.0</ele><time>2026-04-18T09:39:47.531Z</time></trkpt><trkpt lat="43.477035" lon="10.9263083"><ele>331.0</ele><time>2026-04-18T09:39:48.532Z</time></trkpt><trkpt lat="43.47692" lon="10.9262283"><ele>328.0</ele><time>2026-04-18T09:39:49.531Z</time></trkpt><trkpt lat="43.4768017" lon="10.926155"><ele>325.0</ele><time>2026-04-18T09:39:50.531Z</time></trkpt><trkpt lat="43.4767017" lon="10.9260867"><ele>325.0</ele><time>2026-04-18T09:39:51.531Z</time></trkpt><trkpt lat="43.47661" lon="10.926025"><ele>325.0</ele><time>2026-04-18T09:39:52.531Z</time></trkpt><trkpt lat="43.4765183" lon="10.9259633"><ele>325.0</ele><time>2026-04-18T09:39:53.531Z</time></trkpt><trkpt lat="43.4764333" lon="10.92591"><ele>325.0</ele><time>2026-04-18T09:39:54.531Z</time></trkpt><trkpt lat="43.4763517" lon="10.9258517"><ele>325.0</ele><time>2026-04-18T09:39:55.532Z</time></trkpt><trkpt lat="43.4762783" lon="10.9257967"><ele>325.0</ele><time>2026-04-18T09:39:56.532Z</time></trkpt><trkpt lat="43.4762017" lon="10.925745"><ele>325.0</ele><time>2026-04-18T09:39:57.531Z</time></trkpt><trkpt lat="43.47611" lon="10.92572"><ele>325.0</ele><time>2026-04-18T09:39:58.531Z</time></trkpt><trkpt lat="43.4760017" lon="10.9257117"><ele>325.0</ele><time>2026-04-18T09:39:59.532Z</time></trkpt><trkpt lat="43.47588" lon="10.9257217"><ele>325.0</ele><time>2026-04-18T09:40:00.531Z</time></trkpt><trkpt lat="43.475755" lon="10.9257483"><ele>325.0</ele><time>2026-04-18T09:40:01.531Z</time></trkpt><trkpt lat="43.475625" lon="10.925785"><ele>325.0</ele><time>2026-04-18T09:40:02.531Z</time></trkpt><trkpt lat="43.4754933" lon="10.92582"><ele>325.0</ele><time>2026-04-18T09:40:03.531Z</time></trkpt><trkpt lat="43.4753717" lon="10.9258533"><ele>325.0</ele><time>2026-04-18T09:40:04.531Z</time></trkpt><trkpt lat="43.4752617" lon="10.9258833"><ele>320.0</ele><time>2026-04-18T09:40:05.531Z</time></trkpt><trkpt lat="43.47515" lon="10.925915"><ele>315.0</ele><time>2026-04-18T09:40:06.531Z</time></trkpt><trkpt lat="43.475045" lon="10.9259433"><ele>310.0</ele><time>2026-04-18T09:40:07.531Z</time></trkpt><trkpt lat="43.4749433" lon="10.92596"><ele>305.0</ele><time>2026-04-18T09:40:08.531Z</time></trkpt><trkpt lat="43.4748417" lon="10.9259767"><ele>300.0</ele><time>2026-04-18T09:40:09.531Z</time></trkpt><trkpt lat="43.4747433" lon="10.926"><ele>300.0</ele><time>2026-04-18T09:40:10.531Z</time></trkpt><trkpt lat="43.4746433" lon="10.92602"><ele>300.0</ele><time>2026-04-18T09:40:11.531Z</time></trkpt><trkpt lat="43.474555" lon="10.9260233"><ele>300.0</ele><time>2026-04-18T09:40:12.531Z</time></trkpt><trkpt lat="43.47448" lon="10.9260183"><ele>300.0</ele><time>2026-04-18T09:40:13.531Z</time></trkpt><trkpt lat="43.474415" lon="10.926005"><ele>300.0</ele><time>2026-04-18T09:40:14.531Z</time></trkpt><trkpt lat="43.4743183" lon="10.9259683"><ele>300.0</ele><time>2026-04-18T09:40:16.531Z</time></trkpt><trkpt lat="43.4742517" lon="10.9259317"><ele>301.4</ele><time>2026-04-18T09:40:18.532Z</time></trkpt><trkpt lat="43.4741567" lon="10.9258317"><ele>302.8</ele><time>2026-04-18T09:40:20.531Z</time></trkpt><trkpt lat="43.4740817" lon="10.9257467"><ele>304.2</ele><time>2026-04-18T09:40:21.531Z</time></trkpt><trkpt lat="43.4739983" lon="10.9256483"><ele>305.6</ele><time>2026-04-18T09:40:22.531Z</time></trkpt><trkpt lat="43.4739167" lon="10.925545"><ele>307.0</ele><time>2026-04-18T09:40:23.531Z</time></trkpt><trkpt lat="43.4738417" lon="10.9254417"><ele>305.4</ele><time>2026-04-18T09:40:24.532Z</time></trkpt><trkpt lat="43.4737667" lon="10.9253417"><ele>303.79999999999995</ele><time>2026-04-18T09:40:25.531Z</time></trkpt><trkpt lat="43.4736967" lon="10.925225"><ele>302.2</ele><time>2026-04-18T09:40:26.531Z</time></trkpt><trkpt lat="43.4736317" lon="10.925095"><ele>300.59999999999997</ele><time>2026-04-18T09:40:27.531Z</time></trkpt><trkpt lat="43.473565" lon="10.924965"><ele>299.0</ele><time>2026-04-18T09:40:28.531Z</time></trkpt><trkpt lat="43.4735067" lon="10.92484"><ele>299.0</ele><time>2026-04-18T09:40:29.531Z</time></trkpt><trkpt lat="43.473455" lon="10.9247133"><ele>299.0</ele><time>2026-04-18T09:40:30.531Z</time></trkpt><trkpt lat="43.4734083" lon="10.9246017"><ele>299.0</ele><time>2026-04-18T09:40:31.532Z</time></trkpt><trkpt lat="43.4733483" lon="10.9245"><ele>299.0</ele><time>2026-04-18T09:40:32.531Z</time></trkpt><trkpt lat="43.47328" lon="10.9243983"><ele>299.0</ele><time>2026-04-18T09:40:33.532Z</time></trkpt><trkpt lat="43.4731967" lon="10.924295"><ele>301.0</ele><time>2026-04-18T09:40:34.531Z</time></trkpt><trkpt lat="43.4730983" lon="10.9242067"><ele>303.0</ele><time>2026-04-18T09:40:35.531Z</time></trkpt><trkpt lat="43.4729933" lon="10.924115"><ele>305.0</ele><time>2026-04-18T09:40:36.532Z</time></trkpt><trkpt lat="43.4728867" lon="10.9240283"><ele>307.0</ele><time>2026-04-18T09:40:37.532Z</time></trkpt><trkpt lat="43.47278" lon="10.9239483"><ele>303.4</ele><time>2026-04-18T09:40:38.531Z</time></trkpt><trkpt lat="43.4726767" lon="10.923865"><ele>299.79999999999995</ele><time>2026-04-18T09:40:39.532Z</time></trkpt><trkpt lat="43.47258" lon="10.9237817"><ele>296.2</ele><time>2026-04-18T09:40:40.531Z</time></trkpt><trkpt lat="43.47249" lon="10.9237017"><ele>292.59999999999997</ele><time>2026-04-18T09:40:41.532Z</time></trkpt><trkpt lat="43.47241" lon="10.923635"><ele>289.0</ele><time>2026-04-18T09:40:42.531Z</time></trkpt><trkpt lat="43.4723383" lon="10.92358"><ele>289.0</ele><time>2026-04-18T09:40:43.532Z</time></trkpt><trkpt lat="43.472275" lon="10.9235317"><ele>289.0</ele><time>2026-04-18T09:40:44.531Z</time></trkpt><trkpt lat="43.4722233" lon="10.92348"><ele>289.0</ele><time>2026-04-18T09:40:45.532Z</time></trkpt><trkpt lat="43.4721783" lon="10.9234117"><ele>289.0</ele><time>2026-04-18T09:40:46.532Z</time></trkpt><trkpt lat="43.4721417" lon="10.9233283"><ele>289.0</ele><time>2026-04-18T09:40:47.531Z</time></trkpt><trkpt lat="43.47213" lon="10.9232317"><ele>289.0</ele><time>2026-04-18T09:40:48.531Z</time></trkpt><trkpt lat="43.4721267" lon="10.9231233"><ele>289.0</ele><time>2026-04-18T09:40:49.531Z</time></trkpt><trkpt lat="43.4721433" lon="10.923015"><ele>289.8</ele><time>2026-04-18T09:40:50.531Z</time></trkpt><trkpt lat="43.4721783" lon="10.9229183"><ele>290.59999999999997</ele><time>2026-04-18T09:40:51.531Z</time></trkpt><trkpt lat="43.4722383" lon="10.922825"><ele>291.4</ele><time>2026-04-18T09:40:52.531Z</time></trkpt><trkpt lat="43.4723267" lon="10.92272"><ele>292.2</ele><time>2026-04-18T09:40:53.531Z</time></trkpt><trkpt lat="43.472425" lon="10.9226133"><ele>293.0</ele><time>2026-04-18T09:40:54.531Z</time></trkpt><trkpt lat="43.4725183" lon="10.9225117"><ele>290.25</ele><time>2026-04-18T09:40:55.531Z</time></trkpt><trkpt lat="43.4726083" lon="10.9224017"><ele>287.5</ele><time>2026-04-18T09:40:56.531Z</time></trkpt><trkpt lat="43.4726983" lon="10.922295"><ele>284.75</ele><time>2026-04-18T09:40:57.531Z</time></trkpt><trkpt lat="43.4727883" lon="10.9221883"><ele>282.0</ele><time>2026-04-18T09:40:58.531Z</time></trkpt><trkpt lat="43.4728717" lon="10.922075"><ele>281.5</ele><time>2026-04-18T09:40:59.531Z</time></trkpt><trkpt lat="43.4729533" lon="10.92196"><ele>281.0</ele><time>2026-04-18T09:41:00.531Z</time></trkpt><trkpt lat="43.47303" lon="10.9218283"><ele>280.5</ele><time>2026-04-18T09:41:01.531Z</time></trkpt><trkpt lat="43.473095" lon="10.9217083"><ele>280.0</ele><time>2026-04-18T09:41:02.532Z</time></trkpt><trkpt lat="43.47316" lon="10.9216"><ele>280.0</ele><time>2026-04-18T09:41:03.531Z</time></trkpt><trkpt lat="43.4732167" lon="10.9214967"><ele>280.0</ele><time>2026-04-18T09:41:04.531Z</time></trkpt><trkpt lat="43.4732667" lon="10.92139"><ele>280.0</ele><time>2026-04-18T09:41:05.531Z</time></trkpt><trkpt lat="43.4733133" lon="10.9212667"><ele>280.0</ele><time>2026-04-18T09:41:06.531Z</time></trkpt><trkpt lat="43.4733533" lon="10.9211333"><ele>280.0</ele><time>2026-04-18T09:41:07.531Z</time></trkpt><trkpt lat="43.473375" lon="10.9209817"><ele>278.0</ele><time>2026-04-18T09:41:08.531Z</time></trkpt><trkpt lat="43.4733983" lon="10.92083"><ele>276.0</ele><time>2026-04-18T09:41:09.531Z</time></trkpt><trkpt lat="43.4734167" lon="10.920685"><ele>274.0</ele><time>2026-04-18T09:41:10.531Z</time></trkpt><trkpt lat="43.4734283" lon="10.9205633"><ele>272.0</ele><time>2026-04-18T09:41:11.531Z</time></trkpt><trkpt lat="43.47344" lon="10.9204583"><ele>270.0</ele><time>2026-04-18T09:41:12.531Z</time></trkpt><trkpt lat="43.4734417" lon="10.9203533"><ele>270.0</ele><time>2026-04-18T09:41:13.531Z</time></trkpt><trkpt lat="43.473425" lon="10.92025"><ele>270.0</ele><time>2026-04-18T09:41:14.531Z</time></trkpt><trkpt lat="43.4734" lon="10.9201567"><ele>270.0</ele><time>2026-04-18T09:41:15.531Z</time></trkpt><trkpt lat="43.4733383" lon="10.92003"><ele>270.0</ele><time>2026-04-18T09:41:17.531Z</time></trkpt><trkpt lat="43.47324" lon="10.9198983"><ele>270.0</ele><time>2026-04-18T09:41:19.531Z</time></trkpt><trkpt lat="43.4731717" lon="10.919825"><ele>268.6</ele><time>2026-04-18T09:41:20.531Z</time></trkpt><trkpt lat="43.4731017" lon="10.9197483"><ele>267.2</ele><time>2026-04-18T09:41:21.531Z</time></trkpt><trkpt lat="43.4730417" lon="10.9196467"><ele>265.8</ele><time>2026-04-18T09:41:22.532Z</time></trkpt><trkpt lat="43.4729867" lon="10.9195117"><ele>264.4</ele><time>2026-04-18T09:41:23.53Z</time></trkpt><trkpt lat="43.47295" lon="10.9193667"><ele>263.0</ele><time>2026-04-18T09:41:24.53Z</time></trkpt><trkpt lat="43.472935" lon="10.91923"><ele>261.2</ele><time>2026-04-18T09:41:25.53Z</time></trkpt><trkpt lat="43.4729233" lon="10.91909"><ele>259.4</ele><time>2026-04-18T09:41:26.53Z</time></trkpt><trkpt lat="43.4729133" lon="10.91896"><ele>257.59999999999997</ele><time>2026-04-18T09:41:27.531Z</time></trkpt><trkpt lat="43.4728917" lon="10.9188317"><ele>255.79999999999998</ele><time>2026-04-18T09:41:28.53Z</time></trkpt><trkpt lat="43.4728517" lon="10.918695"><ele>254.0</ele><time>2026-04-18T09:41:29.531Z</time></trkpt><trkpt lat="43.4728017" lon="10.9185683"><ele>254.0</ele><time>2026-04-18T09:41:30.53Z</time></trkpt><trkpt lat="43.47275" lon="10.91844"><ele>253.99999999999997</ele><time>2026-04-18T09:41:31.53Z</time></trkpt><trkpt lat="43.4726917" lon="10.918325"><ele>253.99999999999997</ele><time>2026-04-18T09:41:32.53Z</time></trkpt><trkpt lat="43.472635" lon="10.9182067"><ele>254.0</ele><time>2026-04-18T09:41:33.53Z</time></trkpt><trkpt lat="43.4725767" lon="10.9181017"><ele>254.0</ele><time>2026-04-18T09:41:34.53Z</time></trkpt><trkpt lat="43.4725167" lon="10.9179867"><ele>252.79999999999998</ele><time>2026-04-18T09:41:35.53Z</time></trkpt><trkpt lat="43.4724517" lon="10.9178667"><ele>251.59999999999997</ele><time>2026-04-18T09:41:36.531Z</time></trkpt><trkpt lat="43.4723933" lon="10.917755"><ele>250.4</ele><time>2026-04-18T09:41:37.53Z</time></trkpt><trkpt lat="43.472345" lon="10.9176383"><ele>249.2</ele><time>2026-04-18T09:41:38.53Z</time></trkpt><trkpt lat="43.47229" lon="10.917545"><ele>248.0</ele><time>2026-04-18T09:41:39.53Z</time></trkpt><trkpt lat="43.4722417" lon="10.9174633"><ele>247.50000000000003</ele><time>2026-04-18T09:41:40.53Z</time></trkpt><trkpt lat="43.472205" lon="10.9173883"><ele>247.0</ele><time>2026-04-18T09:41:41.53Z</time></trkpt><trkpt lat="43.4720983" lon="10.9172867"><ele>246.5</ele><time>2026-04-18T09:41:43.53Z</time></trkpt><trkpt lat="43.4720267" lon="10.9172433"><ele>246.0</ele><time>2026-04-18T09:41:44.53Z</time></trkpt><trkpt lat="43.4719467" lon="10.9171983"><ele>245.50000000000003</ele><time>2026-04-18T09:41:45.53Z</time></trkpt><trkpt lat="43.4718767" lon="10.9171583"><ele>245.0</ele><time>2026-04-18T09:41:46.531Z</time></trkpt><trkpt lat="43.4718083" lon="10.9171367"><ele>244.16666666666669</ele><time>2026-04-18T09:41:47.53Z</time></trkpt><trkpt lat="43.4716883" lon="10.9171367"><ele>243.33333333333334</ele><time>2026-04-18T09:41:49.53Z</time></trkpt><trkpt lat="43.4716233" lon="10.9171533"><ele>242.5</ele><time>2026-04-18T09:41:50.53Z</time></trkpt><trkpt lat="43.47156" lon="10.9171767"><ele>241.66666666666669</ele><time>2026-04-18T09:41:51.53Z</time></trkpt><trkpt lat="43.4715017" lon="10.9172117"><ele>240.83333333333334</ele><time>2026-04-18T09:41:52.531Z</time></trkpt><trkpt lat="43.4714333" lon="10.9172717"><ele>240.0</ele><time>2026-04-18T09:41:53.53Z</time></trkpt><trkpt lat="43.4713583" lon="10.9173417"><ele>239.5</ele><time>2026-04-18T09:41:54.53Z</time></trkpt><trkpt lat="43.4712717" lon="10.9174283"><ele>239.0</ele><time>2026-04-18T09:41:55.53Z</time></trkpt><trkpt lat="43.4711717" lon="10.91753"><ele>238.5</ele><time>2026-04-18T09:41:56.531Z</time></trkpt><trkpt lat="43.4710767" lon="10.917625"><ele>238.0</ele><time>2026-04-18T09:41:57.531Z</time></trkpt><trkpt lat="43.47097" lon="10.9177367"><ele>238.0</ele><time>2026-04-18T09:41:58.53Z</time></trkpt><trkpt lat="43.47086" lon="10.9178467"><ele>238.0</ele><time>2026-04-18T09:41:59.53Z</time></trkpt><trkpt lat="43.4707567" lon="10.91795"><ele>238.0</ele><time>2026-04-18T09:42:00.53Z</time></trkpt><trkpt lat="43.470665" lon="10.918055"><ele>238.0</ele><time>2026-04-18T09:42:01.531Z</time></trkpt><trkpt lat="43.4705633" lon="10.9181567"><ele>237.99999999999997</ele><time>2026-04-18T09:42:02.53Z</time></trkpt><trkpt lat="43.4704667" lon="10.9182533"><ele>238.0</ele><time>2026-04-18T09:42:03.53Z</time></trkpt><trkpt lat="43.4703833" lon="10.9183333"><ele>238.0</ele><time>2026-04-18T09:42:04.53Z</time></trkpt><trkpt lat="43.470315" lon="10.9184033"><ele>238.0</ele><time>2026-04-18T09:42:05.53Z</time></trkpt><trkpt lat="43.4702517" lon="10.91845"><ele>237.99999999999997</ele><time>2026-04-18T09:42:06.531Z</time></trkpt><trkpt lat="43.4701933" lon="10.9184883"><ele>238.0</ele><time>2026-04-18T09:42:07.53Z</time></trkpt><trkpt lat="43.4700683" lon="10.9184867"><ele>236.99999999999997</ele><time>2026-04-18T09:42:09.53Z</time></trkpt><trkpt lat="43.470005" lon="10.918445"><ele>236.0</ele><time>2026-04-18T09:42:10.53Z</time></trkpt><trkpt lat="43.46995" lon="10.918375"><ele>235.0</ele><time>2026-04-18T09:42:11.53Z</time></trkpt><trkpt lat="43.4699183" lon="10.9182867"><ele>234.0</ele><time>2026-04-18T09:42:12.53Z</time></trkpt><trkpt lat="43.4699067" lon="10.9181783"><ele>232.99999999999997</ele><time>2026-04-18T09:42:13.53Z</time></trkpt><trkpt lat="43.469915" lon="10.918065"><ele>232.0</ele><time>2026-04-18T09:42:14.53Z</time></trkpt><trkpt lat="43.4699383" lon="10.9179433"><ele>230.99999999999997</ele><time>2026-04-18T09:42:15.531Z</time></trkpt><trkpt lat="43.4699667" lon="10.9178283"><ele>230.0</ele><time>2026-04-18T09:42:16.53Z</time></trkpt><trkpt lat="43.46998" lon="10.917725"><ele>229.0</ele><time>2026-04-18T09:42:17.531Z</time></trkpt><trkpt lat="43.4699867" lon="10.9176217"><ele>228.0</ele><time>2026-04-18T09:42:18.53Z</time></trkpt><trkpt lat="43.469985" lon="10.9175233"><ele>226.99999999999997</ele><time>2026-04-18T09:42:19.53Z</time></trkpt><trkpt lat="43.469965" lon="10.9174217"><ele>226.0</ele><time>2026-04-18T09:42:20.53Z</time></trkpt><trkpt lat="43.4699317" lon="10.9173267"><ele>224.8</ele><time>2026-04-18T09:42:21.53Z</time></trkpt><trkpt lat="43.4698817" lon="10.9172567"><ele>223.60000000000002</ele><time>2026-04-18T09:42:22.531Z</time></trkpt><trkpt lat="43.4698117" lon="10.9172133"><ele>222.4</ele><time>2026-04-18T09:42:23.53Z</time></trkpt><trkpt lat="43.469725" lon="10.9171933"><ele>221.2</ele><time>2026-04-18T09:42:24.53Z</time></trkpt><trkpt lat="43.4696217" lon="10.917185"><ele>220.0</ele><time>2026-04-18T09:42:25.53Z</time></trkpt><trkpt lat="43.469505" lon="10.9171833"><ele>216.66666666666666</ele><time>2026-04-18T09:42:26.53Z</time></trkpt><trkpt lat="43.4693533" lon="10.9171867"><ele>213.33333333333331</ele><time>2026-04-18T09:42:27.531Z</time></trkpt><trkpt lat="43.4691983" lon="10.9171917"><ele>210.0</ele><time>2026-04-18T09:42:28.53Z</time></trkpt><trkpt lat="43.46905" lon="10.9172033"><ele>210.0</ele><time>2026-04-18T09:42:29.53Z</time></trkpt><trkpt lat="43.468925" lon="10.9172067"><ele>210.0</ele><time>2026-04-18T09:42:30.53Z</time></trkpt><trkpt lat="43.4688133" lon="10.9172083"><ele>210.0</ele><time>2026-04-18T09:42:31.53Z</time></trkpt><trkpt lat="43.4687033" lon="10.9172067"><ele>210.0</ele><time>2026-04-18T09:42:32.53Z</time></trkpt><trkpt lat="43.4686033" lon="10.9172"><ele>210.0</ele><time>2026-04-18T09:42:33.53Z</time></trkpt><trkpt lat="43.4685017" lon="10.9171867"><ele>208.6</ele><time>2026-04-18T09:42:34.53Z</time></trkpt><trkpt lat="43.4684" lon="10.9171683"><ele>207.2</ele><time>2026-04-18T09:42:35.53Z</time></trkpt><trkpt lat="43.4682983" lon="10.917135"><ele>205.8</ele><time>2026-04-18T09:42:36.53Z</time></trkpt><trkpt lat="43.4681967" lon="10.9170917"><ele>204.4</ele><time>2026-04-18T09:42:37.53Z</time></trkpt><trkpt lat="43.4681033" lon="10.9170417"><ele>203.0</ele><time>2026-04-18T09:42:38.53Z</time></trkpt><trkpt lat="43.46802" lon="10.916985"><ele>203.00000000000003</ele><time>2026-04-18T09:42:39.53Z</time></trkpt><trkpt lat="43.4679483" lon="10.9169333"><ele>203.0</ele><time>2026-04-18T09:42:40.53Z</time></trkpt><trkpt lat="43.4678867" lon="10.9168667"><ele>203.0</ele><time>2026-04-18T09:42:41.53Z</time></trkpt><trkpt lat="43.467835" lon="10.9167933"><ele>203.0</ele><time>2026-04-18T09:42:42.53Z</time></trkpt><trkpt lat="43.4677867" lon="10.9167167"><ele>203.00000000000003</ele><time>2026-04-18T09:42:43.53Z</time></trkpt><trkpt lat="43.46774" lon="10.9166267"><ele>203.0</ele><time>2026-04-18T09:42:44.53Z</time></trkpt><trkpt lat="43.4677133" lon="10.91653"><ele>201.83333333333334</ele><time>2026-04-18T09:42:45.53Z</time></trkpt><trkpt lat="43.4676967" lon="10.91643"><ele>200.66666666666669</ele><time>2026-04-18T09:42:46.53Z</time></trkpt><trkpt lat="43.4676983" lon="10.9163283"><ele>199.5</ele><time>2026-04-18T09:42:47.53Z</time></trkpt><trkpt lat="43.467715" lon="10.9162017"><ele>198.33333333333331</ele><time>2026-04-18T09:42:48.531Z</time></trkpt><trkpt lat="43.46776" lon="10.91607"><ele>197.16666666666666</ele><time>2026-04-18T09:42:49.53Z</time></trkpt><trkpt lat="43.4677833" lon="10.9159333"><ele>196.0</ele><time>2026-04-18T09:42:50.53Z</time></trkpt><trkpt lat="43.4678067" lon="10.9158017"><ele>194.8</ele><time>2026-04-18T09:42:51.53Z</time></trkpt><trkpt lat="43.4678233" lon="10.9156733"><ele>193.60000000000002</ele><time>2026-04-18T09:42:52.53Z</time></trkpt><trkpt lat="43.467845" lon="10.9155433"><ele>192.4</ele><time>2026-04-18T09:42:53.53Z</time></trkpt><trkpt lat="43.4678617" lon="10.9154017"><ele>191.2</ele><time>2026-04-18T09:42:54.53Z</time></trkpt><trkpt lat="43.46787" lon="10.9152433"><ele>190.0</ele><time>2026-04-18T09:42:55.53Z</time></trkpt><trkpt lat="43.46787" lon="10.9150983"><ele>189.25</ele><time>2026-04-18T09:42:56.531Z</time></trkpt><trkpt lat="43.4678583" lon="10.9149417"><ele>188.5</ele><time>2026-04-18T09:42:57.53Z</time></trkpt><trkpt lat="43.4678433" lon="10.914765"><ele>187.75</ele><time>2026-04-18T09:42:58.53Z</time></trkpt><trkpt lat="43.46783" lon="10.9145667"><ele>187.0</ele><time>2026-04-18T09:42:59.53Z</time></trkpt><trkpt lat="43.46782" lon="10.9143667"><ele>186.75</ele><time>2026-04-18T09:43:00.53Z</time></trkpt><trkpt lat="43.4678017" lon="10.91417"><ele>186.5</ele><time>2026-04-18T09:43:01.531Z</time></trkpt><trkpt lat="43.467775" lon="10.9139717"><ele>186.25</ele><time>2026-04-18T09:43:02.53Z</time></trkpt><trkpt lat="43.4677533" lon="10.9137933"><ele>186.0</ele><time>2026-04-18T09:43:03.53Z</time></trkpt><trkpt lat="43.4677267" lon="10.9136283"><ele>186.0</ele><time>2026-04-18T09:43:04.53Z</time></trkpt><trkpt lat="43.4677083" lon="10.91348"><ele>186.0</ele><time>2026-04-18T09:43:05.53Z</time></trkpt><trkpt lat="43.4676867" lon="10.913365"><ele>186.0</ele><time>2026-04-18T09:43:06.531Z</time></trkpt><trkpt lat="43.4676633" lon="10.9132617"><ele>186.0</ele><time>2026-04-18T09:43:07.531Z</time></trkpt><trkpt lat="43.4676367" lon="10.9131767"><ele>186.0</ele><time>2026-04-18T09:43:08.53Z</time></trkpt><trkpt lat="43.46758" lon="10.9130617"><ele>186.0</ele><time>2026-04-18T09:43:10.531Z</time></trkpt><trkpt lat="43.4675167" lon="10.91301"><ele>185.66666666666666</ele><time>2026-04-18T09:43:12.53Z</time></trkpt><trkpt lat="43.46745" lon="10.9129967"><ele>185.33333333333334</ele><time>2026-04-18T09:43:14.53Z</time></trkpt><trkpt lat="43.4673833" lon="10.913005"><ele>185.0</ele><time>2026-04-18T09:43:17.53Z</time></trkpt><trkpt lat="43.4672933" lon="10.9130233"><ele>184.66666666666669</ele><time>2026-04-18T09:43:34.53Z</time></trkpt><trkpt lat="43.4672067" lon="10.9130517"><ele>184.33333333333334</ele><time>2026-04-18T09:43:36.53Z</time></trkpt><trkpt lat="43.4671367" lon="10.9130783"><ele>184.0</ele><time>2026-04-18T09:43:37.53Z</time></trkpt><trkpt lat="43.4670617" lon="10.9131133"><ele>184.79999999999998</ele><time>2026-04-18T09:43:38.53Z</time></trkpt><trkpt lat="43.4669783" lon="10.9131383"><ele>185.6</ele><time>2026-04-18T09:43:39.53Z</time></trkpt><trkpt lat="43.4668767" lon="10.9131583"><ele>186.4</ele><time>2026-04-18T09:43:40.53Z</time></trkpt><trkpt lat="43.4667683" lon="10.91316"><ele>187.2</ele><time>2026-04-18T09:43:41.531Z</time></trkpt><trkpt lat="43.4666517" lon="10.9131483"><ele>188.0</ele><time>2026-04-18T09:43:42.53Z</time></trkpt><trkpt lat="43.466535" lon="10.9131283"><ele>188.0</ele><time>2026-04-18T09:43:43.53Z</time></trkpt><trkpt lat="43.4664183" lon="10.913115"><ele>188.0</ele><time>2026-04-18T09:43:44.53Z</time></trkpt><trkpt lat="43.466315" lon="10.9130983"><ele>188.0</ele><time>2026-04-18T09:43:45.53Z</time></trkpt><trkpt lat="43.4662133" lon="10.913085"><ele>188.0</ele><time>2026-04-18T09:43:46.53Z</time></trkpt><trkpt lat="43.4661133" lon="10.9130717"><ele>188.0</ele><time>2026-04-18T09:43:47.53Z</time></trkpt><trkpt lat="43.4660117" lon="10.9130517"><ele>188.8</ele><time>2026-04-18T09:43:48.53Z</time></trkpt><trkpt lat="43.46591" lon="10.91303"><ele>189.60000000000002</ele><time>2026-04-18T09:43:49.53Z</time></trkpt><trkpt lat="43.4658083" lon="10.9130133"><ele>190.39999999999998</ele><time>2026-04-18T09:43:50.531Z</time></trkpt><trkpt lat="43.4657083" lon="10.913005"><ele>191.2</ele><time>2026-04-18T09:43:51.53Z</time></trkpt><trkpt lat="43.4656167" lon="10.9130033"><ele>192.0</ele><time>2026-04-18T09:43:52.53Z</time></trkpt><trkpt lat="43.465525" lon="10.9130133"><ele>191.0</ele><time>2026-04-18T09:43:53.53Z</time></trkpt><trkpt lat="43.4654333" lon="10.91304"><ele>190.0</ele><time>2026-04-18T09:43:54.53Z</time></trkpt><trkpt lat="43.46534" lon="10.913095"><ele>189.0</ele><time>2026-04-18T09:43:55.531Z</time></trkpt><trkpt lat="43.4652417" lon="10.9131833"><ele>188.0</ele><time>2026-04-18T09:43:56.53Z</time></trkpt><trkpt lat="43.465145" lon="10.9132833"><ele>187.0</ele><time>2026-04-18T09:43:57.53Z</time></trkpt><trkpt lat="43.46505" lon="10.9133867"><ele>189.25</ele><time>2026-04-18T09:43:58.531Z</time></trkpt><trkpt lat="43.4649533" lon="10.913495"><ele>191.5</ele><time>2026-04-18T09:43:59.53Z</time></trkpt><trkpt lat="43.4648667" lon="10.9136033"><ele>193.75</ele><time>2026-04-18T09:44:00.53Z</time></trkpt><trkpt lat="43.4647817" lon="10.9136983"><ele>196.0</ele><time>2026-04-18T09:44:01.53Z</time></trkpt><trkpt lat="43.4647067" lon="10.9137883"><ele>195.99999999999997</ele><time>2026-04-18T09:44:02.53Z</time></trkpt><trkpt lat="43.464635" lon="10.9138633"><ele>196.0</ele><time>2026-04-18T09:44:03.53Z</time></trkpt><trkpt lat="43.4645583" lon="10.9139267"><ele>196.0</ele><time>2026-04-18T09:44:04.53Z</time></trkpt><trkpt lat="43.4644783" lon="10.9139617"><ele>196.0</ele><time>2026-04-18T09:44:05.53Z</time></trkpt><trkpt lat="43.4643917" lon="10.9139817"><ele>195.99999999999997</ele><time>2026-04-18T09:44:06.53Z</time></trkpt><trkpt lat="43.4643067" lon="10.9139833"><ele>196.0</ele><time>2026-04-18T09:44:07.53Z</time></trkpt><trkpt lat="43.4642317" lon="10.9139683"><ele>195.16666666666666</ele><time>2026-04-18T09:44:08.53Z</time></trkpt><trkpt lat="43.4641517" lon="10.9139267"><ele>194.33333333333331</ele><time>2026-04-18T09:44:09.53Z</time></trkpt><trkpt lat="43.4640717" lon="10.91387"><ele>193.5</ele><time>2026-04-18T09:44:10.53Z</time></trkpt><trkpt lat="43.4639983" lon="10.913825"><ele>192.66666666666666</ele><time>2026-04-18T09:44:11.53Z</time></trkpt><trkpt lat="43.4639267" lon="10.913805"><ele>191.83333333333331</ele><time>2026-04-18T09:44:12.53Z</time></trkpt><trkpt lat="43.4638533" lon="10.91382"><ele>191.0</ele><time>2026-04-18T09:44:13.53Z</time></trkpt><trkpt lat="43.4637817" lon="10.91386"><ele>192.20000000000002</ele><time>2026-04-18T09:44:14.53Z</time></trkpt><trkpt lat="43.4637183" lon="10.9139167"><ele>193.4</ele><time>2026-04-18T09:44:15.53Z</time></trkpt><trkpt lat="43.4636533" lon="10.914"><ele>194.6</ele><time>2026-04-18T09:44:16.53Z</time></trkpt><trkpt lat="43.4635867" lon="10.9141083"><ele>195.8</ele><time>2026-04-18T09:44:17.53Z</time></trkpt><trkpt lat="43.4635133" lon="10.9142333"><ele>197.0</ele><time>2026-04-18T09:44:18.53Z</time></trkpt><trkpt lat="43.4634417" lon="10.91437"><ele>197.0</ele><time>2026-04-18T09:44:19.53Z</time></trkpt><trkpt lat="43.4633733" lon="10.9145083"><ele>197.0</ele><time>2026-04-18T09:44:20.531Z</time></trkpt><trkpt lat="43.4632917" lon="10.9146567"><ele>197.0</ele><time>2026-04-18T09:44:21.53Z</time></trkpt><trkpt lat="43.4632133" lon="10.9148083"><ele>197.0</ele><time>2026-04-18T09:44:22.53Z</time></trkpt><trkpt lat="43.4631267" lon="10.91496"><ele>196.39999999999998</ele><time>2026-04-18T09:44:23.53Z</time></trkpt><trkpt lat="43.463045" lon="10.9150867"><ele>195.79999999999998</ele><time>2026-04-18T09:44:24.53Z</time></trkpt><trkpt lat="43.46297" lon="10.9151817"><ele>195.2</ele><time>2026-04-18T09:44:25.53Z</time></trkpt><trkpt lat="43.4628933" lon="10.9152683"><ele>194.6</ele><time>2026-04-18T09:44:26.53Z</time></trkpt><trkpt lat="43.4627967" lon="10.9153583"><ele>194.0</ele><time>2026-04-18T09:44:27.53Z</time></trkpt><trkpt lat="43.4626867" lon="10.9154367"><ele>196.5</ele><time>2026-04-18T09:44:28.53Z</time></trkpt><trkpt lat="43.4625633" lon="10.9155083"><ele>199.0</ele><time>2026-04-18T09:44:29.531Z</time></trkpt><trkpt lat="43.4624383" lon="10.9155667"><ele>201.5</ele><time>2026-04-18T09:44:30.53Z</time></trkpt><trkpt lat="43.4623183" lon="10.9156117"><ele>204.0</ele><time>2026-04-18T09:44:31.531Z</time></trkpt><trkpt lat="43.4622067" lon="10.915645"><ele>206.75</ele><time>2026-04-18T09:44:32.53Z</time></trkpt><trkpt lat="43.4621" lon="10.9156633"><ele>209.5</ele><time>2026-04-18T09:44:33.53Z</time></trkpt><trkpt lat="43.4619817" lon="10.915675"><ele>212.25</ele><time>2026-04-18T09:44:34.531Z</time></trkpt><trkpt lat="43.4618567" lon="10.9157"><ele>215.0</ele><time>2026-04-18T09:44:35.53Z</time></trkpt><trkpt lat="43.4617267" lon="10.9157333"><ele>215.0</ele><time>2026-04-18T09:44:36.53Z</time></trkpt><trkpt lat="43.46159" lon="10.91577"><ele>215.0</ele><time>2026-04-18T09:44:37.531Z</time></trkpt><trkpt lat="43.4614733" lon="10.9157883"><ele>215.0</ele><time>2026-04-18T09:44:38.53Z</time></trkpt><trkpt lat="43.4613683" lon="10.9158167"><ele>215.0</ele><time>2026-04-18T09:44:39.53Z</time></trkpt><trkpt lat="43.461255" lon="10.9158383"><ele>216.2</ele><time>2026-04-18T09:44:40.53Z</time></trkpt><trkpt lat="43.4611517" lon="10.9158383"><ele>217.4</ele><time>2026-04-18T09:44:41.53Z</time></trkpt><trkpt lat="43.4610583" lon="10.91582"><ele>218.60000000000002</ele><time>2026-04-18T09:44:42.53Z</time></trkpt><trkpt lat="43.460975" lon="10.915775"><ele>219.8</ele><time>2026-04-18T09:44:43.53Z</time></trkpt><trkpt lat="43.4608967" lon="10.91571"><ele>221.0</ele><time>2026-04-18T09:44:44.531Z</time></trkpt><trkpt lat="43.4608317" lon="10.9156517"><ele>221.00000000000003</ele><time>2026-04-18T09:44:45.53Z</time></trkpt><trkpt lat="43.4607633" lon="10.91561"><ele>221.0</ele><time>2026-04-18T09:44:46.53Z</time></trkpt><trkpt lat="43.460695" lon="10.9155783"><ele>221.0</ele><time>2026-04-18T09:44:47.531Z</time></trkpt><trkpt lat="43.46063" lon="10.9155817"><ele>221.0</ele><time>2026-04-18T09:44:48.53Z</time></trkpt><trkpt lat="43.4605633" lon="10.9156033"><ele>221.0</ele><time>2026-04-18T09:44:49.529Z</time></trkpt><trkpt lat="43.4604933" lon="10.9156617"><ele>221.00000000000003</ele><time>2026-04-18T09:44:50.529Z</time></trkpt><trkpt lat="43.46043" lon="10.9157217"><ele>221.0</ele><time>2026-04-18T09:44:51.529Z</time></trkpt><trkpt lat="43.4603683" lon="10.9158"><ele>222.20000000000002</ele><time>2026-04-18T09:44:52.529Z</time></trkpt><trkpt lat="43.460305" lon="10.9158483"><ele>223.40000000000003</ele><time>2026-04-18T09:44:53.529Z</time></trkpt><trkpt lat="43.46022" lon="10.91588"><ele>224.6</ele><time>2026-04-18T09:44:54.529Z</time></trkpt><trkpt lat="43.460125" lon="10.915885"><ele>225.8</ele><time>2026-04-18T09:44:55.53Z</time></trkpt><trkpt lat="43.4600283" lon="10.9158667"><ele>227.0</ele><time>2026-04-18T09:44:56.529Z</time></trkpt><trkpt lat="43.4599283" lon="10.9158317"><ele>227.0</ele><time>2026-04-18T09:44:57.529Z</time></trkpt><trkpt lat="43.459845" lon="10.915775"><ele>227.0</ele><time>2026-04-18T09:44:58.529Z</time></trkpt><trkpt lat="43.4597683" lon="10.9156917"><ele>227.0</ele><time>2026-04-18T09:44:59.529Z</time></trkpt><trkpt lat="43.4597" lon="10.915595"><ele>227.0</ele><time>2026-04-18T09:45:00.529Z</time></trkpt><trkpt lat="43.4596383" lon="10.91548"><ele>227.0</ele><time>2026-04-18T09:45:01.529Z</time></trkpt><trkpt lat="43.4595783" lon="10.9153683"><ele>227.50000000000003</ele><time>2026-04-18T09:45:02.529Z</time></trkpt><trkpt lat="43.4595183" lon="10.9152867"><ele>228.0</ele><time>2026-04-18T09:45:03.529Z</time></trkpt><trkpt lat="43.4594567" lon="10.915225"><ele>228.5</ele><time>2026-04-18T09:45:04.529Z</time></trkpt><trkpt lat="43.4593317" lon="10.9151667"><ele>229.0</ele><time>2026-04-18T09:45:06.53Z</time></trkpt><trkpt lat="43.4592683" lon="10.91517"><ele>229.50000000000003</ele><time>2026-04-18T09:45:07.529Z</time></trkpt><trkpt lat="43.4592033" lon="10.9151983"><ele>230.0</ele><time>2026-04-18T09:45:08.529Z</time></trkpt><trkpt lat="43.4591367" lon="10.9152433"><ele>230.00000000000003</ele><time>2026-04-18T09:45:09.529Z</time></trkpt><trkpt lat="43.4590667" lon="10.9152983"><ele>230.0</ele><time>2026-04-18T09:45:10.529Z</time></trkpt><trkpt lat="43.4589933" lon="10.91532"><ele>230.0</ele><time>2026-04-18T09:45:11.529Z</time></trkpt><trkpt lat="43.458915" lon="10.91532"><ele>230.0</ele><time>2026-04-18T09:45:12.53Z</time></trkpt><trkpt lat="43.458845" lon="10.9152867"><ele>230.00000000000003</ele><time>2026-04-18T09:45:13.529Z</time></trkpt><trkpt lat="43.45878" lon="10.9152317"><ele>230.0</ele><time>2026-04-18T09:45:14.529Z</time></trkpt><trkpt lat="43.4587133" lon="10.9151583"><ele>229.16666666666669</ele><time>2026-04-18T09:45:15.529Z</time></trkpt><trkpt lat="43.45866" lon="10.9150817"><ele>228.33333333333334</ele><time>2026-04-18T09:45:16.529Z</time></trkpt><trkpt lat="43.4586183" lon="10.9149833"><ele>227.5</ele><time>2026-04-18T09:45:17.529Z</time></trkpt><trkpt lat="43.4585917" lon="10.9148767"><ele>226.66666666666669</ele><time>2026-04-18T09:45:18.529Z</time></trkpt><trkpt lat="43.4585733" lon="10.914765"><ele>225.83333333333334</ele><time>2026-04-18T09:45:19.529Z</time></trkpt><trkpt lat="43.4585617" lon="10.9146383"><ele>225.0</ele><time>2026-04-18T09:45:20.529Z</time></trkpt><trkpt lat="43.4585583" lon="10.9144883"><ele>227.5</ele><time>2026-04-18T09:45:21.53Z</time></trkpt><trkpt lat="43.4585567" lon="10.914315"><ele>230.0</ele><time>2026-04-18T09:45:22.529Z</time></trkpt><trkpt lat="43.458555" lon="10.9141233"><ele>232.5</ele><time>2026-04-18T09:45:23.529Z</time></trkpt><trkpt lat="43.45856" lon="10.9139083"><ele>235.0</ele><time>2026-04-18T09:45:24.529Z</time></trkpt><trkpt lat="43.458565" lon="10.9137067"><ele>236.6</ele><time>2026-04-18T09:45:25.529Z</time></trkpt><trkpt lat="43.4585683" lon="10.913525"><ele>238.2</ele><time>2026-04-18T09:45:26.529Z</time></trkpt><trkpt lat="43.45857" lon="10.9133667"><ele>239.8</ele><time>2026-04-18T09:45:27.529Z</time></trkpt><trkpt lat="43.45856" lon="10.9132417"><ele>241.4</ele><time>2026-04-18T09:45:28.529Z</time></trkpt><trkpt lat="43.4585383" lon="10.913135"><ele>243.0</ele><time>2026-04-18T09:45:29.53Z</time></trkpt><trkpt lat="43.4585067" lon="10.9130417"><ele>244.4</ele><time>2026-04-18T09:45:30.53Z</time></trkpt><trkpt lat="43.4584367" lon="10.9129117"><ele>245.8</ele><time>2026-04-18T09:45:32.53Z</time></trkpt><trkpt lat="43.4583467" lon="10.9128"><ele>247.2</ele><time>2026-04-18T09:45:34.529Z</time></trkpt><trkpt lat="43.45828" lon="10.912745"><ele>248.6</ele><time>2026-04-18T09:45:35.529Z</time></trkpt><trkpt lat="43.458205" lon="10.9126867"><ele>250.0</ele><time>2026-04-18T09:45:36.529Z</time></trkpt><trkpt lat="43.45812" lon="10.9126233"><ele>250.25</ele><time>2026-04-18T09:45:37.529Z</time></trkpt><trkpt lat="43.45802" lon="10.9125567"><ele>250.5</ele><time>2026-04-18T09:45:38.529Z</time></trkpt><trkpt lat="43.457905" lon="10.9124833"><ele>250.75</ele><time>2026-04-18T09:45:39.529Z</time></trkpt><trkpt lat="43.45779" lon="10.91241"><ele>251.0</ele><time>2026-04-18T09:45:40.529Z</time></trkpt><trkpt lat="43.4576533" lon="10.9123233"><ele>253.66666666666669</ele><time>2026-04-18T09:45:41.529Z</time></trkpt><trkpt lat="43.4575133" lon="10.9122283"><ele>256.3333333333333</ele><time>2026-04-18T09:45:42.529Z</time></trkpt><trkpt lat="43.4573767" lon="10.9121317"><ele>259.0</ele><time>2026-04-18T09:45:43.53Z</time></trkpt><trkpt lat="43.4572367" lon="10.912035"><ele>260.3333333333333</ele><time>2026-04-18T09:45:44.529Z</time></trkpt><trkpt lat="43.4571017" lon="10.9119333"><ele>261.6666666666667</ele><time>2026-04-18T09:45:45.529Z</time></trkpt><trkpt lat="43.4568717" lon="10.9117767"><ele>263.0</ele><time>2026-04-18T09:45:47.529Z</time></trkpt><trkpt lat="43.4567783" lon="10.9117083"><ele>263.2</ele><time>2026-04-18T09:45:48.529Z</time></trkpt><trkpt lat="43.4566933" lon="10.9116467"><ele>263.4</ele><time>2026-04-18T09:45:49.53Z</time></trkpt><trkpt lat="43.4566133" lon="10.911595"><ele>263.59999999999997</ele><time>2026-04-18T09:45:50.529Z</time></trkpt><trkpt lat="43.45655" lon="10.911555"><ele>263.8</ele><time>2026-04-18T09:45:51.53Z</time></trkpt><trkpt lat="43.45643" lon="10.911515"><ele>264.0</ele><time>2026-04-18T09:45:53.529Z</time></trkpt><trkpt lat="43.4563567" lon="10.911525"><ele>266.0</ele><time>2026-04-18T09:45:54.529Z</time></trkpt><trkpt lat="43.4562817" lon="10.9115483"><ele>268.0</ele><time>2026-04-18T09:45:55.529Z</time></trkpt><trkpt lat="43.4561917" lon="10.91159"><ele>270.0</ele><time>2026-04-18T09:45:56.53Z</time></trkpt><trkpt lat="43.4560883" lon="10.91164"><ele>272.0</ele><time>2026-04-18T09:45:57.529Z</time></trkpt><trkpt lat="43.4559883" lon="10.9116817"><ele>274.0</ele><time>2026-04-18T09:45:58.529Z</time></trkpt><trkpt lat="43.4558817" lon="10.9117283"><ele>273.5</ele><time>2026-04-18T09:45:59.529Z</time></trkpt><trkpt lat="43.4557717" lon="10.9117817"><ele>273.0</ele><time>2026-04-18T09:46:00.529Z</time></trkpt><trkpt lat="43.45566" lon="10.9118333"><ele>272.5</ele><time>2026-04-18T09:46:01.529Z</time></trkpt><trkpt lat="43.45554" lon="10.9118667"><ele>272.0</ele><time>2026-04-18T09:46:02.529Z</time></trkpt><trkpt lat="43.4554133" lon="10.9119067"><ele>274.0</ele><time>2026-04-18T09:46:03.529Z</time></trkpt><trkpt lat="43.4552817" lon="10.9119333"><ele>276.0</ele><time>2026-04-18T09:46:04.529Z</time></trkpt><trkpt lat="43.4551633" lon="10.91196"><ele>278.0</ele><time>2026-04-18T09:46:05.529Z</time></trkpt><trkpt lat="43.45506" lon="10.9119817"><ele>280.0</ele><time>2026-04-18T09:46:06.529Z</time></trkpt><trkpt lat="43.4549767" lon="10.9120017"><ele>282.0</ele><time>2026-04-18T09:46:07.529Z</time></trkpt><trkpt lat="43.4549067" lon="10.91203"><ele>282.0</ele><time>2026-04-18T09:46:08.529Z</time></trkpt><trkpt lat="43.4548283" lon="10.9120767"><ele>282.0</ele><time>2026-04-18T09:46:09.529Z</time></trkpt><trkpt lat="43.4547433" lon="10.9121333"><ele>282.0</ele><time>2026-04-18T09:46:10.529Z</time></trkpt><trkpt lat="43.45466" lon="10.9121817"><ele>282.0</ele><time>2026-04-18T09:46:11.529Z</time></trkpt><trkpt lat="43.454565" lon="10.9122217"><ele>282.0</ele><time>2026-04-18T09:46:12.529Z</time></trkpt><trkpt lat="43.45447" lon="10.9122483"><ele>284.0</ele><time>2026-04-18T09:46:13.529Z</time></trkpt><trkpt lat="43.45437" lon="10.912265"><ele>286.0</ele><time>2026-04-18T09:46:14.529Z</time></trkpt><trkpt lat="43.4542683" lon="10.912265"><ele>288.0</ele><time>2026-04-18T09:46:15.529Z</time></trkpt><trkpt lat="43.45417" lon="10.9122583"><ele>290.0</ele><time>2026-04-18T09:46:16.529Z</time></trkpt><trkpt lat="43.4540833" lon="10.9122367"><ele>292.0</ele><time>2026-04-18T09:46:17.529Z</time></trkpt><trkpt lat="43.454005" lon="10.912215"><ele>292.0</ele><time>2026-04-18T09:46:18.529Z</time></trkpt><trkpt lat="43.453935" lon="10.912195"><ele>292.0</ele><time>2026-04-18T09:46:19.529Z</time></trkpt><trkpt lat="43.45387" lon="10.9121683"><ele>292.0</ele><time>2026-04-18T09:46:20.529Z</time></trkpt><trkpt lat="43.4538017" lon="10.9121517"><ele>292.0</ele><time>2026-04-18T09:46:21.529Z</time></trkpt><trkpt lat="43.4537283" lon="10.9121383"><ele>292.0</ele><time>2026-04-18T09:46:22.529Z</time></trkpt><trkpt lat="43.4536533" lon="10.9121283"><ele>292.0</ele><time>2026-04-18T09:46:23.529Z</time></trkpt><trkpt lat="43.4535683" lon="10.9121317"><ele>292.0</ele><time>2026-04-18T09:46:24.529Z</time></trkpt><trkpt lat="43.4534817" lon="10.9121417"><ele>292.4</ele><time>2026-04-18T09:46:25.529Z</time></trkpt><trkpt lat="43.4533883" lon="10.9121583"><ele>292.79999999999995</ele><time>2026-04-18T09:46:26.529Z</time></trkpt><trkpt lat="43.4532983" lon="10.9121867"><ele>293.2</ele><time>2026-04-18T09:46:27.529Z</time></trkpt><trkpt lat="43.453205" lon="10.9122167"><ele>293.59999999999997</ele><time>2026-04-18T09:46:28.53Z</time></trkpt><trkpt lat="43.4531167" lon="10.9122433"><ele>294.0</ele><time>2026-04-18T09:46:29.529Z</time></trkpt><trkpt lat="43.45303" lon="10.91227"><ele>293.6666666666667</ele><time>2026-04-18T09:46:30.529Z</time></trkpt><trkpt lat="43.4529533" lon="10.912285"><ele>293.3333333333333</ele><time>2026-04-18T09:46:31.529Z</time></trkpt><trkpt lat="43.45288" lon="10.9122967"><ele>293.0</ele><time>2026-04-18T09:46:32.529Z</time></trkpt><trkpt lat="43.4528067" lon="10.9123033"><ele>292.66666666666663</ele><time>2026-04-18T09:46:33.53Z</time></trkpt><trkpt lat="43.452735" lon="10.9123033"><ele>292.3333333333333</ele><time>2026-04-18T09:46:34.53Z</time></trkpt><trkpt lat="43.4526517" lon="10.9122883"><ele>292.0</ele><time>2026-04-18T09:46:35.529Z</time></trkpt><trkpt lat="43.45256" lon="10.9122633"><ele>292.0</ele><time>2026-04-18T09:46:36.529Z</time></trkpt><trkpt lat="43.45249" lon="10.9122233"><ele>292.0</ele><time>2026-04-18T09:46:37.529Z</time></trkpt><trkpt lat="43.452415" lon="10.9121867"><ele>292.0</ele><time>2026-04-18T09:46:38.529Z</time></trkpt><trkpt lat="43.4523317" lon="10.912155"><ele>292.0</ele><time>2026-04-18T09:46:39.529Z</time></trkpt><trkpt lat="43.4522417" lon="10.912125"><ele>292.0</ele><time>2026-04-18T09:46:40.529Z</time></trkpt><trkpt lat="43.4521467" lon="10.9121033"><ele>292.0</ele><time>2026-04-18T09:46:41.529Z</time></trkpt><trkpt lat="43.4520417" lon="10.912085"><ele>291.16666666666663</ele><time>2026-04-18T09:46:42.529Z</time></trkpt><trkpt lat="43.4519433" lon="10.9120817"><ele>290.3333333333333</ele><time>2026-04-18T09:46:43.529Z</time></trkpt><trkpt lat="43.451845" lon="10.91208"><ele>289.5</ele><time>2026-04-18T09:46:44.529Z</time></trkpt><trkpt lat="43.4517583" lon="10.9120833"><ele>288.6666666666667</ele><time>2026-04-18T09:46:45.529Z</time></trkpt><trkpt lat="43.451675" lon="10.9120867"><ele>287.83333333333337</ele><time>2026-04-18T09:46:46.529Z</time></trkpt><trkpt lat="43.451595" lon="10.9120817"><ele>287.0</ele><time>2026-04-18T09:46:47.529Z</time></trkpt><trkpt lat="43.4515167" lon="10.912065"><ele>287.0</ele><time>2026-04-18T09:46:48.529Z</time></trkpt><trkpt lat="43.451435" lon="10.9120317"><ele>287.0</ele><time>2026-04-18T09:46:49.529Z</time></trkpt><trkpt lat="43.4513567" lon="10.9119983"><ele>287.0</ele><time>2026-04-18T09:46:50.529Z</time></trkpt><trkpt lat="43.4512817" lon="10.9119717"><ele>287.0</ele><time>2026-04-18T09:46:51.529Z</time></trkpt><trkpt lat="43.4512167" lon="10.91195"><ele>287.0</ele><time>2026-04-18T09:46:52.53Z</time></trkpt><trkpt lat="43.4511033" lon="10.9119233"><ele>287.0</ele><time>2026-04-18T09:46:54.529Z</time></trkpt><trkpt lat="43.4510367" lon="10.911935"><ele>286.2</ele><time>2026-04-18T09:46:55.529Z</time></trkpt><trkpt lat="43.45092" lon="10.911975"><ele>285.4</ele><time>2026-04-18T09:46:57.529Z</time></trkpt><trkpt lat="43.45081" lon="10.9119483"><ele>284.6</ele><time>2026-04-18T09:46:59.529Z</time></trkpt><trkpt lat="43.45075" lon="10.9118983"><ele>283.8</ele><time>2026-04-18T09:47:00.529Z</time></trkpt><trkpt lat="43.4506917" lon="10.91183"><ele>283.0</ele><time>2026-04-18T09:47:01.529Z</time></trkpt><trkpt lat="43.4506383" lon="10.91175"><ele>282.4</ele><time>2026-04-18T09:47:02.529Z</time></trkpt><trkpt lat="43.450585" lon="10.9116733"><ele>281.8</ele><time>2026-04-18T09:47:03.529Z</time></trkpt><trkpt lat="43.45052" lon="10.91161"><ele>281.2</ele><time>2026-04-18T09:47:04.529Z</time></trkpt><trkpt lat="43.4504433" lon="10.9115517"><ele>280.6</ele><time>2026-04-18T09:47:05.53Z</time></trkpt><trkpt lat="43.4503533" lon="10.9114933"><ele>280.0</ele><time>2026-04-18T09:47:06.529Z</time></trkpt><trkpt lat="43.4502483" lon="10.911425"><ele>279.5</ele><time>2026-04-18T09:47:07.529Z</time></trkpt><trkpt lat="43.4501417" lon="10.9113567"><ele>279.0</ele><time>2026-04-18T09:47:08.529Z</time></trkpt><trkpt lat="43.4500283" lon="10.911295"><ele>278.5</ele><time>2026-04-18T09:47:09.529Z</time></trkpt><trkpt lat="43.449915" lon="10.9112317"><ele>278.0</ele><time>2026-04-18T09:47:10.529Z</time></trkpt><trkpt lat="43.4498017" lon="10.91117"><ele>278.0</ele><time>2026-04-18T09:47:11.529Z</time></trkpt><trkpt lat="43.44969" lon="10.9111"><ele>278.0</ele><time>2026-04-18T09:47:12.529Z</time></trkpt><trkpt lat="43.449565" lon="10.9110367"><ele>278.0</ele><time>2026-04-18T09:47:13.529Z</time></trkpt><trkpt lat="43.4494383" lon="10.9109667"><ele>278.0</ele><time>2026-04-18T09:47:14.529Z</time></trkpt><trkpt lat="43.44931" lon="10.9109017"><ele>276.75</ele><time>2026-04-18T09:47:15.529Z</time></trkpt><trkpt lat="43.4491867" lon="10.9108483"><ele>275.5</ele><time>2026-04-18T09:47:16.529Z</time></trkpt><trkpt lat="43.4490683" lon="10.9108083"><ele>274.25</ele><time>2026-04-18T09:47:17.529Z</time></trkpt><trkpt lat="43.4489483" lon="10.9107683"><ele>273.0</ele><time>2026-04-18T09:47:18.53Z</time></trkpt><trkpt lat="43.448845" lon="10.910725"><ele>272.8</ele><time>2026-04-18T09:47:19.529Z</time></trkpt><trkpt lat="43.4487417" lon="10.910675"><ele>272.6</ele><time>2026-04-18T09:47:20.529Z</time></trkpt><trkpt lat="43.448645" lon="10.9105983"><ele>272.4</ele><time>2026-04-18T09:47:21.529Z</time></trkpt><trkpt lat="43.4485517" lon="10.9105183"><ele>272.2</ele><time>2026-04-18T09:47:22.529Z</time></trkpt><trkpt lat="43.4484617" lon="10.9104383"><ele>272.0</ele><time>2026-04-18T09:47:23.53Z</time></trkpt><trkpt lat="43.4483717" lon="10.9103733"><ele>272.0</ele><time>2026-04-18T09:47:24.529Z</time></trkpt><trkpt lat="43.4482817" lon="10.9102983"><ele>272.0</ele><time>2026-04-18T09:47:25.529Z</time></trkpt><trkpt lat="43.4481833" lon="10.9102267"><ele>272.0</ele><time>2026-04-18T09:47:26.529Z</time></trkpt><trkpt lat="43.44808" lon="10.9101583"><ele>272.0</ele><time>2026-04-18T09:47:27.529Z</time></trkpt><trkpt lat="43.447975" lon="10.9100967"><ele>272.0</ele><time>2026-04-18T09:47:28.529Z</time></trkpt><trkpt lat="43.44786" lon="10.9100333"><ele>270.75</ele><time>2026-04-18T09:47:29.529Z</time></trkpt><trkpt lat="43.4477433" lon="10.9099683"><ele>269.5</ele><time>2026-04-18T09:47:30.529Z</time></trkpt><trkpt lat="43.4476317" lon="10.9099033"><ele>268.25</ele><time>2026-04-18T09:47:31.529Z</time></trkpt><trkpt lat="43.4475283" lon="10.9098383"><ele>267.0</ele><time>2026-04-18T09:47:32.529Z</time></trkpt><trkpt lat="43.4474283" lon="10.90977"><ele>267.0</ele><time>2026-04-18T09:47:33.53Z</time></trkpt><trkpt lat="43.4473333" lon="10.9097067"><ele>267.0</ele><time>2026-04-18T09:47:34.529Z</time></trkpt><trkpt lat="43.44723" lon="10.9096483"><ele>267.0</ele><time>2026-04-18T09:47:35.529Z</time></trkpt><trkpt lat="43.4471283" lon="10.9096"><ele>267.0</ele><time>2026-04-18T09:47:36.529Z</time></trkpt><trkpt lat="43.4470383" lon="10.9095583"><ele>267.0</ele><time>2026-04-18T09:47:37.529Z</time></trkpt><trkpt lat="43.44695" lon="10.909525"><ele>266.0</ele><time>2026-04-18T09:47:38.529Z</time></trkpt><trkpt lat="43.4468633" lon="10.9094983"><ele>265.0</ele><time>2026-04-18T09:47:39.529Z</time></trkpt><trkpt lat="43.4467767" lon="10.9094717"><ele>264.0</ele><time>2026-04-18T09:47:40.529Z</time></trkpt><trkpt lat="43.4466983" lon="10.9094417"><ele>263.0</ele><time>2026-04-18T09:47:41.529Z</time></trkpt><trkpt lat="43.4466217" lon="10.9094033"><ele>262.0</ele><time>2026-04-18T09:47:42.529Z</time></trkpt><trkpt lat="43.4465483" lon="10.9093483"><ele>261.0</ele><time>2026-04-18T09:47:43.529Z</time></trkpt><trkpt lat="43.446475" lon="10.909265"><ele>260.40000000000003</ele><time>2026-04-18T09:47:44.529Z</time></trkpt><trkpt lat="43.44641" lon="10.9091617"><ele>259.8</ele><time>2026-04-18T09:47:45.529Z</time></trkpt><trkpt lat="43.4463533" lon="10.9090433"><ele>259.20000000000005</ele><time>2026-04-18T09:47:46.529Z</time></trkpt><trkpt lat="43.4463" lon="10.9089083"><ele>258.6</ele><time>2026-04-18T09:47:47.529Z</time></trkpt><trkpt lat="43.4462483" lon="10.9087633"><ele>258.0</ele><time>2026-04-18T09:47:48.53Z</time></trkpt><trkpt lat="43.4462017" lon="10.9086217"><ele>257.8</ele><time>2026-04-18T09:47:49.529Z</time></trkpt><trkpt lat="43.4461567" lon="10.9084883"><ele>257.6</ele><time>2026-04-18T09:47:50.529Z</time></trkpt><trkpt lat="43.44612" lon="10.9083567"><ele>257.4</ele><time>2026-04-18T09:47:51.529Z</time></trkpt><trkpt lat="43.4460833" lon="10.9082183"><ele>257.2</ele><time>2026-04-18T09:47:52.529Z</time></trkpt><trkpt lat="43.4460367" lon="10.9080867"><ele>257.0</ele><time>2026-04-18T09:47:53.529Z</time></trkpt><trkpt lat="43.4459883" lon="10.9079517"><ele>257.0</ele><time>2026-04-18T09:47:54.529Z</time></trkpt><trkpt lat="43.44594" lon="10.90783"><ele>257.0</ele><time>2026-04-18T09:47:55.53Z</time></trkpt><trkpt lat="43.4458817" lon="10.907705"><ele>257.0</ele><time>2026-04-18T09:47:56.529Z</time></trkpt><trkpt lat="43.4458167" lon="10.9075717"><ele>257.0</ele><time>2026-04-18T09:47:57.529Z</time></trkpt><trkpt lat="43.4457383" lon="10.90743"><ele>256.5</ele><time>2026-04-18T09:47:58.529Z</time></trkpt><trkpt lat="43.4456567" lon="10.907295"><ele>256.0</ele><time>2026-04-18T09:47:59.529Z</time></trkpt><trkpt lat="43.445575" lon="10.90717"><ele>255.5</ele><time>2026-04-18T09:48:00.529Z</time></trkpt><trkpt lat="43.4455033" lon="10.907045"><ele>255.0</ele><time>2026-04-18T09:48:01.529Z</time></trkpt><trkpt lat="43.4454383" lon="10.9069233"><ele>254.25</ele><time>2026-04-18T09:48:02.53Z</time></trkpt><trkpt lat="43.4453733" lon="10.9068017"><ele>253.5</ele><time>2026-04-18T09:48:03.529Z</time></trkpt><trkpt lat="43.4452983" lon="10.9066733"><ele>252.75</ele><time>2026-04-18T09:48:04.529Z</time></trkpt><trkpt lat="43.4452167" lon="10.9065433"><ele>252.0</ele><time>2026-04-18T09:48:05.529Z</time></trkpt><trkpt lat="43.44513" lon="10.9064067"><ele>252.0</ele><time>2026-04-18T09:48:06.529Z</time></trkpt><trkpt lat="43.4450317" lon="10.90628"><ele>252.0</ele><time>2026-04-18T09:48:07.529Z</time></trkpt><trkpt lat="43.44494" lon="10.9061583"><ele>252.0</ele><time>2026-04-18T09:48:08.53Z</time></trkpt><trkpt lat="43.4448383" lon="10.906045"><ele>252.0</ele><time>2026-04-18T09:48:09.529Z</time></trkpt><trkpt lat="43.4447533" lon="10.9059183"><ele>251.39999999999998</ele><time>2026-04-18T09:48:10.529Z</time></trkpt><trkpt lat="43.444675" lon="10.905805"><ele>250.79999999999998</ele><time>2026-04-18T09:48:11.529Z</time></trkpt><trkpt lat="43.444605" lon="10.905695"><ele>250.2</ele><time>2026-04-18T09:48:12.529Z</time></trkpt><trkpt lat="43.4445433" lon="10.9055883"><ele>249.6</ele><time>2026-04-18T09:48:13.529Z</time></trkpt><trkpt lat="43.44448" lon="10.9054517"><ele>249.0</ele><time>2026-04-18T09:48:14.53Z</time></trkpt><trkpt lat="43.4444217" lon="10.905315"><ele>248.79999999999998</ele><time>2026-04-18T09:48:15.528Z</time></trkpt><trkpt lat="43.4443567" lon="10.90519"><ele>248.59999999999997</ele><time>2026-04-18T09:48:16.528Z</time></trkpt><trkpt lat="43.4442917" lon="10.905075"><ele>248.4</ele><time>2026-04-18T09:48:17.528Z</time></trkpt><trkpt lat="43.44422" lon="10.90497"><ele>248.2</ele><time>2026-04-18T09:48:18.528Z</time></trkpt><trkpt lat="43.4441333" lon="10.9048767"><ele>248.0</ele><time>2026-04-18T09:48:19.528Z</time></trkpt><trkpt lat="43.444035" lon="10.904775"><ele>248.75</ele><time>2026-04-18T09:48:20.528Z</time></trkpt><trkpt lat="43.4439233" lon="10.90466"><ele>249.5</ele><time>2026-04-18T09:48:21.528Z</time></trkpt><trkpt lat="43.44381" lon="10.904555"><ele>250.25</ele><time>2026-04-18T09:48:22.528Z</time></trkpt><trkpt lat="43.4436933" lon="10.9044433"><ele>251.0</ele><time>2026-04-18T09:48:23.528Z</time></trkpt><trkpt lat="43.4435733" lon="10.9043333"><ele>249.0</ele><time>2026-04-18T09:48:24.528Z</time></trkpt><trkpt lat="43.4434567" lon="10.9042167"><ele>247.0</ele><time>2026-04-18T09:48:25.528Z</time></trkpt><trkpt lat="43.4433333" lon="10.9041"><ele>245.0</ele><time>2026-04-18T09:48:26.528Z</time></trkpt><trkpt lat="43.443205" lon="10.9039767"><ele>245.0</ele><time>2026-04-18T09:48:27.528Z</time></trkpt><trkpt lat="43.4430717" lon="10.90386"><ele>245.0</ele><time>2026-04-18T09:48:28.528Z</time></trkpt><trkpt lat="43.4429283" lon="10.9037517"><ele>245.0</ele><time>2026-04-18T09:48:29.528Z</time></trkpt><trkpt lat="43.4427983" lon="10.9036417"><ele>245.25</ele><time>2026-04-18T09:48:30.528Z</time></trkpt><trkpt lat="43.4426767" lon="10.903535"><ele>245.5</ele><time>2026-04-18T09:48:31.528Z</time></trkpt><trkpt lat="43.4425583" lon="10.9034267"><ele>245.75</ele><time>2026-04-18T09:48:32.528Z</time></trkpt><trkpt lat="43.4424433" lon="10.9033133"><ele>246.0</ele><time>2026-04-18T09:48:33.528Z</time></trkpt><trkpt lat="43.442325" lon="10.9032083"><ele>246.0</ele><time>2026-04-18T09:48:34.529Z</time></trkpt><trkpt lat="43.44222" lon="10.9031117"><ele>246.0</ele><time>2026-04-18T09:48:35.528Z</time></trkpt><trkpt lat="43.4421183" lon="10.90302"><ele>246.0</ele><time>2026-04-18T09:48:36.528Z</time></trkpt><trkpt lat="43.44202" lon="10.9029333"><ele>246.0</ele><time>2026-04-18T09:48:37.528Z</time></trkpt><trkpt lat="43.4419167" lon="10.9028567"><ele>245.5</ele><time>2026-04-18T09:48:38.528Z</time></trkpt><trkpt lat="43.4418083" lon="10.90279"><ele>245.0</ele><time>2026-04-18T09:48:39.529Z</time></trkpt><trkpt lat="43.4416933" lon="10.902735"><ele>244.5</ele><time>2026-04-18T09:48:40.529Z</time></trkpt><trkpt lat="43.441565" lon="10.9026933"><ele>244.0</ele><time>2026-04-18T09:48:41.528Z</time></trkpt><trkpt lat="43.4414383" lon="10.9026717"><ele>244.0</ele><time>2026-04-18T09:48:42.529Z</time></trkpt><trkpt lat="43.4413133" lon="10.9026633"><ele>244.0</ele><time>2026-04-18T09:48:43.528Z</time></trkpt><trkpt lat="43.4411983" lon="10.9026633"><ele>244.0</ele><time>2026-04-18T09:48:44.528Z</time></trkpt><trkpt lat="43.4410783" lon="10.9026517"><ele>244.0</ele><time>2026-04-18T09:48:45.528Z</time></trkpt><trkpt lat="43.4409583" lon="10.9026317"><ele>243.5</ele><time>2026-04-18T09:48:46.528Z</time></trkpt><trkpt lat="43.440845" lon="10.9026083"><ele>243.0</ele><time>2026-04-18T09:48:47.528Z</time></trkpt><trkpt lat="43.4407333" lon="10.9025683"><ele>242.5</ele><time>2026-04-18T09:48:48.528Z</time></trkpt><trkpt lat="43.4406233" lon="10.90251"><ele>242.0</ele><time>2026-04-18T09:48:49.528Z</time></trkpt><trkpt lat="43.44051" lon="10.9024367"><ele>245.0</ele><time>2026-04-18T09:48:50.528Z</time></trkpt><trkpt lat="43.4404017" lon="10.90235"><ele>248.0</ele><time>2026-04-18T09:48:51.528Z</time></trkpt><trkpt lat="43.4402967" lon="10.9022567"><ele>251.0</ele><time>2026-04-18T09:48:52.528Z</time></trkpt><trkpt lat="43.440205" lon="10.9021417"><ele>254.0</ele><time>2026-04-18T09:48:53.528Z</time></trkpt><trkpt lat="43.4401133" lon="10.9020233"><ele>254.0</ele><time>2026-04-18T09:48:54.528Z</time></trkpt><trkpt lat="43.4400333" lon="10.9018933"><ele>254.0</ele><time>2026-04-18T09:48:55.528Z</time></trkpt><trkpt lat="43.4399617" lon="10.9017433"><ele>254.0</ele><time>2026-04-18T09:48:56.528Z</time></trkpt><trkpt lat="43.43988" lon="10.901605"><ele>254.0</ele><time>2026-04-18T09:48:57.528Z</time></trkpt><trkpt lat="43.4397983" lon="10.901485"><ele>253.2</ele><time>2026-04-18T09:48:58.528Z</time></trkpt><trkpt lat="43.439735" lon="10.9013717"><ele>252.39999999999998</ele><time>2026-04-18T09:48:59.528Z</time></trkpt><trkpt lat="43.4396917" lon="10.9012417"><ele>251.6</ele><time>2026-04-18T09:49:00.528Z</time></trkpt><trkpt lat="43.43967" lon="10.9011067"><ele>250.8</ele><time>2026-04-18T09:49:01.528Z</time></trkpt><trkpt lat="43.439655" lon="10.9009733"><ele>250.0</ele><time>2026-04-18T09:49:02.528Z</time></trkpt><trkpt lat="43.439645" lon="10.9008383"><ele>249.4</ele><time>2026-04-18T09:49:03.528Z</time></trkpt><trkpt lat="43.4396517" lon="10.9006933"><ele>248.8</ele><time>2026-04-18T09:49:04.528Z</time></trkpt><trkpt lat="43.4396633" lon="10.9005517"><ele>248.2</ele><time>2026-04-18T09:49:05.528Z</time></trkpt><trkpt lat="43.4396783" lon="10.9004133"><ele>247.6</ele><time>2026-04-18T09:49:06.528Z</time></trkpt><trkpt lat="43.439695" lon="10.90028"><ele>247.0</ele><time>2026-04-18T09:49:07.528Z</time></trkpt><trkpt lat="43.4397067" lon="10.900145"><ele>246.99999999999997</ele><time>2026-04-18T09:49:08.528Z</time></trkpt><trkpt lat="43.4397067" lon="10.9000117"><ele>247.0</ele><time>2026-04-18T09:49:09.528Z</time></trkpt><trkpt lat="43.439695" lon="10.8998833"><ele>247.0</ele><time>2026-04-18T09:49:10.528Z</time></trkpt><trkpt lat="43.43968" lon="10.8997683"><ele>247.0</ele><time>2026-04-18T09:49:11.528Z</time></trkpt><trkpt lat="43.4396567" lon="10.89967"><ele>246.99999999999997</ele><time>2026-04-18T09:49:12.528Z</time></trkpt><trkpt lat="43.4396267" lon="10.89958"><ele>247.0</ele><time>2026-04-18T09:49:13.528Z</time></trkpt><trkpt lat="43.439535" lon="10.8994433"><ele>247.8</ele><time>2026-04-18T09:49:15.528Z</time></trkpt><trkpt lat="43.439465" lon="10.899375"><ele>248.6</ele><time>2026-04-18T09:49:16.528Z</time></trkpt><trkpt lat="43.4393917" lon="10.8993033"><ele>249.40000000000003</ele><time>2026-04-18T09:49:17.528Z</time></trkpt><trkpt lat="43.43931" lon="10.8992167"><ele>250.20000000000002</ele><time>2026-04-18T09:49:18.529Z</time></trkpt><trkpt lat="43.439235" lon="10.8991183"><ele>251.0</ele><time>2026-04-18T09:49:19.528Z</time></trkpt><trkpt lat="43.4391683" lon="10.8990267"><ele>251.0</ele><time>2026-04-18T09:49:20.528Z</time></trkpt><trkpt lat="43.4391" lon="10.8989417"><ele>251.00000000000003</ele><time>2026-04-18T09:49:21.528Z</time></trkpt><trkpt lat="43.4390283" lon="10.8988667"><ele>251.00000000000003</ele><time>2026-04-18T09:49:22.528Z</time></trkpt><trkpt lat="43.4389517" lon="10.8987817"><ele>251.0</ele><time>2026-04-18T09:49:23.528Z</time></trkpt><trkpt lat="43.4388867" lon="10.8986833"><ele>251.0</ele><time>2026-04-18T09:49:24.528Z</time></trkpt><trkpt lat="43.4388333" lon="10.8985783"><ele>250.66666666666669</ele><time>2026-04-18T09:49:25.528Z</time></trkpt><trkpt lat="43.4387883" lon="10.89847"><ele>250.33333333333334</ele><time>2026-04-18T09:49:26.528Z</time></trkpt><trkpt lat="43.4387483" lon="10.8983667"><ele>250.0</ele><time>2026-04-18T09:49:27.528Z</time></trkpt><trkpt lat="43.4387233" lon="10.898265"><ele>249.66666666666669</ele><time>2026-04-18T09:49:28.529Z</time></trkpt><trkpt lat="43.438695" lon="10.8981683"><ele>249.33333333333334</ele><time>2026-04-18T09:49:29.528Z</time></trkpt><trkpt lat="43.4386533" lon="10.89807"><ele>249.0</ele><time>2026-04-18T09:49:30.528Z</time></trkpt><trkpt lat="43.4386167" lon="10.8979767"><ele>248.66666666666666</ele><time>2026-04-18T09:49:31.528Z</time></trkpt><trkpt lat="43.4385633" lon="10.8978867"><ele>248.33333333333331</ele><time>2026-04-18T09:49:32.528Z</time></trkpt><trkpt lat="43.438525" lon="10.8977867"><ele>248.0</ele><time>2026-04-18T09:49:33.528Z</time></trkpt><trkpt lat="43.43848" lon="10.8976883"><ele>247.66666666666666</ele><time>2026-04-18T09:49:34.529Z</time></trkpt><trkpt lat="43.4384467" lon="10.8975683"><ele>247.33333333333331</ele><time>2026-04-18T09:49:35.528Z</time></trkpt><trkpt lat="43.4384233" lon="10.8974367"><ele>247.0</ele><time>2026-04-18T09:49:36.528Z</time></trkpt><trkpt lat="43.4384017" lon="10.897285"><ele>245.0</ele><time>2026-04-18T09:49:37.528Z</time></trkpt><trkpt lat="43.4383767" lon="10.8971217"><ele>243.0</ele><time>2026-04-18T09:49:38.528Z</time></trkpt><trkpt lat="43.4383467" lon="10.8969567"><ele>241.0</ele><time>2026-04-18T09:49:39.528Z</time></trkpt><trkpt lat="43.43831" lon="10.896795"><ele>239.0</ele><time>2026-04-18T09:49:40.528Z</time></trkpt><trkpt lat="43.438275" lon="10.8966583"><ele>237.6</ele><time>2026-04-18T09:49:41.528Z</time></trkpt><trkpt lat="43.43825" lon="10.8965333"><ele>236.2</ele><time>2026-04-18T09:49:42.529Z</time></trkpt><trkpt lat="43.4382283" lon="10.8964117"><ele>234.79999999999998</ele><time>2026-04-18T09:49:43.528Z</time></trkpt><trkpt lat="43.438205" lon="10.8962667"><ele>233.39999999999998</ele><time>2026-04-18T09:49:44.528Z</time></trkpt><trkpt lat="43.4382083" lon="10.8961517"><ele>232.0</ele><time>2026-04-18T09:49:45.528Z</time></trkpt><trkpt lat="43.4382183" lon="10.896045"><ele>231.99999999999997</ele><time>2026-04-18T09:49:46.529Z</time></trkpt><trkpt lat="43.4382217" lon="10.8959517"><ele>232.0</ele><time>2026-04-18T09:49:47.528Z</time></trkpt><trkpt lat="43.4382133" lon="10.895865"><ele>232.0</ele><time>2026-04-18T09:49:48.528Z</time></trkpt><trkpt lat="43.43815" lon="10.89571"><ele>232.0</ele><time>2026-04-18T09:49:50.528Z</time></trkpt><trkpt lat="43.4380883" lon="10.8956317"><ele>231.99999999999997</ele><time>2026-04-18T09:49:51.529Z</time></trkpt><trkpt lat="43.4380217" lon="10.8955633"><ele>232.0</ele><time>2026-04-18T09:49:52.528Z</time></trkpt><trkpt lat="43.4379533" lon="10.8954867"><ele>231.39999999999998</ele><time>2026-04-18T09:49:53.528Z</time></trkpt><trkpt lat="43.4378967" lon="10.8953967"><ele>230.79999999999998</ele><time>2026-04-18T09:49:54.529Z</time></trkpt><trkpt lat="43.4378417" lon="10.895295"><ele>230.2</ele><time>2026-04-18T09:49:55.528Z</time></trkpt><trkpt lat="43.437795" lon="10.8951933"><ele>229.6</ele><time>2026-04-18T09:49:56.528Z</time></trkpt><trkpt lat="43.4377533" lon="10.8950817"><ele>229.0</ele><time>2026-04-18T09:49:57.528Z</time></trkpt><trkpt lat="43.43771" lon="10.8949683"><ele>228.6</ele><time>2026-04-18T09:49:58.528Z</time></trkpt><trkpt lat="43.4376617" lon="10.8948517"><ele>228.2</ele><time>2026-04-18T09:49:59.529Z</time></trkpt><trkpt lat="43.43761" lon="10.8947317"><ele>227.79999999999998</ele><time>2026-04-18T09:50:00.528Z</time></trkpt><trkpt lat="43.43755" lon="10.8946167"><ele>227.39999999999998</ele><time>2026-04-18T09:50:01.528Z</time></trkpt><trkpt lat="43.437485" lon="10.8944917"><ele>227.0</ele><time>2026-04-18T09:50:02.528Z</time></trkpt><trkpt lat="43.437405" lon="10.89438"><ele>227.0</ele><time>2026-04-18T09:50:03.528Z</time></trkpt><trkpt lat="43.4373" lon="10.8942667"><ele>227.0</ele><time>2026-04-18T09:50:04.528Z</time></trkpt><trkpt lat="43.4371933" lon="10.894165"><ele>227.0</ele><time>2026-04-18T09:50:05.528Z</time></trkpt><trkpt lat="43.4370883" lon="10.8940783"><ele>227.0</ele><time>2026-04-18T09:50:06.528Z</time></trkpt><trkpt lat="43.4369767" lon="10.8940067"><ele>225.2</ele><time>2026-04-18T09:50:07.529Z</time></trkpt><trkpt lat="43.43686" lon="10.89395"><ele>223.39999999999998</ele><time>2026-04-18T09:50:08.529Z</time></trkpt><trkpt lat="43.436745" lon="10.89391"><ele>221.60000000000002</ele><time>2026-04-18T09:50:09.528Z</time></trkpt><trkpt lat="43.4366417" lon="10.8938733"><ele>219.8</ele><time>2026-04-18T09:50:10.528Z</time></trkpt><trkpt lat="43.4365517" lon="10.8938483"><ele>218.0</ele><time>2026-04-18T09:50:11.528Z</time></trkpt><trkpt lat="43.4364733" lon="10.89383"><ele>218.00000000000003</ele><time>2026-04-18T09:50:12.528Z</time></trkpt><trkpt lat="43.4364067" lon="10.89381"><ele>218.0</ele><time>2026-04-18T09:50:13.528Z</time></trkpt><trkpt lat="43.4363233" lon="10.8937867"><ele>218.0</ele><time>2026-04-18T09:50:15.528Z</time></trkpt><trkpt lat="43.4362383" lon="10.8937433"><ele>218.0</ele><time>2026-04-18T09:50:39.528Z</time></trkpt><trkpt lat="43.4361717" lon="10.8937033"><ele>218.00000000000003</ele><time>2026-04-18T09:50:41.528Z</time></trkpt><trkpt lat="43.4360717" lon="10.8936383"><ele>218.0</ele><time>2026-04-18T09:50:43.528Z</time></trkpt><trkpt lat="43.43601" lon="10.893585"><ele>218.00000000000003</ele><time>2026-04-18T09:50:44.528Z</time></trkpt><trkpt lat="43.43595" lon="10.8935183"><ele>218.0</ele><time>2026-04-18T09:50:45.528Z</time></trkpt><trkpt lat="43.4359" lon="10.8934433"><ele>218.0</ele><time>2026-04-18T09:50:46.528Z</time></trkpt><trkpt lat="43.4358467" lon="10.8933583"><ele>218.0</ele><time>2026-04-18T09:50:47.528Z</time></trkpt><trkpt lat="43.43579" lon="10.89326"><ele>218.00000000000003</ele><time>2026-04-18T09:50:48.528Z</time></trkpt><trkpt lat="43.4357283" lon="10.8931517"><ele>218.0</ele><time>2026-04-18T09:50:49.528Z</time></trkpt><trkpt lat="43.4356667" lon="10.8930533"><ele>218.00000000000003</ele><time>2026-04-18T09:50:50.528Z</time></trkpt><trkpt lat="43.43561" lon="10.8929667"><ele>218.0</ele><time>2026-04-18T09:50:51.528Z</time></trkpt><trkpt lat="43.4355517" lon="10.8928867"><ele>218.0</ele><time>2026-04-18T09:50:52.528Z</time></trkpt><trkpt lat="43.435495" lon="10.89281"><ele>218.0</ele><time>2026-04-18T09:50:53.528Z</time></trkpt><trkpt lat="43.4354367" lon="10.8927167"><ele>218.00000000000003</ele><time>2026-04-18T09:50:54.528Z</time></trkpt><trkpt lat="43.4353617" lon="10.8926183"><ele>218.0</ele><time>2026-04-18T09:50:55.528Z</time></trkpt><trkpt lat="43.4352867" lon="10.8925267"><ele>216.83333333333334</ele><time>2026-04-18T09:50:56.529Z</time></trkpt><trkpt lat="43.435215" lon="10.8924417"><ele>215.66666666666669</ele><time>2026-04-18T09:50:57.528Z</time></trkpt><trkpt lat="43.4351333" lon="10.8923617"><ele>214.5</ele><time>2026-04-18T09:50:58.528Z</time></trkpt><trkpt lat="43.4350633" lon="10.8923"><ele>213.33333333333331</ele><time>2026-04-18T09:50:59.528Z</time></trkpt><trkpt lat="43.4349983" lon="10.89223"><ele>212.16666666666666</ele><time>2026-04-18T09:51:00.528Z</time></trkpt><trkpt lat="43.434935" lon="10.8921467"><ele>211.0</ele><time>2026-04-18T09:51:01.528Z</time></trkpt><trkpt lat="43.4348867" lon="10.892055"><ele>210.99999999999997</ele><time>2026-04-18T09:51:02.528Z</time></trkpt><trkpt lat="43.4348533" lon="10.8919567"><ele>211.0</ele><time>2026-04-18T09:51:03.528Z</time></trkpt><trkpt lat="43.4348233" lon="10.8918567"><ele>211.0</ele><time>2026-04-18T09:51:04.528Z</time></trkpt><trkpt lat="43.4348033" lon="10.8917633"><ele>211.0</ele><time>2026-04-18T09:51:05.528Z</time></trkpt><trkpt lat="43.434755" lon="10.89163"><ele>210.99999999999997</ele><time>2026-04-18T09:51:07.529Z</time></trkpt><trkpt lat="43.43468" lon="10.8915567"><ele>211.0</ele><time>2026-04-18T09:51:09.528Z</time></trkpt><trkpt lat="43.43459" lon="10.8915633"><ele>209.0</ele><time>2026-04-18T09:51:11.528Z</time></trkpt><trkpt lat="43.4345083" lon="10.891665"><ele>207.0</ele><time>2026-04-18T09:51:13.528Z</time></trkpt><trkpt lat="43.4344483" lon="10.8918183"><ele>205.0</ele><time>2026-04-18T09:51:15.528Z</time></trkpt><trkpt lat="43.4344283" lon="10.89191"><ele>203.0</ele><time>2026-04-18T09:51:16.529Z</time></trkpt><trkpt lat="43.434415" lon="10.8920783"><ele>201.0</ele><time>2026-04-18T09:51:18.528Z</time></trkpt><trkpt lat="43.43443" lon="10.8921733"><ele>200.33333333333334</ele><time>2026-04-18T09:51:19.528Z</time></trkpt><trkpt lat="43.4344567" lon="10.8922867"><ele>199.66666666666669</ele><time>2026-04-18T09:51:20.528Z</time></trkpt><trkpt lat="43.4344933" lon="10.8923983"><ele>199.0</ele><time>2026-04-18T09:51:21.528Z</time></trkpt><trkpt lat="43.4345317" lon="10.892505"><ele>198.33333333333334</ele><time>2026-04-18T09:51:22.528Z</time></trkpt><trkpt lat="43.4345733" lon="10.892615"><ele>197.66666666666669</ele><time>2026-04-18T09:51:23.528Z</time></trkpt><trkpt lat="43.43461" lon="10.8927267"><ele>197.0</ele><time>2026-04-18T09:51:24.529Z</time></trkpt><trkpt lat="43.4346483" lon="10.8928433"><ele>196.66666666666669</ele><time>2026-04-18T09:51:25.528Z</time></trkpt><trkpt lat="43.4346667" lon="10.8929667"><ele>196.33333333333334</ele><time>2026-04-18T09:51:26.528Z</time></trkpt><trkpt lat="43.4346733" lon="10.8930867"><ele>196.0</ele><time>2026-04-18T09:51:27.529Z</time></trkpt><trkpt lat="43.4346767" lon="10.89321"><ele>195.66666666666669</ele><time>2026-04-18T09:51:28.528Z</time></trkpt><trkpt lat="43.434685" lon="10.8933383"><ele>195.33333333333334</ele><time>2026-04-18T09:51:29.528Z</time></trkpt><trkpt lat="43.4346917" lon="10.8934583"><ele>195.0</ele><time>2026-04-18T09:51:30.528Z</time></trkpt><trkpt lat="43.4347" lon="10.893565"><ele>195.0</ele><time>2026-04-18T09:51:31.529Z</time></trkpt><trkpt lat="43.4347133" lon="10.8936583"><ele>195.0</ele><time>2026-04-18T09:51:32.528Z</time></trkpt><trkpt lat="43.4347167" lon="10.8937983"><ele>195.0</ele><time>2026-04-18T09:51:34.528Z</time></trkpt><trkpt lat="43.4346717" lon="10.8939017"><ele>195.0</ele><time>2026-04-18T09:51:36.529Z</time></trkpt><trkpt lat="43.4345817" lon="10.8939167"><ele>195.0</ele><time>2026-04-18T09:51:38.528Z</time></trkpt><trkpt lat="43.4344883" lon="10.8937983"><ele>194.0</ele><time>2026-04-18T09:51:40.528Z</time></trkpt><trkpt lat="43.43442" lon="10.8937017"><ele>193.0</ele><time>2026-04-18T09:51:41.527Z</time></trkpt><trkpt lat="43.43434" lon="10.8936"><ele>192.0</ele><time>2026-04-18T09:51:42.527Z</time></trkpt><trkpt lat="43.434255" lon="10.893495"><ele>191.0</ele><time>2026-04-18T09:51:43.527Z</time></trkpt><trkpt lat="43.4341583" lon="10.8934167"><ele>190.0</ele><time>2026-04-18T09:51:44.527Z</time></trkpt><trkpt lat="43.4340567" lon="10.8933383"><ele>190.0</ele><time>2026-04-18T09:51:45.527Z</time></trkpt><trkpt lat="43.4339617" lon="10.8932633"><ele>190.0</ele><time>2026-04-18T09:51:46.527Z</time></trkpt><trkpt lat="43.4338617" lon="10.893205"><ele>190.0</ele><time>2026-04-18T09:51:47.527Z</time></trkpt><trkpt lat="43.4337717" lon="10.8931317"><ele>190.0</ele><time>2026-04-18T09:51:48.527Z</time></trkpt><trkpt lat="43.43368" lon="10.8930567"><ele>190.0</ele><time>2026-04-18T09:51:49.527Z</time></trkpt><trkpt lat="43.4335933" lon="10.892975"><ele>188.0</ele><time>2026-04-18T09:51:50.527Z</time></trkpt><trkpt lat="43.433515" lon="10.89289"><ele>186.0</ele><time>2026-04-18T09:51:51.527Z</time></trkpt><trkpt lat="43.4334467" lon="10.892825"><ele>184.0</ele><time>2026-04-18T09:51:52.527Z</time></trkpt><trkpt lat="43.4333833" lon="10.8927667"><ele>182.0</ele><time>2026-04-18T09:51:53.527Z</time></trkpt><trkpt lat="43.4333183" lon="10.8927183"><ele>180.0</ele><time>2026-04-18T09:51:54.527Z</time></trkpt><trkpt lat="43.4332517" lon="10.8926817"><ele>178.0</ele><time>2026-04-18T09:51:55.527Z</time></trkpt><trkpt lat="43.4331833" lon="10.892655"><ele>178.0</ele><time>2026-04-18T09:51:56.527Z</time></trkpt><trkpt lat="43.4331067" lon="10.892645"><ele>178.0</ele><time>2026-04-18T09:51:57.527Z</time></trkpt><trkpt lat="43.433025" lon="10.8926517"><ele>178.0</ele><time>2026-04-18T09:51:58.527Z</time></trkpt><trkpt lat="43.4329383" lon="10.8926667"><ele>178.0</ele><time>2026-04-18T09:51:59.527Z</time></trkpt><trkpt lat="43.4328367" lon="10.8926933"><ele>178.0</ele><time>2026-04-18T09:52:00.527Z</time></trkpt><trkpt lat="43.43273" lon="10.89273"><ele>177.0</ele><time>2026-04-18T09:52:01.527Z</time></trkpt><trkpt lat="43.4326183" lon="10.8927683"><ele>176.0</ele><time>2026-04-18T09:52:02.527Z</time></trkpt><trkpt lat="43.4325067" lon="10.8927967"><ele>175.0</ele><time>2026-04-18T09:52:03.527Z</time></trkpt><trkpt lat="43.4323933" lon="10.8928333"><ele>174.0</ele><time>2026-04-18T09:52:04.527Z</time></trkpt><trkpt lat="43.4322917" lon="10.8928533"><ele>173.0</ele><time>2026-04-18T09:52:05.527Z</time></trkpt><trkpt lat="43.4321933" lon="10.8928783"><ele>174.0</ele><time>2026-04-18T09:52:06.527Z</time></trkpt><trkpt lat="43.4321017" lon="10.892895"><ele>175.0</ele><time>2026-04-18T09:52:07.527Z</time></trkpt><trkpt lat="43.4320267" lon="10.8929133"><ele>176.0</ele><time>2026-04-18T09:52:08.527Z</time></trkpt><trkpt lat="43.431925" lon="10.892955"><ele>177.0</ele><time>2026-04-18T09:52:10.527Z</time></trkpt><trkpt lat="43.4318733" lon="10.8930517"><ele>178.0</ele><time>2026-04-18T09:52:14.527Z</time></trkpt><trkpt lat="43.43187" lon="10.8931767"><ele>178.0</ele><time>2026-04-18T09:52:16.527Z</time></trkpt><trkpt lat="43.4318933" lon="10.8933367"><ele>178.0</ele><time>2026-04-18T09:52:18.527Z</time></trkpt><trkpt lat="43.4319117" lon="10.893435"><ele>178.0</ele><time>2026-04-18T09:52:19.527Z</time></trkpt><trkpt lat="43.4319117" lon="10.8935533"><ele>178.0</ele><time>2026-04-18T09:52:20.527Z</time></trkpt><trkpt lat="43.4319133" lon="10.893695"><ele>178.0</ele><time>2026-04-18T09:52:21.527Z</time></trkpt><trkpt lat="43.431895" lon="10.8938467"><ele>178.0</ele><time>2026-04-18T09:52:22.527Z</time></trkpt><trkpt lat="43.4318567" lon="10.89401"><ele>178.0</ele><time>2026-04-18T09:52:23.527Z</time></trkpt><trkpt lat="43.4318183" lon="10.8941567"><ele>178.0</ele><time>2026-04-18T09:52:24.527Z</time></trkpt><trkpt lat="43.431775" lon="10.89429"><ele>178.0</ele><time>2026-04-18T09:52:25.527Z</time></trkpt><trkpt lat="43.43173" lon="10.894415"><ele>178.0</ele><time>2026-04-18T09:52:26.528Z</time></trkpt><trkpt lat="43.4316733" lon="10.8945367"><ele>178.0</ele><time>2026-04-18T09:52:27.528Z</time></trkpt><trkpt lat="43.4315383" lon="10.8947517"><ele>178.0</ele><time>2026-04-18T09:52:29.527Z</time></trkpt><trkpt lat="43.4314883" lon="10.894835"><ele>178.0</ele><time>2026-04-18T09:52:30.528Z</time></trkpt><trkpt lat="43.4314583" lon="10.894915"><ele>178.0</ele><time>2026-04-18T09:52:31.527Z</time></trkpt><trkpt lat="43.4314467" lon="10.8950683"><ele>178.60000000000002</ele><time>2026-04-18T09:52:33.528Z</time></trkpt><trkpt lat="43.43148" lon="10.89524"><ele>179.20000000000002</ele><time>2026-04-18T09:52:35.527Z</time></trkpt><trkpt lat="43.4315" lon="10.8953517"><ele>179.8</ele><time>2026-04-18T09:52:36.527Z</time></trkpt><trkpt lat="43.4315383" lon="10.8954683"><ele>180.4</ele><time>2026-04-18T09:52:37.527Z</time></trkpt><trkpt lat="43.431575" lon="10.8955983"><ele>181.0</ele><time>2026-04-18T09:52:38.528Z</time></trkpt><trkpt lat="43.4316117" lon="10.8957317"><ele>181.0</ele><time>2026-04-18T09:52:39.527Z</time></trkpt><trkpt lat="43.4316333" lon="10.8958633"><ele>181.0</ele><time>2026-04-18T09:52:40.527Z</time></trkpt><trkpt lat="43.4316567" lon="10.8959733"><ele>181.0</ele><time>2026-04-18T09:52:41.528Z</time></trkpt><trkpt lat="43.4316667" lon="10.8960733"><ele>181.0</ele><time>2026-04-18T09:52:42.527Z</time></trkpt><trkpt lat="43.43165" lon="10.8962067"><ele>181.0</ele><time>2026-04-18T09:52:44.528Z</time></trkpt><trkpt lat="43.431585" lon="10.8962733"><ele>181.0</ele><time>2026-04-18T09:52:46.527Z</time></trkpt><trkpt lat="43.43151" lon="10.8962383"><ele>181.83333333333334</ele><time>2026-04-18T09:52:48.527Z</time></trkpt><trkpt lat="43.4314317" lon="10.8961567"><ele>182.66666666666669</ele><time>2026-04-18T09:52:50.527Z</time></trkpt><trkpt lat="43.4313367" lon="10.896055"><ele>183.5</ele><time>2026-04-18T09:52:52.527Z</time></trkpt><trkpt lat="43.4312783" lon="10.8960117"><ele>184.33333333333334</ele><time>2026-04-18T09:52:53.527Z</time></trkpt><trkpt lat="43.4312083" lon="10.8959833"><ele>185.16666666666666</ele><time>2026-04-18T09:52:54.527Z</time></trkpt><trkpt lat="43.431125" lon="10.89596"><ele>186.0</ele><time>2026-04-18T09:52:55.527Z</time></trkpt><trkpt lat="43.43104" lon="10.8959283"><ele>186.66666666666666</ele><time>2026-04-18T09:52:56.528Z</time></trkpt><trkpt lat="43.430955" lon="10.8959"><ele>187.33333333333334</ele><time>2026-04-18T09:52:57.527Z</time></trkpt><trkpt lat="43.43088" lon="10.8958667"><ele>188.0</ele><time>2026-04-18T09:52:58.527Z</time></trkpt><trkpt lat="43.4308083" lon="10.89584"><ele>188.66666666666669</ele><time>2026-04-18T09:52:59.527Z</time></trkpt><trkpt lat="43.4307033" lon="10.8958333"><ele>189.33333333333334</ele><time>2026-04-18T09:53:01.527Z</time></trkpt><trkpt lat="43.4306467" lon="10.8958867"><ele>190.0</ele><time>2026-04-18T09:53:03.527Z</time></trkpt><trkpt lat="43.4306133" lon="10.895995"><ele>191.83333333333334</ele><time>2026-04-18T09:53:05.527Z</time></trkpt><trkpt lat="43.43065" lon="10.8961417"><ele>193.66666666666669</ele><time>2026-04-18T09:53:07.527Z</time></trkpt><trkpt lat="43.43069" lon="10.8962117"><ele>195.5</ele><time>2026-04-18T09:53:08.527Z</time></trkpt><trkpt lat="43.4307367" lon="10.89628"><ele>197.33333333333334</ele><time>2026-04-18T09:53:09.527Z</time></trkpt><trkpt lat="43.430795" lon="10.8963567"><ele>199.16666666666666</ele><time>2026-04-18T09:53:10.527Z</time></trkpt><trkpt lat="43.4308533" lon="10.8964467"><ele>201.0</ele><time>2026-04-18T09:53:11.528Z</time></trkpt><trkpt lat="43.43092" lon="10.8965417"><ele>201.0</ele><time>2026-04-18T09:53:12.527Z</time></trkpt><trkpt lat="43.4309667" lon="10.8966317"><ele>201.0</ele><time>2026-04-18T09:53:13.527Z</time></trkpt><trkpt lat="43.431" lon="10.8967317"><ele>201.0</ele><time>2026-04-18T09:53:14.527Z</time></trkpt><trkpt lat="43.43102" lon="10.89684"><ele>201.0</ele><time>2026-04-18T09:53:15.527Z</time></trkpt><trkpt lat="43.4310283" lon="10.896945"><ele>201.0</ele><time>2026-04-18T09:53:16.527Z</time></trkpt><trkpt lat="43.431025" lon="10.8970483"><ele>201.0</ele><time>2026-04-18T09:53:17.527Z</time></trkpt><trkpt lat="43.4310083" lon="10.8971483"><ele>202.33333333333334</ele><time>2026-04-18T09:53:18.527Z</time></trkpt><trkpt lat="43.430985" lon="10.8972433"><ele>203.66666666666669</ele><time>2026-04-18T09:53:19.527Z</time></trkpt><trkpt lat="43.430945" lon="10.8973333"><ele>205.0</ele><time>2026-04-18T09:53:20.527Z</time></trkpt><trkpt lat="43.4308683" lon="10.8974183"><ele>206.33333333333334</ele><time>2026-04-18T09:53:22.527Z</time></trkpt><trkpt lat="43.4307983" lon="10.897395"><ele>207.66666666666669</ele><time>2026-04-18T09:53:24.527Z</time></trkpt><trkpt lat="43.43072" lon="10.8972883"><ele>209.0</ele><time>2026-04-18T09:53:26.527Z</time></trkpt><trkpt lat="43.4306733" lon="10.8972217"><ele>209.0</ele><time>2026-04-18T09:53:27.527Z</time></trkpt><trkpt lat="43.430575" lon="10.8971317"><ele>209.0</ele><time>2026-04-18T09:53:29.527Z</time></trkpt><trkpt lat="43.430455" lon="10.897145"><ele>209.0</ele><time>2026-04-18T09:53:31.527Z</time></trkpt><trkpt lat="43.4303783" lon="10.89719"><ele>209.0</ele><time>2026-04-18T09:53:32.527Z</time></trkpt><trkpt lat="43.4302967" lon="10.8972517"><ele>209.0</ele><time>2026-04-18T09:53:33.527Z</time></trkpt><trkpt lat="43.4302017" lon="10.897305"><ele>210.16666666666669</ele><time>2026-04-18T09:53:34.527Z</time></trkpt><trkpt lat="43.4301183" lon="10.8973667"><ele>211.33333333333334</ele><time>2026-04-18T09:53:35.527Z</time></trkpt><trkpt lat="43.4300517" lon="10.8974267"><ele>212.5</ele><time>2026-04-18T09:53:36.527Z</time></trkpt><trkpt lat="43.429995" lon="10.8974833"><ele>213.66666666666669</ele><time>2026-04-18T09:53:37.527Z</time></trkpt><trkpt lat="43.4299367" lon="10.8976317"><ele>214.83333333333334</ele><time>2026-04-18T09:53:39.527Z</time></trkpt><trkpt lat="43.4299133" lon="10.8977367"><ele>216.0</ele><time>2026-04-18T09:53:40.527Z</time></trkpt><trkpt lat="43.4299017" lon="10.8978567"><ele>217.20000000000002</ele><time>2026-04-18T09:53:41.527Z</time></trkpt><trkpt lat="43.4299067" lon="10.8979817"><ele>218.40000000000003</ele><time>2026-04-18T09:53:42.527Z</time></trkpt><trkpt lat="43.42992" lon="10.89812"><ele>219.6</ele><time>2026-04-18T09:53:43.527Z</time></trkpt><trkpt lat="43.42993" lon="10.8982517"><ele>220.8</ele><time>2026-04-18T09:53:44.527Z</time></trkpt><trkpt lat="43.4299383" lon="10.8983983"><ele>222.0</ele><time>2026-04-18T09:53:45.527Z</time></trkpt><trkpt lat="43.4299517" lon="10.8985567"><ele>223.0</ele><time>2026-04-18T09:53:46.527Z</time></trkpt><trkpt lat="43.4299717" lon="10.8986983"><ele>224.0</ele><time>2026-04-18T09:53:47.527Z</time></trkpt><trkpt lat="43.4299867" lon="10.89881"><ele>225.0</ele><time>2026-04-18T09:53:48.527Z</time></trkpt><trkpt lat="43.4299883" lon="10.898905"><ele>226.0</ele><time>2026-04-18T09:53:49.527Z</time></trkpt><trkpt lat="43.4299617" lon="10.8990333"><ele>227.0</ele><time>2026-04-18T09:53:51.527Z</time></trkpt><trkpt lat="43.4298917" lon="10.899065"><ele>228.0</ele><time>2026-04-18T09:53:53.527Z</time></trkpt><trkpt lat="43.429775" lon="10.8990483"><ele>228.0</ele><time>2026-04-18T09:53:55.528Z</time></trkpt><trkpt lat="43.4296633" lon="10.8990067"><ele>228.0</ele><time>2026-04-18T09:53:57.527Z</time></trkpt><trkpt lat="43.4295517" lon="10.89901"><ele>228.0</ele><time>2026-04-18T09:53:59.527Z</time></trkpt><trkpt lat="43.4294267" lon="10.8990383"><ele>228.0</ele><time>2026-04-18T09:54:01.527Z</time></trkpt><trkpt lat="43.4293517" lon="10.8990667"><ele>228.0</ele><time>2026-04-18T09:54:02.528Z</time></trkpt><trkpt lat="43.4292717" lon="10.8991"><ele>229.33333333333334</ele><time>2026-04-18T09:54:03.527Z</time></trkpt><trkpt lat="43.4292017" lon="10.8991317"><ele>230.66666666666669</ele><time>2026-04-18T09:54:04.527Z</time></trkpt><trkpt lat="43.429105" lon="10.89918"><ele>232.0</ele><time>2026-04-18T09:54:06.527Z</time></trkpt><trkpt lat="43.4290483" lon="10.8992367"><ele>233.33333333333334</ele><time>2026-04-18T09:54:08.527Z</time></trkpt><trkpt lat="43.42901" lon="10.8993367"><ele>234.66666666666669</ele><time>2026-04-18T09:54:10.527Z</time></trkpt><trkpt lat="43.4290183" lon="10.8994617"><ele>236.0</ele><time>2026-04-18T09:54:12.527Z</time></trkpt><trkpt lat="43.4290817" lon="10.8996233"><ele>237.33333333333334</ele><time>2026-04-18T09:54:14.527Z</time></trkpt><trkpt lat="43.4291283" lon="10.899725"><ele>238.66666666666669</ele><time>2026-04-18T09:54:15.527Z</time></trkpt><trkpt lat="43.42917" lon="10.8998133"><ele>240.0</ele><time>2026-04-18T09:54:16.527Z</time></trkpt><trkpt lat="43.4291933" lon="10.8999"><ele>241.33333333333331</ele><time>2026-04-18T09:54:17.528Z</time></trkpt><trkpt lat="43.429215" lon="10.8999967"><ele>242.66666666666666</ele><time>2026-04-18T09:54:18.528Z</time></trkpt><trkpt lat="43.42921" lon="10.90011"><ele>244.0</ele><time>2026-04-18T09:54:19.527Z</time></trkpt><trkpt lat="43.4292" lon="10.9002233"><ele>244.83333333333331</ele><time>2026-04-18T09:54:20.527Z</time></trkpt><trkpt lat="43.4291667" lon="10.9003217"><ele>245.66666666666666</ele><time>2026-04-18T09:54:21.527Z</time></trkpt><trkpt lat="43.4291233" lon="10.9004017"><ele>246.5</ele><time>2026-04-18T09:54:22.527Z</time></trkpt><trkpt lat="43.4290717" lon="10.9004683"><ele>247.33333333333331</ele><time>2026-04-18T09:54:23.527Z</time></trkpt><trkpt lat="43.429" lon="10.90052"><ele>248.16666666666666</ele><time>2026-04-18T09:54:24.527Z</time></trkpt><trkpt lat="43.42892" lon="10.9005467"><ele>249.0</ele><time>2026-04-18T09:54:25.527Z</time></trkpt><trkpt lat="43.42884" lon="10.9005633"><ele>250.14285714285714</ele><time>2026-04-18T09:54:26.527Z</time></trkpt><trkpt lat="43.4287683" lon="10.9005933"><ele>251.28571428571428</ele><time>2026-04-18T09:54:27.527Z</time></trkpt><trkpt lat="43.428715" lon="10.9006417"><ele>252.42857142857142</ele><time>2026-04-18T09:54:28.527Z</time></trkpt><trkpt lat="43.4286733" lon="10.90071"><ele>253.57142857142856</ele><time>2026-04-18T09:54:29.527Z</time></trkpt><trkpt lat="43.42865" lon="10.9008083"><ele>254.71428571428572</ele><time>2026-04-18T09:54:30.527Z</time></trkpt><trkpt lat="43.4286367" lon="10.9009183"><ele>255.85714285714283</ele><time>2026-04-18T09:54:31.528Z</time></trkpt><trkpt lat="43.4286417" lon="10.9010367"><ele>257.0</ele><time>2026-04-18T09:54:32.527Z</time></trkpt><trkpt lat="43.4286633" lon="10.901165"><ele>256.5</ele><time>2026-04-18T09:54:33.527Z</time></trkpt><trkpt lat="43.4287017" lon="10.9012917"><ele>256.0</ele><time>2026-04-18T09:54:34.527Z</time></trkpt><trkpt lat="43.4287667" lon="10.901425"><ele>255.5</ele><time>2026-04-18T09:54:35.527Z</time></trkpt><trkpt lat="43.42885" lon="10.90155"><ele>255.0</ele><time>2026-04-18T09:54:36.527Z</time></trkpt><trkpt lat="43.4289433" lon="10.9016683"><ele>258.25</ele><time>2026-04-18T09:54:37.527Z</time></trkpt><trkpt lat="43.429035" lon="10.9017833"><ele>261.5</ele><time>2026-04-18T09:54:38.527Z</time></trkpt><trkpt lat="43.4291217" lon="10.9019167"><ele>264.75</ele><time>2026-04-18T09:54:39.527Z</time></trkpt><trkpt lat="43.4292117" lon="10.9020533"><ele>268.0</ele><time>2026-04-18T09:54:40.528Z</time></trkpt><trkpt lat="43.4293117" lon="10.9021717"><ele>268.0</ele><time>2026-04-18T09:54:41.527Z</time></trkpt><trkpt lat="43.4294283" lon="10.90228"><ele>268.0</ele><time>2026-04-18T09:54:42.527Z</time></trkpt><trkpt lat="43.4295267" lon="10.902375"><ele>268.0</ele><time>2026-04-18T09:54:43.527Z</time></trkpt><trkpt lat="43.429605" lon="10.902455"><ele>268.0</ele><time>2026-04-18T09:54:44.527Z</time></trkpt><trkpt lat="43.4296633" lon="10.902515"><ele>268.0</ele><time>2026-04-18T09:54:45.527Z</time></trkpt><trkpt lat="43.42973" lon="10.9026167"><ele>268.16666666666663</ele><time>2026-04-18T09:54:47.527Z</time></trkpt><trkpt lat="43.4297083" lon="10.9027333"><ele>268.3333333333333</ele><time>2026-04-18T09:54:49.527Z</time></trkpt><trkpt lat="43.4296233" lon="10.9028"><ele>268.5</ele><time>2026-04-18T09:54:51.527Z</time></trkpt><trkpt lat="43.4295567" lon="10.902805"><ele>268.6666666666667</ele><time>2026-04-18T09:54:52.527Z</time></trkpt><trkpt lat="43.4294667" lon="10.9028083"><ele>268.83333333333337</ele><time>2026-04-18T09:54:53.527Z</time></trkpt><trkpt lat="43.42937" lon="10.9028067"><ele>269.0</ele><time>2026-04-18T09:54:54.527Z</time></trkpt><trkpt lat="43.42928" lon="10.9027833"><ele>268.83333333333337</ele><time>2026-04-18T09:54:55.527Z</time></trkpt><trkpt lat="43.4292083" lon="10.902745"><ele>268.6666666666667</ele><time>2026-04-18T09:54:56.527Z</time></trkpt><trkpt lat="43.4291533" lon="10.9026733"><ele>268.5</ele><time>2026-04-18T09:54:57.528Z</time></trkpt><trkpt lat="43.4291167" lon="10.9025783"><ele>268.3333333333333</ele><time>2026-04-18T09:54:58.527Z</time></trkpt><trkpt lat="43.4290767" lon="10.902495"><ele>268.16666666666663</ele><time>2026-04-18T09:54:59.528Z</time></trkpt><trkpt lat="43.429" lon="10.9023683"><ele>268.0</ele><time>2026-04-18T09:55:01.527Z</time></trkpt><trkpt lat="43.4289083" lon="10.9022883"><ele>269.66666666666663</ele><time>2026-04-18T09:55:03.526Z</time></trkpt><trkpt lat="43.4288" lon="10.9022333"><ele>271.3333333333333</ele><time>2026-04-18T09:55:05.526Z</time></trkpt><trkpt lat="43.4287367" lon="10.9022233"><ele>273.0</ele><time>2026-04-18T09:55:06.526Z</time></trkpt><trkpt lat="43.428665" lon="10.9022367"><ele>274.6666666666667</ele><time>2026-04-18T09:55:07.526Z</time></trkpt><trkpt lat="43.4285817" lon="10.9022583"><ele>276.33333333333337</ele><time>2026-04-18T09:55:08.526Z</time></trkpt><trkpt lat="43.4284783" lon="10.9023017"><ele>278.0</ele><time>2026-04-18T09:55:09.527Z</time></trkpt><trkpt lat="43.4283733" lon="10.9023317"><ele>278.0</ele><time>2026-04-18T09:55:10.526Z</time></trkpt><trkpt lat="43.4282667" lon="10.9023433"><ele>278.0</ele><time>2026-04-18T09:55:11.526Z</time></trkpt><trkpt lat="43.4281633" lon="10.9023183"><ele>278.0</ele><time>2026-04-18T09:55:12.526Z</time></trkpt><trkpt lat="43.4280567" lon="10.9022633"><ele>278.0</ele><time>2026-04-18T09:55:13.527Z</time></trkpt><trkpt lat="43.42796" lon="10.90221"><ele>278.0</ele><time>2026-04-18T09:55:14.526Z</time></trkpt><trkpt lat="43.427875" lon="10.902165"><ele>278.5</ele><time>2026-04-18T09:55:15.527Z</time></trkpt><trkpt lat="43.4278083" lon="10.90214"><ele>279.0</ele><time>2026-04-18T09:55:16.526Z</time></trkpt><trkpt lat="43.4277083" lon="10.9021433"><ele>279.5</ele><time>2026-04-18T09:55:18.526Z</time></trkpt><trkpt lat="43.4276283" lon="10.9022117"><ele>280.0</ele><time>2026-04-18T09:55:20.526Z</time></trkpt><trkpt lat="43.4276" lon="10.9023117"><ele>280.5</ele><time>2026-04-18T09:55:22.527Z</time></trkpt><trkpt lat="43.4276433" lon="10.9024467"><ele>281.0</ele><time>2026-04-18T09:55:24.526Z</time></trkpt><trkpt lat="43.42769" lon="10.9025167"><ele>281.0</ele><time>2026-04-18T09:55:25.526Z</time></trkpt><trkpt lat="43.4277517" lon="10.90258"><ele>281.0</ele><time>2026-04-18T09:55:26.526Z</time></trkpt><trkpt lat="43.42782" lon="10.902645"><ele>281.0</ele><time>2026-04-18T09:55:27.526Z</time></trkpt><trkpt lat="43.4278917" lon="10.9027117"><ele>281.0</ele><time>2026-04-18T09:55:28.526Z</time></trkpt><trkpt lat="43.427965" lon="10.902775"><ele>281.0</ele><time>2026-04-18T09:55:29.526Z</time></trkpt><trkpt lat="43.428035" lon="10.9028433"><ele>281.0</ele><time>2026-04-18T09:55:30.526Z</time></trkpt><trkpt lat="43.4281" lon="10.9029"><ele>282.0</ele><time>2026-04-18T09:55:31.526Z</time></trkpt><trkpt lat="43.4281717" lon="10.9029567"><ele>283.0</ele><time>2026-04-18T09:55:32.526Z</time></trkpt><trkpt lat="43.42824" lon="10.9030233"><ele>284.0</ele><time>2026-04-18T09:55:33.526Z</time></trkpt><trkpt lat="43.4283083" lon="10.9030867"><ele>285.0</ele><time>2026-04-18T09:55:34.526Z</time></trkpt><trkpt lat="43.4283867" lon="10.9031583"><ele>286.0</ele><time>2026-04-18T09:55:35.526Z</time></trkpt><trkpt lat="43.42845" lon="10.903245"><ele>287.0</ele><time>2026-04-18T09:55:36.526Z</time></trkpt><trkpt lat="43.4285033" lon="10.9033467"><ele>288.8</ele><time>2026-04-18T09:55:37.526Z</time></trkpt><trkpt lat="43.4285717" lon="10.903455"><ele>290.6</ele><time>2026-04-18T09:55:38.526Z</time></trkpt><trkpt lat="43.4286333" lon="10.9035767"><ele>292.40000000000003</ele><time>2026-04-18T09:55:39.526Z</time></trkpt><trkpt lat="43.4286867" lon="10.9037167"><ele>294.2</ele><time>2026-04-18T09:55:40.526Z</time></trkpt><trkpt lat="43.4287383" lon="10.9038483"><ele>296.0</ele><time>2026-04-18T09:55:41.526Z</time></trkpt><trkpt lat="43.4287833" lon="10.9039717"><ele>295.5</ele><time>2026-04-18T09:55:42.526Z</time></trkpt><trkpt lat="43.428825" lon="10.9041083"><ele>295.0</ele><time>2026-04-18T09:55:43.526Z</time></trkpt><trkpt lat="43.42886" lon="10.9042583"><ele>294.5</ele><time>2026-04-18T09:55:44.527Z</time></trkpt><trkpt lat="43.4288967" lon="10.9044117"><ele>294.0</ele><time>2026-04-18T09:55:45.526Z</time></trkpt><trkpt lat="43.42893" lon="10.9045583"><ele>294.0</ele><time>2026-04-18T09:55:46.526Z</time></trkpt><trkpt lat="43.42896" lon="10.9046933"><ele>294.0</ele><time>2026-04-18T09:55:47.526Z</time></trkpt><trkpt lat="43.429" lon="10.9048017"><ele>294.0</ele><time>2026-04-18T09:55:48.526Z</time></trkpt><trkpt lat="43.4290517" lon="10.90492"><ele>294.0</ele><time>2026-04-18T09:55:49.526Z</time></trkpt><trkpt lat="43.42912" lon="10.9050267"><ele>294.0</ele><time>2026-04-18T09:55:50.526Z</time></trkpt><trkpt lat="43.4291917" lon="10.9051233"><ele>295.6666666666667</ele><time>2026-04-18T09:55:51.526Z</time></trkpt><trkpt lat="43.4292717" lon="10.9052183"><ele>297.3333333333333</ele><time>2026-04-18T09:55:52.526Z</time></trkpt><trkpt lat="43.4293333" lon="10.90531"><ele>299.0</ele><time>2026-04-18T09:55:53.526Z</time></trkpt><trkpt lat="43.4293967" lon="10.9054117"><ele>300.66666666666663</ele><time>2026-04-18T09:55:54.526Z</time></trkpt><trkpt lat="43.4294267" lon="10.905505"><ele>302.3333333333333</ele><time>2026-04-18T09:55:55.526Z</time></trkpt><trkpt lat="43.4294383" lon="10.9056017"><ele>304.0</ele><time>2026-04-18T09:55:56.526Z</time></trkpt><trkpt lat="43.4294133" lon="10.9057667"><ele>304.0</ele><time>2026-04-18T09:55:58.526Z</time></trkpt><trkpt lat="43.4293633" lon="10.9058283"><ele>304.0</ele><time>2026-04-18T09:55:59.526Z</time></trkpt><trkpt lat="43.4293067" lon="10.9058717"><ele>304.0</ele><time>2026-04-18T09:56:00.526Z</time></trkpt><trkpt lat="43.4291817" lon="10.905865"><ele>304.0</ele><time>2026-04-18T09:56:02.526Z</time></trkpt><trkpt lat="43.4291033" lon="10.9058283"><ele>304.0</ele><time>2026-04-18T09:56:03.526Z</time></trkpt><trkpt lat="43.4290167" lon="10.9057683"><ele>304.0</ele><time>2026-04-18T09:56:04.526Z</time></trkpt><trkpt lat="43.428925" lon="10.9057"><ele>304.0</ele><time>2026-04-18T09:56:05.527Z</time></trkpt><trkpt lat="43.4288233" lon="10.9056383"><ele>304.0</ele><time>2026-04-18T09:56:06.526Z</time></trkpt><trkpt lat="43.4287183" lon="10.9055783"><ele>304.0</ele><time>2026-04-18T09:56:07.526Z</time></trkpt><trkpt lat="43.4286033" lon="10.9055067"><ele>304.0</ele><time>2026-04-18T09:56:08.526Z</time></trkpt><trkpt lat="43.4284817" lon="10.905445"><ele>307.25</ele><time>2026-04-18T09:56:09.526Z</time></trkpt><trkpt lat="43.428365" lon="10.9053867"><ele>310.5</ele><time>2026-04-18T09:56:10.527Z</time></trkpt><trkpt lat="43.4282617" lon="10.905325"><ele>313.75</ele><time>2026-04-18T09:56:11.526Z</time></trkpt><trkpt lat="43.428155" lon="10.9052633"><ele>317.0</ele><time>2026-04-18T09:56:12.526Z</time></trkpt><trkpt lat="43.4280467" lon="10.9051967"><ele>317.25</ele><time>2026-04-18T09:56:13.526Z</time></trkpt><trkpt lat="43.427945" lon="10.9051233"><ele>317.5</ele><time>2026-04-18T09:56:14.526Z</time></trkpt><trkpt lat="43.4278367" lon="10.90504"><ele>317.75</ele><time>2026-04-18T09:56:15.526Z</time></trkpt><trkpt lat="43.4277233" lon="10.904965"><ele>318.0</ele><time>2026-04-18T09:56:16.526Z</time></trkpt><trkpt lat="43.4276183" lon="10.9048917"><ele>318.0</ele><time>2026-04-18T09:56:17.526Z</time></trkpt><trkpt lat="43.4275217" lon="10.904845"><ele>318.0</ele><time>2026-04-18T09:56:18.526Z</time></trkpt><trkpt lat="43.4274467" lon="10.9048033"><ele>318.0</ele><time>2026-04-18T09:56:19.526Z</time></trkpt><trkpt lat="43.4273833" lon="10.9047867"><ele>318.0</ele><time>2026-04-18T09:56:20.526Z</time></trkpt><trkpt lat="43.4272717" lon="10.90483"><ele>318.0</ele><time>2026-04-18T09:56:22.526Z</time></trkpt><trkpt lat="43.4272217" lon="10.9048833"><ele>318.0</ele><time>2026-04-18T09:56:23.527Z</time></trkpt><trkpt lat="43.42718" lon="10.9049667"><ele>318.0</ele><time>2026-04-18T09:56:24.526Z</time></trkpt><trkpt lat="43.4271383" lon="10.9050667"><ele>318.0</ele><time>2026-04-18T09:56:25.526Z</time></trkpt><trkpt lat="43.427085" lon="10.9051783"><ele>318.0</ele><time>2026-04-18T09:56:26.527Z</time></trkpt><trkpt lat="43.4270367" lon="10.9052783"><ele>318.0</ele><time>2026-04-18T09:56:27.526Z</time></trkpt><trkpt lat="43.42698" lon="10.9053683"><ele>318.0</ele><time>2026-04-18T09:56:28.526Z</time></trkpt><trkpt lat="43.4269067" lon="10.905435"><ele>318.0</ele><time>2026-04-18T09:56:29.526Z</time></trkpt><trkpt lat="43.4267517" lon="10.9055"><ele>320.1666666666667</ele><time>2026-04-18T09:56:31.526Z</time></trkpt><trkpt lat="43.4266583" lon="10.905545"><ele>322.3333333333333</ele><time>2026-04-18T09:56:33.526Z</time></trkpt><trkpt lat="43.4266217" lon="10.905625"><ele>324.5</ele><time>2026-04-18T09:56:35.526Z</time></trkpt><trkpt lat="43.4266417" lon="10.9057167"><ele>326.66666666666663</ele><time>2026-04-18T09:56:37.526Z</time></trkpt><trkpt lat="43.4267333" lon="10.9058067"><ele>328.8333333333333</ele><time>2026-04-18T09:56:39.527Z</time></trkpt><trkpt lat="43.4267917" lon="10.905855"><ele>331.0</ele><time>2026-04-18T09:56:40.526Z</time></trkpt><trkpt lat="43.4268583" lon="10.9059067"><ele>333.20000000000005</ele><time>2026-04-18T09:56:41.526Z</time></trkpt><trkpt lat="43.4269233" lon="10.905955"><ele>335.40000000000003</ele><time>2026-04-18T09:56:42.526Z</time></trkpt><trkpt lat="43.4269917" lon="10.9060083"><ele>337.6</ele><time>2026-04-18T09:56:43.527Z</time></trkpt><trkpt lat="43.4270783" lon="10.9060717"><ele>339.8</ele><time>2026-04-18T09:56:44.526Z</time></trkpt><trkpt lat="43.4271717" lon="10.9061483"><ele>342.0</ele><time>2026-04-18T09:56:45.526Z</time></trkpt><trkpt lat="43.4272717" lon="10.9062283"><ele>342.0</ele><time>2026-04-18T09:56:46.527Z</time></trkpt><trkpt lat="43.4273483" lon="10.9063017"><ele>342.0</ele><time>2026-04-18T09:56:47.526Z</time></trkpt><trkpt lat="43.4274217" lon="10.90637"><ele>342.0</ele><time>2026-04-18T09:56:48.526Z</time></trkpt><trkpt lat="43.4274767" lon="10.9064383"><ele>342.0</ele><time>2026-04-18T09:56:49.527Z</time></trkpt><trkpt lat="43.427515" lon="10.9065167"><ele>342.0</ele><time>2026-04-18T09:56:50.526Z</time></trkpt><trkpt lat="43.4275533" lon="10.9066233"><ele>342.0</ele><time>2026-04-18T09:56:51.526Z</time></trkpt><trkpt lat="43.4275933" lon="10.9067417"><ele>344.0</ele><time>2026-04-18T09:56:52.526Z</time></trkpt><trkpt lat="43.4276417" lon="10.9068567"><ele>346.0</ele><time>2026-04-18T09:56:53.526Z</time></trkpt><trkpt lat="43.4276917" lon="10.9069867"><ele>348.0</ele><time>2026-04-18T09:56:54.527Z</time></trkpt><trkpt lat="43.4277283" lon="10.9071117"><ele>350.0</ele><time>2026-04-18T09:56:55.526Z</time></trkpt><trkpt lat="43.4277583" lon="10.9072267"><ele>352.0</ele><time>2026-04-18T09:56:56.526Z</time></trkpt><trkpt lat="43.4277733" lon="10.9073433"><ele>352.0</ele><time>2026-04-18T09:56:57.526Z</time></trkpt><trkpt lat="43.4277917" lon="10.9074583"><ele>352.0</ele><time>2026-04-18T09:56:58.527Z</time></trkpt><trkpt lat="43.4278" lon="10.90757"><ele>352.0</ele><time>2026-04-18T09:56:59.526Z</time></trkpt><trkpt lat="43.4278017" lon="10.907675"><ele>352.0</ele><time>2026-04-18T09:57:00.526Z</time></trkpt><trkpt lat="43.427785" lon="10.9077683"><ele>352.0</ele><time>2026-04-18T09:57:01.526Z</time></trkpt><trkpt lat="43.427755" lon="10.907865"><ele>352.0</ele><time>2026-04-18T09:57:02.526Z</time></trkpt><trkpt lat="43.4277117" lon="10.9079767"><ele>352.8</ele><time>2026-04-18T09:57:03.526Z</time></trkpt><trkpt lat="43.4276567" lon="10.9080967"><ele>353.6</ele><time>2026-04-18T09:57:04.526Z</time></trkpt><trkpt lat="43.42761" lon="10.9082183"><ele>354.40000000000003</ele><time>2026-04-18T09:57:05.526Z</time></trkpt><trkpt lat="43.4275483" lon="10.90834"><ele>355.20000000000005</ele><time>2026-04-18T09:57:06.526Z</time></trkpt><trkpt lat="43.427485" lon="10.908435"><ele>356.0</ele><time>2026-04-18T09:57:07.526Z</time></trkpt><trkpt lat="43.4274283" lon="10.9085133"><ele>356.8</ele><time>2026-04-18T09:57:08.527Z</time></trkpt><trkpt lat="43.42736" lon="10.9085783"><ele>357.6</ele><time>2026-04-18T09:57:09.526Z</time></trkpt><trkpt lat="43.42729" lon="10.90862"><ele>358.4</ele><time>2026-04-18T09:57:10.526Z</time></trkpt><trkpt lat="43.4271767" lon="10.9086767"><ele>359.2</ele><time>2026-04-18T09:57:12.527Z</time></trkpt><trkpt lat="43.4271133" lon="10.9087817"><ele>360.0</ele><time>2026-04-18T09:57:14.527Z</time></trkpt><trkpt lat="43.4271267" lon="10.9089117"><ele>360.0</ele><time>2026-04-18T09:57:16.527Z</time></trkpt><trkpt lat="43.4271633" lon="10.908985"><ele>360.0</ele><time>2026-04-18T09:57:17.526Z</time></trkpt><trkpt lat="43.4272167" lon="10.909055"><ele>360.0</ele><time>2026-04-18T09:57:18.527Z</time></trkpt><trkpt lat="43.4272833" lon="10.9091183"><ele>360.0</ele><time>2026-04-18T09:57:19.527Z</time></trkpt><trkpt lat="43.4273583" lon="10.9091733"><ele>360.0</ele><time>2026-04-18T09:57:20.526Z</time></trkpt><trkpt lat="43.4274283" lon="10.9092283"><ele>360.0</ele><time>2026-04-18T09:57:21.526Z</time></trkpt><trkpt lat="43.4275117" lon="10.909295"><ele>361.5</ele><time>2026-04-18T09:57:22.526Z</time></trkpt><trkpt lat="43.4275967" lon="10.909365"><ele>363.0</ele><time>2026-04-18T09:57:23.526Z</time></trkpt><trkpt lat="43.4276683" lon="10.909445"><ele>364.5</ele><time>2026-04-18T09:57:24.526Z</time></trkpt><trkpt lat="43.4277233" lon="10.90954"><ele>366.0</ele><time>2026-04-18T09:57:25.526Z</time></trkpt><trkpt lat="43.4277633" lon="10.90963"><ele>367.5</ele><time>2026-04-18T09:57:26.526Z</time></trkpt><trkpt lat="43.427785" lon="10.9097367"><ele>369.0</ele><time>2026-04-18T09:57:27.526Z</time></trkpt><trkpt lat="43.4277883" lon="10.9098533"><ele>369.0</ele><time>2026-04-18T09:57:28.526Z</time></trkpt><trkpt lat="43.4277667" lon="10.9099683"><ele>369.0</ele><time>2026-04-18T09:57:29.526Z</time></trkpt><trkpt lat="43.427755" lon="10.910075"><ele>369.0</ele><time>2026-04-18T09:57:30.526Z</time></trkpt><trkpt lat="43.427745" lon="10.910185"><ele>369.0</ele><time>2026-04-18T09:57:31.526Z</time></trkpt><trkpt lat="43.4277483" lon="10.9103083"><ele>369.0</ele><time>2026-04-18T09:57:32.526Z</time></trkpt><trkpt lat="43.4277817" lon="10.9104167"><ele>369.0</ele><time>2026-04-18T09:57:33.526Z</time></trkpt><trkpt lat="43.42784" lon="10.910515"><ele>370.4</ele><time>2026-04-18T09:57:34.526Z</time></trkpt><trkpt lat="43.4278983" lon="10.9106417"><ele>371.79999999999995</ele><time>2026-04-18T09:57:35.526Z</time></trkpt><trkpt lat="43.4279267" lon="10.91079"><ele>373.20000000000005</ele><time>2026-04-18T09:57:36.526Z</time></trkpt><trkpt lat="43.42794" lon="10.91094"><ele>374.6</ele><time>2026-04-18T09:57:37.526Z</time></trkpt><trkpt lat="43.4279383" lon="10.911095"><ele>376.0</ele><time>2026-04-18T09:57:38.526Z</time></trkpt><trkpt lat="43.4279283" lon="10.9112683"><ele>378.0</ele><time>2026-04-18T09:57:39.526Z</time></trkpt><trkpt lat="43.4279183" lon="10.911435"><ele>380.0</ele><time>2026-04-18T09:57:40.526Z</time></trkpt><trkpt lat="43.4279033" lon="10.9115917"><ele>382.0</ele><time>2026-04-18T09:57:41.526Z</time></trkpt><trkpt lat="43.4278833" lon="10.9117733"><ele>384.0</ele><time>2026-04-18T09:57:42.526Z</time></trkpt><trkpt lat="43.427865" lon="10.911945"><ele>384.79999999999995</ele><time>2026-04-18T09:57:43.527Z</time></trkpt><trkpt lat="43.4278467" lon="10.9121"><ele>385.59999999999997</ele><time>2026-04-18T09:57:44.527Z</time></trkpt><trkpt lat="43.4278267" lon="10.9122283"><ele>386.4</ele><time>2026-04-18T09:57:45.526Z</time></trkpt><trkpt lat="43.4277967" lon="10.91236"><ele>387.2</ele><time>2026-04-18T09:57:46.527Z</time></trkpt><trkpt lat="43.4277633" lon="10.9124833"><ele>388.0</ele><time>2026-04-18T09:57:47.526Z</time></trkpt><trkpt lat="43.4277133" lon="10.9126133"><ele>388.0</ele><time>2026-04-18T09:57:48.526Z</time></trkpt><trkpt lat="43.4276533" lon="10.9127417"><ele>388.0</ele><time>2026-04-18T09:57:49.526Z</time></trkpt><trkpt lat="43.4275833" lon="10.9128667"><ele>388.0</ele><time>2026-04-18T09:57:50.527Z</time></trkpt><trkpt lat="43.42751" lon="10.91301"><ele>388.0</ele><time>2026-04-18T09:57:51.526Z</time></trkpt><trkpt lat="43.4274383" lon="10.9131467"><ele>388.00000000000006</ele><time>2026-04-18T09:57:52.526Z</time></trkpt><trkpt lat="43.4273933" lon="10.9132733"><ele>388.0</ele><time>2026-04-18T09:57:53.526Z</time></trkpt><trkpt lat="43.4273567" lon="10.9133833"><ele>388.0</ele><time>2026-04-18T09:57:54.526Z</time></trkpt><trkpt lat="43.4273283" lon="10.9134717"><ele>388.0</ele><time>2026-04-18T09:57:55.527Z</time></trkpt><trkpt lat="43.4273217" lon="10.91356"><ele>388.00000000000006</ele><time>2026-04-18T09:57:56.526Z</time></trkpt><trkpt lat="43.42734" lon="10.9136617"><ele>388.0</ele><time>2026-04-18T09:57:57.526Z</time></trkpt><trkpt lat="43.4273683" lon="10.9137817"><ele>387.79999999999995</ele><time>2026-04-18T09:57:58.526Z</time></trkpt><trkpt lat="43.4274217" lon="10.9139133"><ele>387.6</ele><time>2026-04-18T09:57:59.526Z</time></trkpt><trkpt lat="43.42749" lon="10.9140417"><ele>387.4</ele><time>2026-04-18T09:58:00.526Z</time></trkpt><trkpt lat="43.4275583" lon="10.9141533"><ele>387.20000000000005</ele><time>2026-04-18T09:58:01.526Z</time></trkpt><trkpt lat="43.42762" lon="10.9142483"><ele>387.0</ele><time>2026-04-18T09:58:02.526Z</time></trkpt><trkpt lat="43.42767" lon="10.9143017"><ele>386.3333333333333</ele><time>2026-04-18T09:58:03.526Z</time></trkpt><trkpt lat="43.4277167" lon="10.9143783"><ele>385.6666666666667</ele><time>2026-04-18T09:58:06.527Z</time></trkpt><trkpt lat="43.4277583" lon="10.9144517"><ele>385.0</ele><time>2026-04-18T09:58:14.526Z</time></trkpt><trkpt lat="43.4278233" lon="10.91457"><ele>384.33333333333337</ele><time>2026-04-18T09:59:04.525Z</time></trkpt><trkpt lat="43.4278783" lon="10.9146567"><ele>383.6666666666667</ele><time>2026-04-18T09:59:05.526Z</time></trkpt><trkpt lat="43.4279517" lon="10.9147583"><ele>383.0</ele><time>2026-04-18T09:59:06.525Z</time></trkpt><trkpt lat="43.428025" lon="10.91487"><ele>384.59999999999997</ele><time>2026-04-18T09:59:07.525Z</time></trkpt><trkpt lat="43.4281083" lon="10.91499"><ele>386.2</ele><time>2026-04-18T09:59:08.525Z</time></trkpt><trkpt lat="43.4281833" lon="10.9151067"><ele>387.8</ele><time>2026-04-18T09:59:09.526Z</time></trkpt><trkpt lat="43.4282667" lon="10.9152117"><ele>389.4</ele><time>2026-04-18T09:59:10.525Z</time></trkpt><trkpt lat="43.4283483" lon="10.9152967"><ele>391.0</ele><time>2026-04-18T09:59:11.525Z</time></trkpt><trkpt lat="43.4284183" lon="10.9153567"><ele>391.1666666666667</ele><time>2026-04-18T09:59:12.525Z</time></trkpt><trkpt lat="43.4284983" lon="10.9153917"><ele>391.33333333333337</ele><time>2026-04-18T09:59:13.525Z</time></trkpt><trkpt lat="43.4285783" lon="10.91541"><ele>391.5</ele><time>2026-04-18T09:59:14.525Z</time></trkpt><trkpt lat="43.4286633" lon="10.91543"><ele>391.66666666666663</ele><time>2026-04-18T09:59:15.525Z</time></trkpt><trkpt lat="43.42874" lon="10.9154733"><ele>391.8333333333333</ele><time>2026-04-18T09:59:16.525Z</time></trkpt><trkpt lat="43.4288183" lon="10.9155333"><ele>392.0</ele><time>2026-04-18T09:59:17.525Z</time></trkpt><trkpt lat="43.4288633" lon="10.9156017"><ele>394.8333333333333</ele><time>2026-04-18T09:59:18.525Z</time></trkpt><trkpt lat="43.4289183" lon="10.9156983"><ele>397.66666666666663</ele><time>2026-04-18T09:59:19.525Z</time></trkpt><trkpt lat="43.4289467" lon="10.9158033"><ele>400.5</ele><time>2026-04-18T09:59:20.525Z</time></trkpt><trkpt lat="43.4289517" lon="10.9159283"><ele>403.33333333333337</ele><time>2026-04-18T09:59:21.525Z</time></trkpt><trkpt lat="43.42895" lon="10.916055"><ele>406.1666666666667</ele><time>2026-04-18T09:59:22.525Z</time></trkpt><trkpt lat="43.4289483" lon="10.9161833"><ele>409.0</ele><time>2026-04-18T09:59:23.525Z</time></trkpt><trkpt lat="43.428955" lon="10.9163133"><ele>410.0</ele><time>2026-04-18T09:59:24.525Z</time></trkpt><trkpt lat="43.42897" lon="10.9164417"><ele>411.0</ele><time>2026-04-18T09:59:25.525Z</time></trkpt><trkpt lat="43.4289933" lon="10.916575"><ele>412.0</ele><time>2026-04-18T09:59:26.525Z</time></trkpt><trkpt lat="43.4290133" lon="10.916725"><ele>413.0</ele><time>2026-04-18T09:59:27.525Z</time></trkpt><trkpt lat="43.429035" lon="10.91688"><ele>414.0</ele><time>2026-04-18T09:59:28.526Z</time></trkpt><trkpt lat="43.429055" lon="10.9170383"><ele>414.5</ele><time>2026-04-18T09:59:29.525Z</time></trkpt><trkpt lat="43.42908" lon="10.91719"><ele>415.0</ele><time>2026-04-18T09:59:30.525Z</time></trkpt><trkpt lat="43.4291133" lon="10.9173517"><ele>415.5</ele><time>2026-04-18T09:59:31.526Z</time></trkpt><trkpt lat="43.4291517" lon="10.9175033"><ele>416.0</ele><time>2026-04-18T09:59:32.525Z</time></trkpt><trkpt lat="43.429195" lon="10.91766"><ele>416.0</ele><time>2026-04-18T09:59:33.525Z</time></trkpt><trkpt lat="43.4292383" lon="10.9178233"><ele>416.0</ele><time>2026-04-18T09:59:34.525Z</time></trkpt><trkpt lat="43.4292717" lon="10.9179917"><ele>416.0</ele><time>2026-04-18T09:59:35.525Z</time></trkpt><trkpt lat="43.4292867" lon="10.9181683"><ele>416.0</ele><time>2026-04-18T09:59:36.525Z</time></trkpt><trkpt lat="43.4292983" lon="10.9183483"><ele>417.25</ele><time>2026-04-18T09:59:37.525Z</time></trkpt><trkpt lat="43.4292967" lon="10.918545"><ele>418.5</ele><time>2026-04-18T09:59:38.525Z</time></trkpt><trkpt lat="43.4292867" lon="10.9187283"><ele>419.75</ele><time>2026-04-18T09:59:39.525Z</time></trkpt><trkpt lat="43.4292633" lon="10.9189117"><ele>421.0</ele><time>2026-04-18T09:59:40.525Z</time></trkpt><trkpt lat="43.4292283" lon="10.9190967"><ele>422.25</ele><time>2026-04-18T09:59:41.525Z</time></trkpt><trkpt lat="43.4291783" lon="10.9192717"><ele>423.5</ele><time>2026-04-18T09:59:42.525Z</time></trkpt><trkpt lat="43.4291217" lon="10.91944"><ele>424.75</ele><time>2026-04-18T09:59:43.525Z</time></trkpt><trkpt lat="43.4290633" lon="10.9195917"><ele>426.0</ele><time>2026-04-18T09:59:44.525Z</time></trkpt><trkpt lat="43.4290067" lon="10.9197317"><ele>426.0</ele><time>2026-04-18T09:59:45.526Z</time></trkpt><trkpt lat="43.4289583" lon="10.919865"><ele>426.0</ele><time>2026-04-18T09:59:46.525Z</time></trkpt><trkpt lat="43.4289267" lon="10.919975"><ele>426.0</ele><time>2026-04-18T09:59:47.525Z</time></trkpt><trkpt lat="43.4289033" lon="10.920075"><ele>426.0</ele><time>2026-04-18T09:59:48.525Z</time></trkpt><trkpt lat="43.4288917" lon="10.9201817"><ele>426.0</ele><time>2026-04-18T09:59:49.525Z</time></trkpt><trkpt lat="43.4288933" lon="10.920295"><ele>426.0</ele><time>2026-04-18T09:59:50.526Z</time></trkpt><trkpt lat="43.428915" lon="10.92041"><ele>426.0</ele><time>2026-04-18T09:59:51.525Z</time></trkpt><trkpt lat="43.4289467" lon="10.9205333"><ele>426.0</ele><time>2026-04-18T09:59:52.525Z</time></trkpt><trkpt lat="43.428975" lon="10.9206533"><ele>426.0</ele><time>2026-04-18T09:59:53.525Z</time></trkpt><trkpt lat="43.4289967" lon="10.9207583"><ele>426.0</ele><time>2026-04-18T09:59:54.525Z</time></trkpt><trkpt lat="43.429015" lon="10.92087"><ele>426.0</ele><time>2026-04-18T09:59:55.525Z</time></trkpt><trkpt lat="43.4290267" lon="10.92097"><ele>426.0</ele><time>2026-04-18T09:59:56.526Z</time></trkpt><trkpt lat="43.4290267" lon="10.9210833"><ele>425.3333333333333</ele><time>2026-04-18T09:59:57.525Z</time></trkpt><trkpt lat="43.4290217" lon="10.921195"><ele>424.66666666666663</ele><time>2026-04-18T09:59:58.525Z</time></trkpt><trkpt lat="43.4289933" lon="10.9212983"><ele>424.0</ele><time>2026-04-18T09:59:59.525Z</time></trkpt><trkpt lat="43.4289583" lon="10.9213933"><ele>423.3333333333333</ele><time>2026-04-18T10:00:00.525Z</time></trkpt><trkpt lat="43.4289" lon="10.9214933"><ele>422.66666666666663</ele><time>2026-04-18T10:00:01.525Z</time></trkpt><trkpt lat="43.4288183" lon="10.9215817"><ele>422.0</ele><time>2026-04-18T10:00:02.525Z</time></trkpt><trkpt lat="43.42872" lon="10.921675"><ele>422.0</ele><time>2026-04-18T10:00:03.525Z</time></trkpt><trkpt lat="43.428615" lon="10.92178"><ele>422.0</ele><time>2026-04-18T10:00:04.525Z</time></trkpt><trkpt lat="43.42852" lon="10.9218883"><ele>422.0</ele><time>2026-04-18T10:00:05.525Z</time></trkpt><trkpt lat="43.4284417" lon="10.922"><ele>422.0</ele><time>2026-04-18T10:00:06.525Z</time></trkpt><trkpt lat="43.4283583" lon="10.92214"><ele>422.0</ele><time>2026-04-18T10:00:07.525Z</time></trkpt><trkpt lat="43.4282867" lon="10.9222867"><ele>422.0</ele><time>2026-04-18T10:00:08.526Z</time></trkpt><trkpt lat="43.4282233" lon="10.92246"><ele>422.0</ele><time>2026-04-18T10:00:09.526Z</time></trkpt><trkpt lat="43.4281617" lon="10.92265"><ele>422.0</ele><time>2026-04-18T10:00:10.525Z</time></trkpt><trkpt lat="43.42812" lon="10.9228333"><ele>422.0</ele><time>2026-04-18T10:00:11.525Z</time></trkpt><trkpt lat="43.42808" lon="10.9230167"><ele>422.0</ele><time>2026-04-18T10:00:12.525Z</time></trkpt><trkpt lat="43.4280217" lon="10.923215"><ele>422.0</ele><time>2026-04-18T10:00:13.525Z</time></trkpt><trkpt lat="43.4279817" lon="10.9234017"><ele>422.0</ele><time>2026-04-18T10:00:14.525Z</time></trkpt><trkpt lat="43.4279417" lon="10.9235667"><ele>430.25</ele><time>2026-04-18T10:00:15.525Z</time></trkpt><trkpt lat="43.4279183" lon="10.92373"><ele>438.5</ele><time>2026-04-18T10:00:16.525Z</time></trkpt><trkpt lat="43.4278917" lon="10.9238833"><ele>446.75</ele><time>2026-04-18T10:00:17.525Z</time></trkpt><trkpt lat="43.4278683" lon="10.9240367"><ele>455.0</ele><time>2026-04-18T10:00:18.525Z</time></trkpt><trkpt lat="43.4278617" lon="10.9241967"><ele>456.25</ele><time>2026-04-18T10:00:19.525Z</time></trkpt><trkpt lat="43.4278617" lon="10.924375"><ele>457.5</ele><time>2026-04-18T10:00:20.525Z</time></trkpt><trkpt lat="43.4278583" lon="10.9245483"><ele>458.75</ele><time>2026-04-18T10:00:21.525Z</time></trkpt><trkpt lat="43.4278533" lon="10.924745"><ele>460.0</ele><time>2026-04-18T10:00:22.526Z</time></trkpt><trkpt lat="43.4278467" lon="10.9249417"><ele>459.5</ele><time>2026-04-18T10:00:23.525Z</time></trkpt><trkpt lat="43.427835" lon="10.925135"><ele>459.0</ele><time>2026-04-18T10:00:24.525Z</time></trkpt><trkpt lat="43.4278383" lon="10.925325"><ele>458.5</ele><time>2026-04-18T10:00:25.525Z</time></trkpt><trkpt lat="43.4278517" lon="10.9254967"><ele>458.0</ele><time>2026-04-18T10:00:26.525Z</time></trkpt><trkpt lat="43.42786" lon="10.9256483"><ele>458.0</ele><time>2026-04-18T10:00:27.525Z</time></trkpt><trkpt lat="43.4278517" lon="10.92579"><ele>457.99999999999994</ele><time>2026-04-18T10:00:28.525Z</time></trkpt><trkpt lat="43.427835" lon="10.9259033"><ele>457.99999999999994</ele><time>2026-04-18T10:00:29.525Z</time></trkpt><trkpt lat="43.4278067" lon="10.9260083"><ele>458.0</ele><time>2026-04-18T10:00:30.525Z</time></trkpt><trkpt lat="43.4277633" lon="10.926115"><ele>458.0</ele><time>2026-04-18T10:00:31.525Z</time></trkpt><trkpt lat="43.42767" lon="10.92628"><ele>457.49999999999994</ele><time>2026-04-18T10:00:33.526Z</time></trkpt><trkpt lat="43.42757" lon="10.926355"><ele>457.0</ele><time>2026-04-18T10:00:35.525Z</time></trkpt><trkpt lat="43.4275017" lon="10.9263733"><ele>456.5</ele><time>2026-04-18T10:00:36.525Z</time></trkpt><trkpt lat="43.4274217" lon="10.9263917"><ele>456.0</ele><time>2026-04-18T10:00:37.525Z</time></trkpt><trkpt lat="43.42733" lon="10.9264067"><ele>455.49999999999994</ele><time>2026-04-18T10:00:38.526Z</time></trkpt><trkpt lat="43.4272467" lon="10.9264317"><ele>455.0</ele><time>2026-04-18T10:00:39.525Z</time></trkpt><trkpt lat="43.42717" lon="10.9264817"><ele>457.16666666666663</ele><time>2026-04-18T10:00:40.525Z</time></trkpt><trkpt lat="43.427105" lon="10.9265433"><ele>459.3333333333333</ele><time>2026-04-18T10:00:41.525Z</time></trkpt><trkpt lat="43.4270517" lon="10.926615"><ele>461.5</ele><time>2026-04-18T10:00:42.525Z</time></trkpt><trkpt lat="43.4270117" lon="10.9266917"><ele>463.66666666666663</ele><time>2026-04-18T10:00:43.525Z</time></trkpt><trkpt lat="43.4269883" lon="10.926775"><ele>465.8333333333333</ele><time>2026-04-18T10:00:44.525Z</time></trkpt><trkpt lat="43.42701" lon="10.926945"><ele>468.0</ele><time>2026-04-18T10:00:46.525Z</time></trkpt><trkpt lat="43.427065" lon="10.9270317"><ele>467.59999999999997</ele><time>2026-04-18T10:00:47.525Z</time></trkpt><trkpt lat="43.42713" lon="10.9270983"><ele>467.19999999999993</ele><time>2026-04-18T10:00:48.525Z</time></trkpt><trkpt lat="43.42721" lon="10.9271367"><ele>466.8</ele><time>2026-04-18T10:00:49.525Z</time></trkpt><trkpt lat="43.4272983" lon="10.927185"><ele>466.4</ele><time>2026-04-18T10:00:50.526Z</time></trkpt><trkpt lat="43.4273917" lon="10.927235"><ele>466.0</ele><time>2026-04-18T10:00:51.525Z</time></trkpt><trkpt lat="43.42747" lon="10.9272983"><ele>466.0</ele><time>2026-04-18T10:00:52.525Z</time></trkpt><trkpt lat="43.4275367" lon="10.927375"><ele>466.0</ele><time>2026-04-18T10:00:53.525Z</time></trkpt><trkpt lat="43.4275917" lon="10.92747"><ele>466.0</ele><time>2026-04-18T10:00:54.525Z</time></trkpt><trkpt lat="43.4276433" lon="10.92758"><ele>466.0</ele><time>2026-04-18T10:00:55.525Z</time></trkpt><trkpt lat="43.4276933" lon="10.9277"><ele>466.0</ele><time>2026-04-18T10:00:56.525Z</time></trkpt><trkpt lat="43.4277483" lon="10.9278167"><ele>469.20000000000005</ele><time>2026-04-18T10:00:57.525Z</time></trkpt><trkpt lat="43.4278017" lon="10.92795"><ele>472.40000000000003</ele><time>2026-04-18T10:00:58.525Z</time></trkpt><trkpt lat="43.427855" lon="10.9280733"><ele>475.6</ele><time>2026-04-18T10:00:59.526Z</time></trkpt><trkpt lat="43.4279" lon="10.92818"><ele>478.8</ele><time>2026-04-18T10:01:00.525Z</time></trkpt><trkpt lat="43.4279317" lon="10.9282667"><ele>482.0</ele><time>2026-04-18T10:01:01.525Z</time></trkpt><trkpt lat="43.4279683" lon="10.9284283"><ele>480.3333333333333</ele><time>2026-04-18T10:01:03.525Z</time></trkpt><trkpt lat="43.427975" lon="10.9285333"><ele>478.66666666666663</ele><time>2026-04-18T10:01:04.525Z</time></trkpt><trkpt lat="43.42798" lon="10.9286417"><ele>477.0</ele><time>2026-04-18T10:01:05.525Z</time></trkpt><trkpt lat="43.4279833" lon="10.9287517"><ele>475.33333333333337</ele><time>2026-04-18T10:01:06.526Z</time></trkpt><trkpt lat="43.4279867" lon="10.9288733"><ele>473.6666666666667</ele><time>2026-04-18T10:01:07.525Z</time></trkpt><trkpt lat="43.428005" lon="10.929"><ele>472.0</ele><time>2026-04-18T10:01:08.525Z</time></trkpt><trkpt lat="43.42804" lon="10.92914"><ele>475.25</ele><time>2026-04-18T10:01:09.525Z</time></trkpt><trkpt lat="43.4280867" lon="10.9292883"><ele>478.5</ele><time>2026-04-18T10:01:10.525Z</time></trkpt><trkpt lat="43.42814" lon="10.9294483"><ele>481.75</ele><time>2026-04-18T10:01:11.525Z</time></trkpt><trkpt lat="43.4281883" lon="10.9295967"><ele>485.0</ele><time>2026-04-18T10:01:12.525Z</time></trkpt><trkpt lat="43.428235" lon="10.9297283"><ele>484.99999999999994</ele><time>2026-04-18T10:01:13.525Z</time></trkpt><trkpt lat="43.4282633" lon="10.9298467"><ele>485.0</ele><time>2026-04-18T10:01:14.525Z</time></trkpt><trkpt lat="43.4282683" lon="10.9299483"><ele>485.0</ele><time>2026-04-18T10:01:15.525Z</time></trkpt><trkpt lat="43.4282533" lon="10.9300433"><ele>485.0</ele><time>2026-04-18T10:01:16.525Z</time></trkpt><trkpt lat="43.4282333" lon="10.9301433"><ele>484.99999999999994</ele><time>2026-04-18T10:01:17.525Z</time></trkpt><trkpt lat="43.42821" lon="10.9302467"><ele>485.0</ele><time>2026-04-18T10:01:18.525Z</time></trkpt><trkpt lat="43.42818" lon="10.930365"><ele>487.25</ele><time>2026-04-18T10:01:19.525Z</time></trkpt><trkpt lat="43.428145" lon="10.9305067"><ele>489.5</ele><time>2026-04-18T10:01:20.525Z</time></trkpt><trkpt lat="43.4281117" lon="10.930665"><ele>491.75</ele><time>2026-04-18T10:01:21.525Z</time></trkpt><trkpt lat="43.42809" lon="10.93084"><ele>494.0</ele><time>2026-04-18T10:01:22.525Z</time></trkpt><trkpt lat="43.428075" lon="10.9309967"><ele>496.2</ele><time>2026-04-18T10:01:23.525Z</time></trkpt><trkpt lat="43.4280667" lon="10.9311417"><ele>498.4</ele><time>2026-04-18T10:01:24.525Z</time></trkpt><trkpt lat="43.4280583" lon="10.9312933"><ele>500.6</ele><time>2026-04-18T10:01:25.526Z</time></trkpt><trkpt lat="43.42806" lon="10.9314267"><ele>502.8</ele><time>2026-04-18T10:01:26.526Z</time></trkpt><trkpt lat="43.42808" lon="10.9315517"><ele>505.0</ele><time>2026-04-18T10:01:27.526Z</time></trkpt><trkpt lat="43.4281067" lon="10.9316833"><ele>506.1666666666667</ele><time>2026-04-18T10:01:28.525Z</time></trkpt><trkpt lat="43.42814" lon="10.93181"><ele>507.33333333333337</ele><time>2026-04-18T10:01:29.525Z</time></trkpt><trkpt lat="43.4281583" lon="10.9319217"><ele>508.5</ele><time>2026-04-18T10:01:30.525Z</time></trkpt><trkpt lat="43.4281533" lon="10.932025"><ele>509.66666666666663</ele><time>2026-04-18T10:01:31.525Z</time></trkpt><trkpt lat="43.428105" lon="10.932175"><ele>510.8333333333333</ele><time>2026-04-18T10:01:33.525Z</time></trkpt><trkpt lat="43.4280567" lon="10.9322367"><ele>512.0</ele><time>2026-04-18T10:01:34.525Z</time></trkpt><trkpt lat="43.4279917" lon="10.932285"><ele>512.3333333333333</ele><time>2026-04-18T10:01:35.525Z</time></trkpt><trkpt lat="43.4279217" lon="10.9323283"><ele>512.6666666666666</ele><time>2026-04-18T10:01:36.525Z</time></trkpt><trkpt lat="43.4278567" lon="10.9323717"><ele>513.0</ele><time>2026-04-18T10:01:37.525Z</time></trkpt><trkpt lat="43.427785" lon="10.932455"><ele>513.3333333333334</ele><time>2026-04-18T10:01:39.525Z</time></trkpt><trkpt lat="43.4277517" lon="10.9325833"><ele>513.6666666666667</ele><time>2026-04-18T10:01:41.525Z</time></trkpt><trkpt lat="43.4277517" lon="10.9326733"><ele>514.0</ele><time>2026-04-18T10:01:42.526Z</time></trkpt><trkpt lat="43.42777" lon="10.9327683"><ele>514.0</ele><time>2026-04-18T10:01:43.525Z</time></trkpt><trkpt lat="43.4277983" lon="10.932885"><ele>514.0</ele><time>2026-04-18T10:01:44.525Z</time></trkpt><trkpt lat="43.4278367" lon="10.93301"><ele>514.0</ele><time>2026-04-18T10:01:45.525Z</time></trkpt><trkpt lat="43.4278833" lon="10.933145"><ele>514.0</ele><time>2026-04-18T10:01:46.525Z</time></trkpt><trkpt lat="43.4279333" lon="10.9332867"><ele>514.0</ele><time>2026-04-18T10:01:47.525Z</time></trkpt><trkpt lat="43.4279833" lon="10.9334083"><ele>511.50000000000006</ele><time>2026-04-18T10:01:48.524Z</time></trkpt><trkpt lat="43.42803" lon="10.9335267"><ele>509.0</ele><time>2026-04-18T10:01:49.524Z</time></trkpt><trkpt lat="43.4280683" lon="10.93361"><ele>506.5</ele><time>2026-04-18T10:01:50.524Z</time></trkpt><trkpt lat="43.4281167" lon="10.9336933"><ele>504.0</ele><time>2026-04-18T10:01:51.524Z</time></trkpt><trkpt lat="43.4281617" lon="10.93377"><ele>501.50000000000006</ele><time>2026-04-18T10:01:52.525Z</time></trkpt><trkpt lat="43.428205" lon="10.9338433"><ele>499.0</ele><time>2026-04-18T10:01:53.524Z</time></trkpt><trkpt lat="43.4282667" lon="10.9339117"><ele>499.00000000000006</ele><time>2026-04-18T10:01:54.525Z</time></trkpt><trkpt lat="43.428325" lon="10.93397"><ele>499.0</ele><time>2026-04-18T10:01:55.524Z</time></trkpt><trkpt lat="43.4283883" lon="10.9340333"><ele>499.0</ele><time>2026-04-18T10:01:56.524Z</time></trkpt><trkpt lat="43.4284617" lon="10.9340933"><ele>499.0</ele><time>2026-04-18T10:01:57.525Z</time></trkpt><trkpt lat="43.4285383" lon="10.9341517"><ele>499.00000000000006</ele><time>2026-04-18T10:01:58.524Z</time></trkpt><trkpt lat="43.4286183" lon="10.934215"><ele>499.0</ele><time>2026-04-18T10:01:59.525Z</time></trkpt><trkpt lat="43.4286967" lon="10.9342867"><ele>497.0</ele><time>2026-04-18T10:02:00.524Z</time></trkpt><trkpt lat="43.4287583" lon="10.934365"><ele>495.0</ele><time>2026-04-18T10:02:01.525Z</time></trkpt><trkpt lat="43.4288283" lon="10.9344433"><ele>493.0</ele><time>2026-04-18T10:02:02.524Z</time></trkpt><trkpt lat="43.4289" lon="10.93452"><ele>491.0</ele><time>2026-04-18T10:02:03.524Z</time></trkpt><trkpt lat="43.4289833" lon="10.93459"><ele>489.0</ele><time>2026-04-18T10:02:04.524Z</time></trkpt><trkpt lat="43.429085" lon="10.9346567"><ele>489.0</ele><time>2026-04-18T10:02:05.524Z</time></trkpt><trkpt lat="43.4291867" lon="10.93473"><ele>489.0</ele><time>2026-04-18T10:02:06.524Z</time></trkpt><trkpt lat="43.4293" lon="10.9348033"><ele>489.0</ele><time>2026-04-18T10:02:07.524Z</time></trkpt><trkpt lat="43.4294067" lon="10.934865"><ele>489.0</ele><time>2026-04-18T10:02:08.524Z</time></trkpt><trkpt lat="43.42952" lon="10.9349467"><ele>489.0</ele><time>2026-04-18T10:02:09.524Z</time></trkpt><trkpt lat="43.4296283" lon="10.935015"><ele>489.0</ele><time>2026-04-18T10:02:10.524Z</time></trkpt><trkpt lat="43.4297433" lon="10.9351033"><ele>489.0</ele><time>2026-04-18T10:02:11.525Z</time></trkpt><trkpt lat="43.4298517" lon="10.9351883"><ele>489.0</ele><time>2026-04-18T10:02:12.524Z</time></trkpt><trkpt lat="43.4299617" lon="10.935275"><ele>489.2</ele><time>2026-04-18T10:02:13.524Z</time></trkpt><trkpt lat="43.4300567" lon="10.9353583"><ele>489.4</ele><time>2026-04-18T10:02:14.524Z</time></trkpt><trkpt lat="43.4301333" lon="10.9354367"><ele>489.6</ele><time>2026-04-18T10:02:15.524Z</time></trkpt><trkpt lat="43.4302067" lon="10.9355233"><ele>489.8</ele><time>2026-04-18T10:02:16.524Z</time></trkpt><trkpt lat="43.4302733" lon="10.9356233"><ele>490.0</ele><time>2026-04-18T10:02:17.524Z</time></trkpt><trkpt lat="43.4303383" lon="10.9357417"><ele>490.0</ele><time>2026-04-18T10:02:18.524Z</time></trkpt><trkpt lat="43.43041" lon="10.9358467"><ele>490.0</ele><time>2026-04-18T10:02:19.525Z</time></trkpt><trkpt lat="43.430485" lon="10.9359633"><ele>490.0</ele><time>2026-04-18T10:02:20.524Z</time></trkpt><trkpt lat="43.43055" lon="10.93607"><ele>490.0</ele><time>2026-04-18T10:02:21.524Z</time></trkpt><trkpt lat="43.43061" lon="10.936155"><ele>490.0</ele><time>2026-04-18T10:02:22.524Z</time></trkpt><trkpt lat="43.4306533" lon="10.9362383"><ele>490.50000000000006</ele><time>2026-04-18T10:02:23.525Z</time></trkpt><trkpt lat="43.430695" lon="10.9363283"><ele>491.0</ele><time>2026-04-18T10:02:24.524Z</time></trkpt><trkpt lat="43.4307267" lon="10.9364183"><ele>491.5</ele><time>2026-04-18T10:02:25.524Z</time></trkpt><trkpt lat="43.43077" lon="10.9365183"><ele>492.0</ele><time>2026-04-18T10:02:26.524Z</time></trkpt><trkpt lat="43.4308133" lon="10.9366067"><ele>492.50000000000006</ele><time>2026-04-18T10:02:27.524Z</time></trkpt><trkpt lat="43.4308517" lon="10.9366867"><ele>493.0</ele><time>2026-04-18T10:02:28.524Z</time></trkpt><trkpt lat="43.430895" lon="10.9368567"><ele>493.00000000000006</ele><time>2026-04-18T10:02:30.524Z</time></trkpt><trkpt lat="43.4309133" lon="10.9369433"><ele>493.0</ele><time>2026-04-18T10:02:31.524Z</time></trkpt><trkpt lat="43.430935" lon="10.9370333"><ele>493.0</ele><time>2026-04-18T10:02:32.525Z</time></trkpt><trkpt lat="43.4309667" lon="10.9371367"><ele>493.0</ele><time>2026-04-18T10:02:33.524Z</time></trkpt><trkpt lat="43.4310083" lon="10.9372433"><ele>493.00000000000006</ele><time>2026-04-18T10:02:34.524Z</time></trkpt><trkpt lat="43.4310567" lon="10.937355"><ele>493.0</ele><time>2026-04-18T10:02:35.524Z</time></trkpt><trkpt lat="43.4311317" lon="10.93746"><ele>491.25</ele><time>2026-04-18T10:02:36.524Z</time></trkpt><trkpt lat="43.4312167" lon="10.93756"><ele>489.5</ele><time>2026-04-18T10:02:37.524Z</time></trkpt><trkpt lat="43.43131" lon="10.93765"><ele>487.75</ele><time>2026-04-18T10:02:38.525Z</time></trkpt><trkpt lat="43.43141" lon="10.9377367"><ele>486.0</ele><time>2026-04-18T10:02:39.524Z</time></trkpt><trkpt lat="43.4315083" lon="10.9378333"><ele>489.5</ele><time>2026-04-18T10:02:40.524Z</time></trkpt><trkpt lat="43.4315967" lon="10.9379433"><ele>493.0</ele><time>2026-04-18T10:02:41.524Z</time></trkpt><trkpt lat="43.4316783" lon="10.9380617"><ele>496.5</ele><time>2026-04-18T10:02:42.525Z</time></trkpt><trkpt lat="43.4317467" lon="10.9381867"><ele>500.0</ele><time>2026-04-18T10:02:43.524Z</time></trkpt><trkpt lat="43.4318067" lon="10.93832"><ele>500.0</ele><time>2026-04-18T10:02:44.524Z</time></trkpt><trkpt lat="43.43187" lon="10.9384467"><ele>500.0</ele><time>2026-04-18T10:02:45.524Z</time></trkpt><trkpt lat="43.4319183" lon="10.938565"><ele>500.0</ele><time>2026-04-18T10:02:46.524Z</time></trkpt><trkpt lat="43.431955" lon="10.9386833"><ele>500.0</ele><time>2026-04-18T10:02:47.524Z</time></trkpt><trkpt lat="43.43198" lon="10.9388117"><ele>500.0</ele><time>2026-04-18T10:02:48.524Z</time></trkpt><trkpt lat="43.431995" lon="10.9389433"><ele>499.99999999999994</ele><time>2026-04-18T10:02:49.525Z</time></trkpt><trkpt lat="43.4319917" lon="10.9390817"><ele>500.0</ele><time>2026-04-18T10:02:50.524Z</time></trkpt><trkpt lat="43.4319833" lon="10.939215"><ele>500.0</ele><time>2026-04-18T10:02:51.524Z</time></trkpt><trkpt lat="43.431975" lon="10.9393367"><ele>500.0</ele><time>2026-04-18T10:02:52.524Z</time></trkpt><trkpt lat="43.4319667" lon="10.939445"><ele>499.99999999999994</ele><time>2026-04-18T10:02:53.524Z</time></trkpt><trkpt lat="43.431965" lon="10.9395467"><ele>500.0</ele><time>2026-04-18T10:02:54.524Z</time></trkpt><trkpt lat="43.4319767" lon="10.9396367"><ele>500.8</ele><time>2026-04-18T10:02:55.524Z</time></trkpt><trkpt lat="43.4320167" lon="10.939765"><ele>501.6</ele><time>2026-04-18T10:02:57.524Z</time></trkpt><trkpt lat="43.43208" lon="10.9399183"><ele>502.4</ele><time>2026-04-18T10:02:59.524Z</time></trkpt><trkpt lat="43.432085" lon="10.9400067"><ele>503.2</ele><time>2026-04-18T10:03:00.524Z</time></trkpt><trkpt lat="43.432065" lon="10.9401683"><ele>504.0</ele><time>2026-04-18T10:03:02.524Z</time></trkpt><trkpt lat="43.4320433" lon="10.9402533"><ele>505.2</ele><time>2026-04-18T10:03:03.524Z</time></trkpt><trkpt lat="43.4320133" lon="10.9403783"><ele>506.4</ele><time>2026-04-18T10:03:04.524Z</time></trkpt><trkpt lat="43.4319867" lon="10.9405267"><ele>507.6</ele><time>2026-04-18T10:03:05.524Z</time></trkpt><trkpt lat="43.4319817" lon="10.940665"><ele>508.8</ele><time>2026-04-18T10:03:06.524Z</time></trkpt><trkpt lat="43.4319533" lon="10.9408017"><ele>510.0</ele><time>2026-04-18T10:03:07.524Z</time></trkpt><trkpt lat="43.4319317" lon="10.9409533"><ele>511.25</ele><time>2026-04-18T10:03:08.524Z</time></trkpt><trkpt lat="43.4319133" lon="10.9411283"><ele>512.5</ele><time>2026-04-18T10:03:09.524Z</time></trkpt><trkpt lat="43.4318933" lon="10.941305"><ele>513.75</ele><time>2026-04-18T10:03:10.524Z</time></trkpt><trkpt lat="43.4318833" lon="10.9414917"><ele>515.0</ele><time>2026-04-18T10:03:11.524Z</time></trkpt><trkpt lat="43.43188" lon="10.9416833"><ele>515.25</ele><time>2026-04-18T10:03:12.524Z</time></trkpt><trkpt lat="43.4318817" lon="10.9418717"><ele>515.5</ele><time>2026-04-18T10:03:13.525Z</time></trkpt><trkpt lat="43.43188" lon="10.942045"><ele>515.75</ele><time>2026-04-18T10:03:14.524Z</time></trkpt><trkpt lat="43.43188" lon="10.94221"><ele>516.0</ele><time>2026-04-18T10:03:15.524Z</time></trkpt><trkpt lat="43.431865" lon="10.942365"><ele>516.0</ele><time>2026-04-18T10:03:16.524Z</time></trkpt><trkpt lat="43.4318667" lon="10.942515"><ele>516.0</ele><time>2026-04-18T10:03:17.524Z</time></trkpt><trkpt lat="43.43187" lon="10.94268"><ele>516.0</ele><time>2026-04-18T10:03:18.525Z</time></trkpt><trkpt lat="43.431885" lon="10.9428617"><ele>516.0</ele><time>2026-04-18T10:03:19.524Z</time></trkpt><trkpt lat="43.4319017" lon="10.9430517"><ele>514.75</ele><time>2026-04-18T10:03:20.524Z</time></trkpt><trkpt lat="43.4319133" lon="10.9432517"><ele>513.5</ele><time>2026-04-18T10:03:21.524Z</time></trkpt><trkpt lat="43.43192" lon="10.943445"><ele>512.25</ele><time>2026-04-18T10:03:22.524Z</time></trkpt><trkpt lat="43.4319233" lon="10.94363"><ele>511.0</ele><time>2026-04-18T10:03:23.524Z</time></trkpt><trkpt lat="43.4319283" lon="10.9438"><ele>510.50000000000006</ele><time>2026-04-18T10:03:24.524Z</time></trkpt><trkpt lat="43.43194" lon="10.9439483"><ele>510.0</ele><time>2026-04-18T10:03:25.524Z</time></trkpt><trkpt lat="43.4319633" lon="10.94407"><ele>509.5</ele><time>2026-04-18T10:03:26.524Z</time></trkpt><trkpt lat="43.4319817" lon="10.9441783"><ele>509.0</ele><time>2026-04-18T10:03:27.524Z</time></trkpt><trkpt lat="43.4320017" lon="10.94427"><ele>508.50000000000006</ele><time>2026-04-18T10:03:28.525Z</time></trkpt><trkpt lat="43.4320417" lon="10.94436"><ele>508.0</ele><time>2026-04-18T10:03:29.524Z</time></trkpt><trkpt lat="43.4320933" lon="10.9444433"><ele>508.59999999999997</ele><time>2026-04-18T10:03:30.524Z</time></trkpt><trkpt lat="43.4321667" lon="10.9444917"><ele>509.19999999999993</ele><time>2026-04-18T10:03:31.524Z</time></trkpt><trkpt lat="43.4322517" lon="10.9445183"><ele>509.8</ele><time>2026-04-18T10:03:32.525Z</time></trkpt><trkpt lat="43.4323433" lon="10.9445333"><ele>510.4</ele><time>2026-04-18T10:03:33.524Z</time></trkpt><trkpt lat="43.43244" lon="10.9445267"><ele>511.0</ele><time>2026-04-18T10:03:34.524Z</time></trkpt><trkpt lat="43.43255" lon="10.944505"><ele>511.0</ele><time>2026-04-18T10:03:35.524Z</time></trkpt><trkpt lat="43.432675" lon="10.9444767"><ele>511.0</ele><time>2026-04-18T10:03:36.525Z</time></trkpt><trkpt lat="43.4328033" lon="10.944455"><ele>511.0</ele><time>2026-04-18T10:03:37.524Z</time></trkpt><trkpt lat="43.4329383" lon="10.944425"><ele>511.0</ele><time>2026-04-18T10:03:38.524Z</time></trkpt><trkpt lat="43.4330717" lon="10.94439"><ele>512.2</ele><time>2026-04-18T10:03:39.524Z</time></trkpt><trkpt lat="43.4332" lon="10.9443517"><ele>513.4000000000001</ele><time>2026-04-18T10:03:40.525Z</time></trkpt><trkpt lat="43.4333117" lon="10.9443217"><ele>514.6</ele><time>2026-04-18T10:03:41.524Z</time></trkpt><trkpt lat="43.4334133" lon="10.944305"><ele>515.8000000000001</ele><time>2026-04-18T10:03:42.524Z</time></trkpt><trkpt lat="43.43351" lon="10.9443233"><ele>517.0</ele><time>2026-04-18T10:03:43.524Z</time></trkpt><trkpt lat="43.4335883" lon="10.944375"><ele>517.0</ele><time>2026-04-18T10:03:44.524Z</time></trkpt><trkpt lat="43.4336583" lon="10.94445"><ele>517.0</ele><time>2026-04-18T10:03:45.524Z</time></trkpt><trkpt lat="43.43373" lon="10.9445267"><ele>517.0</ele><time>2026-04-18T10:03:46.524Z</time></trkpt><trkpt lat="43.4338083" lon="10.9446067"><ele>517.0</ele><time>2026-04-18T10:03:47.524Z</time></trkpt><trkpt lat="43.43389" lon="10.94468"><ele>517.0</ele><time>2026-04-18T10:03:48.524Z</time></trkpt><trkpt lat="43.433985" lon="10.94474"><ele>519.75</ele><time>2026-04-18T10:03:49.524Z</time></trkpt><trkpt lat="43.4340883" lon="10.9447933"><ele>522.5</ele><time>2026-04-18T10:03:50.524Z</time></trkpt><trkpt lat="43.4341917" lon="10.9448433"><ele>525.25</ele><time>2026-04-18T10:03:51.524Z</time></trkpt><trkpt lat="43.4342967" lon="10.94489"><ele>528.0</ele><time>2026-04-18T10:03:52.524Z</time></trkpt><trkpt lat="43.4344167" lon="10.9449267"><ele>528.0</ele><time>2026-04-18T10:03:53.525Z</time></trkpt><trkpt lat="43.4345183" lon="10.9449517"><ele>528.0</ele><time>2026-04-18T10:03:54.525Z</time></trkpt><trkpt lat="43.4346133" lon="10.94498"><ele>528.0</ele><time>2026-04-18T10:03:55.524Z</time></trkpt><trkpt lat="43.4347083" lon="10.94501"><ele>528.0</ele><time>2026-04-18T10:03:56.524Z</time></trkpt><trkpt lat="43.434785" lon="10.945055"><ele>528.0</ele><time>2026-04-18T10:03:57.524Z</time></trkpt><trkpt lat="43.43484" lon="10.9451717"><ele>530.1428571428571</ele><time>2026-04-18T10:03:59.524Z</time></trkpt><trkpt lat="43.4348583" lon="10.9452583"><ele>532.2857142857143</ele><time>2026-04-18T10:04:00.524Z</time></trkpt><trkpt lat="43.434875" lon="10.9453517"><ele>534.4285714285714</ele><time>2026-04-18T10:04:01.525Z</time></trkpt><trkpt lat="43.4348983" lon="10.9454433"><ele>536.5714285714286</ele><time>2026-04-18T10:04:02.524Z</time></trkpt><trkpt lat="43.43492" lon="10.9455367"><ele>538.7142857142857</ele><time>2026-04-18T10:04:03.524Z</time></trkpt><trkpt lat="43.43495" lon="10.94562"><ele>540.8571428571429</ele><time>2026-04-18T10:04:04.524Z</time></trkpt><trkpt lat="43.435005" lon="10.945685"><ele>543.0</ele><time>2026-04-18T10:04:05.524Z</time></trkpt><trkpt lat="43.4350633" lon="10.9457417"><ele>543.0</ele><time>2026-04-18T10:04:06.524Z</time></trkpt><trkpt lat="43.4351333" lon="10.9457883"><ele>543.0</ele><time>2026-04-18T10:04:07.524Z</time></trkpt><trkpt lat="43.435195" lon="10.9458267"><ele>543.0</ele><time>2026-04-18T10:04:08.524Z</time></trkpt><trkpt lat="43.4352483" lon="10.945885"><ele>543.0</ele><time>2026-04-18T10:04:09.524Z</time></trkpt><trkpt lat="43.4353033" lon="10.9459717"><ele>543.0</ele><time>2026-04-18T10:04:10.525Z</time></trkpt><trkpt lat="43.435355" lon="10.9460583"><ele>543.0</ele><time>2026-04-18T10:04:11.524Z</time></trkpt><trkpt lat="43.43542" lon="10.946135"><ele>544.6</ele><time>2026-04-18T10:04:12.524Z</time></trkpt><trkpt lat="43.4355" lon="10.94622"><ele>546.1999999999999</ele><time>2026-04-18T10:04:13.524Z</time></trkpt><trkpt lat="43.43558" lon="10.9462867"><ele>547.8</ele><time>2026-04-18T10:04:14.524Z</time></trkpt><trkpt lat="43.4356717" lon="10.9463567"><ele>549.4</ele><time>2026-04-18T10:04:15.524Z</time></trkpt><trkpt lat="43.4357633" lon="10.9464233"><ele>551.0</ele><time>2026-04-18T10:04:16.524Z</time></trkpt><trkpt lat="43.4358517" lon="10.9464983"><ele>551.0</ele><time>2026-04-18T10:04:17.525Z</time></trkpt><trkpt lat="43.4359283" lon="10.9465983"><ele>551.0</ele><time>2026-04-18T10:04:18.524Z</time></trkpt><trkpt lat="43.436" lon="10.9467133"><ele>551.0</ele><time>2026-04-18T10:04:19.524Z</time></trkpt><trkpt lat="43.4360733" lon="10.9468417"><ele>551.0</ele><time>2026-04-18T10:04:20.524Z</time></trkpt><trkpt lat="43.4361333" lon="10.946975"><ele>551.0</ele><time>2026-04-18T10:04:21.524Z</time></trkpt><trkpt lat="43.43618" lon="10.94708"><ele>553.5</ele><time>2026-04-18T10:04:22.524Z</time></trkpt><trkpt lat="43.4362267" lon="10.947175"><ele>556.0</ele><time>2026-04-18T10:04:23.524Z</time></trkpt><trkpt lat="43.4362517" lon="10.9472617"><ele>558.5</ele><time>2026-04-18T10:04:24.524Z</time></trkpt><trkpt lat="43.436275" lon="10.94735"><ele>561.0</ele><time>2026-04-18T10:04:25.525Z</time></trkpt><trkpt lat="43.4362767" lon="10.9474983"><ele>563.5</ele><time>2026-04-18T10:04:27.524Z</time></trkpt><trkpt lat="43.436235" lon="10.947645"><ele>566.0</ele><time>2026-04-18T10:04:29.524Z</time></trkpt><trkpt lat="43.4362083" lon="10.9477367"><ele>566.0</ele><time>2026-04-18T10:04:30.524Z</time></trkpt><trkpt lat="43.4361833" lon="10.9478283"><ele>566.0</ele><time>2026-04-18T10:04:31.524Z</time></trkpt><trkpt lat="43.4361683" lon="10.9479183"><ele>566.0</ele><time>2026-04-18T10:04:32.524Z</time></trkpt><trkpt lat="43.4361667" lon="10.9480133"><ele>566.0</ele><time>2026-04-18T10:04:33.524Z</time></trkpt><trkpt lat="43.4361783" lon="10.948125"><ele>566.0</ele><time>2026-04-18T10:04:34.524Z</time></trkpt><trkpt lat="43.4361917" lon="10.9482367"><ele>566.0</ele><time>2026-04-18T10:04:35.524Z</time></trkpt><trkpt lat="43.4362167" lon="10.9483717"><ele>565.0</ele><time>2026-04-18T10:04:36.524Z</time></trkpt><trkpt lat="43.4362567" lon="10.9485133"><ele>564.0</ele><time>2026-04-18T10:04:37.524Z</time></trkpt><trkpt lat="43.4363033" lon="10.9486533"><ele>563.0</ele><time>2026-04-18T10:04:38.524Z</time></trkpt><trkpt lat="43.4363467" lon="10.94878"><ele>562.0</ele><time>2026-04-18T10:04:39.524Z</time></trkpt><trkpt lat="43.4363883" lon="10.9488917"><ele>561.0</ele><time>2026-04-18T10:04:40.524Z</time></trkpt><trkpt lat="43.43644" lon="10.949005"><ele>561.0</ele><time>2026-04-18T10:04:41.524Z</time></trkpt><trkpt lat="43.436495" lon="10.9491333"><ele>561.0</ele><time>2026-04-18T10:04:42.525Z</time></trkpt><trkpt lat="43.4365567" lon="10.9492633"><ele>561.0</ele><time>2026-04-18T10:04:43.524Z</time></trkpt><trkpt lat="43.4366283" lon="10.949375"><ele>561.0</ele><time>2026-04-18T10:04:44.524Z</time></trkpt><trkpt lat="43.4366983" lon="10.949465"><ele>561.0</ele><time>2026-04-18T10:04:45.524Z</time></trkpt><trkpt lat="43.43678" lon="10.9495417"><ele>560.8</ele><time>2026-04-18T10:04:46.524Z</time></trkpt><trkpt lat="43.436865" lon="10.9495967"><ele>560.6</ele><time>2026-04-18T10:04:47.524Z</time></trkpt><trkpt lat="43.4369483" lon="10.94965"><ele>560.4</ele><time>2026-04-18T10:04:48.524Z</time></trkpt><trkpt lat="43.4370533" lon="10.949685"><ele>560.2</ele><time>2026-04-18T10:04:49.524Z</time></trkpt><trkpt lat="43.4371767" lon="10.9497167"><ele>560.0</ele><time>2026-04-18T10:04:50.524Z</time></trkpt><trkpt lat="43.437305" lon="10.9497317"><ele>561.0</ele><time>2026-04-18T10:04:51.524Z</time></trkpt><trkpt lat="43.4374417" lon="10.9497567"><ele>562.0</ele><time>2026-04-18T10:04:52.524Z</time></trkpt><trkpt lat="43.43756" lon="10.9497917"><ele>563.0</ele><time>2026-04-18T10:04:53.524Z</time></trkpt><trkpt lat="43.4376717" lon="10.9498383"><ele>564.0</ele><time>2026-04-18T10:04:54.524Z</time></trkpt><trkpt lat="43.4377683" lon="10.9499067"><ele>564.0</ele><time>2026-04-18T10:04:55.524Z</time></trkpt><trkpt lat="43.43785" lon="10.9499933"><ele>564.0</ele><time>2026-04-18T10:04:56.524Z</time></trkpt><trkpt lat="43.4379417" lon="10.9500967"><ele>564.0</ele><time>2026-04-18T10:04:57.524Z</time></trkpt><trkpt lat="43.4380433" lon="10.9502067"><ele>564.0</ele><time>2026-04-18T10:04:58.524Z</time></trkpt><trkpt lat="43.4381533" lon="10.9503217"><ele>564.3333333333334</ele><time>2026-04-18T10:04:59.524Z</time></trkpt><trkpt lat="43.438265" lon="10.950445"><ele>564.6666666666667</ele><time>2026-04-18T10:05:00.524Z</time></trkpt><trkpt lat="43.4384033" lon="10.9505667"><ele>565.0</ele><time>2026-04-18T10:05:01.524Z</time></trkpt><trkpt lat="43.4385267" lon="10.9507083"><ele>565.0</ele><time>2026-04-18T10:05:02.524Z</time></trkpt><trkpt lat="43.4386517" lon="10.95083"><ele>565.0</ele><time>2026-04-18T10:05:03.524Z</time></trkpt><trkpt lat="43.438775" lon="10.950965"><ele>565.0</ele><time>2026-04-18T10:05:04.524Z</time></trkpt><trkpt lat="43.438905" lon="10.9511"><ele>567.0</ele><time>2026-04-18T10:05:05.524Z</time></trkpt><trkpt lat="43.43904" lon="10.9512467"><ele>569.0</ele><time>2026-04-18T10:05:06.524Z</time></trkpt><trkpt lat="43.4391833" lon="10.951405"><ele>571.0</ele><time>2026-04-18T10:05:07.524Z</time></trkpt><trkpt lat="43.43933" lon="10.951555"><ele>570.0</ele><time>2026-04-18T10:05:08.524Z</time></trkpt><trkpt lat="43.4394783" lon="10.951715"><ele>569.0</ele><time>2026-04-18T10:05:09.524Z</time></trkpt><trkpt lat="43.43962" lon="10.9518717"><ele>568.0</ele><time>2026-04-18T10:05:10.524Z</time></trkpt><trkpt lat="43.4397717" lon="10.9520267"><ele>572.3333333333334</ele><time>2026-04-18T10:05:11.524Z</time></trkpt><trkpt lat="43.43991" lon="10.9521667"><ele>576.6666666666666</ele><time>2026-04-18T10:05:12.524Z</time></trkpt><trkpt lat="43.4400367" lon="10.9523"><ele>581.0</ele><time>2026-04-18T10:05:13.524Z</time></trkpt><trkpt lat="43.4401433" lon="10.9524233"><ele>581.0</ele><time>2026-04-18T10:05:14.524Z</time></trkpt><trkpt lat="43.4402417" lon="10.9525267"><ele>581.0</ele><time>2026-04-18T10:05:15.524Z</time></trkpt><trkpt lat="43.440345" lon="10.95264"><ele>581.0</ele><time>2026-04-18T10:05:16.523Z</time></trkpt><trkpt lat="43.440435" lon="10.952735"><ele>581.0</ele><time>2026-04-18T10:05:17.524Z</time></trkpt><trkpt lat="43.4405183" lon="10.952825"><ele>583.2</ele><time>2026-04-18T10:05:18.523Z</time></trkpt><trkpt lat="43.4406033" lon="10.9529067"><ele>585.4000000000001</ele><time>2026-04-18T10:05:19.523Z</time></trkpt><trkpt lat="43.440705" lon="10.952975"><ele>587.6</ele><time>2026-04-18T10:05:20.523Z</time></trkpt><trkpt lat="43.440775" lon="10.9530467"><ele>589.8000000000001</ele><time>2026-04-18T10:05:21.524Z</time></trkpt><trkpt lat="43.4408483" lon="10.9531017"><ele>592.0</ele><time>2026-04-18T10:05:22.523Z</time></trkpt><trkpt lat="43.4409233" lon="10.9531533"><ele>592.0</ele><time>2026-04-18T10:05:23.523Z</time></trkpt><trkpt lat="43.440985" lon="10.9531717"><ele>592.0</ele><time>2026-04-18T10:05:24.523Z</time></trkpt><trkpt lat="43.4410967" lon="10.953145"><ele>592.0</ele><time>2026-04-18T10:05:26.523Z</time></trkpt><trkpt lat="43.441155" lon="10.9531017"><ele>592.0</ele><time>2026-04-18T10:05:27.523Z</time></trkpt><trkpt lat="43.4411983" lon="10.9530283"><ele>592.0</ele><time>2026-04-18T10:05:28.523Z</time></trkpt><trkpt lat="43.4412283" lon="10.9529233"><ele>592.0</ele><time>2026-04-18T10:05:29.523Z</time></trkpt><trkpt lat="43.4412467" lon="10.9528017"><ele>592.0</ele><time>2026-04-18T10:05:30.523Z</time></trkpt><trkpt lat="43.4412483" lon="10.9527"><ele>592.0</ele><time>2026-04-18T10:05:31.523Z</time></trkpt><trkpt lat="43.4412633" lon="10.9526"><ele>592.0</ele><time>2026-04-18T10:05:32.524Z</time></trkpt><trkpt lat="43.4413367" lon="10.9524767"><ele>592.0</ele><time>2026-04-18T10:05:34.523Z</time></trkpt><trkpt lat="43.4414517" lon="10.9524433"><ele>592.0</ele><time>2026-04-18T10:05:36.524Z</time></trkpt><trkpt lat="43.4415283" lon="10.9524517"><ele>593.5</ele><time>2026-04-18T10:05:37.523Z</time></trkpt><trkpt lat="43.4415967" lon="10.9524733"><ele>595.0</ele><time>2026-04-18T10:05:38.523Z</time></trkpt><trkpt lat="43.4416783" lon="10.952535"><ele>596.5</ele><time>2026-04-18T10:05:40.523Z</time></trkpt><trkpt lat="43.441705" lon="10.95264"><ele>598.0</ele><time>2026-04-18T10:05:42.524Z</time></trkpt><trkpt lat="43.4416833" lon="10.95276"><ele>599.5</ele><time>2026-04-18T10:05:44.524Z</time></trkpt><trkpt lat="43.4416683" lon="10.952845"><ele>601.0</ele><time>2026-04-18T10:05:46.523Z</time></trkpt><trkpt lat="43.4416683" lon="10.9529767"><ele>601.5</ele><time>2026-04-18T10:05:48.523Z</time></trkpt><trkpt lat="43.441665" lon="10.9531133"><ele>602.0</ele><time>2026-04-18T10:05:50.523Z</time></trkpt><trkpt lat="43.44168" lon="10.95327"><ele>602.5</ele><time>2026-04-18T10:05:52.523Z</time></trkpt><trkpt lat="43.4416883" lon="10.9533567"><ele>603.0</ele><time>2026-04-18T10:05:53.524Z</time></trkpt><trkpt lat="43.441695" lon="10.9534533"><ele>603.5</ele><time>2026-04-18T10:05:54.523Z</time></trkpt><trkpt lat="43.441705" lon="10.9535733"><ele>604.0</ele><time>2026-04-18T10:05:55.523Z</time></trkpt><trkpt lat="43.4417167" lon="10.9537117"><ele>604.0</ele><time>2026-04-18T10:05:56.524Z</time></trkpt><trkpt lat="43.44173" lon="10.9538833"><ele>604.0</ele><time>2026-04-18T10:05:57.523Z</time></trkpt><trkpt lat="43.441735" lon="10.9540633"><ele>604.0</ele><time>2026-04-18T10:05:58.523Z</time></trkpt><trkpt lat="43.4417383" lon="10.954245"><ele>604.0</ele><time>2026-04-18T10:05:59.523Z</time></trkpt><trkpt lat="43.44173" lon="10.954435"><ele>603.75</ele><time>2026-04-18T10:06:00.523Z</time></trkpt><trkpt lat="43.44171" lon="10.954625"><ele>603.5</ele><time>2026-04-18T10:06:01.524Z</time></trkpt><trkpt lat="43.4416783" lon="10.9548183"><ele>603.25</ele><time>2026-04-18T10:06:02.523Z</time></trkpt><trkpt lat="43.4416483" lon="10.9550067"><ele>603.0</ele><time>2026-04-18T10:06:03.523Z</time></trkpt><trkpt lat="43.4416183" lon="10.9551767"><ele>602.5</ele><time>2026-04-18T10:06:04.523Z</time></trkpt><trkpt lat="43.44158" lon="10.9553417"><ele>602.0</ele><time>2026-04-18T10:06:05.523Z</time></trkpt><trkpt lat="43.4415417" lon="10.9555083"><ele>601.5</ele><time>2026-04-18T10:06:06.523Z</time></trkpt><trkpt lat="43.441495" lon="10.9556833"><ele>601.0</ele><time>2026-04-18T10:06:07.523Z</time></trkpt><trkpt lat="43.4414267" lon="10.9558617"><ele>600.3333333333334</ele><time>2026-04-18T10:06:08.523Z</time></trkpt><trkpt lat="43.441345" lon="10.9560567"><ele>599.6666666666666</ele><time>2026-04-18T10:06:09.523Z</time></trkpt><trkpt lat="43.4412483" lon="10.956255"><ele>599.0</ele><time>2026-04-18T10:06:10.523Z</time></trkpt><trkpt lat="43.4411383" lon="10.9564533"><ele>599.0</ele><time>2026-04-18T10:06:11.523Z</time></trkpt><trkpt lat="43.4410183" lon="10.9566433"><ele>599.0</ele><time>2026-04-18T10:06:12.523Z</time></trkpt><trkpt lat="43.4408933" lon="10.9568217"><ele>599.0</ele><time>2026-04-18T10:06:13.523Z</time></trkpt><trkpt lat="43.440775" lon="10.9570017"><ele>600.0</ele><time>2026-04-18T10:06:14.523Z</time></trkpt><trkpt lat="43.4406633" lon="10.95718"><ele>601.0</ele><time>2026-04-18T10:06:15.523Z</time></trkpt><trkpt lat="43.440555" lon="10.9573483"><ele>602.0</ele><time>2026-04-18T10:06:16.523Z</time></trkpt><trkpt lat="43.4404517" lon="10.9575167"><ele>600.6666666666666</ele><time>2026-04-18T10:06:17.523Z</time></trkpt><trkpt lat="43.4403367" lon="10.9576883"><ele>599.3333333333334</ele><time>2026-04-18T10:06:18.524Z</time></trkpt><trkpt lat="43.440215" lon="10.9578667"><ele>598.0</ele><time>2026-04-18T10:06:19.523Z</time></trkpt><trkpt lat="43.440105" lon="10.9580433"><ele>598.0</ele><time>2026-04-18T10:06:20.523Z</time></trkpt><trkpt lat="43.4399917" lon="10.9582233"><ele>598.0</ele><time>2026-04-18T10:06:21.523Z</time></trkpt><trkpt lat="43.439885" lon="10.958425"><ele>598.0</ele><time>2026-04-18T10:06:22.524Z</time></trkpt><trkpt lat="43.439765" lon="10.958635"><ele>596.0</ele><time>2026-04-18T10:06:23.523Z</time></trkpt><trkpt lat="43.4396483" lon="10.9588467"><ele>594.0</ele><time>2026-04-18T10:06:24.523Z</time></trkpt><trkpt lat="43.43954" lon="10.9590417"><ele>592.0</ele><time>2026-04-18T10:06:25.523Z</time></trkpt><trkpt lat="43.4394283" lon="10.95922"><ele>591.3333333333334</ele><time>2026-04-18T10:06:26.523Z</time></trkpt><trkpt lat="43.43931" lon="10.95941"><ele>590.6666666666666</ele><time>2026-04-18T10:06:27.523Z</time></trkpt><trkpt lat="43.4392017" lon="10.959585"><ele>590.0</ele><time>2026-04-18T10:06:28.523Z</time></trkpt><trkpt lat="43.439075" lon="10.9597567"><ele>590.0</ele><time>2026-04-18T10:06:29.523Z</time></trkpt><trkpt lat="43.43893" lon="10.9599133"><ele>590.0</ele><time>2026-04-18T10:06:30.523Z</time></trkpt><trkpt lat="43.4387767" lon="10.96004"><ele>590.0</ele><time>2026-04-18T10:06:31.524Z</time></trkpt><trkpt lat="43.4386167" lon="10.96018"><ele>590.3333333333333</ele><time>2026-04-18T10:06:32.523Z</time></trkpt><trkpt lat="43.4384633" lon="10.9603133"><ele>590.6666666666666</ele><time>2026-04-18T10:06:33.523Z</time></trkpt><trkpt lat="43.4383067" lon="10.9604383"><ele>591.0</ele><time>2026-04-18T10:06:34.523Z</time></trkpt><trkpt lat="43.4381567" lon="10.9605583"><ele>591.0</ele><time>2026-04-18T10:06:35.523Z</time></trkpt><trkpt lat="43.4380117" lon="10.960675"><ele>591.0</ele><time>2026-04-18T10:06:36.523Z</time></trkpt><trkpt lat="43.43787" lon="10.960785"><ele>591.0</ele><time>2026-04-18T10:06:37.523Z</time></trkpt><trkpt lat="43.4377317" lon="10.9608733"><ele>591.5</ele><time>2026-04-18T10:06:38.523Z</time></trkpt><trkpt lat="43.4375967" lon="10.9609483"><ele>592.0</ele><time>2026-04-18T10:06:39.523Z</time></trkpt><trkpt lat="43.4374633" lon="10.9610233"><ele>592.5</ele><time>2026-04-18T10:06:40.523Z</time></trkpt><trkpt lat="43.4373367" lon="10.9611033"><ele>593.0</ele><time>2026-04-18T10:06:41.523Z</time></trkpt><trkpt lat="43.437215" lon="10.9612033"><ele>591.25</ele><time>2026-04-18T10:06:42.523Z</time></trkpt><trkpt lat="43.4371083" lon="10.961345"><ele>589.5</ele><time>2026-04-18T10:06:43.523Z</time></trkpt><trkpt lat="43.4370217" lon="10.9615"><ele>587.75</ele><time>2026-04-18T10:06:44.523Z</time></trkpt><trkpt lat="43.43695" lon="10.9616783"><ele>586.0</ele><time>2026-04-18T10:06:45.523Z</time></trkpt><trkpt lat="43.4368933" lon="10.96188"><ele>586.0</ele><time>2026-04-18T10:06:46.523Z</time></trkpt><trkpt lat="43.4368533" lon="10.9621067"><ele>586.0</ele><time>2026-04-18T10:06:47.523Z</time></trkpt><trkpt lat="43.4368133" lon="10.9623167"><ele>586.0</ele><time>2026-04-18T10:06:48.523Z</time></trkpt><trkpt lat="43.4367683" lon="10.9625183"><ele>586.25</ele><time>2026-04-18T10:06:49.523Z</time></trkpt><trkpt lat="43.4367017" lon="10.9626933"><ele>586.5</ele><time>2026-04-18T10:06:50.523Z</time></trkpt><trkpt lat="43.4366283" lon="10.9628417"><ele>586.75</ele><time>2026-04-18T10:06:51.523Z</time></trkpt><trkpt lat="43.436525" lon="10.9629733"><ele>587.0</ele><time>2026-04-18T10:06:52.523Z</time></trkpt><trkpt lat="43.4363967" lon="10.9630917"><ele>586.6666666666666</ele><time>2026-04-18T10:06:53.523Z</time></trkpt><trkpt lat="43.436255" lon="10.9632133"><ele>586.3333333333334</ele><time>2026-04-18T10:06:54.523Z</time></trkpt><trkpt lat="43.4361267" lon="10.9633517"><ele>586.0</ele><time>2026-04-18T10:06:55.523Z</time></trkpt><trkpt lat="43.4360083" lon="10.9635083"><ele>586.0</ele><time>2026-04-18T10:06:56.524Z</time></trkpt><trkpt lat="43.43591" lon="10.963665"><ele>586.0</ele><time>2026-04-18T10:06:57.523Z</time></trkpt><trkpt lat="43.4358267" lon="10.9638483"><ele>586.0</ele><time>2026-04-18T10:06:58.523Z</time></trkpt><trkpt lat="43.4357617" lon="10.964045"><ele>582.0</ele><time>2026-04-18T10:06:59.523Z</time></trkpt><trkpt lat="43.4357017" lon="10.9642333"><ele>578.0</ele><time>2026-04-18T10:07:00.523Z</time></trkpt><trkpt lat="43.4356367" lon="10.964405"><ele>574.0</ele><time>2026-04-18T10:07:01.523Z</time></trkpt><trkpt lat="43.4355517" lon="10.9646033"><ele>574.6666666666667</ele><time>2026-04-18T10:07:02.523Z</time></trkpt><trkpt lat="43.4354467" lon="10.9647917"><ele>575.3333333333334</ele><time>2026-04-18T10:07:03.523Z</time></trkpt><trkpt lat="43.4353467" lon="10.9649717"><ele>576.0</ele><time>2026-04-18T10:07:04.524Z</time></trkpt><trkpt lat="43.4352517" lon="10.9651533"><ele>576.0</ele><time>2026-04-18T10:07:05.524Z</time></trkpt><trkpt lat="43.4351567" lon="10.9653333"><ele>576.0</ele><time>2026-04-18T10:07:06.524Z</time></trkpt><trkpt lat="43.4350783" lon="10.9655167"><ele>576.0</ele><time>2026-04-18T10:07:07.524Z</time></trkpt><trkpt lat="43.4350033" lon="10.965695"><ele>576.0</ele><time>2026-04-18T10:07:08.523Z</time></trkpt><trkpt lat="43.43491" lon="10.9658617"><ele>576.0</ele><time>2026-04-18T10:07:09.523Z</time></trkpt><trkpt lat="43.43479" lon="10.9660183"><ele>576.0</ele><time>2026-04-18T10:07:10.523Z</time></trkpt><trkpt lat="43.434675" lon="10.96616"><ele>573.3333333333334</ele><time>2026-04-18T10:07:11.523Z</time></trkpt><trkpt lat="43.4345483" lon="10.9663217"><ele>570.6666666666667</ele><time>2026-04-18T10:07:12.523Z</time></trkpt><trkpt lat="43.4344383" lon="10.9665083"><ele>568.0</ele><time>2026-04-18T10:07:13.524Z</time></trkpt><trkpt lat="43.4343383" lon="10.9666933"><ele>566.3333333333334</ele><time>2026-04-18T10:07:14.523Z</time></trkpt><trkpt lat="43.4342333" lon="10.9668567"><ele>564.6666666666666</ele><time>2026-04-18T10:07:15.523Z</time></trkpt><trkpt lat="43.4341083" lon="10.9670067"><ele>563.0</ele><time>2026-04-18T10:07:16.523Z</time></trkpt><trkpt lat="43.4339667" lon="10.9671467"><ele>563.0</ele><time>2026-04-18T10:07:17.523Z</time></trkpt><trkpt lat="43.43381" lon="10.96728"><ele>563.0</ele><time>2026-04-18T10:07:18.523Z</time></trkpt><trkpt lat="43.4336483" lon="10.9673883"><ele>563.0</ele><time>2026-04-18T10:07:19.523Z</time></trkpt><trkpt lat="43.4334967" lon="10.96749"><ele>561.3333333333333</ele><time>2026-04-18T10:07:20.523Z</time></trkpt><trkpt lat="43.4333367" lon="10.967585"><ele>559.6666666666666</ele><time>2026-04-18T10:07:21.523Z</time></trkpt><trkpt lat="43.4331783" lon="10.96769"><ele>558.0</ele><time>2026-04-18T10:07:22.523Z</time></trkpt><trkpt lat="43.43303" lon="10.9677817"><ele>558.5</ele><time>2026-04-18T10:07:23.523Z</time></trkpt><trkpt lat="43.43289" lon="10.9678483"><ele>559.0</ele><time>2026-04-18T10:07:24.523Z</time></trkpt><trkpt lat="43.4327517" lon="10.967905"><ele>559.5</ele><time>2026-04-18T10:07:25.523Z</time></trkpt><trkpt lat="43.4326283" lon="10.9679583"><ele>560.0</ele><time>2026-04-18T10:07:26.523Z</time></trkpt><trkpt lat="43.4325233" lon="10.9680367"><ele>560.0</ele><time>2026-04-18T10:07:27.523Z</time></trkpt><trkpt lat="43.4324233" lon="10.9681517"><ele>560.0</ele><time>2026-04-18T10:07:28.523Z</time></trkpt><trkpt lat="43.4323267" lon="10.968295"><ele>560.0</ele><time>2026-04-18T10:07:29.523Z</time></trkpt><trkpt lat="43.4322383" lon="10.9684133"><ele>560.0</ele><time>2026-04-18T10:07:30.523Z</time></trkpt><trkpt lat="43.4321467" lon="10.9684967"><ele>557.5</ele><time>2026-04-18T10:07:31.523Z</time></trkpt><trkpt lat="43.4320267" lon="10.9685367"><ele>555.0</ele><time>2026-04-18T10:07:32.523Z</time></trkpt><trkpt lat="43.43189" lon="10.96854"><ele>552.5</ele><time>2026-04-18T10:07:33.523Z</time></trkpt><trkpt lat="43.4317433" lon="10.9685033"><ele>550.0</ele><time>2026-04-18T10:07:34.523Z</time></trkpt><trkpt lat="43.43159" lon="10.9684467"><ele>550.0</ele><time>2026-04-18T10:07:35.523Z</time></trkpt><trkpt lat="43.431445" lon="10.9683767"><ele>550.0</ele><time>2026-04-18T10:07:36.523Z</time></trkpt><trkpt lat="43.4313133" lon="10.9682967"><ele>550.0</ele><time>2026-04-18T10:07:37.523Z</time></trkpt><trkpt lat="43.431175" lon="10.9682183"><ele>550.0</ele><time>2026-04-18T10:07:38.523Z</time></trkpt><trkpt lat="43.431045" lon="10.96815"><ele>549.5</ele><time>2026-04-18T10:07:39.523Z</time></trkpt><trkpt lat="43.4309233" lon="10.968105"><ele>549.0</ele><time>2026-04-18T10:07:40.523Z</time></trkpt><trkpt lat="43.430795" lon="10.9680733"><ele>548.5</ele><time>2026-04-18T10:07:41.523Z</time></trkpt><trkpt lat="43.4306617" lon="10.96808"><ele>548.0</ele><time>2026-04-18T10:07:42.523Z</time></trkpt><trkpt lat="43.430535" lon="10.96812"><ele>545.5</ele><time>2026-04-18T10:07:43.523Z</time></trkpt><trkpt lat="43.4304067" lon="10.9681833"><ele>543.0</ele><time>2026-04-18T10:07:44.523Z</time></trkpt><trkpt lat="43.430285" lon="10.9682783"><ele>540.5</ele><time>2026-04-18T10:07:45.523Z</time></trkpt><trkpt lat="43.4301617" lon="10.9683983"><ele>538.0</ele><time>2026-04-18T10:07:46.524Z</time></trkpt><trkpt lat="43.4300383" lon="10.96854"><ele>538.0</ele><time>2026-04-18T10:07:47.523Z</time></trkpt><trkpt lat="43.4299117" lon="10.968695"><ele>538.0</ele><time>2026-04-18T10:07:48.523Z</time></trkpt><trkpt lat="43.4297933" lon="10.9688517"><ele>538.0</ele><time>2026-04-18T10:07:49.523Z</time></trkpt><trkpt lat="43.429675" lon="10.96903"><ele>535.6666666666667</ele><time>2026-04-18T10:07:50.523Z</time></trkpt><trkpt lat="43.4295683" lon="10.9692283"><ele>533.3333333333334</ele><time>2026-04-18T10:07:51.523Z</time></trkpt><trkpt lat="43.4294783" lon="10.969435"><ele>531.0</ele><time>2026-04-18T10:07:52.523Z</time></trkpt><trkpt lat="43.4293867" lon="10.9696417"><ele>531.0</ele><time>2026-04-18T10:07:53.523Z</time></trkpt><trkpt lat="43.4293" lon="10.9698217"><ele>531.0</ele><time>2026-04-18T10:07:54.523Z</time></trkpt><trkpt lat="43.4292133" lon="10.9699767"><ele>531.0</ele><time>2026-04-18T10:07:55.523Z</time></trkpt><trkpt lat="43.4291183" lon="10.970095"><ele>531.0</ele><time>2026-04-18T10:07:56.523Z</time></trkpt><trkpt lat="43.4290033" lon="10.9701833"><ele>531.3333333333334</ele><time>2026-04-18T10:07:57.523Z</time></trkpt><trkpt lat="43.4288633" lon="10.9702433"><ele>531.6666666666667</ele><time>2026-04-18T10:07:58.523Z</time></trkpt><trkpt lat="43.42871" lon="10.97028"><ele>532.0</ele><time>2026-04-18T10:07:59.523Z</time></trkpt><trkpt lat="43.4285567" lon="10.9703133"><ele>530.75</ele><time>2026-04-18T10:08:00.523Z</time></trkpt><trkpt lat="43.4284167" lon="10.9703433"><ele>529.5</ele><time>2026-04-18T10:08:01.523Z</time></trkpt><trkpt lat="43.4282967" lon="10.9703817"><ele>528.25</ele><time>2026-04-18T10:08:02.523Z</time></trkpt><trkpt lat="43.4282017" lon="10.970435"><ele>527.0</ele><time>2026-04-18T10:08:03.523Z</time></trkpt><trkpt lat="43.428135" lon="10.97051"><ele>527.0</ele><time>2026-04-18T10:08:04.523Z</time></trkpt><trkpt lat="43.4280867" lon="10.97061"><ele>527.0</ele><time>2026-04-18T10:08:05.523Z</time></trkpt><trkpt lat="43.42807" lon="10.970745"><ele>527.0</ele><time>2026-04-18T10:08:06.523Z</time></trkpt><trkpt lat="43.4280717" lon="10.9709183"><ele>527.0</ele><time>2026-04-18T10:08:07.523Z</time></trkpt><trkpt lat="43.4280833" lon="10.9711183"><ele>526.25</ele><time>2026-04-18T10:08:08.523Z</time></trkpt><trkpt lat="43.428105" lon="10.9713267"><ele>525.5</ele><time>2026-04-18T10:08:09.523Z</time></trkpt><trkpt lat="43.4281033" lon="10.97153"><ele>524.75</ele><time>2026-04-18T10:08:10.523Z</time></trkpt><trkpt lat="43.428055" lon="10.9717233"><ele>524.0</ele><time>2026-04-18T10:08:11.523Z</time></trkpt><trkpt lat="43.4279783" lon="10.97191"><ele>520.3333333333333</ele><time>2026-04-18T10:08:12.523Z</time></trkpt><trkpt lat="43.42789" lon="10.9721"><ele>516.6666666666666</ele><time>2026-04-18T10:08:13.523Z</time></trkpt><trkpt lat="43.42778" lon="10.9722967"><ele>513.0</ele><time>2026-04-18T10:08:14.523Z</time></trkpt><trkpt lat="43.4276567" lon="10.972495"><ele>512.6666666666666</ele><time>2026-04-18T10:08:15.523Z</time></trkpt><trkpt lat="43.4275167" lon="10.9727017"><ele>512.3333333333333</ele><time>2026-04-18T10:08:16.523Z</time></trkpt><trkpt lat="43.42738" lon="10.9728967"><ele>512.0</ele><time>2026-04-18T10:08:17.523Z</time></trkpt><trkpt lat="43.4272433" lon="10.9730783"><ele>511.66666666666663</ele><time>2026-04-18T10:08:18.523Z</time></trkpt><trkpt lat="43.4271067" lon="10.9732467"><ele>511.33333333333337</ele><time>2026-04-18T10:08:19.523Z</time></trkpt><trkpt lat="43.4269783" lon="10.9733983"><ele>511.0</ele><time>2026-04-18T10:08:20.523Z</time></trkpt><trkpt lat="43.4268483" lon="10.97352"><ele>510.6666666666667</ele><time>2026-04-18T10:08:21.523Z</time></trkpt><trkpt lat="43.4267167" lon="10.9736117"><ele>510.33333333333337</ele><time>2026-04-18T10:08:22.523Z</time></trkpt><trkpt lat="43.4265667" lon="10.97368"><ele>510.0</ele><time>2026-04-18T10:08:23.524Z</time></trkpt><trkpt lat="43.4264117" lon="10.97373"><ele>509.5</ele><time>2026-04-18T10:08:24.523Z</time></trkpt><trkpt lat="43.4262683" lon="10.9737583"><ele>509.0</ele><time>2026-04-18T10:08:25.523Z</time></trkpt><trkpt lat="43.4261383" lon="10.9737467"><ele>508.5</ele><time>2026-04-18T10:08:26.523Z</time></trkpt><trkpt lat="43.426035" lon="10.9737067"><ele>508.0</ele><time>2026-04-18T10:08:27.523Z</time></trkpt><trkpt lat="43.4259433" lon="10.9736267"><ele>508.0</ele><time>2026-04-18T10:08:28.523Z</time></trkpt><trkpt lat="43.425855" lon="10.9735133"><ele>508.0</ele><time>2026-04-18T10:08:29.523Z</time></trkpt><trkpt lat="43.4257617" lon="10.97342"><ele>508.0</ele><time>2026-04-18T10:08:30.523Z</time></trkpt><trkpt lat="43.42566" lon="10.9733467"><ele>508.0</ele><time>2026-04-18T10:08:31.523Z</time></trkpt><trkpt lat="43.4255533" lon="10.9732983"><ele>506.0</ele><time>2026-04-18T10:08:32.523Z</time></trkpt><trkpt lat="43.4254483" lon="10.9732783"><ele>503.99999999999994</ele><time>2026-04-18T10:08:33.523Z</time></trkpt><trkpt lat="43.4253417" lon="10.9732883"><ele>501.99999999999994</ele><time>2026-04-18T10:08:34.523Z</time></trkpt><trkpt lat="43.4252467" lon="10.9733317"><ele>500.0</ele><time>2026-04-18T10:08:35.523Z</time></trkpt><trkpt lat="43.4251767" lon="10.9734133"><ele>498.0</ele><time>2026-04-18T10:08:36.523Z</time></trkpt><trkpt lat="43.4251117" lon="10.9735417"><ele>498.0</ele><time>2026-04-18T10:08:37.523Z</time></trkpt><trkpt lat="43.4250733" lon="10.9737017"><ele>498.0</ele><time>2026-04-18T10:08:38.523Z</time></trkpt><trkpt lat="43.4250567" lon="10.9738867"><ele>498.0</ele><time>2026-04-18T10:08:39.523Z</time></trkpt><trkpt lat="43.4250417" lon="10.9740767"><ele>498.0</ele><time>2026-04-18T10:08:40.523Z</time></trkpt><trkpt lat="43.4250083" lon="10.974255"><ele>496.66666666666663</ele><time>2026-04-18T10:08:41.523Z</time></trkpt><trkpt lat="43.4249467" lon="10.974435"><ele>495.3333333333333</ele><time>2026-04-18T10:08:42.523Z</time></trkpt><trkpt lat="43.42487" lon="10.974625"><ele>494.0</ele><time>2026-04-18T10:08:43.523Z</time></trkpt><trkpt lat="43.4248" lon="10.9748117"><ele>494.0</ele><time>2026-04-18T10:08:44.522Z</time></trkpt><trkpt lat="43.4247283" lon="10.9749817"><ele>494.0</ele><time>2026-04-18T10:08:45.523Z</time></trkpt><trkpt lat="43.4246483" lon="10.9751183"><ele>494.0</ele><time>2026-04-18T10:08:46.522Z</time></trkpt><trkpt lat="43.4245433" lon="10.9752267"><ele>494.0</ele><time>2026-04-18T10:08:47.522Z</time></trkpt><trkpt lat="43.4244083" lon="10.9753133"><ele>493.66666666666663</ele><time>2026-04-18T10:08:48.523Z</time></trkpt><trkpt lat="43.4242517" lon="10.9753917"><ele>493.33333333333337</ele><time>2026-04-18T10:08:49.522Z</time></trkpt><trkpt lat="43.4240917" lon="10.9754633"><ele>493.0</ele><time>2026-04-18T10:08:50.522Z</time></trkpt><trkpt lat="43.4239317" lon="10.9755383"><ele>493.33333333333337</ele><time>2026-04-18T10:08:51.522Z</time></trkpt><trkpt lat="43.4237883" lon="10.9756167"><ele>493.66666666666663</ele><time>2026-04-18T10:08:52.523Z</time></trkpt><trkpt lat="43.4236383" lon="10.9757067"><ele>494.0</ele><time>2026-04-18T10:08:53.522Z</time></trkpt><trkpt lat="43.423485" lon="10.9758267"><ele>492.3333333333333</ele><time>2026-04-18T10:08:54.522Z</time></trkpt><trkpt lat="43.423335" lon="10.9759583"><ele>490.66666666666663</ele><time>2026-04-18T10:08:55.522Z</time></trkpt><trkpt lat="43.4231833" lon="10.97607"><ele>489.0</ele><time>2026-04-18T10:08:56.523Z</time></trkpt><trkpt lat="43.42303" lon="10.9761617"><ele>490.75</ele><time>2026-04-18T10:08:57.522Z</time></trkpt><trkpt lat="43.422875" lon="10.9762367"><ele>492.5</ele><time>2026-04-18T10:08:58.522Z</time></trkpt><trkpt lat="43.4227317" lon="10.9762933"><ele>494.25</ele><time>2026-04-18T10:08:59.522Z</time></trkpt><trkpt lat="43.4225967" lon="10.976305"><ele>496.0</ele><time>2026-04-18T10:09:00.522Z</time></trkpt><trkpt lat="43.4224733" lon="10.9762767"><ele>496.0</ele><time>2026-04-18T10:09:01.522Z</time></trkpt><trkpt lat="43.4223517" lon="10.9761817"><ele>496.0</ele><time>2026-04-18T10:09:02.522Z</time></trkpt><trkpt lat="43.4222417" lon="10.9760583"><ele>496.0</ele><time>2026-04-18T10:09:03.522Z</time></trkpt><trkpt lat="43.4221467" lon="10.9759367"><ele>496.0</ele><time>2026-04-18T10:09:04.522Z</time></trkpt><trkpt lat="43.4220467" lon="10.9758467"><ele>498.75</ele><time>2026-04-18T10:09:05.523Z</time></trkpt><trkpt lat="43.421945" lon="10.9757883"><ele>501.5</ele><time>2026-04-18T10:09:06.522Z</time></trkpt><trkpt lat="43.42183" lon="10.9757683"><ele>504.25</ele><time>2026-04-18T10:09:07.522Z</time></trkpt><trkpt lat="43.4217" lon="10.975785"><ele>507.0</ele><time>2026-04-18T10:09:08.522Z</time></trkpt><trkpt lat="43.4215633" lon="10.9758283"><ele>507.0</ele><time>2026-04-18T10:09:09.522Z</time></trkpt><trkpt lat="43.4214133" lon="10.9758667"><ele>507.0</ele><time>2026-04-18T10:09:10.522Z</time></trkpt><trkpt lat="43.4212683" lon="10.9758867"><ele>507.0</ele><time>2026-04-18T10:09:11.522Z</time></trkpt><trkpt lat="43.4211217" lon="10.97588"><ele>507.0</ele><time>2026-04-18T10:09:12.522Z</time></trkpt><trkpt lat="43.4209667" lon="10.9758517"><ele>508.66666666666663</ele><time>2026-04-18T10:09:13.522Z</time></trkpt><trkpt lat="43.4208167" lon="10.9758017"><ele>510.3333333333333</ele><time>2026-04-18T10:09:14.522Z</time></trkpt><trkpt lat="43.4206567" lon="10.97576"><ele>512.0</ele><time>2026-04-18T10:09:15.522Z</time></trkpt><trkpt lat="43.4205" lon="10.9757383"><ele>513.25</ele><time>2026-04-18T10:09:16.522Z</time></trkpt><trkpt lat="43.4203517" lon="10.97574"><ele>514.5</ele><time>2026-04-18T10:09:17.522Z</time></trkpt><trkpt lat="43.4202067" lon="10.9757467"><ele>515.75</ele><time>2026-04-18T10:09:18.522Z</time></trkpt><trkpt lat="43.420065" lon="10.9757683"><ele>517.0</ele><time>2026-04-18T10:09:19.522Z</time></trkpt><trkpt lat="43.4199267" lon="10.9758017"><ele>517.5</ele><time>2026-04-18T10:09:20.523Z</time></trkpt><trkpt lat="43.4198017" lon="10.97586"><ele>518.0</ele><time>2026-04-18T10:09:21.522Z</time></trkpt><trkpt lat="43.419685" lon="10.975925"><ele>518.5</ele><time>2026-04-18T10:09:22.522Z</time></trkpt><trkpt lat="43.4195717" lon="10.9759917"><ele>519.0</ele><time>2026-04-18T10:09:23.522Z</time></trkpt><trkpt lat="43.4194717" lon="10.976055"><ele>519.0</ele><time>2026-04-18T10:09:24.522Z</time></trkpt><trkpt lat="43.4193767" lon="10.976105"><ele>519.0</ele><time>2026-04-18T10:09:25.522Z</time></trkpt><trkpt lat="43.4192867" lon="10.976155"><ele>519.0</ele><time>2026-04-18T10:09:26.522Z</time></trkpt><trkpt lat="43.41921" lon="10.9761817"><ele>519.0</ele><time>2026-04-18T10:09:27.522Z</time></trkpt><trkpt lat="43.4191117" lon="10.9762233"><ele>519.0</ele><time>2026-04-18T10:09:29.522Z</time></trkpt><trkpt lat="43.4190433" lon="10.976225"><ele>519.0</ele><time>2026-04-18T10:09:33.522Z</time></trkpt><trkpt lat="43.4189733" lon="10.9761133"><ele>519.0</ele><time>2026-04-18T10:09:36.522Z</time></trkpt><trkpt lat="43.4189033" lon="10.9760217"><ele>519.0</ele><time>2026-04-18T10:09:38.522Z</time></trkpt><trkpt lat="43.4188517" lon="10.97597"><ele>519.0</ele><time>2026-04-18T10:09:39.522Z</time></trkpt><trkpt lat="43.4187933" lon="10.9759267"><ele>519.0</ele><time>2026-04-18T10:09:40.522Z</time></trkpt><trkpt lat="43.4187283" lon="10.97589"><ele>519.0</ele><time>2026-04-18T10:09:41.522Z</time></trkpt><trkpt lat="43.4186667" lon="10.97585"><ele>519.0</ele><time>2026-04-18T10:09:42.522Z</time></trkpt><trkpt lat="43.41855" lon="10.9757833"><ele>517.4</ele><time>2026-04-18T10:09:44.522Z</time></trkpt><trkpt lat="43.4184633" lon="10.9757183"><ele>515.8</ele><time>2026-04-18T10:09:46.522Z</time></trkpt><trkpt lat="43.4183883" lon="10.9756417"><ele>514.2</ele><time>2026-04-18T10:09:48.522Z</time></trkpt><trkpt lat="43.4182933" lon="10.9755767"><ele>512.6</ele><time>2026-04-18T10:09:50.522Z</time></trkpt><trkpt lat="43.4181967" lon="10.9755433"><ele>511.0</ele><time>2026-04-18T10:09:52.522Z</time></trkpt><trkpt lat="43.418075" lon="10.975515"><ele>511.20000000000005</ele><time>2026-04-18T10:09:54.523Z</time></trkpt><trkpt lat="43.4179567" lon="10.9754867"><ele>511.40000000000003</ele><time>2026-04-18T10:09:56.522Z</time></trkpt><trkpt lat="43.41783" lon="10.9754667"><ele>511.6</ele><time>2026-04-18T10:09:58.522Z</time></trkpt><trkpt lat="43.417765" lon="10.9754617"><ele>511.8</ele><time>2026-04-18T10:09:59.522Z</time></trkpt><trkpt lat="43.4177017" lon="10.9754517"><ele>512.0</ele><time>2026-04-18T10:10:00.522Z</time></trkpt><trkpt lat="43.4176017" lon="10.9754283"><ele>512.0</ele><time>2026-04-18T10:10:02.522Z</time></trkpt><trkpt lat="43.4175383" lon="10.975425"><ele>512.0</ele><time>2026-04-18T10:10:04.522Z</time></trkpt><trkpt lat="43.417455" lon="10.9754433"><ele>512.0</ele><time>2026-04-18T10:10:07.523Z</time></trkpt><trkpt lat="43.41737" lon="10.9753967"><ele>512.0</ele><time>2026-04-18T10:10:10.522Z</time></trkpt><trkpt lat="43.41737" lon="10.975275"><ele>512.0</ele><time>2026-04-18T10:10:14.522Z</time></trkpt><trkpt lat="43.4174567" lon="10.9751417"><ele>511.99999999999994</ele><time>2026-04-18T10:10:16.522Z</time></trkpt><trkpt lat="43.4175067" lon="10.9750583"><ele>512.0</ele><time>2026-04-18T10:10:17.522Z</time></trkpt><trkpt lat="43.4175567" lon="10.9749717"><ele>512.0</ele><time>2026-04-18T10:10:18.522Z</time></trkpt><trkpt lat="43.417605" lon="10.9748867"><ele>512.0</ele><time>2026-04-18T10:10:19.522Z</time></trkpt><trkpt lat="43.4176533" lon="10.9748117"><ele>511.99999999999994</ele><time>2026-04-18T10:10:20.522Z</time></trkpt><trkpt lat="43.4177217" lon="10.9746733"><ele>512.0</ele><time>2026-04-18T10:10:22.522Z</time></trkpt><trkpt lat="43.4177533" lon="10.9745983"><ele>509.20000000000005</ele><time>2026-04-18T10:10:23.522Z</time></trkpt><trkpt lat="43.4177483" lon="10.9744283"><ele>506.40000000000003</ele><time>2026-04-18T10:10:25.522Z</time></trkpt><trkpt lat="43.41772" lon="10.9743283"><ele>503.59999999999997</ele><time>2026-04-18T10:10:26.522Z</time></trkpt><trkpt lat="43.4176667" lon="10.9742133"><ele>500.79999999999995</ele><time>2026-04-18T10:10:27.522Z</time></trkpt><trkpt lat="43.4175917" lon="10.9741"><ele>498.0</ele><time>2026-04-18T10:10:28.522Z</time></trkpt><trkpt lat="43.4175217" lon="10.97397"><ele>495.59999999999997</ele><time>2026-04-18T10:10:29.522Z</time></trkpt><trkpt lat="43.4174517" lon="10.9738383"><ele>493.19999999999993</ele><time>2026-04-18T10:10:30.522Z</time></trkpt><trkpt lat="43.417385" lon="10.97372"><ele>490.8</ele><time>2026-04-18T10:10:31.522Z</time></trkpt><trkpt lat="43.417315" lon="10.9735867"><ele>488.4</ele><time>2026-04-18T10:10:32.522Z</time></trkpt><trkpt lat="43.4172617" lon="10.9734667"><ele>486.0</ele><time>2026-04-18T10:10:33.522Z</time></trkpt><trkpt lat="43.4172083" lon="10.9733317"><ele>484.6</ele><time>2026-04-18T10:10:34.523Z</time></trkpt><trkpt lat="43.4171583" lon="10.9732033"><ele>483.20000000000005</ele><time>2026-04-18T10:10:35.522Z</time></trkpt><trkpt lat="43.4171217" lon="10.9730833"><ele>481.79999999999995</ele><time>2026-04-18T10:10:36.522Z</time></trkpt><trkpt lat="43.4170817" lon="10.972965"><ele>480.4</ele><time>2026-04-18T10:10:37.523Z</time></trkpt><trkpt lat="43.4170417" lon="10.9728233"><ele>479.0</ele><time>2026-04-18T10:10:38.522Z</time></trkpt><trkpt lat="43.4169983" lon="10.9726933"><ele>478.25</ele><time>2026-04-18T10:10:39.522Z</time></trkpt><trkpt lat="43.41696" lon="10.9725417"><ele>477.5</ele><time>2026-04-18T10:10:40.523Z</time></trkpt><trkpt lat="43.41692" lon="10.9723783"><ele>476.75</ele><time>2026-04-18T10:10:41.522Z</time></trkpt><trkpt lat="43.4168717" lon="10.972215"><ele>476.0</ele><time>2026-04-18T10:10:42.522Z</time></trkpt><trkpt lat="43.4168183" lon="10.972045"><ele>475.75</ele><time>2026-04-18T10:10:43.522Z</time></trkpt><trkpt lat="43.4167667" lon="10.9718767"><ele>475.5</ele><time>2026-04-18T10:10:44.522Z</time></trkpt><trkpt lat="43.4167133" lon="10.9717067"><ele>475.25</ele><time>2026-04-18T10:10:45.523Z</time></trkpt><trkpt lat="43.4166583" lon="10.9715317"><ele>475.0</ele><time>2026-04-18T10:10:46.522Z</time></trkpt><trkpt lat="43.4165917" lon="10.9713683"><ele>475.75</ele><time>2026-04-18T10:10:47.522Z</time></trkpt><trkpt lat="43.4165267" lon="10.9712133"><ele>476.5</ele><time>2026-04-18T10:10:48.522Z</time></trkpt><trkpt lat="43.4164583" lon="10.971075"><ele>477.25</ele><time>2026-04-18T10:10:49.522Z</time></trkpt><trkpt lat="43.4163917" lon="10.9709417"><ele>478.0</ele><time>2026-04-18T10:10:50.522Z</time></trkpt><trkpt lat="43.416315" lon="10.9708033"><ele>479.0</ele><time>2026-04-18T10:10:51.522Z</time></trkpt><trkpt lat="43.4162317" lon="10.970655"><ele>480.0</ele><time>2026-04-18T10:10:52.522Z</time></trkpt><trkpt lat="43.4161617" lon="10.9705133"><ele>481.0</ele><time>2026-04-18T10:10:53.523Z</time></trkpt><trkpt lat="43.4160933" lon="10.9703867"><ele>482.0</ele><time>2026-04-18T10:10:54.522Z</time></trkpt><trkpt lat="43.416035" lon="10.9702667"><ele>482.0</ele><time>2026-04-18T10:10:55.522Z</time></trkpt><trkpt lat="43.41598" lon="10.970155"><ele>482.0</ele><time>2026-04-18T10:10:56.523Z</time></trkpt><trkpt lat="43.4159117" lon="10.97003"><ele>482.0</ele><time>2026-04-18T10:10:57.522Z</time></trkpt><trkpt lat="43.4158433" lon="10.9698967"><ele>482.0</ele><time>2026-04-18T10:10:58.522Z</time></trkpt><trkpt lat="43.41577" lon="10.96976"><ele>481.6</ele><time>2026-04-18T10:10:59.522Z</time></trkpt><trkpt lat="43.415705" lon="10.969635"><ele>481.20000000000005</ele><time>2026-04-18T10:11:00.522Z</time></trkpt><trkpt lat="43.4156433" lon="10.9695267"><ele>480.8</ele><time>2026-04-18T10:11:01.522Z</time></trkpt><trkpt lat="43.4155883" lon="10.9694233"><ele>480.4</ele><time>2026-04-18T10:11:02.523Z</time></trkpt><trkpt lat="43.4155383" lon="10.9693283"><ele>480.0</ele><time>2026-04-18T10:11:03.522Z</time></trkpt><trkpt lat="43.4155033" lon="10.9692167"><ele>479.0</ele><time>2026-04-18T10:11:04.522Z</time></trkpt><trkpt lat="43.4154783" lon="10.9690983"><ele>478.0</ele><time>2026-04-18T10:11:05.522Z</time></trkpt><trkpt lat="43.415465" lon="10.968955"><ele>477.0</ele><time>2026-04-18T10:11:06.522Z</time></trkpt><trkpt lat="43.4154583" lon="10.9687967"><ele>476.0</ele><time>2026-04-18T10:11:07.522Z</time></trkpt><trkpt lat="43.4154583" lon="10.9686317"><ele>475.0</ele><time>2026-04-18T10:11:08.522Z</time></trkpt><trkpt lat="43.4154633" lon="10.9684483"><ele>475.33333333333337</ele><time>2026-04-18T10:11:09.522Z</time></trkpt><trkpt lat="43.415475" lon="10.9682517"><ele>475.66666666666663</ele><time>2026-04-18T10:11:10.522Z</time></trkpt><trkpt lat="43.4154917" lon="10.9680433"><ele>476.0</ele><time>2026-04-18T10:11:11.522Z</time></trkpt><trkpt lat="43.41551" lon="10.967825"><ele>476.0</ele><time>2026-04-18T10:11:12.522Z</time></trkpt><trkpt lat="43.4155517" lon="10.9675967"><ele>476.0</ele><time>2026-04-18T10:11:13.522Z</time></trkpt><trkpt lat="43.4155833" lon="10.9673883"><ele>476.0</ele><time>2026-04-18T10:11:14.522Z</time></trkpt><trkpt lat="43.4156167" lon="10.967195"><ele>477.6</ele><time>2026-04-18T10:11:15.522Z</time></trkpt><trkpt lat="43.4156433" lon="10.96703"><ele>479.20000000000005</ele><time>2026-04-18T10:11:16.522Z</time></trkpt><trkpt lat="43.415665" lon="10.96688"><ele>480.79999999999995</ele><time>2026-04-18T10:11:17.522Z</time></trkpt><trkpt lat="43.4156633" lon="10.966745"><ele>482.4</ele><time>2026-04-18T10:11:18.522Z</time></trkpt><trkpt lat="43.4156783" lon="10.9666083"><ele>484.0</ele><time>2026-04-18T10:11:19.522Z</time></trkpt><trkpt lat="43.4156967" lon="10.9664783"><ele>485.1666666666667</ele><time>2026-04-18T10:11:20.522Z</time></trkpt><trkpt lat="43.4157117" lon="10.9663617"><ele>486.33333333333337</ele><time>2026-04-18T10:11:21.522Z</time></trkpt><trkpt lat="43.415705" lon="10.96626"><ele>487.5</ele><time>2026-04-18T10:11:22.522Z</time></trkpt><trkpt lat="43.415695" lon="10.9661483"><ele>488.66666666666663</ele><time>2026-04-18T10:11:23.523Z</time></trkpt><trkpt lat="43.4156783" lon="10.9660233"><ele>489.8333333333333</ele><time>2026-04-18T10:11:24.522Z</time></trkpt><trkpt lat="43.4156483" lon="10.965895"><ele>491.0</ele><time>2026-04-18T10:11:25.522Z</time></trkpt><trkpt lat="43.4156233" lon="10.9657583"><ele>491.49999999999994</ele><time>2026-04-18T10:11:26.522Z</time></trkpt><trkpt lat="43.415605" lon="10.96565"><ele>492.0</ele><time>2026-04-18T10:11:27.522Z</time></trkpt><trkpt lat="43.4155933" lon="10.9655317"><ele>492.5</ele><time>2026-04-18T10:11:28.522Z</time></trkpt><trkpt lat="43.4155867" lon="10.9653983"><ele>493.0</ele><time>2026-04-18T10:11:29.523Z</time></trkpt><trkpt lat="43.4155883" lon="10.96527"><ele>493.49999999999994</ele><time>2026-04-18T10:11:30.522Z</time></trkpt><trkpt lat="43.4155967" lon="10.9651483"><ele>494.0</ele><time>2026-04-18T10:11:31.522Z</time></trkpt><trkpt lat="43.415625" lon="10.9650317"><ele>494.6</ele><time>2026-04-18T10:11:32.522Z</time></trkpt><trkpt lat="43.4156467" lon="10.96494"><ele>495.2</ele><time>2026-04-18T10:11:33.523Z</time></trkpt><trkpt lat="43.4156683" lon="10.9648583"><ele>495.80000000000007</ele><time>2026-04-18T10:11:34.522Z</time></trkpt><trkpt lat="43.4156867" lon="10.9647133"><ele>496.40000000000003</ele><time>2026-04-18T10:11:36.522Z</time></trkpt><trkpt lat="43.4156767" lon="10.96456"><ele>497.0</ele><time>2026-04-18T10:11:38.522Z</time></trkpt><trkpt lat="43.415625" lon="10.9644183"><ele>497.0</ele><time>2026-04-18T10:11:40.522Z</time></trkpt><trkpt lat="43.4155533" lon="10.9642817"><ele>497.00000000000006</ele><time>2026-04-18T10:11:42.522Z</time></trkpt><trkpt lat="43.4154767" lon="10.9641633"><ele>497.00000000000006</ele><time>2026-04-18T10:11:44.522Z</time></trkpt><trkpt lat="43.4154" lon="10.9640683"><ele>497.0</ele><time>2026-04-18T10:11:46.522Z</time></trkpt><trkpt lat="43.4153217" lon="10.9640033"><ele>497.0</ele><time>2026-04-18T10:11:48.522Z</time></trkpt><trkpt lat="43.4152317" lon="10.9639283"><ele>496.16666666666663</ele><time>2026-04-18T10:11:50.522Z</time></trkpt><trkpt lat="43.4151167" lon="10.9638617"><ele>495.3333333333333</ele><time>2026-04-18T10:11:52.522Z</time></trkpt><trkpt lat="43.4150617" lon="10.96381"><ele>494.5</ele><time>2026-04-18T10:11:53.522Z</time></trkpt><trkpt lat="43.4150083" lon="10.96376"><ele>493.66666666666663</ele><time>2026-04-18T10:11:54.522Z</time></trkpt><trkpt lat="43.41495" lon="10.96371"><ele>492.8333333333333</ele><time>2026-04-18T10:11:55.523Z</time></trkpt><trkpt lat="43.4148917" lon="10.9636633"><ele>492.0</ele><time>2026-04-18T10:11:56.523Z</time></trkpt><trkpt lat="43.4148233" lon="10.9636267"><ele>492.00000000000006</ele><time>2026-04-18T10:11:57.522Z</time></trkpt><trkpt lat="43.414755" lon="10.9635967"><ele>492.0</ele><time>2026-04-18T10:11:58.522Z</time></trkpt><trkpt lat="43.414695" lon="10.9635683"><ele>492.00000000000006</ele><time>2026-04-18T10:11:59.522Z</time></trkpt><trkpt lat="43.41463" lon="10.96355"><ele>492.00000000000006</ele><time>2026-04-18T10:12:00.522Z</time></trkpt><trkpt lat="43.4145617" lon="10.963525"><ele>492.0</ele><time>2026-04-18T10:12:01.522Z</time></trkpt><trkpt lat="43.41449" lon="10.963505"><ele>492.00000000000006</ele><time>2026-04-18T10:12:02.522Z</time></trkpt><trkpt lat="43.4144233" lon="10.96348"><ele>492.00000000000006</ele><time>2026-04-18T10:12:03.522Z</time></trkpt><trkpt lat="43.4143117" lon="10.9634433"><ele>490.0</ele><time>2026-04-18T10:12:05.522Z</time></trkpt><trkpt lat="43.4142283" lon="10.963405"><ele>488.0</ele><time>2026-04-18T10:12:07.522Z</time></trkpt><trkpt lat="43.4141667" lon="10.9633517"><ele>486.0</ele><time>2026-04-18T10:12:09.522Z</time></trkpt><trkpt lat="43.41411" lon="10.963255"><ele>484.0</ele><time>2026-04-18T10:12:11.522Z</time></trkpt><trkpt lat="43.4140433" lon="10.9631283"><ele>482.0</ele><time>2026-04-18T10:12:13.521Z</time></trkpt><trkpt lat="43.414005" lon="10.963025"><ele>480.0</ele><time>2026-04-18T10:12:15.521Z</time></trkpt><trkpt lat="43.41398" lon="10.9629317"><ele>480.0</ele><time>2026-04-18T10:12:17.522Z</time></trkpt><trkpt lat="43.4139" lon="10.9628717"><ele>480.0</ele><time>2026-04-18T10:12:20.521Z</time></trkpt><trkpt lat="43.41381" lon="10.96289"><ele>480.0</ele><time>2026-04-18T10:12:22.521Z</time></trkpt><trkpt lat="43.4137067" lon="10.9629717"><ele>480.0</ele><time>2026-04-18T10:12:24.521Z</time></trkpt><trkpt lat="43.4135983" lon="10.96305"><ele>480.0</ele><time>2026-04-18T10:12:26.521Z</time></trkpt><trkpt lat="43.413535" lon="10.9630967"><ele>478.0</ele><time>2026-04-18T10:12:27.521Z</time></trkpt><trkpt lat="43.4134767" lon="10.963135"><ele>476.0</ele><time>2026-04-18T10:12:28.521Z</time></trkpt><trkpt lat="43.4133617" lon="10.9631667"><ele>474.0</ele><time>2026-04-18T10:12:30.522Z</time></trkpt><trkpt lat="43.4132517" lon="10.963145"><ele>472.0</ele><time>2026-04-18T10:12:32.522Z</time></trkpt><trkpt lat="43.4131933" lon="10.9631033"><ele>470.0</ele><time>2026-04-18T10:12:33.522Z</time></trkpt><trkpt lat="43.4131317" lon="10.9630517"><ele>468.0</ele><time>2026-04-18T10:12:34.521Z</time></trkpt><trkpt lat="43.4130383" lon="10.9629383"><ele>465.3333333333333</ele><time>2026-04-18T10:12:36.522Z</time></trkpt><trkpt lat="43.4129867" lon="10.9628617"><ele>462.66666666666663</ele><time>2026-04-18T10:12:37.521Z</time></trkpt><trkpt lat="43.4129383" lon="10.9627883"><ele>460.0</ele><time>2026-04-18T10:12:38.521Z</time></trkpt><trkpt lat="43.4128933" lon="10.9627133"><ele>457.3333333333333</ele><time>2026-04-18T10:12:39.521Z</time></trkpt><trkpt lat="43.4128483" lon="10.9626417"><ele>454.66666666666663</ele><time>2026-04-18T10:12:40.521Z</time></trkpt><trkpt lat="43.412765" lon="10.9625367"><ele>452.0</ele><time>2026-04-18T10:12:42.521Z</time></trkpt><trkpt lat="43.4127067" lon="10.962455"><ele>451.66666666666663</ele><time>2026-04-18T10:12:44.521Z</time></trkpt><trkpt lat="43.4126767" lon="10.9623333"><ele>451.3333333333333</ele><time>2026-04-18T10:12:47.521Z</time></trkpt><trkpt lat="43.4126767" lon="10.9621933"><ele>451.0</ele><time>2026-04-18T10:12:49.521Z</time></trkpt><trkpt lat="43.412685" lon="10.962095"><ele>450.66666666666663</ele><time>2026-04-18T10:12:50.522Z</time></trkpt><trkpt lat="43.412695" lon="10.9619917"><ele>450.3333333333333</ele><time>2026-04-18T10:12:51.521Z</time></trkpt><trkpt lat="43.4127217" lon="10.9618883"><ele>450.0</ele><time>2026-04-18T10:12:52.522Z</time></trkpt><trkpt lat="43.4127367" lon="10.9617817"><ele>449.1666666666667</ele><time>2026-04-18T10:12:53.521Z</time></trkpt><trkpt lat="43.412755" lon="10.96167"><ele>448.33333333333337</ele><time>2026-04-18T10:12:54.521Z</time></trkpt><trkpt lat="43.4127767" lon="10.96157"><ele>447.5</ele><time>2026-04-18T10:12:55.521Z</time></trkpt><trkpt lat="43.412795" lon="10.9614783"><ele>446.6666666666667</ele><time>2026-04-18T10:12:56.521Z</time></trkpt><trkpt lat="43.4128" lon="10.9613783"><ele>445.83333333333337</ele><time>2026-04-18T10:12:57.521Z</time></trkpt><trkpt lat="43.4128067" lon="10.9612917"><ele>445.0</ele><time>2026-04-18T10:12:58.522Z</time></trkpt><trkpt lat="43.4128083" lon="10.9611267"><ele>445.00000000000006</ele><time>2026-04-18T10:13:00.522Z</time></trkpt><trkpt lat="43.4127983" lon="10.9610383"><ele>445.0</ele><time>2026-04-18T10:13:01.521Z</time></trkpt><trkpt lat="43.4127767" lon="10.960865"><ele>445.0</ele><time>2026-04-18T10:13:03.521Z</time></trkpt><trkpt lat="43.4127533" lon="10.96071"><ele>445.0</ele><time>2026-04-18T10:13:05.522Z</time></trkpt><trkpt lat="43.4127433" lon="10.9606167"><ele>445.00000000000006</ele><time>2026-04-18T10:13:06.521Z</time></trkpt><trkpt lat="43.4127383" lon="10.9605217"><ele>445.0</ele><time>2026-04-18T10:13:07.521Z</time></trkpt><trkpt lat="43.412735" lon="10.9604083"><ele>442.4</ele><time>2026-04-18T10:13:08.521Z</time></trkpt><trkpt lat="43.4127417" lon="10.9602833"><ele>439.8</ele><time>2026-04-18T10:13:09.521Z</time></trkpt><trkpt lat="43.4127533" lon="10.9601567"><ele>437.20000000000005</ele><time>2026-04-18T10:13:10.522Z</time></trkpt><trkpt lat="43.4127667" lon="10.960035"><ele>434.6</ele><time>2026-04-18T10:13:11.521Z</time></trkpt><trkpt lat="43.4127817" lon="10.95991"><ele>432.0</ele><time>2026-04-18T10:13:12.521Z</time></trkpt><trkpt lat="43.4127983" lon="10.9597867"><ele>430.57142857142856</ele><time>2026-04-18T10:13:13.521Z</time></trkpt><trkpt lat="43.4128183" lon="10.9596717"><ele>429.1428571428571</ele><time>2026-04-18T10:13:14.521Z</time></trkpt><trkpt lat="43.4128367" lon="10.9595767"><ele>427.7142857142857</ele><time>2026-04-18T10:13:15.522Z</time></trkpt><trkpt lat="43.4128583" lon="10.9594933"><ele>426.2857142857143</ele><time>2026-04-18T10:13:16.522Z</time></trkpt><trkpt lat="43.4128867" lon="10.9594083"><ele>424.8571428571429</ele><time>2026-04-18T10:13:17.522Z</time></trkpt><trkpt lat="43.4129133" lon="10.959325"><ele>423.42857142857144</ele><time>2026-04-18T10:13:18.521Z</time></trkpt><trkpt lat="43.4129233" lon="10.9592333"><ele>422.0</ele><time>2026-04-18T10:13:19.521Z</time></trkpt><trkpt lat="43.4129317" lon="10.9591467"><ele>420.3333333333333</ele><time>2026-04-18T10:13:20.521Z</time></trkpt><trkpt lat="43.4129333" lon="10.9590567"><ele>418.66666666666663</ele><time>2026-04-18T10:13:21.522Z</time></trkpt><trkpt lat="43.412925" lon="10.9589633"><ele>417.0</ele><time>2026-04-18T10:13:22.521Z</time></trkpt><trkpt lat="43.4129033" lon="10.9588567"><ele>415.33333333333337</ele><time>2026-04-18T10:13:23.521Z</time></trkpt><trkpt lat="43.412885" lon="10.958745"><ele>413.6666666666667</ele><time>2026-04-18T10:13:24.521Z</time></trkpt><trkpt lat="43.4128817" lon="10.9586133"><ele>412.0</ele><time>2026-04-18T10:13:25.521Z</time></trkpt><trkpt lat="43.4128483" lon="10.9584833"><ele>410.40000000000003</ele><time>2026-04-18T10:13:26.521Z</time></trkpt><trkpt lat="43.4128133" lon="10.9583467"><ele>408.8</ele><time>2026-04-18T10:13:27.521Z</time></trkpt><trkpt lat="43.4127767" lon="10.958205"><ele>407.2</ele><time>2026-04-18T10:13:28.521Z</time></trkpt><trkpt lat="43.4127367" lon="10.958065"><ele>405.6</ele><time>2026-04-18T10:13:29.521Z</time></trkpt><trkpt lat="43.412695" lon="10.95793"><ele>404.0</ele><time>2026-04-18T10:13:30.521Z</time></trkpt><trkpt lat="43.4126567" lon="10.9577833"><ele>404.0</ele><time>2026-04-18T10:13:31.521Z</time></trkpt><trkpt lat="43.4126183" lon="10.9576433"><ele>404.0</ele><time>2026-04-18T10:13:32.521Z</time></trkpt><trkpt lat="43.4125833" lon="10.9575067"><ele>404.0</ele><time>2026-04-18T10:13:33.521Z</time></trkpt><trkpt lat="43.412545" lon="10.9573717"><ele>404.0</ele><time>2026-04-18T10:13:34.521Z</time></trkpt><trkpt lat="43.41251" lon="10.957245"><ele>404.0</ele><time>2026-04-18T10:13:35.521Z</time></trkpt><trkpt lat="43.4124783" lon="10.9571117"><ele>402.3333333333333</ele><time>2026-04-18T10:13:36.521Z</time></trkpt><trkpt lat="43.4124467" lon="10.9569917"><ele>400.66666666666663</ele><time>2026-04-18T10:13:37.521Z</time></trkpt><trkpt lat="43.41241" lon="10.9568883"><ele>399.0</ele><time>2026-04-18T10:13:38.521Z</time></trkpt><trkpt lat="43.412385" lon="10.9567883"><ele>397.33333333333337</ele><time>2026-04-18T10:13:39.522Z</time></trkpt><trkpt lat="43.4123667" lon="10.956695"><ele>395.6666666666667</ele><time>2026-04-18T10:13:40.521Z</time></trkpt><trkpt lat="43.4123667" lon="10.9565567"><ele>394.0</ele><time>2026-04-18T10:13:42.521Z</time></trkpt><trkpt lat="43.412385" lon="10.9564183"><ele>393.1666666666667</ele><time>2026-04-18T10:13:44.522Z</time></trkpt><trkpt lat="43.4124133" lon="10.95627"><ele>392.33333333333337</ele><time>2026-04-18T10:13:46.521Z</time></trkpt><trkpt lat="43.4124183" lon="10.9561333"><ele>391.5</ele><time>2026-04-18T10:13:48.522Z</time></trkpt><trkpt lat="43.4124" lon="10.9559967"><ele>390.66666666666663</ele><time>2026-04-18T10:13:50.521Z</time></trkpt><trkpt lat="43.4123533" lon="10.95593"><ele>389.8333333333333</ele><time>2026-04-18T10:13:51.521Z</time></trkpt><trkpt lat="43.4123" lon="10.9558667"><ele>389.0</ele><time>2026-04-18T10:13:52.521Z</time></trkpt><trkpt lat="43.4122483" lon="10.95581"><ele>389.0</ele><time>2026-04-18T10:13:53.521Z</time></trkpt><trkpt lat="43.4121967" lon="10.9557483"><ele>389.0</ele><time>2026-04-18T10:13:54.521Z</time></trkpt><trkpt lat="43.4121017" lon="10.95565"><ele>389.0</ele><time>2026-04-18T10:13:56.522Z</time></trkpt><trkpt lat="43.4120717" lon="10.955555"><ele>389.0</ele><time>2026-04-18T10:13:58.521Z</time></trkpt><trkpt lat="43.412075" lon="10.9554117"><ele>389.0</ele><time>2026-04-18T10:14:00.521Z</time></trkpt><trkpt lat="43.4120783" lon="10.9552583"><ele>388.99999999999994</ele><time>2026-04-18T10:14:02.521Z</time></trkpt><trkpt lat="43.4120683" lon="10.955095"><ele>389.0</ele><time>2026-04-18T10:14:04.521Z</time></trkpt><trkpt lat="43.4120567" lon="10.9549967"><ele>389.0</ele><time>2026-04-18T10:14:05.521Z</time></trkpt><trkpt lat="43.4120417" lon="10.95491"><ele>389.0</ele><time>2026-04-18T10:14:06.521Z</time></trkpt><trkpt lat="43.4120267" lon="10.9548167"><ele>388.99999999999994</ele><time>2026-04-18T10:14:07.521Z</time></trkpt><trkpt lat="43.4120017" lon="10.9547317"><ele>389.0</ele><time>2026-04-18T10:14:08.521Z</time></trkpt><trkpt lat="43.4119717" lon="10.9546417"><ele>390.49999999999994</ele><time>2026-04-18T10:14:09.521Z</time></trkpt><trkpt lat="43.4119533" lon="10.9545517"><ele>392.0</ele><time>2026-04-18T10:14:10.521Z</time></trkpt><trkpt lat="43.4119333" lon="10.9544567"><ele>393.5</ele><time>2026-04-18T10:14:11.521Z</time></trkpt><trkpt lat="43.4119233" lon="10.9543333"><ele>395.0</ele><time>2026-04-18T10:14:12.521Z</time></trkpt><trkpt lat="43.4119133" lon="10.954205"><ele>396.49999999999994</ele><time>2026-04-18T10:14:13.521Z</time></trkpt><trkpt lat="43.4118983" lon="10.9540683"><ele>398.0</ele><time>2026-04-18T10:14:14.521Z</time></trkpt><trkpt lat="43.41188" lon="10.9539317"><ele>398.4</ele><time>2026-04-18T10:14:15.521Z</time></trkpt><trkpt lat="43.4118717" lon="10.9537983"><ele>398.79999999999995</ele><time>2026-04-18T10:14:16.521Z</time></trkpt><trkpt lat="43.4118683" lon="10.9536417"><ele>399.2</ele><time>2026-04-18T10:14:17.521Z</time></trkpt><trkpt lat="43.4118567" lon="10.9534833"><ele>399.6</ele><time>2026-04-18T10:14:18.521Z</time></trkpt><trkpt lat="43.4118517" lon="10.9533167"><ele>400.0</ele><time>2026-04-18T10:14:19.521Z</time></trkpt><trkpt lat="43.4118467" lon="10.9531533"><ele>401.5</ele><time>2026-04-18T10:14:20.522Z</time></trkpt><trkpt lat="43.411845" lon="10.9529917"><ele>403.0</ele><time>2026-04-18T10:14:21.521Z</time></trkpt><trkpt lat="43.4118317" lon="10.952835"><ele>404.5</ele><time>2026-04-18T10:14:22.521Z</time></trkpt><trkpt lat="43.4118183" lon="10.9526733"><ele>406.0</ele><time>2026-04-18T10:14:23.521Z</time></trkpt><trkpt lat="43.411805" lon="10.95251"><ele>407.20000000000005</ele><time>2026-04-18T10:14:24.521Z</time></trkpt><trkpt lat="43.4117983" lon="10.9523617"><ele>408.40000000000003</ele><time>2026-04-18T10:14:25.521Z</time></trkpt><trkpt lat="43.4117967" lon="10.9522217"><ele>409.6</ele><time>2026-04-18T10:14:26.521Z</time></trkpt><trkpt lat="43.4117917" lon="10.952085"><ele>410.8</ele><time>2026-04-18T10:14:27.521Z</time></trkpt><trkpt lat="43.41178" lon="10.9519517"><ele>412.0</ele><time>2026-04-18T10:14:28.522Z</time></trkpt><trkpt lat="43.4117717" lon="10.951805"><ele>412.8</ele><time>2026-04-18T10:14:29.521Z</time></trkpt><trkpt lat="43.4117633" lon="10.951665"><ele>413.6</ele><time>2026-04-18T10:14:30.521Z</time></trkpt><trkpt lat="43.4117517" lon="10.95152"><ele>414.40000000000003</ele><time>2026-04-18T10:14:31.522Z</time></trkpt><trkpt lat="43.4117383" lon="10.951375"><ele>415.20000000000005</ele><time>2026-04-18T10:14:32.521Z</time></trkpt><trkpt lat="43.4117283" lon="10.95123"><ele>416.0</ele><time>2026-04-18T10:14:33.521Z</time></trkpt><trkpt lat="43.4117233" lon="10.9510883"><ele>416.0</ele><time>2026-04-18T10:14:34.521Z</time></trkpt><trkpt lat="43.41172" lon="10.9509367"><ele>416.0</ele><time>2026-04-18T10:14:35.521Z</time></trkpt><trkpt lat="43.4117083" lon="10.95079"><ele>416.0</ele><time>2026-04-18T10:14:36.521Z</time></trkpt><trkpt lat="43.4116967" lon="10.9506533"><ele>416.0</ele><time>2026-04-18T10:14:37.521Z</time></trkpt><trkpt lat="43.411685" lon="10.95052"><ele>416.0</ele><time>2026-04-18T10:14:38.521Z</time></trkpt><trkpt lat="43.4116633" lon="10.9503983"><ele>416.8</ele><time>2026-04-18T10:14:39.521Z</time></trkpt><trkpt lat="43.41164" lon="10.9502667"><ele>417.6</ele><time>2026-04-18T10:14:40.521Z</time></trkpt><trkpt lat="43.4116183" lon="10.9501333"><ele>418.4</ele><time>2026-04-18T10:14:41.521Z</time></trkpt><trkpt lat="43.411595" lon="10.95"><ele>419.2</ele><time>2026-04-18T10:14:42.521Z</time></trkpt><trkpt lat="43.411575" lon="10.9498733"><ele>420.0</ele><time>2026-04-18T10:14:43.521Z</time></trkpt><trkpt lat="43.4115617" lon="10.9497683"><ele>420.0</ele><time>2026-04-18T10:14:44.521Z</time></trkpt><trkpt lat="43.4115317" lon="10.9496217"><ele>420.0</ele><time>2026-04-18T10:14:46.521Z</time></trkpt><trkpt lat="43.411495" lon="10.9494917"><ele>420.0</ele><time>2026-04-18T10:14:48.521Z</time></trkpt><trkpt lat="43.4114483" lon="10.949365"><ele>420.0</ele><time>2026-04-18T10:14:50.521Z</time></trkpt><trkpt lat="43.4113817" lon="10.9492517"><ele>420.0</ele><time>2026-04-18T10:14:52.521Z</time></trkpt><trkpt lat="43.4113083" lon="10.9491617"><ele>420.0</ele><time>2026-04-18T10:14:54.521Z</time></trkpt><trkpt lat="43.4112133" lon="10.9490733"><ele>420.0</ele><time>2026-04-18T10:14:56.522Z</time></trkpt><trkpt lat="43.4111583" lon="10.9490283"><ele>420.0</ele><time>2026-04-18T10:14:57.521Z</time></trkpt><trkpt lat="43.4110683" lon="10.948935"><ele>420.0</ele><time>2026-04-18T10:14:59.521Z</time></trkpt><trkpt lat="43.4110283" lon="10.948865"><ele>420.0</ele><time>2026-04-18T10:15:00.521Z</time></trkpt><trkpt lat="43.4110017" lon="10.9487817"><ele>420.0</ele><time>2026-04-18T10:15:01.521Z</time></trkpt><trkpt lat="43.4109783" lon="10.9486833"><ele>420.0</ele><time>2026-04-18T10:15:02.521Z</time></trkpt><trkpt lat="43.41096" lon="10.9485733"><ele>420.0</ele><time>2026-04-18T10:15:03.521Z</time></trkpt><trkpt lat="43.4109417" lon="10.94846"><ele>420.0</ele><time>2026-04-18T10:15:04.521Z</time></trkpt><trkpt lat="43.4109167" lon="10.9483333"><ele>420.0</ele><time>2026-04-18T10:15:05.521Z</time></trkpt><trkpt lat="43.410905" lon="10.9482083"><ele>420.0</ele><time>2026-04-18T10:15:06.521Z</time></trkpt><trkpt lat="43.4108933" lon="10.948075"><ele>419.6666666666667</ele><time>2026-04-18T10:15:07.521Z</time></trkpt><trkpt lat="43.4108883" lon="10.947955"><ele>419.33333333333337</ele><time>2026-04-18T10:15:08.521Z</time></trkpt><trkpt lat="43.4108917" lon="10.9478333"><ele>419.0</ele><time>2026-04-18T10:15:09.521Z</time></trkpt><trkpt lat="43.4108917" lon="10.9477233"><ele>418.6666666666667</ele><time>2026-04-18T10:15:10.521Z</time></trkpt><trkpt lat="43.4109067" lon="10.9476183"><ele>418.33333333333337</ele><time>2026-04-18T10:15:11.521Z</time></trkpt><trkpt lat="43.4109283" lon="10.9475017"><ele>418.0</ele><time>2026-04-18T10:15:12.522Z</time></trkpt><trkpt lat="43.4109417" lon="10.9473933"><ele>418.79999999999995</ele><time>2026-04-18T10:15:13.521Z</time></trkpt><trkpt lat="43.410955" lon="10.947285"><ele>419.6</ele><time>2026-04-18T10:15:14.521Z</time></trkpt><trkpt lat="43.4109717" lon="10.94716"><ele>420.4</ele><time>2026-04-18T10:15:15.521Z</time></trkpt><trkpt lat="43.41099" lon="10.9470133"><ele>421.20000000000005</ele><time>2026-04-18T10:15:16.521Z</time></trkpt><trkpt lat="43.4109933" lon="10.9468817"><ele>422.0</ele><time>2026-04-18T10:15:17.522Z</time></trkpt><trkpt lat="43.4110017" lon="10.9467533"><ele>422.66666666666663</ele><time>2026-04-18T10:15:18.521Z</time></trkpt><trkpt lat="43.4110033" lon="10.94662"><ele>423.3333333333333</ele><time>2026-04-18T10:15:19.521Z</time></trkpt><trkpt lat="43.411005" lon="10.9464933"><ele>424.0</ele><time>2026-04-18T10:15:20.521Z</time></trkpt><trkpt lat="43.4110167" lon="10.9463683"><ele>424.66666666666663</ele><time>2026-04-18T10:15:21.521Z</time></trkpt><trkpt lat="43.4110267" lon="10.9462583"><ele>425.3333333333333</ele><time>2026-04-18T10:15:22.521Z</time></trkpt><trkpt lat="43.411035" lon="10.94614"><ele>426.0</ele><time>2026-04-18T10:15:23.522Z</time></trkpt><trkpt lat="43.4110383" lon="10.9460167"><ele>426.0</ele><time>2026-04-18T10:15:24.521Z</time></trkpt><trkpt lat="43.41104" lon="10.945895"><ele>426.0</ele><time>2026-04-18T10:15:25.521Z</time></trkpt><trkpt lat="43.4110417" lon="10.945775"><ele>426.0</ele><time>2026-04-18T10:15:26.522Z</time></trkpt><trkpt lat="43.411035" lon="10.9456617"><ele>426.0</ele><time>2026-04-18T10:15:27.521Z</time></trkpt><trkpt lat="43.4110217" lon="10.9455433"><ele>426.0</ele><time>2026-04-18T10:15:28.521Z</time></trkpt><trkpt lat="43.4110083" lon="10.9454217"><ele>426.0</ele><time>2026-04-18T10:15:29.521Z</time></trkpt><trkpt lat="43.4109917" lon="10.9453183"><ele>426.0</ele><time>2026-04-18T10:15:30.522Z</time></trkpt><trkpt lat="43.4109783" lon="10.94522"><ele>426.0</ele><time>2026-04-18T10:15:31.522Z</time></trkpt><trkpt lat="43.4109633" lon="10.9451167"><ele>426.0</ele><time>2026-04-18T10:15:32.521Z</time></trkpt><trkpt lat="43.4109533" lon="10.945015"><ele>426.0</ele><time>2026-04-18T10:15:33.521Z</time></trkpt><trkpt lat="43.4109383" lon="10.9449183"><ele>426.0</ele><time>2026-04-18T10:15:34.521Z</time></trkpt><trkpt lat="43.4109033" lon="10.9447433"><ele>426.0</ele><time>2026-04-18T10:15:36.521Z</time></trkpt><trkpt lat="43.4108967" lon="10.94465"><ele>426.0</ele><time>2026-04-18T10:15:37.521Z</time></trkpt><trkpt lat="43.4108883" lon="10.9445617"><ele>426.0</ele><time>2026-04-18T10:15:38.52Z</time></trkpt><trkpt lat="43.41088" lon="10.9444683"><ele>426.0</ele><time>2026-04-18T10:15:39.52Z</time></trkpt><trkpt lat="43.4108767" lon="10.9443783"><ele>426.0</ele><time>2026-04-18T10:15:40.521Z</time></trkpt><trkpt lat="43.41087" lon="10.94422"><ele>426.0</ele><time>2026-04-18T10:15:42.52Z</time></trkpt><trkpt lat="43.41087" lon="10.9440667"><ele>426.0</ele><time>2026-04-18T10:15:44.52Z</time></trkpt><trkpt lat="43.41087" lon="10.94389"><ele>425.5</ele><time>2026-04-18T10:15:46.52Z</time></trkpt><trkpt lat="43.4108567" lon="10.9438033"><ele>425.0</ele><time>2026-04-18T10:15:47.52Z</time></trkpt><trkpt lat="43.410835" lon="10.9436617"><ele>424.5</ele><time>2026-04-18T10:15:49.52Z</time></trkpt><trkpt lat="43.4108283" lon="10.94357"><ele>424.0</ele><time>2026-04-18T10:15:50.52Z</time></trkpt><trkpt lat="43.41082" lon="10.94348"><ele>423.5</ele><time>2026-04-18T10:15:51.52Z</time></trkpt><trkpt lat="43.4108033" lon="10.9433767"><ele>423.0</ele><time>2026-04-18T10:15:52.52Z</time></trkpt><trkpt lat="43.4107967" lon="10.94326"><ele>423.0</ele><time>2026-04-18T10:15:53.52Z</time></trkpt><trkpt lat="43.4107817" lon="10.9431433"><ele>423.0</ele><time>2026-04-18T10:15:54.521Z</time></trkpt><trkpt lat="43.4107717" lon="10.9430433"><ele>423.0</ele><time>2026-04-18T10:15:55.521Z</time></trkpt><trkpt lat="43.4107533" lon="10.9429267"><ele>423.0</ele><time>2026-04-18T10:15:56.52Z</time></trkpt><trkpt lat="43.410745" lon="10.94281"><ele>423.0</ele><time>2026-04-18T10:15:57.52Z</time></trkpt><trkpt lat="43.410735" lon="10.9426967"><ele>423.0</ele><time>2026-04-18T10:15:58.52Z</time></trkpt><trkpt lat="43.41073" lon="10.9425933"><ele>422.1666666666667</ele><time>2026-04-18T10:15:59.52Z</time></trkpt><trkpt lat="43.4107183" lon="10.942495"><ele>421.33333333333337</ele><time>2026-04-18T10:16:00.52Z</time></trkpt><trkpt lat="43.4106933" lon="10.9423917"><ele>420.5</ele><time>2026-04-18T10:16:01.52Z</time></trkpt><trkpt lat="43.4106583" lon="10.94228"><ele>419.6666666666667</ele><time>2026-04-18T10:16:02.52Z</time></trkpt><trkpt lat="43.4106233" lon="10.9421633"><ele>418.83333333333337</ele><time>2026-04-18T10:16:03.521Z</time></trkpt><trkpt lat="43.4105733" lon="10.9420233"><ele>418.0</ele><time>2026-04-18T10:16:04.52Z</time></trkpt><trkpt lat="43.4105333" lon="10.941885"><ele>418.0</ele><time>2026-04-18T10:16:05.52Z</time></trkpt><trkpt lat="43.4104983" lon="10.9417383"><ele>418.0</ele><time>2026-04-18T10:16:06.52Z</time></trkpt><trkpt lat="43.4104667" lon="10.9415983"><ele>418.0</ele><time>2026-04-18T10:16:07.52Z</time></trkpt><trkpt lat="43.410435" lon="10.9414583"><ele>418.0</ele><time>2026-04-18T10:16:08.52Z</time></trkpt><trkpt lat="43.4104083" lon="10.9413267"><ele>418.0</ele><time>2026-04-18T10:16:09.521Z</time></trkpt><trkpt lat="43.41036" lon="10.9411917"><ele>415.83333333333337</ele><time>2026-04-18T10:16:10.52Z</time></trkpt><trkpt lat="43.4103283" lon="10.94108"><ele>413.6666666666667</ele><time>2026-04-18T10:16:11.52Z</time></trkpt><trkpt lat="43.4102983" lon="10.940985"><ele>411.5</ele><time>2026-04-18T10:16:12.52Z</time></trkpt><trkpt lat="43.4102867" lon="10.94086"><ele>409.33333333333337</ele><time>2026-04-18T10:16:14.52Z</time></trkpt><trkpt lat="43.41031" lon="10.94077"><ele>407.1666666666667</ele><time>2026-04-18T10:16:16.52Z</time></trkpt><trkpt lat="43.410375" lon="10.9406983"><ele>405.0</ele><time>2026-04-18T10:16:18.52Z</time></trkpt><trkpt lat="43.4104483" lon="10.9406483"><ele>404.6</ele><time>2026-04-18T10:16:20.52Z</time></trkpt><trkpt lat="43.410545" lon="10.9406317"><ele>404.2</ele><time>2026-04-18T10:16:22.52Z</time></trkpt><trkpt lat="43.410635" lon="10.9405917"><ele>403.79999999999995</ele><time>2026-04-18T10:16:24.521Z</time></trkpt><trkpt lat="43.41071" lon="10.9405017"><ele>403.4</ele><time>2026-04-18T10:16:26.52Z</time></trkpt><trkpt lat="43.4107517" lon="10.9403733"><ele>403.0</ele><time>2026-04-18T10:16:28.52Z</time></trkpt><trkpt lat="43.4107233" lon="10.9402117"><ele>403.00000000000006</ele><time>2026-04-18T10:16:30.52Z</time></trkpt><trkpt lat="43.410695" lon="10.9401183"><ele>403.0</ele><time>2026-04-18T10:16:31.521Z</time></trkpt><trkpt lat="43.4106767" lon="10.9400083"><ele>403.0</ele><time>2026-04-18T10:16:32.52Z</time></trkpt><trkpt lat="43.41066" lon="10.9398933"><ele>403.0</ele><time>2026-04-18T10:16:33.52Z</time></trkpt><trkpt lat="43.4106517" lon="10.9397633"><ele>403.00000000000006</ele><time>2026-04-18T10:16:34.52Z</time></trkpt><trkpt lat="43.4106383" lon="10.9396317"><ele>403.0</ele><time>2026-04-18T10:16:35.521Z</time></trkpt><trkpt lat="43.4106367" lon="10.9395183"><ele>402.00000000000006</ele><time>2026-04-18T10:16:36.52Z</time></trkpt><trkpt lat="43.4106333" lon="10.93943"><ele>401.0</ele><time>2026-04-18T10:16:37.52Z</time></trkpt><trkpt lat="43.410635" lon="10.93926"><ele>400.0</ele><time>2026-04-18T10:16:39.52Z</time></trkpt><trkpt lat="43.4106467" lon="10.9391733"><ele>399.0</ele><time>2026-04-18T10:16:40.52Z</time></trkpt><trkpt lat="43.41065" lon="10.939085"><ele>398.00000000000006</ele><time>2026-04-18T10:16:41.521Z</time></trkpt><trkpt lat="43.41066" lon="10.9389283"><ele>397.0</ele><time>2026-04-18T10:16:43.52Z</time></trkpt><trkpt lat="43.41063" lon="10.9387933"><ele>396.1666666666667</ele><time>2026-04-18T10:16:45.52Z</time></trkpt><trkpt lat="43.410605" lon="10.9387083"><ele>395.33333333333337</ele><time>2026-04-18T10:16:46.52Z</time></trkpt><trkpt lat="43.410575" lon="10.93861"><ele>394.5</ele><time>2026-04-18T10:16:47.52Z</time></trkpt><trkpt lat="43.4105483" lon="10.93851"><ele>393.66666666666663</ele><time>2026-04-18T10:16:48.52Z</time></trkpt><trkpt lat="43.4105183" lon="10.9384217"><ele>392.8333333333333</ele><time>2026-04-18T10:16:49.52Z</time></trkpt><trkpt lat="43.4104933" lon="10.9383283"><ele>392.0</ele><time>2026-04-18T10:16:50.52Z</time></trkpt><trkpt lat="43.4104317" lon="10.938205"><ele>390.75</ele><time>2026-04-18T10:16:52.521Z</time></trkpt><trkpt lat="43.4103533" lon="10.9381117"><ele>389.5</ele><time>2026-04-18T10:16:54.52Z</time></trkpt><trkpt lat="43.4102383" lon="10.938055"><ele>388.25</ele><time>2026-04-18T10:16:56.52Z</time></trkpt><trkpt lat="43.41013" lon="10.93803"><ele>387.0</ele><time>2026-04-18T10:16:58.52Z</time></trkpt><trkpt lat="43.4100133" lon="10.9379983"><ele>387.0</ele><time>2026-04-18T10:17:00.52Z</time></trkpt><trkpt lat="43.409915" lon="10.93793"><ele>387.0</ele><time>2026-04-18T10:17:02.52Z</time></trkpt><trkpt lat="43.40984" lon="10.93784"><ele>387.0</ele><time>2026-04-18T10:17:04.521Z</time></trkpt><trkpt lat="43.4098167" lon="10.9377083"><ele>387.0</ele><time>2026-04-18T10:17:06.52Z</time></trkpt><trkpt lat="43.4098167" lon="10.9375167"><ele>387.0</ele><time>2026-04-18T10:17:08.52Z</time></trkpt><trkpt lat="43.4098133" lon="10.9374"><ele>386.3333333333333</ele><time>2026-04-18T10:17:09.52Z</time></trkpt><trkpt lat="43.4098083" lon="10.9372733"><ele>385.6666666666667</ele><time>2026-04-18T10:17:10.52Z</time></trkpt><trkpt lat="43.4098017" lon="10.93716"><ele>385.0</ele><time>2026-04-18T10:17:11.521Z</time></trkpt><trkpt lat="43.4098017" lon="10.9370533"><ele>384.33333333333337</ele><time>2026-04-18T10:17:12.52Z</time></trkpt><trkpt lat="43.4098" lon="10.9369617"><ele>383.6666666666667</ele><time>2026-04-18T10:17:13.52Z</time></trkpt><trkpt lat="43.4097983" lon="10.9368117"><ele>383.0</ele><time>2026-04-18T10:17:15.52Z</time></trkpt><trkpt lat="43.4098133" lon="10.9366983"><ele>381.59999999999997</ele><time>2026-04-18T10:17:17.52Z</time></trkpt><trkpt lat="43.40981" lon="10.9365933"><ele>380.2</ele><time>2026-04-18T10:17:19.52Z</time></trkpt><trkpt lat="43.4097833" lon="10.9364733"><ele>378.8</ele><time>2026-04-18T10:17:21.521Z</time></trkpt><trkpt lat="43.4097267" lon="10.9363367"><ele>377.4</ele><time>2026-04-18T10:17:23.52Z</time></trkpt><trkpt lat="43.40967" lon="10.9362367"><ele>376.0</ele><time>2026-04-18T10:17:24.52Z</time></trkpt><trkpt lat="43.40961" lon="10.936135"><ele>375.8</ele><time>2026-04-18T10:17:25.52Z</time></trkpt><trkpt lat="43.40952" lon="10.93603"><ele>375.6</ele><time>2026-04-18T10:17:26.52Z</time></trkpt><trkpt lat="43.4094417" lon="10.935945"><ele>375.4</ele><time>2026-04-18T10:17:27.52Z</time></trkpt><trkpt lat="43.4093583" lon="10.935865"><ele>375.2</ele><time>2026-04-18T10:17:28.52Z</time></trkpt><trkpt lat="43.4092767" lon="10.935795"><ele>375.0</ele><time>2026-04-18T10:17:29.521Z</time></trkpt><trkpt lat="43.4092" lon="10.9357083"><ele>374.8333333333333</ele><time>2026-04-18T10:17:30.52Z</time></trkpt><trkpt lat="43.4091267" lon="10.93563"><ele>374.6666666666667</ele><time>2026-04-18T10:17:31.52Z</time></trkpt><trkpt lat="43.4090583" lon="10.935545"><ele>374.5</ele><time>2026-04-18T10:17:32.52Z</time></trkpt><trkpt lat="43.4089867" lon="10.9354733"><ele>374.33333333333337</ele><time>2026-04-18T10:17:33.52Z</time></trkpt><trkpt lat="43.4089167" lon="10.9353983"><ele>374.1666666666667</ele><time>2026-04-18T10:17:34.52Z</time></trkpt><trkpt lat="43.4088517" lon="10.9353267"><ele>374.0</ele><time>2026-04-18T10:17:35.52Z</time></trkpt><trkpt lat="43.4087967" lon="10.9352533"><ele>372.83333333333337</ele><time>2026-04-18T10:17:36.52Z</time></trkpt><trkpt lat="43.4087533" lon="10.9351667"><ele>371.6666666666667</ele><time>2026-04-18T10:17:37.52Z</time></trkpt><trkpt lat="43.4087183" lon="10.9350883"><ele>370.5</ele><time>2026-04-18T10:17:38.52Z</time></trkpt><trkpt lat="43.4086867" lon="10.9349967"><ele>369.3333333333333</ele><time>2026-04-18T10:17:39.52Z</time></trkpt><trkpt lat="43.408655" lon="10.9348967"><ele>368.16666666666663</ele><time>2026-04-18T10:17:40.52Z</time></trkpt><trkpt lat="43.40863" lon="10.934765"><ele>367.0</ele><time>2026-04-18T10:17:41.521Z</time></trkpt><trkpt lat="43.408615" lon="10.934625"><ele>367.0</ele><time>2026-04-18T10:17:42.52Z</time></trkpt><trkpt lat="43.4086" lon="10.9344783"><ele>367.0</ele><time>2026-04-18T10:17:43.52Z</time></trkpt><trkpt lat="43.4085883" lon="10.93432"><ele>367.0</ele><time>2026-04-18T10:17:44.52Z</time></trkpt><trkpt lat="43.4085833" lon="10.9341317"><ele>367.0</ele><time>2026-04-18T10:17:45.52Z</time></trkpt><trkpt lat="43.4085733" lon="10.9339417"><ele>367.0</ele><time>2026-04-18T10:17:46.52Z</time></trkpt><trkpt lat="43.4085533" lon="10.9337467"><ele>367.0</ele><time>2026-04-18T10:17:47.521Z</time></trkpt><trkpt lat="43.4085383" lon="10.933565"><ele>367.0</ele><time>2026-04-18T10:17:48.52Z</time></trkpt><trkpt lat="43.4085133" lon="10.9333967"><ele>367.0</ele><time>2026-04-18T10:17:49.521Z</time></trkpt><trkpt lat="43.4084883" lon="10.9332567"><ele>367.0</ele><time>2026-04-18T10:17:50.52Z</time></trkpt><trkpt lat="43.40847" lon="10.9331217"><ele>367.0</ele><time>2026-04-18T10:17:51.52Z</time></trkpt><trkpt lat="43.4084383" lon="10.9330067"><ele>367.0</ele><time>2026-04-18T10:17:52.521Z</time></trkpt><trkpt lat="43.4083917" lon="10.9328733"><ele>367.0</ele><time>2026-04-18T10:17:53.52Z</time></trkpt><trkpt lat="43.4083383" lon="10.9327367"><ele>367.0</ele><time>2026-04-18T10:17:54.52Z</time></trkpt><trkpt lat="43.40828" lon="10.9325917"><ele>366.6</ele><time>2026-04-18T10:17:55.521Z</time></trkpt><trkpt lat="43.4082217" lon="10.9324533"><ele>366.20000000000005</ele><time>2026-04-18T10:17:56.52Z</time></trkpt><trkpt lat="43.4081683" lon="10.9323383"><ele>365.8</ele><time>2026-04-18T10:17:57.52Z</time></trkpt><trkpt lat="43.40813" lon="10.93224"><ele>365.4</ele><time>2026-04-18T10:17:58.52Z</time></trkpt><trkpt lat="43.4080967" lon="10.9321317"><ele>365.0</ele><time>2026-04-18T10:17:59.52Z</time></trkpt><trkpt lat="43.4080583" lon="10.9320083"><ele>365.0</ele><time>2026-04-18T10:18:00.52Z</time></trkpt><trkpt lat="43.4080217" lon="10.9318817"><ele>365.0</ele><time>2026-04-18T10:18:01.52Z</time></trkpt><trkpt lat="43.407975" lon="10.93176"><ele>365.0</ele><time>2026-04-18T10:18:02.52Z</time></trkpt><trkpt lat="43.40793" lon="10.93164"><ele>365.0</ele><time>2026-04-18T10:18:03.52Z</time></trkpt><trkpt lat="43.4078917" lon="10.9315367"><ele>365.0</ele><time>2026-04-18T10:18:04.521Z</time></trkpt><trkpt lat="43.407845" lon="10.931445"><ele>365.1666666666667</ele><time>2026-04-18T10:18:05.52Z</time></trkpt><trkpt lat="43.4078067" lon="10.9313617"><ele>365.33333333333337</ele><time>2026-04-18T10:18:06.521Z</time></trkpt><trkpt lat="43.407755" lon="10.93127"><ele>365.5</ele><time>2026-04-18T10:18:08.52Z</time></trkpt><trkpt lat="43.4077133" lon="10.9311883"><ele>365.6666666666667</ele><time>2026-04-18T10:18:11.52Z</time></trkpt><trkpt lat="43.4076567" lon="10.9310467"><ele>365.8333333333333</ele><time>2026-04-18T10:18:13.52Z</time></trkpt><trkpt lat="43.40762" lon="10.930945"><ele>366.0</ele><time>2026-04-18T10:18:14.52Z</time></trkpt><trkpt lat="43.4075633" lon="10.9308367"><ele>367.0</ele><time>2026-04-18T10:18:15.52Z</time></trkpt><trkpt lat="43.4075033" lon="10.9307317"><ele>368.0</ele><time>2026-04-18T10:18:16.52Z</time></trkpt><trkpt lat="43.4074617" lon="10.9306517"><ele>369.0</ele><time>2026-04-18T10:18:17.52Z</time></trkpt><trkpt lat="43.40741" lon="10.930515"><ele>370.0</ele><time>2026-04-18T10:18:19.52Z</time></trkpt><trkpt lat="43.4073833" lon="10.930375"><ele>371.0</ele><time>2026-04-18T10:18:21.521Z</time></trkpt><trkpt lat="43.4073683" lon="10.930205"><ele>371.0</ele><time>2026-04-18T10:18:23.52Z</time></trkpt><trkpt lat="43.407365" lon="10.9300833"><ele>371.0</ele><time>2026-04-18T10:18:24.52Z</time></trkpt><trkpt lat="43.407365" lon="10.9299433"><ele>371.0</ele><time>2026-04-18T10:18:25.52Z</time></trkpt><trkpt lat="43.40737" lon="10.9297933"><ele>371.0</ele><time>2026-04-18T10:18:26.521Z</time></trkpt><trkpt lat="43.4073667" lon="10.9296333"><ele>371.0</ele><time>2026-04-18T10:18:27.52Z</time></trkpt><trkpt lat="43.4073633" lon="10.9294833"><ele>371.0</ele><time>2026-04-18T10:18:28.521Z</time></trkpt><trkpt lat="43.4073667" lon="10.9293317"><ele>371.0</ele><time>2026-04-18T10:18:29.52Z</time></trkpt><trkpt lat="43.4073633" lon="10.9291883"><ele>371.0</ele><time>2026-04-18T10:18:30.52Z</time></trkpt><trkpt lat="43.4073567" lon="10.9290483"><ele>371.0</ele><time>2026-04-18T10:18:31.52Z</time></trkpt><trkpt lat="43.4073417" lon="10.9288983"><ele>371.0</ele><time>2026-04-18T10:18:32.52Z</time></trkpt><trkpt lat="43.407335" lon="10.9287533"><ele>370.6666666666667</ele><time>2026-04-18T10:18:33.52Z</time></trkpt><trkpt lat="43.4073167" lon="10.92863"><ele>370.33333333333337</ele><time>2026-04-18T10:18:34.521Z</time></trkpt><trkpt lat="43.4072983" lon="10.9285333"><ele>370.0</ele><time>2026-04-18T10:18:35.521Z</time></trkpt><trkpt lat="43.407265" lon="10.9284433"><ele>369.6666666666667</ele><time>2026-04-18T10:18:36.52Z</time></trkpt><trkpt lat="43.4072233" lon="10.9283583"><ele>369.3333333333333</ele><time>2026-04-18T10:18:37.52Z</time></trkpt><trkpt lat="43.4071667" lon="10.9282717"><ele>369.0</ele><time>2026-04-18T10:18:38.52Z</time></trkpt><trkpt lat="43.4071083" lon="10.9281883"><ele>368.5</ele><time>2026-04-18T10:18:39.52Z</time></trkpt><trkpt lat="43.4070417" lon="10.9281067"><ele>368.0</ele><time>2026-04-18T10:18:40.52Z</time></trkpt><trkpt lat="43.4069717" lon="10.928025"><ele>367.5</ele><time>2026-04-18T10:18:41.52Z</time></trkpt><trkpt lat="43.4069067" lon="10.9279367"><ele>367.0</ele><time>2026-04-18T10:18:42.52Z</time></trkpt><trkpt lat="43.40683" lon="10.9278483"><ele>366.5</ele><time>2026-04-18T10:18:43.52Z</time></trkpt><trkpt lat="43.4067733" lon="10.92778"><ele>366.0</ele><time>2026-04-18T10:18:44.52Z</time></trkpt><trkpt lat="43.4067333" lon="10.92771"><ele>366.0</ele><time>2026-04-18T10:18:45.52Z</time></trkpt><trkpt lat="43.4066933" lon="10.92764"><ele>366.0</ele><time>2026-04-18T10:18:46.52Z</time></trkpt><trkpt lat="43.4066617" lon="10.9275533"><ele>366.0</ele><time>2026-04-18T10:18:47.52Z</time></trkpt><trkpt lat="43.4066317" lon="10.92745"><ele>366.0</ele><time>2026-04-18T10:18:48.52Z</time></trkpt><trkpt lat="43.4065933" lon="10.9273283"><ele>366.0</ele><time>2026-04-18T10:18:49.52Z</time></trkpt><trkpt lat="43.40656" lon="10.9271783"><ele>366.0</ele><time>2026-04-18T10:18:50.52Z</time></trkpt><trkpt lat="43.4065183" lon="10.9270317"><ele>368.0</ele><time>2026-04-18T10:18:51.521Z</time></trkpt><trkpt lat="43.4064633" lon="10.9268983"><ele>370.0</ele><time>2026-04-18T10:18:52.521Z</time></trkpt><trkpt lat="43.40641" lon="10.9267783"><ele>372.0</ele><time>2026-04-18T10:18:53.52Z</time></trkpt><trkpt lat="43.4063483" lon="10.9266817"><ele>374.0</ele><time>2026-04-18T10:18:54.52Z</time></trkpt><trkpt lat="43.4062767" lon="10.9265783"><ele>376.0</ele><time>2026-04-18T10:18:55.52Z</time></trkpt><trkpt lat="43.4062017" lon="10.926485"><ele>376.4</ele><time>2026-04-18T10:18:56.52Z</time></trkpt><trkpt lat="43.4061233" lon="10.9263883"><ele>376.8</ele><time>2026-04-18T10:18:57.521Z</time></trkpt><trkpt lat="43.40605" lon="10.9262983"><ele>377.2</ele><time>2026-04-18T10:18:58.52Z</time></trkpt><trkpt lat="43.405965" lon="10.9262017"><ele>377.59999999999997</ele><time>2026-04-18T10:18:59.52Z</time></trkpt><trkpt lat="43.4058867" lon="10.926095"><ele>378.0</ele><time>2026-04-18T10:19:00.52Z</time></trkpt><trkpt lat="43.4057933" lon="10.925975"><ele>378.5</ele><time>2026-04-18T10:19:01.52Z</time></trkpt><trkpt lat="43.405705" lon="10.925845"><ele>379.0</ele><time>2026-04-18T10:19:02.52Z</time></trkpt><trkpt lat="43.4056017" lon="10.9257283"><ele>379.5</ele><time>2026-04-18T10:19:03.519Z</time></trkpt><trkpt lat="43.4055233" lon="10.9256133"><ele>380.0</ele><time>2026-04-18T10:19:04.519Z</time></trkpt><trkpt lat="43.405445" lon="10.925505"><ele>378.75</ele><time>2026-04-18T10:19:05.519Z</time></trkpt><trkpt lat="43.4053567" lon="10.925395"><ele>377.5</ele><time>2026-04-18T10:19:06.519Z</time></trkpt><trkpt lat="43.4052633" lon="10.9252883"><ele>376.25</ele><time>2026-04-18T10:19:07.52Z</time></trkpt><trkpt lat="43.4051567" lon="10.9251833"><ele>375.0</ele><time>2026-04-18T10:19:08.519Z</time></trkpt><trkpt lat="43.4050517" lon="10.9250867"><ele>375.25</ele><time>2026-04-18T10:19:09.519Z</time></trkpt><trkpt lat="43.4049433" lon="10.9249883"><ele>375.5</ele><time>2026-04-18T10:19:10.519Z</time></trkpt><trkpt lat="43.4048233" lon="10.9248833"><ele>375.75</ele><time>2026-04-18T10:19:11.519Z</time></trkpt><trkpt lat="43.4047033" lon="10.92477"><ele>376.0</ele><time>2026-04-18T10:19:12.519Z</time></trkpt><trkpt lat="43.4045767" lon="10.9246583"><ele>376.0</ele><time>2026-04-18T10:19:13.519Z</time></trkpt><trkpt lat="43.4044583" lon="10.9245383"><ele>376.0</ele><time>2026-04-18T10:19:14.519Z</time></trkpt><trkpt lat="43.4043383" lon="10.924415"><ele>376.0</ele><time>2026-04-18T10:19:15.519Z</time></trkpt><trkpt lat="43.4042167" lon="10.9242983"><ele>376.0</ele><time>2026-04-18T10:19:16.519Z</time></trkpt><trkpt lat="43.4041167" lon="10.9241817"><ele>375.25</ele><time>2026-04-18T10:19:17.519Z</time></trkpt><trkpt lat="43.4040267" lon="10.92406"><ele>374.5</ele><time>2026-04-18T10:19:18.519Z</time></trkpt><trkpt lat="43.4039417" lon="10.9239567"><ele>373.75</ele><time>2026-04-18T10:19:19.519Z</time></trkpt><trkpt lat="43.403845" lon="10.92385"><ele>373.0</ele><time>2026-04-18T10:19:20.52Z</time></trkpt><trkpt lat="43.403765" lon="10.9237283"><ele>373.0</ele><time>2026-04-18T10:19:21.519Z</time></trkpt><trkpt lat="43.4036933" lon="10.9236133"><ele>373.0</ele><time>2026-04-18T10:19:22.519Z</time></trkpt><trkpt lat="43.403635" lon="10.9234917"><ele>373.0</ele><time>2026-04-18T10:19:23.52Z</time></trkpt><trkpt lat="43.4035833" lon="10.9233667"><ele>373.0</ele><time>2026-04-18T10:19:24.519Z</time></trkpt><trkpt lat="43.4035467" lon="10.92322"><ele>373.0</ele><time>2026-04-18T10:19:25.519Z</time></trkpt><trkpt lat="43.4035067" lon="10.923085"><ele>373.59999999999997</ele><time>2026-04-18T10:19:26.519Z</time></trkpt><trkpt lat="43.4034767" lon="10.9229417"><ele>374.2</ele><time>2026-04-18T10:19:27.519Z</time></trkpt><trkpt lat="43.4034383" lon="10.9228033"><ele>374.8</ele><time>2026-04-18T10:19:28.52Z</time></trkpt><trkpt lat="43.4033933" lon="10.92267"><ele>375.4</ele><time>2026-04-18T10:19:29.52Z</time></trkpt><trkpt lat="43.4033567" lon="10.9225367"><ele>376.0</ele><time>2026-04-18T10:19:30.519Z</time></trkpt><trkpt lat="43.4033167" lon="10.9224167"><ele>376.0</ele><time>2026-04-18T10:19:31.519Z</time></trkpt><trkpt lat="43.4032783" lon="10.922295"><ele>376.0</ele><time>2026-04-18T10:19:32.519Z</time></trkpt><trkpt lat="43.403245" lon="10.9221667"><ele>376.0</ele><time>2026-04-18T10:19:33.519Z</time></trkpt><trkpt lat="43.403215" lon="10.9220433"><ele>376.0</ele><time>2026-04-18T10:19:34.519Z</time></trkpt><trkpt lat="43.40319" lon="10.9219267"><ele>376.0</ele><time>2026-04-18T10:19:35.519Z</time></trkpt><trkpt lat="43.403165" lon="10.921815"><ele>375.3333333333333</ele><time>2026-04-18T10:19:36.519Z</time></trkpt><trkpt lat="43.40314" lon="10.9217117"><ele>374.66666666666663</ele><time>2026-04-18T10:19:37.519Z</time></trkpt><trkpt lat="43.403125" lon="10.9216083"><ele>374.0</ele><time>2026-04-18T10:19:38.519Z</time></trkpt><trkpt lat="43.4031067" lon="10.9215183"><ele>373.3333333333333</ele><time>2026-04-18T10:19:39.519Z</time></trkpt><trkpt lat="43.4030967" lon="10.9214267"><ele>372.6666666666667</ele><time>2026-04-18T10:19:40.519Z</time></trkpt><trkpt lat="43.4030833" lon="10.9213317"><ele>372.0</ele><time>2026-04-18T10:19:41.519Z</time></trkpt><trkpt lat="43.4030833" lon="10.9211517"><ele>372.0</ele><time>2026-04-18T10:19:43.519Z</time></trkpt><trkpt lat="43.4030933" lon="10.92105"><ele>372.0</ele><time>2026-04-18T10:19:44.52Z</time></trkpt><trkpt lat="43.4031233" lon="10.9209433"><ele>372.0</ele><time>2026-04-18T10:19:45.519Z</time></trkpt><trkpt lat="43.403155" lon="10.920825"><ele>372.0</ele><time>2026-04-18T10:19:46.519Z</time></trkpt><trkpt lat="43.4031917" lon="10.9207183"><ele>372.0</ele><time>2026-04-18T10:19:47.52Z</time></trkpt><trkpt lat="43.4032317" lon="10.92062"><ele>372.0</ele><time>2026-04-18T10:19:48.519Z</time></trkpt><trkpt lat="43.40327" lon="10.92053"><ele>371.3333333333333</ele><time>2026-04-18T10:19:49.519Z</time></trkpt><trkpt lat="43.403305" lon="10.9204417"><ele>370.6666666666667</ele><time>2026-04-18T10:19:50.519Z</time></trkpt><trkpt lat="43.4033417" lon="10.920355"><ele>370.0</ele><time>2026-04-18T10:19:51.52Z</time></trkpt><trkpt lat="43.4033783" lon="10.9202733"><ele>369.33333333333337</ele><time>2026-04-18T10:19:52.519Z</time></trkpt><trkpt lat="43.4034117" lon="10.9201917"><ele>368.6666666666667</ele><time>2026-04-18T10:19:53.519Z</time></trkpt><trkpt lat="43.403455" lon="10.9200633"><ele>368.0</ele><time>2026-04-18T10:19:55.52Z</time></trkpt><trkpt lat="43.4034933" lon="10.91994"><ele>367.6666666666667</ele><time>2026-04-18T10:19:57.519Z</time></trkpt><trkpt lat="43.4035167" lon="10.9198433"><ele>367.33333333333337</ele><time>2026-04-18T10:20:00.519Z</time></trkpt><trkpt lat="43.4035317" lon="10.919755"><ele>367.0</ele><time>2026-04-18T10:20:04.519Z</time></trkpt><trkpt lat="43.4035733" lon="10.9196633"><ele>366.6666666666667</ele><time>2026-04-18T10:20:07.519Z</time></trkpt><trkpt lat="43.403605" lon="10.9195467"><ele>366.3333333333333</ele><time>2026-04-18T10:20:09.519Z</time></trkpt><trkpt lat="43.4036283" lon="10.9194367"><ele>366.0</ele><time>2026-04-18T10:20:10.519Z</time></trkpt><trkpt lat="43.403655" lon="10.9193217"><ele>365.20000000000005</ele><time>2026-04-18T10:20:11.519Z</time></trkpt><trkpt lat="43.4036833" lon="10.9191967"><ele>364.40000000000003</ele><time>2026-04-18T10:20:12.519Z</time></trkpt><trkpt lat="43.4037117" lon="10.9190733"><ele>363.6</ele><time>2026-04-18T10:20:13.519Z</time></trkpt><trkpt lat="43.4037383" lon="10.9189383"><ele>362.8</ele><time>2026-04-18T10:20:14.519Z</time></trkpt><trkpt lat="43.4037583" lon="10.9188117"><ele>362.0</ele><time>2026-04-18T10:20:15.519Z</time></trkpt><trkpt lat="43.4037667" lon="10.9186833"><ele>362.0</ele><time>2026-04-18T10:20:16.519Z</time></trkpt><trkpt lat="43.403765" lon="10.9185567"><ele>362.0</ele><time>2026-04-18T10:20:17.519Z</time></trkpt><trkpt lat="43.4037583" lon="10.918435"><ele>362.0</ele><time>2026-04-18T10:20:18.519Z</time></trkpt><trkpt lat="43.4037367" lon="10.9183167"><ele>362.0</ele><time>2026-04-18T10:20:19.519Z</time></trkpt><trkpt lat="43.4037033" lon="10.918205"><ele>362.0</ele><time>2026-04-18T10:20:20.519Z</time></trkpt><trkpt lat="43.4036517" lon="10.9180883"><ele>360.8</ele><time>2026-04-18T10:20:21.519Z</time></trkpt><trkpt lat="43.403595" lon="10.9179667"><ele>359.6</ele><time>2026-04-18T10:20:22.519Z</time></trkpt><trkpt lat="43.4035233" lon="10.91785"><ele>358.40000000000003</ele><time>2026-04-18T10:20:23.519Z</time></trkpt><trkpt lat="43.40347" lon="10.91772"><ele>357.20000000000005</ele><time>2026-04-18T10:20:24.519Z</time></trkpt><trkpt lat="43.4034183" lon="10.9175817"><ele>356.0</ele><time>2026-04-18T10:20:25.519Z</time></trkpt><trkpt lat="43.4033833" lon="10.917445"><ele>354.6</ele><time>2026-04-18T10:20:26.519Z</time></trkpt><trkpt lat="43.40335" lon="10.9173117"><ele>353.20000000000005</ele><time>2026-04-18T10:20:27.519Z</time></trkpt><trkpt lat="43.4033317" lon="10.917185"><ele>351.79999999999995</ele><time>2026-04-18T10:20:28.519Z</time></trkpt><trkpt lat="43.4033083" lon="10.91707"><ele>350.4</ele><time>2026-04-18T10:20:29.519Z</time></trkpt><trkpt lat="43.4032783" lon="10.91696"><ele>349.0</ele><time>2026-04-18T10:20:30.519Z</time></trkpt><trkpt lat="43.403235" lon="10.916855"><ele>349.0</ele><time>2026-04-18T10:20:31.52Z</time></trkpt><trkpt lat="43.4031733" lon="10.9167433"><ele>349.0</ele><time>2026-04-18T10:20:32.519Z</time></trkpt><trkpt lat="43.403095" lon="10.9166383"><ele>349.0</ele><time>2026-04-18T10:20:33.519Z</time></trkpt><trkpt lat="43.4030083" lon="10.9165233"><ele>349.0</ele><time>2026-04-18T10:20:34.519Z</time></trkpt><trkpt lat="43.4029167" lon="10.9164033"><ele>348.75</ele><time>2026-04-18T10:20:35.519Z</time></trkpt><trkpt lat="43.4028167" lon="10.9162867"><ele>348.5</ele><time>2026-04-18T10:20:36.519Z</time></trkpt><trkpt lat="43.4027133" lon="10.91618"><ele>348.25</ele><time>2026-04-18T10:20:37.519Z</time></trkpt><trkpt lat="43.4026183" lon="10.9160933"><ele>348.0</ele><time>2026-04-18T10:20:38.519Z</time></trkpt><trkpt lat="43.4025333" lon="10.9160117"><ele>348.0</ele><time>2026-04-18T10:20:39.519Z</time></trkpt><trkpt lat="43.4024483" lon="10.9159283"><ele>348.0</ele><time>2026-04-18T10:20:40.519Z</time></trkpt><trkpt lat="43.4023717" lon="10.9158633"><ele>348.0</ele><time>2026-04-18T10:20:41.519Z</time></trkpt><trkpt lat="43.40231" lon="10.915815"><ele>348.0</ele><time>2026-04-18T10:20:42.519Z</time></trkpt><trkpt lat="43.4022333" lon="10.9157367"><ele>348.0</ele><time>2026-04-18T10:20:44.519Z</time></trkpt><trkpt lat="43.4022083" lon="10.9156333"><ele>348.0</ele><time>2026-04-18T10:20:46.519Z</time></trkpt><trkpt lat="43.4022533" lon="10.915525"><ele>346.3333333333333</ele><time>2026-04-18T10:20:48.519Z</time></trkpt><trkpt lat="43.4023117" lon="10.9154867"><ele>344.6666666666667</ele><time>2026-04-18T10:20:49.519Z</time></trkpt><trkpt lat="43.4023933" lon="10.915455"><ele>343.0</ele><time>2026-04-18T10:20:50.519Z</time></trkpt><trkpt lat="43.4024767" lon="10.9154233"><ele>341.33333333333337</ele><time>2026-04-18T10:20:51.519Z</time></trkpt><trkpt lat="43.40255" lon="10.9153767"><ele>339.6666666666667</ele><time>2026-04-18T10:20:52.519Z</time></trkpt><trkpt lat="43.4026167" lon="10.9153183"><ele>338.0</ele><time>2026-04-18T10:20:53.519Z</time></trkpt><trkpt lat="43.4026867" lon="10.915235"><ele>338.0</ele><time>2026-04-18T10:20:54.519Z</time></trkpt><trkpt lat="43.4027333" lon="10.915125"><ele>338.0</ele><time>2026-04-18T10:20:55.519Z</time></trkpt><trkpt lat="43.4027783" lon="10.91497"><ele>338.0</ele><time>2026-04-18T10:20:56.519Z</time></trkpt><trkpt lat="43.4028183" lon="10.9147883"><ele>338.0</ele><time>2026-04-18T10:20:57.519Z</time></trkpt><trkpt lat="43.4028633" lon="10.9145817"><ele>334.6666666666667</ele><time>2026-04-18T10:20:58.519Z</time></trkpt><trkpt lat="43.4029083" lon="10.9143667"><ele>331.3333333333333</ele><time>2026-04-18T10:20:59.519Z</time></trkpt><trkpt lat="43.4029483" lon="10.91415"><ele>328.0</ele><time>2026-04-18T10:21:00.52Z</time></trkpt><trkpt lat="43.402975" lon="10.9139383"><ele>326.0</ele><time>2026-04-18T10:21:01.519Z</time></trkpt><trkpt lat="43.4029967" lon="10.9136933"><ele>324.0</ele><time>2026-04-18T10:21:02.519Z</time></trkpt><trkpt lat="43.40301" lon="10.9134483"><ele>322.0</ele><time>2026-04-18T10:21:03.519Z</time></trkpt><trkpt lat="43.40301" lon="10.9132267"><ele>322.3333333333333</ele><time>2026-04-18T10:21:04.519Z</time></trkpt><trkpt lat="43.4030083" lon="10.9129983"><ele>322.6666666666667</ele><time>2026-04-18T10:21:05.519Z</time></trkpt><trkpt lat="43.4029783" lon="10.91276"><ele>323.0</ele><time>2026-04-18T10:21:06.519Z</time></trkpt><trkpt lat="43.4029483" lon="10.9124933"><ele>323.0</ele><time>2026-04-18T10:21:07.519Z</time></trkpt><trkpt lat="43.4029117" lon="10.91222"><ele>323.0</ele><time>2026-04-18T10:21:08.519Z</time></trkpt><trkpt lat="43.402875" lon="10.9119067"><ele>323.0</ele><time>2026-04-18T10:21:09.519Z</time></trkpt><trkpt lat="43.4028417" lon="10.9116033"><ele>325.0</ele><time>2026-04-18T10:21:10.519Z</time></trkpt><trkpt lat="43.4028117" lon="10.9113167"><ele>327.0</ele><time>2026-04-18T10:21:11.519Z</time></trkpt><trkpt lat="43.4027783" lon="10.911075"><ele>329.0</ele><time>2026-04-18T10:21:12.519Z</time></trkpt><trkpt lat="43.4027483" lon="10.9108517"><ele>330.5</ele><time>2026-04-18T10:21:13.52Z</time></trkpt><trkpt lat="43.4027017" lon="10.9106667"><ele>332.0</ele><time>2026-04-18T10:21:14.519Z</time></trkpt><trkpt lat="43.4026583" lon="10.910495"><ele>333.5</ele><time>2026-04-18T10:21:15.519Z</time></trkpt><trkpt lat="43.4025983" lon="10.910315"><ele>335.0</ele><time>2026-04-18T10:21:16.519Z</time></trkpt><trkpt lat="43.4025333" lon="10.91014"><ele>337.6666666666667</ele><time>2026-04-18T10:21:17.519Z</time></trkpt><trkpt lat="43.4024733" lon="10.9099517"><ele>340.3333333333333</ele><time>2026-04-18T10:21:18.519Z</time></trkpt><trkpt lat="43.4024033" lon="10.9097567"><ele>343.0</ele><time>2026-04-18T10:21:19.519Z</time></trkpt><trkpt lat="43.4023333" lon="10.9095683"><ele>343.0</ele><time>2026-04-18T10:21:20.519Z</time></trkpt><trkpt lat="43.4022633" lon="10.9093917"><ele>343.0</ele><time>2026-04-18T10:21:21.519Z</time></trkpt><trkpt lat="43.4021983" lon="10.9092233"><ele>343.0</ele><time>2026-04-18T10:21:22.519Z</time></trkpt><trkpt lat="43.4021217" lon="10.9090467"><ele>343.0</ele><time>2026-04-18T10:21:23.519Z</time></trkpt><trkpt lat="43.40206" lon="10.9088817"><ele>343.59999999999997</ele><time>2026-04-18T10:21:24.519Z</time></trkpt><trkpt lat="43.40201" lon="10.9087483"><ele>344.2</ele><time>2026-04-18T10:21:25.519Z</time></trkpt><trkpt lat="43.4019717" lon="10.9086633"><ele>344.8</ele><time>2026-04-18T10:21:26.519Z</time></trkpt><trkpt lat="43.4018933" lon="10.9085433"><ele>345.4</ele><time>2026-04-18T10:21:28.52Z</time></trkpt><trkpt lat="43.4018033" lon="10.90848"><ele>346.0</ele><time>2026-04-18T10:21:30.519Z</time></trkpt><trkpt lat="43.4016833" lon="10.90847"><ele>346.0</ele><time>2026-04-18T10:21:32.519Z</time></trkpt><trkpt lat="43.40161" lon="10.9084833"><ele>346.0</ele><time>2026-04-18T10:21:33.519Z</time></trkpt><trkpt lat="43.40152" lon="10.9085017"><ele>346.0</ele><time>2026-04-18T10:21:34.519Z</time></trkpt><trkpt lat="43.4014333" lon="10.908515"><ele>346.0</ele><time>2026-04-18T10:21:35.519Z</time></trkpt><trkpt lat="43.4013417" lon="10.9085383"><ele>346.0</ele><time>2026-04-18T10:21:36.52Z</time></trkpt><trkpt lat="43.4012367" lon="10.9085667"><ele>346.0</ele><time>2026-04-18T10:21:37.519Z</time></trkpt><trkpt lat="43.4011317" lon="10.90858"><ele>346.0</ele><time>2026-04-18T10:21:38.519Z</time></trkpt><trkpt lat="43.40103" lon="10.908595"><ele>346.0</ele><time>2026-04-18T10:21:39.519Z</time></trkpt><trkpt lat="43.400935" lon="10.9086217"><ele>346.0</ele><time>2026-04-18T10:21:40.52Z</time></trkpt><trkpt lat="43.4008367" lon="10.9086267"><ele>346.0</ele><time>2026-04-18T10:21:41.52Z</time></trkpt><trkpt lat="43.400735" lon="10.9086417"><ele>346.0</ele><time>2026-04-18T10:21:42.519Z</time></trkpt><trkpt lat="43.4006483" lon="10.90865"><ele>346.0</ele><time>2026-04-18T10:21:43.519Z</time></trkpt><trkpt lat="43.4005683" lon="10.90866"><ele>346.0</ele><time>2026-04-18T10:21:44.519Z</time></trkpt><trkpt lat="43.40048" lon="10.90866"><ele>346.0</ele><time>2026-04-18T10:21:45.519Z</time></trkpt><trkpt lat="43.4004017" lon="10.9086633"><ele>346.0</ele><time>2026-04-18T10:21:46.519Z</time></trkpt><trkpt lat="43.4003383" lon="10.9086617"><ele>346.0</ele><time>2026-04-18T10:21:47.519Z</time></trkpt><trkpt lat="43.4002533" lon="10.9086183"><ele>346.3333333333333</ele><time>2026-04-18T10:21:49.519Z</time></trkpt><trkpt lat="43.4001883" lon="10.9085083"><ele>346.66666666666663</ele><time>2026-04-18T10:21:51.519Z</time></trkpt><trkpt lat="43.4001483" lon="10.9083633"><ele>347.0</ele><time>2026-04-18T10:21:53.519Z</time></trkpt><trkpt lat="43.400115" lon="10.9082733"><ele>347.3333333333333</ele><time>2026-04-18T10:21:54.519Z</time></trkpt><trkpt lat="43.4000833" lon="10.9081817"><ele>347.6666666666667</ele><time>2026-04-18T10:21:55.519Z</time></trkpt><trkpt lat="43.400045" lon="10.90809"><ele>348.0</ele><time>2026-04-18T10:21:56.519Z</time></trkpt><trkpt lat="43.40002" lon="10.9080067"><ele>348.59999999999997</ele><time>2026-04-18T10:21:57.519Z</time></trkpt><trkpt lat="43.4000017" lon="10.9079067"><ele>349.2</ele><time>2026-04-18T10:21:58.519Z</time></trkpt><trkpt lat="43.3999983" lon="10.9077933"><ele>349.8</ele><time>2026-04-18T10:21:59.52Z</time></trkpt><trkpt lat="43.4000283" lon="10.9076767"><ele>350.4</ele><time>2026-04-18T10:22:00.519Z</time></trkpt><trkpt lat="43.4000483" lon="10.907525"><ele>351.0</ele><time>2026-04-18T10:22:01.519Z</time></trkpt><trkpt lat="43.4000733" lon="10.9073717"><ele>349.6</ele><time>2026-04-18T10:22:02.519Z</time></trkpt><trkpt lat="43.4001017" lon="10.9072317"><ele>348.20000000000005</ele><time>2026-04-18T10:22:03.519Z</time></trkpt><trkpt lat="43.400135" lon="10.9071017"><ele>346.79999999999995</ele><time>2026-04-18T10:22:04.519Z</time></trkpt><trkpt lat="43.400165" lon="10.9069617"><ele>345.4</ele><time>2026-04-18T10:22:05.519Z</time></trkpt><trkpt lat="43.400195" lon="10.9068383"><ele>344.0</ele><time>2026-04-18T10:22:06.519Z</time></trkpt><trkpt lat="43.40022" lon="10.90673"><ele>343.1666666666667</ele><time>2026-04-18T10:22:07.519Z</time></trkpt><trkpt lat="43.40024" lon="10.9066283"><ele>342.33333333333337</ele><time>2026-04-18T10:22:08.52Z</time></trkpt><trkpt lat="43.4002533" lon="10.906525"><ele>341.5</ele><time>2026-04-18T10:22:09.519Z</time></trkpt><trkpt lat="43.4002667" lon="10.9064217"><ele>340.6666666666667</ele><time>2026-04-18T10:22:10.52Z</time></trkpt><trkpt lat="43.4002767" lon="10.906315"><ele>339.8333333333333</ele><time>2026-04-18T10:22:11.52Z</time></trkpt><trkpt lat="43.4002617" lon="10.9062033"><ele>339.0</ele><time>2026-04-18T10:22:12.519Z</time></trkpt><trkpt lat="43.4002367" lon="10.90608"><ele>339.0</ele><time>2026-04-18T10:22:13.519Z</time></trkpt><trkpt lat="43.4002067" lon="10.9059667"><ele>339.0</ele><time>2026-04-18T10:22:14.519Z</time></trkpt><trkpt lat="43.4001617" lon="10.9058417"><ele>339.0</ele><time>2026-04-18T10:22:15.519Z</time></trkpt><trkpt lat="43.40011" lon="10.905725"><ele>339.0</ele><time>2026-04-18T10:22:16.519Z</time></trkpt><trkpt lat="43.4000517" lon="10.9056067"><ele>339.0</ele><time>2026-04-18T10:22:17.519Z</time></trkpt><trkpt lat="43.4000133" lon="10.9054983"><ele>339.3333333333333</ele><time>2026-04-18T10:22:18.519Z</time></trkpt><trkpt lat="43.3999733" lon="10.9053967"><ele>339.6666666666667</ele><time>2026-04-18T10:22:19.519Z</time></trkpt><trkpt lat="43.3999367" lon="10.9052967"><ele>340.0</ele><time>2026-04-18T10:22:20.52Z</time></trkpt><trkpt lat="43.3999017" lon="10.9052033"><ele>340.33333333333337</ele><time>2026-04-18T10:22:21.519Z</time></trkpt><trkpt lat="43.3998717" lon="10.9051117"><ele>340.6666666666667</ele><time>2026-04-18T10:22:22.519Z</time></trkpt><trkpt lat="43.3998283" lon="10.9049883"><ele>341.0</ele><time>2026-04-18T10:22:24.519Z</time></trkpt><trkpt lat="43.39975" lon="10.9049333"><ele>341.0</ele><time>2026-04-18T10:22:27.519Z</time></trkpt><trkpt lat="43.399685" lon="10.9050183"><ele>341.0</ele><time>2026-04-18T10:22:29.518Z</time></trkpt><trkpt lat="43.399665" lon="10.9051017"><ele>341.0</ele><time>2026-04-18T10:22:30.518Z</time></trkpt><trkpt lat="43.3996633" lon="10.9052033"><ele>341.0</ele><time>2026-04-18T10:22:31.518Z</time></trkpt><trkpt lat="43.3996817" lon="10.905305"><ele>341.0</ele><time>2026-04-18T10:22:32.518Z</time></trkpt><trkpt lat="43.3997433" lon="10.9054283"><ele>341.0</ele><time>2026-04-18T10:22:34.518Z</time></trkpt><trkpt lat="43.3997467" lon="10.9055183"><ele>335.6</ele><time>2026-04-18T10:22:36.518Z</time></trkpt><trkpt lat="43.3996567" lon="10.9055917"><ele>330.20000000000005</ele><time>2026-04-18T10:22:39.518Z</time></trkpt><trkpt lat="43.399575" lon="10.9055583"><ele>324.79999999999995</ele><time>2026-04-18T10:22:41.518Z</time></trkpt><trkpt lat="43.3994867" lon="10.9054233"><ele>319.4</ele><time>2026-04-18T10:22:43.518Z</time></trkpt><trkpt lat="43.3994533" lon="10.905335"><ele>314.0</ele><time>2026-04-18T10:22:44.518Z</time></trkpt><trkpt lat="43.3994267" lon="10.9052317"><ele>314.0</ele><time>2026-04-18T10:22:45.518Z</time></trkpt><trkpt lat="43.399405" lon="10.9051283"><ele>314.0</ele><time>2026-04-18T10:22:46.519Z</time></trkpt><trkpt lat="43.399385" lon="10.9050317"><ele>314.0</ele><time>2026-04-18T10:22:47.519Z</time></trkpt><trkpt lat="43.3993333" lon="10.9049"><ele>314.0</ele><time>2026-04-18T10:22:49.518Z</time></trkpt><trkpt lat="43.399305" lon="10.90476"><ele>314.0</ele><time>2026-04-18T10:22:51.518Z</time></trkpt><trkpt lat="43.39931" lon="10.904615"><ele>314.33333333333337</ele><time>2026-04-18T10:22:53.519Z</time></trkpt><trkpt lat="43.3993817" lon="10.904465"><ele>314.6666666666667</ele><time>2026-04-18T10:22:55.518Z</time></trkpt><trkpt lat="43.3994283" lon="10.904395"><ele>315.0</ele><time>2026-04-18T10:22:56.518Z</time></trkpt><trkpt lat="43.3994683" lon="10.9043167"><ele>315.3333333333333</ele><time>2026-04-18T10:22:57.518Z</time></trkpt><trkpt lat="43.3995017" lon="10.9042383"><ele>315.66666666666663</ele><time>2026-04-18T10:22:58.519Z</time></trkpt><trkpt lat="43.3995317" lon="10.9041033"><ele>316.0</ele><time>2026-04-18T10:23:00.518Z</time></trkpt><trkpt lat="43.3994933" lon="10.9040217"><ele>316.0</ele><time>2026-04-18T10:23:02.518Z</time></trkpt><trkpt lat="43.3994267" lon="10.9039867"><ele>316.0</ele><time>2026-04-18T10:23:04.518Z</time></trkpt><trkpt lat="43.39934" lon="10.9040583"><ele>316.0</ele><time>2026-04-18T10:23:06.518Z</time></trkpt><trkpt lat="43.3992867" lon="10.9041183"><ele>316.0</ele><time>2026-04-18T10:23:07.518Z</time></trkpt><trkpt lat="43.3992317" lon="10.90418"><ele>316.0</ele><time>2026-04-18T10:23:08.518Z</time></trkpt><trkpt lat="43.3991717" lon="10.9042383"><ele>316.0</ele><time>2026-04-18T10:23:09.518Z</time></trkpt><trkpt lat="43.39911" lon="10.9043117"><ele>316.0</ele><time>2026-04-18T10:23:10.518Z</time></trkpt><trkpt lat="43.399055" lon="10.9043883"><ele>316.0</ele><time>2026-04-18T10:23:11.518Z</time></trkpt><trkpt lat="43.3990033" lon="10.9044833"><ele>316.0</ele><time>2026-04-18T10:23:12.518Z</time></trkpt><trkpt lat="43.398955" lon="10.9045967"><ele>316.0</ele><time>2026-04-18T10:23:13.518Z</time></trkpt><trkpt lat="43.39891" lon="10.90474"><ele>316.0</ele><time>2026-04-18T10:23:14.518Z</time></trkpt><trkpt lat="43.3988683" lon="10.9048683"><ele>312.2</ele><time>2026-04-18T10:23:15.518Z</time></trkpt><trkpt lat="43.3988133" lon="10.905005"><ele>308.40000000000003</ele><time>2026-04-18T10:23:16.519Z</time></trkpt><trkpt lat="43.3987567" lon="10.9051517"><ele>304.6</ele><time>2026-04-18T10:23:17.518Z</time></trkpt><trkpt lat="43.3987117" lon="10.90527"><ele>300.8</ele><time>2026-04-18T10:23:18.518Z</time></trkpt><trkpt lat="43.3986683" lon="10.9053833"><ele>297.0</ele><time>2026-04-18T10:23:19.518Z</time></trkpt><trkpt lat="43.398635" lon="10.905485"><ele>297.0</ele><time>2026-04-18T10:23:20.518Z</time></trkpt><trkpt lat="43.3986033" lon="10.905565"><ele>297.0</ele><time>2026-04-18T10:23:21.518Z</time></trkpt><trkpt lat="43.3985517" lon="10.9056517"><ele>297.0</ele><time>2026-04-18T10:23:23.518Z</time></trkpt><trkpt lat="43.3984617" lon="10.905695"><ele>297.0</ele><time>2026-04-18T10:23:25.518Z</time></trkpt><trkpt lat="43.3983633" lon="10.90563"><ele>297.0</ele><time>2026-04-18T10:23:27.518Z</time></trkpt><trkpt lat="43.3982833" lon="10.9054767"><ele>297.0</ele><time>2026-04-18T10:23:29.518Z</time></trkpt><trkpt lat="43.3982483" lon="10.9053533"><ele>297.0</ele><time>2026-04-18T10:23:30.519Z</time></trkpt><trkpt lat="43.3982183" lon="10.9052117"><ele>297.0</ele><time>2026-04-18T10:23:31.518Z</time></trkpt><trkpt lat="43.3981933" lon="10.9050733"><ele>297.0</ele><time>2026-04-18T10:23:32.518Z</time></trkpt><trkpt lat="43.398175" lon="10.9049533"><ele>297.0</ele><time>2026-04-18T10:23:33.518Z</time></trkpt><trkpt lat="43.398165" lon="10.90485"><ele>296.5</ele><time>2026-04-18T10:23:34.519Z</time></trkpt><trkpt lat="43.3981667" lon="10.9047617"><ele>296.0</ele><time>2026-04-18T10:23:35.518Z</time></trkpt><trkpt lat="43.3981833" lon="10.9046667"><ele>295.5</ele><time>2026-04-18T10:23:36.518Z</time></trkpt><trkpt lat="43.3982117" lon="10.9045617"><ele>295.0</ele><time>2026-04-18T10:23:37.518Z</time></trkpt><trkpt lat="43.3982383" lon="10.90446"><ele>294.5</ele><time>2026-04-18T10:23:38.518Z</time></trkpt><trkpt lat="43.3982633" lon="10.904375"><ele>294.0</ele><time>2026-04-18T10:23:39.518Z</time></trkpt><trkpt lat="43.3982967" lon="10.9042467"><ele>294.0</ele><time>2026-04-18T10:23:41.518Z</time></trkpt><trkpt lat="43.3982933" lon="10.90415"><ele>294.0</ele><time>2026-04-18T10:23:43.519Z</time></trkpt><trkpt lat="43.3982283" lon="10.9041167"><ele>294.0</ele><time>2026-04-18T10:23:45.518Z</time></trkpt><trkpt lat="43.3981167" lon="10.9042"><ele>294.0</ele><time>2026-04-18T10:23:47.518Z</time></trkpt><trkpt lat="43.3980483" lon="10.9042717"><ele>294.0</ele><time>2026-04-18T10:23:48.518Z</time></trkpt><trkpt lat="43.3979817" lon="10.9043383"><ele>294.0</ele><time>2026-04-18T10:23:49.518Z</time></trkpt><trkpt lat="43.3979233" lon="10.9044133"><ele>290.59999999999997</ele><time>2026-04-18T10:23:50.519Z</time></trkpt><trkpt lat="43.3978733" lon="10.9044967"><ele>287.2</ele><time>2026-04-18T10:23:51.519Z</time></trkpt><trkpt lat="43.3978233" lon="10.904605"><ele>283.79999999999995</ele><time>2026-04-18T10:23:52.518Z</time></trkpt><trkpt lat="43.3977683" lon="10.9047317"><ele>280.4</ele><time>2026-04-18T10:23:53.518Z</time></trkpt><trkpt lat="43.397725" lon="10.904865"><ele>277.0</ele><time>2026-04-18T10:23:54.518Z</time></trkpt><trkpt lat="43.3976833" lon="10.905005"><ele>277.6</ele><time>2026-04-18T10:23:55.518Z</time></trkpt><trkpt lat="43.3976367" lon="10.9051333"><ele>278.2</ele><time>2026-04-18T10:23:56.518Z</time></trkpt><trkpt lat="43.3975883" lon="10.9052417"><ele>278.8</ele><time>2026-04-18T10:23:57.518Z</time></trkpt><trkpt lat="43.3975433" lon="10.9053533"><ele>279.4</ele><time>2026-04-18T10:23:58.518Z</time></trkpt><trkpt lat="43.3974983" lon="10.905455"><ele>280.0</ele><time>2026-04-18T10:23:59.518Z</time></trkpt><trkpt lat="43.3974683" lon="10.9055667"><ele>280.0</ele><time>2026-04-18T10:24:00.518Z</time></trkpt><trkpt lat="43.3974417" lon="10.90567"><ele>280.0</ele><time>2026-04-18T10:24:01.518Z</time></trkpt><trkpt lat="43.3974217" lon="10.9057633"><ele>280.0</ele><time>2026-04-18T10:24:02.518Z</time></trkpt><trkpt lat="43.3973833" lon="10.9058917"><ele>280.0</ele><time>2026-04-18T10:24:04.518Z</time></trkpt><trkpt lat="43.3973067" lon="10.9059183"><ele>280.0</ele><time>2026-04-18T10:24:07.518Z</time></trkpt><trkpt lat="43.397235" lon="10.9058333"><ele>280.0</ele><time>2026-04-18T10:24:09.519Z</time></trkpt><trkpt lat="43.3971633" lon="10.90566"><ele>276.8</ele><time>2026-04-18T10:24:11.519Z</time></trkpt><trkpt lat="43.39711" lon="10.9055383"><ele>273.6</ele><time>2026-04-18T10:24:12.518Z</time></trkpt><trkpt lat="43.39707" lon="10.9054133"><ele>270.4</ele><time>2026-04-18T10:24:13.518Z</time></trkpt><trkpt lat="43.3970417" lon="10.9053083"><ele>267.2</ele><time>2026-04-18T10:24:14.518Z</time></trkpt><trkpt lat="43.3969833" lon="10.9051933"><ele>264.0</ele><time>2026-04-18T10:24:16.518Z</time></trkpt><trkpt lat="43.396905" lon="10.9052183"><ele>264.0</ele><time>2026-04-18T10:24:19.518Z</time></trkpt><trkpt lat="43.3968383" lon="10.90536"><ele>264.0</ele><time>2026-04-18T10:24:21.519Z</time></trkpt><trkpt lat="43.396795" lon="10.9054583"><ele>264.0</ele><time>2026-04-18T10:24:22.519Z</time></trkpt><trkpt lat="43.3967533" lon="10.9055567"><ele>264.0</ele><time>2026-04-18T10:24:23.518Z</time></trkpt><trkpt lat="43.3967133" lon="10.9056483"><ele>264.0</ele><time>2026-04-18T10:24:24.518Z</time></trkpt><trkpt lat="43.39667" lon="10.9057233"><ele>264.0</ele><time>2026-04-18T10:24:25.518Z</time></trkpt><trkpt lat="43.3965633" lon="10.905805"><ele>264.0</ele><time>2026-04-18T10:24:27.518Z</time></trkpt><trkpt lat="43.3964433" lon="10.9057367"><ele>264.0</ele><time>2026-04-18T10:24:29.518Z</time></trkpt><trkpt lat="43.396385" lon="10.905595"><ele>264.0</ele><time>2026-04-18T10:24:31.518Z</time></trkpt><trkpt lat="43.396375" lon="10.905495"><ele>264.0</ele><time>2026-04-18T10:24:32.518Z</time></trkpt><trkpt lat="43.3963917" lon="10.90538"><ele>264.0</ele><time>2026-04-18T10:24:33.518Z</time></trkpt><trkpt lat="43.39642" lon="10.9052483"><ele>264.0</ele><time>2026-04-18T10:24:34.519Z</time></trkpt><trkpt lat="43.3964517" lon="10.90512"><ele>264.0</ele><time>2026-04-18T10:24:35.518Z</time></trkpt><trkpt lat="43.396485" lon="10.905"><ele>264.0</ele><time>2026-04-18T10:24:36.519Z</time></trkpt><trkpt lat="43.3964983" lon="10.904895"><ele>264.0</ele><time>2026-04-18T10:24:37.518Z</time></trkpt><trkpt lat="43.3965117" lon="10.9047817"><ele>264.0</ele><time>2026-04-18T10:24:38.518Z</time></trkpt><trkpt lat="43.39651" lon="10.9046817"><ele>264.0</ele><time>2026-04-18T10:24:39.519Z</time></trkpt><trkpt lat="43.3965033" lon="10.90457"><ele>264.2</ele><time>2026-04-18T10:24:40.518Z</time></trkpt><trkpt lat="43.3964833" lon="10.9044533"><ele>264.4</ele><time>2026-04-18T10:24:41.518Z</time></trkpt><trkpt lat="43.3964533" lon="10.9043333"><ele>264.6</ele><time>2026-04-18T10:24:42.518Z</time></trkpt><trkpt lat="43.3964217" lon="10.9042183"><ele>264.8</ele><time>2026-04-18T10:24:43.518Z</time></trkpt><trkpt lat="43.396345" lon="10.9040017"><ele>265.0</ele><time>2026-04-18T10:24:45.518Z</time></trkpt><trkpt lat="43.39632" lon="10.903915"><ele>260.8333333333333</ele><time>2026-04-18T10:24:46.518Z</time></trkpt><trkpt lat="43.3963083" lon="10.9038083"><ele>256.66666666666663</ele><time>2026-04-18T10:24:47.518Z</time></trkpt><trkpt lat="43.3963067" lon="10.9036933"><ele>252.5</ele><time>2026-04-18T10:24:48.518Z</time></trkpt><trkpt lat="43.3963033" lon="10.9035633"><ele>248.33333333333331</ele><time>2026-04-18T10:24:49.518Z</time></trkpt><trkpt lat="43.3963083" lon="10.9034317"><ele>244.16666666666666</ele><time>2026-04-18T10:24:50.518Z</time></trkpt><trkpt lat="43.396325" lon="10.9033133"><ele>240.0</ele><time>2026-04-18T10:24:51.518Z</time></trkpt><trkpt lat="43.3963333" lon="10.9032033"><ele>241.14285714285717</ele><time>2026-04-18T10:24:52.518Z</time></trkpt><trkpt lat="43.396345" lon="10.9031083"><ele>242.28571428571428</ele><time>2026-04-18T10:24:53.518Z</time></trkpt><trkpt lat="43.396365" lon="10.90302"><ele>243.42857142857144</ele><time>2026-04-18T10:24:54.518Z</time></trkpt><trkpt lat="43.396405" lon="10.902945"><ele>244.57142857142858</ele><time>2026-04-18T10:24:55.518Z</time></trkpt><trkpt lat="43.3964617" lon="10.902895"><ele>245.71428571428572</ele><time>2026-04-18T10:24:56.518Z</time></trkpt><trkpt lat="43.39652" lon="10.9028533"><ele>246.85714285714286</ele><time>2026-04-18T10:24:57.518Z</time></trkpt><trkpt lat="43.39661" lon="10.9027717"><ele>248.0</ele><time>2026-04-18T10:24:59.518Z</time></trkpt><trkpt lat="43.3966317" lon="10.9026417"><ele>246.4</ele><time>2026-04-18T10:25:01.518Z</time></trkpt><trkpt lat="43.3965917" lon="10.9025233"><ele>244.8</ele><time>2026-04-18T10:25:03.518Z</time></trkpt><trkpt lat="43.39648" lon="10.902445"><ele>243.2</ele><time>2026-04-18T10:25:05.519Z</time></trkpt><trkpt lat="43.3964033" lon="10.9024467"><ele>241.6</ele><time>2026-04-18T10:25:06.518Z</time></trkpt><trkpt lat="43.39633" lon="10.9024717"><ele>240.0</ele><time>2026-04-18T10:25:07.518Z</time></trkpt><trkpt lat="43.396255" lon="10.9025267"><ele>239.16666666666666</ele><time>2026-04-18T10:25:08.518Z</time></trkpt><trkpt lat="43.3961767" lon="10.9026033"><ele>238.33333333333331</ele><time>2026-04-18T10:25:09.518Z</time></trkpt><trkpt lat="43.396105" lon="10.9026917"><ele>237.5</ele><time>2026-04-18T10:25:10.518Z</time></trkpt><trkpt lat="43.3960433" lon="10.9027833"><ele>236.66666666666666</ele><time>2026-04-18T10:25:11.518Z</time></trkpt><trkpt lat="43.3959933" lon="10.902875"><ele>235.83333333333331</ele><time>2026-04-18T10:25:12.518Z</time></trkpt><trkpt lat="43.3959433" lon="10.9029517"><ele>235.0</ele><time>2026-04-18T10:25:13.518Z</time></trkpt><trkpt lat="43.3958983" lon="10.903025"><ele>235.0</ele><time>2026-04-18T10:25:14.518Z</time></trkpt><trkpt lat="43.3958567" lon="10.9030933"><ele>234.99999999999997</ele><time>2026-04-18T10:25:15.518Z</time></trkpt><trkpt lat="43.3958217" lon="10.903175"><ele>235.0</ele><time>2026-04-18T10:25:16.518Z</time></trkpt><trkpt lat="43.395785" lon="10.9032633"><ele>235.0</ele><time>2026-04-18T10:25:17.518Z</time></trkpt><trkpt lat="43.3957683" lon="10.9033683"><ele>234.99999999999997</ele><time>2026-04-18T10:25:18.518Z</time></trkpt><trkpt lat="43.3957617" lon="10.9034733"><ele>235.0</ele><time>2026-04-18T10:25:19.518Z</time></trkpt><trkpt lat="43.3957617" lon="10.903575"><ele>235.0</ele><time>2026-04-18T10:25:20.518Z</time></trkpt><trkpt lat="43.3957617" lon="10.903725"><ele>236.0</ele><time>2026-04-18T10:25:22.518Z</time></trkpt><trkpt lat="43.3957233" lon="10.9038383"><ele>237.0</ele><time>2026-04-18T10:25:25.518Z</time></trkpt><trkpt lat="43.3956367" lon="10.9038533"><ele>238.0</ele><time>2026-04-18T10:25:28.518Z</time></trkpt><trkpt lat="43.39559" lon="10.9037833"><ele>239.0</ele><time>2026-04-18T10:25:30.518Z</time></trkpt><trkpt lat="43.3955533" lon="10.903605"><ele>240.0</ele><time>2026-04-18T10:25:32.518Z</time></trkpt><trkpt lat="43.3955367" lon="10.9034767"><ele>239.0</ele><time>2026-04-18T10:25:33.518Z</time></trkpt><trkpt lat="43.3955217" lon="10.903335"><ele>238.0</ele><time>2026-04-18T10:25:34.518Z</time></trkpt><trkpt lat="43.3955067" lon="10.903195"><ele>237.0</ele><time>2026-04-18T10:25:35.518Z</time></trkpt><trkpt lat="43.3954983" lon="10.9030667"><ele>236.0</ele><time>2026-04-18T10:25:36.518Z</time></trkpt><trkpt lat="43.3954967" lon="10.90294"><ele>235.0</ele><time>2026-04-18T10:25:37.518Z</time></trkpt><trkpt lat="43.3954933" lon="10.9028167"><ele>234.4</ele><time>2026-04-18T10:25:38.518Z</time></trkpt><trkpt lat="43.395475" lon="10.9026783"><ele>233.8</ele><time>2026-04-18T10:25:40.518Z</time></trkpt><trkpt lat="43.39543" lon="10.902585"><ele>233.2</ele><time>2026-04-18T10:25:42.519Z</time></trkpt><trkpt lat="43.39532" lon="10.9025683"><ele>232.6</ele><time>2026-04-18T10:25:44.518Z</time></trkpt><trkpt lat="43.3952333" lon="10.9025833"><ele>232.0</ele><time>2026-04-18T10:25:45.518Z</time></trkpt><trkpt lat="43.3951483" lon="10.902595"><ele>231.99999999999997</ele><time>2026-04-18T10:25:46.518Z</time></trkpt><trkpt lat="43.3950633" lon="10.9025967"><ele>232.0</ele><time>2026-04-18T10:25:47.519Z</time></trkpt><trkpt lat="43.39498" lon="10.902585"><ele>232.0</ele><time>2026-04-18T10:25:48.518Z</time></trkpt><trkpt lat="43.3949017" lon="10.9025583"><ele>232.0</ele><time>2026-04-18T10:25:49.518Z</time></trkpt><trkpt lat="43.3948383" lon="10.9025317"><ele>231.99999999999997</ele><time>2026-04-18T10:25:50.518Z</time></trkpt><trkpt lat="43.3947683" lon="10.9024483"><ele>232.0</ele><time>2026-04-18T10:25:52.518Z</time></trkpt><trkpt lat="43.3947967" lon="10.9023083"><ele>231.39999999999998</ele><time>2026-04-18T10:25:54.517Z</time></trkpt><trkpt lat="43.39485" lon="10.9022233"><ele>230.79999999999998</ele><time>2026-04-18T10:25:55.517Z</time></trkpt><trkpt lat="43.3949083" lon="10.9021267"><ele>230.2</ele><time>2026-04-18T10:25:56.517Z</time></trkpt><trkpt lat="43.3949633" lon="10.9020117"><ele>229.6</ele><time>2026-04-18T10:25:57.517Z</time></trkpt><trkpt lat="43.395015" lon="10.9019017"><ele>229.0</ele><time>2026-04-18T10:25:58.517Z</time></trkpt><trkpt lat="43.39506" lon="10.90179"><ele>229.2</ele><time>2026-04-18T10:25:59.517Z</time></trkpt><trkpt lat="43.395105" lon="10.901675"><ele>229.39999999999998</ele><time>2026-04-18T10:26:00.517Z</time></trkpt><trkpt lat="43.39515" lon="10.9015617"><ele>229.6</ele><time>2026-04-18T10:26:01.517Z</time></trkpt><trkpt lat="43.3951783" lon="10.9014583"><ele>229.8</ele><time>2026-04-18T10:26:02.517Z</time></trkpt><trkpt lat="43.3952017" lon="10.9013417"><ele>230.0</ele><time>2026-04-18T10:26:03.517Z</time></trkpt><trkpt lat="43.3952117" lon="10.90121"><ele>230.0</ele><time>2026-04-18T10:26:04.517Z</time></trkpt><trkpt lat="43.3952133" lon="10.9010683"><ele>230.0</ele><time>2026-04-18T10:26:05.518Z</time></trkpt><trkpt lat="43.3952083" lon="10.9009283"><ele>230.0</ele><time>2026-04-18T10:26:06.517Z</time></trkpt><trkpt lat="43.3951933" lon="10.9008233"><ele>230.0</ele><time>2026-04-18T10:26:07.517Z</time></trkpt><trkpt lat="43.3952033" lon="10.9006467"><ele>230.0</ele><time>2026-04-18T10:26:09.517Z</time></trkpt><trkpt lat="43.395215" lon="10.9005483"><ele>231.4</ele><time>2026-04-18T10:26:10.517Z</time></trkpt><trkpt lat="43.3952417" lon="10.9004433"><ele>232.8</ele><time>2026-04-18T10:26:11.517Z</time></trkpt><trkpt lat="43.3952767" lon="10.9003183"><ele>234.2</ele><time>2026-04-18T10:26:12.517Z</time></trkpt><trkpt lat="43.3953067" lon="10.9001833"><ele>235.6</ele><time>2026-04-18T10:26:13.517Z</time></trkpt><trkpt lat="43.39533" lon="10.9000683"><ele>237.0</ele><time>2026-04-18T10:26:14.518Z</time></trkpt><trkpt lat="43.3953483" lon="10.899955"><ele>239.0</ele><time>2026-04-18T10:26:15.518Z</time></trkpt><trkpt lat="43.395365" lon="10.8998367"><ele>241.0</ele><time>2026-04-18T10:26:16.518Z</time></trkpt><trkpt lat="43.3953833" lon="10.899725"><ele>243.0</ele><time>2026-04-18T10:26:17.517Z</time></trkpt><trkpt lat="43.3954" lon="10.89962"><ele>245.0</ele><time>2026-04-18T10:26:18.518Z</time></trkpt><trkpt lat="43.39545" lon="10.8994533"><ele>247.0</ele><time>2026-04-18T10:26:20.517Z</time></trkpt><trkpt lat="43.3954917" lon="10.89937"><ele>245.99999999999997</ele><time>2026-04-18T10:26:21.518Z</time></trkpt><trkpt lat="43.395545" lon="10.8992917"><ele>245.0</ele><time>2026-04-18T10:26:22.517Z</time></trkpt><trkpt lat="43.3956" lon="10.899215"><ele>244.0</ele><time>2026-04-18T10:26:23.517Z</time></trkpt><trkpt lat="43.39566" lon="10.8991217"><ele>243.0</ele><time>2026-04-18T10:26:24.517Z</time></trkpt><trkpt lat="43.3957267" lon="10.8990133"><ele>241.99999999999997</ele><time>2026-04-18T10:26:25.517Z</time></trkpt><trkpt lat="43.3957933" lon="10.8989117"><ele>241.0</ele><time>2026-04-18T10:26:26.517Z</time></trkpt><trkpt lat="43.3958517" lon="10.898835"><ele>241.0</ele><time>2026-04-18T10:26:27.517Z</time></trkpt><trkpt lat="43.395905" lon="10.8987683"><ele>241.00000000000003</ele><time>2026-04-18T10:26:28.517Z</time></trkpt><trkpt lat="43.39598" lon="10.8986183"><ele>241.00000000000003</ele><time>2026-04-18T10:26:30.517Z</time></trkpt><trkpt lat="43.396015" lon="10.8985183"><ele>241.0</ele><time>2026-04-18T10:26:31.518Z</time></trkpt><trkpt lat="43.3960483" lon="10.8984033"><ele>241.0</ele><time>2026-04-18T10:26:32.517Z</time></trkpt><trkpt lat="43.3960783" lon="10.8983033"><ele>241.14285714285717</ele><time>2026-04-18T10:26:33.517Z</time></trkpt><trkpt lat="43.3961133" lon="10.8982133"><ele>241.2857142857143</ele><time>2026-04-18T10:26:34.517Z</time></trkpt><trkpt lat="43.396155" lon="10.8981383"><ele>241.42857142857144</ele><time>2026-04-18T10:26:35.518Z</time></trkpt><trkpt lat="43.39621" lon="10.8980717"><ele>241.57142857142856</ele><time>2026-04-18T10:26:36.517Z</time></trkpt><trkpt lat="43.3962733" lon="10.89802"><ele>241.7142857142857</ele><time>2026-04-18T10:26:37.517Z</time></trkpt><trkpt lat="43.39634" lon="10.8979717"><ele>241.85714285714283</ele><time>2026-04-18T10:26:38.517Z</time></trkpt><trkpt lat="43.39641" lon="10.8979117"><ele>242.0</ele><time>2026-04-18T10:26:39.517Z</time></trkpt><trkpt lat="43.3964867" lon="10.8978483"><ele>242.00000000000003</ele><time>2026-04-18T10:26:40.517Z</time></trkpt><trkpt lat="43.3965567" lon="10.8977817"><ele>242.0</ele><time>2026-04-18T10:26:41.517Z</time></trkpt><trkpt lat="43.3966183" lon="10.8977267"><ele>242.0</ele><time>2026-04-18T10:26:42.517Z</time></trkpt><trkpt lat="43.3967067" lon="10.8976183"><ele>242.0</ele><time>2026-04-18T10:26:44.517Z</time></trkpt><trkpt lat="43.396745" lon="10.897545"><ele>242.00000000000003</ele><time>2026-04-18T10:26:45.518Z</time></trkpt><trkpt lat="43.3967817" lon="10.8974467"><ele>242.0</ele><time>2026-04-18T10:26:46.518Z</time></trkpt><trkpt lat="43.396815" lon="10.897325"><ele>244.8</ele><time>2026-04-18T10:26:47.517Z</time></trkpt><trkpt lat="43.39684" lon="10.8972"><ele>247.6</ele><time>2026-04-18T10:26:48.517Z</time></trkpt><trkpt lat="43.3968767" lon="10.8970583"><ele>250.40000000000003</ele><time>2026-04-18T10:26:49.517Z</time></trkpt><trkpt lat="43.39692" lon="10.89694"><ele>253.20000000000002</ele><time>2026-04-18T10:26:50.517Z</time></trkpt><trkpt lat="43.3969667" lon="10.8968233"><ele>256.0</ele><time>2026-04-18T10:26:51.517Z</time></trkpt><trkpt lat="43.3969983" lon="10.8967133"><ele>258.2</ele><time>2026-04-18T10:26:52.517Z</time></trkpt><trkpt lat="43.39703" lon="10.8965917"><ele>260.40000000000003</ele><time>2026-04-18T10:26:53.517Z</time></trkpt><trkpt lat="43.397055" lon="10.8964767"><ele>262.6</ele><time>2026-04-18T10:26:54.517Z</time></trkpt><trkpt lat="43.3970867" lon="10.896355"><ele>264.8</ele><time>2026-04-18T10:26:55.517Z</time></trkpt><trkpt lat="43.3971267" lon="10.8962433"><ele>267.0</ele><time>2026-04-18T10:26:56.518Z</time></trkpt><trkpt lat="43.3971683" lon="10.896135"><ele>265.8</ele><time>2026-04-18T10:26:57.517Z</time></trkpt><trkpt lat="43.3972117" lon="10.89602"><ele>264.6</ele><time>2026-04-18T10:26:58.517Z</time></trkpt><trkpt lat="43.3972483" lon="10.89589"><ele>263.40000000000003</ele><time>2026-04-18T10:26:59.517Z</time></trkpt><trkpt lat="43.3972767" lon="10.895735"><ele>262.2</ele><time>2026-04-18T10:27:00.517Z</time></trkpt><trkpt lat="43.3973" lon="10.895575"><ele>261.0</ele><time>2026-04-18T10:27:01.517Z</time></trkpt><trkpt lat="43.3973383" lon="10.89544"><ele>261.0</ele><time>2026-04-18T10:27:02.518Z</time></trkpt><trkpt lat="43.39739" lon="10.89531"><ele>261.0</ele><time>2026-04-18T10:27:03.517Z</time></trkpt><trkpt lat="43.3974483" lon="10.8951933"><ele>261.0</ele><time>2026-04-18T10:27:04.517Z</time></trkpt><trkpt lat="43.3975" lon="10.8950833"><ele>261.0</ele><time>2026-04-18T10:27:05.517Z</time></trkpt><trkpt lat="43.3975533" lon="10.89499"><ele>261.0</ele><time>2026-04-18T10:27:06.517Z</time></trkpt><trkpt lat="43.3976167" lon="10.8948983"><ele>260.40000000000003</ele><time>2026-04-18T10:27:07.517Z</time></trkpt><trkpt lat="43.3976983" lon="10.894815"><ele>259.8</ele><time>2026-04-18T10:27:08.517Z</time></trkpt><trkpt lat="43.3977783" lon="10.8947517"><ele>259.20000000000005</ele><time>2026-04-18T10:27:09.517Z</time></trkpt><trkpt lat="43.3978617" lon="10.8946967"><ele>258.6</ele><time>2026-04-18T10:27:10.517Z</time></trkpt><trkpt lat="43.3979417" lon="10.8946317"><ele>258.0</ele><time>2026-04-18T10:27:11.517Z</time></trkpt><trkpt lat="43.3980267" lon="10.894565"><ele>258.0</ele><time>2026-04-18T10:27:12.517Z</time></trkpt><trkpt lat="43.3981067" lon="10.894485"><ele>258.0</ele><time>2026-04-18T10:27:13.517Z</time></trkpt><trkpt lat="43.3981817" lon="10.8943983"><ele>258.0</ele><time>2026-04-18T10:27:14.518Z</time></trkpt><trkpt lat="43.39825" lon="10.894295"><ele>258.0</ele><time>2026-04-18T10:27:15.517Z</time></trkpt><trkpt lat="43.3983117" lon="10.8941767"><ele>258.0</ele><time>2026-04-18T10:27:16.517Z</time></trkpt><trkpt lat="43.398365" lon="10.8940617"><ele>262.0</ele><time>2026-04-18T10:27:17.517Z</time></trkpt><trkpt lat="43.39843" lon="10.8939517"><ele>266.0</ele><time>2026-04-18T10:27:18.518Z</time></trkpt><trkpt lat="43.3985117" lon="10.8938483"><ele>270.0</ele><time>2026-04-18T10:27:19.517Z</time></trkpt><trkpt lat="43.398595" lon="10.8937383"><ele>274.0</ele><time>2026-04-18T10:27:20.517Z</time></trkpt><trkpt lat="43.3986833" lon="10.8936183"><ele>274.0</ele><time>2026-04-18T10:27:21.518Z</time></trkpt><trkpt lat="43.3987733" lon="10.8935133"><ele>274.0</ele><time>2026-04-18T10:27:22.517Z</time></trkpt><trkpt lat="43.3988533" lon="10.8934167"><ele>274.0</ele><time>2026-04-18T10:27:23.517Z</time></trkpt><trkpt lat="43.3989383" lon="10.8933467"><ele>274.0</ele><time>2026-04-18T10:27:24.517Z</time></trkpt><trkpt lat="43.3990317" lon="10.8932967"><ele>274.0</ele><time>2026-04-18T10:27:25.517Z</time></trkpt><trkpt lat="43.39913" lon="10.8932517"><ele>275.2</ele><time>2026-04-18T10:27:26.517Z</time></trkpt><trkpt lat="43.39922" lon="10.893215"><ele>276.4</ele><time>2026-04-18T10:27:27.517Z</time></trkpt><trkpt lat="43.3993133" lon="10.8931917"><ele>277.6</ele><time>2026-04-18T10:27:28.517Z</time></trkpt><trkpt lat="43.3993933" lon="10.893185"><ele>278.8</ele><time>2026-04-18T10:27:29.518Z</time></trkpt><trkpt lat="43.3995033" lon="10.8931983"><ele>280.0</ele><time>2026-04-18T10:27:31.517Z</time></trkpt><trkpt lat="43.3995767" lon="10.89313"><ele>280.0</ele><time>2026-04-18T10:27:33.517Z</time></trkpt><trkpt lat="43.3996383" lon="10.8930117"><ele>280.0</ele><time>2026-04-18T10:27:35.518Z</time></trkpt><trkpt lat="43.399675" lon="10.8928917"><ele>280.0</ele><time>2026-04-18T10:27:37.517Z</time></trkpt><trkpt lat="43.399695" lon="10.8928"><ele>280.0</ele><time>2026-04-18T10:27:39.517Z</time></trkpt><trkpt lat="43.39965" lon="10.8927217"><ele>280.0</ele><time>2026-04-18T10:28:24.517Z</time></trkpt><trkpt lat="43.3995917" lon="10.8927767"><ele>280.0</ele><time>2026-04-18T10:28:26.517Z</time></trkpt><trkpt lat="43.3995533" lon="10.8928517"><ele>280.0</ele><time>2026-04-18T10:28:27.517Z</time></trkpt><trkpt lat="43.3994933" lon="10.8929183"><ele>280.0</ele><time>2026-04-18T10:28:28.517Z</time></trkpt><trkpt lat="43.3994167" lon="10.892955"><ele>280.0</ele><time>2026-04-18T10:28:29.517Z</time></trkpt><trkpt lat="43.3993117" lon="10.8929667"><ele>280.0</ele><time>2026-04-18T10:28:30.517Z</time></trkpt><trkpt lat="43.3991883" lon="10.892975"><ele>280.0</ele><time>2026-04-18T10:28:31.517Z</time></trkpt><trkpt lat="43.399035" lon="10.892975"><ele>280.0</ele><time>2026-04-18T10:28:32.517Z</time></trkpt><trkpt lat="43.3988617" lon="10.8929933"><ele>280.0</ele><time>2026-04-18T10:28:33.518Z</time></trkpt><trkpt lat="43.3986967" lon="10.8930217"><ele>280.0</ele><time>2026-04-18T10:28:34.517Z</time></trkpt><trkpt lat="43.3985483" lon="10.8930633"><ele>283.5</ele><time>2026-04-18T10:28:35.517Z</time></trkpt><trkpt lat="43.3984117" lon="10.89312"><ele>287.0</ele><time>2026-04-18T10:28:36.517Z</time></trkpt><trkpt lat="43.398275" lon="10.893185"><ele>290.5</ele><time>2026-04-18T10:28:37.517Z</time></trkpt><trkpt lat="43.3981367" lon="10.8932483"><ele>294.0</ele><time>2026-04-18T10:28:38.517Z</time></trkpt><trkpt lat="43.398" lon="10.8932817"><ele>296.25</ele><time>2026-04-18T10:28:39.517Z</time></trkpt><trkpt lat="43.39786" lon="10.8933083"><ele>298.5</ele><time>2026-04-18T10:28:40.517Z</time></trkpt><trkpt lat="43.3977117" lon="10.8933183"><ele>300.75</ele><time>2026-04-18T10:28:41.517Z</time></trkpt><trkpt lat="43.3975667" lon="10.8933183"><ele>303.0</ele><time>2026-04-18T10:28:42.517Z</time></trkpt><trkpt lat="43.3974233" lon="10.8932983"><ele>303.0</ele><time>2026-04-18T10:28:43.517Z</time></trkpt><trkpt lat="43.3972817" lon="10.8932933"><ele>303.0</ele><time>2026-04-18T10:28:44.517Z</time></trkpt><trkpt lat="43.397145" lon="10.8932967"><ele>303.0</ele><time>2026-04-18T10:28:45.517Z</time></trkpt><trkpt lat="43.3968667" lon="10.8933917"><ele>301.0</ele><time>2026-04-18T10:28:47.517Z</time></trkpt><trkpt lat="43.396735" lon="10.89346"><ele>299.0</ele><time>2026-04-18T10:28:48.517Z</time></trkpt><trkpt lat="43.3965883" lon="10.8935417"><ele>297.0</ele><time>2026-04-18T10:28:49.517Z</time></trkpt><trkpt lat="43.3964383" lon="10.8936317"><ele>301.6666666666667</ele><time>2026-04-18T10:28:50.517Z</time></trkpt><trkpt lat="43.3962767" lon="10.8937267"><ele>306.33333333333337</ele><time>2026-04-18T10:28:51.517Z</time></trkpt><trkpt lat="43.39611" lon="10.89383"><ele>311.0</ele><time>2026-04-18T10:28:52.517Z</time></trkpt><trkpt lat="43.3959383" lon="10.8939433"><ele>311.0</ele><time>2026-04-18T10:28:53.517Z</time></trkpt><trkpt lat="43.3957717" lon="10.89404"><ele>311.0</ele><time>2026-04-18T10:28:54.517Z</time></trkpt><trkpt lat="43.3956133" lon="10.894135"><ele>311.0</ele><time>2026-04-18T10:28:55.517Z</time></trkpt><trkpt lat="43.3954617" lon="10.8942283"><ele>312.6666666666667</ele><time>2026-04-18T10:28:56.517Z</time></trkpt><trkpt lat="43.3953217" lon="10.8943217"><ele>314.3333333333333</ele><time>2026-04-18T10:28:57.517Z</time></trkpt><trkpt lat="43.395185" lon="10.8944233"><ele>316.0</ele><time>2026-04-18T10:28:58.517Z</time></trkpt><trkpt lat="43.39506" lon="10.8945233"><ele>316.0</ele><time>2026-04-18T10:28:59.517Z</time></trkpt><trkpt lat="43.39494" lon="10.894625"><ele>316.0</ele><time>2026-04-18T10:29:00.517Z</time></trkpt><trkpt lat="43.394825" lon="10.894735"><ele>316.0</ele><time>2026-04-18T10:29:01.517Z</time></trkpt><trkpt lat="43.394715" lon="10.8948483"><ele>316.0</ele><time>2026-04-18T10:29:02.517Z</time></trkpt><trkpt lat="43.3946117" lon="10.894975"><ele>318.0</ele><time>2026-04-18T10:29:03.518Z</time></trkpt><trkpt lat="43.3945117" lon="10.8950917"><ele>320.0</ele><time>2026-04-18T10:29:04.517Z</time></trkpt><trkpt lat="43.3944133" lon="10.8951933"><ele>322.0</ele><time>2026-04-18T10:29:05.517Z</time></trkpt><trkpt lat="43.3943083" lon="10.8952767"><ele>324.0</ele><time>2026-04-18T10:29:06.517Z</time></trkpt><trkpt lat="43.39421" lon="10.8953533"><ele>324.0</ele><time>2026-04-18T10:29:07.518Z</time></trkpt><trkpt lat="43.3941033" lon="10.8954283"><ele>324.0</ele><time>2026-04-18T10:29:08.517Z</time></trkpt><trkpt lat="43.393995" lon="10.8955083"><ele>324.0</ele><time>2026-04-18T10:29:09.517Z</time></trkpt><trkpt lat="43.393885" lon="10.89559"><ele>324.0</ele><time>2026-04-18T10:29:10.518Z</time></trkpt><trkpt lat="43.3937833" lon="10.8956617"><ele>325.79999999999995</ele><time>2026-04-18T10:29:11.517Z</time></trkpt><trkpt lat="43.3936933" lon="10.8957167"><ele>327.59999999999997</ele><time>2026-04-18T10:29:12.517Z</time></trkpt><trkpt lat="43.3935883" lon="10.895765"><ele>329.4</ele><time>2026-04-18T10:29:13.517Z</time></trkpt><trkpt lat="43.3934867" lon="10.89581"><ele>331.2</ele><time>2026-04-18T10:29:14.517Z</time></trkpt><trkpt lat="43.3934017" lon="10.895835"><ele>333.0</ele><time>2026-04-18T10:29:15.517Z</time></trkpt><trkpt lat="43.3933283" lon="10.895855"><ele>333.0</ele><time>2026-04-18T10:29:16.517Z</time></trkpt><trkpt lat="43.3932583" lon="10.8958683"><ele>333.0</ele><time>2026-04-18T10:29:17.517Z</time></trkpt><trkpt lat="43.3931883" lon="10.89587"><ele>333.0</ele><time>2026-04-18T10:29:18.517Z</time></trkpt><trkpt lat="43.3931167" lon="10.895875"><ele>333.0</ele><time>2026-04-18T10:29:19.516Z</time></trkpt><trkpt lat="43.3930417" lon="10.8958783"><ele>333.0</ele><time>2026-04-18T10:29:20.516Z</time></trkpt><trkpt lat="43.392975" lon="10.8958817"><ele>333.0</ele><time>2026-04-18T10:29:21.516Z</time></trkpt><trkpt lat="43.3928983" lon="10.895885"><ele>333.0</ele><time>2026-04-18T10:29:22.517Z</time></trkpt><trkpt lat="43.39282" lon="10.8958817"><ele>333.0</ele><time>2026-04-18T10:29:23.516Z</time></trkpt><trkpt lat="43.3927567" lon="10.895865"><ele>333.0</ele><time>2026-04-18T10:29:24.516Z</time></trkpt><trkpt lat="43.392695" lon="10.8958433"><ele>333.0</ele><time>2026-04-18T10:29:25.516Z</time></trkpt><trkpt lat="43.39262" lon="10.8957917"><ele>333.0</ele><time>2026-04-18T10:29:27.516Z</time></trkpt><trkpt lat="43.39256" lon="10.89572"><ele>333.0</ele><time>2026-04-18T10:29:30.516Z</time></trkpt><trkpt lat="43.392525" lon="10.8956033"><ele>333.0</ele><time>2026-04-18T10:29:33.516Z</time></trkpt><trkpt lat="43.3925233" lon="10.89544"><ele>333.0</ele><time>2026-04-18T10:29:35.516Z</time></trkpt><trkpt lat="43.3925217" lon="10.8953233"><ele>333.0</ele><time>2026-04-18T10:29:36.516Z</time></trkpt><trkpt lat="43.3925217" lon="10.895185"><ele>333.0</ele><time>2026-04-18T10:29:37.516Z</time></trkpt><trkpt lat="43.3925133" lon="10.8950517"><ele>333.0</ele><time>2026-04-18T10:29:38.516Z</time></trkpt><trkpt lat="43.3925167" lon="10.8949233"><ele>333.0</ele><time>2026-04-18T10:29:39.516Z</time></trkpt><trkpt lat="43.3925233" lon="10.89479"><ele>333.0</ele><time>2026-04-18T10:29:40.516Z</time></trkpt><trkpt lat="43.3925533" lon="10.8946517"><ele>333.0</ele><time>2026-04-18T10:29:41.516Z</time></trkpt><trkpt lat="43.3926183" lon="10.89451"><ele>333.0</ele><time>2026-04-18T10:29:42.516Z</time></trkpt><trkpt lat="43.3927233" lon="10.8943667"><ele>333.0</ele><time>2026-04-18T10:29:43.516Z</time></trkpt><trkpt lat="43.3928317" lon="10.89424"><ele>333.0</ele><time>2026-04-18T10:29:44.516Z</time></trkpt><trkpt lat="43.3929483" lon="10.8941033"><ele>333.0</ele><time>2026-04-18T10:29:45.516Z</time></trkpt><trkpt lat="43.39307" lon="10.893985"><ele>333.0</ele><time>2026-04-18T10:29:46.517Z</time></trkpt><trkpt lat="43.3931883" lon="10.8938817"><ele>333.0</ele><time>2026-04-18T10:29:47.516Z</time></trkpt><trkpt lat="43.3933083" lon="10.893785"><ele>334.75</ele><time>2026-04-18T10:29:48.516Z</time></trkpt><trkpt lat="43.3934367" lon="10.893685"><ele>336.5</ele><time>2026-04-18T10:29:49.516Z</time></trkpt><trkpt lat="43.39356" lon="10.8935667"><ele>338.25</ele><time>2026-04-18T10:29:50.517Z</time></trkpt><trkpt lat="43.3936683" lon="10.8934267"><ele>340.0</ele><time>2026-04-18T10:29:51.516Z</time></trkpt><trkpt lat="43.3937617" lon="10.893265"><ele>340.0</ele><time>2026-04-18T10:29:52.516Z</time></trkpt><trkpt lat="43.3938383" lon="10.893095"><ele>340.0</ele><time>2026-04-18T10:29:53.516Z</time></trkpt><trkpt lat="43.3938983" lon="10.892925"><ele>340.0</ele><time>2026-04-18T10:29:54.516Z</time></trkpt><trkpt lat="43.3939367" lon="10.8927583"><ele>340.0</ele><time>2026-04-18T10:29:55.516Z</time></trkpt><trkpt lat="43.3939483" lon="10.892595"><ele>339.75</ele><time>2026-04-18T10:29:56.516Z</time></trkpt><trkpt lat="43.393925" lon="10.8924183"><ele>339.5</ele><time>2026-04-18T10:29:57.516Z</time></trkpt><trkpt lat="43.3938567" lon="10.892265"><ele>339.25</ele><time>2026-04-18T10:29:58.516Z</time></trkpt><trkpt lat="43.3937717" lon="10.8921267"><ele>339.0</ele><time>2026-04-18T10:29:59.516Z</time></trkpt><trkpt lat="43.393675" lon="10.892"><ele>339.0</ele><time>2026-04-18T10:30:00.516Z</time></trkpt><trkpt lat="43.3935617" lon="10.89188"><ele>339.0</ele><time>2026-04-18T10:30:01.516Z</time></trkpt><trkpt lat="43.39346" lon="10.891735"><ele>339.0</ele><time>2026-04-18T10:30:02.516Z</time></trkpt><trkpt lat="43.39337" lon="10.8915667"><ele>339.0</ele><time>2026-04-18T10:30:03.517Z</time></trkpt><trkpt lat="43.393285" lon="10.8913933"><ele>342.5</ele><time>2026-04-18T10:30:04.516Z</time></trkpt><trkpt lat="43.3932033" lon="10.8912233"><ele>346.0</ele><time>2026-04-18T10:30:05.516Z</time></trkpt><trkpt lat="43.393135" lon="10.8910583"><ele>349.5</ele><time>2026-04-18T10:30:06.516Z</time></trkpt><trkpt lat="43.39308" lon="10.89091"><ele>353.0</ele><time>2026-04-18T10:30:07.517Z</time></trkpt><trkpt lat="43.3930667" lon="10.8907583"><ele>356.5</ele><time>2026-04-18T10:30:08.516Z</time></trkpt><trkpt lat="43.3930867" lon="10.8906083"><ele>360.0</ele><time>2026-04-18T10:30:09.517Z</time></trkpt><trkpt lat="43.39314" lon="10.8904483"><ele>363.5</ele><time>2026-04-18T10:30:10.516Z</time></trkpt><trkpt lat="43.393215" lon="10.8902817"><ele>367.0</ele><time>2026-04-18T10:30:11.516Z</time></trkpt><trkpt lat="43.39329" lon="10.8901067"><ele>366.3333333333333</ele><time>2026-04-18T10:30:12.516Z</time></trkpt><trkpt lat="43.3933717" lon="10.8899067"><ele>365.6666666666667</ele><time>2026-04-18T10:30:13.516Z</time></trkpt><trkpt lat="43.393455" lon="10.88971"><ele>365.0</ele><time>2026-04-18T10:30:14.516Z</time></trkpt><trkpt lat="43.39354" lon="10.8895233"><ele>365.0</ele><time>2026-04-18T10:30:15.516Z</time></trkpt><trkpt lat="43.3936317" lon="10.88936"><ele>365.0</ele><time>2026-04-18T10:30:16.516Z</time></trkpt><trkpt lat="43.3937433" lon="10.8892317"><ele>365.0</ele><time>2026-04-18T10:30:17.516Z</time></trkpt><trkpt lat="43.39388" lon="10.8891183"><ele>368.6666666666667</ele><time>2026-04-18T10:30:18.516Z</time></trkpt><trkpt lat="43.3940267" lon="10.8890217"><ele>372.3333333333333</ele><time>2026-04-18T10:30:19.516Z</time></trkpt><trkpt lat="43.3941733" lon="10.8889217"><ele>376.0</ele><time>2026-04-18T10:30:20.516Z</time></trkpt><trkpt lat="43.3943083" lon="10.8887983"><ele>376.0</ele><time>2026-04-18T10:30:21.516Z</time></trkpt><trkpt lat="43.39442" lon="10.8886583"><ele>376.0</ele><time>2026-04-18T10:30:22.516Z</time></trkpt><trkpt lat="43.3944933" lon="10.8885083"><ele>376.0</ele><time>2026-04-18T10:30:23.516Z</time></trkpt><trkpt lat="43.39454" lon="10.8883517"><ele>376.0</ele><time>2026-04-18T10:30:24.516Z</time></trkpt><trkpt lat="43.394585" lon="10.888215"><ele>376.8333333333333</ele><time>2026-04-18T10:30:25.516Z</time></trkpt><trkpt lat="43.3946517" lon="10.888135"><ele>377.66666666666663</ele><time>2026-04-18T10:30:26.516Z</time></trkpt><trkpt lat="43.39472" lon="10.8880933"><ele>378.5</ele><time>2026-04-18T10:30:27.516Z</time></trkpt><trkpt lat="43.39479" lon="10.8881033"><ele>379.3333333333333</ele><time>2026-04-18T10:30:28.516Z</time></trkpt><trkpt lat="43.3948417" lon="10.8881533"><ele>380.1666666666667</ele><time>2026-04-18T10:30:29.516Z</time></trkpt><trkpt lat="43.39488" lon="10.8882483"><ele>381.0</ele><time>2026-04-18T10:30:30.516Z</time></trkpt><trkpt lat="43.3949" lon="10.8884017"><ele>381.75</ele><time>2026-04-18T10:30:31.516Z</time></trkpt><trkpt lat="43.3948783" lon="10.8886067"><ele>382.5</ele><time>2026-04-18T10:30:32.516Z</time></trkpt><trkpt lat="43.394845" lon="10.8888117"><ele>383.25</ele><time>2026-04-18T10:30:33.517Z</time></trkpt><trkpt lat="43.3948333" lon="10.888995"><ele>384.0</ele><time>2026-04-18T10:30:34.516Z</time></trkpt><trkpt lat="43.3948567" lon="10.8891733"><ele>384.0</ele><time>2026-04-18T10:30:35.516Z</time></trkpt><trkpt lat="43.394895" lon="10.889285"><ele>384.0</ele><time>2026-04-18T10:30:36.516Z</time></trkpt><trkpt lat="43.3949567" lon="10.889355"><ele>384.0</ele><time>2026-04-18T10:30:37.516Z</time></trkpt><trkpt lat="43.3950317" lon="10.889385"><ele>384.0</ele><time>2026-04-18T10:30:38.516Z</time></trkpt><trkpt lat="43.3951083" lon="10.88937"><ele>384.0</ele><time>2026-04-18T10:30:39.516Z</time></trkpt><trkpt lat="43.3951767" lon="10.8893083"><ele>384.0</ele><time>2026-04-18T10:30:40.516Z</time></trkpt><trkpt lat="43.3952533" lon="10.8891817"><ele>384.0</ele><time>2026-04-18T10:30:41.516Z</time></trkpt><trkpt lat="43.39533" lon="10.888995"><ele>384.0</ele><time>2026-04-18T10:30:42.516Z</time></trkpt><trkpt lat="43.3954217" lon="10.8887417"><ele>384.0</ele><time>2026-04-18T10:30:43.516Z</time></trkpt><trkpt lat="43.3955017" lon="10.8885117"><ele>386.33333333333337</ele><time>2026-04-18T10:30:44.516Z</time></trkpt><trkpt lat="43.39558" lon="10.888315"><ele>388.6666666666667</ele><time>2026-04-18T10:30:45.516Z</time></trkpt><trkpt lat="43.3956633" lon="10.88814"><ele>391.0</ele><time>2026-04-18T10:30:46.516Z</time></trkpt><trkpt lat="43.39577" lon="10.888015"><ele>391.0</ele><time>2026-04-18T10:30:47.516Z</time></trkpt><trkpt lat="43.3958767" lon="10.8879233"><ele>391.0</ele><time>2026-04-18T10:30:48.516Z</time></trkpt><trkpt lat="43.395975" lon="10.8878267"><ele>391.0</ele><time>2026-04-18T10:30:49.516Z</time></trkpt><trkpt lat="43.3960467" lon="10.8876883"><ele>391.0</ele><time>2026-04-18T10:30:50.516Z</time></trkpt><trkpt lat="43.3960733" lon="10.887515"><ele>392.5</ele><time>2026-04-18T10:30:51.516Z</time></trkpt><trkpt lat="43.39606" lon="10.8873417"><ele>394.0</ele><time>2026-04-18T10:30:52.516Z</time></trkpt><trkpt lat="43.3960183" lon="10.8871583"><ele>395.5</ele><time>2026-04-18T10:30:53.516Z</time></trkpt><trkpt lat="43.395975" lon="10.8869817"><ele>397.0</ele><time>2026-04-18T10:30:54.516Z</time></trkpt><trkpt lat="43.395945" lon="10.8868067"><ele>397.75</ele><time>2026-04-18T10:30:55.517Z</time></trkpt><trkpt lat="43.3959417" lon="10.8866383"><ele>398.5</ele><time>2026-04-18T10:30:56.516Z</time></trkpt><trkpt lat="43.39596" lon="10.8864567"><ele>399.25</ele><time>2026-04-18T10:30:57.517Z</time></trkpt><trkpt lat="43.39601" lon="10.88628"><ele>400.0</ele><time>2026-04-18T10:30:58.516Z</time></trkpt><trkpt lat="43.3960783" lon="10.88611"><ele>400.0</ele><time>2026-04-18T10:30:59.516Z</time></trkpt><trkpt lat="43.39617" lon="10.8859483"><ele>400.0</ele><time>2026-04-18T10:31:00.516Z</time></trkpt><trkpt lat="43.39626" lon="10.8858083"><ele>400.0</ele><time>2026-04-18T10:31:01.516Z</time></trkpt><trkpt lat="43.39635" lon="10.88567"><ele>400.0</ele><time>2026-04-18T10:31:02.516Z</time></trkpt><trkpt lat="43.3964417" lon="10.8855267"><ele>401.5</ele><time>2026-04-18T10:31:03.516Z</time></trkpt><trkpt lat="43.396535" lon="10.8853817"><ele>403.0</ele><time>2026-04-18T10:31:04.516Z</time></trkpt><trkpt lat="43.3966217" lon="10.8852283"><ele>404.5</ele><time>2026-04-18T10:31:05.516Z</time></trkpt><trkpt lat="43.39671" lon="10.8850733"><ele>406.0</ele><time>2026-04-18T10:31:06.517Z</time></trkpt><trkpt lat="43.396805" lon="10.8849233"><ele>406.0</ele><time>2026-04-18T10:31:07.516Z</time></trkpt><trkpt lat="43.396895" lon="10.88478"><ele>406.0</ele><time>2026-04-18T10:31:08.516Z</time></trkpt><trkpt lat="43.3969817" lon="10.8846367"><ele>406.0</ele><time>2026-04-18T10:31:09.516Z</time></trkpt><trkpt lat="43.397065" lon="10.8844967"><ele>406.0</ele><time>2026-04-18T10:31:10.516Z</time></trkpt><trkpt lat="43.3971383" lon="10.884365"><ele>406.75</ele><time>2026-04-18T10:31:11.516Z</time></trkpt><trkpt lat="43.3972033" lon="10.8842267"><ele>407.5</ele><time>2026-04-18T10:31:12.516Z</time></trkpt><trkpt lat="43.3972433" lon="10.8840817"><ele>408.25</ele><time>2026-04-18T10:31:13.516Z</time></trkpt><trkpt lat="43.39726" lon="10.88391"><ele>409.0</ele><time>2026-04-18T10:31:14.516Z</time></trkpt><trkpt lat="43.397255" lon="10.883715"><ele>409.0</ele><time>2026-04-18T10:31:15.516Z</time></trkpt><trkpt lat="43.3972233" lon="10.8835017"><ele>409.0</ele><time>2026-04-18T10:31:16.516Z</time></trkpt><trkpt lat="43.3971833" lon="10.88327"><ele>409.0</ele><time>2026-04-18T10:31:17.516Z</time></trkpt><trkpt lat="43.397145" lon="10.8830283"><ele>406.6666666666667</ele><time>2026-04-18T10:31:18.516Z</time></trkpt><trkpt lat="43.3971233" lon="10.8827783"><ele>404.33333333333337</ele><time>2026-04-18T10:31:19.516Z</time></trkpt><trkpt lat="43.3971217" lon="10.8825283"><ele>402.0</ele><time>2026-04-18T10:31:20.516Z</time></trkpt><trkpt lat="43.39712" lon="10.88227"><ele>402.0</ele><time>2026-04-18T10:31:21.516Z</time></trkpt><trkpt lat="43.39709" lon="10.882005"><ele>402.0</ele><time>2026-04-18T10:31:22.516Z</time></trkpt><trkpt lat="43.3970317" lon="10.8817117"><ele>402.0</ele><time>2026-04-18T10:31:23.516Z</time></trkpt><trkpt lat="43.3969767" lon="10.8814233"><ele>406.0</ele><time>2026-04-18T10:31:24.517Z</time></trkpt><trkpt lat="43.39693" lon="10.881155"><ele>410.0</ele><time>2026-04-18T10:31:25.516Z</time></trkpt><trkpt lat="43.396875" lon="10.8809183"><ele>414.0</ele><time>2026-04-18T10:31:26.516Z</time></trkpt><trkpt lat="43.396835" lon="10.8806917"><ele>417.33333333333337</ele><time>2026-04-18T10:31:27.517Z</time></trkpt><trkpt lat="43.3968083" lon="10.8804767"><ele>420.6666666666667</ele><time>2026-04-18T10:31:28.516Z</time></trkpt><trkpt lat="43.3967867" lon="10.8802633"><ele>424.0</ele><time>2026-04-18T10:31:29.516Z</time></trkpt><trkpt lat="43.3967667" lon="10.8800567"><ele>426.25</ele><time>2026-04-18T10:31:30.516Z</time></trkpt><trkpt lat="43.3967367" lon="10.879865"><ele>428.5</ele><time>2026-04-18T10:31:31.516Z</time></trkpt><trkpt lat="43.39671" lon="10.8796917"><ele>430.75</ele><time>2026-04-18T10:31:32.516Z</time></trkpt><trkpt lat="43.3966933" lon="10.8795317"><ele>433.0</ele><time>2026-04-18T10:31:33.516Z</time></trkpt><trkpt lat="43.396675" lon="10.8793467"><ele>434.75</ele><time>2026-04-18T10:31:34.516Z</time></trkpt><trkpt lat="43.3966717" lon="10.8791683"><ele>436.5</ele><time>2026-04-18T10:31:35.516Z</time></trkpt><trkpt lat="43.396675" lon="10.8789917"><ele>438.25</ele><time>2026-04-18T10:31:36.516Z</time></trkpt><trkpt lat="43.396685" lon="10.878835"><ele>440.0</ele><time>2026-04-18T10:31:37.516Z</time></trkpt><trkpt lat="43.3967083" lon="10.8786883"><ele>440.0</ele><time>2026-04-18T10:31:38.516Z</time></trkpt><trkpt lat="43.3967533" lon="10.8785517"><ele>440.0</ele><time>2026-04-18T10:31:39.516Z</time></trkpt><trkpt lat="43.396805" lon="10.87843"><ele>440.0</ele><time>2026-04-18T10:31:40.516Z</time></trkpt><trkpt lat="43.3968567" lon="10.8783033"><ele>440.0</ele><time>2026-04-18T10:31:41.516Z</time></trkpt><trkpt lat="43.3969" lon="10.8781633"><ele>440.0</ele><time>2026-04-18T10:31:42.516Z</time></trkpt><trkpt lat="43.3969283" lon="10.8779983"><ele>439.66666666666663</ele><time>2026-04-18T10:31:43.516Z</time></trkpt><trkpt lat="43.3969617" lon="10.877805"><ele>439.33333333333337</ele><time>2026-04-18T10:31:44.516Z</time></trkpt><trkpt lat="43.397" lon="10.8775717"><ele>439.0</ele><time>2026-04-18T10:31:45.516Z</time></trkpt><trkpt lat="43.39704" lon="10.87732"><ele>439.0</ele><time>2026-04-18T10:31:46.516Z</time></trkpt><trkpt lat="43.3970733" lon="10.8770733"><ele>439.0</ele><time>2026-04-18T10:31:47.516Z</time></trkpt><trkpt lat="43.3970933" lon="10.87684"><ele>439.0</ele><time>2026-04-18T10:31:48.516Z</time></trkpt><trkpt lat="43.397115" lon="10.8766283"><ele>440.6666666666667</ele><time>2026-04-18T10:31:49.517Z</time></trkpt><trkpt lat="43.3971533" lon="10.876415"><ele>442.33333333333337</ele><time>2026-04-18T10:31:50.516Z</time></trkpt><trkpt lat="43.39721" lon="10.87621"><ele>444.0</ele><time>2026-04-18T10:31:51.516Z</time></trkpt><trkpt lat="43.3972717" lon="10.875995"><ele>451.66666666666663</ele><time>2026-04-18T10:31:52.516Z</time></trkpt><trkpt lat="43.39736" lon="10.8757667"><ele>459.3333333333333</ele><time>2026-04-18T10:31:53.516Z</time></trkpt><trkpt lat="43.39744" lon="10.8755417"><ele>467.0</ele><time>2026-04-18T10:31:54.516Z</time></trkpt><trkpt lat="43.3975167" lon="10.8753333"><ele>467.0</ele><time>2026-04-18T10:31:55.516Z</time></trkpt><trkpt lat="43.3975833" lon="10.8751383"><ele>467.0</ele><time>2026-04-18T10:31:56.516Z</time></trkpt><trkpt lat="43.3976433" lon="10.8749733"><ele>467.0</ele><time>2026-04-18T10:31:57.516Z</time></trkpt><trkpt lat="43.39769" lon="10.8748133"><ele>467.0</ele><time>2026-04-18T10:31:58.516Z</time></trkpt><trkpt lat="43.3977367" lon="10.87467"><ele>466.25</ele><time>2026-04-18T10:31:59.516Z</time></trkpt><trkpt lat="43.3978033" lon="10.8745233"><ele>465.5</ele><time>2026-04-18T10:32:00.516Z</time></trkpt><trkpt lat="43.39787" lon="10.8744017"><ele>464.75</ele><time>2026-04-18T10:32:01.516Z</time></trkpt><trkpt lat="43.3979517" lon="10.874285"><ele>464.0</ele><time>2026-04-18T10:32:02.516Z</time></trkpt><trkpt lat="43.3980383" lon="10.8741683"><ele>468.25</ele><time>2026-04-18T10:32:03.516Z</time></trkpt><trkpt lat="43.3981233" lon="10.8740517"><ele>472.5</ele><time>2026-04-18T10:32:04.516Z</time></trkpt><trkpt lat="43.3982033" lon="10.8739483"><ele>476.75</ele><time>2026-04-18T10:32:05.516Z</time></trkpt><trkpt lat="43.3982833" lon="10.87384"><ele>481.0</ele><time>2026-04-18T10:32:06.516Z</time></trkpt><trkpt lat="43.398355" lon="10.8737283"><ele>481.0</ele><time>2026-04-18T10:32:07.516Z</time></trkpt><trkpt lat="43.3984183" lon="10.8736217"><ele>481.0</ele><time>2026-04-18T10:32:08.516Z</time></trkpt><trkpt lat="43.3984733" lon="10.8735"><ele>481.0</ele><time>2026-04-18T10:32:09.516Z</time></trkpt><trkpt lat="43.3985283" lon="10.8733683"><ele>481.0</ele><time>2026-04-18T10:32:10.517Z</time></trkpt><trkpt lat="43.398595" lon="10.87325"><ele>481.0</ele><time>2026-04-18T10:32:11.516Z</time></trkpt><trkpt lat="43.3986633" lon="10.8731183"><ele>480.4</ele><time>2026-04-18T10:32:12.517Z</time></trkpt><trkpt lat="43.3987183" lon="10.87299"><ele>479.8</ele><time>2026-04-18T10:32:13.516Z</time></trkpt><trkpt lat="43.3987733" lon="10.872875"><ele>479.19999999999993</ele><time>2026-04-18T10:32:14.516Z</time></trkpt><trkpt lat="43.3988317" lon="10.8727583"><ele>478.59999999999997</ele><time>2026-04-18T10:32:15.516Z</time></trkpt><trkpt lat="43.398895" lon="10.8726467"><ele>478.0</ele><time>2026-04-18T10:32:16.516Z</time></trkpt><trkpt lat="43.3989633" lon="10.8725333"><ele>480.4</ele><time>2026-04-18T10:32:17.516Z</time></trkpt><trkpt lat="43.3990233" lon="10.8724033"><ele>482.79999999999995</ele><time>2026-04-18T10:32:18.516Z</time></trkpt><trkpt lat="43.3990867" lon="10.8723117"><ele>485.2</ele><time>2026-04-18T10:32:19.517Z</time></trkpt><trkpt lat="43.3991483" lon="10.8722267"><ele>487.6</ele><time>2026-04-18T10:32:20.516Z</time></trkpt><trkpt lat="43.3992133" lon="10.8721417"><ele>490.0</ele><time>2026-04-18T10:32:21.516Z</time></trkpt><trkpt lat="43.3992833" lon="10.8720633"><ele>490.00000000000006</ele><time>2026-04-18T10:32:22.516Z</time></trkpt><trkpt lat="43.3993483" lon="10.8719967"><ele>490.0</ele><time>2026-04-18T10:32:23.516Z</time></trkpt><trkpt lat="43.3994067" lon="10.8719167"><ele>490.0</ele><time>2026-04-18T10:32:24.516Z</time></trkpt><trkpt lat="43.3994517" lon="10.87182"><ele>490.0</ele><time>2026-04-18T10:32:25.516Z</time></trkpt><trkpt lat="43.3994833" lon="10.871715"><ele>490.00000000000006</ele><time>2026-04-18T10:32:26.516Z</time></trkpt><trkpt lat="43.3995317" lon="10.8716183"><ele>490.0</ele><time>2026-04-18T10:32:27.516Z</time></trkpt><trkpt lat="43.3995767" lon="10.8715067"><ele>490.33333333333337</ele><time>2026-04-18T10:32:28.516Z</time></trkpt><trkpt lat="43.3996183" lon="10.8713933"><ele>490.6666666666667</ele><time>2026-04-18T10:32:29.517Z</time></trkpt><trkpt lat="43.39965" lon="10.8712817"><ele>491.0</ele><time>2026-04-18T10:32:30.516Z</time></trkpt><trkpt lat="43.3996717" lon="10.8711717"><ele>491.33333333333337</ele><time>2026-04-18T10:32:31.516Z</time></trkpt><trkpt lat="43.3996883" lon="10.8710733"><ele>491.6666666666667</ele><time>2026-04-18T10:32:32.516Z</time></trkpt><trkpt lat="43.3996967" lon="10.8709683"><ele>492.0</ele><time>2026-04-18T10:32:33.516Z</time></trkpt><trkpt lat="43.3997167" lon="10.87085"><ele>493.0</ele><time>2026-04-18T10:32:34.516Z</time></trkpt><trkpt lat="43.3997217" lon="10.8707267"><ele>494.00000000000006</ele><time>2026-04-18T10:32:35.516Z</time></trkpt><trkpt lat="43.39972" lon="10.8706017"><ele>495.00000000000006</ele><time>2026-04-18T10:32:36.516Z</time></trkpt><trkpt lat="43.399715" lon="10.8704833"><ele>496.0</ele><time>2026-04-18T10:32:37.516Z</time></trkpt><trkpt lat="43.3997117" lon="10.8703633"><ele>497.0</ele><time>2026-04-18T10:32:38.516Z</time></trkpt><trkpt lat="43.3996917" lon="10.8702317"><ele>497.6</ele><time>2026-04-18T10:32:39.516Z</time></trkpt><trkpt lat="43.3996867" lon="10.8701017"><ele>498.20000000000005</ele><time>2026-04-18T10:32:40.516Z</time></trkpt><trkpt lat="43.3996783" lon="10.8699567"><ele>498.8</ele><time>2026-04-18T10:32:41.516Z</time></trkpt><trkpt lat="43.3996833" lon="10.8698067"><ele>499.4</ele><time>2026-04-18T10:32:42.516Z</time></trkpt><trkpt lat="43.3996683" lon="10.869675"><ele>500.0</ele><time>2026-04-18T10:32:43.517Z</time></trkpt><trkpt lat="43.3996567" lon="10.869565"><ele>500.0</ele><time>2026-04-18T10:32:44.515Z</time></trkpt><trkpt lat="43.3996433" lon="10.8694467"><ele>500.0</ele><time>2026-04-18T10:32:45.516Z</time></trkpt><trkpt lat="43.3996233" lon="10.8693317"><ele>500.0</ele><time>2026-04-18T10:32:46.515Z</time></trkpt><trkpt lat="43.39961" lon="10.8692317"><ele>500.0</ele><time>2026-04-18T10:32:47.515Z</time></trkpt><trkpt lat="43.3995817" lon="10.869065"><ele>500.0</ele><time>2026-04-18T10:32:49.515Z</time></trkpt><trkpt lat="43.3996" lon="10.8689267"><ele>500.16666666666663</ele><time>2026-04-18T10:32:51.515Z</time></trkpt><trkpt lat="43.3995833" lon="10.8688333"><ele>500.3333333333333</ele><time>2026-04-18T10:32:53.515Z</time></trkpt><trkpt lat="43.3994883" lon="10.8688617"><ele>500.5</ele><time>2026-04-18T10:38:40.514Z</time></trkpt><trkpt lat="43.39952" lon="10.8687733"><ele>500.66666666666663</ele><time>2026-04-18T10:40:09.513Z</time></trkpt><trkpt lat="43.3995233" lon="10.8686483"><ele>500.8333333333333</ele><time>2026-04-18T10:40:11.513Z</time></trkpt><trkpt lat="43.3995083" lon="10.868555"><ele>501.0</ele><time>2026-04-18T10:40:13.513Z</time></trkpt><trkpt lat="43.3994533" lon="10.8684467"><ele>501.0</ele><time>2026-04-18T10:40:15.513Z</time></trkpt><trkpt lat="43.3993983" lon="10.8683033"><ele>501.0</ele><time>2026-04-18T10:40:17.513Z</time></trkpt><trkpt lat="43.3993783" lon="10.8682167"><ele>501.0</ele><time>2026-04-18T10:40:18.513Z</time></trkpt><trkpt lat="43.399355" lon="10.868115"><ele>501.0</ele><time>2026-04-18T10:40:19.513Z</time></trkpt><trkpt lat="43.3993317" lon="10.868005"><ele>501.0</ele><time>2026-04-18T10:40:20.513Z</time></trkpt><trkpt lat="43.399305" lon="10.8678917"><ele>501.0</ele><time>2026-04-18T10:40:21.513Z</time></trkpt><trkpt lat="43.3992783" lon="10.8677667"><ele>501.0</ele><time>2026-04-18T10:40:22.513Z</time></trkpt><trkpt lat="43.3992567" lon="10.8676383"><ele>501.0</ele><time>2026-04-18T10:40:23.513Z</time></trkpt><trkpt lat="43.3992383" lon="10.8675067"><ele>501.0</ele><time>2026-04-18T10:40:24.513Z</time></trkpt><trkpt lat="43.3992267" lon="10.86736"><ele>501.0</ele><time>2026-04-18T10:40:25.513Z</time></trkpt><trkpt lat="43.3992183" lon="10.8672083"><ele>501.0</ele><time>2026-04-18T10:40:26.513Z</time></trkpt><trkpt lat="43.39923" lon="10.8670517"><ele>502.5</ele><time>2026-04-18T10:40:27.514Z</time></trkpt><trkpt lat="43.399235" lon="10.8668867"><ele>504.0</ele><time>2026-04-18T10:40:28.513Z</time></trkpt><trkpt lat="43.3992383" lon="10.8667217"><ele>505.5</ele><time>2026-04-18T10:40:29.514Z</time></trkpt><trkpt lat="43.399235" lon="10.8665517"><ele>507.0</ele><time>2026-04-18T10:40:30.513Z</time></trkpt><trkpt lat="43.399235" lon="10.866395"><ele>508.40000000000003</ele><time>2026-04-18T10:40:31.513Z</time></trkpt><trkpt lat="43.3992417" lon="10.8662483"><ele>509.80000000000007</ele><time>2026-04-18T10:40:32.513Z</time></trkpt><trkpt lat="43.399245" lon="10.8661133"><ele>511.2</ele><time>2026-04-18T10:40:33.513Z</time></trkpt><trkpt lat="43.3992483" lon="10.8659833"><ele>512.6</ele><time>2026-04-18T10:40:34.514Z</time></trkpt><trkpt lat="43.3992417" lon="10.8658667"><ele>514.0</ele><time>2026-04-18T10:40:35.513Z</time></trkpt><trkpt lat="43.399225" lon="10.8657733"><ele>514.6</ele><time>2026-04-18T10:40:36.513Z</time></trkpt><trkpt lat="43.3991817" lon="10.8656183"><ele>515.2</ele><time>2026-04-18T10:40:38.514Z</time></trkpt><trkpt lat="43.3991533" lon="10.8655117"><ele>515.8000000000001</ele><time>2026-04-18T10:40:39.513Z</time></trkpt><trkpt lat="43.39913" lon="10.8653833"><ele>516.4</ele><time>2026-04-18T10:40:40.513Z</time></trkpt><trkpt lat="43.3991283" lon="10.8652317"><ele>517.0</ele><time>2026-04-18T10:40:41.514Z</time></trkpt><trkpt lat="43.3991383" lon="10.8650783"><ele>517.0</ele><time>2026-04-18T10:40:42.513Z</time></trkpt><trkpt lat="43.399155" lon="10.8649033"><ele>517.0</ele><time>2026-04-18T10:40:43.513Z</time></trkpt><trkpt lat="43.3991833" lon="10.8647117"><ele>517.0</ele><time>2026-04-18T10:40:44.514Z</time></trkpt><trkpt lat="43.399195" lon="10.8645233"><ele>517.0</ele><time>2026-04-18T10:40:45.514Z</time></trkpt><trkpt lat="43.3992083" lon="10.8643233"><ele>516.5</ele><time>2026-04-18T10:40:46.513Z</time></trkpt><trkpt lat="43.3992283" lon="10.8641017"><ele>516.0</ele><time>2026-04-18T10:40:47.513Z</time></trkpt><trkpt lat="43.39924" lon="10.8639083"><ele>515.5</ele><time>2026-04-18T10:40:48.513Z</time></trkpt><trkpt lat="43.3992467" lon="10.8637117"><ele>515.0</ele><time>2026-04-18T10:40:49.513Z</time></trkpt><trkpt lat="43.3992633" lon="10.8635167"><ele>513.75</ele><time>2026-04-18T10:40:50.513Z</time></trkpt><trkpt lat="43.3992783" lon="10.8633333"><ele>512.5</ele><time>2026-04-18T10:40:51.514Z</time></trkpt><trkpt lat="43.3992917" lon="10.8631383"><ele>511.25</ele><time>2026-04-18T10:40:52.514Z</time></trkpt><trkpt lat="43.3993133" lon="10.8629417"><ele>510.0</ele><time>2026-04-18T10:40:53.513Z</time></trkpt><trkpt lat="43.3993267" lon="10.8627433"><ele>508.25</ele><time>2026-04-18T10:40:54.513Z</time></trkpt><trkpt lat="43.3993367" lon="10.8625533"><ele>506.5</ele><time>2026-04-18T10:40:55.513Z</time></trkpt><trkpt lat="43.3993533" lon="10.8623633"><ele>504.75</ele><time>2026-04-18T10:40:56.513Z</time></trkpt><trkpt lat="43.3993633" lon="10.8621733"><ele>503.0</ele><time>2026-04-18T10:40:57.513Z</time></trkpt><trkpt lat="43.3993883" lon="10.8619833"><ele>503.0</ele><time>2026-04-18T10:40:58.513Z</time></trkpt><trkpt lat="43.399405" lon="10.86179"><ele>503.0</ele><time>2026-04-18T10:40:59.513Z</time></trkpt><trkpt lat="43.3994233" lon="10.8615867"><ele>503.0</ele><time>2026-04-18T10:41:00.513Z</time></trkpt><trkpt lat="43.3994517" lon="10.8611767"><ele>501.0</ele><time>2026-04-18T10:41:02.513Z</time></trkpt><trkpt lat="43.3994683" lon="10.8609767"><ele>499.0</ele><time>2026-04-18T10:41:03.513Z</time></trkpt><trkpt lat="43.39948" lon="10.860785"><ele>497.0</ele><time>2026-04-18T10:41:04.513Z</time></trkpt><trkpt lat="43.399495" lon="10.8605967"><ele>495.0</ele><time>2026-04-18T10:41:05.513Z</time></trkpt><trkpt lat="43.39951" lon="10.8604217"><ele>493.75</ele><time>2026-04-18T10:41:06.513Z</time></trkpt><trkpt lat="43.39952" lon="10.8602467"><ele>492.5</ele><time>2026-04-18T10:41:07.514Z</time></trkpt><trkpt lat="43.3995283" lon="10.8600583"><ele>491.25</ele><time>2026-04-18T10:41:08.513Z</time></trkpt><trkpt lat="43.3995317" lon="10.8598883"><ele>490.0</ele><time>2026-04-18T10:41:09.513Z</time></trkpt><trkpt lat="43.399545" lon="10.8597267"><ele>489.2</ele><time>2026-04-18T10:41:10.513Z</time></trkpt><trkpt lat="43.399555" lon="10.8595733"><ele>488.4</ele><time>2026-04-18T10:41:11.513Z</time></trkpt><trkpt lat="43.3995867" lon="10.8594583"><ele>487.6</ele><time>2026-04-18T10:41:12.513Z</time></trkpt><trkpt lat="43.3996467" lon="10.85935"><ele>486.8</ele><time>2026-04-18T10:41:13.513Z</time></trkpt><trkpt lat="43.3997117" lon="10.8592567"><ele>486.0</ele><time>2026-04-18T10:41:14.513Z</time></trkpt><trkpt lat="43.399775" lon="10.85917"><ele>488.6</ele><time>2026-04-18T10:41:15.513Z</time></trkpt><trkpt lat="43.3998433" lon="10.85909"><ele>491.20000000000005</ele><time>2026-04-18T10:41:16.513Z</time></trkpt><trkpt lat="43.3999183" lon="10.8590067"><ele>493.79999999999995</ele><time>2026-04-18T10:41:17.513Z</time></trkpt><trkpt lat="43.3999833" lon="10.8589117"><ele>496.4</ele><time>2026-04-18T10:41:18.513Z</time></trkpt><trkpt lat="43.4000517" lon="10.8588133"><ele>499.0</ele><time>2026-04-18T10:41:19.513Z</time></trkpt><trkpt lat="43.400135" lon="10.8587133"><ele>499.0</ele><time>2026-04-18T10:41:20.514Z</time></trkpt><trkpt lat="43.40021" lon="10.8585983"><ele>499.0</ele><time>2026-04-18T10:41:21.513Z</time></trkpt><trkpt lat="43.4002917" lon="10.858475"><ele>499.0</ele><time>2026-04-18T10:41:22.513Z</time></trkpt><trkpt lat="43.4003633" lon="10.8583617"><ele>499.0</ele><time>2026-04-18T10:41:23.513Z</time></trkpt><trkpt lat="43.4004183" lon="10.8582733"><ele>499.0</ele><time>2026-04-18T10:41:24.513Z</time></trkpt><trkpt lat="43.4004633" lon="10.8581917"><ele>501.00000000000006</ele><time>2026-04-18T10:41:25.513Z</time></trkpt><trkpt lat="43.4005233" lon="10.8580667"><ele>503.0</ele><time>2026-04-18T10:41:27.513Z</time></trkpt><trkpt lat="43.4004867" lon="10.8579867"><ele>505.0</ele><time>2026-04-18T10:41:29.513Z</time></trkpt><trkpt lat="43.4004017" lon="10.8579683"><ele>507.0</ele><time>2026-04-18T10:41:31.513Z</time></trkpt><trkpt lat="43.40033" lon="10.8579883"><ele>509.00000000000006</ele><time>2026-04-18T10:41:32.513Z</time></trkpt><trkpt lat="43.4002317" lon="10.8580333"><ele>511.0</ele><time>2026-04-18T10:41:33.513Z</time></trkpt><trkpt lat="43.4001267" lon="10.8580833"><ele>504.75</ele><time>2026-04-18T10:41:34.513Z</time></trkpt><trkpt lat="43.4000017" lon="10.8581433"><ele>498.5</ele><time>2026-04-18T10:41:35.513Z</time></trkpt><trkpt lat="43.399885" lon="10.8581933"><ele>492.25</ele><time>2026-04-18T10:41:36.513Z</time></trkpt><trkpt lat="43.3997617" lon="10.8582433"><ele>486.0</ele><time>2026-04-18T10:41:37.513Z</time></trkpt><trkpt lat="43.3996317" lon="10.8582817"><ele>484.5</ele><time>2026-04-18T10:41:38.513Z</time></trkpt><trkpt lat="43.3995117" lon="10.8583267"><ele>483.0</ele><time>2026-04-18T10:41:39.514Z</time></trkpt><trkpt lat="43.3994017" lon="10.8583833"><ele>481.5</ele><time>2026-04-18T10:41:40.513Z</time></trkpt><trkpt lat="43.399295" lon="10.8584483"><ele>480.0</ele><time>2026-04-18T10:41:41.513Z</time></trkpt><trkpt lat="43.3991983" lon="10.8585333"><ele>480.0</ele><time>2026-04-18T10:41:42.513Z</time></trkpt><trkpt lat="43.3991133" lon="10.8586283"><ele>480.0</ele><time>2026-04-18T10:41:43.513Z</time></trkpt><trkpt lat="43.39904" lon="10.8587383"><ele>480.0</ele><time>2026-04-18T10:41:44.513Z</time></trkpt><trkpt lat="43.3989767" lon="10.8588633"><ele>480.0</ele><time>2026-04-18T10:41:45.513Z</time></trkpt><trkpt lat="43.3989183" lon="10.8589983"><ele>480.0</ele><time>2026-04-18T10:41:46.513Z</time></trkpt><trkpt lat="43.39887" lon="10.8591217"><ele>480.0</ele><time>2026-04-18T10:41:47.513Z</time></trkpt><trkpt lat="43.398835" lon="10.8592333"><ele>480.0</ele><time>2026-04-18T10:41:48.513Z</time></trkpt><trkpt lat="43.3988017" lon="10.8593083"><ele>480.0</ele><time>2026-04-18T10:41:49.511Z</time></trkpt><trkpt lat="43.3987467" lon="10.8593967"><ele>480.0</ele><time>2026-04-18T10:41:51.513Z</time></trkpt><trkpt lat="43.3986883" lon="10.8594383"><ele>480.0</ele><time>2026-04-18T10:41:53.513Z</time></trkpt><trkpt lat="43.3986383" lon="10.859535"><ele>480.0</ele><time>2026-04-18T10:41:55.513Z</time></trkpt><trkpt lat="43.3986" lon="10.85972"><ele>476.8</ele><time>2026-04-18T10:41:57.513Z</time></trkpt><trkpt lat="43.398585" lon="10.8598417"><ele>473.6</ele><time>2026-04-18T10:41:58.513Z</time></trkpt><trkpt lat="43.3985883" lon="10.8599667"><ele>470.4</ele><time>2026-04-18T10:41:59.514Z</time></trkpt><trkpt lat="43.3986133" lon="10.860115"><ele>467.2</ele><time>2026-04-18T10:42:00.513Z</time></trkpt><trkpt lat="43.3986417" lon="10.860285"><ele>464.0</ele><time>2026-04-18T10:42:01.513Z</time></trkpt><trkpt lat="43.3986667" lon="10.8604533"><ele>464.0</ele><time>2026-04-18T10:42:02.514Z</time></trkpt><trkpt lat="43.3986767" lon="10.8606233"><ele>464.0</ele><time>2026-04-18T10:42:03.513Z</time></trkpt><trkpt lat="43.39867" lon="10.8607833"><ele>464.0</ele><time>2026-04-18T10:42:04.513Z</time></trkpt><trkpt lat="43.3986533" lon="10.860925"><ele>464.0</ele><time>2026-04-18T10:42:05.513Z</time></trkpt><trkpt lat="43.3986333" lon="10.861045"><ele>464.0</ele><time>2026-04-18T10:42:06.514Z</time></trkpt><trkpt lat="43.3986017" lon="10.8611517"><ele>465.0</ele><time>2026-04-18T10:42:07.513Z</time></trkpt><trkpt lat="43.39856" lon="10.8612417"><ele>466.0</ele><time>2026-04-18T10:42:08.513Z</time></trkpt><trkpt lat="43.3984967" lon="10.8613217"><ele>467.0</ele><time>2026-04-18T10:42:09.513Z</time></trkpt><trkpt lat="43.3984233" lon="10.8614167"><ele>468.0</ele><time>2026-04-18T10:42:10.513Z</time></trkpt><trkpt lat="43.3983433" lon="10.8615283"><ele>469.0</ele><time>2026-04-18T10:42:11.513Z</time></trkpt><trkpt lat="43.3982617" lon="10.861655"><ele>470.5</ele><time>2026-04-18T10:42:12.513Z</time></trkpt><trkpt lat="43.398185" lon="10.861795"><ele>472.0</ele><time>2026-04-18T10:42:13.513Z</time></trkpt><trkpt lat="43.3981067" lon="10.8619267"><ele>473.5</ele><time>2026-04-18T10:42:14.513Z</time></trkpt><trkpt lat="43.3980283" lon="10.86206"><ele>475.0</ele><time>2026-04-18T10:42:15.513Z</time></trkpt><trkpt lat="43.39794" lon="10.8621767"><ele>471.75</ele><time>2026-04-18T10:42:16.513Z</time></trkpt><trkpt lat="43.3978383" lon="10.8622817"><ele>468.5</ele><time>2026-04-18T10:42:17.514Z</time></trkpt><trkpt lat="43.3977183" lon="10.8623583"><ele>465.25</ele><time>2026-04-18T10:42:18.513Z</time></trkpt><trkpt lat="43.3976183" lon="10.8624183"><ele>462.0</ele><time>2026-04-18T10:42:19.513Z</time></trkpt><trkpt lat="43.3975367" lon="10.8624567"><ele>462.0</ele><time>2026-04-18T10:42:20.513Z</time></trkpt><trkpt lat="43.397455" lon="10.8624917"><ele>462.00000000000006</ele><time>2026-04-18T10:42:21.513Z</time></trkpt><trkpt lat="43.3973717" lon="10.86252"><ele>462.00000000000006</ele><time>2026-04-18T10:42:22.513Z</time></trkpt><trkpt lat="43.3972767" lon="10.8625317"><ele>462.0</ele><time>2026-04-18T10:42:23.513Z</time></trkpt><trkpt lat="43.3971717" lon="10.862535"><ele>462.0</ele><time>2026-04-18T10:42:24.513Z</time></trkpt><trkpt lat="43.397065" lon="10.8625167"><ele>461.6</ele><time>2026-04-18T10:42:25.513Z</time></trkpt><trkpt lat="43.3969667" lon="10.8624867"><ele>461.20000000000005</ele><time>2026-04-18T10:42:26.513Z</time></trkpt><trkpt lat="43.3968667" lon="10.8624567"><ele>460.8</ele><time>2026-04-18T10:42:27.513Z</time></trkpt><trkpt lat="43.3967717" lon="10.8624467"><ele>460.4</ele><time>2026-04-18T10:42:28.513Z</time></trkpt><trkpt lat="43.396665" lon="10.862445"><ele>460.0</ele><time>2026-04-18T10:42:29.513Z</time></trkpt><trkpt lat="43.3965517" lon="10.8624583"><ele>460.0</ele><time>2026-04-18T10:42:30.514Z</time></trkpt><trkpt lat="43.3964367" lon="10.862485"><ele>460.0</ele><time>2026-04-18T10:42:31.513Z</time></trkpt><trkpt lat="43.3963117" lon="10.8625333"><ele>460.0</ele><time>2026-04-18T10:42:32.513Z</time></trkpt><trkpt lat="43.3961917" lon="10.8625833"><ele>460.0</ele><time>2026-04-18T10:42:33.513Z</time></trkpt><trkpt lat="43.3960833" lon="10.8626383"><ele>457.8</ele><time>2026-04-18T10:42:34.514Z</time></trkpt><trkpt lat="43.3959833" lon="10.8626883"><ele>455.6</ele><time>2026-04-18T10:42:35.513Z</time></trkpt><trkpt lat="43.3958883" lon="10.8627133"><ele>453.4</ele><time>2026-04-18T10:42:36.513Z</time></trkpt><trkpt lat="43.395795" lon="10.8627117"><ele>451.2</ele><time>2026-04-18T10:42:37.513Z</time></trkpt><trkpt lat="43.39571" lon="10.8626967"><ele>449.0</ele><time>2026-04-18T10:42:38.513Z</time></trkpt><trkpt lat="43.3956133" lon="10.8626733"><ele>447.6</ele><time>2026-04-18T10:42:39.513Z</time></trkpt><trkpt lat="43.3955017" lon="10.8626333"><ele>446.2</ele><time>2026-04-18T10:42:40.513Z</time></trkpt><trkpt lat="43.3953967" lon="10.86259"><ele>444.80000000000007</ele><time>2026-04-18T10:42:41.513Z</time></trkpt><trkpt lat="43.39529" lon="10.8625517"><ele>443.40000000000003</ele><time>2026-04-18T10:42:42.514Z</time></trkpt><trkpt lat="43.3951967" lon="10.8625067"><ele>442.0</ele><time>2026-04-18T10:42:43.513Z</time></trkpt><trkpt lat="43.395125" lon="10.86248"><ele>442.00000000000006</ele><time>2026-04-18T10:42:44.513Z</time></trkpt><trkpt lat="43.39506" lon="10.862475"><ele>442.0</ele><time>2026-04-18T10:42:45.514Z</time></trkpt><trkpt lat="43.394995" lon="10.8624867"><ele>442.0</ele><time>2026-04-18T10:42:46.512Z</time></trkpt><trkpt lat="43.3949233" lon="10.8625167"><ele>442.0</ele><time>2026-04-18T10:42:47.512Z</time></trkpt><trkpt lat="43.39483" lon="10.8625583"><ele>442.00000000000006</ele><time>2026-04-18T10:42:48.512Z</time></trkpt><trkpt lat="43.3947333" lon="10.862605"><ele>442.0</ele><time>2026-04-18T10:42:49.512Z</time></trkpt><trkpt lat="43.3946383" lon="10.8626767"><ele>439.40000000000003</ele><time>2026-04-18T10:42:50.512Z</time></trkpt><trkpt lat="43.3945383" lon="10.8627517"><ele>436.80000000000007</ele><time>2026-04-18T10:42:51.512Z</time></trkpt><trkpt lat="43.394445" lon="10.8628133"><ele>434.2</ele><time>2026-04-18T10:42:52.512Z</time></trkpt><trkpt lat="43.3943517" lon="10.862875"><ele>431.6</ele><time>2026-04-18T10:42:53.512Z</time></trkpt><trkpt lat="43.3942633" lon="10.862935"><ele>429.0</ele><time>2026-04-18T10:42:54.512Z</time></trkpt><trkpt lat="43.394175" lon="10.8629983"><ele>429.0</ele><time>2026-04-18T10:42:55.512Z</time></trkpt><trkpt lat="43.3940833" lon="10.863055"><ele>429.0</ele><time>2026-04-18T10:42:56.512Z</time></trkpt><trkpt lat="43.3940017" lon="10.86309"><ele>429.0</ele><time>2026-04-18T10:42:57.512Z</time></trkpt><trkpt lat="43.3939217" lon="10.8631117"><ele>429.0</ele><time>2026-04-18T10:42:58.512Z</time></trkpt><trkpt lat="43.3938467" lon="10.863115"><ele>429.0</ele><time>2026-04-18T10:42:59.512Z</time></trkpt><trkpt lat="43.39373" lon="10.863085"><ele>425.79999999999995</ele><time>2026-04-18T10:43:01.512Z</time></trkpt><trkpt lat="43.39365" lon="10.8629583"><ele>422.59999999999997</ele><time>2026-04-18T10:43:03.512Z</time></trkpt><trkpt lat="43.3936433" lon="10.8628433"><ele>419.4</ele><time>2026-04-18T10:43:04.512Z</time></trkpt><trkpt lat="43.39364" lon="10.8627"><ele>416.2</ele><time>2026-04-18T10:43:05.512Z</time></trkpt><trkpt lat="43.3936233" lon="10.8625367"><ele>413.0</ele><time>2026-04-18T10:43:06.512Z</time></trkpt><trkpt lat="43.3935983" lon="10.8623617"><ele>412.25</ele><time>2026-04-18T10:43:07.512Z</time></trkpt><trkpt lat="43.3935683" lon="10.862195"><ele>411.5</ele><time>2026-04-18T10:43:08.513Z</time></trkpt><trkpt lat="43.3935317" lon="10.8620483"><ele>410.75</ele><time>2026-04-18T10:43:09.512Z</time></trkpt><trkpt lat="43.39349" lon="10.86189"><ele>410.0</ele><time>2026-04-18T10:43:10.512Z</time></trkpt><trkpt lat="43.3934517" lon="10.86174"><ele>410.0</ele><time>2026-04-18T10:43:11.512Z</time></trkpt><trkpt lat="43.3933967" lon="10.8615917"><ele>410.0</ele><time>2026-04-18T10:43:12.512Z</time></trkpt><trkpt lat="43.3933433" lon="10.86145"><ele>410.0</ele><time>2026-04-18T10:43:13.512Z</time></trkpt><trkpt lat="43.3932967" lon="10.8613017"><ele>410.0</ele><time>2026-04-18T10:43:14.513Z</time></trkpt><trkpt lat="43.3932483" lon="10.8611433"><ele>410.0</ele><time>2026-04-18T10:43:15.512Z</time></trkpt><trkpt lat="43.39321" lon="10.861"><ele>410.0</ele><time>2026-04-18T10:43:16.512Z</time></trkpt><trkpt lat="43.3931767" lon="10.8608833"><ele>410.0</ele><time>2026-04-18T10:43:17.512Z</time></trkpt><trkpt lat="43.393145" lon="10.8608067"><ele>410.0</ele><time>2026-04-18T10:43:18.512Z</time></trkpt><trkpt lat="43.3930683" lon="10.86071"><ele>410.0</ele><time>2026-04-18T10:43:20.512Z</time></trkpt><trkpt lat="43.392975" lon="10.8607433"><ele>405.4</ele><time>2026-04-18T10:43:22.512Z</time></trkpt><trkpt lat="43.3929033" lon="10.860895"><ele>400.8</ele><time>2026-04-18T10:43:24.512Z</time></trkpt><trkpt lat="43.39288" lon="10.8610117"><ele>396.20000000000005</ele><time>2026-04-18T10:43:25.512Z</time></trkpt><trkpt lat="43.3928767" lon="10.8611633"><ele>391.6</ele><time>2026-04-18T10:43:26.512Z</time></trkpt><trkpt lat="43.3928733" lon="10.8613183"><ele>387.0</ele><time>2026-04-18T10:43:27.512Z</time></trkpt><trkpt lat="43.392865" lon="10.8614667"><ele>387.0</ele><time>2026-04-18T10:43:28.512Z</time></trkpt><trkpt lat="43.3928283" lon="10.8615983"><ele>387.0</ele><time>2026-04-18T10:43:29.512Z</time></trkpt><trkpt lat="43.3927767" lon="10.8616967"><ele>387.0</ele><time>2026-04-18T10:43:30.512Z</time></trkpt><trkpt lat="43.3927183" lon="10.861765"><ele>387.0</ele><time>2026-04-18T10:43:31.512Z</time></trkpt><trkpt lat="43.3926267" lon="10.861845"><ele>387.0</ele><time>2026-04-18T10:43:33.512Z</time></trkpt><trkpt lat="43.3925483" lon="10.8618767"><ele>387.0</ele><time>2026-04-18T10:43:35.512Z</time></trkpt><trkpt lat="43.392485" lon="10.8618217"><ele>387.0</ele><time>2026-04-18T10:43:37.512Z</time></trkpt><trkpt lat="43.3924183" lon="10.8616683"><ele>387.0</ele><time>2026-04-18T10:43:39.512Z</time></trkpt><trkpt lat="43.3923933" lon="10.8615767"><ele>387.0</ele><time>2026-04-18T10:43:40.512Z</time></trkpt><trkpt lat="43.3923617" lon="10.8614767"><ele>387.0</ele><time>2026-04-18T10:43:41.512Z</time></trkpt><trkpt lat="43.3923317" lon="10.8613717"><ele>387.0</ele><time>2026-04-18T10:43:42.512Z</time></trkpt><trkpt lat="43.3922967" lon="10.8612667"><ele>387.0</ele><time>2026-04-18T10:43:43.512Z</time></trkpt><trkpt lat="43.3922583" lon="10.861155"><ele>387.0</ele><time>2026-04-18T10:43:44.513Z</time></trkpt><trkpt lat="43.3922133" lon="10.8610517"><ele>387.0</ele><time>2026-04-18T10:43:45.512Z</time></trkpt><trkpt lat="43.3921683" lon="10.8609617"><ele>387.0</ele><time>2026-04-18T10:43:46.512Z</time></trkpt><trkpt lat="43.3921233" lon="10.8608817"><ele>387.0</ele><time>2026-04-18T10:43:47.512Z</time></trkpt><trkpt lat="43.3920683" lon="10.860815"><ele>387.0</ele><time>2026-04-18T10:43:48.512Z</time></trkpt><trkpt lat="43.3920133" lon="10.86076"><ele>381.75</ele><time>2026-04-18T10:43:49.512Z</time></trkpt><trkpt lat="43.39193" lon="10.860705"><ele>376.5</ele><time>2026-04-18T10:43:50.512Z</time></trkpt><trkpt lat="43.391815" lon="10.8606467"><ele>371.25</ele><time>2026-04-18T10:43:51.512Z</time></trkpt><trkpt lat="43.3916933" lon="10.8605817"><ele>366.0</ele><time>2026-04-18T10:43:52.512Z</time></trkpt><trkpt lat="43.3915717" lon="10.8605217"><ele>366.0</ele><time>2026-04-18T10:43:53.512Z</time></trkpt><trkpt lat="43.3914733" lon="10.8604667"><ele>366.0</ele><time>2026-04-18T10:43:54.513Z</time></trkpt><trkpt lat="43.3913917" lon="10.8604133"><ele>366.0</ele><time>2026-04-18T10:43:55.512Z</time></trkpt><trkpt lat="43.3913333" lon="10.8603283"><ele>366.0</ele><time>2026-04-18T10:43:56.512Z</time></trkpt><trkpt lat="43.3912883" lon="10.8602133"><ele>366.0</ele><time>2026-04-18T10:43:57.512Z</time></trkpt><trkpt lat="43.3912533" lon="10.8600533"><ele>361.75</ele><time>2026-04-18T10:43:58.512Z</time></trkpt><trkpt lat="43.3912133" lon="10.8598783"><ele>357.5</ele><time>2026-04-18T10:43:59.512Z</time></trkpt><trkpt lat="43.39116" lon="10.85969"><ele>353.25</ele><time>2026-04-18T10:44:00.513Z</time></trkpt><trkpt lat="43.3911117" lon="10.859505"><ele>349.0</ele><time>2026-04-18T10:44:01.512Z</time></trkpt><trkpt lat="43.3910667" lon="10.8593117"><ele>348.25</ele><time>2026-04-18T10:44:02.512Z</time></trkpt><trkpt lat="43.3910267" lon="10.8591183"><ele>347.5</ele><time>2026-04-18T10:44:03.513Z</time></trkpt><trkpt lat="43.3909983" lon="10.8589233"><ele>346.75</ele><time>2026-04-18T10:44:04.512Z</time></trkpt><trkpt lat="43.3909717" lon="10.8587217"><ele>346.0</ele><time>2026-04-18T10:44:05.512Z</time></trkpt><trkpt lat="43.390945" lon="10.8585317"><ele>344.6</ele><time>2026-04-18T10:44:06.512Z</time></trkpt><trkpt lat="43.3909267" lon="10.8583517"><ele>343.20000000000005</ele><time>2026-04-18T10:44:07.512Z</time></trkpt><trkpt lat="43.39091" lon="10.85819"><ele>341.79999999999995</ele><time>2026-04-18T10:44:08.512Z</time></trkpt><trkpt lat="43.3908933" lon="10.8580667"><ele>340.4</ele><time>2026-04-18T10:44:09.512Z</time></trkpt><trkpt lat="43.3908683" lon="10.8579733"><ele>339.0</ele><time>2026-04-18T10:44:10.512Z</time></trkpt><trkpt lat="43.3908217" lon="10.8578933"><ele>339.0</ele><time>2026-04-18T10:44:11.512Z</time></trkpt><trkpt lat="43.3907567" lon="10.8578167"><ele>339.0</ele><time>2026-04-18T10:44:12.512Z</time></trkpt><trkpt lat="43.390665" lon="10.8577383"><ele>339.0</ele><time>2026-04-18T10:44:13.512Z</time></trkpt><trkpt lat="43.3905567" lon="10.85765"><ele>339.0</ele><time>2026-04-18T10:44:14.513Z</time></trkpt><trkpt lat="43.390445" lon="10.85756"><ele>339.0</ele><time>2026-04-18T10:44:15.512Z</time></trkpt><trkpt lat="43.3903383" lon="10.8574683"><ele>336.0</ele><time>2026-04-18T10:44:16.512Z</time></trkpt><trkpt lat="43.3902317" lon="10.8573833"><ele>333.0</ele><time>2026-04-18T10:44:17.512Z</time></trkpt><trkpt lat="43.3901267" lon="10.8573017"><ele>330.0</ele><time>2026-04-18T10:44:18.512Z</time></trkpt><trkpt lat="43.3900217" lon="10.85722"><ele>327.0</ele><time>2026-04-18T10:44:19.513Z</time></trkpt><trkpt lat="43.3899167" lon="10.8571433"><ele>327.0</ele><time>2026-04-18T10:44:20.512Z</time></trkpt><trkpt lat="43.3898283" lon="10.85706"><ele>327.0</ele><time>2026-04-18T10:44:21.512Z</time></trkpt><trkpt lat="43.389755" lon="10.8569617"><ele>327.0</ele><time>2026-04-18T10:44:22.513Z</time></trkpt><trkpt lat="43.3896967" lon="10.8568717"><ele>327.0</ele><time>2026-04-18T10:44:23.512Z</time></trkpt><trkpt lat="43.3896317" lon="10.8567917"><ele>327.0</ele><time>2026-04-18T10:44:24.512Z</time></trkpt><trkpt lat="43.3895483" lon="10.8567167"><ele>325.0</ele><time>2026-04-18T10:44:25.512Z</time></trkpt><trkpt lat="43.389445" lon="10.8566383"><ele>323.0</ele><time>2026-04-18T10:44:26.512Z</time></trkpt><trkpt lat="43.389335" lon="10.8565533"><ele>321.0</ele><time>2026-04-18T10:44:27.512Z</time></trkpt><trkpt lat="43.3892233" lon="10.8564717"><ele>319.0</ele><time>2026-04-18T10:44:28.512Z</time></trkpt><trkpt lat="43.3891217" lon="10.8563783"><ele>319.0</ele><time>2026-04-18T10:44:29.512Z</time></trkpt><trkpt lat="43.3890433" lon="10.8563033"><ele>319.0</ele><time>2026-04-18T10:44:30.512Z</time></trkpt><trkpt lat="43.38897" lon="10.8562367"><ele>319.0</ele><time>2026-04-18T10:44:31.512Z</time></trkpt><trkpt lat="43.3889017" lon="10.856175"><ele>319.0</ele><time>2026-04-18T10:44:32.512Z</time></trkpt><trkpt lat="43.3888333" lon="10.8561083"><ele>319.0</ele><time>2026-04-18T10:44:33.512Z</time></trkpt><trkpt lat="43.38877" lon="10.85603"><ele>319.0</ele><time>2026-04-18T10:44:34.512Z</time></trkpt><trkpt lat="43.3887083" lon="10.85594"><ele>317.2</ele><time>2026-04-18T10:44:35.512Z</time></trkpt><trkpt lat="43.3886517" lon="10.8558333"><ele>315.4</ele><time>2026-04-18T10:44:36.512Z</time></trkpt><trkpt lat="43.388595" lon="10.8557067"><ele>313.6</ele><time>2026-04-18T10:44:37.512Z</time></trkpt><trkpt lat="43.3885333" lon="10.8555633"><ele>311.8</ele><time>2026-04-18T10:44:38.512Z</time></trkpt><trkpt lat="43.388475" lon="10.8554267"><ele>310.0</ele><time>2026-04-18T10:44:39.512Z</time></trkpt><trkpt lat="43.3884183" lon="10.855295"><ele>310.0</ele><time>2026-04-18T10:44:40.512Z</time></trkpt><trkpt lat="43.3883633" lon="10.8551617"><ele>310.0</ele><time>2026-04-18T10:44:41.513Z</time></trkpt><trkpt lat="43.3882983" lon="10.8550383"><ele>310.0</ele><time>2026-04-18T10:44:42.512Z</time></trkpt><trkpt lat="43.3882433" lon="10.8549083"><ele>310.0</ele><time>2026-04-18T10:44:43.512Z</time></trkpt><trkpt lat="43.3881967" lon="10.8547883"><ele>310.0</ele><time>2026-04-18T10:44:44.512Z</time></trkpt><trkpt lat="43.3881517" lon="10.85468"><ele>309.4</ele><time>2026-04-18T10:44:45.512Z</time></trkpt><trkpt lat="43.38811" lon="10.85459"><ele>308.8</ele><time>2026-04-18T10:44:46.512Z</time></trkpt><trkpt lat="43.3880467" lon="10.8545017"><ele>308.2</ele><time>2026-04-18T10:44:47.512Z</time></trkpt><trkpt lat="43.387965" lon="10.8544083"><ele>307.6</ele><time>2026-04-18T10:44:48.512Z</time></trkpt><trkpt lat="43.3878733" lon="10.85429"><ele>307.0</ele><time>2026-04-18T10:44:49.512Z</time></trkpt><trkpt lat="43.3877783" lon="10.8541817"><ele>304.2</ele><time>2026-04-18T10:44:50.512Z</time></trkpt><trkpt lat="43.3876817" lon="10.8540767"><ele>301.4</ele><time>2026-04-18T10:44:51.512Z</time></trkpt><trkpt lat="43.387595" lon="10.8539817"><ele>298.6</ele><time>2026-04-18T10:44:52.512Z</time></trkpt><trkpt lat="43.38752" lon="10.8539"><ele>295.8</ele><time>2026-04-18T10:44:53.513Z</time></trkpt><trkpt lat="43.387465" lon="10.8538317"><ele>293.0</ele><time>2026-04-18T10:44:54.512Z</time></trkpt><trkpt lat="43.3874133" lon="10.85377"><ele>293.0</ele><time>2026-04-18T10:44:55.512Z</time></trkpt><trkpt lat="43.3873283" lon="10.8536867"><ele>293.0</ele><time>2026-04-18T10:44:57.512Z</time></trkpt><trkpt lat="43.3872367" lon="10.853655"><ele>293.0</ele><time>2026-04-18T10:45:17.512Z</time></trkpt><trkpt lat="43.3870117" lon="10.8536683"><ele>293.0</ele><time>2026-04-18T10:45:20.513Z</time></trkpt><trkpt lat="43.3869083" lon="10.8536933"><ele>291.5</ele><time>2026-04-18T10:45:21.512Z</time></trkpt><trkpt lat="43.3868183" lon="10.85373"><ele>290.0</ele><time>2026-04-18T10:45:22.512Z</time></trkpt><trkpt lat="43.3867467" lon="10.8537733"><ele>288.5</ele><time>2026-04-18T10:45:23.512Z</time></trkpt><trkpt lat="43.386695" lon="10.8538283"><ele>287.0</ele><time>2026-04-18T10:45:24.513Z</time></trkpt><trkpt lat="43.3866283" lon="10.853965"><ele>285.5</ele><time>2026-04-18T10:45:26.513Z</time></trkpt><trkpt lat="43.3866217" lon="10.8540783"><ele>284.0</ele><time>2026-04-18T10:45:27.512Z</time></trkpt><trkpt lat="43.3866167" lon="10.8542083"><ele>283.6666666666667</ele><time>2026-04-18T10:45:28.513Z</time></trkpt><trkpt lat="43.3866117" lon="10.85434"><ele>283.33333333333337</ele><time>2026-04-18T10:45:29.512Z</time></trkpt><trkpt lat="43.386615" lon="10.8544617"><ele>283.0</ele><time>2026-04-18T10:45:30.512Z</time></trkpt><trkpt lat="43.3866067" lon="10.854555"><ele>282.6666666666667</ele><time>2026-04-18T10:45:31.512Z</time></trkpt><trkpt lat="43.38658" lon="10.85466"><ele>282.3333333333333</ele><time>2026-04-18T10:45:33.512Z</time></trkpt><trkpt lat="43.3865083" lon="10.8547117"><ele>282.0</ele><time>2026-04-18T10:45:35.512Z</time></trkpt><trkpt lat="43.3864367" lon="10.8547217"><ele>279.2</ele><time>2026-04-18T10:45:36.512Z</time></trkpt><trkpt lat="43.3863383" lon="10.85473"><ele>276.4</ele><time>2026-04-18T10:45:37.512Z</time></trkpt><trkpt lat="43.3862283" lon="10.854745"><ele>273.6</ele><time>2026-04-18T10:45:38.512Z</time></trkpt><trkpt lat="43.38613" lon="10.854755"><ele>270.8</ele><time>2026-04-18T10:45:39.512Z</time></trkpt><trkpt lat="43.386055" lon="10.8547867"><ele>268.0</ele><time>2026-04-18T10:45:40.512Z</time></trkpt><trkpt lat="43.3859983" lon="10.854835"><ele>268.0</ele><time>2026-04-18T10:45:41.512Z</time></trkpt><trkpt lat="43.385955" lon="10.8549217"><ele>268.0</ele><time>2026-04-18T10:45:42.512Z</time></trkpt><trkpt lat="43.3859217" lon="10.8550083"><ele>268.0</ele><time>2026-04-18T10:45:43.512Z</time></trkpt><trkpt lat="43.38588" lon="10.8550733"><ele>268.0</ele><time>2026-04-18T10:45:44.513Z</time></trkpt><trkpt lat="43.3857633" lon="10.8551133"><ele>268.0</ele><time>2026-04-18T10:45:46.512Z</time></trkpt><trkpt lat="43.3856933" lon="10.85509"><ele>268.0</ele><time>2026-04-18T10:45:47.512Z</time></trkpt><trkpt lat="43.3856117" lon="10.8550533"><ele>265.0</ele><time>2026-04-18T10:45:48.512Z</time></trkpt><trkpt lat="43.3855117" lon="10.8550067"><ele>262.0</ele><time>2026-04-18T10:45:49.512Z</time></trkpt><trkpt lat="43.3853917" lon="10.8549467"><ele>259.0</ele><time>2026-04-18T10:45:50.512Z</time></trkpt><trkpt lat="43.3852517" lon="10.8548667"><ele>256.0</ele><time>2026-04-18T10:45:51.512Z</time></trkpt><trkpt lat="43.3851267" lon="10.8547967"><ele>256.0</ele><time>2026-04-18T10:45:52.512Z</time></trkpt><trkpt lat="43.3850083" lon="10.8547317"><ele>256.0</ele><time>2026-04-18T10:45:53.513Z</time></trkpt><trkpt lat="43.3849133" lon="10.8546767"><ele>256.0</ele><time>2026-04-18T10:45:54.512Z</time></trkpt><trkpt lat="43.38484" lon="10.854635"><ele>256.0</ele><time>2026-04-18T10:45:55.512Z</time></trkpt><trkpt lat="43.3847767" lon="10.85459"><ele>256.0</ele><time>2026-04-18T10:45:56.512Z</time></trkpt><trkpt lat="43.3847033" lon="10.85455"><ele>254.33333333333331</ele><time>2026-04-18T10:45:57.512Z</time></trkpt><trkpt lat="43.3846283" lon="10.85452"><ele>252.66666666666666</ele><time>2026-04-18T10:45:58.512Z</time></trkpt><trkpt lat="43.38455" lon="10.8545033"><ele>251.0</ele><time>2026-04-18T10:45:59.512Z</time></trkpt><trkpt lat="43.3844783" lon="10.854495"><ele>249.33333333333331</ele><time>2026-04-18T10:46:00.512Z</time></trkpt><trkpt lat="43.384405" lon="10.8544933"><ele>247.66666666666666</ele><time>2026-04-18T10:46:01.512Z</time></trkpt><trkpt lat="43.384335" lon="10.8544883"><ele>246.0</ele><time>2026-04-18T10:46:02.512Z</time></trkpt><trkpt lat="43.384235" lon="10.854495"><ele>246.0</ele><time>2026-04-18T10:46:04.512Z</time></trkpt><trkpt lat="43.38417" lon="10.8545183"><ele>246.0</ele><time>2026-04-18T10:46:07.511Z</time></trkpt><trkpt lat="43.384095" lon="10.8545767"><ele>246.0</ele><time>2026-04-18T10:46:21.511Z</time></trkpt><trkpt lat="43.3840267" lon="10.854635"><ele>246.0</ele><time>2026-04-18T10:46:23.511Z</time></trkpt><trkpt lat="43.3839583" lon="10.8546633"><ele>246.0</ele><time>2026-04-18T10:46:25.511Z</time></trkpt><trkpt lat="43.3838833" lon="10.8546783"><ele>246.0</ele><time>2026-04-18T10:46:29.511Z</time></trkpt><trkpt lat="43.3838183" lon="10.8547483"><ele>244.83333333333334</ele><time>2026-04-18T10:46:32.511Z</time></trkpt><trkpt lat="43.383755" lon="10.8547967"><ele>243.66666666666669</ele><time>2026-04-18T10:46:34.511Z</time></trkpt><trkpt lat="43.3836567" lon="10.854815"><ele>242.5</ele><time>2026-04-18T10:46:36.511Z</time></trkpt><trkpt lat="43.3835617" lon="10.85481"><ele>241.33333333333334</ele><time>2026-04-18T10:46:38.511Z</time></trkpt><trkpt lat="43.3834867" lon="10.8548083"><ele>240.16666666666669</ele><time>2026-04-18T10:46:41.512Z</time></trkpt><trkpt lat="43.383395" lon="10.8548283"><ele>239.0</ele><time>2026-04-18T10:46:44.511Z</time></trkpt><trkpt lat="43.3832883" lon="10.8548667"><ele>239.00000000000003</ele><time>2026-04-18T10:46:46.511Z</time></trkpt><trkpt lat="43.3831717" lon="10.85493"><ele>239.0</ele><time>2026-04-18T10:46:48.511Z</time></trkpt><trkpt lat="43.3831117" lon="10.8549683"><ele>239.0</ele><time>2026-04-18T10:46:49.511Z</time></trkpt><trkpt lat="43.3830517" lon="10.85501"><ele>239.0</ele><time>2026-04-18T10:46:50.512Z</time></trkpt><trkpt lat="43.38299" lon="10.8550417"><ele>239.00000000000003</ele><time>2026-04-18T10:46:51.511Z</time></trkpt><trkpt lat="43.3828783" lon="10.8550917"><ele>239.0</ele><time>2026-04-18T10:46:53.511Z</time></trkpt><trkpt lat="43.382775" lon="10.855095"><ele>237.39999999999998</ele><time>2026-04-18T10:46:55.511Z</time></trkpt><trkpt lat="43.3826733" lon="10.8550533"><ele>235.79999999999998</ele><time>2026-04-18T10:46:57.511Z</time></trkpt><trkpt lat="43.3825717" lon="10.855"><ele>234.20000000000002</ele><time>2026-04-18T10:46:59.511Z</time></trkpt><trkpt lat="43.3824617" lon="10.8549383"><ele>232.60000000000002</ele><time>2026-04-18T10:47:01.511Z</time></trkpt><trkpt lat="43.382355" lon="10.8548783"><ele>231.0</ele><time>2026-04-18T10:47:03.511Z</time></trkpt><trkpt lat="43.3822567" lon="10.8548183"><ele>231.0</ele><time>2026-04-18T10:47:05.511Z</time></trkpt><trkpt lat="43.3821967" lon="10.85479"><ele>231.0</ele><time>2026-04-18T10:47:06.511Z</time></trkpt><trkpt lat="43.3821317" lon="10.85476"><ele>231.0</ele><time>2026-04-18T10:47:07.512Z</time></trkpt><trkpt lat="43.3820733" lon="10.8547267"><ele>231.0</ele><time>2026-04-18T10:47:08.511Z</time></trkpt><trkpt lat="43.3819583" lon="10.8546667"><ele>231.0</ele><time>2026-04-18T10:47:10.511Z</time></trkpt><trkpt lat="43.38185" lon="10.8545983"><ele>231.0</ele><time>2026-04-18T10:47:12.511Z</time></trkpt><trkpt lat="43.3817933" lon="10.8545533"><ele>230.33333333333334</ele><time>2026-04-18T10:47:13.511Z</time></trkpt><trkpt lat="43.3817333" lon="10.8545017"><ele>229.66666666666669</ele><time>2026-04-18T10:47:14.511Z</time></trkpt><trkpt lat="43.38168" lon="10.854435"><ele>229.0</ele><time>2026-04-18T10:47:15.511Z</time></trkpt><trkpt lat="43.3816367" lon="10.8543383"><ele>228.33333333333334</ele><time>2026-04-18T10:47:16.511Z</time></trkpt><trkpt lat="43.3816" lon="10.8542367"><ele>227.66666666666669</ele><time>2026-04-18T10:47:17.511Z</time></trkpt><trkpt lat="43.3815633" lon="10.8541467"><ele>227.0</ele><time>2026-04-18T10:47:18.511Z</time></trkpt><trkpt lat="43.3815167" lon="10.854055"><ele>226.2</ele><time>2026-04-18T10:47:19.511Z</time></trkpt><trkpt lat="43.3814617" lon="10.8539733"><ele>225.39999999999998</ele><time>2026-04-18T10:47:20.511Z</time></trkpt><trkpt lat="43.38139" lon="10.853885"><ele>224.60000000000002</ele><time>2026-04-18T10:47:21.511Z</time></trkpt><trkpt lat="43.38132" lon="10.853805"><ele>223.8</ele><time>2026-04-18T10:47:22.511Z</time></trkpt><trkpt lat="43.3812383" lon="10.85372"><ele>223.0</ele><time>2026-04-18T10:47:23.511Z</time></trkpt><trkpt lat="43.3811617" lon="10.8536483"><ele>223.0</ele><time>2026-04-18T10:47:24.511Z</time></trkpt><trkpt lat="43.3810933" lon="10.85359"><ele>223.0</ele><time>2026-04-18T10:47:25.511Z</time></trkpt><trkpt lat="43.38103" lon="10.8535333"><ele>223.0</ele><time>2026-04-18T10:47:26.511Z</time></trkpt><trkpt lat="43.3809683" lon="10.85348"><ele>223.0</ele><time>2026-04-18T10:47:27.511Z</time></trkpt><trkpt lat="43.3809067" lon="10.8534183"><ele>223.0</ele><time>2026-04-18T10:47:28.511Z</time></trkpt><trkpt lat="43.3808517" lon="10.8533667"><ele>223.0</ele><time>2026-04-18T10:47:29.511Z</time></trkpt><trkpt lat="43.3807983" lon="10.853305"><ele>223.0</ele><time>2026-04-18T10:47:31.511Z</time></trkpt><trkpt lat="43.3807533" lon="10.8532317"><ele>222.99999999999997</ele><time>2026-04-18T10:47:43.511Z</time></trkpt><trkpt lat="43.3808117" lon="10.8533367"><ele>223.0</ele><time>2026-04-18T10:48:33.511Z</time></trkpt><trkpt lat="43.3809067" lon="10.8534083"><ele>223.0</ele><time>2026-04-18T10:48:35.511Z</time></trkpt><trkpt lat="43.3809717" lon="10.8534817"><ele>223.0</ele><time>2026-04-18T10:48:37.511Z</time></trkpt><trkpt lat="43.3810467" lon="10.8535133"><ele>222.99999999999997</ele><time>2026-04-18T10:48:40.511Z</time></trkpt><trkpt lat="43.3811133" lon="10.8534667"><ele>223.0</ele><time>2026-04-18T10:48:43.512Z</time></trkpt><trkpt lat="43.381135" lon="10.8533617"><ele>221.99999999999997</ele><time>2026-04-18T10:48:45.511Z</time></trkpt><trkpt lat="43.381125" lon="10.853205"><ele>221.0</ele><time>2026-04-18T10:48:47.511Z</time></trkpt><trkpt lat="43.38111" lon="10.8531133"><ele>220.0</ele><time>2026-04-18T10:48:48.511Z</time></trkpt><trkpt lat="43.3810883" lon="10.8530067"><ele>219.0</ele><time>2026-04-18T10:48:49.511Z</time></trkpt><trkpt lat="43.3810617" lon="10.8529067"><ele>217.99999999999997</ele><time>2026-04-18T10:48:50.511Z</time></trkpt><trkpt lat="43.3810267" lon="10.8527983"><ele>217.0</ele><time>2026-04-18T10:48:51.511Z</time></trkpt><trkpt lat="43.3809833" lon="10.8526833"><ele>216.2</ele><time>2026-04-18T10:48:52.512Z</time></trkpt><trkpt lat="43.38093" lon="10.8525617"><ele>215.39999999999998</ele><time>2026-04-18T10:48:53.511Z</time></trkpt><trkpt lat="43.3808783" lon="10.8524333"><ele>214.60000000000002</ele><time>2026-04-18T10:48:54.511Z</time></trkpt><trkpt lat="43.380825" lon="10.85232"><ele>213.8</ele><time>2026-04-18T10:48:55.511Z</time></trkpt><trkpt lat="43.380785" lon="10.8522133"><ele>213.0</ele><time>2026-04-18T10:48:56.511Z</time></trkpt><trkpt lat="43.3807367" lon="10.8521083"><ele>213.0</ele><time>2026-04-18T10:48:57.511Z</time></trkpt><trkpt lat="43.38069" lon="10.8520033"><ele>213.0</ele><time>2026-04-18T10:48:58.511Z</time></trkpt><trkpt lat="43.3806483" lon="10.85191"><ele>213.0</ele><time>2026-04-18T10:48:59.511Z</time></trkpt><trkpt lat="43.380605" lon="10.8518117"><ele>213.0</ele><time>2026-04-18T10:49:00.511Z</time></trkpt><trkpt lat="43.38055" lon="10.8516967"><ele>213.0</ele><time>2026-04-18T10:49:01.512Z</time></trkpt><trkpt lat="43.380495" lon="10.8515867"><ele>211.83333333333334</ele><time>2026-04-18T10:49:02.511Z</time></trkpt><trkpt lat="43.38045" lon="10.8514817"><ele>210.66666666666669</ele><time>2026-04-18T10:49:03.511Z</time></trkpt><trkpt lat="43.3804167" lon="10.851385"><ele>209.5</ele><time>2026-04-18T10:49:04.512Z</time></trkpt><trkpt lat="43.3803917" lon="10.8512917"><ele>208.33333333333334</ele><time>2026-04-18T10:49:05.511Z</time></trkpt><trkpt lat="43.380355" lon="10.85116"><ele>207.16666666666669</ele><time>2026-04-18T10:49:07.511Z</time></trkpt><trkpt lat="43.3803417" lon="10.8510667"><ele>206.0</ele><time>2026-04-18T10:49:09.512Z</time></trkpt><trkpt lat="43.380325" lon="10.8509483"><ele>205.20000000000002</ele><time>2026-04-18T10:49:11.511Z</time></trkpt><trkpt lat="43.3803133" lon="10.8507783"><ele>204.4</ele><time>2026-04-18T10:49:13.511Z</time></trkpt><trkpt lat="43.3803033" lon="10.8506883"><ele>203.6</ele><time>2026-04-18T10:49:14.511Z</time></trkpt><trkpt lat="43.38029" lon="10.8505417"><ele>202.8</ele><time>2026-04-18T10:49:16.511Z</time></trkpt><trkpt lat="43.3802617" lon="10.850425"><ele>202.0</ele><time>2026-04-18T10:49:18.511Z</time></trkpt><trkpt lat="43.380215" lon="10.8503283"><ele>202.0</ele><time>2026-04-18T10:49:20.511Z</time></trkpt><trkpt lat="43.38017" lon="10.8502367"><ele>202.0</ele><time>2026-04-18T10:49:22.51Z</time></trkpt><trkpt lat="43.3801183" lon="10.8501417"><ele>202.0</ele><time>2026-04-18T10:49:24.51Z</time></trkpt><trkpt lat="43.3800817" lon="10.8500333"><ele>202.0</ele><time>2026-04-18T10:49:26.51Z</time></trkpt><trkpt lat="43.3800467" lon="10.8498933"><ele>202.0</ele><time>2026-04-18T10:49:28.51Z</time></trkpt><trkpt lat="43.380025" lon="10.8497333"><ele>200.39999999999998</ele><time>2026-04-18T10:49:30.51Z</time></trkpt><trkpt lat="43.3800117" lon="10.8496467"><ele>198.79999999999998</ele><time>2026-04-18T10:49:31.51Z</time></trkpt><trkpt lat="43.3799817" lon="10.84948"><ele>197.2</ele><time>2026-04-18T10:49:33.51Z</time></trkpt><trkpt lat="43.3799483" lon="10.84934"><ele>195.6</ele><time>2026-04-18T10:49:35.51Z</time></trkpt><trkpt lat="43.3798883" lon="10.8491967"><ele>194.0</ele><time>2026-04-18T10:49:37.51Z</time></trkpt><trkpt lat="43.3798067" lon="10.8490517"><ele>192.6</ele><time>2026-04-18T10:49:39.51Z</time></trkpt><trkpt lat="43.3797583" lon="10.848975"><ele>191.2</ele><time>2026-04-18T10:49:40.51Z</time></trkpt><trkpt lat="43.3797117" lon="10.8489017"><ele>189.79999999999998</ele><time>2026-04-18T10:49:41.51Z</time></trkpt><trkpt lat="43.379665" lon="10.8488383"><ele>188.39999999999998</ele><time>2026-04-18T10:49:42.51Z</time></trkpt><trkpt lat="43.3795733" lon="10.8487283"><ele>187.0</ele><time>2026-04-18T10:49:44.51Z</time></trkpt><trkpt lat="43.379475" lon="10.8486317"><ele>185.25</ele><time>2026-04-18T10:49:46.51Z</time></trkpt><trkpt lat="43.3793833" lon="10.8485417"><ele>183.5</ele><time>2026-04-18T10:49:48.511Z</time></trkpt><trkpt lat="43.37929" lon="10.848435"><ele>181.75</ele><time>2026-04-18T10:49:50.51Z</time></trkpt><trkpt lat="43.3792067" lon="10.8483267"><ele>180.0</ele><time>2026-04-18T10:49:52.51Z</time></trkpt><trkpt lat="43.379145" lon="10.8482033"><ele>180.0</ele><time>2026-04-18T10:49:54.51Z</time></trkpt><trkpt lat="43.3791117" lon="10.8481217"><ele>180.0</ele><time>2026-04-18T10:49:55.51Z</time></trkpt><trkpt lat="43.37907" lon="10.8479667"><ele>180.0</ele><time>2026-04-18T10:49:57.51Z</time></trkpt><trkpt lat="43.3790433" lon="10.847815"><ele>180.0</ele><time>2026-04-18T10:49:59.511Z</time></trkpt><trkpt lat="43.3790067" lon="10.847675"><ele>180.0</ele><time>2026-04-18T10:50:01.51Z</time></trkpt><trkpt lat="43.3789867" lon="10.8475617"><ele>180.5</ele><time>2026-04-18T10:50:03.51Z</time></trkpt><trkpt lat="43.3789533" lon="10.8474267"><ele>181.0</ele><time>2026-04-18T10:50:05.51Z</time></trkpt><trkpt lat="43.37889" lon="10.847145"><ele>181.5</ele><time>2026-04-18T10:50:08.51Z</time></trkpt><trkpt lat="43.37887" lon="10.847015"><ele>182.0</ele><time>2026-04-18T10:50:09.51Z</time></trkpt><trkpt lat="43.37885" lon="10.84689"><ele>180.6</ele><time>2026-04-18T10:50:10.51Z</time></trkpt><trkpt lat="43.378825" lon="10.846775"><ele>179.2</ele><time>2026-04-18T10:50:11.511Z</time></trkpt><trkpt lat="43.3787933" lon="10.8466617"><ele>177.8</ele><time>2026-04-18T10:50:12.51Z</time></trkpt><trkpt lat="43.378755" lon="10.8465417"><ele>176.4</ele><time>2026-04-18T10:50:13.51Z</time></trkpt><trkpt lat="43.37871" lon="10.8464183"><ele>175.0</ele><time>2026-04-18T10:50:14.51Z</time></trkpt><trkpt lat="43.378655" lon="10.8462867"><ele>175.0</ele><time>2026-04-18T10:50:15.51Z</time></trkpt><trkpt lat="43.3786083" lon="10.8461683"><ele>175.0</ele><time>2026-04-18T10:50:16.51Z</time></trkpt><trkpt lat="43.378565" lon="10.84605"><ele>175.0</ele><time>2026-04-18T10:50:17.511Z</time></trkpt><trkpt lat="43.3785267" lon="10.8459417"><ele>175.0</ele><time>2026-04-18T10:50:18.51Z</time></trkpt><trkpt lat="43.3784933" lon="10.84583"><ele>175.0</ele><time>2026-04-18T10:50:19.51Z</time></trkpt><trkpt lat="43.37845" lon="10.84571"><ele>175.5</ele><time>2026-04-18T10:50:20.51Z</time></trkpt><trkpt lat="43.3784117" lon="10.8456033"><ele>176.0</ele><time>2026-04-18T10:50:21.51Z</time></trkpt><trkpt lat="43.3783783" lon="10.8455083"><ele>176.5</ele><time>2026-04-18T10:50:22.51Z</time></trkpt><trkpt lat="43.378355" lon="10.84542"><ele>177.0</ele><time>2026-04-18T10:50:23.51Z</time></trkpt><trkpt lat="43.3783217" lon="10.8453117"><ele>177.5</ele><time>2026-04-18T10:50:24.51Z</time></trkpt><trkpt lat="43.378285" lon="10.8451917"><ele>178.0</ele><time>2026-04-18T10:50:25.51Z</time></trkpt><trkpt lat="43.3782433" lon="10.8450733"><ele>178.14285714285714</ele><time>2026-04-18T10:50:26.51Z</time></trkpt><trkpt lat="43.3781983" lon="10.844975"><ele>178.28571428571428</ele><time>2026-04-18T10:50:27.51Z</time></trkpt><trkpt lat="43.3781567" lon="10.8448917"><ele>178.42857142857144</ele><time>2026-04-18T10:50:28.51Z</time></trkpt><trkpt lat="43.3781083" lon="10.8448183"><ele>178.57142857142856</ele><time>2026-04-18T10:50:29.51Z</time></trkpt><trkpt lat="43.3780567" lon="10.8447433"><ele>178.71428571428572</ele><time>2026-04-18T10:50:30.51Z</time></trkpt><trkpt lat="43.3780083" lon="10.8446717"><ele>178.85714285714286</ele><time>2026-04-18T10:50:31.51Z</time></trkpt><trkpt lat="43.377965" lon="10.8445933"><ele>179.0</ele><time>2026-04-18T10:50:32.51Z</time></trkpt><trkpt lat="43.3779233" lon="10.8445167"><ele>178.66666666666666</ele><time>2026-04-18T10:50:33.51Z</time></trkpt><trkpt lat="43.3778833" lon="10.8444417"><ele>178.33333333333331</ele><time>2026-04-18T10:50:34.51Z</time></trkpt><trkpt lat="43.37784" lon="10.8443683"><ele>178.0</ele><time>2026-04-18T10:50:35.51Z</time></trkpt><trkpt lat="43.3778017" lon="10.8442983"><ele>177.66666666666666</ele><time>2026-04-18T10:50:36.51Z</time></trkpt><trkpt lat="43.3777417" lon="10.844185"><ele>177.33333333333334</ele><time>2026-04-18T10:50:38.51Z</time></trkpt><trkpt lat="43.377715" lon="10.8440133"><ele>177.0</ele><time>2026-04-18T10:50:40.51Z</time></trkpt><trkpt lat="43.3777033" lon="10.84392"><ele>177.0</ele><time>2026-04-18T10:50:41.51Z</time></trkpt><trkpt lat="43.3776933" lon="10.8438267"><ele>177.0</ele><time>2026-04-18T10:50:42.51Z</time></trkpt><trkpt lat="43.3776867" lon="10.8437367"><ele>177.0</ele><time>2026-04-18T10:50:43.51Z</time></trkpt><trkpt lat="43.3776583" lon="10.84357"><ele>177.0</ele><time>2026-04-18T10:50:45.51Z</time></trkpt><trkpt lat="43.3776383" lon="10.8434733"><ele>177.0</ele><time>2026-04-18T10:50:46.51Z</time></trkpt><trkpt lat="43.377615" lon="10.84338"><ele>177.0</ele><time>2026-04-18T10:50:47.51Z</time></trkpt><trkpt lat="43.3775867" lon="10.84329"><ele>177.0</ele><time>2026-04-18T10:50:48.51Z</time></trkpt><trkpt lat="43.377565" lon="10.8432017"><ele>177.0</ele><time>2026-04-18T10:50:49.51Z</time></trkpt><trkpt lat="43.3775417" lon="10.8431183"><ele>177.0</ele><time>2026-04-18T10:50:50.51Z</time></trkpt><trkpt lat="43.3775017" lon="10.8429767"><ele>177.0</ele><time>2026-04-18T10:50:52.51Z</time></trkpt><trkpt lat="43.3774483" lon="10.84284"><ele>177.0</ele><time>2026-04-18T10:50:54.51Z</time></trkpt><trkpt lat="43.377385" lon="10.8427"><ele>175.66666666666666</ele><time>2026-04-18T10:50:56.51Z</time></trkpt><trkpt lat="43.3773417" lon="10.8426133"><ele>174.33333333333334</ele><time>2026-04-18T10:50:57.51Z</time></trkpt><trkpt lat="43.37729" lon="10.8425283"><ele>173.0</ele><time>2026-04-18T10:50:58.51Z</time></trkpt><trkpt lat="43.37724" lon="10.842445"><ele>171.66666666666669</ele><time>2026-04-18T10:50:59.51Z</time></trkpt><trkpt lat="43.3771883" lon="10.8423683"><ele>170.33333333333334</ele><time>2026-04-18T10:51:00.51Z</time></trkpt><trkpt lat="43.377135" lon="10.8422967"><ele>169.0</ele><time>2026-04-18T10:51:01.511Z</time></trkpt><trkpt lat="43.3770883" lon="10.842235"><ele>169.0</ele><time>2026-04-18T10:51:02.51Z</time></trkpt><trkpt lat="43.3770417" lon="10.8421733"><ele>169.0</ele><time>2026-04-18T10:51:03.51Z</time></trkpt><trkpt lat="43.3769833" lon="10.8421033"><ele>169.0</ele><time>2026-04-18T10:51:04.51Z</time></trkpt><trkpt lat="43.37693" lon="10.84204"><ele>169.0</ele><time>2026-04-18T10:51:05.51Z</time></trkpt><trkpt lat="43.37688" lon="10.8419817"><ele>169.0</ele><time>2026-04-18T10:51:06.51Z</time></trkpt><trkpt lat="43.376785" lon="10.841885"><ele>169.0</ele><time>2026-04-18T10:51:08.511Z</time></trkpt><trkpt lat="43.3767167" lon="10.84179"><ele>168.16666666666669</ele><time>2026-04-18T10:51:10.51Z</time></trkpt><trkpt lat="43.3766533" lon="10.8416783"><ele>167.33333333333334</ele><time>2026-04-18T10:51:12.51Z</time></trkpt><trkpt lat="43.3766217" lon="10.8415883"><ele>166.5</ele><time>2026-04-18T10:51:13.51Z</time></trkpt><trkpt lat="43.37658" lon="10.8414867"><ele>165.66666666666666</ele><time>2026-04-18T10:51:14.51Z</time></trkpt><trkpt lat="43.37653" lon="10.841385"><ele>164.83333333333331</ele><time>2026-04-18T10:51:15.51Z</time></trkpt><trkpt lat="43.37648" lon="10.8412883"><ele>164.0</ele><time>2026-04-18T10:51:16.51Z</time></trkpt><trkpt lat="43.376425" lon="10.8411933"><ele>164.0</ele><time>2026-04-18T10:51:17.51Z</time></trkpt><trkpt lat="43.3763667" lon="10.84111"><ele>164.0</ele><time>2026-04-18T10:51:18.51Z</time></trkpt><trkpt lat="43.3763083" lon="10.8410283"><ele>164.0</ele><time>2026-04-18T10:51:19.51Z</time></trkpt><trkpt lat="43.3762517" lon="10.8409483"><ele>164.0</ele><time>2026-04-18T10:51:20.51Z</time></trkpt><trkpt lat="43.3761983" lon="10.8408817"><ele>164.0</ele><time>2026-04-18T10:51:21.51Z</time></trkpt><trkpt lat="43.3761167" lon="10.8407667"><ele>164.0</ele><time>2026-04-18T10:51:23.51Z</time></trkpt><trkpt lat="43.37607" lon="10.840705"><ele>163.2</ele><time>2026-04-18T10:51:24.51Z</time></trkpt><trkpt lat="43.37601" lon="10.8406267"><ele>162.39999999999998</ele><time>2026-04-18T10:51:25.511Z</time></trkpt><trkpt lat="43.3759317" lon="10.84052"><ele>161.6</ele><time>2026-04-18T10:51:26.51Z</time></trkpt><trkpt lat="43.37585" lon="10.8404083"><ele>160.8</ele><time>2026-04-18T10:51:27.51Z</time></trkpt><trkpt lat="43.375765" lon="10.84028"><ele>160.0</ele><time>2026-04-18T10:51:28.51Z</time></trkpt><trkpt lat="43.3756883" lon="10.8401633"><ele>159.6</ele><time>2026-04-18T10:51:29.51Z</time></trkpt><trkpt lat="43.3756283" lon="10.8400617"><ele>159.2</ele><time>2026-04-18T10:51:30.511Z</time></trkpt><trkpt lat="43.3755833" lon="10.839985"><ele>158.8</ele><time>2026-04-18T10:51:31.51Z</time></trkpt><trkpt lat="43.3755517" lon="10.8399017"><ele>158.4</ele><time>2026-04-18T10:51:33.51Z</time></trkpt><trkpt lat="43.3755883" lon="10.8397683"><ele>158.0</ele><time>2026-04-18T10:51:36.511Z</time></trkpt><trkpt lat="43.3755917" lon="10.83959"><ele>158.0</ele><time>2026-04-18T10:51:38.51Z</time></trkpt><trkpt lat="43.3755767" lon="10.8394733"><ele>158.0</ele><time>2026-04-18T10:51:39.51Z</time></trkpt><trkpt lat="43.3755667" lon="10.8393617"><ele>158.0</ele><time>2026-04-18T10:51:40.51Z</time></trkpt><trkpt lat="43.3755583" lon="10.8392533"><ele>158.0</ele><time>2026-04-18T10:51:41.51Z</time></trkpt><trkpt lat="43.3755567" lon="10.8391483"><ele>158.0</ele><time>2026-04-18T10:51:42.51Z</time></trkpt><trkpt lat="43.375565" lon="10.839045"><ele>158.0</ele><time>2026-04-18T10:51:43.51Z</time></trkpt><trkpt lat="43.3755733" lon="10.838955"><ele>157.33333333333331</ele><time>2026-04-18T10:51:44.51Z</time></trkpt><trkpt lat="43.37557" lon="10.8388667"><ele>156.66666666666666</ele><time>2026-04-18T10:51:45.511Z</time></trkpt><trkpt lat="43.3755617" lon="10.8387167"><ele>156.0</ele><time>2026-04-18T10:51:47.511Z</time></trkpt><trkpt lat="43.3755617" lon="10.838595"><ele>155.33333333333334</ele><time>2026-04-18T10:51:49.51Z</time></trkpt><trkpt lat="43.37558" lon="10.838495"><ele>154.66666666666669</ele><time>2026-04-18T10:51:51.51Z</time></trkpt><trkpt lat="43.375605" lon="10.8384067"><ele>154.0</ele><time>2026-04-18T10:51:53.51Z</time></trkpt><trkpt lat="43.37564" lon="10.8383067"><ele>153.85714285714286</ele><time>2026-04-18T10:51:55.511Z</time></trkpt><trkpt lat="43.3756717" lon="10.8382283"><ele>153.71428571428572</ele><time>2026-04-18T10:51:57.511Z</time></trkpt><trkpt lat="43.375715" lon="10.8381633"><ele>153.57142857142856</ele><time>2026-04-18T10:51:59.511Z</time></trkpt><trkpt lat="43.37577" lon="10.838105"><ele>153.42857142857144</ele><time>2026-04-18T10:52:02.51Z</time></trkpt><trkpt lat="43.375845" lon="10.8380683"><ele>153.28571428571428</ele><time>2026-04-18T10:52:05.51Z</time></trkpt><trkpt lat="43.3759167" lon="10.8380483"><ele>153.14285714285714</ele><time>2026-04-18T10:52:07.511Z</time></trkpt><trkpt lat="43.376" lon="10.838045"><ele>153.0</ele><time>2026-04-18T10:52:09.51Z</time></trkpt><trkpt lat="43.3760967" lon="10.8380567"><ele>153.0</ele><time>2026-04-18T10:52:11.51Z</time></trkpt><trkpt lat="43.3762167" lon="10.8380783"><ele>153.0</ele><time>2026-04-18T10:52:13.511Z</time></trkpt><trkpt lat="43.3763367" lon="10.8380917"><ele>153.0</ele><time>2026-04-18T10:52:15.51Z</time></trkpt><trkpt lat="43.3764067" lon="10.8380917"><ele>153.0</ele><time>2026-04-18T10:52:16.51Z</time></trkpt><trkpt lat="43.3764733" lon="10.8380833"><ele>153.0</ele><time>2026-04-18T10:52:17.51Z</time></trkpt><trkpt lat="43.3765917" lon="10.83806"><ele>150.20000000000002</ele><time>2026-04-18T10:52:19.51Z</time></trkpt><trkpt lat="43.376685" lon="10.83805"><ele>147.4</ele><time>2026-04-18T10:52:21.51Z</time></trkpt><trkpt lat="43.376795" lon="10.838065"><ele>144.60000000000002</ele><time>2026-04-18T10:52:23.51Z</time></trkpt><trkpt lat="43.3769233" lon="10.8380717"><ele>141.8</ele><time>2026-04-18T10:52:25.511Z</time></trkpt><trkpt lat="43.3769883" lon="10.8380767"><ele>139.0</ele><time>2026-04-18T10:52:26.51Z</time></trkpt><trkpt lat="43.3770583" lon="10.8380783"><ele>139.0</ele><time>2026-04-18T10:52:27.511Z</time></trkpt><trkpt lat="43.377125" lon="10.838085"><ele>139.0</ele><time>2026-04-18T10:52:28.51Z</time></trkpt><trkpt lat="43.3771933" lon="10.8380817"><ele>139.0</ele><time>2026-04-18T10:52:29.51Z</time></trkpt><trkpt lat="43.3773033" lon="10.8380567"><ele>139.0</ele><time>2026-04-18T10:52:31.51Z</time></trkpt><trkpt lat="43.3773967" lon="10.8379917"><ele>139.0</ele><time>2026-04-18T10:52:33.51Z</time></trkpt><trkpt lat="43.3774617" lon="10.8378733"><ele>137.16666666666669</ele><time>2026-04-18T10:52:35.51Z</time></trkpt><trkpt lat="43.3774933" lon="10.8377983"><ele>135.33333333333334</ele><time>2026-04-18T10:52:36.51Z</time></trkpt><trkpt lat="43.3775317" lon="10.8377067"><ele>133.5</ele><time>2026-04-18T10:52:37.509Z</time></trkpt><trkpt lat="43.3775667" lon="10.8376133"><ele>131.66666666666666</ele><time>2026-04-18T10:52:38.509Z</time></trkpt><trkpt lat="43.3775983" lon="10.83753"><ele>129.83333333333331</ele><time>2026-04-18T10:52:39.51Z</time></trkpt><trkpt lat="43.3776517" lon="10.8374383"><ele>128.0</ele><time>2026-04-18T10:52:41.509Z</time></trkpt><trkpt lat="43.3777567" lon="10.837415"><ele>127.99999999999999</ele><time>2026-04-18T10:52:43.509Z</time></trkpt><trkpt lat="43.3778267" lon="10.8373983"><ele>128.0</ele><time>2026-04-18T10:52:44.509Z</time></trkpt><trkpt lat="43.3779017" lon="10.8373583"><ele>128.0</ele><time>2026-04-18T10:52:45.51Z</time></trkpt><trkpt lat="43.3779967" lon="10.83731"><ele>128.0</ele><time>2026-04-18T10:52:46.509Z</time></trkpt><trkpt lat="43.37809" lon="10.8372767"><ele>127.99999999999999</ele><time>2026-04-18T10:52:47.509Z</time></trkpt><trkpt lat="43.3781633" lon="10.8372567"><ele>128.0</ele><time>2026-04-18T10:52:48.509Z</time></trkpt><trkpt lat="43.3782517" lon="10.8372317"><ele>127.4</ele><time>2026-04-18T10:52:50.509Z</time></trkpt><trkpt lat="43.3782933" lon="10.8371133"><ele>126.80000000000001</ele><time>2026-04-18T10:52:53.509Z</time></trkpt><trkpt lat="43.3783017" lon="10.8369133"><ele>126.2</ele><time>2026-04-18T10:52:55.51Z</time></trkpt><trkpt lat="43.3782983" lon="10.836785"><ele>125.6</ele><time>2026-04-18T10:52:56.509Z</time></trkpt><trkpt lat="43.3782983" lon="10.8366433"><ele>125.0</ele><time>2026-04-18T10:52:57.509Z</time></trkpt><trkpt lat="43.3782983" lon="10.836495"><ele>125.0</ele><time>2026-04-18T10:52:58.509Z</time></trkpt><trkpt lat="43.3782983" lon="10.8363533"><ele>125.0</ele><time>2026-04-18T10:52:59.509Z</time></trkpt><trkpt lat="43.3782867" lon="10.836205"><ele>125.0</ele><time>2026-04-18T10:53:00.509Z</time></trkpt><trkpt lat="43.37827" lon="10.8360517"><ele>125.0</ele><time>2026-04-18T10:53:01.509Z</time></trkpt><trkpt lat="43.3782433" lon="10.8358967"><ele>125.0</ele><time>2026-04-18T10:53:02.509Z</time></trkpt><trkpt lat="43.378215" lon="10.835735"><ele>125.25</ele><time>2026-04-18T10:53:03.509Z</time></trkpt><trkpt lat="43.3781833" lon="10.835575"><ele>125.5</ele><time>2026-04-18T10:53:04.509Z</time></trkpt><trkpt lat="43.3781533" lon="10.83542"><ele>125.75</ele><time>2026-04-18T10:53:05.509Z</time></trkpt><trkpt lat="43.378125" lon="10.8352733"><ele>126.0</ele><time>2026-04-18T10:53:06.509Z</time></trkpt><trkpt lat="43.37809" lon="10.8351317"><ele>126.4</ele><time>2026-04-18T10:53:07.509Z</time></trkpt><trkpt lat="43.3780433" lon="10.8350017"><ele>126.8</ele><time>2026-04-18T10:53:08.509Z</time></trkpt><trkpt lat="43.3780017" lon="10.8348717"><ele>127.20000000000002</ele><time>2026-04-18T10:53:09.509Z</time></trkpt><trkpt lat="43.3779583" lon="10.8347483"><ele>127.60000000000001</ele><time>2026-04-18T10:53:10.509Z</time></trkpt><trkpt lat="43.3779183" lon="10.8346367"><ele>128.0</ele><time>2026-04-18T10:53:11.509Z</time></trkpt><trkpt lat="43.377875" lon="10.8345317"><ele>126.80000000000001</ele><time>2026-04-18T10:53:12.509Z</time></trkpt><trkpt lat="43.3778367" lon="10.8344167"><ele>125.60000000000001</ele><time>2026-04-18T10:53:13.509Z</time></trkpt><trkpt lat="43.37779" lon="10.8342983"><ele>124.39999999999999</ele><time>2026-04-18T10:53:14.509Z</time></trkpt><trkpt lat="43.377735" lon="10.8341867"><ele>123.19999999999999</ele><time>2026-04-18T10:53:15.509Z</time></trkpt><trkpt lat="43.3776683" lon="10.8340683"><ele>122.0</ele><time>2026-04-18T10:53:16.509Z</time></trkpt><trkpt lat="43.3775883" lon="10.8339467"><ele>122.0</ele><time>2026-04-18T10:53:17.509Z</time></trkpt><trkpt lat="43.3775117" lon="10.83383"><ele>121.99999999999999</ele><time>2026-04-18T10:53:18.509Z</time></trkpt><trkpt lat="43.3774417" lon="10.8337217"><ele>121.99999999999999</ele><time>2026-04-18T10:53:19.509Z</time></trkpt><trkpt lat="43.3773667" lon="10.8336233"><ele>122.0</ele><time>2026-04-18T10:53:20.509Z</time></trkpt><trkpt lat="43.3772933" lon="10.8335167"><ele>122.0</ele><time>2026-04-18T10:53:21.509Z</time></trkpt><trkpt lat="43.3772133" lon="10.8334183"><ele>120.5</ele><time>2026-04-18T10:53:22.509Z</time></trkpt><trkpt lat="43.3770367" lon="10.8332167"><ele>119.0</ele><time>2026-04-18T10:53:24.509Z</time></trkpt><trkpt lat="43.3769433" lon="10.8331233"><ele>117.5</ele><time>2026-04-18T10:53:25.509Z</time></trkpt><trkpt lat="43.3768583" lon="10.83304"><ele>116.0</ele><time>2026-04-18T10:53:26.509Z</time></trkpt><trkpt lat="43.376765" lon="10.8329567"><ele>116.0</ele><time>2026-04-18T10:53:27.51Z</time></trkpt><trkpt lat="43.3766683" lon="10.83287"><ele>116.0</ele><time>2026-04-18T10:53:28.509Z</time></trkpt><trkpt lat="43.3765567" lon="10.8327883"><ele>116.0</ele><time>2026-04-18T10:53:29.509Z</time></trkpt><trkpt lat="43.376445" lon="10.8327067"><ele>116.0</ele><time>2026-04-18T10:53:30.509Z</time></trkpt><trkpt lat="43.376335" lon="10.832625"><ele>116.25</ele><time>2026-04-18T10:53:31.509Z</time></trkpt><trkpt lat="43.3762317" lon="10.832545"><ele>116.5</ele><time>2026-04-18T10:53:32.509Z</time></trkpt><trkpt lat="43.3761317" lon="10.8324567"><ele>116.75</ele><time>2026-04-18T10:53:33.509Z</time></trkpt><trkpt lat="43.3760367" lon="10.832375"><ele>117.0</ele><time>2026-04-18T10:53:34.509Z</time></trkpt><trkpt lat="43.375935" lon="10.8323"><ele>117.0</ele><time>2026-04-18T10:53:35.509Z</time></trkpt><trkpt lat="43.3758367" lon="10.83223"><ele>116.99999999999999</ele><time>2026-04-18T10:53:36.509Z</time></trkpt><trkpt lat="43.3757367" lon="10.8321667"><ele>116.99999999999999</ele><time>2026-04-18T10:53:37.509Z</time></trkpt><trkpt lat="43.37564" lon="10.8321117"><ele>117.0</ele><time>2026-04-18T10:53:38.509Z</time></trkpt><trkpt lat="43.375535" lon="10.832055"><ele>117.0</ele><time>2026-04-18T10:53:39.509Z</time></trkpt><trkpt lat="43.37543" lon="10.832005"><ele>116.0</ele><time>2026-04-18T10:53:40.509Z</time></trkpt><trkpt lat="43.375325" lon="10.831965"><ele>114.99999999999999</ele><time>2026-04-18T10:53:41.509Z</time></trkpt><trkpt lat="43.3752217" lon="10.8319283"><ele>113.99999999999999</ele><time>2026-04-18T10:53:42.509Z</time></trkpt><trkpt lat="43.3751133" lon="10.8318933"><ele>113.0</ele><time>2026-04-18T10:53:43.509Z</time></trkpt><trkpt lat="43.3750117" lon="10.8318633"><ele>112.0</ele><time>2026-04-18T10:53:44.509Z</time></trkpt><trkpt lat="43.3749083" lon="10.83184"><ele>112.0</ele><time>2026-04-18T10:53:45.509Z</time></trkpt><trkpt lat="43.3748033" lon="10.8318233"><ele>111.99999999999999</ele><time>2026-04-18T10:53:46.509Z</time></trkpt><trkpt lat="43.3746967" lon="10.831815"><ele>111.99999999999999</ele><time>2026-04-18T10:53:47.51Z</time></trkpt><trkpt lat="43.3745917" lon="10.8318083"><ele>112.0</ele><time>2026-04-18T10:53:48.509Z</time></trkpt><trkpt lat="43.3744917" lon="10.8318117"><ele>112.0</ele><time>2026-04-18T10:53:49.509Z</time></trkpt><trkpt lat="43.3743983" lon="10.8318233"><ele>111.6</ele><time>2026-04-18T10:53:50.509Z</time></trkpt><trkpt lat="43.374295" lon="10.8318367"><ele>111.19999999999999</ele><time>2026-04-18T10:53:51.509Z</time></trkpt><trkpt lat="43.3741917" lon="10.8318583"><ele>110.8</ele><time>2026-04-18T10:53:52.509Z</time></trkpt><trkpt lat="43.37409" lon="10.8318817"><ele>110.4</ele><time>2026-04-18T10:53:53.509Z</time></trkpt><trkpt lat="43.3739917" lon="10.8319067"><ele>110.0</ele><time>2026-04-18T10:53:54.509Z</time></trkpt><trkpt lat="43.373895" lon="10.8319383"><ele>109.8</ele><time>2026-04-18T10:53:55.509Z</time></trkpt><trkpt lat="43.3737883" lon="10.8319733"><ele>109.6</ele><time>2026-04-18T10:53:56.51Z</time></trkpt><trkpt lat="43.3736817" lon="10.8320033"><ele>109.4</ele><time>2026-04-18T10:53:57.509Z</time></trkpt><trkpt lat="43.37358" lon="10.8320417"><ele>109.2</ele><time>2026-04-18T10:53:58.509Z</time></trkpt><trkpt lat="43.37347" lon="10.83208"><ele>109.0</ele><time>2026-04-18T10:53:59.509Z</time></trkpt><trkpt lat="43.373365" lon="10.8321167"><ele>109.0</ele><time>2026-04-18T10:54:00.509Z</time></trkpt><trkpt lat="43.373265" lon="10.8321517"><ele>109.0</ele><time>2026-04-18T10:54:01.509Z</time></trkpt><trkpt lat="43.3731733" lon="10.8321833"><ele>109.0</ele><time>2026-04-18T10:54:02.509Z</time></trkpt><trkpt lat="43.3730667" lon="10.8322167"><ele>109.0</ele><time>2026-04-18T10:54:03.509Z</time></trkpt><trkpt lat="43.3729633" lon="10.8322417"><ele>109.0</ele><time>2026-04-18T10:54:04.509Z</time></trkpt><trkpt lat="43.3728633" lon="10.832255"><ele>109.00000000000001</ele><time>2026-04-18T10:54:05.509Z</time></trkpt><trkpt lat="43.3727667" lon="10.832275"><ele>109.0</ele><time>2026-04-18T10:54:06.509Z</time></trkpt><trkpt lat="43.3726717" lon="10.8322933"><ele>109.0</ele><time>2026-04-18T10:54:07.509Z</time></trkpt><trkpt lat="43.37259" lon="10.8323183"><ele>109.0</ele><time>2026-04-18T10:54:08.509Z</time></trkpt><trkpt lat="43.3725183" lon="10.8323433"><ele>109.00000000000001</ele><time>2026-04-18T10:54:09.509Z</time></trkpt><trkpt lat="43.3724383" lon="10.8323667"><ele>109.0</ele><time>2026-04-18T10:54:10.509Z</time></trkpt><trkpt lat="43.372365" lon="10.8323883"><ele>109.0</ele><time>2026-04-18T10:54:11.509Z</time></trkpt><trkpt lat="43.3722883" lon="10.8324117"><ele>109.0</ele><time>2026-04-18T10:54:12.509Z</time></trkpt><trkpt lat="43.3722" lon="10.832425"><ele>109.0</ele><time>2026-04-18T10:54:13.509Z</time></trkpt><trkpt lat="43.3720983" lon="10.8324283"><ele>109.0</ele><time>2026-04-18T10:54:14.509Z</time></trkpt><trkpt lat="43.3719967" lon="10.832425"><ele>109.0</ele><time>2026-04-18T10:54:15.509Z</time></trkpt><trkpt lat="43.3718933" lon="10.8324167"><ele>108.4</ele><time>2026-04-18T10:54:16.509Z</time></trkpt><trkpt lat="43.3718033" lon="10.83241"><ele>107.80000000000001</ele><time>2026-04-18T10:54:17.509Z</time></trkpt><trkpt lat="43.3717117" lon="10.8324017"><ele>107.19999999999999</ele><time>2026-04-18T10:54:18.509Z</time></trkpt><trkpt lat="43.3716133" lon="10.8323817"><ele>106.6</ele><time>2026-04-18T10:54:19.509Z</time></trkpt><trkpt lat="43.3715167" lon="10.83235"><ele>106.0</ele><time>2026-04-18T10:54:20.509Z</time></trkpt><trkpt lat="43.371425" lon="10.8323117"><ele>104.8</ele><time>2026-04-18T10:54:21.509Z</time></trkpt><trkpt lat="43.3713383" lon="10.8322733"><ele>103.6</ele><time>2026-04-18T10:54:22.509Z</time></trkpt><trkpt lat="43.37125" lon="10.8322217"><ele>102.4</ele><time>2026-04-18T10:54:23.51Z</time></trkpt><trkpt lat="43.371165" lon="10.8321617"><ele>101.2</ele><time>2026-04-18T10:54:24.509Z</time></trkpt><trkpt lat="43.371085" lon="10.8321017"><ele>100.0</ele><time>2026-04-18T10:54:25.509Z</time></trkpt><trkpt lat="43.371005" lon="10.8320333"><ele>100.00000000000001</ele><time>2026-04-18T10:54:26.509Z</time></trkpt><trkpt lat="43.37093" lon="10.8319633"><ele>100.0</ele><time>2026-04-18T10:54:27.509Z</time></trkpt><trkpt lat="43.370865" lon="10.8318867"><ele>100.0</ele><time>2026-04-18T10:54:28.509Z</time></trkpt><trkpt lat="43.3708067" lon="10.8318067"><ele>100.0</ele><time>2026-04-18T10:54:29.509Z</time></trkpt><trkpt lat="43.37074" lon="10.831715"><ele>100.00000000000001</ele><time>2026-04-18T10:54:30.509Z</time></trkpt><trkpt lat="43.3706767" lon="10.8316283"><ele>100.0</ele><time>2026-04-18T10:54:31.509Z</time></trkpt><trkpt lat="43.37062" lon="10.8315433"><ele>99.0</ele><time>2026-04-18T10:54:32.509Z</time></trkpt><trkpt lat="43.3705667" lon="10.831455"><ele>98.0</ele><time>2026-04-18T10:54:33.509Z</time></trkpt><trkpt lat="43.3705183" lon="10.8313717"><ele>97.0</ele><time>2026-04-18T10:54:34.509Z</time></trkpt><trkpt lat="43.3704683" lon="10.8312733"><ele>96.0</ele><time>2026-04-18T10:54:35.509Z</time></trkpt><trkpt lat="43.3704117" lon="10.8311617"><ele>95.0</ele><time>2026-04-18T10:54:36.509Z</time></trkpt><trkpt lat="43.3703533" lon="10.8310383"><ele>95.75</ele><time>2026-04-18T10:54:37.509Z</time></trkpt><trkpt lat="43.37029" lon="10.8309"><ele>96.5</ele><time>2026-04-18T10:54:38.509Z</time></trkpt><trkpt lat="43.3702183" lon="10.8307633"><ele>97.25</ele><time>2026-04-18T10:54:39.509Z</time></trkpt><trkpt lat="43.3701583" lon="10.8306317"><ele>98.0</ele><time>2026-04-18T10:54:40.509Z</time></trkpt><trkpt lat="43.3700983" lon="10.830515"><ele>98.0</ele><time>2026-04-18T10:54:41.509Z</time></trkpt><trkpt lat="43.3700417" lon="10.8303917"><ele>98.0</ele><time>2026-04-18T10:54:42.509Z</time></trkpt><trkpt lat="43.3699917" lon="10.8302733"><ele>98.0</ele><time>2026-04-18T10:54:43.509Z</time></trkpt><trkpt lat="43.36994" lon="10.8301567"><ele>98.0</ele><time>2026-04-18T10:54:44.509Z</time></trkpt><trkpt lat="43.36989" lon="10.83004"><ele>98.0</ele><time>2026-04-18T10:54:45.509Z</time></trkpt><trkpt lat="43.3698533" lon="10.8299267"><ele>98.80000000000001</ele><time>2026-04-18T10:54:46.51Z</time></trkpt><trkpt lat="43.3698167" lon="10.8298033"><ele>99.6</ele><time>2026-04-18T10:54:47.509Z</time></trkpt><trkpt lat="43.3697833" lon="10.8296683"><ele>100.4</ele><time>2026-04-18T10:54:48.509Z</time></trkpt><trkpt lat="43.3697483" lon="10.8295267"><ele>101.19999999999999</ele><time>2026-04-18T10:54:49.509Z</time></trkpt><trkpt lat="43.3697117" lon="10.8293817"><ele>102.0</ele><time>2026-04-18T10:54:50.509Z</time></trkpt><trkpt lat="43.36967" lon="10.8292317"><ele>99.75</ele><time>2026-04-18T10:54:51.509Z</time></trkpt><trkpt lat="43.36963" lon="10.829085"><ele>97.5</ele><time>2026-04-18T10:54:52.51Z</time></trkpt><trkpt lat="43.3695867" lon="10.828945"><ele>95.25</ele><time>2026-04-18T10:54:53.509Z</time></trkpt><trkpt lat="43.36955" lon="10.8287967"><ele>93.0</ele><time>2026-04-18T10:54:54.509Z</time></trkpt><trkpt lat="43.3695133" lon="10.8286283"><ele>93.2</ele><time>2026-04-18T10:54:55.509Z</time></trkpt><trkpt lat="43.3694817" lon="10.82847"><ele>93.4</ele><time>2026-04-18T10:54:56.509Z</time></trkpt><trkpt lat="43.3694517" lon="10.828325"><ele>93.60000000000001</ele><time>2026-04-18T10:54:57.509Z</time></trkpt><trkpt lat="43.3694233" lon="10.8281867"><ele>93.80000000000001</ele><time>2026-04-18T10:54:58.509Z</time></trkpt><trkpt lat="43.3693933" lon="10.8280567"><ele>94.0</ele><time>2026-04-18T10:54:59.509Z</time></trkpt><trkpt lat="43.3693667" lon="10.82792"><ele>94.0</ele><time>2026-04-18T10:55:00.51Z</time></trkpt><trkpt lat="43.3693533" lon="10.827795"><ele>94.0</ele><time>2026-04-18T10:55:01.509Z</time></trkpt><trkpt lat="43.3693483" lon="10.82767"><ele>94.0</ele><time>2026-04-18T10:55:02.509Z</time></trkpt><trkpt lat="43.3693517" lon="10.827535"><ele>94.0</ele><time>2026-04-18T10:55:03.509Z</time></trkpt><trkpt lat="43.369355" lon="10.8273783"><ele>94.0</ele><time>2026-04-18T10:55:04.509Z</time></trkpt><trkpt lat="43.36936" lon="10.8272467"><ele>94.16666666666666</ele><time>2026-04-18T10:55:05.51Z</time></trkpt><trkpt lat="43.3693633" lon="10.8271233"><ele>94.33333333333333</ele><time>2026-04-18T10:55:06.509Z</time></trkpt><trkpt lat="43.369375" lon="10.8269967"><ele>94.5</ele><time>2026-04-18T10:55:07.509Z</time></trkpt><trkpt lat="43.369385" lon="10.8268733"><ele>94.66666666666667</ele><time>2026-04-18T10:55:08.51Z</time></trkpt><trkpt lat="43.369405" lon="10.8267617"><ele>94.83333333333334</ele><time>2026-04-18T10:55:09.509Z</time></trkpt><trkpt lat="43.3694267" lon="10.826645"><ele>95.0</ele><time>2026-04-18T10:55:10.509Z</time></trkpt><trkpt lat="43.36945" lon="10.82653"><ele>94.4</ele><time>2026-04-18T10:55:11.509Z</time></trkpt><trkpt lat="43.36948" lon="10.8264133"><ele>93.8</ele><time>2026-04-18T10:55:12.509Z</time></trkpt><trkpt lat="43.369515" lon="10.8262817"><ele>93.19999999999999</ele><time>2026-04-18T10:55:13.51Z</time></trkpt><trkpt lat="43.3695567" lon="10.826135"><ele>92.6</ele><time>2026-04-18T10:55:14.509Z</time></trkpt><trkpt lat="43.3696033" lon="10.825975"><ele>92.0</ele><time>2026-04-18T10:55:15.509Z</time></trkpt><trkpt lat="43.36965" lon="10.8258167"><ele>91.19999999999999</ele><time>2026-04-18T10:55:16.509Z</time></trkpt><trkpt lat="43.3696883" lon="10.82567"><ele>90.4</ele><time>2026-04-18T10:55:17.509Z</time></trkpt><trkpt lat="43.369725" lon="10.82553"><ele>89.6</ele><time>2026-04-18T10:55:18.509Z</time></trkpt><trkpt lat="43.3697567" lon="10.825395"><ele>88.80000000000001</ele><time>2026-04-18T10:55:19.509Z</time></trkpt><trkpt lat="43.36978" lon="10.8252683"><ele>88.0</ele><time>2026-04-18T10:55:20.509Z</time></trkpt><trkpt lat="43.3697983" lon="10.8251467"><ele>88.33333333333333</ele><time>2026-04-18T10:55:21.509Z</time></trkpt><trkpt lat="43.36981" lon="10.8250333"><ele>88.66666666666666</ele><time>2026-04-18T10:55:22.509Z</time></trkpt><trkpt lat="43.3698117" lon="10.8249183"><ele>89.0</ele><time>2026-04-18T10:55:23.509Z</time></trkpt><trkpt lat="43.3698117" lon="10.824795"><ele>89.33333333333333</ele><time>2026-04-18T10:55:24.509Z</time></trkpt><trkpt lat="43.369805" lon="10.82467"><ele>89.66666666666667</ele><time>2026-04-18T10:55:25.509Z</time></trkpt><trkpt lat="43.36979" lon="10.8245317"><ele>90.0</ele><time>2026-04-18T10:55:26.51Z</time></trkpt><trkpt lat="43.3697783" lon="10.8243883"><ele>89.2</ele><time>2026-04-18T10:55:27.509Z</time></trkpt><trkpt lat="43.36976" lon="10.8242533"><ele>88.4</ele><time>2026-04-18T10:55:28.509Z</time></trkpt><trkpt lat="43.3697433" lon="10.82412"><ele>87.6</ele><time>2026-04-18T10:55:29.509Z</time></trkpt><trkpt lat="43.36972" lon="10.8240033"><ele>86.8</ele><time>2026-04-18T10:55:30.509Z</time></trkpt><trkpt lat="43.369685" lon="10.8238783"><ele>86.0</ele><time>2026-04-18T10:55:31.509Z</time></trkpt><trkpt lat="43.3696367" lon="10.8237467"><ele>85.8</ele><time>2026-04-18T10:55:32.509Z</time></trkpt><trkpt lat="43.3695833" lon="10.8236133"><ele>85.6</ele><time>2026-04-18T10:55:33.509Z</time></trkpt><trkpt lat="43.36953" lon="10.8234867"><ele>85.4</ele><time>2026-04-18T10:55:34.509Z</time></trkpt><trkpt lat="43.3694783" lon="10.82336"><ele>85.2</ele><time>2026-04-18T10:55:35.509Z</time></trkpt><trkpt lat="43.3694233" lon="10.8232533"><ele>85.0</ele><time>2026-04-18T10:55:36.51Z</time></trkpt><trkpt lat="43.369355" lon="10.823145"><ele>85.0</ele><time>2026-04-18T10:55:37.509Z</time></trkpt><trkpt lat="43.3692817" lon="10.8230433"><ele>85.0</ele><time>2026-04-18T10:55:38.509Z</time></trkpt><trkpt lat="43.3692" lon="10.8229433"><ele>85.0</ele><time>2026-04-18T10:55:39.509Z</time></trkpt><trkpt lat="43.36911" lon="10.8228417"><ele>85.0</ele><time>2026-04-18T10:55:40.509Z</time></trkpt><trkpt lat="43.3690117" lon="10.8227467"><ele>84.75</ele><time>2026-04-18T10:55:41.509Z</time></trkpt><trkpt lat="43.3689067" lon="10.822645"><ele>84.5</ele><time>2026-04-18T10:55:42.509Z</time></trkpt><trkpt lat="43.3687983" lon="10.82255"><ele>84.25</ele><time>2026-04-18T10:55:43.509Z</time></trkpt><trkpt lat="43.3686917" lon="10.8224517"><ele>84.0</ele><time>2026-04-18T10:55:44.509Z</time></trkpt><trkpt lat="43.3685833" lon="10.822365"><ele>84.0</ele><time>2026-04-18T10:55:45.509Z</time></trkpt><trkpt lat="43.3684717" lon="10.8222617"><ele>84.0</ele><time>2026-04-18T10:55:46.51Z</time></trkpt><trkpt lat="43.368365" lon="10.8221683"><ele>84.0</ele><time>2026-04-18T10:55:47.509Z</time></trkpt><trkpt lat="43.3682667" lon="10.82208"><ele>84.0</ele><time>2026-04-18T10:55:48.509Z</time></trkpt><trkpt lat="43.3681767" lon="10.8219983"><ele>84.0</ele><time>2026-04-18T10:55:49.51Z</time></trkpt><trkpt lat="43.3680917" lon="10.8219183"><ele>84.0</ele><time>2026-04-18T10:55:50.509Z</time></trkpt><trkpt lat="43.368005" lon="10.8218333"><ele>84.0</ele><time>2026-04-18T10:55:51.508Z</time></trkpt><trkpt lat="43.3679133" lon="10.8217483"><ele>84.0</ele><time>2026-04-18T10:55:52.508Z</time></trkpt><trkpt lat="43.36781" lon="10.821655"><ele>84.0</ele><time>2026-04-18T10:55:53.508Z</time></trkpt><trkpt lat="43.3677083" lon="10.8215683"><ele>84.2</ele><time>2026-04-18T10:55:54.508Z</time></trkpt><trkpt lat="43.3676033" lon="10.8214833"><ele>84.4</ele><time>2026-04-18T10:55:55.508Z</time></trkpt><trkpt lat="43.36751" lon="10.8213933"><ele>84.6</ele><time>2026-04-18T10:55:56.508Z</time></trkpt><trkpt lat="43.3674283" lon="10.8213133"><ele>84.8</ele><time>2026-04-18T10:55:57.508Z</time></trkpt><trkpt lat="43.36735" lon="10.82124"><ele>85.0</ele><time>2026-04-18T10:55:58.508Z</time></trkpt><trkpt lat="43.3672767" lon="10.82117"><ele>85.0</ele><time>2026-04-18T10:55:59.508Z</time></trkpt><trkpt lat="43.3672083" lon="10.82111"><ele>85.0</ele><time>2026-04-18T10:56:00.508Z</time></trkpt><trkpt lat="43.367145" lon="10.8210567"><ele>85.0</ele><time>2026-04-18T10:56:01.508Z</time></trkpt><trkpt lat="43.367085" lon="10.8210117"><ele>85.0</ele><time>2026-04-18T10:56:02.509Z</time></trkpt><trkpt lat="43.366985" lon="10.82093"><ele>85.0</ele><time>2026-04-18T10:56:04.508Z</time></trkpt><trkpt lat="43.3669083" lon="10.8208567"><ele>85.0</ele><time>2026-04-18T10:56:06.508Z</time></trkpt><trkpt lat="43.3668333" lon="10.8208"><ele>84.0</ele><time>2026-04-18T10:56:08.508Z</time></trkpt><trkpt lat="43.3667533" lon="10.8207183"><ele>83.0</ele><time>2026-04-18T10:56:10.508Z</time></trkpt><trkpt lat="43.3666867" lon="10.8206217"><ele>82.0</ele><time>2026-04-18T10:56:12.508Z</time></trkpt><trkpt lat="43.3666" lon="10.8205167"><ele>81.0</ele><time>2026-04-18T10:56:14.509Z</time></trkpt><trkpt lat="43.3665467" lon="10.82046"><ele>80.0</ele><time>2026-04-18T10:56:15.508Z</time></trkpt><trkpt lat="43.366495" lon="10.8203933"><ele>80.0</ele><time>2026-04-18T10:56:16.508Z</time></trkpt><trkpt lat="43.36644" lon="10.8203267"><ele>80.0</ele><time>2026-04-18T10:56:17.508Z</time></trkpt><trkpt lat="43.3663833" lon="10.820245"><ele>80.0</ele><time>2026-04-18T10:56:18.508Z</time></trkpt><trkpt lat="43.3663233" lon="10.8201617"><ele>80.0</ele><time>2026-04-18T10:56:19.508Z</time></trkpt><trkpt lat="43.3662617" lon="10.8200717"><ele>80.0</ele><time>2026-04-18T10:56:20.508Z</time></trkpt><trkpt lat="43.3661967" lon="10.819985"><ele>80.0</ele><time>2026-04-18T10:56:21.509Z</time></trkpt><trkpt lat="43.3661317" lon="10.8198933"><ele>79.8</ele><time>2026-04-18T10:56:22.509Z</time></trkpt><trkpt lat="43.366075" lon="10.8198033"><ele>79.6</ele><time>2026-04-18T10:56:23.508Z</time></trkpt><trkpt lat="43.3660133" lon="10.8197117"><ele>79.4</ele><time>2026-04-18T10:56:24.508Z</time></trkpt><trkpt lat="43.3659517" lon="10.8196233"><ele>79.2</ele><time>2026-04-18T10:56:25.508Z</time></trkpt><trkpt lat="43.365875" lon="10.81952"><ele>79.0</ele><time>2026-04-18T10:56:26.509Z</time></trkpt><trkpt lat="43.3658033" lon="10.8194067"><ele>79.0</ele><time>2026-04-18T10:56:27.508Z</time></trkpt><trkpt lat="43.3657167" lon="10.8192883"><ele>79.0</ele><time>2026-04-18T10:56:28.509Z</time></trkpt><trkpt lat="43.3656283" lon="10.81917"><ele>79.0</ele><time>2026-04-18T10:56:29.508Z</time></trkpt><trkpt lat="43.3655517" lon="10.8190667"><ele>79.0</ele><time>2026-04-18T10:56:30.508Z</time></trkpt><trkpt lat="43.3654833" lon="10.81896"><ele>79.0</ele><time>2026-04-18T10:56:31.508Z</time></trkpt><trkpt lat="43.365415" lon="10.818855"><ele>79.0</ele><time>2026-04-18T10:56:32.509Z</time></trkpt><trkpt lat="43.3653367" lon="10.818755"><ele>79.0</ele><time>2026-04-18T10:56:33.508Z</time></trkpt><trkpt lat="43.36527" lon="10.81865"><ele>79.0</ele><time>2026-04-18T10:56:34.509Z</time></trkpt><trkpt lat="43.3652067" lon="10.8185533"><ele>79.0</ele><time>2026-04-18T10:56:35.508Z</time></trkpt><trkpt lat="43.36514" lon="10.8184533"><ele>78.4</ele><time>2026-04-18T10:56:36.509Z</time></trkpt><trkpt lat="43.36506" lon="10.8183483"><ele>77.80000000000001</ele><time>2026-04-18T10:56:37.508Z</time></trkpt><trkpt lat="43.3649867" lon="10.8182467"><ele>77.19999999999999</ele><time>2026-04-18T10:56:38.508Z</time></trkpt><trkpt lat="43.3649133" lon="10.818145"><ele>76.6</ele><time>2026-04-18T10:56:39.508Z</time></trkpt><trkpt lat="43.3648383" lon="10.8180367"><ele>76.0</ele><time>2026-04-18T10:56:40.508Z</time></trkpt><trkpt lat="43.3647533" lon="10.817915"><ele>76.0</ele><time>2026-04-18T10:56:41.508Z</time></trkpt><trkpt lat="43.3646717" lon="10.817795"><ele>76.0</ele><time>2026-04-18T10:56:42.508Z</time></trkpt><trkpt lat="43.3646" lon="10.817685"><ele>76.0</ele><time>2026-04-18T10:56:43.508Z</time></trkpt><trkpt lat="43.3645267" lon="10.817575"><ele>76.0</ele><time>2026-04-18T10:56:44.509Z</time></trkpt><trkpt lat="43.3644517" lon="10.81747"><ele>76.0</ele><time>2026-04-18T10:56:45.508Z</time></trkpt><trkpt lat="43.36439" lon="10.8173667"><ele>76.0</ele><time>2026-04-18T10:56:46.508Z</time></trkpt><trkpt lat="43.3643233" lon="10.8172783"><ele>76.0</ele><time>2026-04-18T10:56:47.508Z</time></trkpt><trkpt lat="43.3642667" lon="10.8171983"><ele>76.0</ele><time>2026-04-18T10:56:48.508Z</time></trkpt><trkpt lat="43.3642167" lon="10.8171167"><ele>76.0</ele><time>2026-04-18T10:56:49.509Z</time></trkpt><trkpt lat="43.3641633" lon="10.8170383"><ele>76.0</ele><time>2026-04-18T10:56:50.509Z</time></trkpt><trkpt lat="43.364115" lon="10.81697"><ele>76.0</ele><time>2026-04-18T10:56:51.509Z</time></trkpt><trkpt lat="43.36407" lon="10.816905"><ele>75.8</ele><time>2026-04-18T10:56:52.509Z</time></trkpt><trkpt lat="43.3640117" lon="10.8168033"><ele>75.6</ele><time>2026-04-18T10:56:54.508Z</time></trkpt><trkpt lat="43.3640083" lon="10.8166983"><ele>75.4</ele><time>2026-04-18T10:56:56.508Z</time></trkpt><trkpt lat="43.3640483" lon="10.8165783"><ele>75.2</ele><time>2026-04-18T10:56:58.508Z</time></trkpt><trkpt lat="43.36414" lon="10.8164533"><ele>75.0</ele><time>2026-04-18T10:57:00.508Z</time></trkpt><trkpt lat="43.364195" lon="10.8163733"><ele>75.0</ele><time>2026-04-18T10:57:01.508Z</time></trkpt><trkpt lat="43.3642583" lon="10.8162833"><ele>75.0</ele><time>2026-04-18T10:57:02.508Z</time></trkpt><trkpt lat="43.3643217" lon="10.8161883"><ele>75.0</ele><time>2026-04-18T10:57:03.508Z</time></trkpt><trkpt lat="43.36439" lon="10.8161033"><ele>75.0</ele><time>2026-04-18T10:57:04.508Z</time></trkpt><trkpt lat="43.36445" lon="10.8160183"><ele>75.0</ele><time>2026-04-18T10:57:05.508Z</time></trkpt><trkpt lat="43.364505" lon="10.8159417"><ele>75.0</ele><time>2026-04-18T10:57:06.508Z</time></trkpt><trkpt lat="43.364555" lon="10.8158717"><ele>75.0</ele><time>2026-04-18T10:57:07.508Z</time></trkpt><trkpt lat="43.3646083" lon="10.8157967"><ele>75.0</ele><time>2026-04-18T10:57:08.508Z</time></trkpt><trkpt lat="43.36468" lon="10.8157167"><ele>75.0</ele><time>2026-04-18T10:57:09.508Z</time></trkpt><trkpt lat="43.3647683" lon="10.8156367"><ele>75.0</ele><time>2026-04-18T10:57:10.508Z</time></trkpt><trkpt lat="43.3648517" lon="10.8155517"><ele>75.0</ele><time>2026-04-18T10:57:11.508Z</time></trkpt><trkpt lat="43.3649317" lon="10.8154733"><ele>75.33333333333333</ele><time>2026-04-18T10:57:12.508Z</time></trkpt><trkpt lat="43.3650067" lon="10.8154117"><ele>75.66666666666667</ele><time>2026-04-18T10:57:13.508Z</time></trkpt><trkpt lat="43.3650767" lon="10.81536"><ele>76.0</ele><time>2026-04-18T10:57:14.508Z</time></trkpt><trkpt lat="43.36515" lon="10.8153133"><ele>76.33333333333334</ele><time>2026-04-18T10:57:15.508Z</time></trkpt><trkpt lat="43.3652333" lon="10.8152833"><ele>76.66666666666667</ele><time>2026-04-18T10:57:16.508Z</time></trkpt><trkpt lat="43.3653317" lon="10.8152567"><ele>77.0</ele><time>2026-04-18T10:57:17.508Z</time></trkpt><trkpt lat="43.3654483" lon="10.8152233"><ele>79.0</ele><time>2026-04-18T10:57:18.508Z</time></trkpt><trkpt lat="43.365595" lon="10.8151883"><ele>81.0</ele><time>2026-04-18T10:57:19.508Z</time></trkpt><trkpt lat="43.3657667" lon="10.8151667"><ele>83.0</ele><time>2026-04-18T10:57:20.508Z</time></trkpt><trkpt lat="43.3659383" lon="10.815135"><ele>83.0</ele><time>2026-04-18T10:57:21.508Z</time></trkpt><trkpt lat="43.3661" lon="10.81512"><ele>83.0</ele><time>2026-04-18T10:57:22.508Z</time></trkpt><trkpt lat="43.36625" lon="10.815125"><ele>83.0</ele><time>2026-04-18T10:57:23.509Z</time></trkpt><trkpt lat="43.3663767" lon="10.8151333"><ele>83.0</ele><time>2026-04-18T10:57:24.508Z</time></trkpt><trkpt lat="43.3664733" lon="10.8151467"><ele>83.0</ele><time>2026-04-18T10:57:25.508Z</time></trkpt><trkpt lat="43.3665783" lon="10.8151417"><ele>83.0</ele><time>2026-04-18T10:57:27.508Z</time></trkpt><trkpt lat="43.366605" lon="10.81504"><ele>83.0</ele><time>2026-04-18T10:57:36.509Z</time></trkpt><trkpt lat="43.3664767" lon="10.8149467"><ele>83.0</ele><time>2026-04-18T10:57:38.508Z</time></trkpt><trkpt lat="43.36636" lon="10.81491"><ele>83.0</ele><time>2026-04-18T10:57:39.508Z</time></trkpt><trkpt lat="43.36621" lon="10.8148567"><ele>83.0</ele><time>2026-04-18T10:57:40.508Z</time></trkpt><trkpt lat="43.3660433" lon="10.8147667"><ele>83.0</ele><time>2026-04-18T10:57:41.508Z</time></trkpt><trkpt lat="43.3658917" lon="10.8146517"><ele>83.0</ele><time>2026-04-18T10:57:42.508Z</time></trkpt><trkpt lat="43.3657567" lon="10.8145333"><ele>83.0</ele><time>2026-04-18T10:57:43.508Z</time></trkpt><trkpt lat="43.3656317" lon="10.81442"><ele>83.0</ele><time>2026-04-18T10:57:44.508Z</time></trkpt><trkpt lat="43.365515" lon="10.8143083"><ele>83.0</ele><time>2026-04-18T10:57:45.508Z</time></trkpt><trkpt lat="43.3654033" lon="10.8142033"><ele>83.0</ele><time>2026-04-18T10:57:46.508Z</time></trkpt><trkpt lat="43.3653" lon="10.8141067"><ele>82.2</ele><time>2026-04-18T10:57:47.508Z</time></trkpt><trkpt lat="43.3651983" lon="10.81402"><ele>81.4</ele><time>2026-04-18T10:57:48.508Z</time></trkpt><trkpt lat="43.3651" lon="10.813935"><ele>80.60000000000001</ele><time>2026-04-18T10:57:49.508Z</time></trkpt><trkpt lat="43.3650167" lon="10.8138483"><ele>79.80000000000001</ele><time>2026-04-18T10:57:50.508Z</time></trkpt><trkpt lat="43.3649283" lon="10.8137683"><ele>79.0</ele><time>2026-04-18T10:57:51.508Z</time></trkpt><trkpt lat="43.3648517" lon="10.813685"><ele>79.0</ele><time>2026-04-18T10:57:52.508Z</time></trkpt><trkpt lat="43.364765" lon="10.8136017"><ele>79.0</ele><time>2026-04-18T10:57:53.508Z</time></trkpt><trkpt lat="43.3646733" lon="10.813515"><ele>79.0</ele><time>2026-04-18T10:57:54.508Z</time></trkpt><trkpt lat="43.3645717" lon="10.813425"><ele>79.0</ele><time>2026-04-18T10:57:55.508Z</time></trkpt><trkpt lat="43.3644667" lon="10.8133317"><ele>78.75</ele><time>2026-04-18T10:57:56.508Z</time></trkpt><trkpt lat="43.36435" lon="10.81324"><ele>78.5</ele><time>2026-04-18T10:57:57.508Z</time></trkpt><trkpt lat="43.3642467" lon="10.81313"><ele>78.25</ele><time>2026-04-18T10:57:58.509Z</time></trkpt><trkpt lat="43.3641483" lon="10.8130283"><ele>78.0</ele><time>2026-04-18T10:57:59.508Z</time></trkpt><trkpt lat="43.3640633" lon="10.8129517"><ele>78.0</ele><time>2026-04-18T10:58:00.508Z</time></trkpt><trkpt lat="43.3639817" lon="10.8128983"><ele>78.0</ele><time>2026-04-18T10:58:01.508Z</time></trkpt><trkpt lat="43.3639217" lon="10.8128567"><ele>78.0</ele><time>2026-04-18T10:58:02.509Z</time></trkpt><trkpt lat="43.3638533" lon="10.8127833"><ele>78.0</ele><time>2026-04-18T10:58:04.508Z</time></trkpt><trkpt lat="43.363805" lon="10.8126917"><ele>78.0</ele><time>2026-04-18T10:58:07.509Z</time></trkpt><trkpt lat="43.3636917" lon="10.812635"><ele>78.0</ele><time>2026-04-18T10:58:09.508Z</time></trkpt><trkpt lat="43.363615" lon="10.81262"><ele>78.2</ele><time>2026-04-18T10:58:10.508Z</time></trkpt><trkpt lat="43.3635233" lon="10.8125967"><ele>78.4</ele><time>2026-04-18T10:58:11.508Z</time></trkpt><trkpt lat="43.3634183" lon="10.8125967"><ele>78.60000000000001</ele><time>2026-04-18T10:58:12.508Z</time></trkpt><trkpt lat="43.3633033" lon="10.8126067"><ele>78.8</ele><time>2026-04-18T10:58:13.508Z</time></trkpt><trkpt lat="43.3631867" lon="10.812615"><ele>79.0</ele><time>2026-04-18T10:58:14.508Z</time></trkpt><trkpt lat="43.3630667" lon="10.8126133"><ele>79.0</ele><time>2026-04-18T10:58:15.508Z</time></trkpt><trkpt lat="43.3629467" lon="10.8126217"><ele>79.0</ele><time>2026-04-18T10:58:16.508Z</time></trkpt><trkpt lat="43.3628317" lon="10.8126233"><ele>79.0</ele><time>2026-04-18T10:58:17.508Z</time></trkpt><trkpt lat="43.3627283" lon="10.81263"><ele>79.0</ele><time>2026-04-18T10:58:18.508Z</time></trkpt><trkpt lat="43.36264" lon="10.8126233"><ele>79.0</ele><time>2026-04-18T10:58:19.508Z</time></trkpt><trkpt lat="43.3625333" lon="10.8126017"><ele>79.0</ele><time>2026-04-18T10:58:21.508Z</time></trkpt><trkpt lat="43.3624517" lon="10.8125967"><ele>79.0</ele><time>2026-04-18T10:58:24.508Z</time></trkpt><trkpt lat="43.3623467" lon="10.8125917"><ele>79.0</ele><time>2026-04-18T10:58:26.508Z</time></trkpt><trkpt lat="43.3622833" lon="10.8125833"><ele>79.0</ele><time>2026-04-18T10:58:27.508Z</time></trkpt><trkpt lat="43.3622083" lon="10.8125783"><ele>79.0</ele><time>2026-04-18T10:58:28.508Z</time></trkpt><trkpt lat="43.3621183" lon="10.8125733"><ele>79.0</ele><time>2026-04-18T10:58:29.508Z</time></trkpt><trkpt lat="43.3620217" lon="10.812565"><ele>78.4</ele><time>2026-04-18T10:58:30.509Z</time></trkpt><trkpt lat="43.361925" lon="10.8125433"><ele>77.80000000000001</ele><time>2026-04-18T10:58:31.509Z</time></trkpt><trkpt lat="43.3618167" lon="10.81251"><ele>77.19999999999999</ele><time>2026-04-18T10:58:32.508Z</time></trkpt><trkpt lat="43.361715" lon="10.8124567"><ele>76.6</ele><time>2026-04-18T10:58:33.508Z</time></trkpt><trkpt lat="43.3616117" lon="10.8123967"><ele>76.0</ele><time>2026-04-18T10:58:34.508Z</time></trkpt><trkpt lat="43.3615183" lon="10.8123433"><ele>76.0</ele><time>2026-04-18T10:58:35.508Z</time></trkpt><trkpt lat="43.36142" lon="10.8122633"><ele>76.0</ele><time>2026-04-18T10:58:36.508Z</time></trkpt><trkpt lat="43.361325" lon="10.8121667"><ele>76.0</ele><time>2026-04-18T10:58:37.508Z</time></trkpt><trkpt lat="43.3612317" lon="10.8120533"><ele>76.0</ele><time>2026-04-18T10:58:38.508Z</time></trkpt><trkpt lat="43.3611483" lon="10.8119233"><ele>75.75</ele><time>2026-04-18T10:58:39.508Z</time></trkpt><trkpt lat="43.3610717" lon="10.8117983"><ele>75.5</ele><time>2026-04-18T10:58:40.508Z</time></trkpt><trkpt lat="43.3609933" lon="10.81166"><ele>75.25</ele><time>2026-04-18T10:58:41.508Z</time></trkpt><trkpt lat="43.3609183" lon="10.8115267"><ele>75.0</ele><time>2026-04-18T10:58:42.509Z</time></trkpt><trkpt lat="43.3608433" lon="10.8113983"><ele>75.0</ele><time>2026-04-18T10:58:43.508Z</time></trkpt><trkpt lat="43.3607767" lon="10.8112683"><ele>75.0</ele><time>2026-04-18T10:58:44.508Z</time></trkpt><trkpt lat="43.3607033" lon="10.8111283"><ele>75.0</ele><time>2026-04-18T10:58:45.508Z</time></trkpt><trkpt lat="43.3606417" lon="10.8109517"><ele>75.0</ele><time>2026-04-18T10:58:46.508Z</time></trkpt><trkpt lat="43.3605867" lon="10.81079"><ele>74.4</ele><time>2026-04-18T10:58:47.508Z</time></trkpt><trkpt lat="43.36054" lon="10.8106433"><ele>73.8</ele><time>2026-04-18T10:58:48.508Z</time></trkpt><trkpt lat="43.3604917" lon="10.81051"><ele>73.2</ele><time>2026-04-18T10:58:49.508Z</time></trkpt><trkpt lat="43.3604467" lon="10.81038"><ele>72.6</ele><time>2026-04-18T10:58:50.508Z</time></trkpt><trkpt lat="43.360405" lon="10.8102333"><ele>72.0</ele><time>2026-04-18T10:58:51.509Z</time></trkpt><trkpt lat="43.3603517" lon="10.8100767"><ele>72.0</ele><time>2026-04-18T10:58:52.508Z</time></trkpt><trkpt lat="43.3603017" lon="10.80992"><ele>72.0</ele><time>2026-04-18T10:58:53.508Z</time></trkpt><trkpt lat="43.3602467" lon="10.8097517"><ele>72.0</ele><time>2026-04-18T10:58:54.509Z</time></trkpt><trkpt lat="43.3601867" lon="10.8095817"><ele>72.0</ele><time>2026-04-18T10:58:55.508Z</time></trkpt><trkpt lat="43.3601283" lon="10.80942"><ele>72.5</ele><time>2026-04-18T10:58:56.509Z</time></trkpt><trkpt lat="43.36008" lon="10.809265"><ele>73.0</ele><time>2026-04-18T10:58:57.508Z</time></trkpt><trkpt lat="43.3600317" lon="10.8091083"><ele>73.5</ele><time>2026-04-18T10:58:58.508Z</time></trkpt><trkpt lat="43.3599867" lon="10.8089383"><ele>74.0</ele><time>2026-04-18T10:58:59.509Z</time></trkpt><trkpt lat="43.3599333" lon="10.8087733"><ele>74.0</ele><time>2026-04-18T10:59:00.508Z</time></trkpt><trkpt lat="43.3598767" lon="10.8086017"><ele>74.0</ele><time>2026-04-18T10:59:01.508Z</time></trkpt><trkpt lat="43.3598233" lon="10.808415"><ele>74.0</ele><time>2026-04-18T10:59:02.509Z</time></trkpt><trkpt lat="43.359765" lon="10.808225"><ele>74.0</ele><time>2026-04-18T10:59:03.508Z</time></trkpt><trkpt lat="43.3597" lon="10.8080217"><ele>72.66666666666667</ele><time>2026-04-18T10:59:04.508Z</time></trkpt><trkpt lat="43.3596417" lon="10.8078333"><ele>71.33333333333333</ele><time>2026-04-18T10:59:05.507Z</time></trkpt><trkpt lat="43.359575" lon="10.8076233"><ele>70.0</ele><time>2026-04-18T10:59:06.507Z</time></trkpt><trkpt lat="43.3595033" lon="10.8074017"><ele>70.0</ele><time>2026-04-18T10:59:07.507Z</time></trkpt><trkpt lat="43.359435" lon="10.8071817"><ele>70.0</ele><time>2026-04-18T10:59:08.507Z</time></trkpt><trkpt lat="43.35937" lon="10.806975"><ele>70.0</ele><time>2026-04-18T10:59:09.507Z</time></trkpt><trkpt lat="43.3593133" lon="10.8067783"><ele>69.75</ele><time>2026-04-18T10:59:10.507Z</time></trkpt><trkpt lat="43.35927" lon="10.8065867"><ele>69.5</ele><time>2026-04-18T10:59:11.507Z</time></trkpt><trkpt lat="43.3592417" lon="10.8064017"><ele>69.25</ele><time>2026-04-18T10:59:12.507Z</time></trkpt><trkpt lat="43.3592267" lon="10.8062117"><ele>69.0</ele><time>2026-04-18T10:59:13.508Z</time></trkpt><trkpt lat="43.3592317" lon="10.8059983"><ele>69.0</ele><time>2026-04-18T10:59:14.507Z</time></trkpt><trkpt lat="43.3592633" lon="10.8057667"><ele>69.0</ele><time>2026-04-18T10:59:15.507Z</time></trkpt><trkpt lat="43.3592983" lon="10.805505"><ele>69.0</ele><time>2026-04-18T10:59:16.507Z</time></trkpt><trkpt lat="43.359335" lon="10.8052267"><ele>68.33333333333333</ele><time>2026-04-18T10:59:17.507Z</time></trkpt><trkpt lat="43.3593717" lon="10.8049383"><ele>67.66666666666666</ele><time>2026-04-18T10:59:18.507Z</time></trkpt><trkpt lat="43.35941" lon="10.8046667"><ele>67.0</ele><time>2026-04-18T10:59:19.507Z</time></trkpt><trkpt lat="43.35944" lon="10.8044133"><ele>66.33333333333333</ele><time>2026-04-18T10:59:20.507Z</time></trkpt><trkpt lat="43.3594633" lon="10.8041733"><ele>65.66666666666667</ele><time>2026-04-18T10:59:21.507Z</time></trkpt><trkpt lat="43.3594717" lon="10.8039283"><ele>65.0</ele><time>2026-04-18T10:59:22.507Z</time></trkpt><trkpt lat="43.359465" lon="10.803665"><ele>65.33333333333334</ele><time>2026-04-18T10:59:23.507Z</time></trkpt><trkpt lat="43.3594317" lon="10.803415"><ele>65.66666666666667</ele><time>2026-04-18T10:59:24.507Z</time></trkpt><trkpt lat="43.3593833" lon="10.8031733"><ele>66.0</ele><time>2026-04-18T10:59:25.507Z</time></trkpt><trkpt lat="43.35932" lon="10.8029417"><ele>66.0</ele><time>2026-04-18T10:59:26.507Z</time></trkpt><trkpt lat="43.3592433" lon="10.8027183"><ele>66.0</ele><time>2026-04-18T10:59:27.507Z</time></trkpt><trkpt lat="43.3591483" lon="10.8025067"><ele>66.0</ele><time>2026-04-18T10:59:28.507Z</time></trkpt><trkpt lat="43.3590283" lon="10.8023"><ele>65.66666666666667</ele><time>2026-04-18T10:59:29.507Z</time></trkpt><trkpt lat="43.3588983" lon="10.8020983"><ele>65.33333333333334</ele><time>2026-04-18T10:59:30.507Z</time></trkpt><trkpt lat="43.3587733" lon="10.8019067"><ele>65.0</ele><time>2026-04-18T10:59:31.507Z</time></trkpt><trkpt lat="43.3586517" lon="10.8017167"><ele>65.66666666666667</ele><time>2026-04-18T10:59:32.507Z</time></trkpt><trkpt lat="43.35853" lon="10.8015367"><ele>66.33333333333333</ele><time>2026-04-18T10:59:33.507Z</time></trkpt><trkpt lat="43.3584167" lon="10.80134"><ele>67.0</ele><time>2026-04-18T10:59:34.507Z</time></trkpt><trkpt lat="43.3583167" lon="10.801135"><ele>68.66666666666666</ele><time>2026-04-18T10:59:35.507Z</time></trkpt><trkpt lat="43.358225" lon="10.800905"><ele>70.33333333333333</ele><time>2026-04-18T10:59:36.507Z</time></trkpt><trkpt lat="43.358135" lon="10.8006533"><ele>72.0</ele><time>2026-04-18T10:59:37.507Z</time></trkpt><trkpt lat="43.3580567" lon="10.800415"><ele>69.66666666666667</ele><time>2026-04-18T10:59:38.508Z</time></trkpt><trkpt lat="43.3579783" lon="10.8001867"><ele>67.33333333333334</ele><time>2026-04-18T10:59:39.507Z</time></trkpt><trkpt lat="43.3579067" lon="10.7999617"><ele>65.0</ele><time>2026-04-18T10:59:40.507Z</time></trkpt><trkpt lat="43.3578283" lon="10.7997333"><ele>65.0</ele><time>2026-04-18T10:59:41.507Z</time></trkpt><trkpt lat="43.3577467" lon="10.7995117"><ele>65.0</ele><time>2026-04-18T10:59:42.508Z</time></trkpt><trkpt lat="43.357645" lon="10.799285"><ele>65.0</ele><time>2026-04-18T10:59:43.508Z</time></trkpt><trkpt lat="43.3575267" lon="10.7990683"><ele>65.0</ele><time>2026-04-18T10:59:44.507Z</time></trkpt><trkpt lat="43.3573983" lon="10.7988517"><ele>65.0</ele><time>2026-04-18T10:59:45.507Z</time></trkpt><trkpt lat="43.357265" lon="10.798635"><ele>65.0</ele><time>2026-04-18T10:59:46.507Z</time></trkpt><trkpt lat="43.357135" lon="10.7984167"><ele>65.0</ele><time>2026-04-18T10:59:47.507Z</time></trkpt><trkpt lat="43.35701" lon="10.7981967"><ele>65.0</ele><time>2026-04-18T10:59:48.507Z</time></trkpt><trkpt lat="43.3568933" lon="10.7979733"><ele>65.0</ele><time>2026-04-18T10:59:49.507Z</time></trkpt><trkpt lat="43.3567883" lon="10.7977467"><ele>66.66666666666667</ele><time>2026-04-18T10:59:50.507Z</time></trkpt><trkpt lat="43.356685" lon="10.79751"><ele>68.33333333333333</ele><time>2026-04-18T10:59:51.507Z</time></trkpt><trkpt lat="43.3565883" lon="10.7972917"><ele>70.0</ele><time>2026-04-18T10:59:52.507Z</time></trkpt><trkpt lat="43.356515" lon="10.797025"><ele>71.33333333333333</ele><time>2026-04-18T10:59:53.508Z</time></trkpt><trkpt lat="43.3564533" lon="10.7967533"><ele>72.66666666666667</ele><time>2026-04-18T10:59:54.507Z</time></trkpt><trkpt lat="43.3564" lon="10.79648"><ele>74.0</ele><time>2026-04-18T10:59:55.508Z</time></trkpt><trkpt lat="43.3563683" lon="10.7961867"><ele>70.0</ele><time>2026-04-18T10:59:56.507Z</time></trkpt><trkpt lat="43.3563483" lon="10.7958883"><ele>66.0</ele><time>2026-04-18T10:59:57.507Z</time></trkpt><trkpt lat="43.3563483" lon="10.7955733"><ele>62.0</ele><time>2026-04-18T10:59:58.507Z</time></trkpt><trkpt lat="43.3563533" lon="10.79525"><ele>62.5</ele><time>2026-04-18T10:59:59.507Z</time></trkpt><trkpt lat="43.3563783" lon="10.79494"><ele>63.0</ele><time>2026-04-18T11:00:00.507Z</time></trkpt><trkpt lat="43.3564133" lon="10.7946367"><ele>62.0</ele><time>2026-04-18T11:00:01.507Z</time></trkpt><trkpt lat="43.3564617" lon="10.7943267"><ele>61.0</ele><time>2026-04-18T11:00:02.507Z</time></trkpt><trkpt lat="43.3565217" lon="10.7940167"><ele>61.0</ele><time>2026-04-18T11:00:03.507Z</time></trkpt><trkpt lat="43.3565833" lon="10.793725"><ele>61.0</ele><time>2026-04-18T11:00:04.508Z</time></trkpt><trkpt lat="43.3566483" lon="10.7934317"><ele>61.0</ele><time>2026-04-18T11:00:05.507Z</time></trkpt><trkpt lat="43.356715" lon="10.793145"><ele>60.666666666666664</ele><time>2026-04-18T11:00:06.508Z</time></trkpt><trkpt lat="43.35678" lon="10.7928483"><ele>60.33333333333333</ele><time>2026-04-18T11:00:07.507Z</time></trkpt><trkpt lat="43.3568433" lon="10.792555"><ele>60.0</ele><time>2026-04-18T11:00:08.507Z</time></trkpt><trkpt lat="43.356905" lon="10.7922633"><ele>60.0</ele><time>2026-04-18T11:00:09.507Z</time></trkpt><trkpt lat="43.3569667" lon="10.7919683"><ele>60.0</ele><time>2026-04-18T11:00:10.507Z</time></trkpt><trkpt lat="43.3570283" lon="10.79167"><ele>60.0</ele><time>2026-04-18T11:00:11.507Z</time></trkpt><trkpt lat="43.3570817" lon="10.791375"><ele>60.0</ele><time>2026-04-18T11:00:12.507Z</time></trkpt><trkpt lat="43.35713" lon="10.7910767"><ele>60.0</ele><time>2026-04-18T11:00:13.507Z</time></trkpt><trkpt lat="43.357175" lon="10.7907767"><ele>60.0</ele><time>2026-04-18T11:00:14.507Z</time></trkpt><trkpt lat="43.35721" lon="10.7904733"><ele>61.0</ele><time>2026-04-18T11:00:15.507Z</time></trkpt><trkpt lat="43.357245" lon="10.79017"><ele>62.0</ele><time>2026-04-18T11:00:16.507Z</time></trkpt><trkpt lat="43.3572683" lon="10.78988"><ele>63.0</ele><time>2026-04-18T11:00:17.508Z</time></trkpt><trkpt lat="43.3572833" lon="10.7895817"><ele>65.0</ele><time>2026-04-18T11:00:18.507Z</time></trkpt><trkpt lat="43.3572967" lon="10.7892817"><ele>67.0</ele><time>2026-04-18T11:00:19.507Z</time></trkpt><trkpt lat="43.357295" lon="10.7889817"><ele>69.0</ele><time>2026-04-18T11:00:20.507Z</time></trkpt><trkpt lat="43.35729" lon="10.788685"><ele>68.0</ele><time>2026-04-18T11:00:21.507Z</time></trkpt><trkpt lat="43.3572817" lon="10.788395"><ele>67.0</ele><time>2026-04-18T11:00:22.507Z</time></trkpt><trkpt lat="43.3572733" lon="10.7881167"><ele>66.0</ele><time>2026-04-18T11:00:23.507Z</time></trkpt><trkpt lat="43.35726" lon="10.7878467"><ele>65.0</ele><time>2026-04-18T11:00:24.507Z</time></trkpt><trkpt lat="43.3572483" lon="10.7875817"><ele>64.0</ele><time>2026-04-18T11:00:25.507Z</time></trkpt><trkpt lat="43.3572333" lon="10.78731"><ele>63.0</ele><time>2026-04-18T11:00:26.508Z</time></trkpt><trkpt lat="43.3571983" lon="10.7870567"><ele>62.0</ele><time>2026-04-18T11:00:27.507Z</time></trkpt><trkpt lat="43.3571683" lon="10.786805"><ele>61.0</ele><time>2026-04-18T11:00:28.507Z</time></trkpt><trkpt lat="43.3571333" lon="10.7865567"><ele>60.0</ele><time>2026-04-18T11:00:29.507Z</time></trkpt><trkpt lat="43.3570983" lon="10.7863067"><ele>60.0</ele><time>2026-04-18T11:00:30.507Z</time></trkpt><trkpt lat="43.3570583" lon="10.7860733"><ele>60.0</ele><time>2026-04-18T11:00:31.507Z</time></trkpt><trkpt lat="43.3570283" lon="10.7858317"><ele>60.0</ele><time>2026-04-18T11:00:32.507Z</time></trkpt><trkpt lat="43.356995" lon="10.7855817"><ele>60.0</ele><time>2026-04-18T11:00:33.508Z</time></trkpt><trkpt lat="43.3569567" lon="10.7853283"><ele>60.0</ele><time>2026-04-18T11:00:34.507Z</time></trkpt><trkpt lat="43.3569167" lon="10.78507"><ele>60.0</ele><time>2026-04-18T11:00:35.507Z</time></trkpt><trkpt lat="43.3568833" lon="10.7848117"><ele>60.0</ele><time>2026-04-18T11:00:36.507Z</time></trkpt><trkpt lat="43.3568367" lon="10.78455"><ele>60.0</ele><time>2026-04-18T11:00:37.507Z</time></trkpt><trkpt lat="43.3567933" lon="10.784275"><ele>60.0</ele><time>2026-04-18T11:00:38.508Z</time></trkpt><trkpt lat="43.3567467" lon="10.784"><ele>60.0</ele><time>2026-04-18T11:00:39.508Z</time></trkpt><trkpt lat="43.3567033" lon="10.7837283"><ele>60.0</ele><time>2026-04-18T11:00:40.507Z</time></trkpt><trkpt lat="43.3566667" lon="10.7834633"><ele>60.0</ele><time>2026-04-18T11:00:41.507Z</time></trkpt><trkpt lat="43.3566283" lon="10.7831967"><ele>59.66666666666667</ele><time>2026-04-18T11:00:42.507Z</time></trkpt><trkpt lat="43.3565883" lon="10.7829317"><ele>59.333333333333336</ele><time>2026-04-18T11:00:43.507Z</time></trkpt><trkpt lat="43.3565483" lon="10.7826667"><ele>59.0</ele><time>2026-04-18T11:00:44.507Z</time></trkpt><trkpt lat="43.3565183" lon="10.7823833"><ele>59.0</ele><time>2026-04-18T11:00:45.507Z</time></trkpt><trkpt lat="43.3564967" lon="10.7821117"><ele>59.0</ele><time>2026-04-18T11:00:46.507Z</time></trkpt><trkpt lat="43.3564967" lon="10.7818517"><ele>59.0</ele><time>2026-04-18T11:00:47.507Z</time></trkpt><trkpt lat="43.3564917" lon="10.7815967"><ele>59.0</ele><time>2026-04-18T11:00:48.507Z</time></trkpt><trkpt lat="43.35648" lon="10.7813533"><ele>59.0</ele><time>2026-04-18T11:00:49.507Z</time></trkpt><trkpt lat="43.356475" lon="10.781105"><ele>59.0</ele><time>2026-04-18T11:00:50.507Z</time></trkpt><trkpt lat="43.3564717" lon="10.78085"><ele>59.333333333333336</ele><time>2026-04-18T11:00:51.507Z</time></trkpt><trkpt lat="43.3564667" lon="10.780595"><ele>59.66666666666667</ele><time>2026-04-18T11:00:52.507Z</time></trkpt><trkpt lat="43.356455" lon="10.7803433"><ele>60.0</ele><time>2026-04-18T11:00:53.507Z</time></trkpt><trkpt lat="43.3564467" lon="10.780095"><ele>60.0</ele><time>2026-04-18T11:00:54.508Z</time></trkpt><trkpt lat="43.3564417" lon="10.779865"><ele>60.0</ele><time>2026-04-18T11:00:55.507Z</time></trkpt><trkpt lat="43.3564283" lon="10.77962"><ele>60.0</ele><time>2026-04-18T11:00:56.507Z</time></trkpt><trkpt lat="43.35642" lon="10.779385"><ele>61.33333333333333</ele><time>2026-04-18T11:00:57.507Z</time></trkpt><trkpt lat="43.3564133" lon="10.7791733"><ele>62.666666666666664</ele><time>2026-04-18T11:00:58.507Z</time></trkpt><trkpt lat="43.3563983" lon="10.778965"><ele>64.0</ele><time>2026-04-18T11:00:59.507Z</time></trkpt><trkpt lat="43.356375" lon="10.7787483"><ele>62.0</ele><time>2026-04-18T11:01:00.508Z</time></trkpt><trkpt lat="43.3563383" lon="10.77853"><ele>60.0</ele><time>2026-04-18T11:01:01.507Z</time></trkpt><trkpt lat="43.3562867" lon="10.7783067"><ele>58.0</ele><time>2026-04-18T11:01:02.507Z</time></trkpt><trkpt lat="43.35622" lon="10.778085"><ele>58.0</ele><time>2026-04-18T11:01:03.508Z</time></trkpt><trkpt lat="43.35614" lon="10.77787"><ele>58.0</ele><time>2026-04-18T11:01:04.507Z</time></trkpt><trkpt lat="43.3560533" lon="10.7776633"><ele>58.0</ele><time>2026-04-18T11:01:05.507Z</time></trkpt><trkpt lat="43.3559583" lon="10.77747"><ele>59.33333333333333</ele><time>2026-04-18T11:01:06.507Z</time></trkpt><trkpt lat="43.3558617" lon="10.7773017"><ele>60.66666666666667</ele><time>2026-04-18T11:01:07.507Z</time></trkpt><trkpt lat="43.3557567" lon="10.7771467"><ele>62.0</ele><time>2026-04-18T11:01:08.507Z</time></trkpt><trkpt lat="43.3556517" lon="10.7770017"><ele>62.0</ele><time>2026-04-18T11:01:09.508Z</time></trkpt><trkpt lat="43.35554" lon="10.7768867"><ele>62.0</ele><time>2026-04-18T11:01:10.507Z</time></trkpt><trkpt lat="43.35542" lon="10.7767733"><ele>62.0</ele><time>2026-04-18T11:01:11.507Z</time></trkpt><trkpt lat="43.3552933" lon="10.77667"><ele>62.0</ele><time>2026-04-18T11:01:12.507Z</time></trkpt><trkpt lat="43.3551583" lon="10.776585"><ele>61.25</ele><time>2026-04-18T11:01:13.507Z</time></trkpt><trkpt lat="43.35503" lon="10.7765"><ele>60.5</ele><time>2026-04-18T11:01:14.507Z</time></trkpt><trkpt lat="43.3549017" lon="10.77642"><ele>59.75</ele><time>2026-04-18T11:01:15.507Z</time></trkpt><trkpt lat="43.354775" lon="10.7763433"><ele>59.0</ele><time>2026-04-18T11:01:16.507Z</time></trkpt><trkpt lat="43.3546583" lon="10.7762683"><ele>59.2</ele><time>2026-04-18T11:01:17.507Z</time></trkpt><trkpt lat="43.35455" lon="10.7762083"><ele>59.400000000000006</ele><time>2026-04-18T11:01:18.507Z</time></trkpt><trkpt lat="43.3544567" lon="10.7761483"><ele>59.6</ele><time>2026-04-18T11:01:19.507Z</time></trkpt><trkpt lat="43.3543717" lon="10.776095"><ele>59.8</ele><time>2026-04-18T11:01:20.507Z</time></trkpt><trkpt lat="43.3542767" lon="10.7760317"><ele>60.0</ele><time>2026-04-18T11:01:21.507Z</time></trkpt><trkpt lat="43.3541717" lon="10.7759633"><ele>60.0</ele><time>2026-04-18T11:01:22.507Z</time></trkpt><trkpt lat="43.3540567" lon="10.7758833"><ele>60.0</ele><time>2026-04-18T11:01:23.507Z</time></trkpt><trkpt lat="43.35393" lon="10.7757917"><ele>60.0</ele><time>2026-04-18T11:01:24.507Z</time></trkpt><trkpt lat="43.3538" lon="10.77567"><ele>60.0</ele><time>2026-04-18T11:01:25.507Z</time></trkpt><trkpt lat="43.353675" lon="10.7755267"><ele>58.5</ele><time>2026-04-18T11:01:26.507Z</time></trkpt><trkpt lat="43.353555" lon="10.7753667"><ele>57.0</ele><time>2026-04-18T11:01:27.507Z</time></trkpt><trkpt lat="43.3532583" lon="10.77486"><ele>57.0</ele><time>2026-04-18T11:01:30.507Z</time></trkpt><trkpt lat="43.35318" lon="10.77472"><ele>57.0</ele><time>2026-04-18T11:01:31.507Z</time></trkpt><trkpt lat="43.3531" lon="10.7745883"><ele>57.0</ele><time>2026-04-18T11:01:32.507Z</time></trkpt><trkpt lat="43.3530183" lon="10.7744467"><ele>57.0</ele><time>2026-04-18T11:01:33.507Z</time></trkpt><trkpt lat="43.3529317" lon="10.7742917"><ele>56.66666666666667</ele><time>2026-04-18T11:01:34.507Z</time></trkpt><trkpt lat="43.35284" lon="10.7741267"><ele>56.333333333333336</ele><time>2026-04-18T11:01:35.507Z</time></trkpt><trkpt lat="43.35274" lon="10.77396"><ele>56.0</ele><time>2026-04-18T11:01:36.507Z</time></trkpt><trkpt lat="43.352645" lon="10.77381"><ele>56.0</ele><time>2026-04-18T11:01:37.507Z</time></trkpt><trkpt lat="43.35257" lon="10.7736867"><ele>56.0</ele><time>2026-04-18T11:01:38.508Z</time></trkpt><trkpt lat="43.35249" lon="10.7735567"><ele>56.0</ele><time>2026-04-18T11:01:39.507Z</time></trkpt><trkpt lat="43.3524117" lon="10.7734083"><ele>56.0</ele><time>2026-04-18T11:01:40.507Z</time></trkpt><trkpt lat="43.35232" lon="10.7732517"><ele>56.333333333333336</ele><time>2026-04-18T11:01:41.507Z</time></trkpt><trkpt lat="43.3522133" lon="10.7730667"><ele>56.66666666666667</ele><time>2026-04-18T11:01:42.508Z</time></trkpt><trkpt lat="43.3520867" lon="10.7728417"><ele>57.0</ele><time>2026-04-18T11:01:43.507Z</time></trkpt><trkpt lat="43.3519467" lon="10.77257"><ele>56.0</ele><time>2026-04-18T11:01:44.507Z</time></trkpt><trkpt lat="43.35178" lon="10.7722817"><ele>55.0</ele><time>2026-04-18T11:01:45.507Z</time></trkpt><trkpt lat="43.3516117" lon="10.7720033"><ele>55.5</ele><time>2026-04-18T11:01:46.507Z</time></trkpt><trkpt lat="43.351455" lon="10.7717433"><ele>56.0</ele><time>2026-04-18T11:01:47.508Z</time></trkpt><trkpt lat="43.3513133" lon="10.7714933"><ele>56.5</ele><time>2026-04-18T11:01:48.507Z</time></trkpt><trkpt lat="43.351175" lon="10.7712467"><ele>57.0</ele><time>2026-04-18T11:01:49.507Z</time></trkpt><trkpt lat="43.3510333" lon="10.771"><ele>57.0</ele><time>2026-04-18T11:01:50.507Z</time></trkpt><trkpt lat="43.3508883" lon="10.7707617"><ele>57.0</ele><time>2026-04-18T11:01:51.507Z</time></trkpt><trkpt lat="43.3507467" lon="10.7705167"><ele>57.0</ele><time>2026-04-18T11:01:52.507Z</time></trkpt><trkpt lat="43.350615" lon="10.7702783"><ele>57.0</ele><time>2026-04-18T11:01:53.507Z</time></trkpt><trkpt lat="43.3505" lon="10.770025"><ele>57.0</ele><time>2026-04-18T11:01:54.507Z</time></trkpt><trkpt lat="43.3503817" lon="10.7697867"><ele>56.66666666666667</ele><time>2026-04-18T11:01:55.507Z</time></trkpt><trkpt lat="43.35026" lon="10.76955"><ele>56.333333333333336</ele><time>2026-04-18T11:01:56.507Z</time></trkpt><trkpt lat="43.35015" lon="10.7693283"><ele>56.0</ele><time>2026-04-18T11:01:57.507Z</time></trkpt><trkpt lat="43.3500383" lon="10.769115"><ele>56.0</ele><time>2026-04-18T11:01:58.507Z</time></trkpt><trkpt lat="43.34993" lon="10.7689"><ele>56.0</ele><time>2026-04-18T11:01:59.507Z</time></trkpt><trkpt lat="43.3498183" lon="10.768675"><ele>56.0</ele><time>2026-04-18T11:02:00.507Z</time></trkpt><trkpt lat="43.34972" lon="10.7684467"><ele>55.66666666666667</ele><time>2026-04-18T11:02:01.508Z</time></trkpt><trkpt lat="43.3496483" lon="10.76822"><ele>55.33333333333333</ele><time>2026-04-18T11:02:02.508Z</time></trkpt><trkpt lat="43.349595" lon="10.7679917"><ele>55.0</ele><time>2026-04-18T11:02:03.507Z</time></trkpt><trkpt lat="43.3495633" lon="10.7677783"><ele>55.0</ele><time>2026-04-18T11:02:04.507Z</time></trkpt><trkpt lat="43.3495383" lon="10.76757"><ele>55.0</ele><time>2026-04-18T11:02:05.507Z</time></trkpt><trkpt lat="43.3495133" lon="10.767375"><ele>55.0</ele><time>2026-04-18T11:02:06.507Z</time></trkpt><trkpt lat="43.349505" lon="10.76719"><ele>55.0</ele><time>2026-04-18T11:02:07.507Z</time></trkpt><trkpt lat="43.3495117" lon="10.767025"><ele>55.0</ele><time>2026-04-18T11:02:08.507Z</time></trkpt><trkpt lat="43.3495217" lon="10.7668683"><ele>55.0</ele><time>2026-04-18T11:02:09.507Z</time></trkpt><trkpt lat="43.3495283" lon="10.766705"><ele>55.0</ele><time>2026-04-18T11:02:10.507Z</time></trkpt><trkpt lat="43.3495083" lon="10.7665383"><ele>55.0</ele><time>2026-04-18T11:02:11.507Z</time></trkpt><trkpt lat="43.34945" lon="10.7663483"><ele>55.33333333333333</ele><time>2026-04-18T11:02:12.507Z</time></trkpt><trkpt lat="43.3493667" lon="10.766155"><ele>55.66666666666667</ele><time>2026-04-18T11:02:13.507Z</time></trkpt><trkpt lat="43.3492517" lon="10.7659683"><ele>56.0</ele><time>2026-04-18T11:02:14.507Z</time></trkpt><trkpt lat="43.349145" lon="10.7658083"><ele>56.0</ele><time>2026-04-18T11:02:15.507Z</time></trkpt><trkpt lat="43.3490417" lon="10.765645"><ele>56.0</ele><time>2026-04-18T11:02:16.508Z</time></trkpt><trkpt lat="43.3489383" lon="10.7654817"><ele>56.0</ele><time>2026-04-18T11:02:17.507Z</time></trkpt><trkpt lat="43.3488383" lon="10.7653033"><ele>57.333333333333336</ele><time>2026-04-18T11:02:18.507Z</time></trkpt><trkpt lat="43.3487367" lon="10.7651267"><ele>58.66666666666667</ele><time>2026-04-18T11:02:19.507Z</time></trkpt><trkpt lat="43.3486417" lon="10.7649483"><ele>60.0</ele><time>2026-04-18T11:02:20.507Z</time></trkpt><trkpt lat="43.3485583" lon="10.764745"><ele>60.0</ele><time>2026-04-18T11:02:21.507Z</time></trkpt><trkpt lat="43.34848" lon="10.764525"><ele>60.0</ele><time>2026-04-18T11:02:22.506Z</time></trkpt><trkpt lat="43.348405" lon="10.7643"><ele>60.0</ele><time>2026-04-18T11:02:23.506Z</time></trkpt><trkpt lat="43.3483317" lon="10.76406"><ele>61.66666666666667</ele><time>2026-04-18T11:02:24.506Z</time></trkpt><trkpt lat="43.3482567" lon="10.7638233"><ele>63.333333333333336</ele><time>2026-04-18T11:02:25.506Z</time></trkpt><trkpt lat="43.3481883" lon="10.763595"><ele>65.0</ele><time>2026-04-18T11:02:26.507Z</time></trkpt><trkpt lat="43.3481183" lon="10.7633783"><ele>65.66666666666667</ele><time>2026-04-18T11:02:27.506Z</time></trkpt><trkpt lat="43.348045" lon="10.7631467"><ele>66.33333333333333</ele><time>2026-04-18T11:02:28.506Z</time></trkpt><trkpt lat="43.347975" lon="10.7629167"><ele>67.0</ele><time>2026-04-18T11:02:29.506Z</time></trkpt><trkpt lat="43.3479117" lon="10.7626867"><ele>64.0</ele><time>2026-04-18T11:02:30.506Z</time></trkpt><trkpt lat="43.3478517" lon="10.762445"><ele>61.0</ele><time>2026-04-18T11:02:31.506Z</time></trkpt><trkpt lat="43.3477933" lon="10.762205"><ele>58.0</ele><time>2026-04-18T11:02:32.506Z</time></trkpt><trkpt lat="43.347755" lon="10.76197"><ele>58.33333333333333</ele><time>2026-04-18T11:02:33.506Z</time></trkpt><trkpt lat="43.3477267" lon="10.761725"><ele>58.66666666666667</ele><time>2026-04-18T11:02:34.506Z</time></trkpt><trkpt lat="43.3477" lon="10.7614883"><ele>59.0</ele><time>2026-04-18T11:02:35.506Z</time></trkpt><trkpt lat="43.34767" lon="10.7612533"><ele>58.66666666666667</ele><time>2026-04-18T11:02:36.506Z</time></trkpt><trkpt lat="43.347645" lon="10.7610067"><ele>58.33333333333333</ele><time>2026-04-18T11:02:37.506Z</time></trkpt><trkpt lat="43.3476117" lon="10.7607567"><ele>58.0</ele><time>2026-04-18T11:02:38.506Z</time></trkpt><trkpt lat="43.3475817" lon="10.7605033"><ele>58.0</ele><time>2026-04-18T11:02:39.506Z</time></trkpt><trkpt lat="43.3475467" lon="10.760245"><ele>58.0</ele><time>2026-04-18T11:02:40.506Z</time></trkpt><trkpt lat="43.3475" lon="10.7600033"><ele>58.0</ele><time>2026-04-18T11:02:41.506Z</time></trkpt><trkpt lat="43.3474383" lon="10.7597683"><ele>57.666666666666664</ele><time>2026-04-18T11:02:42.506Z</time></trkpt><trkpt lat="43.347355" lon="10.7595283"><ele>57.33333333333333</ele><time>2026-04-18T11:02:43.506Z</time></trkpt><trkpt lat="43.3472717" lon="10.7592867"><ele>57.0</ele><time>2026-04-18T11:02:44.506Z</time></trkpt><trkpt lat="43.3471683" lon="10.75906"><ele>57.0</ele><time>2026-04-18T11:02:45.506Z</time></trkpt><trkpt lat="43.3470583" lon="10.758845"><ele>57.0</ele><time>2026-04-18T11:02:46.506Z</time></trkpt><trkpt lat="43.3469533" lon="10.7586267"><ele>57.0</ele><time>2026-04-18T11:02:47.506Z</time></trkpt><trkpt lat="43.34684" lon="10.7584183"><ele>58.33333333333333</ele><time>2026-04-18T11:02:48.506Z</time></trkpt><trkpt lat="43.3467283" lon="10.7582183"><ele>59.666666666666664</ele><time>2026-04-18T11:02:49.506Z</time></trkpt><trkpt lat="43.346615" lon="10.758015"><ele>61.0</ele><time>2026-04-18T11:02:50.506Z</time></trkpt><trkpt lat="43.3465067" lon="10.7577983"><ele>61.666666666666664</ele><time>2026-04-18T11:02:51.506Z</time></trkpt><trkpt lat="43.3464017" lon="10.7576117"><ele>62.33333333333333</ele><time>2026-04-18T11:02:52.507Z</time></trkpt><trkpt lat="43.3463017" lon="10.7574267"><ele>63.0</ele><time>2026-04-18T11:02:53.506Z</time></trkpt><trkpt lat="43.3462017" lon="10.7572383"><ele>61.0</ele><time>2026-04-18T11:02:54.506Z</time></trkpt><trkpt lat="43.3461" lon="10.75705"><ele>59.0</ele><time>2026-04-18T11:02:55.506Z</time></trkpt><trkpt lat="43.3459833" lon="10.7568733"><ele>57.0</ele><time>2026-04-18T11:02:56.506Z</time></trkpt><trkpt lat="43.3458617" lon="10.7567"><ele>57.0</ele><time>2026-04-18T11:02:57.507Z</time></trkpt><trkpt lat="43.3457383" lon="10.7565233"><ele>57.0</ele><time>2026-04-18T11:02:58.506Z</time></trkpt><trkpt lat="43.3456" lon="10.7563733"><ele>57.0</ele><time>2026-04-18T11:02:59.506Z</time></trkpt><trkpt lat="43.345495" lon="10.7562233"><ele>56.8</ele><time>2026-04-18T11:03:00.506Z</time></trkpt><trkpt lat="43.3454017" lon="10.75611"><ele>56.6</ele><time>2026-04-18T11:03:01.506Z</time></trkpt><trkpt lat="43.3453267" lon="10.7560183"><ele>56.39999999999999</ele><time>2026-04-18T11:03:02.506Z</time></trkpt><trkpt lat="43.345275" lon="10.7559383"><ele>56.199999999999996</ele><time>2026-04-18T11:03:03.506Z</time></trkpt><trkpt lat="43.3452417" lon="10.7558417"><ele>56.0</ele><time>2026-04-18T11:03:04.506Z</time></trkpt><trkpt lat="43.3452367" lon="10.755745"><ele>56.0</ele><time>2026-04-18T11:03:05.506Z</time></trkpt><trkpt lat="43.3452567" lon="10.7556517"><ele>56.0</ele><time>2026-04-18T11:03:06.507Z</time></trkpt><trkpt lat="43.345285" lon="10.755545"><ele>56.0</ele><time>2026-04-18T11:03:07.506Z</time></trkpt><trkpt lat="43.3453083" lon="10.7554483"><ele>56.0</ele><time>2026-04-18T11:03:08.506Z</time></trkpt><trkpt lat="43.3453017" lon="10.75536"><ele>56.0</ele><time>2026-04-18T11:03:09.506Z</time></trkpt><trkpt lat="43.345275" lon="10.7552683"><ele>56.0</ele><time>2026-04-18T11:03:10.506Z</time></trkpt><trkpt lat="43.3452167" lon="10.755185"><ele>56.0</ele><time>2026-04-18T11:03:11.507Z</time></trkpt><trkpt lat="43.3451317" lon="10.75512"><ele>56.0</ele><time>2026-04-18T11:03:12.507Z</time></trkpt><trkpt lat="43.3450433" lon="10.7550517"><ele>55.99999999999999</ele><time>2026-04-18T11:03:13.506Z</time></trkpt><trkpt lat="43.3449767" lon="10.7549683"><ele>55.99999999999999</ele><time>2026-04-18T11:03:14.506Z</time></trkpt><trkpt lat="43.3449267" lon="10.7548583"><ele>56.0</ele><time>2026-04-18T11:03:15.506Z</time></trkpt><trkpt lat="43.3448933" lon="10.7547267"><ele>56.0</ele><time>2026-04-18T11:03:16.506Z</time></trkpt><trkpt lat="43.3448567" lon="10.754575"><ele>56.0</ele><time>2026-04-18T11:03:17.506Z</time></trkpt><trkpt lat="43.3448183" lon="10.754415"><ele>56.0</ele><time>2026-04-18T11:03:18.506Z</time></trkpt><trkpt lat="43.3447767" lon="10.7542567"><ele>56.0</ele><time>2026-04-18T11:03:19.507Z</time></trkpt><trkpt lat="43.3447367" lon="10.7541033"><ele>56.0</ele><time>2026-04-18T11:03:20.506Z</time></trkpt><trkpt lat="43.344695" lon="10.75396"><ele>55.833333333333336</ele><time>2026-04-18T11:03:21.506Z</time></trkpt><trkpt lat="43.3446467" lon="10.753835"><ele>55.66666666666667</ele><time>2026-04-18T11:03:22.506Z</time></trkpt><trkpt lat="43.3446083" lon="10.7537367"><ele>55.5</ele><time>2026-04-18T11:03:23.507Z</time></trkpt><trkpt lat="43.3445667" lon="10.75362"><ele>55.33333333333333</ele><time>2026-04-18T11:03:25.506Z</time></trkpt><trkpt lat="43.344555" lon="10.7535217"><ele>55.166666666666664</ele><time>2026-04-18T11:03:28.506Z</time></trkpt><trkpt lat="43.3445317" lon="10.75344"><ele>55.0</ele><time>2026-04-18T11:03:33.506Z</time></trkpt><trkpt lat="43.3445017" lon="10.7533483"><ele>57.0</ele><time>2026-04-18T11:03:37.506Z</time></trkpt><trkpt lat="43.3444683" lon="10.7532667"><ele>57.0</ele><time>2026-04-18T11:03:40.506Z</time></trkpt><trkpt lat="43.3444233" lon="10.7531817"><ele>57.0</ele><time>2026-04-18T11:03:43.506Z</time></trkpt><trkpt lat="43.3443683" lon="10.7531317"><ele>57.0</ele><time>2026-04-18T11:03:47.506Z</time></trkpt></trkseg><trkseg><trkpt lat="43.3443293" lon="10.7532231"><ele>57.0</ele><time>2026-04-18T12:25:55.58Z</time></trkpt><trkpt lat="43.3443992" lon="10.7532312"><ele>57.0</ele><time>2026-04-18T12:25:58.58Z</time></trkpt><trkpt lat="43.3444474" lon="10.7533142"><ele>57.0</ele><time>2026-04-18T12:26:00.58Z</time></trkpt><trkpt lat="43.3444793" lon="10.7534214"><ele>57.0</ele><time>2026-04-18T12:26:02.58Z</time></trkpt><trkpt lat="43.3444973" lon="10.7535066"><ele>57.0</ele><time>2026-04-18T12:26:04.58Z</time></trkpt><trkpt lat="43.3444183" lon="10.7534433"><ele>57.0</ele><time>2026-04-18T12:26:08.58Z</time></trkpt><trkpt lat="43.344375" lon="10.7533733"><ele>57.0</ele><time>2026-04-18T12:26:09.581Z</time></trkpt><trkpt lat="43.3443167" lon="10.7532883"><ele>57.0</ele><time>2026-04-18T12:26:10.58Z</time></trkpt><trkpt lat="43.3442483" lon="10.7531917"><ele>57.0</ele><time>2026-04-18T12:26:11.58Z</time></trkpt><trkpt lat="43.3441767" lon="10.7531"><ele>57.0</ele><time>2026-04-18T12:26:12.581Z</time></trkpt><trkpt lat="43.3441083" lon="10.7530017"><ele>57.0</ele><time>2026-04-18T12:26:13.58Z</time></trkpt><trkpt lat="43.3440317" lon="10.752885"><ele>57.0</ele><time>2026-04-18T12:26:14.58Z</time></trkpt><trkpt lat="43.3439467" lon="10.7527583"><ele>57.0</ele><time>2026-04-18T12:26:15.58Z</time></trkpt><trkpt lat="43.3438583" lon="10.752625"><ele>57.0</ele><time>2026-04-18T12:26:16.58Z</time></trkpt><trkpt lat="43.3437633" lon="10.7525017"><ele>57.0</ele><time>2026-04-18T12:26:17.58Z</time></trkpt><trkpt lat="43.3436733" lon="10.7523683"><ele>57.0</ele><time>2026-04-18T12:26:18.58Z</time></trkpt><trkpt lat="43.3435883" lon="10.7522367"><ele>57.0</ele><time>2026-04-18T12:26:19.58Z</time></trkpt><trkpt lat="43.3434983" lon="10.7521017"><ele>57.0</ele><time>2026-04-18T12:26:20.58Z</time></trkpt><trkpt lat="43.3434083" lon="10.7519633"><ele>57.0</ele><time>2026-04-18T12:26:21.58Z</time></trkpt><trkpt lat="43.3433133" lon="10.7518283"><ele>57.0</ele><time>2026-04-18T12:26:22.58Z</time></trkpt><trkpt lat="43.34322" lon="10.7516933"><ele>57.0</ele><time>2026-04-18T12:26:23.581Z</time></trkpt><trkpt lat="43.3431167" lon="10.7515433"><ele>57.0</ele><time>2026-04-18T12:26:24.58Z</time></trkpt><trkpt lat="43.343015" lon="10.751395"><ele>57.0</ele><time>2026-04-18T12:26:25.58Z</time></trkpt><trkpt lat="43.3429083" lon="10.7512367"><ele>56.66666666666667</ele><time>2026-04-18T12:26:26.58Z</time></trkpt><trkpt lat="43.3427817" lon="10.7510567"><ele>56.333333333333336</ele><time>2026-04-18T12:26:27.58Z</time></trkpt><trkpt lat="43.34265" lon="10.7508633"><ele>56.0</ele><time>2026-04-18T12:26:28.581Z</time></trkpt><trkpt lat="43.3425117" lon="10.750675"><ele>56.0</ele><time>2026-04-18T12:26:29.58Z</time></trkpt><trkpt lat="43.342375" lon="10.7504767"><ele>56.0</ele><time>2026-04-18T12:26:30.581Z</time></trkpt><trkpt lat="43.3422333" lon="10.7502833"><ele>56.0</ele><time>2026-04-18T12:26:31.58Z</time></trkpt><trkpt lat="43.3420933" lon="10.7500917"><ele>55.66666666666667</ele><time>2026-04-18T12:26:32.581Z</time></trkpt><trkpt lat="43.3419533" lon="10.7498867"><ele>55.33333333333333</ele><time>2026-04-18T12:26:33.581Z</time></trkpt><trkpt lat="43.3418217" lon="10.7496883"><ele>55.0</ele><time>2026-04-18T12:26:34.58Z</time></trkpt><trkpt lat="43.34169" lon="10.7495117"><ele>54.666666666666664</ele><time>2026-04-18T12:26:35.58Z</time></trkpt><trkpt lat="43.3415617" lon="10.7493433"><ele>54.33333333333333</ele><time>2026-04-18T12:26:36.58Z</time></trkpt><trkpt lat="43.34142" lon="10.7491917"><ele>54.0</ele><time>2026-04-18T12:26:37.58Z</time></trkpt><trkpt lat="43.34127" lon="10.7490417"><ele>54.0</ele><time>2026-04-18T12:26:38.58Z</time></trkpt><trkpt lat="43.341115" lon="10.7489067"><ele>54.0</ele><time>2026-04-18T12:26:39.58Z</time></trkpt><trkpt lat="43.3409567" lon="10.748775"><ele>54.0</ele><time>2026-04-18T12:26:40.58Z</time></trkpt><trkpt lat="43.3407983" lon="10.7486517"><ele>54.0</ele><time>2026-04-18T12:26:41.58Z</time></trkpt><trkpt lat="43.3406283" lon="10.74855"><ele>54.0</ele><time>2026-04-18T12:26:42.58Z</time></trkpt><trkpt lat="43.340455" lon="10.74843"><ele>54.0</ele><time>2026-04-18T12:26:43.58Z</time></trkpt><trkpt lat="43.3402717" lon="10.7483233"><ele>54.33333333333333</ele><time>2026-04-18T12:26:44.581Z</time></trkpt><trkpt lat="43.3400817" lon="10.7482267"><ele>54.666666666666664</ele><time>2026-04-18T12:26:45.58Z</time></trkpt><trkpt lat="43.3398867" lon="10.7481433"><ele>55.0</ele><time>2026-04-18T12:26:46.58Z</time></trkpt><trkpt lat="43.3396967" lon="10.7480633"><ele>55.0</ele><time>2026-04-18T12:26:47.58Z</time></trkpt><trkpt lat="43.3395233" lon="10.747985"><ele>55.0</ele><time>2026-04-18T12:26:48.58Z</time></trkpt><trkpt lat="43.3393567" lon="10.7479217"><ele>55.0</ele><time>2026-04-18T12:26:49.58Z</time></trkpt><trkpt lat="43.339195" lon="10.7478633"><ele>55.0</ele><time>2026-04-18T12:26:50.58Z</time></trkpt><trkpt lat="43.3390367" lon="10.747815"><ele>55.0</ele><time>2026-04-18T12:26:51.581Z</time></trkpt><trkpt lat="43.3388633" lon="10.7477817"><ele>55.0</ele><time>2026-04-18T12:26:52.58Z</time></trkpt><trkpt lat="43.3386767" lon="10.7477733"><ele>54.0</ele><time>2026-04-18T12:26:53.58Z</time></trkpt><trkpt lat="43.3384867" lon="10.7477783"><ele>53.0</ele><time>2026-04-18T12:26:54.581Z</time></trkpt><trkpt lat="43.3382917" lon="10.747795"><ele>52.0</ele><time>2026-04-18T12:26:55.58Z</time></trkpt><trkpt lat="43.3380833" lon="10.7478267"><ele>52.33333333333333</ele><time>2026-04-18T12:26:56.58Z</time></trkpt><trkpt lat="43.3378833" lon="10.7478367"><ele>52.66666666666667</ele><time>2026-04-18T12:26:57.58Z</time></trkpt><trkpt lat="43.3377017" lon="10.7478167"><ele>53.0</ele><time>2026-04-18T12:26:58.58Z</time></trkpt><trkpt lat="43.3375317" lon="10.7477717"><ele>54.0</ele><time>2026-04-18T12:26:59.58Z</time></trkpt><trkpt lat="43.3373783" lon="10.7477033"><ele>55.0</ele><time>2026-04-18T12:27:00.58Z</time></trkpt><trkpt lat="43.3372317" lon="10.7476217"><ele>56.0</ele><time>2026-04-18T12:27:01.58Z</time></trkpt><trkpt lat="43.337105" lon="10.7475133"><ele>56.0</ele><time>2026-04-18T12:27:02.58Z</time></trkpt><trkpt lat="43.3369783" lon="10.7473783"><ele>56.0</ele><time>2026-04-18T12:27:03.58Z</time></trkpt><trkpt lat="43.3367283" lon="10.7470617"><ele>56.0</ele><time>2026-04-18T12:27:05.58Z</time></trkpt><trkpt lat="43.3366017" lon="10.7469"><ele>56.0</ele><time>2026-04-18T12:27:06.58Z</time></trkpt><trkpt lat="43.3364833" lon="10.7467333"><ele>56.0</ele><time>2026-04-18T12:27:07.58Z</time></trkpt><trkpt lat="43.3363817" lon="10.746575"><ele>55.66666666666667</ele><time>2026-04-18T12:27:08.58Z</time></trkpt><trkpt lat="43.3362983" lon="10.7464117"><ele>55.33333333333333</ele><time>2026-04-18T12:27:09.581Z</time></trkpt><trkpt lat="43.336225" lon="10.7462267"><ele>55.0</ele><time>2026-04-18T12:27:10.58Z</time></trkpt><trkpt lat="43.33616" lon="10.7460233"><ele>55.0</ele><time>2026-04-18T12:27:11.58Z</time></trkpt><trkpt lat="43.3361117" lon="10.745805"><ele>55.0</ele><time>2026-04-18T12:27:12.58Z</time></trkpt><trkpt lat="43.3360533" lon="10.7456033"><ele>55.0</ele><time>2026-04-18T12:27:13.58Z</time></trkpt><trkpt lat="43.3359967" lon="10.745415"><ele>55.0</ele><time>2026-04-18T12:27:14.58Z</time></trkpt><trkpt lat="43.3359467" lon="10.74524"><ele>55.0</ele><time>2026-04-18T12:27:15.58Z</time></trkpt><trkpt lat="43.3358933" lon="10.7450583"><ele>55.0</ele><time>2026-04-18T12:27:16.58Z</time></trkpt><trkpt lat="43.3358467" lon="10.7448817"><ele>55.0</ele><time>2026-04-18T12:27:17.581Z</time></trkpt><trkpt lat="43.3358" lon="10.7447217"><ele>55.75</ele><time>2026-04-18T12:27:18.58Z</time></trkpt><trkpt lat="43.3357567" lon="10.7445617"><ele>56.5</ele><time>2026-04-18T12:27:19.58Z</time></trkpt><trkpt lat="43.335705" lon="10.7443917"><ele>57.25</ele><time>2026-04-18T12:27:20.58Z</time></trkpt><trkpt lat="43.3356667" lon="10.7442083"><ele>58.0</ele><time>2026-04-18T12:27:21.58Z</time></trkpt><trkpt lat="43.3356117" lon="10.7440317"><ele>57.0</ele><time>2026-04-18T12:27:22.581Z</time></trkpt><trkpt lat="43.3355583" lon="10.7438517"><ele>56.0</ele><time>2026-04-18T12:27:23.58Z</time></trkpt><trkpt lat="43.33551" lon="10.7436617"><ele>55.0</ele><time>2026-04-18T12:27:24.58Z</time></trkpt><trkpt lat="43.3354667" lon="10.7434883"><ele>54.0</ele><time>2026-04-18T12:27:25.58Z</time></trkpt><trkpt lat="43.335425" lon="10.7433367"><ele>54.0</ele><time>2026-04-18T12:27:26.581Z</time></trkpt><trkpt lat="43.3354033" lon="10.7431967"><ele>54.00000000000001</ele><time>2026-04-18T12:27:27.58Z</time></trkpt><trkpt lat="43.3353967" lon="10.74306"><ele>54.00000000000001</ele><time>2026-04-18T12:27:28.58Z</time></trkpt><trkpt lat="43.33541" lon="10.7429333"><ele>54.0</ele><time>2026-04-18T12:27:29.58Z</time></trkpt><trkpt lat="43.3354183" lon="10.7428117"><ele>54.0</ele><time>2026-04-18T12:27:30.58Z</time></trkpt><trkpt lat="43.3354267" lon="10.7426983"><ele>54.0</ele><time>2026-04-18T12:27:31.58Z</time></trkpt><trkpt lat="43.3354433" lon="10.7426083"><ele>54.0</ele><time>2026-04-18T12:27:32.581Z</time></trkpt><trkpt lat="43.3354" lon="10.7424867"><ele>54.0</ele><time>2026-04-18T12:27:34.58Z</time></trkpt><trkpt lat="43.3353483" lon="10.74243"><ele>54.0</ele><time>2026-04-18T12:27:35.581Z</time></trkpt><trkpt lat="43.3352433" lon="10.742295"><ele>54.0</ele><time>2026-04-18T12:27:37.58Z</time></trkpt><trkpt lat="43.3351933" lon="10.7422267"><ele>54.0</ele><time>2026-04-18T12:27:38.58Z</time></trkpt><trkpt lat="43.3351467" lon="10.74215"><ele>54.0</ele><time>2026-04-18T12:27:39.581Z</time></trkpt><trkpt lat="43.3350967" lon="10.74206"><ele>54.00000000000001</ele><time>2026-04-18T12:27:40.58Z</time></trkpt><trkpt lat="43.3350383" lon="10.7419667"><ele>54.00000000000001</ele><time>2026-04-18T12:27:41.58Z</time></trkpt><trkpt lat="43.3349783" lon="10.7418617"><ele>54.0</ele><time>2026-04-18T12:27:42.58Z</time></trkpt><trkpt lat="43.3349183" lon="10.7417433"><ele>54.0</ele><time>2026-04-18T12:27:43.58Z</time></trkpt><trkpt lat="43.3348583" lon="10.7416417"><ele>53.6</ele><time>2026-04-18T12:27:44.58Z</time></trkpt><trkpt lat="43.3347983" lon="10.7415267"><ele>53.2</ele><time>2026-04-18T12:27:45.58Z</time></trkpt><trkpt lat="43.3347317" lon="10.7414083"><ele>52.800000000000004</ele><time>2026-04-18T12:27:46.58Z</time></trkpt><trkpt lat="43.3346583" lon="10.74128"><ele>52.400000000000006</ele><time>2026-04-18T12:27:47.58Z</time></trkpt><trkpt lat="43.3345767" lon="10.7411633"><ele>52.0</ele><time>2026-04-18T12:27:48.58Z</time></trkpt><trkpt lat="43.3345017" lon="10.7410417"><ele>51.8</ele><time>2026-04-18T12:27:49.58Z</time></trkpt><trkpt lat="43.33444" lon="10.7409033"><ele>51.6</ele><time>2026-04-18T12:27:50.581Z</time></trkpt><trkpt lat="43.3343717" lon="10.7407933"><ele>51.4</ele><time>2026-04-18T12:27:51.58Z</time></trkpt><trkpt lat="43.33431" lon="10.74069"><ele>51.199999999999996</ele><time>2026-04-18T12:27:52.58Z</time></trkpt><trkpt lat="43.3342367" lon="10.7405733"><ele>51.0</ele><time>2026-04-18T12:27:53.58Z</time></trkpt><trkpt lat="43.3341567" lon="10.7404533"><ele>51.0</ele><time>2026-04-18T12:27:54.58Z</time></trkpt><trkpt lat="43.3340783" lon="10.7403217"><ele>51.0</ele><time>2026-04-18T12:27:55.58Z</time></trkpt><trkpt lat="43.33399" lon="10.740185"><ele>51.0</ele><time>2026-04-18T12:27:56.581Z</time></trkpt><trkpt lat="43.33391" lon="10.740035"><ele>51.0</ele><time>2026-04-18T12:27:57.58Z</time></trkpt><trkpt lat="43.333825" lon="10.7398883"><ele>51.25</ele><time>2026-04-18T12:27:58.58Z</time></trkpt><trkpt lat="43.3337367" lon="10.7397433"><ele>51.5</ele><time>2026-04-18T12:27:59.58Z</time></trkpt><trkpt lat="43.3336583" lon="10.7396067"><ele>51.75</ele><time>2026-04-18T12:28:00.58Z</time></trkpt><trkpt lat="43.3335783" lon="10.7394767"><ele>52.0</ele><time>2026-04-18T12:28:01.58Z</time></trkpt><trkpt lat="43.3334983" lon="10.7393467"><ele>52.0</ele><time>2026-04-18T12:28:02.58Z</time></trkpt><trkpt lat="43.3334267" lon="10.7392183"><ele>52.0</ele><time>2026-04-18T12:28:03.58Z</time></trkpt><trkpt lat="43.3333467" lon="10.73908"><ele>52.0</ele><time>2026-04-18T12:28:04.58Z</time></trkpt><trkpt lat="43.3332517" lon="10.7389417"><ele>52.0</ele><time>2026-04-18T12:28:05.58Z</time></trkpt><trkpt lat="43.33314" lon="10.7388117"><ele>52.33333333333333</ele><time>2026-04-18T12:28:06.581Z</time></trkpt><trkpt lat="43.3330267" lon="10.7386983"><ele>52.66666666666667</ele><time>2026-04-18T12:28:07.581Z</time></trkpt><trkpt lat="43.3328933" lon="10.7386033"><ele>53.0</ele><time>2026-04-18T12:28:08.58Z</time></trkpt><trkpt lat="43.3324767" lon="10.7383783"><ele>53.25</ele><time>2026-04-18T12:28:11.581Z</time></trkpt><trkpt lat="43.3323417" lon="10.7383"><ele>53.5</ele><time>2026-04-18T12:28:12.581Z</time></trkpt><trkpt lat="43.332205" lon="10.7382217"><ele>53.75</ele><time>2026-04-18T12:28:13.58Z</time></trkpt><trkpt lat="43.332065" lon="10.738145"><ele>54.0</ele><time>2026-04-18T12:28:14.581Z</time></trkpt><trkpt lat="43.3319267" lon="10.7380717"><ele>53.5</ele><time>2026-04-18T12:28:15.58Z</time></trkpt><trkpt lat="43.3317867" lon="10.7379917"><ele>53.0</ele><time>2026-04-18T12:28:16.58Z</time></trkpt><trkpt lat="43.3316483" lon="10.737915"><ele>52.5</ele><time>2026-04-18T12:28:17.579Z</time></trkpt><trkpt lat="43.331515" lon="10.73784"><ele>52.0</ele><time>2026-04-18T12:28:18.58Z</time></trkpt><trkpt lat="43.3313883" lon="10.7377517"><ele>54.5</ele><time>2026-04-18T12:28:19.579Z</time></trkpt><trkpt lat="43.3312583" lon="10.7376517"><ele>57.0</ele><time>2026-04-18T12:28:20.58Z</time></trkpt><trkpt lat="43.3311417" lon="10.73753"><ele>59.5</ele><time>2026-04-18T12:28:21.579Z</time></trkpt><trkpt lat="43.3310467" lon="10.7373917"><ele>62.0</ele><time>2026-04-18T12:28:22.579Z</time></trkpt><trkpt lat="43.330965" lon="10.7372367"><ele>62.0</ele><time>2026-04-18T12:28:23.579Z</time></trkpt><trkpt lat="43.3308967" lon="10.737065"><ele>62.0</ele><time>2026-04-18T12:28:24.579Z</time></trkpt><trkpt lat="43.3308317" lon="10.7368767"><ele>62.0</ele><time>2026-04-18T12:28:25.579Z</time></trkpt><trkpt lat="43.3307767" lon="10.7367033"><ele>62.0</ele><time>2026-04-18T12:28:26.579Z</time></trkpt><trkpt lat="43.33074" lon="10.736535"><ele>62.400000000000006</ele><time>2026-04-18T12:28:27.58Z</time></trkpt><trkpt lat="43.3307017" lon="10.73638"><ele>62.800000000000004</ele><time>2026-04-18T12:28:28.579Z</time></trkpt><trkpt lat="43.3306717" lon="10.7362633"><ele>63.2</ele><time>2026-04-18T12:28:29.579Z</time></trkpt><trkpt lat="43.33061" lon="10.7361467"><ele>63.6</ele><time>2026-04-18T12:28:31.579Z</time></trkpt><trkpt lat="43.330515" lon="10.7361217"><ele>64.0</ele><time>2026-04-18T12:28:33.579Z</time></trkpt><trkpt lat="43.3303717" lon="10.7361967"><ele>66.0</ele><time>2026-04-18T12:28:35.579Z</time></trkpt><trkpt lat="43.3302683" lon="10.7362583"><ele>68.0</ele><time>2026-04-18T12:28:36.579Z</time></trkpt><trkpt lat="43.330155" lon="10.7363317"><ele>70.0</ele><time>2026-04-18T12:28:37.579Z</time></trkpt><trkpt lat="43.3300433" lon="10.7364017"><ele>72.0</ele><time>2026-04-18T12:28:38.579Z</time></trkpt><trkpt lat="43.329945" lon="10.7364433"><ele>72.0</ele><time>2026-04-18T12:28:39.579Z</time></trkpt><trkpt lat="43.3298483" lon="10.7364967"><ele>72.0</ele><time>2026-04-18T12:28:40.579Z</time></trkpt><trkpt lat="43.3297517" lon="10.7365517"><ele>72.0</ele><time>2026-04-18T12:28:41.579Z</time></trkpt><trkpt lat="43.3295233" lon="10.73667"><ele>72.33333333333333</ele><time>2026-04-18T12:28:43.58Z</time></trkpt><trkpt lat="43.3293867" lon="10.7367483"><ele>72.66666666666666</ele><time>2026-04-18T12:28:44.58Z</time></trkpt><trkpt lat="43.3292367" lon="10.7368317"><ele>73.0</ele><time>2026-04-18T12:28:45.579Z</time></trkpt><trkpt lat="43.3290917" lon="10.7369183"><ele>73.33333333333333</ele><time>2026-04-18T12:28:46.579Z</time></trkpt><trkpt lat="43.328935" lon="10.7369983"><ele>73.66666666666667</ele><time>2026-04-18T12:28:47.579Z</time></trkpt><trkpt lat="43.328795" lon="10.7370733"><ele>74.0</ele><time>2026-04-18T12:28:48.579Z</time></trkpt><trkpt lat="43.328665" lon="10.73714"><ele>74.5</ele><time>2026-04-18T12:28:49.58Z</time></trkpt><trkpt lat="43.3285333" lon="10.73721"><ele>75.0</ele><time>2026-04-18T12:28:50.579Z</time></trkpt><trkpt lat="43.3284" lon="10.7372817"><ele>75.5</ele><time>2026-04-18T12:28:51.579Z</time></trkpt><trkpt lat="43.328265" lon="10.73736"><ele>76.0</ele><time>2026-04-18T12:28:52.579Z</time></trkpt><trkpt lat="43.3281217" lon="10.737435"><ele>76.5</ele><time>2026-04-18T12:28:53.58Z</time></trkpt><trkpt lat="43.3280017" lon="10.73751"><ele>77.0</ele><time>2026-04-18T12:28:54.579Z</time></trkpt><trkpt lat="43.3278767" lon="10.737575"><ele>77.5</ele><time>2026-04-18T12:28:55.579Z</time></trkpt><trkpt lat="43.3277533" lon="10.7376367"><ele>78.0</ele><time>2026-04-18T12:28:56.579Z</time></trkpt><trkpt lat="43.3276417" lon="10.737695"><ele>78.0</ele><time>2026-04-18T12:28:57.579Z</time></trkpt><trkpt lat="43.3275367" lon="10.7377567"><ele>78.0</ele><time>2026-04-18T12:28:58.58Z</time></trkpt><trkpt lat="43.32744" lon="10.7378167"><ele>78.0</ele><time>2026-04-18T12:28:59.579Z</time></trkpt><trkpt lat="43.3273517" lon="10.7378983"><ele>78.0</ele><time>2026-04-18T12:29:00.579Z</time></trkpt><trkpt lat="43.3272683" lon="10.7379883"><ele>78.0</ele><time>2026-04-18T12:29:01.579Z</time></trkpt><trkpt lat="43.3271733" lon="10.7380883"><ele>78.0</ele><time>2026-04-18T12:29:02.579Z</time></trkpt><trkpt lat="43.3270667" lon="10.738175"><ele>78.0</ele><time>2026-04-18T12:29:03.58Z</time></trkpt><trkpt lat="43.3269483" lon="10.73826"><ele>78.0</ele><time>2026-04-18T12:29:04.579Z</time></trkpt><trkpt lat="43.3268417" lon="10.7383367"><ele>78.0</ele><time>2026-04-18T12:29:05.579Z</time></trkpt><trkpt lat="43.326745" lon="10.7384133"><ele>78.0</ele><time>2026-04-18T12:29:06.579Z</time></trkpt><trkpt lat="43.3266533" lon="10.7385133"><ele>78.0</ele><time>2026-04-18T12:29:07.579Z</time></trkpt><trkpt lat="43.32657" lon="10.7386167"><ele>78.0</ele><time>2026-04-18T12:29:08.58Z</time></trkpt><trkpt lat="43.3264933" lon="10.738735"><ele>78.0</ele><time>2026-04-18T12:29:09.58Z</time></trkpt><trkpt lat="43.3264367" lon="10.7388367"><ele>78.0</ele><time>2026-04-18T12:29:10.579Z</time></trkpt><trkpt lat="43.3263883" lon="10.7389433"><ele>78.25</ele><time>2026-04-18T12:29:11.579Z</time></trkpt><trkpt lat="43.3263533" lon="10.7390533"><ele>78.5</ele><time>2026-04-18T12:29:12.579Z</time></trkpt><trkpt lat="43.3263317" lon="10.7391917"><ele>78.75</ele><time>2026-04-18T12:29:13.579Z</time></trkpt><trkpt lat="43.3263367" lon="10.7393467"><ele>79.0</ele><time>2026-04-18T12:29:14.579Z</time></trkpt><trkpt lat="43.326365" lon="10.73965"><ele>77.33333333333333</ele><time>2026-04-18T12:29:16.579Z</time></trkpt><trkpt lat="43.32636" lon="10.7397733"><ele>75.66666666666666</ele><time>2026-04-18T12:29:17.58Z</time></trkpt><trkpt lat="43.3263383" lon="10.7398867"><ele>74.0</ele><time>2026-04-18T12:29:18.579Z</time></trkpt><trkpt lat="43.3263083" lon="10.7399817"><ele>72.33333333333333</ele><time>2026-04-18T12:29:19.579Z</time></trkpt><trkpt lat="43.3262483" lon="10.7400767"><ele>70.66666666666667</ele><time>2026-04-18T12:29:20.579Z</time></trkpt><trkpt lat="43.3261633" lon="10.7401583"><ele>69.0</ele><time>2026-04-18T12:29:21.579Z</time></trkpt><trkpt lat="43.3260417" lon="10.740225"><ele>67.0</ele><time>2026-04-18T12:29:22.579Z</time></trkpt><trkpt lat="43.3258883" lon="10.740305"><ele>65.0</ele><time>2026-04-18T12:29:23.579Z</time></trkpt><trkpt lat="43.32573" lon="10.7403983"><ele>63.0</ele><time>2026-04-18T12:29:24.579Z</time></trkpt><trkpt lat="43.3255717" lon="10.740495"><ele>63.66666666666667</ele><time>2026-04-18T12:29:25.579Z</time></trkpt><trkpt lat="43.3254183" lon="10.7406"><ele>64.33333333333334</ele><time>2026-04-18T12:29:26.579Z</time></trkpt><trkpt lat="43.325275" lon="10.7407167"><ele>65.0</ele><time>2026-04-18T12:29:27.58Z</time></trkpt><trkpt lat="43.3251383" lon="10.7408233"><ele>65.0</ele><time>2026-04-18T12:29:28.579Z</time></trkpt><trkpt lat="43.3250133" lon="10.7409517"><ele>65.0</ele><time>2026-04-18T12:29:29.58Z</time></trkpt><trkpt lat="43.3248933" lon="10.7411067"><ele>65.0</ele><time>2026-04-18T12:29:30.58Z</time></trkpt><trkpt lat="43.3247733" lon="10.7412717"><ele>64.0</ele><time>2026-04-18T12:29:31.58Z</time></trkpt><trkpt lat="43.3246533" lon="10.7414383"><ele>63.0</ele><time>2026-04-18T12:29:32.579Z</time></trkpt><trkpt lat="43.3245417" lon="10.741595"><ele>62.0</ele><time>2026-04-18T12:29:33.579Z</time></trkpt><trkpt lat="43.324435" lon="10.7417533"><ele>60.333333333333336</ele><time>2026-04-18T12:29:34.579Z</time></trkpt><trkpt lat="43.3243333" lon="10.7419167"><ele>58.66666666666667</ele><time>2026-04-18T12:29:35.579Z</time></trkpt><trkpt lat="43.324225" lon="10.74209"><ele>57.0</ele><time>2026-04-18T12:29:36.579Z</time></trkpt><trkpt lat="43.324105" lon="10.7422783"><ele>57.0</ele><time>2026-04-18T12:29:37.579Z</time></trkpt><trkpt lat="43.32398" lon="10.7424717"><ele>57.0</ele><time>2026-04-18T12:29:38.579Z</time></trkpt><trkpt lat="43.3238583" lon="10.7426633"><ele>57.0</ele><time>2026-04-18T12:29:39.579Z</time></trkpt><trkpt lat="43.3237383" lon="10.74286"><ele>57.33333333333333</ele><time>2026-04-18T12:29:40.579Z</time></trkpt><trkpt lat="43.3236133" lon="10.7430567"><ele>57.666666666666664</ele><time>2026-04-18T12:29:41.579Z</time></trkpt><trkpt lat="43.3234883" lon="10.743265"><ele>58.0</ele><time>2026-04-18T12:29:42.579Z</time></trkpt><trkpt lat="43.3233583" lon="10.7434767"><ele>57.0</ele><time>2026-04-18T12:29:43.579Z</time></trkpt><trkpt lat="43.3232283" lon="10.7436867"><ele>56.0</ele><time>2026-04-18T12:29:44.579Z</time></trkpt><trkpt lat="43.32309" lon="10.743905"><ele>55.0</ele><time>2026-04-18T12:29:45.579Z</time></trkpt><trkpt lat="43.322965" lon="10.7441067"><ele>56.0</ele><time>2026-04-18T12:29:46.579Z</time></trkpt><trkpt lat="43.3227367" lon="10.744485"><ele>57.0</ele><time>2026-04-18T12:29:48.579Z</time></trkpt><trkpt lat="43.32263" lon="10.7446617"><ele>57.0</ele><time>2026-04-18T12:29:49.579Z</time></trkpt><trkpt lat="43.32253" lon="10.7448283"><ele>57.0</ele><time>2026-04-18T12:29:50.579Z</time></trkpt><trkpt lat="43.3224333" lon="10.7449883"><ele>57.0</ele><time>2026-04-18T12:29:51.579Z</time></trkpt><trkpt lat="43.322335" lon="10.74515"><ele>58.33333333333333</ele><time>2026-04-18T12:29:52.58Z</time></trkpt><trkpt lat="43.3222267" lon="10.7453283"><ele>59.666666666666664</ele><time>2026-04-18T12:29:53.579Z</time></trkpt><trkpt lat="43.3221233" lon="10.7455117"><ele>61.0</ele><time>2026-04-18T12:29:54.579Z</time></trkpt><trkpt lat="43.322025" lon="10.745695"><ele>61.0</ele><time>2026-04-18T12:29:55.579Z</time></trkpt><trkpt lat="43.321925" lon="10.7458883"><ele>61.0</ele><time>2026-04-18T12:29:56.579Z</time></trkpt><trkpt lat="43.32183" lon="10.7460983"><ele>61.0</ele><time>2026-04-18T12:29:57.579Z</time></trkpt><trkpt lat="43.3217317" lon="10.7463083"><ele>59.33333333333333</ele><time>2026-04-18T12:29:58.58Z</time></trkpt><trkpt lat="43.321645" lon="10.7465267"><ele>57.66666666666667</ele><time>2026-04-18T12:29:59.58Z</time></trkpt><trkpt lat="43.3215583" lon="10.74674"><ele>56.0</ele><time>2026-04-18T12:30:00.579Z</time></trkpt><trkpt lat="43.32147" lon="10.7469633"><ele>59.66666666666667</ele><time>2026-04-18T12:30:01.579Z</time></trkpt><trkpt lat="43.3213783" lon="10.7471867"><ele>63.33333333333333</ele><time>2026-04-18T12:30:02.579Z</time></trkpt><trkpt lat="43.3212883" lon="10.7474067"><ele>67.0</ele><time>2026-04-18T12:30:03.579Z</time></trkpt><trkpt lat="43.3211983" lon="10.747635"><ele>65.0</ele><time>2026-04-18T12:30:04.579Z</time></trkpt><trkpt lat="43.3211" lon="10.7478667"><ele>63.0</ele><time>2026-04-18T12:30:05.579Z</time></trkpt><trkpt lat="43.3210083" lon="10.748095"><ele>61.0</ele><time>2026-04-18T12:30:06.579Z</time></trkpt><trkpt lat="43.3209183" lon="10.7483317"><ele>59.666666666666664</ele><time>2026-04-18T12:30:07.579Z</time></trkpt><trkpt lat="43.3208233" lon="10.74857"><ele>58.33333333333333</ele><time>2026-04-18T12:30:08.579Z</time></trkpt><trkpt lat="43.3207233" lon="10.7488017"><ele>57.0</ele><time>2026-04-18T12:30:09.579Z</time></trkpt><trkpt lat="43.32063" lon="10.749035"><ele>58.66666666666667</ele><time>2026-04-18T12:30:10.579Z</time></trkpt><trkpt lat="43.3205333" lon="10.7492583"><ele>60.333333333333336</ele><time>2026-04-18T12:30:11.579Z</time></trkpt><trkpt lat="43.32045" lon="10.7494617"><ele>62.0</ele><time>2026-04-18T12:30:12.579Z</time></trkpt><trkpt lat="43.3203683" lon="10.7496533"><ele>62.0</ele><time>2026-04-18T12:30:13.58Z</time></trkpt><trkpt lat="43.320295" lon="10.7498383"><ele>62.0</ele><time>2026-04-18T12:30:14.579Z</time></trkpt><trkpt lat="43.3202133" lon="10.7500083"><ele>62.0</ele><time>2026-04-18T12:30:15.58Z</time></trkpt><trkpt lat="43.3201067" lon="10.7501717"><ele>63.0</ele><time>2026-04-18T12:30:16.579Z</time></trkpt><trkpt lat="43.3199767" lon="10.7503317"><ele>64.0</ele><time>2026-04-18T12:30:17.579Z</time></trkpt><trkpt lat="43.3198383" lon="10.7504967"><ele>65.0</ele><time>2026-04-18T12:30:18.58Z</time></trkpt><trkpt lat="43.3196983" lon="10.7506517"><ele>65.0</ele><time>2026-04-18T12:30:19.579Z</time></trkpt><trkpt lat="43.31943" lon="10.7509433"><ele>65.0</ele><time>2026-04-18T12:30:21.579Z</time></trkpt><trkpt lat="43.31931" lon="10.7510783"><ele>64.0</ele><time>2026-04-18T12:30:22.579Z</time></trkpt><trkpt lat="43.3191967" lon="10.75122"><ele>63.0</ele><time>2026-04-18T12:30:23.579Z</time></trkpt><trkpt lat="43.3190917" lon="10.7513783"><ele>62.0</ele><time>2026-04-18T12:30:24.579Z</time></trkpt><trkpt lat="43.319005" lon="10.7515583"><ele>62.0</ele><time>2026-04-18T12:30:25.579Z</time></trkpt><trkpt lat="43.3189283" lon="10.7517583"><ele>62.0</ele><time>2026-04-18T12:30:26.579Z</time></trkpt><trkpt lat="43.3188467" lon="10.7519817"><ele>62.0</ele><time>2026-04-18T12:30:27.579Z</time></trkpt><trkpt lat="43.318765" lon="10.7522017"><ele>64.66666666666667</ele><time>2026-04-18T12:30:28.58Z</time></trkpt><trkpt lat="43.318675" lon="10.752435"><ele>67.33333333333333</ele><time>2026-04-18T12:30:29.579Z</time></trkpt><trkpt lat="43.3185767" lon="10.75269"><ele>70.0</ele><time>2026-04-18T12:30:30.58Z</time></trkpt><trkpt lat="43.3184767" lon="10.7529583"><ele>70.0</ele><time>2026-04-18T12:30:31.579Z</time></trkpt><trkpt lat="43.3183783" lon="10.7532183"><ele>70.0</ele><time>2026-04-18T12:30:32.579Z</time></trkpt><trkpt lat="43.3182883" lon="10.7534667"><ele>70.0</ele><time>2026-04-18T12:30:33.579Z</time></trkpt><trkpt lat="43.3182083" lon="10.7536983"><ele>69.0</ele><time>2026-04-18T12:30:34.579Z</time></trkpt><trkpt lat="43.3181233" lon="10.7539367"><ele>68.0</ele><time>2026-04-18T12:30:35.579Z</time></trkpt><trkpt lat="43.318025" lon="10.754175"><ele>67.0</ele><time>2026-04-18T12:30:36.579Z</time></trkpt><trkpt lat="43.3179367" lon="10.7544083"><ele>67.0</ele><time>2026-04-18T12:30:37.579Z</time></trkpt><trkpt lat="43.3178417" lon="10.754635"><ele>67.0</ele><time>2026-04-18T12:30:38.579Z</time></trkpt><trkpt lat="43.3177783" lon="10.7548483"><ele>67.0</ele><time>2026-04-18T12:30:39.579Z</time></trkpt><trkpt lat="43.3177283" lon="10.7550583"><ele>66.66666666666666</ele><time>2026-04-18T12:30:40.579Z</time></trkpt><trkpt lat="43.3176717" lon="10.7552633"><ele>66.33333333333333</ele><time>2026-04-18T12:30:41.58Z</time></trkpt><trkpt lat="43.317605" lon="10.7554633"><ele>66.0</ele><time>2026-04-18T12:30:42.579Z</time></trkpt><trkpt lat="43.31754" lon="10.7556767"><ele>66.0</ele><time>2026-04-18T12:30:43.579Z</time></trkpt><trkpt lat="43.31747" lon="10.755895"><ele>66.0</ele><time>2026-04-18T12:30:44.579Z</time></trkpt><trkpt lat="43.3174033" lon="10.7561183"><ele>66.0</ele><time>2026-04-18T12:30:45.58Z</time></trkpt><trkpt lat="43.3173217" lon="10.7563533"><ele>65.66666666666667</ele><time>2026-04-18T12:30:46.579Z</time></trkpt><trkpt lat="43.3172433" lon="10.7565967"><ele>65.33333333333334</ele><time>2026-04-18T12:30:47.579Z</time></trkpt><trkpt lat="43.3171567" lon="10.7568267"><ele>65.0</ele><time>2026-04-18T12:30:48.579Z</time></trkpt><trkpt lat="43.3170767" lon="10.7570617"><ele>68.0</ele><time>2026-04-18T12:30:49.579Z</time></trkpt><trkpt lat="43.317" lon="10.7573017"><ele>71.0</ele><time>2026-04-18T12:30:50.579Z</time></trkpt><trkpt lat="43.3169383" lon="10.75755"><ele>74.0</ele><time>2026-04-18T12:30:51.579Z</time></trkpt><trkpt lat="43.31689" lon="10.7577817"><ele>74.0</ele><time>2026-04-18T12:30:52.58Z</time></trkpt><trkpt lat="43.316785" lon="10.758225"><ele>74.0</ele><time>2026-04-18T12:30:54.579Z</time></trkpt><trkpt lat="43.3167383" lon="10.7584667"><ele>72.0</ele><time>2026-04-18T12:30:55.579Z</time></trkpt><trkpt lat="43.3167017" lon="10.7587167"><ele>70.0</ele><time>2026-04-18T12:30:56.579Z</time></trkpt><trkpt lat="43.316655" lon="10.758955"><ele>68.0</ele><time>2026-04-18T12:30:57.579Z</time></trkpt><trkpt lat="43.31661" lon="10.759205"><ele>67.33333333333334</ele><time>2026-04-18T12:30:58.579Z</time></trkpt><trkpt lat="43.3165617" lon="10.7594633"><ele>66.66666666666667</ele><time>2026-04-18T12:30:59.579Z</time></trkpt><trkpt lat="43.316515" lon="10.759725"><ele>66.0</ele><time>2026-04-18T12:31:00.579Z</time></trkpt><trkpt lat="43.31647" lon="10.7599617"><ele>66.0</ele><time>2026-04-18T12:31:01.579Z</time></trkpt><trkpt lat="43.31643" lon="10.7601917"><ele>66.0</ele><time>2026-04-18T12:31:02.579Z</time></trkpt><trkpt lat="43.3163867" lon="10.760395"><ele>66.0</ele><time>2026-04-18T12:31:03.579Z</time></trkpt><trkpt lat="43.3163483" lon="10.7605683"><ele>66.33333333333333</ele><time>2026-04-18T12:31:04.579Z</time></trkpt><trkpt lat="43.3163183" lon="10.7607167"><ele>66.66666666666667</ele><time>2026-04-18T12:31:05.579Z</time></trkpt><trkpt lat="43.31629" lon="10.7608367"><ele>67.0</ele><time>2026-04-18T12:31:06.579Z</time></trkpt><trkpt lat="43.3162467" lon="10.760915"><ele>67.33333333333334</ele><time>2026-04-18T12:31:07.579Z</time></trkpt><trkpt lat="43.3161917" lon="10.7609783"><ele>67.66666666666667</ele><time>2026-04-18T12:31:08.579Z</time></trkpt><trkpt lat="43.3161217" lon="10.76102"><ele>68.0</ele><time>2026-04-18T12:31:09.579Z</time></trkpt><trkpt lat="43.31603" lon="10.761055"><ele>68.0</ele><time>2026-04-18T12:31:10.579Z</time></trkpt><trkpt lat="43.315915" lon="10.761095"><ele>68.0</ele><time>2026-04-18T12:31:11.58Z</time></trkpt><trkpt lat="43.3157783" lon="10.7611367"><ele>68.0</ele><time>2026-04-18T12:31:12.579Z</time></trkpt><trkpt lat="43.3156283" lon="10.7612017"><ele>68.0</ele><time>2026-04-18T12:31:13.579Z</time></trkpt><trkpt lat="43.3154867" lon="10.7612833"><ele>67.66666666666667</ele><time>2026-04-18T12:31:14.58Z</time></trkpt><trkpt lat="43.3153483" lon="10.7614017"><ele>67.33333333333333</ele><time>2026-04-18T12:31:15.579Z</time></trkpt><trkpt lat="43.3152133" lon="10.7615517"><ele>67.0</ele><time>2026-04-18T12:31:16.579Z</time></trkpt><trkpt lat="43.3150983" lon="10.7617"><ele>67.0</ele><time>2026-04-18T12:31:17.579Z</time></trkpt><trkpt lat="43.315005" lon="10.7618417"><ele>67.0</ele><time>2026-04-18T12:31:18.579Z</time></trkpt><trkpt lat="43.3149083" lon="10.761975"><ele>67.0</ele><time>2026-04-18T12:31:19.579Z</time></trkpt><trkpt lat="43.3148033" lon="10.762105"><ele>67.0</ele><time>2026-04-18T12:31:20.579Z</time></trkpt><trkpt lat="43.314675" lon="10.7622283"><ele>68.0</ele><time>2026-04-18T12:31:21.579Z</time></trkpt><trkpt lat="43.31455" lon="10.7623317"><ele>69.0</ele><time>2026-04-18T12:31:22.58Z</time></trkpt><trkpt lat="43.314415" lon="10.7624417"><ele>70.0</ele><time>2026-04-18T12:31:23.579Z</time></trkpt><trkpt lat="43.3142833" lon="10.76257"><ele>69.5</ele><time>2026-04-18T12:31:24.579Z</time></trkpt><trkpt lat="43.3141467" lon="10.7627333"><ele>69.0</ele><time>2026-04-18T12:31:25.579Z</time></trkpt><trkpt lat="43.3138933" lon="10.763115"><ele>71.0</ele><time>2026-04-18T12:31:27.579Z</time></trkpt><trkpt lat="43.3137717" lon="10.7633133"><ele>73.0</ele><time>2026-04-18T12:31:28.579Z</time></trkpt><trkpt lat="43.313655" lon="10.7635033"><ele>75.0</ele><time>2026-04-18T12:31:29.579Z</time></trkpt><trkpt lat="43.3135633" lon="10.76367"><ele>75.0</ele><time>2026-04-18T12:31:30.58Z</time></trkpt><trkpt lat="43.3134583" lon="10.7638033"><ele>75.0</ele><time>2026-04-18T12:31:31.58Z</time></trkpt><trkpt lat="43.3133467" lon="10.7639133"><ele>75.0</ele><time>2026-04-18T12:31:32.579Z</time></trkpt><trkpt lat="43.313215" lon="10.76402"><ele>75.0</ele><time>2026-04-18T12:31:33.579Z</time></trkpt><trkpt lat="43.313075" lon="10.7641117"><ele>79.0</ele><time>2026-04-18T12:31:34.579Z</time></trkpt><trkpt lat="43.3129333" lon="10.7641933"><ele>83.0</ele><time>2026-04-18T12:31:35.58Z</time></trkpt><trkpt lat="43.3127933" lon="10.7642917"><ele>87.0</ele><time>2026-04-18T12:31:36.578Z</time></trkpt><trkpt lat="43.3126467" lon="10.764405"><ele>87.0</ele><time>2026-04-18T12:31:37.578Z</time></trkpt><trkpt lat="43.312505" lon="10.7645367"><ele>87.0</ele><time>2026-04-18T12:31:38.578Z</time></trkpt><trkpt lat="43.3123633" lon="10.764665"><ele>87.0</ele><time>2026-04-18T12:31:39.578Z</time></trkpt><trkpt lat="43.3122333" lon="10.7647933"><ele>90.5</ele><time>2026-04-18T12:31:40.578Z</time></trkpt><trkpt lat="43.312125" lon="10.7648917"><ele>94.0</ele><time>2026-04-18T12:31:41.578Z</time></trkpt><trkpt lat="43.3120367" lon="10.7650083"><ele>97.5</ele><time>2026-04-18T12:31:42.578Z</time></trkpt><trkpt lat="43.3119567" lon="10.765135"><ele>101.0</ele><time>2026-04-18T12:31:43.578Z</time></trkpt><trkpt lat="43.3118817" lon="10.7652817"><ele>101.75</ele><time>2026-04-18T12:31:44.578Z</time></trkpt><trkpt lat="43.3118067" lon="10.765455"><ele>102.5</ele><time>2026-04-18T12:31:45.578Z</time></trkpt><trkpt lat="43.31174" lon="10.7656267"><ele>103.25</ele><time>2026-04-18T12:31:46.578Z</time></trkpt><trkpt lat="43.31168" lon="10.7657817"><ele>104.0</ele><time>2026-04-18T12:31:47.578Z</time></trkpt><trkpt lat="43.3116067" lon="10.7659083"><ele>104.0</ele><time>2026-04-18T12:31:48.578Z</time></trkpt><trkpt lat="43.3115267" lon="10.7660167"><ele>104.0</ele><time>2026-04-18T12:31:49.578Z</time></trkpt><trkpt lat="43.311425" lon="10.7660933"><ele>104.0</ele><time>2026-04-18T12:31:50.578Z</time></trkpt><trkpt lat="43.3113183" lon="10.76613"><ele>104.0</ele><time>2026-04-18T12:31:51.578Z</time></trkpt><trkpt lat="43.3112" lon="10.7661117"><ele>106.25</ele><time>2026-04-18T12:31:52.578Z</time></trkpt><trkpt lat="43.3110733" lon="10.7660733"><ele>108.5</ele><time>2026-04-18T12:31:53.578Z</time></trkpt><trkpt lat="43.3109483" lon="10.766025"><ele>110.75</ele><time>2026-04-18T12:31:54.578Z</time></trkpt><trkpt lat="43.3108067" lon="10.7659783"><ele>113.0</ele><time>2026-04-18T12:31:55.578Z</time></trkpt><trkpt lat="43.3106767" lon="10.7659333"><ele>119.5</ele><time>2026-04-18T12:31:56.578Z</time></trkpt><trkpt lat="43.3105517" lon="10.7658683"><ele>126.0</ele><time>2026-04-18T12:31:57.579Z</time></trkpt><trkpt lat="43.310155" lon="10.7655383"><ele>126.0</ele><time>2026-04-18T12:32:00.578Z</time></trkpt><trkpt lat="43.3100467" lon="10.7653933"><ele>126.0</ele><time>2026-04-18T12:32:01.578Z</time></trkpt><trkpt lat="43.3099583" lon="10.7652317"><ele>126.0</ele><time>2026-04-18T12:32:02.578Z</time></trkpt><trkpt lat="43.309885" lon="10.765045"><ele>126.25</ele><time>2026-04-18T12:32:03.578Z</time></trkpt><trkpt lat="43.309825" lon="10.7648417"><ele>126.5</ele><time>2026-04-18T12:32:04.578Z</time></trkpt><trkpt lat="43.3097817" lon="10.7646467"><ele>126.75</ele><time>2026-04-18T12:32:05.578Z</time></trkpt><trkpt lat="43.30974" lon="10.76447"><ele>127.0</ele><time>2026-04-18T12:32:06.578Z</time></trkpt><trkpt lat="43.3096833" lon="10.764315"><ele>128.6</ele><time>2026-04-18T12:32:07.579Z</time></trkpt><trkpt lat="43.309625" lon="10.764195"><ele>130.2</ele><time>2026-04-18T12:32:08.578Z</time></trkpt><trkpt lat="43.30957" lon="10.764125"><ele>131.8</ele><time>2026-04-18T12:32:09.578Z</time></trkpt><trkpt lat="43.3095117" lon="10.764085"><ele>133.4</ele><time>2026-04-18T12:32:10.578Z</time></trkpt><trkpt lat="43.309385" lon="10.7641133"><ele>135.0</ele><time>2026-04-18T12:32:12.579Z</time></trkpt><trkpt lat="43.3093167" lon="10.7642117"><ele>135.0</ele><time>2026-04-18T12:32:13.579Z</time></trkpt><trkpt lat="43.309235" lon="10.7643483"><ele>135.0</ele><time>2026-04-18T12:32:14.578Z</time></trkpt><trkpt lat="43.3091633" lon="10.7644617"><ele>135.0</ele><time>2026-04-18T12:32:15.578Z</time></trkpt><trkpt lat="43.3090967" lon="10.764555"><ele>135.0</ele><time>2026-04-18T12:32:16.578Z</time></trkpt><trkpt lat="43.30903" lon="10.764625"><ele>135.0</ele><time>2026-04-18T12:32:17.579Z</time></trkpt><trkpt lat="43.3089433" lon="10.7646867"><ele>136.4</ele><time>2026-04-18T12:32:18.578Z</time></trkpt><trkpt lat="43.308855" lon="10.7647467"><ele>137.8</ele><time>2026-04-18T12:32:19.578Z</time></trkpt><trkpt lat="43.308755" lon="10.7648117"><ele>139.2</ele><time>2026-04-18T12:32:20.578Z</time></trkpt><trkpt lat="43.3086533" lon="10.7648833"><ele>140.6</ele><time>2026-04-18T12:32:21.578Z</time></trkpt><trkpt lat="43.3085517" lon="10.7649633"><ele>142.0</ele><time>2026-04-18T12:32:22.578Z</time></trkpt><trkpt lat="43.30845" lon="10.765055"><ele>142.0</ele><time>2026-04-18T12:32:23.578Z</time></trkpt><trkpt lat="43.3083367" lon="10.765135"><ele>142.0</ele><time>2026-04-18T12:32:24.578Z</time></trkpt><trkpt lat="43.3082167" lon="10.7652183"><ele>142.0</ele><time>2026-04-18T12:32:25.578Z</time></trkpt><trkpt lat="43.3080967" lon="10.7653167"><ele>142.0</ele><time>2026-04-18T12:32:26.578Z</time></trkpt><trkpt lat="43.307995" lon="10.765395"><ele>142.75</ele><time>2026-04-18T12:32:27.578Z</time></trkpt><trkpt lat="43.3078983" lon="10.76547"><ele>143.5</ele><time>2026-04-18T12:32:28.578Z</time></trkpt><trkpt lat="43.3078067" lon="10.76554"><ele>144.25</ele><time>2026-04-18T12:32:29.578Z</time></trkpt><trkpt lat="43.3077117" lon="10.765605"><ele>145.0</ele><time>2026-04-18T12:32:30.579Z</time></trkpt><trkpt lat="43.30755" lon="10.7657917"><ele>145.0</ele><time>2026-04-18T12:32:32.579Z</time></trkpt><trkpt lat="43.30746" lon="10.7659067"><ele>145.0</ele><time>2026-04-18T12:32:33.579Z</time></trkpt><trkpt lat="43.30738" lon="10.7660217"><ele>145.0</ele><time>2026-04-18T12:32:34.578Z</time></trkpt><trkpt lat="43.3073033" lon="10.766155"><ele>145.0</ele><time>2026-04-18T12:32:35.578Z</time></trkpt><trkpt lat="43.3072317" lon="10.7662983"><ele>144.0</ele><time>2026-04-18T12:32:36.578Z</time></trkpt><trkpt lat="43.3071633" lon="10.766445"><ele>143.0</ele><time>2026-04-18T12:32:37.578Z</time></trkpt><trkpt lat="43.3070917" lon="10.7665783"><ele>142.0</ele><time>2026-04-18T12:32:38.579Z</time></trkpt><trkpt lat="43.3070267" lon="10.7667017"><ele>141.0</ele><time>2026-04-18T12:32:39.578Z</time></trkpt><trkpt lat="43.3069467" lon="10.7668017"><ele>140.75</ele><time>2026-04-18T12:32:40.578Z</time></trkpt><trkpt lat="43.306855" lon="10.766875"><ele>140.5</ele><time>2026-04-18T12:32:41.579Z</time></trkpt><trkpt lat="43.306755" lon="10.7669217"><ele>140.25</ele><time>2026-04-18T12:32:42.579Z</time></trkpt><trkpt lat="43.30663" lon="10.7669633"><ele>140.0</ele><time>2026-04-18T12:32:43.578Z</time></trkpt><trkpt lat="43.306505" lon="10.7670133"><ele>141.0</ele><time>2026-04-18T12:32:44.578Z</time></trkpt><trkpt lat="43.30637" lon="10.7670817"><ele>142.0</ele><time>2026-04-18T12:32:45.578Z</time></trkpt><trkpt lat="43.3062467" lon="10.767165"><ele>143.0</ele><time>2026-04-18T12:32:46.578Z</time></trkpt><trkpt lat="43.306135" lon="10.7672533"><ele>144.0</ele><time>2026-04-18T12:32:47.578Z</time></trkpt><trkpt lat="43.30603" lon="10.767315"><ele>144.0</ele><time>2026-04-18T12:32:48.578Z</time></trkpt><trkpt lat="43.3059233" lon="10.7673517"><ele>144.0</ele><time>2026-04-18T12:32:49.578Z</time></trkpt><trkpt lat="43.3058017" lon="10.7673783"><ele>144.0</ele><time>2026-04-18T12:32:50.578Z</time></trkpt><trkpt lat="43.30567" lon="10.767395"><ele>144.0</ele><time>2026-04-18T12:32:51.578Z</time></trkpt><trkpt lat="43.3055333" lon="10.7673917"><ele>145.0</ele><time>2026-04-18T12:32:52.578Z</time></trkpt><trkpt lat="43.3053917" lon="10.7673783"><ele>146.0</ele><time>2026-04-18T12:32:53.578Z</time></trkpt><trkpt lat="43.3052483" lon="10.7673733"><ele>147.0</ele><time>2026-04-18T12:32:54.578Z</time></trkpt><trkpt lat="43.3051083" lon="10.7673867"><ele>148.0</ele><time>2026-04-18T12:32:55.578Z</time></trkpt><trkpt lat="43.304995" lon="10.7673867"><ele>148.0</ele><time>2026-04-18T12:32:56.578Z</time></trkpt><trkpt lat="43.3048733" lon="10.767365"><ele>148.0</ele><time>2026-04-18T12:32:57.578Z</time></trkpt><trkpt lat="43.3047467" lon="10.7673333"><ele>148.0</ele><time>2026-04-18T12:32:58.578Z</time></trkpt><trkpt lat="43.3046117" lon="10.7672833"><ele>148.0</ele><time>2026-04-18T12:32:59.578Z</time></trkpt><trkpt lat="43.3044633" lon="10.767225"><ele>148.75</ele><time>2026-04-18T12:33:00.578Z</time></trkpt><trkpt lat="43.3043217" lon="10.76717"><ele>149.5</ele><time>2026-04-18T12:33:01.578Z</time></trkpt><trkpt lat="43.3041867" lon="10.767125"><ele>150.25</ele><time>2026-04-18T12:33:02.579Z</time></trkpt><trkpt lat="43.3040567" lon="10.7670933"><ele>151.0</ele><time>2026-04-18T12:33:03.578Z</time></trkpt><trkpt lat="43.3037717" lon="10.7670983"><ele>152.0</ele><time>2026-04-18T12:33:05.578Z</time></trkpt><trkpt lat="43.3036183" lon="10.7671267"><ele>153.0</ele><time>2026-04-18T12:33:06.578Z</time></trkpt><trkpt lat="43.303455" lon="10.7671733"><ele>154.0</ele><time>2026-04-18T12:33:07.578Z</time></trkpt><trkpt lat="43.303285" lon="10.7672383"><ele>154.0</ele><time>2026-04-18T12:33:08.578Z</time></trkpt><trkpt lat="43.3031283" lon="10.767295"><ele>154.0</ele><time>2026-04-18T12:33:09.579Z</time></trkpt><trkpt lat="43.3029767" lon="10.76735"><ele>154.0</ele><time>2026-04-18T12:33:10.579Z</time></trkpt><trkpt lat="43.302815" lon="10.7674033"><ele>154.33333333333334</ele><time>2026-04-18T12:33:11.578Z</time></trkpt><trkpt lat="43.30265" lon="10.76746"><ele>154.66666666666666</ele><time>2026-04-18T12:33:12.578Z</time></trkpt><trkpt lat="43.3024917" lon="10.7675167"><ele>155.0</ele><time>2026-04-18T12:33:13.579Z</time></trkpt><trkpt lat="43.3023283" lon="10.7675767"><ele>155.33333333333331</ele><time>2026-04-18T12:33:14.578Z</time></trkpt><trkpt lat="43.30216" lon="10.7676383"><ele>155.66666666666666</ele><time>2026-04-18T12:33:15.578Z</time></trkpt><trkpt lat="43.301985" lon="10.7677067"><ele>156.0</ele><time>2026-04-18T12:33:16.578Z</time></trkpt><trkpt lat="43.3018033" lon="10.7677733"><ele>156.33333333333334</ele><time>2026-04-18T12:33:17.578Z</time></trkpt><trkpt lat="43.301615" lon="10.7678483"><ele>156.66666666666669</ele><time>2026-04-18T12:33:18.579Z</time></trkpt><trkpt lat="43.3014217" lon="10.7679233"><ele>157.0</ele><time>2026-04-18T12:33:19.578Z</time></trkpt><trkpt lat="43.301225" lon="10.7679983"><ele>157.0</ele><time>2026-04-18T12:33:20.578Z</time></trkpt><trkpt lat="43.3010333" lon="10.7680717"><ele>157.0</ele><time>2026-04-18T12:33:21.578Z</time></trkpt><trkpt lat="43.3008567" lon="10.7681367"><ele>157.0</ele><time>2026-04-18T12:33:22.578Z</time></trkpt><trkpt lat="43.3006833" lon="10.7681917"><ele>159.33333333333334</ele><time>2026-04-18T12:33:23.578Z</time></trkpt><trkpt lat="43.3005117" lon="10.768225"><ele>161.66666666666666</ele><time>2026-04-18T12:33:24.578Z</time></trkpt><trkpt lat="43.3003383" lon="10.768255"><ele>164.0</ele><time>2026-04-18T12:33:25.578Z</time></trkpt><trkpt lat="43.3001667" lon="10.76827"><ele>164.0</ele><time>2026-04-18T12:33:26.578Z</time></trkpt><trkpt lat="43.3000083" lon="10.76827"><ele>164.0</ele><time>2026-04-18T12:33:27.579Z</time></trkpt><trkpt lat="43.29986" lon="10.76826"><ele>164.0</ele><time>2026-04-18T12:33:28.578Z</time></trkpt><trkpt lat="43.299705" lon="10.7682317"><ele>166.0</ele><time>2026-04-18T12:33:29.578Z</time></trkpt><trkpt lat="43.2995433" lon="10.7681933"><ele>168.0</ele><time>2026-04-18T12:33:30.578Z</time></trkpt><trkpt lat="43.299375" lon="10.768135"><ele>170.0</ele><time>2026-04-18T12:33:31.578Z</time></trkpt><trkpt lat="43.2991983" lon="10.76808"><ele>170.0</ele><time>2026-04-18T12:33:32.578Z</time></trkpt><trkpt lat="43.2990183" lon="10.7680083"><ele>170.0</ele><time>2026-04-18T12:33:33.578Z</time></trkpt><trkpt lat="43.29884" lon="10.7679383"><ele>170.0</ele><time>2026-04-18T12:33:34.578Z</time></trkpt><trkpt lat="43.298665" lon="10.7678667"><ele>173.33333333333331</ele><time>2026-04-18T12:33:35.578Z</time></trkpt><trkpt lat="43.29852" lon="10.7678017"><ele>176.66666666666666</ele><time>2026-04-18T12:33:36.578Z</time></trkpt><trkpt lat="43.298265" lon="10.767675"><ele>180.0</ele><time>2026-04-18T12:33:38.578Z</time></trkpt><trkpt lat="43.2981467" lon="10.76764"><ele>182.0</ele><time>2026-04-18T12:33:39.578Z</time></trkpt><trkpt lat="43.2980317" lon="10.76763"><ele>184.0</ele><time>2026-04-18T12:33:40.578Z</time></trkpt><trkpt lat="43.2979067" lon="10.7676467"><ele>186.0</ele><time>2026-04-18T12:33:41.579Z</time></trkpt><trkpt lat="43.297785" lon="10.7676833"><ele>188.0</ele><time>2026-04-18T12:33:42.578Z</time></trkpt><trkpt lat="43.297655" lon="10.7677283"><ele>188.0</ele><time>2026-04-18T12:33:43.578Z</time></trkpt><trkpt lat="43.297535" lon="10.76778"><ele>188.0</ele><time>2026-04-18T12:33:44.578Z</time></trkpt><trkpt lat="43.2974133" lon="10.7678533"><ele>188.0</ele><time>2026-04-18T12:33:45.579Z</time></trkpt><trkpt lat="43.2973117" lon="10.7679417"><ele>188.0</ele><time>2026-04-18T12:33:46.578Z</time></trkpt><trkpt lat="43.2972233" lon="10.7680333"><ele>190.4</ele><time>2026-04-18T12:33:47.578Z</time></trkpt><trkpt lat="43.2971433" lon="10.7681183"><ele>192.8</ele><time>2026-04-18T12:33:48.578Z</time></trkpt><trkpt lat="43.2970767" lon="10.7681867"><ele>195.2</ele><time>2026-04-18T12:33:49.579Z</time></trkpt><trkpt lat="43.29701" lon="10.7682517"><ele>197.6</ele><time>2026-04-18T12:33:50.578Z</time></trkpt><trkpt lat="43.296915" lon="10.768305"><ele>200.0</ele><time>2026-04-18T12:33:51.578Z</time></trkpt><trkpt lat="43.2968167" lon="10.7683533"><ele>200.0</ele><time>2026-04-18T12:33:52.578Z</time></trkpt><trkpt lat="43.2967167" lon="10.7683967"><ele>200.0</ele><time>2026-04-18T12:33:53.578Z</time></trkpt><trkpt lat="43.2966133" lon="10.76842"><ele>200.0</ele><time>2026-04-18T12:33:54.578Z</time></trkpt><trkpt lat="43.2965117" lon="10.7684483"><ele>200.0</ele><time>2026-04-18T12:33:55.578Z</time></trkpt><trkpt lat="43.2963967" lon="10.7684517"><ele>200.0</ele><time>2026-04-18T12:33:56.578Z</time></trkpt><trkpt lat="43.296275" lon="10.7684367"><ele>201.0</ele><time>2026-04-18T12:33:57.578Z</time></trkpt><trkpt lat="43.2961467" lon="10.768435"><ele>202.0</ele><time>2026-04-18T12:33:58.578Z</time></trkpt><trkpt lat="43.296005" lon="10.7684133"><ele>203.0</ele><time>2026-04-18T12:33:59.578Z</time></trkpt><trkpt lat="43.2958733" lon="10.768405"><ele>204.0</ele><time>2026-04-18T12:34:00.578Z</time></trkpt><trkpt lat="43.2957533" lon="10.7683917"><ele>204.0</ele><time>2026-04-18T12:34:01.578Z</time></trkpt><trkpt lat="43.29564" lon="10.768395"><ele>204.0</ele><time>2026-04-18T12:34:02.578Z</time></trkpt><trkpt lat="43.2955167" lon="10.7684067"><ele>204.0</ele><time>2026-04-18T12:34:03.578Z</time></trkpt><trkpt lat="43.29539" lon="10.7684317"><ele>204.0</ele><time>2026-04-18T12:34:04.579Z</time></trkpt><trkpt lat="43.2952683" lon="10.7684567"><ele>205.0</ele><time>2026-04-18T12:34:05.579Z</time></trkpt><trkpt lat="43.295155" lon="10.7684833"><ele>206.0</ele><time>2026-04-18T12:34:06.579Z</time></trkpt><trkpt lat="43.2950533" lon="10.7684983"><ele>207.0</ele><time>2026-04-18T12:34:07.578Z</time></trkpt><trkpt lat="43.2949533" lon="10.768505"><ele>208.0</ele><time>2026-04-18T12:34:08.578Z</time></trkpt><trkpt lat="43.2948467" lon="10.7685133"><ele>209.0</ele><time>2026-04-18T12:34:09.578Z</time></trkpt><trkpt lat="43.2946183" lon="10.7684817"><ele>210.25</ele><time>2026-04-18T12:34:11.579Z</time></trkpt><trkpt lat="43.2944933" lon="10.7684717"><ele>211.5</ele><time>2026-04-18T12:34:12.579Z</time></trkpt><trkpt lat="43.2943783" lon="10.768475"><ele>212.75</ele><time>2026-04-18T12:34:13.578Z</time></trkpt><trkpt lat="43.2942567" lon="10.7684867"><ele>214.0</ele><time>2026-04-18T12:34:14.579Z</time></trkpt><trkpt lat="43.2941283" lon="10.76851"><ele>209.5</ele><time>2026-04-18T12:34:15.578Z</time></trkpt><trkpt lat="43.2940017" lon="10.7685417"><ele>205.0</ele><time>2026-04-18T12:34:16.578Z</time></trkpt><trkpt lat="43.293885" lon="10.7685717"><ele>200.5</ele><time>2026-04-18T12:34:17.578Z</time></trkpt><trkpt lat="43.29377" lon="10.7685967"><ele>196.0</ele><time>2026-04-18T12:34:18.578Z</time></trkpt><trkpt lat="43.2936667" lon="10.7686183"><ele>196.0</ele><time>2026-04-18T12:34:19.578Z</time></trkpt><trkpt lat="43.293565" lon="10.7686383"><ele>196.0</ele><time>2026-04-18T12:34:20.578Z</time></trkpt><trkpt lat="43.293465" lon="10.76865"><ele>196.0</ele><time>2026-04-18T12:34:21.578Z</time></trkpt><trkpt lat="43.2933533" lon="10.76866"><ele>196.0</ele><time>2026-04-18T12:34:22.578Z</time></trkpt><trkpt lat="43.2932333" lon="10.7686633"><ele>196.0</ele><time>2026-04-18T12:34:23.579Z</time></trkpt><trkpt lat="43.2931083" lon="10.7686333"><ele>196.25</ele><time>2026-04-18T12:34:24.578Z</time></trkpt><trkpt lat="43.292965" lon="10.7685917"><ele>196.5</ele><time>2026-04-18T12:34:25.579Z</time></trkpt><trkpt lat="43.292825" lon="10.76855"><ele>196.75</ele><time>2026-04-18T12:34:26.578Z</time></trkpt><trkpt lat="43.292685" lon="10.7685017"><ele>197.0</ele><time>2026-04-18T12:34:27.578Z</time></trkpt><trkpt lat="43.292555" lon="10.7684533"><ele>199.5</ele><time>2026-04-18T12:34:28.578Z</time></trkpt><trkpt lat="43.2924183" lon="10.7684167"><ele>202.0</ele><time>2026-04-18T12:34:29.578Z</time></trkpt><trkpt lat="43.292285" lon="10.7683617"><ele>204.5</ele><time>2026-04-18T12:34:30.578Z</time></trkpt><trkpt lat="43.292165" lon="10.7683067"><ele>207.0</ele><time>2026-04-18T12:34:31.579Z</time></trkpt><trkpt lat="43.2920467" lon="10.76825"><ele>207.0</ele><time>2026-04-18T12:34:32.578Z</time></trkpt><trkpt lat="43.29193" lon="10.7682083"><ele>207.0</ele><time>2026-04-18T12:34:33.579Z</time></trkpt><trkpt lat="43.29182" lon="10.7681733"><ele>207.0</ele><time>2026-04-18T12:34:34.578Z</time></trkpt><trkpt lat="43.291695" lon="10.768155"><ele>207.0</ele><time>2026-04-18T12:34:35.578Z</time></trkpt><trkpt lat="43.2915467" lon="10.76813"><ele>208.33333333333331</ele><time>2026-04-18T12:34:36.578Z</time></trkpt><trkpt lat="43.2913933" lon="10.7681167"><ele>209.66666666666666</ele><time>2026-04-18T12:34:37.578Z</time></trkpt><trkpt lat="43.2912383" lon="10.76811"><ele>211.0</ele><time>2026-04-18T12:34:38.578Z</time></trkpt><trkpt lat="43.2910833" lon="10.7680967"><ele>211.0</ele><time>2026-04-18T12:34:39.579Z</time></trkpt><trkpt lat="43.2909283" lon="10.7681033"><ele>211.0</ele><time>2026-04-18T12:34:40.578Z</time></trkpt><trkpt lat="43.2907867" lon="10.7680917"><ele>211.0</ele><time>2026-04-18T12:34:41.579Z</time></trkpt><trkpt lat="43.2906467" lon="10.7680833"><ele>211.0</ele><time>2026-04-18T12:34:42.578Z</time></trkpt><trkpt lat="43.2903633" lon="10.76808"><ele>214.33333333333331</ele><time>2026-04-18T12:34:44.578Z</time></trkpt><trkpt lat="43.2902183" lon="10.7680767"><ele>217.66666666666669</ele><time>2026-04-18T12:34:45.578Z</time></trkpt><trkpt lat="43.2900717" lon="10.768065"><ele>221.0</ele><time>2026-04-18T12:34:46.578Z</time></trkpt><trkpt lat="43.2899133" lon="10.7680617"><ele>221.0</ele><time>2026-04-18T12:34:47.578Z</time></trkpt><trkpt lat="43.2897617" lon="10.768065"><ele>221.0</ele><time>2026-04-18T12:34:48.578Z</time></trkpt><trkpt lat="43.2896133" lon="10.76806"><ele>221.0</ele><time>2026-04-18T12:34:49.578Z</time></trkpt><trkpt lat="43.2894583" lon="10.7680583"><ele>223.5</ele><time>2026-04-18T12:34:50.578Z</time></trkpt><trkpt lat="43.2893167" lon="10.7680567"><ele>226.0</ele><time>2026-04-18T12:34:51.578Z</time></trkpt><trkpt lat="43.2891683" lon="10.7680583"><ele>228.5</ele><time>2026-04-18T12:34:52.578Z</time></trkpt><trkpt lat="43.2890367" lon="10.7680633"><ele>231.0</ele><time>2026-04-18T12:34:53.578Z</time></trkpt><trkpt lat="43.2889167" lon="10.7680683"><ele>232.20000000000002</ele><time>2026-04-18T12:34:54.578Z</time></trkpt><trkpt lat="43.2888" lon="10.7680633"><ele>233.40000000000003</ele><time>2026-04-18T12:34:55.578Z</time></trkpt><trkpt lat="43.28869" lon="10.7680417"><ele>234.6</ele><time>2026-04-18T12:34:56.578Z</time></trkpt><trkpt lat="43.288595" lon="10.7679933"><ele>235.8</ele><time>2026-04-18T12:34:57.578Z</time></trkpt><trkpt lat="43.2885067" lon="10.7679217"><ele>237.0</ele><time>2026-04-18T12:34:58.577Z</time></trkpt><trkpt lat="43.2884233" lon="10.7678217"><ele>237.0</ele><time>2026-04-18T12:34:59.577Z</time></trkpt><trkpt lat="43.28834" lon="10.7677167"><ele>237.0</ele><time>2026-04-18T12:35:00.577Z</time></trkpt><trkpt lat="43.2882583" lon="10.7675967"><ele>237.0</ele><time>2026-04-18T12:35:01.577Z</time></trkpt><trkpt lat="43.288185" lon="10.7674717"><ele>237.0</ele><time>2026-04-18T12:35:02.577Z</time></trkpt><trkpt lat="43.2881367" lon="10.767345"><ele>239.6</ele><time>2026-04-18T12:35:03.577Z</time></trkpt><trkpt lat="43.2880983" lon="10.7672233"><ele>242.2</ele><time>2026-04-18T12:35:04.577Z</time></trkpt><trkpt lat="43.2880717" lon="10.76709"><ele>244.8</ele><time>2026-04-18T12:35:05.578Z</time></trkpt><trkpt lat="43.2880517" lon="10.7669467"><ele>247.4</ele><time>2026-04-18T12:35:06.577Z</time></trkpt><trkpt lat="43.2880267" lon="10.7668217"><ele>250.0</ele><time>2026-04-18T12:35:07.577Z</time></trkpt><trkpt lat="43.28798" lon="10.76668"><ele>253.75</ele><time>2026-04-18T12:35:08.577Z</time></trkpt><trkpt lat="43.2879033" lon="10.7665333"><ele>257.5</ele><time>2026-04-18T12:35:09.577Z</time></trkpt><trkpt lat="43.2878083" lon="10.766385"><ele>261.25</ele><time>2026-04-18T12:35:10.578Z</time></trkpt><trkpt lat="43.2877033" lon="10.7662467"><ele>265.0</ele><time>2026-04-18T12:35:11.578Z</time></trkpt><trkpt lat="43.2875833" lon="10.76612"><ele>267.25</ele><time>2026-04-18T12:35:12.577Z</time></trkpt><trkpt lat="43.2874517" lon="10.7660067"><ele>269.5</ele><time>2026-04-18T12:35:13.577Z</time></trkpt><trkpt lat="43.2873117" lon="10.765915"><ele>271.75</ele><time>2026-04-18T12:35:14.577Z</time></trkpt><trkpt lat="43.2872017" lon="10.7658383"><ele>274.0</ele><time>2026-04-18T12:35:15.577Z</time></trkpt><trkpt lat="43.2870017" lon="10.7657117"><ele>275.0</ele><time>2026-04-18T12:35:17.577Z</time></trkpt><trkpt lat="43.2869033" lon="10.7656717"><ele>276.0</ele><time>2026-04-18T12:35:18.577Z</time></trkpt><trkpt lat="43.2868067" lon="10.7656433"><ele>277.0</ele><time>2026-04-18T12:35:19.577Z</time></trkpt><trkpt lat="43.286705" lon="10.76562"><ele>278.0</ele><time>2026-04-18T12:35:20.577Z</time></trkpt><trkpt lat="43.2866017" lon="10.7655983"><ele>279.0</ele><time>2026-04-18T12:35:21.577Z</time></trkpt><trkpt lat="43.2864917" lon="10.7655717"><ele>279.75</ele><time>2026-04-18T12:35:22.577Z</time></trkpt><trkpt lat="43.28638" lon="10.7655467"><ele>280.5</ele><time>2026-04-18T12:35:23.577Z</time></trkpt><trkpt lat="43.2862617" lon="10.7655483"><ele>281.25</ele><time>2026-04-18T12:35:24.578Z</time></trkpt><trkpt lat="43.286135" lon="10.76556"><ele>282.0</ele><time>2026-04-18T12:35:25.577Z</time></trkpt><trkpt lat="43.2860117" lon="10.7655717"><ele>282.0</ele><time>2026-04-18T12:35:26.577Z</time></trkpt><trkpt lat="43.2858917" lon="10.76558"><ele>282.0</ele><time>2026-04-18T12:35:27.578Z</time></trkpt><trkpt lat="43.285765" lon="10.7655833"><ele>282.0</ele><time>2026-04-18T12:35:28.578Z</time></trkpt><trkpt lat="43.285625" lon="10.76557"><ele>282.0</ele><time>2026-04-18T12:35:29.577Z</time></trkpt><trkpt lat="43.2854867" lon="10.7655417"><ele>282.25</ele><time>2026-04-18T12:35:30.577Z</time></trkpt><trkpt lat="43.28535" lon="10.7655083"><ele>282.5</ele><time>2026-04-18T12:35:31.577Z</time></trkpt><trkpt lat="43.28521" lon="10.7654617"><ele>282.75</ele><time>2026-04-18T12:35:32.577Z</time></trkpt><trkpt lat="43.2850683" lon="10.765415"><ele>283.0</ele><time>2026-04-18T12:35:33.577Z</time></trkpt><trkpt lat="43.2849283" lon="10.765375"><ele>283.0</ele><time>2026-04-18T12:35:34.577Z</time></trkpt><trkpt lat="43.284795" lon="10.765335"><ele>283.0</ele><time>2026-04-18T12:35:35.577Z</time></trkpt><trkpt lat="43.2846683" lon="10.7652967"><ele>283.0</ele><time>2026-04-18T12:35:36.578Z</time></trkpt><trkpt lat="43.2845417" lon="10.7652567"><ele>283.0</ele><time>2026-04-18T12:35:37.577Z</time></trkpt><trkpt lat="43.28443" lon="10.76521"><ele>288.5</ele><time>2026-04-18T12:35:38.577Z</time></trkpt><trkpt lat="43.28432" lon="10.7651633"><ele>294.0</ele><time>2026-04-18T12:35:39.577Z</time></trkpt><trkpt lat="43.2842117" lon="10.7651283"><ele>299.5</ele><time>2026-04-18T12:35:40.577Z</time></trkpt><trkpt lat="43.2840983" lon="10.7651067"><ele>305.0</ele><time>2026-04-18T12:35:41.578Z</time></trkpt><trkpt lat="43.2839867" lon="10.7650917"><ele>306.0</ele><time>2026-04-18T12:35:42.577Z</time></trkpt><trkpt lat="43.2838867" lon="10.7650983"><ele>307.0</ele><time>2026-04-18T12:35:43.578Z</time></trkpt><trkpt lat="43.2837833" lon="10.7650983"><ele>308.0</ele><time>2026-04-18T12:35:44.577Z</time></trkpt><trkpt lat="43.283675" lon="10.76511"><ele>309.0</ele><time>2026-04-18T12:35:45.577Z</time></trkpt><trkpt lat="43.28359" lon="10.765115"><ele>310.0</ele><time>2026-04-18T12:35:46.577Z</time></trkpt><trkpt lat="43.2835233" lon="10.765125"><ele>310.0</ele><time>2026-04-18T12:35:47.577Z</time></trkpt><trkpt lat="43.28346" lon="10.7651367"><ele>310.0</ele><time>2026-04-18T12:35:48.577Z</time></trkpt><trkpt lat="43.2833283" lon="10.76526"><ele>310.0</ele><time>2026-04-18T12:35:51.577Z</time></trkpt><trkpt lat="43.2832983" lon="10.7653467"><ele>310.0</ele><time>2026-04-18T12:35:52.577Z</time></trkpt><trkpt lat="43.2832617" lon="10.7654433"><ele>310.0</ele><time>2026-04-18T12:35:53.577Z</time></trkpt><trkpt lat="43.2832483" lon="10.7655533"><ele>309.6</ele><time>2026-04-18T12:35:54.577Z</time></trkpt><trkpt lat="43.28325" lon="10.76568"><ele>309.2</ele><time>2026-04-18T12:35:55.577Z</time></trkpt><trkpt lat="43.2832633" lon="10.7658183"><ele>308.8</ele><time>2026-04-18T12:35:56.577Z</time></trkpt><trkpt lat="43.2833017" lon="10.76597"><ele>308.4</ele><time>2026-04-18T12:35:57.577Z</time></trkpt><trkpt lat="43.283345" lon="10.7661117"><ele>308.0</ele><time>2026-04-18T12:35:58.577Z</time></trkpt><trkpt lat="43.2834033" lon="10.766255"><ele>309.8</ele><time>2026-04-18T12:35:59.577Z</time></trkpt><trkpt lat="43.2834567" lon="10.7664033"><ele>311.6</ele><time>2026-04-18T12:36:00.577Z</time></trkpt><trkpt lat="43.283505" lon="10.7665333"><ele>313.4</ele><time>2026-04-18T12:36:01.577Z</time></trkpt><trkpt lat="43.2835433" lon="10.7666633"><ele>315.2</ele><time>2026-04-18T12:36:02.577Z</time></trkpt><trkpt lat="43.2835667" lon="10.7667833"><ele>317.0</ele><time>2026-04-18T12:36:03.577Z</time></trkpt><trkpt lat="43.2835767" lon="10.7669183"><ele>317.0</ele><time>2026-04-18T12:36:04.577Z</time></trkpt><trkpt lat="43.28357" lon="10.7670767"><ele>317.0</ele><time>2026-04-18T12:36:05.577Z</time></trkpt><trkpt lat="43.2835467" lon="10.7672433"><ele>317.0</ele><time>2026-04-18T12:36:06.578Z</time></trkpt><trkpt lat="43.2835183" lon="10.7674117"><ele>317.0</ele><time>2026-04-18T12:36:07.577Z</time></trkpt><trkpt lat="43.2835067" lon="10.7675633"><ele>316.2</ele><time>2026-04-18T12:36:08.577Z</time></trkpt><trkpt lat="43.2834833" lon="10.7677183"><ele>315.4</ele><time>2026-04-18T12:36:09.577Z</time></trkpt><trkpt lat="43.2834567" lon="10.767865"><ele>314.6</ele><time>2026-04-18T12:36:10.577Z</time></trkpt><trkpt lat="43.2834283" lon="10.7679983"><ele>313.8</ele><time>2026-04-18T12:36:11.577Z</time></trkpt><trkpt lat="43.2833867" lon="10.76811"><ele>313.0</ele><time>2026-04-18T12:36:12.577Z</time></trkpt><trkpt lat="43.2833283" lon="10.7682167"><ele>313.0</ele><time>2026-04-18T12:36:13.577Z</time></trkpt><trkpt lat="43.2832517" lon="10.768325"><ele>313.0</ele><time>2026-04-18T12:36:14.577Z</time></trkpt><trkpt lat="43.2831717" lon="10.768405"><ele>313.0</ele><time>2026-04-18T12:36:15.577Z</time></trkpt><trkpt lat="43.2830733" lon="10.7684717"><ele>313.0</ele><time>2026-04-18T12:36:16.577Z</time></trkpt><trkpt lat="43.282965" lon="10.768525"><ele>313.0</ele><time>2026-04-18T12:36:17.577Z</time></trkpt><trkpt lat="43.2828583" lon="10.7685583"><ele>314.0</ele><time>2026-04-18T12:36:18.577Z</time></trkpt><trkpt lat="43.282745" lon="10.7685883"><ele>315.0</ele><time>2026-04-18T12:36:19.577Z</time></trkpt><trkpt lat="43.2826317" lon="10.7686117"><ele>316.0</ele><time>2026-04-18T12:36:20.577Z</time></trkpt><trkpt lat="43.282515" lon="10.76864"><ele>317.0</ele><time>2026-04-18T12:36:21.577Z</time></trkpt><trkpt lat="43.282225" lon="10.7688483"><ele>320.6</ele><time>2026-04-18T12:36:24.577Z</time></trkpt><trkpt lat="43.282145" lon="10.7689517"><ele>324.2</ele><time>2026-04-18T12:36:25.577Z</time></trkpt><trkpt lat="43.2820683" lon="10.769065"><ele>327.8</ele><time>2026-04-18T12:36:26.577Z</time></trkpt><trkpt lat="43.28199" lon="10.7691733"><ele>331.4</ele><time>2026-04-18T12:36:27.577Z</time></trkpt><trkpt lat="43.281915" lon="10.7692667"><ele>335.0</ele><time>2026-04-18T12:36:28.577Z</time></trkpt><trkpt lat="43.28184" lon="10.7693517"><ele>335.5</ele><time>2026-04-18T12:36:29.577Z</time></trkpt><trkpt lat="43.2817533" lon="10.769425"><ele>336.0</ele><time>2026-04-18T12:36:30.577Z</time></trkpt><trkpt lat="43.2816467" lon="10.7694833"><ele>336.5</ele><time>2026-04-18T12:36:31.577Z</time></trkpt><trkpt lat="43.2815283" lon="10.7695267"><ele>337.0</ele><time>2026-04-18T12:36:32.577Z</time></trkpt><trkpt lat="43.2814" lon="10.7695567"><ele>337.0</ele><time>2026-04-18T12:36:33.577Z</time></trkpt><trkpt lat="43.2812767" lon="10.7695883"><ele>337.0</ele><time>2026-04-18T12:36:34.578Z</time></trkpt><trkpt lat="43.2811583" lon="10.7696217"><ele>337.0</ele><time>2026-04-18T12:36:35.577Z</time></trkpt><trkpt lat="43.2810517" lon="10.7696733"><ele>337.0</ele><time>2026-04-18T12:36:36.577Z</time></trkpt><trkpt lat="43.2809567" lon="10.7697383"><ele>337.0</ele><time>2026-04-18T12:36:37.577Z</time></trkpt><trkpt lat="43.2808717" lon="10.7698233"><ele>337.0</ele><time>2026-04-18T12:36:38.577Z</time></trkpt><trkpt lat="43.2808083" lon="10.7699267"><ele>337.0</ele><time>2026-04-18T12:36:39.577Z</time></trkpt><trkpt lat="43.28076" lon="10.7700517"><ele>337.0</ele><time>2026-04-18T12:36:40.577Z</time></trkpt><trkpt lat="43.28072" lon="10.77019"><ele>337.0</ele><time>2026-04-18T12:36:41.577Z</time></trkpt><trkpt lat="43.2806967" lon="10.7703333"><ele>336.0</ele><time>2026-04-18T12:36:42.577Z</time></trkpt><trkpt lat="43.2806883" lon="10.7704617"><ele>335.0</ele><time>2026-04-18T12:36:43.577Z</time></trkpt><trkpt lat="43.2806967" lon="10.7705783"><ele>334.0</ele><time>2026-04-18T12:36:44.577Z</time></trkpt><trkpt lat="43.28071" lon="10.7707"><ele>333.0</ele><time>2026-04-18T12:36:45.577Z</time></trkpt><trkpt lat="43.2807233" lon="10.770845"><ele>332.0</ele><time>2026-04-18T12:36:46.578Z</time></trkpt><trkpt lat="43.2807317" lon="10.7710017"><ele>332.40000000000003</ele><time>2026-04-18T12:36:47.577Z</time></trkpt><trkpt lat="43.2807367" lon="10.771145"><ele>332.8</ele><time>2026-04-18T12:36:48.577Z</time></trkpt><trkpt lat="43.2807367" lon="10.77129"><ele>333.2</ele><time>2026-04-18T12:36:49.577Z</time></trkpt><trkpt lat="43.2807367" lon="10.7714233"><ele>333.6</ele><time>2026-04-18T12:36:50.577Z</time></trkpt><trkpt lat="43.2807483" lon="10.7715383"><ele>334.0</ele><time>2026-04-18T12:36:51.577Z</time></trkpt><trkpt lat="43.28078" lon="10.7716533"><ele>334.0</ele><time>2026-04-18T12:36:52.577Z</time></trkpt><trkpt lat="43.2808333" lon="10.7717617"><ele>334.0</ele><time>2026-04-18T12:36:53.577Z</time></trkpt><trkpt lat="43.2809117" lon="10.7718667"><ele>334.0</ele><time>2026-04-18T12:36:54.577Z</time></trkpt><trkpt lat="43.281085" lon="10.7720417"><ele>334.0</ele><time>2026-04-18T12:36:56.577Z</time></trkpt><trkpt lat="43.2811517" lon="10.77212"><ele>337.0</ele><time>2026-04-18T12:36:57.577Z</time></trkpt><trkpt lat="43.2812183" lon="10.7722217"><ele>340.0</ele><time>2026-04-18T12:36:58.577Z</time></trkpt><trkpt lat="43.2812717" lon="10.772325"><ele>343.0</ele><time>2026-04-18T12:36:59.577Z</time></trkpt><trkpt lat="43.2813183" lon="10.77243"><ele>346.0</ele><time>2026-04-18T12:37:00.577Z</time></trkpt><trkpt lat="43.2813633" lon="10.7725467"><ele>349.0</ele><time>2026-04-18T12:37:01.578Z</time></trkpt><trkpt lat="43.2813933" lon="10.77267"><ele>352.0</ele><time>2026-04-18T12:37:02.577Z</time></trkpt><trkpt lat="43.2814217" lon="10.7727967"><ele>355.0</ele><time>2026-04-18T12:37:03.578Z</time></trkpt><trkpt lat="43.2814283" lon="10.7729167"><ele>358.0</ele><time>2026-04-18T12:37:04.578Z</time></trkpt><trkpt lat="43.2814183" lon="10.7730417"><ele>361.0</ele><time>2026-04-18T12:37:05.578Z</time></trkpt><trkpt lat="43.2813917" lon="10.7731717"><ele>364.0</ele><time>2026-04-18T12:37:06.577Z</time></trkpt><trkpt lat="43.2813767" lon="10.77331"><ele>364.0</ele><time>2026-04-18T12:37:07.577Z</time></trkpt><trkpt lat="43.281375" lon="10.7734533"><ele>364.0</ele><time>2026-04-18T12:37:08.577Z</time></trkpt><trkpt lat="43.281395" lon="10.773585"><ele>364.0</ele><time>2026-04-18T12:37:09.577Z</time></trkpt><trkpt lat="43.2814283" lon="10.773705"><ele>364.0</ele><time>2026-04-18T12:37:10.577Z</time></trkpt><trkpt lat="43.281465" lon="10.7738183"><ele>364.0</ele><time>2026-04-18T12:37:11.577Z</time></trkpt><trkpt lat="43.2814917" lon="10.773935"><ele>365.2</ele><time>2026-04-18T12:37:12.578Z</time></trkpt><trkpt lat="43.2815" lon="10.7740583"><ele>366.4</ele><time>2026-04-18T12:37:13.577Z</time></trkpt><trkpt lat="43.2814833" lon="10.7741933"><ele>367.6</ele><time>2026-04-18T12:37:14.577Z</time></trkpt><trkpt lat="43.2814583" lon="10.7743267"><ele>368.8</ele><time>2026-04-18T12:37:15.577Z</time></trkpt><trkpt lat="43.28142" lon="10.7744783"><ele>370.0</ele><time>2026-04-18T12:37:16.577Z</time></trkpt><trkpt lat="43.2814" lon="10.7746267"><ele>370.0</ele><time>2026-04-18T12:37:17.577Z</time></trkpt><trkpt lat="43.281355" lon="10.7747783"><ele>370.0</ele><time>2026-04-18T12:37:18.577Z</time></trkpt><trkpt lat="43.28132" lon="10.7749267"><ele>370.0</ele><time>2026-04-18T12:37:19.577Z</time></trkpt><trkpt lat="43.2812933" lon="10.77507"><ele>370.0</ele><time>2026-04-18T12:37:20.577Z</time></trkpt><trkpt lat="43.281255" lon="10.775225"><ele>370.0</ele><time>2026-04-18T12:37:21.577Z</time></trkpt><trkpt lat="43.2812133" lon="10.77539"><ele>370.0</ele><time>2026-04-18T12:37:22.577Z</time></trkpt><trkpt lat="43.281175" lon="10.77556"><ele>370.0</ele><time>2026-04-18T12:37:23.577Z</time></trkpt><trkpt lat="43.2811433" lon="10.7757167"><ele>370.0</ele><time>2026-04-18T12:37:24.577Z</time></trkpt><trkpt lat="43.2811233" lon="10.775865"><ele>371.66666666666663</ele><time>2026-04-18T12:37:25.577Z</time></trkpt><trkpt lat="43.2811067" lon="10.776025"><ele>373.3333333333333</ele><time>2026-04-18T12:37:26.577Z</time></trkpt><trkpt lat="43.2810967" lon="10.7761983"><ele>375.0</ele><time>2026-04-18T12:37:27.577Z</time></trkpt><trkpt lat="43.2810533" lon="10.776745"><ele>377.25</ele><time>2026-04-18T12:37:30.577Z</time></trkpt><trkpt lat="43.2810367" lon="10.7769233"><ele>379.5</ele><time>2026-04-18T12:37:31.577Z</time></trkpt><trkpt lat="43.28103" lon="10.7771017"><ele>381.75</ele><time>2026-04-18T12:37:32.577Z</time></trkpt><trkpt lat="43.28103" lon="10.777265"><ele>384.0</ele><time>2026-04-18T12:37:33.577Z</time></trkpt><trkpt lat="43.281045" lon="10.777435"><ele>384.0</ele><time>2026-04-18T12:37:34.577Z</time></trkpt><trkpt lat="43.281065" lon="10.7776033"><ele>384.0</ele><time>2026-04-18T12:37:35.577Z</time></trkpt><trkpt lat="43.2811033" lon="10.77777"><ele>384.0</ele><time>2026-04-18T12:37:36.578Z</time></trkpt><trkpt lat="43.281145" lon="10.7779533"><ele>384.0</ele><time>2026-04-18T12:37:37.577Z</time></trkpt><trkpt lat="43.2811883" lon="10.77815"><ele>386.25</ele><time>2026-04-18T12:37:38.577Z</time></trkpt><trkpt lat="43.2812267" lon="10.7783533"><ele>388.5</ele><time>2026-04-18T12:37:39.577Z</time></trkpt><trkpt lat="43.2812633" lon="10.7785483"><ele>390.75</ele><time>2026-04-18T12:37:40.577Z</time></trkpt><trkpt lat="43.2812883" lon="10.7787467"><ele>393.0</ele><time>2026-04-18T12:37:41.578Z</time></trkpt><trkpt lat="43.2813067" lon="10.7789383"><ele>392.5</ele><time>2026-04-18T12:37:42.577Z</time></trkpt><trkpt lat="43.2813183" lon="10.7791333"><ele>392.0</ele><time>2026-04-18T12:37:43.577Z</time></trkpt><trkpt lat="43.281325" lon="10.7793333"><ele>391.5</ele><time>2026-04-18T12:37:44.577Z</time></trkpt><trkpt lat="43.2813483" lon="10.7795033"><ele>391.0</ele><time>2026-04-18T12:37:45.577Z</time></trkpt><trkpt lat="43.28137" lon="10.7796567"><ele>391.0</ele><time>2026-04-18T12:37:46.577Z</time></trkpt><trkpt lat="43.281395" lon="10.7798133"><ele>391.0</ele><time>2026-04-18T12:37:47.577Z</time></trkpt><trkpt lat="43.2814283" lon="10.7799683"><ele>391.0</ele><time>2026-04-18T12:37:48.577Z</time></trkpt><trkpt lat="43.2814683" lon="10.7801167"><ele>391.0</ele><time>2026-04-18T12:37:49.577Z</time></trkpt><trkpt lat="43.2815" lon="10.7802467"><ele>391.0</ele><time>2026-04-18T12:37:50.577Z</time></trkpt><trkpt lat="43.28156" lon="10.7803583"><ele>391.8</ele><time>2026-04-18T12:37:51.577Z</time></trkpt><trkpt lat="43.2816167" lon="10.7804567"><ele>392.6</ele><time>2026-04-18T12:37:52.577Z</time></trkpt><trkpt lat="43.281675" lon="10.7805533"><ele>393.4</ele><time>2026-04-18T12:37:53.577Z</time></trkpt><trkpt lat="43.28172" lon="10.7806667"><ele>394.2</ele><time>2026-04-18T12:37:54.577Z</time></trkpt><trkpt lat="43.28176" lon="10.7807883"><ele>395.0</ele><time>2026-04-18T12:37:55.577Z</time></trkpt><trkpt lat="43.281785" lon="10.7808883"><ele>394.99999999999994</ele><time>2026-04-18T12:37:56.577Z</time></trkpt><trkpt lat="43.281815" lon="10.78097"><ele>395.0</ele><time>2026-04-18T12:37:57.578Z</time></trkpt><trkpt lat="43.2818783" lon="10.7810767"><ele>395.0</ele><time>2026-04-18T12:37:59.577Z</time></trkpt><trkpt lat="43.28196" lon="10.781165"><ele>395.0</ele><time>2026-04-18T12:38:03.578Z</time></trkpt><trkpt lat="43.2820033" lon="10.7812433"><ele>394.99999999999994</ele><time>2026-04-18T12:38:05.577Z</time></trkpt><trkpt lat="43.2820517" lon="10.7813233"><ele>395.0</ele><time>2026-04-18T12:38:07.577Z</time></trkpt><trkpt lat="43.2820983" lon="10.78139"><ele>394.66666666666663</ele><time>2026-04-18T12:38:09.577Z</time></trkpt><trkpt lat="43.2821733" lon="10.7814367"><ele>394.3333333333333</ele><time>2026-04-18T12:38:12.577Z</time></trkpt><trkpt lat="43.2822583" lon="10.781435"><ele>394.0</ele><time>2026-04-18T12:38:15.577Z</time></trkpt><trkpt lat="43.2823267" lon="10.7813567"><ele>393.66666666666663</ele><time>2026-04-18T12:38:18.577Z</time></trkpt><trkpt lat="43.2823517" lon="10.7812767"><ele>393.3333333333333</ele><time>2026-04-18T12:38:20.576Z</time></trkpt><trkpt lat="43.2823783" lon="10.7811783"><ele>393.0</ele><time>2026-04-18T12:38:22.576Z</time></trkpt><trkpt lat="43.2824117" lon="10.7810917"><ele>392.0</ele><time>2026-04-18T12:38:24.576Z</time></trkpt><trkpt lat="43.2824533" lon="10.7810033"><ele>391.0</ele><time>2026-04-18T12:38:26.576Z</time></trkpt><trkpt lat="43.2825217" lon="10.7809"><ele>390.0</ele><time>2026-04-18T12:38:28.576Z</time></trkpt><trkpt lat="43.2826217" lon="10.7808283"><ele>389.0</ele><time>2026-04-18T12:38:30.576Z</time></trkpt><trkpt lat="43.2827333" lon="10.780775"><ele>388.0</ele><time>2026-04-18T12:38:32.576Z</time></trkpt><trkpt lat="43.2829483" lon="10.780725"><ele>388.00000000000006</ele><time>2026-04-18T12:38:36.576Z</time></trkpt><trkpt lat="43.2830617" lon="10.7807167"><ele>388.0</ele><time>2026-04-18T12:38:38.576Z</time></trkpt><trkpt lat="43.2831883" lon="10.780715"><ele>388.0</ele><time>2026-04-18T12:38:40.576Z</time></trkpt><trkpt lat="43.2832533" lon="10.7807017"><ele>388.0</ele><time>2026-04-18T12:38:41.576Z</time></trkpt><trkpt lat="43.2833183" lon="10.780685"><ele>388.00000000000006</ele><time>2026-04-18T12:38:42.576Z</time></trkpt><trkpt lat="43.2833833" lon="10.7806767"><ele>388.0</ele><time>2026-04-18T12:38:43.576Z</time></trkpt><trkpt lat="43.2834467" lon="10.7806667"><ele>385.59999999999997</ele><time>2026-04-18T12:38:44.576Z</time></trkpt><trkpt lat="43.283565" lon="10.7806633"><ele>383.2</ele><time>2026-04-18T12:38:46.576Z</time></trkpt><trkpt lat="43.2836767" lon="10.7806883"><ele>380.8</ele><time>2026-04-18T12:38:48.576Z</time></trkpt><trkpt lat="43.2837567" lon="10.7807333"><ele>378.4</ele><time>2026-04-18T12:38:50.576Z</time></trkpt><trkpt lat="43.2838517" lon="10.7807667"><ele>376.0</ele><time>2026-04-18T12:38:52.577Z</time></trkpt><trkpt lat="43.28398" lon="10.7807733"><ele>373.75</ele><time>2026-04-18T12:38:54.576Z</time></trkpt><trkpt lat="43.2840883" lon="10.7807467"><ele>371.5</ele><time>2026-04-18T12:38:56.576Z</time></trkpt><trkpt lat="43.284195" lon="10.780655"><ele>369.25</ele><time>2026-04-18T12:38:58.576Z</time></trkpt><trkpt lat="43.2842867" lon="10.7805633"><ele>367.0</ele><time>2026-04-18T12:39:00.576Z</time></trkpt><trkpt lat="43.2843967" lon="10.7804817"><ele>367.0</ele><time>2026-04-18T12:39:02.576Z</time></trkpt><trkpt lat="43.28451" lon="10.7804467"><ele>367.0</ele><time>2026-04-18T12:39:04.577Z</time></trkpt><trkpt lat="43.28461" lon="10.7804733"><ele>367.0</ele><time>2026-04-18T12:39:06.576Z</time></trkpt><trkpt lat="43.2847583" lon="10.7806983"><ele>367.0</ele><time>2026-04-18T12:39:09.576Z</time></trkpt><trkpt lat="43.2848017" lon="10.78082"><ele>367.20000000000005</ele><time>2026-04-18T12:39:10.576Z</time></trkpt><trkpt lat="43.2848467" lon="10.7809483"><ele>367.4</ele><time>2026-04-18T12:39:11.577Z</time></trkpt><trkpt lat="43.2848867" lon="10.7810667"><ele>367.6</ele><time>2026-04-18T12:39:12.576Z</time></trkpt><trkpt lat="43.28492" lon="10.78116"><ele>367.79999999999995</ele><time>2026-04-18T12:39:13.577Z</time></trkpt><trkpt lat="43.2849617" lon="10.7813033"><ele>368.0</ele><time>2026-04-18T12:39:15.576Z</time></trkpt><trkpt lat="43.2849983" lon="10.781405"><ele>368.0</ele><time>2026-04-18T12:39:17.577Z</time></trkpt><trkpt lat="43.2850717" lon="10.78143"><ele>368.0</ele><time>2026-04-18T12:39:19.576Z</time></trkpt><trkpt lat="43.2851383" lon="10.7814183"><ele>368.0</ele><time>2026-04-18T12:39:20.577Z</time></trkpt><trkpt lat="43.285215" lon="10.7813833"><ele>368.0</ele><time>2026-04-18T12:39:21.576Z</time></trkpt><trkpt lat="43.2852783" lon="10.781325"><ele>368.0</ele><time>2026-04-18T12:39:22.577Z</time></trkpt><trkpt lat="43.2853333" lon="10.7812617"><ele>368.0</ele><time>2026-04-18T12:39:23.576Z</time></trkpt><trkpt lat="43.2853917" lon="10.7811967"><ele>368.0</ele><time>2026-04-18T12:39:24.576Z</time></trkpt><trkpt lat="43.2854533" lon="10.7811283"><ele>368.0</ele><time>2026-04-18T12:39:25.576Z</time></trkpt><trkpt lat="43.285525" lon="10.7810667"><ele>368.0</ele><time>2026-04-18T12:39:26.577Z</time></trkpt><trkpt lat="43.2855967" lon="10.781005"><ele>368.0</ele><time>2026-04-18T12:39:27.576Z</time></trkpt><trkpt lat="43.2856683" lon="10.7809483"><ele>368.0</ele><time>2026-04-18T12:39:28.576Z</time></trkpt><trkpt lat="43.2857367" lon="10.780885"><ele>368.0</ele><time>2026-04-18T12:39:29.576Z</time></trkpt><trkpt lat="43.2858067" lon="10.7808183"><ele>368.0</ele><time>2026-04-18T12:39:30.576Z</time></trkpt><trkpt lat="43.2858867" lon="10.78075"><ele>366.0</ele><time>2026-04-18T12:39:31.576Z</time></trkpt><trkpt lat="43.285965" lon="10.78068"><ele>364.0</ele><time>2026-04-18T12:39:32.576Z</time></trkpt><trkpt lat="43.2860467" lon="10.780615"><ele>362.0</ele><time>2026-04-18T12:39:33.576Z</time></trkpt><trkpt lat="43.286125" lon="10.78056"><ele>360.0</ele><time>2026-04-18T12:39:34.577Z</time></trkpt><trkpt lat="43.2862" lon="10.7805117"><ele>358.0</ele><time>2026-04-18T12:39:35.576Z</time></trkpt><trkpt lat="43.28627" lon="10.780475"><ele>356.0</ele><time>2026-04-18T12:39:36.576Z</time></trkpt><trkpt lat="43.2863367" lon="10.7804383"><ele>356.0</ele><time>2026-04-18T12:39:37.576Z</time></trkpt><trkpt lat="43.286405" lon="10.780385"><ele>356.0</ele><time>2026-04-18T12:39:38.576Z</time></trkpt><trkpt lat="43.286465" lon="10.7803133"><ele>356.0</ele><time>2026-04-18T12:39:39.576Z</time></trkpt><trkpt lat="43.286555" lon="10.7801217"><ele>356.0</ele><time>2026-04-18T12:39:41.576Z</time></trkpt><trkpt lat="43.2865917" lon="10.7800267"><ele>356.0</ele><time>2026-04-18T12:39:42.576Z</time></trkpt><trkpt lat="43.28663" lon="10.7799233"><ele>353.57142857142856</ele><time>2026-04-18T12:39:43.576Z</time></trkpt><trkpt lat="43.2866683" lon="10.7798217"><ele>351.1428571428571</ele><time>2026-04-18T12:39:44.576Z</time></trkpt><trkpt lat="43.2867017" lon="10.7797233"><ele>348.71428571428567</ele><time>2026-04-18T12:39:45.576Z</time></trkpt><trkpt lat="43.2867317" lon="10.779635"><ele>346.2857142857143</ele><time>2026-04-18T12:39:46.576Z</time></trkpt><trkpt lat="43.2867733" lon="10.779545"><ele>343.8571428571429</ele><time>2026-04-18T12:39:47.576Z</time></trkpt><trkpt lat="43.28681" lon="10.7794617"><ele>341.4285714285714</ele><time>2026-04-18T12:39:48.576Z</time></trkpt><trkpt lat="43.286845" lon="10.7793833"><ele>339.0</ele><time>2026-04-18T12:39:49.576Z</time></trkpt><trkpt lat="43.2868833" lon="10.7792933"><ele>337.3333333333333</ele><time>2026-04-18T12:39:50.576Z</time></trkpt><trkpt lat="43.2869183" lon="10.77921"><ele>335.6666666666667</ele><time>2026-04-18T12:39:51.576Z</time></trkpt><trkpt lat="43.286955" lon="10.7791283"><ele>334.0</ele><time>2026-04-18T12:39:52.576Z</time></trkpt><trkpt lat="43.2869883" lon="10.7790417"><ele>332.33333333333337</ele><time>2026-04-18T12:39:53.576Z</time></trkpt><trkpt lat="43.2870233" lon="10.778965"><ele>330.6666666666667</ele><time>2026-04-18T12:39:54.576Z</time></trkpt><trkpt lat="43.2870567" lon="10.77889"><ele>329.0</ele><time>2026-04-18T12:39:55.576Z</time></trkpt><trkpt lat="43.2871133" lon="10.7787517"><ele>329.0</ele><time>2026-04-18T12:39:57.576Z</time></trkpt><trkpt lat="43.2871517" lon="10.77857"><ele>329.0</ele><time>2026-04-18T12:39:59.576Z</time></trkpt><trkpt lat="43.2871683" lon="10.7784667"><ele>329.0</ele><time>2026-04-18T12:40:00.576Z</time></trkpt><trkpt lat="43.287185" lon="10.7783633"><ele>329.0</ele><time>2026-04-18T12:40:01.576Z</time></trkpt><trkpt lat="43.287205" lon="10.778265"><ele>329.0</ele><time>2026-04-18T12:40:02.576Z</time></trkpt><trkpt lat="43.28722" lon="10.7781633"><ele>329.0</ele><time>2026-04-18T12:40:03.576Z</time></trkpt><trkpt lat="43.2872317" lon="10.7780683"><ele>327.1666666666667</ele><time>2026-04-18T12:40:04.576Z</time></trkpt><trkpt lat="43.28724" lon="10.7779767"><ele>325.33333333333337</ele><time>2026-04-18T12:40:05.576Z</time></trkpt><trkpt lat="43.28725" lon="10.77789"><ele>323.5</ele><time>2026-04-18T12:40:06.576Z</time></trkpt><trkpt lat="43.2872683" lon="10.7777633"><ele>321.6666666666667</ele><time>2026-04-18T12:40:08.576Z</time></trkpt><trkpt lat="43.287295" lon="10.7776767"><ele>319.8333333333333</ele><time>2026-04-18T12:40:10.577Z</time></trkpt><trkpt lat="43.28734" lon="10.7775917"><ele>318.0</ele><time>2026-04-18T12:40:12.576Z</time></trkpt><trkpt lat="43.287475" lon="10.7774983"><ele>317.4</ele><time>2026-04-18T12:40:15.576Z</time></trkpt><trkpt lat="43.2875817" lon="10.7774917"><ele>316.8</ele><time>2026-04-18T12:40:17.576Z</time></trkpt><trkpt lat="43.2876833" lon="10.7775367"><ele>316.2</ele><time>2026-04-18T12:40:19.576Z</time></trkpt><trkpt lat="43.28776" lon="10.7776133"><ele>315.6</ele><time>2026-04-18T12:40:21.576Z</time></trkpt><trkpt lat="43.28785" lon="10.7776967"><ele>315.0</ele><time>2026-04-18T12:40:23.576Z</time></trkpt><trkpt lat="43.2879333" lon="10.7777833"><ele>315.0</ele><time>2026-04-18T12:40:25.577Z</time></trkpt><trkpt lat="43.2880033" lon="10.777845"><ele>315.0</ele><time>2026-04-18T12:40:27.576Z</time></trkpt><trkpt lat="43.2880933" lon="10.77787"><ele>315.0</ele><time>2026-04-18T12:40:29.576Z</time></trkpt><trkpt lat="43.2881867" lon="10.7778783"><ele>315.0</ele><time>2026-04-18T12:40:31.576Z</time></trkpt><trkpt lat="43.2882567" lon="10.7778967"><ele>315.0</ele><time>2026-04-18T12:40:33.576Z</time></trkpt><trkpt lat="43.2883433" lon="10.7779467"><ele>315.0</ele><time>2026-04-18T12:40:35.576Z</time></trkpt><trkpt lat="43.2884033" lon="10.77799"><ele>313.0</ele><time>2026-04-18T12:40:36.576Z</time></trkpt><trkpt lat="43.2884767" lon="10.77802"><ele>311.0</ele><time>2026-04-18T12:40:37.576Z</time></trkpt><trkpt lat="43.2885517" lon="10.778055"><ele>309.0</ele><time>2026-04-18T12:40:38.576Z</time></trkpt><trkpt lat="43.2886567" lon="10.7781183"><ele>307.0</ele><time>2026-04-18T12:40:39.576Z</time></trkpt><trkpt lat="43.28875" lon="10.778175"><ele>305.0</ele><time>2026-04-18T12:40:40.576Z</time></trkpt><trkpt lat="43.2888417" lon="10.7782233"><ele>302.4</ele><time>2026-04-18T12:40:41.576Z</time></trkpt><trkpt lat="43.2889333" lon="10.778265"><ele>299.8</ele><time>2026-04-18T12:40:42.576Z</time></trkpt><trkpt lat="43.2890183" lon="10.778305"><ele>297.2</ele><time>2026-04-18T12:40:43.576Z</time></trkpt><trkpt lat="43.2890883" lon="10.7783417"><ele>294.6</ele><time>2026-04-18T12:40:44.577Z</time></trkpt><trkpt lat="43.2891517" lon="10.7783783"><ele>292.0</ele><time>2026-04-18T12:40:45.576Z</time></trkpt><trkpt lat="43.2892633" lon="10.7784917"><ele>295.3333333333333</ele><time>2026-04-18T12:40:47.576Z</time></trkpt><trkpt lat="43.2893217" lon="10.7785617"><ele>298.66666666666663</ele><time>2026-04-18T12:40:48.576Z</time></trkpt><trkpt lat="43.2893783" lon="10.778635"><ele>302.0</ele><time>2026-04-18T12:40:49.576Z</time></trkpt><trkpt lat="43.2894267" lon="10.7786967"><ele>305.3333333333333</ele><time>2026-04-18T12:40:50.577Z</time></trkpt><trkpt lat="43.2895083" lon="10.7787717"><ele>308.6666666666667</ele><time>2026-04-18T12:40:52.576Z</time></trkpt><trkpt lat="43.28962" lon="10.778795"><ele>312.0</ele><time>2026-04-18T12:40:54.576Z</time></trkpt><trkpt lat="43.289695" lon="10.778795"><ele>311.3333333333333</ele><time>2026-04-18T12:40:55.576Z</time></trkpt><trkpt lat="43.2897733" lon="10.7787933"><ele>310.6666666666667</ele><time>2026-04-18T12:40:56.576Z</time></trkpt><trkpt lat="43.289845" lon="10.7787817"><ele>310.0</ele><time>2026-04-18T12:40:57.577Z</time></trkpt><trkpt lat="43.289915" lon="10.778775"><ele>309.33333333333337</ele><time>2026-04-18T12:40:58.576Z</time></trkpt><trkpt lat="43.289985" lon="10.77878"><ele>308.6666666666667</ele><time>2026-04-18T12:40:59.576Z</time></trkpt><trkpt lat="43.29011" lon="10.7788317"><ele>308.0</ele><time>2026-04-18T12:41:01.576Z</time></trkpt><trkpt lat="43.29021" lon="10.7789183"><ele>308.0</ele><time>2026-04-18T12:41:03.576Z</time></trkpt><trkpt lat="43.2902883" lon="10.77901"><ele>308.0</ele><time>2026-04-18T12:41:04.576Z</time></trkpt><trkpt lat="43.2903417" lon="10.7790817"><ele>308.0</ele><time>2026-04-18T12:41:05.576Z</time></trkpt><trkpt lat="43.2903917" lon="10.779165"><ele>308.0</ele><time>2026-04-18T12:41:06.576Z</time></trkpt><trkpt lat="43.29045" lon="10.7792483"><ele>308.0</ele><time>2026-04-18T12:41:07.577Z</time></trkpt><trkpt lat="43.2905217" lon="10.779355"><ele>308.0</ele><time>2026-04-18T12:41:08.576Z</time></trkpt><trkpt lat="43.2905783" lon="10.7794517"><ele>307.83333333333337</ele><time>2026-04-18T12:41:09.576Z</time></trkpt><trkpt lat="43.2906467" lon="10.779545"><ele>307.6666666666667</ele><time>2026-04-18T12:41:10.576Z</time></trkpt><trkpt lat="43.2907133" lon="10.7796383"><ele>307.5</ele><time>2026-04-18T12:41:11.576Z</time></trkpt><trkpt lat="43.2907833" lon="10.779725"><ele>307.3333333333333</ele><time>2026-04-18T12:41:12.576Z</time></trkpt><trkpt lat="43.2908417" lon="10.7798033"><ele>307.16666666666663</ele><time>2026-04-18T12:41:13.576Z</time></trkpt><trkpt lat="43.290895" lon="10.779875"><ele>307.0</ele><time>2026-04-18T12:41:14.576Z</time></trkpt><trkpt lat="43.290955" lon="10.7799417"><ele>307.0</ele><time>2026-04-18T12:41:15.577Z</time></trkpt><trkpt lat="43.29102" lon="10.7799967"><ele>307.0</ele><time>2026-04-18T12:41:16.577Z</time></trkpt><trkpt lat="43.2910817" lon="10.780045"><ele>307.0</ele><time>2026-04-18T12:41:17.576Z</time></trkpt><trkpt lat="43.2912083" lon="10.7801433"><ele>307.0</ele><time>2026-04-18T12:41:20.576Z</time></trkpt><trkpt lat="43.291265" lon="10.7802017"><ele>307.0</ele><time>2026-04-18T12:41:22.576Z</time></trkpt><trkpt lat="43.29133" lon="10.7802367"><ele>307.0</ele><time>2026-04-18T12:41:24.576Z</time></trkpt><trkpt lat="43.291405" lon="10.7802667"><ele>304.8333333333333</ele><time>2026-04-18T12:41:26.576Z</time></trkpt><trkpt lat="43.2915033" lon="10.7802617"><ele>302.66666666666663</ele><time>2026-04-18T12:41:28.576Z</time></trkpt><trkpt lat="43.2915817" lon="10.780245"><ele>300.5</ele><time>2026-04-18T12:41:30.576Z</time></trkpt><trkpt lat="43.2916517" lon="10.7802533"><ele>298.3333333333333</ele><time>2026-04-18T12:41:32.576Z</time></trkpt><trkpt lat="43.29172" lon="10.7802933"><ele>296.1666666666667</ele><time>2026-04-18T12:41:34.576Z</time></trkpt><trkpt lat="43.291795" lon="10.7803867"><ele>294.0</ele><time>2026-04-18T12:41:36.576Z</time></trkpt><trkpt lat="43.2918467" lon="10.7805317"><ele>294.0</ele><time>2026-04-18T12:41:38.575Z</time></trkpt><trkpt lat="43.2918667" lon="10.7806333"><ele>294.0</ele><time>2026-04-18T12:41:39.575Z</time></trkpt><trkpt lat="43.2918917" lon="10.7807417"><ele>294.0</ele><time>2026-04-18T12:41:40.575Z</time></trkpt><trkpt lat="43.2919133" lon="10.7808467"><ele>294.0</ele><time>2026-04-18T12:41:41.575Z</time></trkpt><trkpt lat="43.2919317" lon="10.7809433"><ele>294.0</ele><time>2026-04-18T12:41:42.575Z</time></trkpt><trkpt lat="43.29194" lon="10.7810367"><ele>294.0</ele><time>2026-04-18T12:41:43.575Z</time></trkpt><trkpt lat="43.2919417" lon="10.781125"><ele>294.0</ele><time>2026-04-18T12:41:44.576Z</time></trkpt><trkpt lat="43.2919483" lon="10.781215"><ele>294.57142857142856</ele><time>2026-04-18T12:41:45.576Z</time></trkpt><trkpt lat="43.2919533" lon="10.7813117"><ele>295.1428571428571</ele><time>2026-04-18T12:41:46.575Z</time></trkpt><trkpt lat="43.29197" lon="10.7814083"><ele>295.7142857142857</ele><time>2026-04-18T12:41:47.575Z</time></trkpt><trkpt lat="43.292" lon="10.78149"><ele>296.2857142857143</ele><time>2026-04-18T12:41:48.575Z</time></trkpt><trkpt lat="43.29203" lon="10.7815717"><ele>296.85714285714283</ele><time>2026-04-18T12:41:49.575Z</time></trkpt><trkpt lat="43.2920667" lon="10.7816683"><ele>297.42857142857144</ele><time>2026-04-18T12:41:50.575Z</time></trkpt><trkpt lat="43.292105" lon="10.7817567"><ele>298.0</ele><time>2026-04-18T12:41:51.575Z</time></trkpt><trkpt lat="43.292155" lon="10.7819517"><ele>298.5</ele><time>2026-04-18T12:41:53.575Z</time></trkpt><trkpt lat="43.2921683" lon="10.7820383"><ele>299.0</ele><time>2026-04-18T12:41:54.575Z</time></trkpt><trkpt lat="43.2921617" lon="10.7822033"><ele>299.5</ele><time>2026-04-18T12:41:56.576Z</time></trkpt><trkpt lat="43.2921483" lon="10.7823"><ele>300.0</ele><time>2026-04-18T12:41:57.575Z</time></trkpt><trkpt lat="43.2921117" lon="10.7824183"><ele>300.5</ele><time>2026-04-18T12:41:58.575Z</time></trkpt><trkpt lat="43.292075" lon="10.782535"><ele>301.0</ele><time>2026-04-18T12:41:59.575Z</time></trkpt><trkpt lat="43.2920417" lon="10.782655"><ele>301.66666666666663</ele><time>2026-04-18T12:42:00.575Z</time></trkpt><trkpt lat="43.292005" lon="10.7827683"><ele>302.3333333333333</ele><time>2026-04-18T12:42:01.576Z</time></trkpt><trkpt lat="43.291965" lon="10.782855"><ele>303.0</ele><time>2026-04-18T12:42:02.575Z</time></trkpt><trkpt lat="43.2919317" lon="10.7829333"><ele>303.6666666666667</ele><time>2026-04-18T12:42:03.575Z</time></trkpt><trkpt lat="43.2919033" lon="10.7830667"><ele>304.33333333333337</ele><time>2026-04-18T12:42:05.575Z</time></trkpt><trkpt lat="43.2918967" lon="10.7832"><ele>305.0</ele><time>2026-04-18T12:42:07.575Z</time></trkpt><trkpt lat="43.2919233" lon="10.7833517"><ele>305.0</ele><time>2026-04-18T12:42:09.575Z</time></trkpt><trkpt lat="43.291935" lon="10.7834433"><ele>305.0</ele><time>2026-04-18T12:42:10.575Z</time></trkpt><trkpt lat="43.2919467" lon="10.783545"><ele>305.0</ele><time>2026-04-18T12:42:11.575Z</time></trkpt><trkpt lat="43.29196" lon="10.78364"><ele>305.0</ele><time>2026-04-18T12:42:12.575Z</time></trkpt><trkpt lat="43.2919683" lon="10.7837267"><ele>305.0</ele><time>2026-04-18T12:42:13.575Z</time></trkpt><trkpt lat="43.2919767" lon="10.7838817"><ele>305.0</ele><time>2026-04-18T12:42:15.575Z</time></trkpt><trkpt lat="43.291945" lon="10.78402"><ele>303.75</ele><time>2026-04-18T12:42:17.575Z</time></trkpt><trkpt lat="43.2918967" lon="10.7841367"><ele>302.5</ele><time>2026-04-18T12:42:19.576Z</time></trkpt><trkpt lat="43.29186" lon="10.7842433"><ele>301.25</ele><time>2026-04-18T12:42:21.575Z</time></trkpt><trkpt lat="43.2918767" lon="10.78438"><ele>300.0</ele><time>2026-04-18T12:42:23.575Z</time></trkpt><trkpt lat="43.2920533" lon="10.7846033"><ele>298.1666666666667</ele><time>2026-04-18T12:42:27.575Z</time></trkpt><trkpt lat="43.29211" lon="10.7846517"><ele>296.3333333333333</ele><time>2026-04-18T12:42:28.575Z</time></trkpt><trkpt lat="43.2921733" lon="10.7846983"><ele>294.5</ele><time>2026-04-18T12:42:29.575Z</time></trkpt><trkpt lat="43.2922367" lon="10.7847467"><ele>292.66666666666663</ele><time>2026-04-18T12:42:30.575Z</time></trkpt><trkpt lat="43.2923033" lon="10.7847817"><ele>290.8333333333333</ele><time>2026-04-18T12:42:31.575Z</time></trkpt><trkpt lat="43.292415" lon="10.7848283"><ele>289.0</ele><time>2026-04-18T12:42:33.576Z</time></trkpt><trkpt lat="43.292535" lon="10.7848517"><ele>287.66666666666663</ele><time>2026-04-18T12:42:35.575Z</time></trkpt><trkpt lat="43.2926" lon="10.784845"><ele>286.3333333333333</ele><time>2026-04-18T12:42:36.575Z</time></trkpt><trkpt lat="43.2926983" lon="10.7848667"><ele>285.0</ele><time>2026-04-18T12:42:38.576Z</time></trkpt><trkpt lat="43.29278" lon="10.7848833"><ele>283.6666666666667</ele><time>2026-04-18T12:42:40.575Z</time></trkpt><trkpt lat="43.29285" lon="10.7849267"><ele>282.33333333333337</ele><time>2026-04-18T12:42:42.576Z</time></trkpt><trkpt lat="43.2929017" lon="10.7849783"><ele>281.0</ele><time>2026-04-18T12:42:44.576Z</time></trkpt><trkpt lat="43.2929517" lon="10.7850583"><ele>281.0</ele><time>2026-04-18T12:42:46.575Z</time></trkpt><trkpt lat="43.292985" lon="10.7851783"><ele>281.0</ele><time>2026-04-18T12:42:48.575Z</time></trkpt><trkpt lat="43.2930067" lon="10.7853533"><ele>281.0</ele><time>2026-04-18T12:42:50.575Z</time></trkpt><trkpt lat="43.29302" lon="10.78546"><ele>281.0</ele><time>2026-04-18T12:42:51.575Z</time></trkpt><trkpt lat="43.2930283" lon="10.7855617"><ele>281.0</ele><time>2026-04-18T12:42:52.575Z</time></trkpt><trkpt lat="43.2930383" lon="10.78567"><ele>280.0</ele><time>2026-04-18T12:42:53.575Z</time></trkpt><trkpt lat="43.2930533" lon="10.7857717"><ele>279.0</ele><time>2026-04-18T12:42:54.575Z</time></trkpt><trkpt lat="43.293065" lon="10.78586"><ele>278.0</ele><time>2026-04-18T12:42:55.575Z</time></trkpt><trkpt lat="43.2930767" lon="10.78595"><ele>277.0</ele><time>2026-04-18T12:42:56.575Z</time></trkpt><trkpt lat="43.2931833" lon="10.78623"><ele>276.0</ele><time>2026-04-18T12:43:00.576Z</time></trkpt><trkpt lat="43.2932267" lon="10.7862933"><ele>272.8333333333333</ele><time>2026-04-18T12:43:01.575Z</time></trkpt><trkpt lat="43.2932717" lon="10.78636"><ele>269.6666666666667</ele><time>2026-04-18T12:43:02.575Z</time></trkpt><trkpt lat="43.2933167" lon="10.7864283"><ele>266.5</ele><time>2026-04-18T12:43:03.575Z</time></trkpt><trkpt lat="43.2933617" lon="10.786495"><ele>263.33333333333337</ele><time>2026-04-18T12:43:04.575Z</time></trkpt><trkpt lat="43.293425" lon="10.7865683"><ele>260.1666666666667</ele><time>2026-04-18T12:43:05.575Z</time></trkpt><trkpt lat="43.2934983" lon="10.786645"><ele>257.0</ele><time>2026-04-18T12:43:06.575Z</time></trkpt><trkpt lat="43.2935767" lon="10.78672"><ele>257.0</ele><time>2026-04-18T12:43:07.575Z</time></trkpt><trkpt lat="43.2936517" lon="10.7867917"><ele>257.0</ele><time>2026-04-18T12:43:08.575Z</time></trkpt><trkpt lat="43.2937217" lon="10.7868533"><ele>257.0</ele><time>2026-04-18T12:43:09.576Z</time></trkpt><trkpt lat="43.2937883" lon="10.7869167"><ele>257.0</ele><time>2026-04-18T12:43:10.575Z</time></trkpt><trkpt lat="43.2938533" lon="10.78698"><ele>257.0</ele><time>2026-04-18T12:43:11.575Z</time></trkpt><trkpt lat="43.2939117" lon="10.7870383"><ele>257.0</ele><time>2026-04-18T12:43:12.575Z</time></trkpt><trkpt lat="43.293965" lon="10.7870867"><ele>256.1666666666667</ele><time>2026-04-18T12:43:13.575Z</time></trkpt><trkpt lat="43.2940417" lon="10.787165"><ele>255.33333333333334</ele><time>2026-04-18T12:43:15.575Z</time></trkpt><trkpt lat="43.2940567" lon="10.7872883"><ele>254.5</ele><time>2026-04-18T12:43:18.575Z</time></trkpt><trkpt lat="43.2939917" lon="10.787385"><ele>253.66666666666669</ele><time>2026-04-18T12:43:20.576Z</time></trkpt><trkpt lat="43.2939433" lon="10.7874433"><ele>252.83333333333334</ele><time>2026-04-18T12:43:21.575Z</time></trkpt><trkpt lat="43.2938883" lon="10.7875117"><ele>252.0</ele><time>2026-04-18T12:43:22.576Z</time></trkpt><trkpt lat="43.2938367" lon="10.787595"><ele>252.0</ele><time>2026-04-18T12:43:23.575Z</time></trkpt><trkpt lat="43.2937817" lon="10.7876733"><ele>252.0</ele><time>2026-04-18T12:43:24.575Z</time></trkpt><trkpt lat="43.2937233" lon="10.78775"><ele>252.0</ele><time>2026-04-18T12:43:25.575Z</time></trkpt><trkpt lat="43.2936667" lon="10.7878267"><ele>252.0</ele><time>2026-04-18T12:43:26.575Z</time></trkpt><trkpt lat="43.2936133" lon="10.7879067"><ele>252.0</ele><time>2026-04-18T12:43:27.575Z</time></trkpt><trkpt lat="43.2935633" lon="10.7879833"><ele>252.0</ele><time>2026-04-18T12:43:28.575Z</time></trkpt><trkpt lat="43.2935133" lon="10.7880783"><ele>251.39999999999998</ele><time>2026-04-18T12:43:29.576Z</time></trkpt><trkpt lat="43.29347" lon="10.7881833"><ele>250.79999999999998</ele><time>2026-04-18T12:43:30.575Z</time></trkpt><trkpt lat="43.2933883" lon="10.7883983"><ele>250.2</ele><time>2026-04-18T12:43:32.575Z</time></trkpt><trkpt lat="43.293345" lon="10.7885"><ele>249.6</ele><time>2026-04-18T12:43:33.576Z</time></trkpt><trkpt lat="43.2933033" lon="10.7885917"><ele>249.0</ele><time>2026-04-18T12:43:34.576Z</time></trkpt><trkpt lat="43.2932617" lon="10.7886833"><ele>248.5</ele><time>2026-04-18T12:43:35.575Z</time></trkpt><trkpt lat="43.2932267" lon="10.78878"><ele>248.0</ele><time>2026-04-18T12:43:36.575Z</time></trkpt><trkpt lat="43.2931933" lon="10.788865"><ele>247.5</ele><time>2026-04-18T12:43:37.575Z</time></trkpt><trkpt lat="43.2931667" lon="10.78895"><ele>247.0</ele><time>2026-04-18T12:43:38.575Z</time></trkpt><trkpt lat="43.2931333" lon="10.7890583"><ele>246.5</ele><time>2026-04-18T12:43:39.575Z</time></trkpt><trkpt lat="43.2930983" lon="10.7891667"><ele>246.0</ele><time>2026-04-18T12:43:40.575Z</time></trkpt><trkpt lat="43.29307" lon="10.7892817"><ele>248.83333333333334</ele><time>2026-04-18T12:43:41.576Z</time></trkpt><trkpt lat="43.29304" lon="10.789405"><ele>251.66666666666669</ele><time>2026-04-18T12:43:42.575Z</time></trkpt><trkpt lat="43.2930117" lon="10.78952"><ele>254.5</ele><time>2026-04-18T12:43:43.576Z</time></trkpt><trkpt lat="43.2929867" lon="10.7896183"><ele>257.33333333333337</ele><time>2026-04-18T12:43:44.575Z</time></trkpt><trkpt lat="43.2929567" lon="10.7897017"><ele>260.1666666666667</ele><time>2026-04-18T12:43:45.576Z</time></trkpt><trkpt lat="43.2929167" lon="10.7897783"><ele>263.0</ele><time>2026-04-18T12:43:46.575Z</time></trkpt><trkpt lat="43.2928617" lon="10.789835"><ele>263.0</ele><time>2026-04-18T12:43:47.575Z</time></trkpt><trkpt lat="43.2928" lon="10.7898967"><ele>263.0</ele><time>2026-04-18T12:43:48.575Z</time></trkpt><trkpt lat="43.2927317" lon="10.789955"><ele>263.0</ele><time>2026-04-18T12:43:49.575Z</time></trkpt><trkpt lat="43.292665" lon="10.79002"><ele>263.0</ele><time>2026-04-18T12:43:50.575Z</time></trkpt><trkpt lat="43.29261" lon="10.7900833"><ele>263.0</ele><time>2026-04-18T12:43:51.575Z</time></trkpt><trkpt lat="43.2925667" lon="10.7901517"><ele>263.0</ele><time>2026-04-18T12:43:52.575Z</time></trkpt><trkpt lat="43.292515" lon="10.7902167"><ele>263.0</ele><time>2026-04-18T12:43:53.575Z</time></trkpt><trkpt lat="43.2924633" lon="10.7902733"><ele>261.6</ele><time>2026-04-18T12:43:54.575Z</time></trkpt><trkpt lat="43.29241" lon="10.7903483"><ele>260.20000000000005</ele><time>2026-04-18T12:43:55.575Z</time></trkpt><trkpt lat="43.29236" lon="10.7904167"><ele>258.8</ele><time>2026-04-18T12:43:56.575Z</time></trkpt><trkpt lat="43.2922867" lon="10.79051"><ele>257.40000000000003</ele><time>2026-04-18T12:43:58.575Z</time></trkpt><trkpt lat="43.2922483" lon="10.7906383"><ele>256.0</ele><time>2026-04-18T12:44:00.576Z</time></trkpt><trkpt lat="43.29224" lon="10.7908067"><ele>255.20000000000002</ele><time>2026-04-18T12:44:02.575Z</time></trkpt><trkpt lat="43.2922433" lon="10.7909017"><ele>254.40000000000003</ele><time>2026-04-18T12:44:03.575Z</time></trkpt><trkpt lat="43.2922883" lon="10.79117"><ele>253.6</ele><time>2026-04-18T12:44:06.576Z</time></trkpt><trkpt lat="43.2922867" lon="10.7912567"><ele>252.8</ele><time>2026-04-18T12:44:07.575Z</time></trkpt><trkpt lat="43.2922917" lon="10.7914"><ele>252.0</ele><time>2026-04-18T12:44:09.575Z</time></trkpt><trkpt lat="43.29229" lon="10.791565"><ele>252.0</ele><time>2026-04-18T12:44:11.575Z</time></trkpt><trkpt lat="43.2922667" lon="10.7917283"><ele>252.0</ele><time>2026-04-18T12:44:13.575Z</time></trkpt><trkpt lat="43.2922283" lon="10.791815"><ele>252.0</ele><time>2026-04-18T12:44:14.575Z</time></trkpt><trkpt lat="43.292195" lon="10.7918983"><ele>252.0</ele><time>2026-04-18T12:44:15.575Z</time></trkpt><trkpt lat="43.292165" lon="10.791995"><ele>252.0</ele><time>2026-04-18T12:44:16.576Z</time></trkpt><trkpt lat="43.2921233" lon="10.7921017"><ele>252.0</ele><time>2026-04-18T12:44:17.575Z</time></trkpt><trkpt lat="43.2920867" lon="10.7922017"><ele>250.83333333333334</ele><time>2026-04-18T12:44:18.575Z</time></trkpt><trkpt lat="43.292055" lon="10.79229"><ele>249.66666666666669</ele><time>2026-04-18T12:44:19.575Z</time></trkpt><trkpt lat="43.2920217" lon="10.7924267"><ele>248.5</ele><time>2026-04-18T12:44:21.575Z</time></trkpt><trkpt lat="43.291985" lon="10.7925317"><ele>247.33333333333334</ele><time>2026-04-18T12:44:23.575Z</time></trkpt><trkpt lat="43.29197" lon="10.7926267"><ele>246.16666666666669</ele><time>2026-04-18T12:44:26.575Z</time></trkpt><trkpt lat="43.2919733" lon="10.7927717"><ele>245.0</ele><time>2026-04-18T12:45:06.574Z</time></trkpt><trkpt lat="43.2920667" lon="10.79289"><ele>245.00000000000003</ele><time>2026-04-18T12:45:08.574Z</time></trkpt><trkpt lat="43.2921167" lon="10.79296"><ele>245.0</ele><time>2026-04-18T12:45:09.574Z</time></trkpt><trkpt lat="43.29216" lon="10.793025"><ele>245.0</ele><time>2026-04-18T12:45:10.574Z</time></trkpt><trkpt lat="43.2922133" lon="10.793105"><ele>245.0</ele><time>2026-04-18T12:45:11.574Z</time></trkpt><trkpt lat="43.29227" lon="10.7931983"><ele>245.00000000000003</ele><time>2026-04-18T12:45:12.574Z</time></trkpt><trkpt lat="43.2923217" lon="10.7932933"><ele>245.0</ele><time>2026-04-18T12:45:13.574Z</time></trkpt><trkpt lat="43.2923767" lon="10.7933817"><ele>245.33333333333334</ele><time>2026-04-18T12:45:14.574Z</time></trkpt><trkpt lat="43.2924233" lon="10.7934667"><ele>245.66666666666669</ele><time>2026-04-18T12:45:15.574Z</time></trkpt><trkpt lat="43.292465" lon="10.7935583"><ele>246.0</ele><time>2026-04-18T12:45:16.574Z</time></trkpt><trkpt lat="43.2925033" lon="10.7936433"><ele>246.33333333333331</ele><time>2026-04-18T12:45:17.574Z</time></trkpt><trkpt lat="43.2925417" lon="10.7937217"><ele>246.66666666666666</ele><time>2026-04-18T12:45:18.574Z</time></trkpt><trkpt lat="43.2925867" lon="10.7938"><ele>247.0</ele><time>2026-04-18T12:45:19.574Z</time></trkpt><trkpt lat="43.2926733" lon="10.7938983"><ele>246.16666666666666</ele><time>2026-04-18T12:45:21.574Z</time></trkpt><trkpt lat="43.2927567" lon="10.7939717"><ele>245.33333333333331</ele><time>2026-04-18T12:45:23.574Z</time></trkpt><trkpt lat="43.2927617" lon="10.7940783"><ele>244.5</ele><time>2026-04-18T12:45:25.574Z</time></trkpt><trkpt lat="43.2926717" lon="10.7941333"><ele>243.66666666666669</ele><time>2026-04-18T12:45:27.574Z</time></trkpt><trkpt lat="43.2925983" lon="10.7941333"><ele>242.83333333333334</ele><time>2026-04-18T12:45:28.574Z</time></trkpt><trkpt lat="43.2925133" lon="10.794125"><ele>242.0</ele><time>2026-04-18T12:45:29.574Z</time></trkpt><trkpt lat="43.29242" lon="10.79413"><ele>242.0</ele><time>2026-04-18T12:45:30.574Z</time></trkpt><trkpt lat="43.29233" lon="10.7941283"><ele>242.0</ele><time>2026-04-18T12:45:31.575Z</time></trkpt><trkpt lat="43.2921017" lon="10.7940417"><ele>242.0</ele><time>2026-04-18T12:45:34.574Z</time></trkpt><trkpt lat="43.2920217" lon="10.7939967"><ele>242.0</ele><time>2026-04-18T12:45:35.574Z</time></trkpt><trkpt lat="43.2919517" lon="10.7939433"><ele>240.83333333333334</ele><time>2026-04-18T12:45:36.574Z</time></trkpt><trkpt lat="43.291875" lon="10.7939"><ele>239.66666666666669</ele><time>2026-04-18T12:45:37.574Z</time></trkpt><trkpt lat="43.2918" lon="10.7938683"><ele>238.5</ele><time>2026-04-18T12:45:38.574Z</time></trkpt><trkpt lat="43.291725" lon="10.7938367"><ele>237.33333333333331</ele><time>2026-04-18T12:45:39.574Z</time></trkpt><trkpt lat="43.29165" lon="10.7938167"><ele>236.16666666666666</ele><time>2026-04-18T12:45:40.574Z</time></trkpt><trkpt lat="43.2915767" lon="10.7938017"><ele>235.0</ele><time>2026-04-18T12:45:41.574Z</time></trkpt><trkpt lat="43.291495" lon="10.7938133"><ele>235.0</ele><time>2026-04-18T12:45:43.575Z</time></trkpt><trkpt lat="43.2914783" lon="10.7939167"><ele>235.0</ele><time>2026-04-18T12:45:45.574Z</time></trkpt><trkpt lat="43.2915233" lon="10.7940233"><ele>235.0</ele><time>2026-04-18T12:45:47.574Z</time></trkpt><trkpt lat="43.291635" lon="10.7941167"><ele>235.0</ele><time>2026-04-18T12:45:49.574Z</time></trkpt><trkpt lat="43.2917" lon="10.7941917"><ele>235.0</ele><time>2026-04-18T12:45:50.574Z</time></trkpt><trkpt lat="43.2917533" lon="10.79429"><ele>232.2</ele><time>2026-04-18T12:45:51.574Z</time></trkpt><trkpt lat="43.2918067" lon="10.7944067"><ele>229.4</ele><time>2026-04-18T12:45:52.574Z</time></trkpt><trkpt lat="43.291845" lon="10.7945233"><ele>226.60000000000002</ele><time>2026-04-18T12:45:53.574Z</time></trkpt><trkpt lat="43.2918917" lon="10.7946333"><ele>223.8</ele><time>2026-04-18T12:45:54.574Z</time></trkpt><trkpt lat="43.29195" lon="10.7947317"><ele>221.0</ele><time>2026-04-18T12:45:55.574Z</time></trkpt><trkpt lat="43.292025" lon="10.79482"><ele>221.0</ele><time>2026-04-18T12:45:56.574Z</time></trkpt><trkpt lat="43.29211" lon="10.7949017"><ele>221.00000000000003</ele><time>2026-04-18T12:45:57.574Z</time></trkpt><trkpt lat="43.2922" lon="10.7949783"><ele>221.00000000000003</ele><time>2026-04-18T12:45:58.574Z</time></trkpt><trkpt lat="43.2922933" lon="10.7950417"><ele>221.0</ele><time>2026-04-18T12:45:59.574Z</time></trkpt><trkpt lat="43.2923833" lon="10.7951117"><ele>221.0</ele><time>2026-04-18T12:46:00.574Z</time></trkpt><trkpt lat="43.2924767" lon="10.7951817"><ele>218.25</ele><time>2026-04-18T12:46:01.574Z</time></trkpt><trkpt lat="43.2925633" lon="10.7952483"><ele>215.5</ele><time>2026-04-18T12:46:02.574Z</time></trkpt><trkpt lat="43.2926483" lon="10.7953217"><ele>212.75</ele><time>2026-04-18T12:46:03.574Z</time></trkpt><trkpt lat="43.2927183" lon="10.7954033"><ele>210.0</ele><time>2026-04-18T12:46:04.574Z</time></trkpt><trkpt lat="43.29289" lon="10.7957117"><ele>210.0</ele><time>2026-04-18T12:46:07.574Z</time></trkpt><trkpt lat="43.292945" lon="10.7958083"><ele>210.0</ele><time>2026-04-18T12:46:08.574Z</time></trkpt><trkpt lat="43.293005" lon="10.7959"><ele>210.0</ele><time>2026-04-18T12:46:09.574Z</time></trkpt><trkpt lat="43.293065" lon="10.795965"><ele>210.0</ele><time>2026-04-18T12:46:10.574Z</time></trkpt><trkpt lat="43.293135" lon="10.796005"><ele>210.0</ele><time>2026-04-18T12:46:11.574Z</time></trkpt><trkpt lat="43.2932117" lon="10.7960317"><ele>210.0</ele><time>2026-04-18T12:46:12.574Z</time></trkpt><trkpt lat="43.2933083" lon="10.79603"><ele>210.4</ele><time>2026-04-18T12:46:13.574Z</time></trkpt><trkpt lat="43.2934067" lon="10.7959983"><ele>210.8</ele><time>2026-04-18T12:46:14.574Z</time></trkpt><trkpt lat="43.2934967" lon="10.7959267"><ele>211.2</ele><time>2026-04-18T12:46:15.574Z</time></trkpt><trkpt lat="43.2935683" lon="10.7958433"><ele>211.6</ele><time>2026-04-18T12:46:16.574Z</time></trkpt><trkpt lat="43.2936383" lon="10.795785"><ele>212.0</ele><time>2026-04-18T12:46:17.575Z</time></trkpt><trkpt lat="43.29371" lon="10.7957567"><ele>212.0</ele><time>2026-04-18T12:46:18.574Z</time></trkpt><trkpt lat="43.293785" lon="10.7957667"><ele>212.0</ele><time>2026-04-18T12:46:19.574Z</time></trkpt><trkpt lat="43.2938567" lon="10.79582"><ele>212.0</ele><time>2026-04-18T12:46:20.574Z</time></trkpt><trkpt lat="43.29392" lon="10.7959067"><ele>212.0</ele><time>2026-04-18T12:46:21.575Z</time></trkpt><trkpt lat="43.2939767" lon="10.7960167"><ele>212.0</ele><time>2026-04-18T12:46:22.574Z</time></trkpt><trkpt lat="43.2940267" lon="10.79615"><ele>209.6</ele><time>2026-04-18T12:46:23.574Z</time></trkpt><trkpt lat="43.2940817" lon="10.7962783"><ele>207.2</ele><time>2026-04-18T12:46:24.574Z</time></trkpt><trkpt lat="43.29415" lon="10.796385"><ele>204.8</ele><time>2026-04-18T12:46:25.574Z</time></trkpt><trkpt lat="43.2942233" lon="10.796475"><ele>202.4</ele><time>2026-04-18T12:46:26.574Z</time></trkpt><trkpt lat="43.29431" lon="10.7965467"><ele>200.0</ele><time>2026-04-18T12:46:27.574Z</time></trkpt><trkpt lat="43.2944" lon="10.7966083"><ele>200.0</ele><time>2026-04-18T12:46:28.574Z</time></trkpt><trkpt lat="43.2945117" lon="10.7966433"><ele>200.0</ele><time>2026-04-18T12:46:29.574Z</time></trkpt><trkpt lat="43.2946317" lon="10.79666"><ele>200.0</ele><time>2026-04-18T12:46:30.574Z</time></trkpt><trkpt lat="43.294745" lon="10.7966467"><ele>200.0</ele><time>2026-04-18T12:46:31.574Z</time></trkpt><trkpt lat="43.29486" lon="10.7966517"><ele>198.6</ele><time>2026-04-18T12:46:32.574Z</time></trkpt><trkpt lat="43.2949683" lon="10.7966833"><ele>197.2</ele><time>2026-04-18T12:46:33.574Z</time></trkpt><trkpt lat="43.2950583" lon="10.7967133"><ele>195.8</ele><time>2026-04-18T12:46:34.574Z</time></trkpt><trkpt lat="43.295145" lon="10.79672"><ele>194.4</ele><time>2026-04-18T12:46:35.574Z</time></trkpt><trkpt lat="43.295235" lon="10.796685"><ele>193.0</ele><time>2026-04-18T12:46:36.574Z</time></trkpt><trkpt lat="43.2953233" lon="10.7966167"><ele>193.0</ele><time>2026-04-18T12:46:37.574Z</time></trkpt><trkpt lat="43.2955283" lon="10.7962783"><ele>193.0</ele><time>2026-04-18T12:46:40.574Z</time></trkpt><trkpt lat="43.2955617" lon="10.7961633"><ele>193.0</ele><time>2026-04-18T12:46:41.574Z</time></trkpt><trkpt lat="43.295605" lon="10.7960767"><ele>191.4</ele><time>2026-04-18T12:46:42.575Z</time></trkpt><trkpt lat="43.2956717" lon="10.7960117"><ele>189.8</ele><time>2026-04-18T12:46:43.574Z</time></trkpt><trkpt lat="43.2957517" lon="10.79599"><ele>188.2</ele><time>2026-04-18T12:46:44.574Z</time></trkpt><trkpt lat="43.2958417" lon="10.7959967"><ele>186.6</ele><time>2026-04-18T12:46:45.574Z</time></trkpt><trkpt lat="43.2959483" lon="10.7960083"><ele>185.0</ele><time>2026-04-18T12:46:46.574Z</time></trkpt><trkpt lat="43.2960583" lon="10.7959833"><ele>185.0</ele><time>2026-04-18T12:46:47.574Z</time></trkpt><trkpt lat="43.29617" lon="10.795935"><ele>185.0</ele><time>2026-04-18T12:46:48.574Z</time></trkpt><trkpt lat="43.2962817" lon="10.7959017"><ele>185.0</ele><time>2026-04-18T12:46:49.575Z</time></trkpt><trkpt lat="43.29639" lon="10.7958783"><ele>185.0</ele><time>2026-04-18T12:46:50.574Z</time></trkpt><trkpt lat="43.296495" lon="10.7958633"><ele>185.0</ele><time>2026-04-18T12:46:51.574Z</time></trkpt><trkpt lat="43.2965883" lon="10.7958433"><ele>182.4</ele><time>2026-04-18T12:46:52.574Z</time></trkpt><trkpt lat="43.2966667" lon="10.7957983"><ele>179.8</ele><time>2026-04-18T12:46:53.574Z</time></trkpt><trkpt lat="43.2967317" lon="10.7957167"><ele>177.2</ele><time>2026-04-18T12:46:54.574Z</time></trkpt><trkpt lat="43.2967883" lon="10.7955983"><ele>174.6</ele><time>2026-04-18T12:46:55.574Z</time></trkpt><trkpt lat="43.2968333" lon="10.7954683"><ele>172.0</ele><time>2026-04-18T12:46:56.574Z</time></trkpt><trkpt lat="43.2968817" lon="10.7953567"><ele>172.0</ele><time>2026-04-18T12:46:57.574Z</time></trkpt><trkpt lat="43.2969433" lon="10.79528"><ele>172.0</ele><time>2026-04-18T12:46:58.574Z</time></trkpt><trkpt lat="43.2970283" lon="10.7952233"><ele>172.0</ele><time>2026-04-18T12:46:59.575Z</time></trkpt><trkpt lat="43.29713" lon="10.79521"><ele>172.0</ele><time>2026-04-18T12:47:00.574Z</time></trkpt><trkpt lat="43.297245" lon="10.7952283"><ele>172.0</ele><time>2026-04-18T12:47:01.574Z</time></trkpt><trkpt lat="43.2973717" lon="10.7952517"><ele>169.0</ele><time>2026-04-18T12:47:02.574Z</time></trkpt><trkpt lat="43.2974983" lon="10.79526"><ele>166.0</ele><time>2026-04-18T12:47:03.575Z</time></trkpt><trkpt lat="43.2976233" lon="10.7952633"><ele>163.0</ele><time>2026-04-18T12:47:04.574Z</time></trkpt><trkpt lat="43.2977533" lon="10.7952583"><ele>160.0</ele><time>2026-04-18T12:47:05.574Z</time></trkpt><trkpt lat="43.297875" lon="10.79525"><ele>160.0</ele><time>2026-04-18T12:47:06.574Z</time></trkpt><trkpt lat="43.297985" lon="10.7952617"><ele>160.0</ele><time>2026-04-18T12:47:07.574Z</time></trkpt><trkpt lat="43.2980883" lon="10.7953017"><ele>160.0</ele><time>2026-04-18T12:47:08.575Z</time></trkpt><trkpt lat="43.2981767" lon="10.7953683"><ele>160.0</ele><time>2026-04-18T12:47:09.574Z</time></trkpt><trkpt lat="43.2982533" lon="10.79546"><ele>160.0</ele><time>2026-04-18T12:47:10.574Z</time></trkpt><trkpt lat="43.2984133" lon="10.7958183"><ele>160.4</ele><time>2026-04-18T12:47:13.574Z</time></trkpt><trkpt lat="43.298425" lon="10.7959583"><ele>160.8</ele><time>2026-04-18T12:47:14.574Z</time></trkpt><trkpt lat="43.298425" lon="10.7961067"><ele>161.2</ele><time>2026-04-18T12:47:15.574Z</time></trkpt><trkpt lat="43.2984233" lon="10.7962583"><ele>161.6</ele><time>2026-04-18T12:47:16.574Z</time></trkpt><trkpt lat="43.2984183" lon="10.7964033"><ele>162.0</ele><time>2026-04-18T12:47:17.574Z</time></trkpt><trkpt lat="43.2984133" lon="10.7965467"><ele>160.79999999999998</ele><time>2026-04-18T12:47:18.574Z</time></trkpt><trkpt lat="43.2984067" lon="10.796675"><ele>159.6</ele><time>2026-04-18T12:47:19.574Z</time></trkpt><trkpt lat="43.29841" lon="10.7967983"><ele>158.39999999999998</ele><time>2026-04-18T12:47:20.574Z</time></trkpt><trkpt lat="43.2984267" lon="10.7969117"><ele>157.2</ele><time>2026-04-18T12:47:21.574Z</time></trkpt><trkpt lat="43.2984617" lon="10.797025"><ele>156.0</ele><time>2026-04-18T12:47:22.575Z</time></trkpt><trkpt lat="43.298515" lon="10.79714"><ele>154.0</ele><time>2026-04-18T12:47:23.574Z</time></trkpt><trkpt lat="43.298585" lon="10.79726"><ele>152.0</ele><time>2026-04-18T12:47:24.574Z</time></trkpt><trkpt lat="43.298665" lon="10.7973717"><ele>150.0</ele><time>2026-04-18T12:47:25.575Z</time></trkpt><trkpt lat="43.2987367" lon="10.7974733"><ele>148.0</ele><time>2026-04-18T12:47:26.574Z</time></trkpt><trkpt lat="43.2987967" lon="10.7975783"><ele>146.0</ele><time>2026-04-18T12:47:27.574Z</time></trkpt><trkpt lat="43.298845" lon="10.7977067"><ele>147.4</ele><time>2026-04-18T12:47:28.574Z</time></trkpt><trkpt lat="43.2988783" lon="10.7978367"><ele>148.8</ele><time>2026-04-18T12:47:29.574Z</time></trkpt><trkpt lat="43.2988983" lon="10.7979683"><ele>150.20000000000002</ele><time>2026-04-18T12:47:30.574Z</time></trkpt><trkpt lat="43.2989183" lon="10.7980967"><ele>151.6</ele><time>2026-04-18T12:47:31.575Z</time></trkpt><trkpt lat="43.2989483" lon="10.7982167"><ele>153.0</ele><time>2026-04-18T12:47:32.574Z</time></trkpt><trkpt lat="43.29899" lon="10.7983317"><ele>153.0</ele><time>2026-04-18T12:47:33.574Z</time></trkpt><trkpt lat="43.29905" lon="10.7984567"><ele>153.0</ele><time>2026-04-18T12:47:34.574Z</time></trkpt><trkpt lat="43.29912" lon="10.7985783"><ele>153.0</ele><time>2026-04-18T12:47:35.574Z</time></trkpt><trkpt lat="43.2991833" lon="10.798705"><ele>153.0</ele><time>2026-04-18T12:47:36.574Z</time></trkpt><trkpt lat="43.29925" lon="10.7988367"><ele>151.6</ele><time>2026-04-18T12:47:37.574Z</time></trkpt><trkpt lat="43.2993067" lon="10.7989617"><ele>150.20000000000002</ele><time>2026-04-18T12:47:38.574Z</time></trkpt><trkpt lat="43.29936" lon="10.7990883"><ele>148.8</ele><time>2026-04-18T12:47:39.574Z</time></trkpt><trkpt lat="43.2994017" lon="10.7992167"><ele>147.4</ele><time>2026-04-18T12:47:40.574Z</time></trkpt><trkpt lat="43.2994183" lon="10.7993667"><ele>146.0</ele><time>2026-04-18T12:47:41.574Z</time></trkpt><trkpt lat="43.29943" lon="10.7995233"><ele>144.0</ele><time>2026-04-18T12:47:42.574Z</time></trkpt><trkpt lat="43.2994333" lon="10.7996767"><ele>142.0</ele><time>2026-04-18T12:47:43.574Z</time></trkpt><trkpt lat="43.2994533" lon="10.8001"><ele>140.0</ele><time>2026-04-18T12:47:46.575Z</time></trkpt><trkpt lat="43.29945" lon="10.8002317"><ele>139.66666666666666</ele><time>2026-04-18T12:47:47.574Z</time></trkpt><trkpt lat="43.2994267" lon="10.800345"><ele>139.33333333333331</ele><time>2026-04-18T12:47:48.574Z</time></trkpt><trkpt lat="43.299385" lon="10.8004417"><ele>139.0</ele><time>2026-04-18T12:47:49.574Z</time></trkpt><trkpt lat="43.299345" lon="10.8005333"><ele>138.66666666666666</ele><time>2026-04-18T12:47:50.574Z</time></trkpt><trkpt lat="43.2993117" lon="10.8006383"><ele>138.33333333333334</ele><time>2026-04-18T12:47:51.574Z</time></trkpt><trkpt lat="43.29931" lon="10.800745"><ele>138.0</ele><time>2026-04-18T12:47:52.574Z</time></trkpt><trkpt lat="43.2993317" lon="10.8008633"><ele>138.0</ele><time>2026-04-18T12:47:53.574Z</time></trkpt><trkpt lat="43.2993767" lon="10.8009767"><ele>138.0</ele><time>2026-04-18T12:47:54.574Z</time></trkpt><trkpt lat="43.2994533" lon="10.8010633"><ele>138.0</ele><time>2026-04-18T12:47:55.574Z</time></trkpt><trkpt lat="43.2995617" lon="10.8011367"><ele>138.0</ele><time>2026-04-18T12:47:56.574Z</time></trkpt><trkpt lat="43.2996833" lon="10.8012"><ele>138.0</ele><time>2026-04-18T12:47:57.574Z</time></trkpt><trkpt lat="43.299815" lon="10.8012433"><ele>139.5</ele><time>2026-04-18T12:47:58.574Z</time></trkpt><trkpt lat="43.2999483" lon="10.8012867"><ele>141.0</ele><time>2026-04-18T12:47:59.574Z</time></trkpt><trkpt lat="43.30007" lon="10.8013233"><ele>142.5</ele><time>2026-04-18T12:48:00.575Z</time></trkpt><trkpt lat="43.3001933" lon="10.8013383"><ele>144.0</ele><time>2026-04-18T12:48:01.574Z</time></trkpt><trkpt lat="43.3003067" lon="10.8013333"><ele>144.0</ele><time>2026-04-18T12:48:02.574Z</time></trkpt><trkpt lat="43.3004217" lon="10.801315"><ele>144.0</ele><time>2026-04-18T12:48:03.574Z</time></trkpt><trkpt lat="43.3005333" lon="10.8013133"><ele>144.0</ele><time>2026-04-18T12:48:04.574Z</time></trkpt><trkpt lat="43.3006383" lon="10.8013267"><ele>144.0</ele><time>2026-04-18T12:48:05.574Z</time></trkpt><trkpt lat="43.3007467" lon="10.8013783"><ele>144.0</ele><time>2026-04-18T12:48:06.574Z</time></trkpt><trkpt lat="43.30086" lon="10.8014617"><ele>143.75</ele><time>2026-04-18T12:48:07.574Z</time></trkpt><trkpt lat="43.3009667" lon="10.8015817"><ele>143.5</ele><time>2026-04-18T12:48:08.574Z</time></trkpt><trkpt lat="43.301085" lon="10.8017117"><ele>143.25</ele><time>2026-04-18T12:48:09.574Z</time></trkpt><trkpt lat="43.3012067" lon="10.8018333"><ele>143.0</ele><time>2026-04-18T12:48:10.573Z</time></trkpt><trkpt lat="43.30132" lon="10.8019533"><ele>142.25</ele><time>2026-04-18T12:48:11.573Z</time></trkpt><trkpt lat="43.3014417" lon="10.80207"><ele>141.5</ele><time>2026-04-18T12:48:12.573Z</time></trkpt><trkpt lat="43.3015617" lon="10.80219"><ele>140.75</ele><time>2026-04-18T12:48:13.573Z</time></trkpt><trkpt lat="43.30168" lon="10.8023033"><ele>140.0</ele><time>2026-04-18T12:48:14.574Z</time></trkpt><trkpt lat="43.3018017" lon="10.8024217"><ele>140.0</ele><time>2026-04-18T12:48:15.573Z</time></trkpt><trkpt lat="43.3019267" lon="10.8025317"><ele>140.0</ele><time>2026-04-18T12:48:16.573Z</time></trkpt><trkpt lat="43.30227" lon="10.8028383"><ele>138.5</ele><time>2026-04-18T12:48:19.573Z</time></trkpt><trkpt lat="43.3023783" lon="10.802905"><ele>137.0</ele><time>2026-04-18T12:48:20.573Z</time></trkpt><trkpt lat="43.3024867" lon="10.8029617"><ele>135.5</ele><time>2026-04-18T12:48:21.573Z</time></trkpt><trkpt lat="43.3026033" lon="10.802985"><ele>134.0</ele><time>2026-04-18T12:48:22.573Z</time></trkpt><trkpt lat="43.3027183" lon="10.802975"><ele>134.0</ele><time>2026-04-18T12:48:23.573Z</time></trkpt><trkpt lat="43.302835" lon="10.8029267"><ele>134.0</ele><time>2026-04-18T12:48:24.574Z</time></trkpt><trkpt lat="43.3029433" lon="10.802845"><ele>134.0</ele><time>2026-04-18T12:48:25.573Z</time></trkpt><trkpt lat="43.30304" lon="10.8027617"><ele>134.0</ele><time>2026-04-18T12:48:26.573Z</time></trkpt><trkpt lat="43.3031467" lon="10.8026967"><ele>133.6</ele><time>2026-04-18T12:48:27.573Z</time></trkpt><trkpt lat="43.30325" lon="10.802665"><ele>133.2</ele><time>2026-04-18T12:48:28.573Z</time></trkpt><trkpt lat="43.303355" lon="10.8026583"><ele>132.79999999999998</ele><time>2026-04-18T12:48:29.573Z</time></trkpt><trkpt lat="43.30345" lon="10.8026717"><ele>132.4</ele><time>2026-04-18T12:48:30.573Z</time></trkpt><trkpt lat="43.3035383" lon="10.8027183"><ele>132.0</ele><time>2026-04-18T12:48:31.573Z</time></trkpt><trkpt lat="43.30361" lon="10.8027917"><ele>131.5</ele><time>2026-04-18T12:48:32.574Z</time></trkpt><trkpt lat="43.3036567" lon="10.8028967"><ele>131.0</ele><time>2026-04-18T12:48:33.573Z</time></trkpt><trkpt lat="43.3036983" lon="10.8030317"><ele>130.5</ele><time>2026-04-18T12:48:34.574Z</time></trkpt><trkpt lat="43.3037283" lon="10.8031933"><ele>130.0</ele><time>2026-04-18T12:48:35.574Z</time></trkpt><trkpt lat="43.30376" lon="10.8033783"><ele>128.25</ele><time>2026-04-18T12:48:36.574Z</time></trkpt><trkpt lat="43.3037883" lon="10.8035633"><ele>126.5</ele><time>2026-04-18T12:48:37.573Z</time></trkpt><trkpt lat="43.303825" lon="10.8037467"><ele>124.75</ele><time>2026-04-18T12:48:38.573Z</time></trkpt><trkpt lat="43.3038667" lon="10.803935"><ele>123.0</ele><time>2026-04-18T12:48:39.573Z</time></trkpt><trkpt lat="43.3038983" lon="10.8041217"><ele>118.75</ele><time>2026-04-18T12:48:40.573Z</time></trkpt><trkpt lat="43.3039333" lon="10.8043117"><ele>114.5</ele><time>2026-04-18T12:48:41.573Z</time></trkpt><trkpt lat="43.3039683" lon="10.804505"><ele>110.25</ele><time>2026-04-18T12:48:42.574Z</time></trkpt><trkpt lat="43.3040067" lon="10.8046983"><ele>106.0</ele><time>2026-04-18T12:48:43.573Z</time></trkpt><trkpt lat="43.3040433" lon="10.8048767"><ele>105.25</ele><time>2026-04-18T12:48:44.573Z</time></trkpt><trkpt lat="43.304075" lon="10.8050567"><ele>104.5</ele><time>2026-04-18T12:48:45.574Z</time></trkpt><trkpt lat="43.3040933" lon="10.8052367"><ele>103.75</ele><time>2026-04-18T12:48:46.574Z</time></trkpt><trkpt lat="43.3041067" lon="10.8054117"><ele>103.0</ele><time>2026-04-18T12:48:47.573Z</time></trkpt><trkpt lat="43.3041067" lon="10.805585"><ele>101.5</ele><time>2026-04-18T12:48:48.573Z</time></trkpt><trkpt lat="43.3040867" lon="10.8057583"><ele>100.0</ele><time>2026-04-18T12:48:49.573Z</time></trkpt><trkpt lat="43.3039267" lon="10.8061917"><ele>100.0</ele><time>2026-04-18T12:48:52.573Z</time></trkpt><trkpt lat="43.3038267" lon="10.8063233"><ele>100.0</ele><time>2026-04-18T12:48:53.573Z</time></trkpt><trkpt lat="43.303725" lon="10.8064567"><ele>100.0</ele><time>2026-04-18T12:48:54.573Z</time></trkpt><trkpt lat="43.3036233" lon="10.8065983"><ele>100.0</ele><time>2026-04-18T12:48:55.573Z</time></trkpt><trkpt lat="43.303525" lon="10.80674"><ele>99.75</ele><time>2026-04-18T12:48:56.573Z</time></trkpt><trkpt lat="43.3034267" lon="10.8068783"><ele>99.5</ele><time>2026-04-18T12:48:57.574Z</time></trkpt><trkpt lat="43.3033317" lon="10.80701"><ele>99.25</ele><time>2026-04-18T12:48:58.573Z</time></trkpt><trkpt lat="43.3032383" lon="10.8071433"><ele>99.0</ele><time>2026-04-18T12:48:59.573Z</time></trkpt><trkpt lat="43.3031483" lon="10.8072667"><ele>99.75</ele><time>2026-04-18T12:49:00.573Z</time></trkpt><trkpt lat="43.3030583" lon="10.8073917"><ele>100.5</ele><time>2026-04-18T12:49:01.573Z</time></trkpt><trkpt lat="43.3029633" lon="10.8075217"><ele>101.25</ele><time>2026-04-18T12:49:02.573Z</time></trkpt><trkpt lat="43.3028733" lon="10.8076583"><ele>102.0</ele><time>2026-04-18T12:49:03.573Z</time></trkpt><trkpt lat="43.3028017" lon="10.807805"><ele>102.0</ele><time>2026-04-18T12:49:04.573Z</time></trkpt><trkpt lat="43.30274" lon="10.807975"><ele>102.0</ele><time>2026-04-18T12:49:05.573Z</time></trkpt><trkpt lat="43.3026667" lon="10.8081417"><ele>102.0</ele><time>2026-04-18T12:49:06.573Z</time></trkpt><trkpt lat="43.3025983" lon="10.8083367"><ele>102.0</ele><time>2026-04-18T12:49:07.574Z</time></trkpt><trkpt lat="43.3025367" lon="10.808525"><ele>102.0</ele><time>2026-04-18T12:49:08.573Z</time></trkpt><trkpt lat="43.3024683" lon="10.80872"><ele>102.0</ele><time>2026-04-18T12:49:09.573Z</time></trkpt><trkpt lat="43.30242" lon="10.8088933"><ele>102.0</ele><time>2026-04-18T12:49:10.573Z</time></trkpt><trkpt lat="43.3023683" lon="10.809015"><ele>102.0</ele><time>2026-04-18T12:49:11.574Z</time></trkpt><trkpt lat="43.302325" lon="10.8091067"><ele>103.16666666666667</ele><time>2026-04-18T12:49:12.573Z</time></trkpt><trkpt lat="43.3022433" lon="10.8092033"><ele>104.33333333333334</ele><time>2026-04-18T12:49:14.573Z</time></trkpt><trkpt lat="43.3021617" lon="10.8092133"><ele>105.5</ele><time>2026-04-18T12:49:17.573Z</time></trkpt><trkpt lat="43.302085" lon="10.80916"><ele>106.66666666666667</ele><time>2026-04-18T12:49:19.573Z</time></trkpt><trkpt lat="43.3020333" lon="10.8090883"><ele>107.83333333333334</ele><time>2026-04-18T12:49:20.574Z</time></trkpt><trkpt lat="43.3019683" lon="10.809"><ele>109.0</ele><time>2026-04-18T12:49:21.573Z</time></trkpt><trkpt lat="43.301895" lon="10.8088983"><ele>109.0</ele><time>2026-04-18T12:49:22.573Z</time></trkpt><trkpt lat="43.3016083" lon="10.8085767"><ele>109.0</ele><time>2026-04-18T12:49:25.573Z</time></trkpt><trkpt lat="43.3015217" lon="10.8084817"><ele>108.2</ele><time>2026-04-18T12:49:26.573Z</time></trkpt><trkpt lat="43.3014433" lon="10.8083983"><ele>107.4</ele><time>2026-04-18T12:49:27.573Z</time></trkpt><trkpt lat="43.3013767" lon="10.808325"><ele>106.6</ele><time>2026-04-18T12:49:28.573Z</time></trkpt><trkpt lat="43.3013117" lon="10.8082817"><ele>105.8</ele><time>2026-04-18T12:49:29.573Z</time></trkpt><trkpt lat="43.3012083" lon="10.8082767"><ele>105.0</ele><time>2026-04-18T12:49:31.573Z</time></trkpt><trkpt lat="43.3011617" lon="10.8083867"><ele>106.33333333333333</ele><time>2026-04-18T12:49:33.573Z</time></trkpt><trkpt lat="43.3011783" lon="10.8084833"><ele>107.66666666666666</ele><time>2026-04-18T12:49:34.573Z</time></trkpt><trkpt lat="43.30121" lon="10.80859"><ele>109.0</ele><time>2026-04-18T12:49:35.573Z</time></trkpt><trkpt lat="43.301235" lon="10.8087083"><ele>110.33333333333333</ele><time>2026-04-18T12:49:36.573Z</time></trkpt><trkpt lat="43.301235" lon="10.8088217"><ele>111.66666666666666</ele><time>2026-04-18T12:49:37.573Z</time></trkpt><trkpt lat="43.30123" lon="10.808915"><ele>113.0</ele><time>2026-04-18T12:49:38.574Z</time></trkpt><trkpt lat="43.3012" lon="10.8090067"><ele>113.80000000000001</ele><time>2026-04-18T12:49:39.574Z</time></trkpt><trkpt lat="43.3011417" lon="10.8090983"><ele>114.60000000000001</ele><time>2026-04-18T12:49:40.573Z</time></trkpt><trkpt lat="43.301065" lon="10.8091917"><ele>115.39999999999999</ele><time>2026-04-18T12:49:41.573Z</time></trkpt><trkpt lat="43.3009667" lon="10.80928"><ele>116.19999999999999</ele><time>2026-04-18T12:49:42.573Z</time></trkpt><trkpt lat="43.3008583" lon="10.80939"><ele>117.0</ele><time>2026-04-18T12:49:43.573Z</time></trkpt><trkpt lat="43.3007517" lon="10.8095017"><ele>117.0</ele><time>2026-04-18T12:49:44.573Z</time></trkpt><trkpt lat="43.30066" lon="10.8096133"><ele>117.0</ele><time>2026-04-18T12:49:45.574Z</time></trkpt><trkpt lat="43.3005833" lon="10.8097233"><ele>117.0</ele><time>2026-04-18T12:49:46.573Z</time></trkpt><trkpt lat="43.3005217" lon="10.8098567"><ele>117.0</ele><time>2026-04-18T12:49:47.573Z</time></trkpt><trkpt lat="43.3004767" lon="10.81002"><ele>120.6</ele><time>2026-04-18T12:49:48.573Z</time></trkpt><trkpt lat="43.30045" lon="10.810185"><ele>124.19999999999999</ele><time>2026-04-18T12:49:49.573Z</time></trkpt><trkpt lat="43.3004517" lon="10.8103617"><ele>127.8</ele><time>2026-04-18T12:49:50.573Z</time></trkpt><trkpt lat="43.30045" lon="10.81052"><ele>131.4</ele><time>2026-04-18T12:49:51.573Z</time></trkpt><trkpt lat="43.3004367" lon="10.8106317"><ele>135.0</ele><time>2026-04-18T12:49:52.573Z</time></trkpt><trkpt lat="43.3004133" lon="10.8107167"><ele>135.0</ele><time>2026-04-18T12:49:53.573Z</time></trkpt><trkpt lat="43.30032" lon="10.8107883"><ele>135.0</ele><time>2026-04-18T12:49:55.574Z</time></trkpt><trkpt lat="43.3001283" lon="10.8105817"><ele>135.0</ele><time>2026-04-18T12:49:58.574Z</time></trkpt><trkpt lat="43.300065" lon="10.8104083"><ele>135.0</ele><time>2026-04-18T12:49:59.573Z</time></trkpt><trkpt lat="43.29999" lon="10.810205"><ele>135.0</ele><time>2026-04-18T12:50:00.573Z</time></trkpt><trkpt lat="43.29992" lon="10.8100233"><ele>135.0</ele><time>2026-04-18T12:50:01.573Z</time></trkpt><trkpt lat="43.2998483" lon="10.8098567"><ele>135.2</ele><time>2026-04-18T12:50:02.574Z</time></trkpt><trkpt lat="43.2997783" lon="10.8096917"><ele>135.4</ele><time>2026-04-18T12:50:03.573Z</time></trkpt><trkpt lat="43.2997317" lon="10.8095517"><ele>135.6</ele><time>2026-04-18T12:50:04.573Z</time></trkpt><trkpt lat="43.2996833" lon="10.80944"><ele>135.8</ele><time>2026-04-18T12:50:05.573Z</time></trkpt><trkpt lat="43.2996283" lon="10.8093517"><ele>136.0</ele><time>2026-04-18T12:50:06.573Z</time></trkpt><trkpt lat="43.299555" lon="10.8092967"><ele>136.0</ele><time>2026-04-18T12:50:07.573Z</time></trkpt><trkpt lat="43.299455" lon="10.8092733"><ele>136.0</ele><time>2026-04-18T12:50:08.573Z</time></trkpt><trkpt lat="43.2993333" lon="10.8092917"><ele>136.0</ele><time>2026-04-18T12:50:09.573Z</time></trkpt><trkpt lat="43.2992067" lon="10.80934"><ele>136.0</ele><time>2026-04-18T12:50:10.573Z</time></trkpt><trkpt lat="43.2990617" lon="10.8094067"><ele>138.33333333333334</ele><time>2026-04-18T12:50:11.574Z</time></trkpt><trkpt lat="43.2989033" lon="10.809465"><ele>140.66666666666666</ele><time>2026-04-18T12:50:12.573Z</time></trkpt><trkpt lat="43.2987367" lon="10.809525"><ele>143.0</ele><time>2026-04-18T12:50:13.573Z</time></trkpt><trkpt lat="43.2985717" lon="10.8095933"><ele>143.0</ele><time>2026-04-18T12:50:14.574Z</time></trkpt><trkpt lat="43.2984033" lon="10.8096717"><ele>143.0</ele><time>2026-04-18T12:50:15.573Z</time></trkpt><trkpt lat="43.298235" lon="10.809755"><ele>143.0</ele><time>2026-04-18T12:50:16.573Z</time></trkpt><trkpt lat="43.2980583" lon="10.80985"><ele>142.66666666666666</ele><time>2026-04-18T12:50:17.574Z</time></trkpt><trkpt lat="43.297875" lon="10.8099417"><ele>142.33333333333334</ele><time>2026-04-18T12:50:18.573Z</time></trkpt><trkpt lat="43.2976817" lon="10.810035"><ele>142.0</ele><time>2026-04-18T12:50:19.574Z</time></trkpt><trkpt lat="43.297485" lon="10.8101383"><ele>143.33333333333334</ele><time>2026-04-18T12:50:20.573Z</time></trkpt><trkpt lat="43.2972933" lon="10.8102433"><ele>144.66666666666666</ele><time>2026-04-18T12:50:21.573Z</time></trkpt><trkpt lat="43.297085" lon="10.8103433"><ele>146.0</ele><time>2026-04-18T12:50:22.573Z</time></trkpt><trkpt lat="43.2968767" lon="10.8104533"><ele>147.0</ele><time>2026-04-18T12:50:23.573Z</time></trkpt><trkpt lat="43.2966783" lon="10.810555"><ele>148.0</ele><time>2026-04-18T12:50:24.573Z</time></trkpt><trkpt lat="43.2965033" lon="10.810655"><ele>149.0</ele><time>2026-04-18T12:50:25.573Z</time></trkpt><trkpt lat="43.2963317" lon="10.8107517"><ele>149.0</ele><time>2026-04-18T12:50:26.573Z</time></trkpt><trkpt lat="43.2961717" lon="10.8108383"><ele>149.0</ele><time>2026-04-18T12:50:27.573Z</time></trkpt><trkpt lat="43.2960083" lon="10.81091"><ele>149.0</ele><time>2026-04-18T12:50:28.573Z</time></trkpt><trkpt lat="43.2954767" lon="10.81098"><ele>149.66666666666666</ele><time>2026-04-18T12:50:31.573Z</time></trkpt><trkpt lat="43.2952867" lon="10.8109717"><ele>150.33333333333334</ele><time>2026-04-18T12:50:32.573Z</time></trkpt><trkpt lat="43.2950967" lon="10.8109583"><ele>151.0</ele><time>2026-04-18T12:50:33.573Z</time></trkpt><trkpt lat="43.2949267" lon="10.81094"><ele>151.0</ele><time>2026-04-18T12:50:34.573Z</time></trkpt><trkpt lat="43.2947683" lon="10.8109283"><ele>151.0</ele><time>2026-04-18T12:50:35.573Z</time></trkpt><trkpt lat="43.29463" lon="10.810915"><ele>151.0</ele><time>2026-04-18T12:50:36.573Z</time></trkpt><trkpt lat="43.2945" lon="10.810905"><ele>151.0</ele><time>2026-04-18T12:50:37.573Z</time></trkpt><trkpt lat="43.29437" lon="10.8109083"><ele>151.0</ele><time>2026-04-18T12:50:38.573Z</time></trkpt><trkpt lat="43.2942433" lon="10.8109317"><ele>151.0</ele><time>2026-04-18T12:50:39.573Z</time></trkpt><trkpt lat="43.294115" lon="10.810995"><ele>151.0</ele><time>2026-04-18T12:50:40.573Z</time></trkpt><trkpt lat="43.294005" lon="10.8110867"><ele>151.0</ele><time>2026-04-18T12:50:41.573Z</time></trkpt><trkpt lat="43.293915" lon="10.8111817"><ele>152.6</ele><time>2026-04-18T12:50:42.573Z</time></trkpt><trkpt lat="43.2938183" lon="10.8112633"><ele>154.2</ele><time>2026-04-18T12:50:43.573Z</time></trkpt><trkpt lat="43.29372" lon="10.8112967"><ele>155.8</ele><time>2026-04-18T12:50:44.573Z</time></trkpt><trkpt lat="43.29362" lon="10.8112717"><ele>157.4</ele><time>2026-04-18T12:50:45.573Z</time></trkpt><trkpt lat="43.2935183" lon="10.81121"><ele>159.0</ele><time>2026-04-18T12:50:46.573Z</time></trkpt><trkpt lat="43.293395" lon="10.8111283"><ele>159.0</ele><time>2026-04-18T12:50:47.573Z</time></trkpt><trkpt lat="43.29327" lon="10.8110533"><ele>159.0</ele><time>2026-04-18T12:50:48.573Z</time></trkpt><trkpt lat="43.2931383" lon="10.8109967"><ele>159.0</ele><time>2026-04-18T12:50:49.573Z</time></trkpt><trkpt lat="43.2930167" lon="10.810945"><ele>159.0</ele><time>2026-04-18T12:50:50.573Z</time></trkpt><trkpt lat="43.29291" lon="10.8109033"><ele>161.2</ele><time>2026-04-18T12:50:51.573Z</time></trkpt><trkpt lat="43.2928067" lon="10.8108617"><ele>163.4</ele><time>2026-04-18T12:50:52.573Z</time></trkpt><trkpt lat="43.2926983" lon="10.810815"><ele>165.6</ele><time>2026-04-18T12:50:53.573Z</time></trkpt><trkpt lat="43.2925917" lon="10.8107767"><ele>167.8</ele><time>2026-04-18T12:50:54.573Z</time></trkpt><trkpt lat="43.2924817" lon="10.8107533"><ele>170.0</ele><time>2026-04-18T12:50:55.573Z</time></trkpt><trkpt lat="43.2923633" lon="10.81074"><ele>172.0</ele><time>2026-04-18T12:50:56.573Z</time></trkpt><trkpt lat="43.29224" lon="10.8107317"><ele>174.0</ele><time>2026-04-18T12:50:57.573Z</time></trkpt><trkpt lat="43.2921233" lon="10.810745"><ele>176.0</ele><time>2026-04-18T12:50:58.573Z</time></trkpt><trkpt lat="43.292015" lon="10.8107467"><ele>178.0</ele><time>2026-04-18T12:50:59.573Z</time></trkpt><trkpt lat="43.2919267" lon="10.8107433"><ele>180.0</ele><time>2026-04-18T12:51:00.573Z</time></trkpt><trkpt lat="43.2918517" lon="10.8107183"><ele>180.0</ele><time>2026-04-18T12:51:01.573Z</time></trkpt><trkpt lat="43.2916333" lon="10.8105917"><ele>180.0</ele><time>2026-04-18T12:51:04.573Z</time></trkpt><trkpt lat="43.2915717" lon="10.8105133"><ele>180.0</ele><time>2026-04-18T12:51:05.573Z</time></trkpt><trkpt lat="43.2915133" lon="10.8104183"><ele>180.0</ele><time>2026-04-18T12:51:06.573Z</time></trkpt><trkpt lat="43.291455" lon="10.8102967"><ele>182.0</ele><time>2026-04-18T12:51:07.573Z</time></trkpt><trkpt lat="43.2913967" lon="10.8101667"><ele>184.0</ele><time>2026-04-18T12:51:08.573Z</time></trkpt><trkpt lat="43.2913317" lon="10.810035"><ele>186.0</ele><time>2026-04-18T12:51:09.573Z</time></trkpt><trkpt lat="43.2912667" lon="10.8099317"><ele>188.0</ele><time>2026-04-18T12:51:10.573Z</time></trkpt><trkpt lat="43.29121" lon="10.809835"><ele>190.0</ele><time>2026-04-18T12:51:11.573Z</time></trkpt><trkpt lat="43.2911667" lon="10.8097433"><ele>190.0</ele><time>2026-04-18T12:51:12.573Z</time></trkpt><trkpt lat="43.2911317" lon="10.8096433"><ele>190.0</ele><time>2026-04-18T12:51:13.573Z</time></trkpt><trkpt lat="43.291115" lon="10.809535"><ele>190.0</ele><time>2026-04-18T12:51:14.573Z</time></trkpt><trkpt lat="43.2911017" lon="10.809425"><ele>190.0</ele><time>2026-04-18T12:51:15.573Z</time></trkpt><trkpt lat="43.2910867" lon="10.8093133"><ele>190.0</ele><time>2026-04-18T12:51:16.573Z</time></trkpt><trkpt lat="43.2910783" lon="10.8092067"><ele>190.0</ele><time>2026-04-18T12:51:17.573Z</time></trkpt><trkpt lat="43.2910817" lon="10.8091083"><ele>190.16666666666669</ele><time>2026-04-18T12:51:18.573Z</time></trkpt><trkpt lat="43.2910933" lon="10.8090117"><ele>190.33333333333334</ele><time>2026-04-18T12:51:19.572Z</time></trkpt><trkpt lat="43.2911167" lon="10.808905"><ele>190.5</ele><time>2026-04-18T12:51:20.572Z</time></trkpt><trkpt lat="43.291145" lon="10.8087967"><ele>190.66666666666666</ele><time>2026-04-18T12:51:21.573Z</time></trkpt><trkpt lat="43.2911833" lon="10.8086783"><ele>190.83333333333331</ele><time>2026-04-18T12:51:22.572Z</time></trkpt><trkpt lat="43.2912383" lon="10.8085667"><ele>191.0</ele><time>2026-04-18T12:51:23.572Z</time></trkpt><trkpt lat="43.2912933" lon="10.80848"><ele>191.83333333333331</ele><time>2026-04-18T12:51:24.572Z</time></trkpt><trkpt lat="43.2913317" lon="10.80839"><ele>192.66666666666666</ele><time>2026-04-18T12:51:25.572Z</time></trkpt><trkpt lat="43.29136" lon="10.8082917"><ele>193.5</ele><time>2026-04-18T12:51:26.572Z</time></trkpt><trkpt lat="43.2913617" lon="10.80819"><ele>194.33333333333331</ele><time>2026-04-18T12:51:27.572Z</time></trkpt><trkpt lat="43.29134" lon="10.8080783"><ele>195.16666666666666</ele><time>2026-04-18T12:51:28.573Z</time></trkpt><trkpt lat="43.291305" lon="10.807955"><ele>196.0</ele><time>2026-04-18T12:51:29.572Z</time></trkpt><trkpt lat="43.2912683" lon="10.8078167"><ele>196.0</ele><time>2026-04-18T12:51:30.573Z</time></trkpt><trkpt lat="43.2912367" lon="10.8076617"><ele>196.0</ele><time>2026-04-18T12:51:31.572Z</time></trkpt><trkpt lat="43.291205" lon="10.807485"><ele>196.0</ele><time>2026-04-18T12:51:32.572Z</time></trkpt><trkpt lat="43.2911733" lon="10.8072967"><ele>196.0</ele><time>2026-04-18T12:51:33.572Z</time></trkpt><trkpt lat="43.2911433" lon="10.8071083"><ele>196.66666666666666</ele><time>2026-04-18T12:51:34.573Z</time></trkpt><trkpt lat="43.291035" lon="10.8067"><ele>197.33333333333331</ele><time>2026-04-18T12:51:37.572Z</time></trkpt><trkpt lat="43.2909733" lon="10.8066"><ele>198.0</ele><time>2026-04-18T12:51:38.573Z</time></trkpt><trkpt lat="43.2909067" lon="10.8065167"><ele>198.0</ele><time>2026-04-18T12:51:39.572Z</time></trkpt><trkpt lat="43.2908433" lon="10.806465"><ele>198.0</ele><time>2026-04-18T12:51:40.572Z</time></trkpt><trkpt lat="43.290735" lon="10.8064533"><ele>198.0</ele><time>2026-04-18T12:51:42.572Z</time></trkpt><trkpt lat="43.2906667" lon="10.8065867"><ele>198.0</ele><time>2026-04-18T12:51:44.572Z</time></trkpt><trkpt lat="43.290665" lon="10.8066933"><ele>198.0</ele><time>2026-04-18T12:51:45.572Z</time></trkpt><trkpt lat="43.290675" lon="10.8068117"><ele>198.5</ele><time>2026-04-18T12:51:46.572Z</time></trkpt><trkpt lat="43.290685" lon="10.80696"><ele>199.0</ele><time>2026-04-18T12:51:47.572Z</time></trkpt><trkpt lat="43.2906783" lon="10.807145"><ele>199.5</ele><time>2026-04-18T12:51:48.572Z</time></trkpt><trkpt lat="43.2906583" lon="10.80734"><ele>200.0</ele><time>2026-04-18T12:51:49.573Z</time></trkpt><trkpt lat="43.290635" lon="10.807525"><ele>199.2</ele><time>2026-04-18T12:51:50.572Z</time></trkpt><trkpt lat="43.2906083" lon="10.8076917"><ele>198.4</ele><time>2026-04-18T12:51:51.572Z</time></trkpt><trkpt lat="43.29058" lon="10.8078417"><ele>197.60000000000002</ele><time>2026-04-18T12:51:52.573Z</time></trkpt><trkpt lat="43.290535" lon="10.80798"><ele>196.8</ele><time>2026-04-18T12:51:53.572Z</time></trkpt><trkpt lat="43.29049" lon="10.8081033"><ele>196.0</ele><time>2026-04-18T12:51:54.573Z</time></trkpt><trkpt lat="43.2904233" lon="10.808215"><ele>199.4</ele><time>2026-04-18T12:51:55.572Z</time></trkpt><trkpt lat="43.2903383" lon="10.80832"><ele>202.8</ele><time>2026-04-18T12:51:56.572Z</time></trkpt><trkpt lat="43.290255" lon="10.808425"><ele>206.20000000000002</ele><time>2026-04-18T12:51:57.572Z</time></trkpt><trkpt lat="43.2901817" lon="10.8085317"><ele>209.60000000000002</ele><time>2026-04-18T12:51:58.572Z</time></trkpt><trkpt lat="43.290125" lon="10.8086417"><ele>213.0</ele><time>2026-04-18T12:51:59.572Z</time></trkpt><trkpt lat="43.2900833" lon="10.8087633"><ele>213.0</ele><time>2026-04-18T12:52:00.572Z</time></trkpt><trkpt lat="43.2900467" lon="10.8089"><ele>213.0</ele><time>2026-04-18T12:52:01.572Z</time></trkpt><trkpt lat="43.2900233" lon="10.8090517"><ele>213.0</ele><time>2026-04-18T12:52:02.572Z</time></trkpt><trkpt lat="43.2900117" lon="10.809195"><ele>213.0</ele><time>2026-04-18T12:52:03.572Z</time></trkpt><trkpt lat="43.2899883" lon="10.809315"><ele>213.0</ele><time>2026-04-18T12:52:04.572Z</time></trkpt><trkpt lat="43.2899467" lon="10.809415"><ele>211.66666666666669</ele><time>2026-04-18T12:52:05.572Z</time></trkpt><trkpt lat="43.2898983" lon="10.8094983"><ele>210.33333333333334</ele><time>2026-04-18T12:52:06.572Z</time></trkpt><trkpt lat="43.2898233" lon="10.80957"><ele>209.0</ele><time>2026-04-18T12:52:07.572Z</time></trkpt><trkpt lat="43.2895467" lon="10.8098017"><ele>212.6</ele><time>2026-04-18T12:52:10.572Z</time></trkpt><trkpt lat="43.289465" lon="10.8099283"><ele>216.2</ele><time>2026-04-18T12:52:11.572Z</time></trkpt><trkpt lat="43.2893933" lon="10.8100583"><ele>219.79999999999998</ele><time>2026-04-18T12:52:12.572Z</time></trkpt><trkpt lat="43.2893433" lon="10.81019"><ele>223.39999999999998</ele><time>2026-04-18T12:52:13.573Z</time></trkpt><trkpt lat="43.2893217" lon="10.810315"><ele>227.0</ele><time>2026-04-18T12:52:14.573Z</time></trkpt><trkpt lat="43.2893333" lon="10.8104467"><ele>227.0</ele><time>2026-04-18T12:52:15.572Z</time></trkpt><trkpt lat="43.2893617" lon="10.8105633"><ele>227.0</ele><time>2026-04-18T12:52:16.572Z</time></trkpt><trkpt lat="43.2893867" lon="10.8106833"><ele>227.0</ele><time>2026-04-18T12:52:17.572Z</time></trkpt><trkpt lat="43.2893933" lon="10.8108117"><ele>227.0</ele><time>2026-04-18T12:52:18.572Z</time></trkpt><trkpt lat="43.289365" lon="10.8109567"><ele>227.0</ele><time>2026-04-18T12:52:19.572Z</time></trkpt><trkpt lat="43.2893183" lon="10.81111"><ele>226.75</ele><time>2026-04-18T12:52:20.572Z</time></trkpt><trkpt lat="43.28925" lon="10.811275"><ele>226.5</ele><time>2026-04-18T12:52:21.572Z</time></trkpt><trkpt lat="43.28918" lon="10.8114467"><ele>226.25</ele><time>2026-04-18T12:52:22.572Z</time></trkpt><trkpt lat="43.2891183" lon="10.81158"><ele>226.0</ele><time>2026-04-18T12:52:23.572Z</time></trkpt><trkpt lat="43.2890717" lon="10.811675"><ele>225.99999999999997</ele><time>2026-04-18T12:52:24.572Z</time></trkpt><trkpt lat="43.2890217" lon="10.8117367"><ele>226.0</ele><time>2026-04-18T12:52:25.572Z</time></trkpt><trkpt lat="43.28892" lon="10.8117483"><ele>226.0</ele><time>2026-04-18T12:52:27.572Z</time></trkpt><trkpt lat="43.2888583" lon="10.8116383"><ele>226.0</ele><time>2026-04-18T12:52:29.572Z</time></trkpt><trkpt lat="43.2888683" lon="10.8115467"><ele>225.99999999999997</ele><time>2026-04-18T12:52:30.572Z</time></trkpt><trkpt lat="43.288895" lon="10.8114317"><ele>226.0</ele><time>2026-04-18T12:52:31.572Z</time></trkpt><trkpt lat="43.2889167" lon="10.811295"><ele>228.75</ele><time>2026-04-18T12:52:32.572Z</time></trkpt><trkpt lat="43.2889217" lon="10.8111467"><ele>231.5</ele><time>2026-04-18T12:52:33.572Z</time></trkpt><trkpt lat="43.2889117" lon="10.8109933"><ele>234.25</ele><time>2026-04-18T12:52:34.572Z</time></trkpt><trkpt lat="43.288885" lon="10.8108383"><ele>237.0</ele><time>2026-04-18T12:52:35.573Z</time></trkpt><trkpt lat="43.28885" lon="10.810675"><ele>238.25</ele><time>2026-04-18T12:52:36.572Z</time></trkpt><trkpt lat="43.288805" lon="10.8105033"><ele>239.5</ele><time>2026-04-18T12:52:37.572Z</time></trkpt><trkpt lat="43.2887633" lon="10.8103483"><ele>240.75</ele><time>2026-04-18T12:52:38.572Z</time></trkpt><trkpt lat="43.2887367" lon="10.8101917"><ele>242.0</ele><time>2026-04-18T12:52:39.573Z</time></trkpt><trkpt lat="43.28872" lon="10.8100333"><ele>244.5</ele><time>2026-04-18T12:52:40.573Z</time></trkpt><trkpt lat="43.2887633" lon="10.80954"><ele>247.0</ele><time>2026-04-18T12:52:43.572Z</time></trkpt><trkpt lat="43.28878" lon="10.809385"><ele>247.83333333333331</ele><time>2026-04-18T12:52:44.572Z</time></trkpt><trkpt lat="43.28879" lon="10.8092483"><ele>248.66666666666666</ele><time>2026-04-18T12:52:45.572Z</time></trkpt><trkpt lat="43.2887717" lon="10.8091467"><ele>249.5</ele><time>2026-04-18T12:52:46.572Z</time></trkpt><trkpt lat="43.288745" lon="10.8090583"><ele>250.33333333333331</ele><time>2026-04-18T12:52:47.572Z</time></trkpt><trkpt lat="43.2886767" lon="10.8089783"><ele>251.16666666666666</ele><time>2026-04-18T12:52:49.572Z</time></trkpt><trkpt lat="43.2886117" lon="10.8089933"><ele>252.0</ele><time>2026-04-18T12:52:51.572Z</time></trkpt><trkpt lat="43.2885417" lon="10.8091667"><ele>252.0</ele><time>2026-04-18T12:52:53.573Z</time></trkpt><trkpt lat="43.28851" lon="10.8093183"><ele>252.0</ele><time>2026-04-18T12:52:54.572Z</time></trkpt><trkpt lat="43.2884667" lon="10.8094867"><ele>252.0</ele><time>2026-04-18T12:52:55.572Z</time></trkpt><trkpt lat="43.28842" lon="10.8096717"><ele>252.0</ele><time>2026-04-18T12:52:56.572Z</time></trkpt><trkpt lat="43.2883733" lon="10.8098617"><ele>250.33333333333331</ele><time>2026-04-18T12:52:57.572Z</time></trkpt><trkpt lat="43.2883383" lon="10.810065"><ele>248.66666666666666</ele><time>2026-04-18T12:52:58.572Z</time></trkpt><trkpt lat="43.2883217" lon="10.8102833"><ele>247.0</ele><time>2026-04-18T12:52:59.573Z</time></trkpt><trkpt lat="43.2883117" lon="10.810485"><ele>245.75</ele><time>2026-04-18T12:53:00.572Z</time></trkpt><trkpt lat="43.2882917" lon="10.8106683"><ele>244.5</ele><time>2026-04-18T12:53:01.573Z</time></trkpt><trkpt lat="43.2882717" lon="10.8108283"><ele>243.25</ele><time>2026-04-18T12:53:02.572Z</time></trkpt><trkpt lat="43.2882483" lon="10.81097"><ele>242.0</ele><time>2026-04-18T12:53:03.572Z</time></trkpt><trkpt lat="43.2882067" lon="10.8110867"><ele>240.75</ele><time>2026-04-18T12:53:04.572Z</time></trkpt><trkpt lat="43.2881483" lon="10.811205"><ele>239.5</ele><time>2026-04-18T12:53:05.572Z</time></trkpt><trkpt lat="43.28807" lon="10.8113133"><ele>238.25</ele><time>2026-04-18T12:53:06.572Z</time></trkpt><trkpt lat="43.2879767" lon="10.8114133"><ele>237.0</ele><time>2026-04-18T12:53:07.572Z</time></trkpt><trkpt lat="43.2878683" lon="10.8115083"><ele>240.25</ele><time>2026-04-18T12:53:08.572Z</time></trkpt><trkpt lat="43.2877667" lon="10.8116"><ele>243.5</ele><time>2026-04-18T12:53:09.572Z</time></trkpt><trkpt lat="43.287665" lon="10.811675"><ele>246.75</ele><time>2026-04-18T12:53:10.572Z</time></trkpt><trkpt lat="43.287565" lon="10.8117233"><ele>250.0</ele><time>2026-04-18T12:53:11.572Z</time></trkpt><trkpt lat="43.2874517" lon="10.811755"><ele>250.0</ele><time>2026-04-18T12:53:12.572Z</time></trkpt><trkpt lat="43.2873417" lon="10.8118"><ele>250.0</ele><time>2026-04-18T12:53:13.572Z</time></trkpt><trkpt lat="43.287065" lon="10.8119817"><ele>250.0</ele><time>2026-04-18T12:53:16.573Z</time></trkpt><trkpt lat="43.286995" lon="10.8120567"><ele>252.8</ele><time>2026-04-18T12:53:17.572Z</time></trkpt><trkpt lat="43.2869383" lon="10.8121567"><ele>255.6</ele><time>2026-04-18T12:53:18.572Z</time></trkpt><trkpt lat="43.28689" lon="10.81226"><ele>258.4</ele><time>2026-04-18T12:53:19.572Z</time></trkpt><trkpt lat="43.2868633" lon="10.8123717"><ele>261.2</ele><time>2026-04-18T12:53:20.573Z</time></trkpt><trkpt lat="43.286845" lon="10.8125033"><ele>264.0</ele><time>2026-04-18T12:53:21.572Z</time></trkpt><trkpt lat="43.2868767" lon="10.8126517"><ele>263.4</ele><time>2026-04-18T12:53:22.572Z</time></trkpt><trkpt lat="43.2869267" lon="10.8128083"><ele>262.79999999999995</ele><time>2026-04-18T12:53:23.572Z</time></trkpt><trkpt lat="43.2869733" lon="10.8129567"><ele>262.20000000000005</ele><time>2026-04-18T12:53:24.573Z</time></trkpt><trkpt lat="43.2870083" lon="10.8130817"><ele>261.6</ele><time>2026-04-18T12:53:25.572Z</time></trkpt><trkpt lat="43.2870283" lon="10.8131933"><ele>261.0</ele><time>2026-04-18T12:53:26.572Z</time></trkpt><trkpt lat="43.2870167" lon="10.8132967"><ele>261.0</ele><time>2026-04-18T12:53:27.572Z</time></trkpt><trkpt lat="43.2869767" lon="10.813395"><ele>261.0</ele><time>2026-04-18T12:53:28.572Z</time></trkpt><trkpt lat="43.2869133" lon="10.8134883"><ele>261.0</ele><time>2026-04-18T12:53:29.573Z</time></trkpt><trkpt lat="43.2868333" lon="10.8135867"><ele>261.0</ele><time>2026-04-18T12:53:30.572Z</time></trkpt><trkpt lat="43.2867417" lon="10.813695"><ele>261.0</ele><time>2026-04-18T12:53:31.573Z</time></trkpt><trkpt lat="43.286635" lon="10.813795"><ele>262.0</ele><time>2026-04-18T12:53:32.572Z</time></trkpt><trkpt lat="43.2865317" lon="10.8138933"><ele>263.0</ele><time>2026-04-18T12:53:33.572Z</time></trkpt><trkpt lat="43.286435" lon="10.81398"><ele>264.0</ele><time>2026-04-18T12:53:34.572Z</time></trkpt><trkpt lat="43.2863683" lon="10.8140683"><ele>265.0</ele><time>2026-04-18T12:53:35.572Z</time></trkpt><trkpt lat="43.2863183" lon="10.8141867"><ele>266.0</ele><time>2026-04-18T12:53:36.572Z</time></trkpt><trkpt lat="43.2862733" lon="10.814325"><ele>266.0</ele><time>2026-04-18T12:53:37.573Z</time></trkpt><trkpt lat="43.28623" lon="10.814455"><ele>266.0</ele><time>2026-04-18T12:53:38.572Z</time></trkpt><trkpt lat="43.2861867" lon="10.8145617"><ele>266.0</ele><time>2026-04-18T12:53:39.572Z</time></trkpt><trkpt lat="43.2861267" lon="10.8146417"><ele>266.0</ele><time>2026-04-18T12:53:40.572Z</time></trkpt><trkpt lat="43.2860467" lon="10.8147033"><ele>266.0</ele><time>2026-04-18T12:53:41.572Z</time></trkpt><trkpt lat="43.2859467" lon="10.8147567"><ele>266.0</ele><time>2026-04-18T12:53:42.572Z</time></trkpt><trkpt lat="43.2858367" lon="10.8147983"><ele>266.0</ele><time>2026-04-18T12:53:43.572Z</time></trkpt><trkpt lat="43.2857183" lon="10.8148417"><ele>266.0</ele><time>2026-04-18T12:53:44.573Z</time></trkpt><trkpt lat="43.2855983" lon="10.814885"><ele>266.0</ele><time>2026-04-18T12:53:45.572Z</time></trkpt><trkpt lat="43.2854983" lon="10.8149217"><ele>269.0</ele><time>2026-04-18T12:53:46.573Z</time></trkpt><trkpt lat="43.2851833" lon="10.8151983"><ele>272.0</ele><time>2026-04-18T12:53:49.572Z</time></trkpt><trkpt lat="43.2850667" lon="10.81532"><ele>272.0</ele><time>2026-04-18T12:53:50.572Z</time></trkpt><trkpt lat="43.284965" lon="10.81544"><ele>272.0</ele><time>2026-04-18T12:53:51.572Z</time></trkpt><trkpt lat="43.2848717" lon="10.8155467"><ele>272.0</ele><time>2026-04-18T12:53:52.572Z</time></trkpt><trkpt lat="43.284805" lon="10.8156367"><ele>272.0</ele><time>2026-04-18T12:53:53.572Z</time></trkpt><trkpt lat="43.2847417" lon="10.8157033"><ele>272.0</ele><time>2026-04-18T12:53:54.572Z</time></trkpt><trkpt lat="43.2846767" lon="10.8157767"><ele>273.5</ele><time>2026-04-18T12:53:55.572Z</time></trkpt><trkpt lat="43.284615" lon="10.815835"><ele>275.0</ele><time>2026-04-18T12:53:56.572Z</time></trkpt><trkpt lat="43.28456" lon="10.8158817"><ele>276.5</ele><time>2026-04-18T12:53:57.572Z</time></trkpt><trkpt lat="43.2844683" lon="10.81592"><ele>278.0</ele><time>2026-04-18T12:53:59.572Z</time></trkpt><trkpt lat="43.2843567" lon="10.8158633"><ele>279.5</ele><time>2026-04-18T12:54:01.572Z</time></trkpt><trkpt lat="43.2842967" lon="10.8157933"><ele>281.0</ele><time>2026-04-18T12:54:02.572Z</time></trkpt><trkpt lat="43.2842333" lon="10.815695"><ele>281.0</ele><time>2026-04-18T12:54:03.572Z</time></trkpt><trkpt lat="43.2841667" lon="10.8155817"><ele>281.0</ele><time>2026-04-18T12:54:04.572Z</time></trkpt><trkpt lat="43.28409" lon="10.815475"><ele>281.0</ele><time>2026-04-18T12:54:05.572Z</time></trkpt><trkpt lat="43.2840133" lon="10.8153617"><ele>281.0</ele><time>2026-04-18T12:54:06.572Z</time></trkpt><trkpt lat="43.283935" lon="10.81527"><ele>281.0</ele><time>2026-04-18T12:54:07.572Z</time></trkpt><trkpt lat="43.2838417" lon="10.8152167"><ele>280.6</ele><time>2026-04-18T12:54:08.573Z</time></trkpt><trkpt lat="43.2837367" lon="10.8151833"><ele>280.20000000000005</ele><time>2026-04-18T12:54:09.572Z</time></trkpt><trkpt lat="43.283615" lon="10.8151933"><ele>279.79999999999995</ele><time>2026-04-18T12:54:10.573Z</time></trkpt><trkpt lat="43.2835017" lon="10.8152317"><ele>279.4</ele><time>2026-04-18T12:54:11.572Z</time></trkpt><trkpt lat="43.2834167" lon="10.8152633"><ele>279.0</ele><time>2026-04-18T12:54:12.572Z</time></trkpt><trkpt lat="43.28335" lon="10.81529"><ele>279.0</ele><time>2026-04-18T12:54:13.572Z</time></trkpt><trkpt lat="43.28324" lon="10.8153033"><ele>279.0</ele><time>2026-04-18T12:54:15.573Z</time></trkpt><trkpt lat="43.28317" lon="10.815215"><ele>279.0</ele><time>2026-04-18T12:54:17.572Z</time></trkpt><trkpt lat="43.283215" lon="10.8150517"><ele>279.0</ele><time>2026-04-18T12:54:19.572Z</time></trkpt><trkpt lat="43.2835367" lon="10.8147333"><ele>283.3333333333333</ele><time>2026-04-18T12:54:22.572Z</time></trkpt><trkpt lat="43.2836883" lon="10.81459"><ele>287.66666666666663</ele><time>2026-04-18T12:54:23.572Z</time></trkpt><trkpt lat="43.2838117" lon="10.8144733"><ele>292.0</ele><time>2026-04-18T12:54:24.572Z</time></trkpt><trkpt lat="43.2839267" lon="10.81438"><ele>293.0</ele><time>2026-04-18T12:54:25.572Z</time></trkpt><trkpt lat="43.2840317" lon="10.8143167"><ele>294.0</ele><time>2026-04-18T12:54:26.572Z</time></trkpt><trkpt lat="43.2841183" lon="10.8142617"><ele>295.0</ele><time>2026-04-18T12:54:27.572Z</time></trkpt><trkpt lat="43.2841817" lon="10.8141917"><ele>296.0</ele><time>2026-04-18T12:54:28.572Z</time></trkpt><trkpt lat="43.2842433" lon="10.8140933"><ele>297.0</ele><time>2026-04-18T12:54:29.572Z</time></trkpt><trkpt lat="43.2843033" lon="10.81396"><ele>297.0</ele><time>2026-04-18T12:54:30.571Z</time></trkpt><trkpt lat="43.2843533" lon="10.81383"><ele>297.0</ele><time>2026-04-18T12:54:31.571Z</time></trkpt><trkpt lat="43.28439" lon="10.8136967"><ele>297.0</ele><time>2026-04-18T12:54:32.571Z</time></trkpt><trkpt lat="43.28441" lon="10.8135483"><ele>297.0</ele><time>2026-04-18T12:54:33.571Z</time></trkpt><trkpt lat="43.2844183" lon="10.8133867"><ele>297.0</ele><time>2026-04-18T12:54:34.571Z</time></trkpt><trkpt lat="43.284415" lon="10.8132067"><ele>299.0</ele><time>2026-04-18T12:54:35.571Z</time></trkpt><trkpt lat="43.2844067" lon="10.813045"><ele>301.0</ele><time>2026-04-18T12:54:36.571Z</time></trkpt><trkpt lat="43.2844" lon="10.8128933"><ele>303.0</ele><time>2026-04-18T12:54:37.572Z</time></trkpt><trkpt lat="43.2844067" lon="10.812765"><ele>305.0</ele><time>2026-04-18T12:54:38.571Z</time></trkpt><trkpt lat="43.2844283" lon="10.81264"><ele>307.0</ele><time>2026-04-18T12:54:39.572Z</time></trkpt><trkpt lat="43.2844633" lon="10.81251"><ele>310.6</ele><time>2026-04-18T12:54:40.571Z</time></trkpt><trkpt lat="43.284505" lon="10.8123933"><ele>314.2</ele><time>2026-04-18T12:54:41.571Z</time></trkpt><trkpt lat="43.2845517" lon="10.8122683"><ele>317.8</ele><time>2026-04-18T12:54:42.571Z</time></trkpt><trkpt lat="43.2845833" lon="10.81215"><ele>321.4</ele><time>2026-04-18T12:54:43.571Z</time></trkpt><trkpt lat="43.2845983" lon="10.8119983"><ele>325.0</ele><time>2026-04-18T12:54:44.571Z</time></trkpt><trkpt lat="43.2846133" lon="10.8118367"><ele>330.75</ele><time>2026-04-18T12:54:45.571Z</time></trkpt><trkpt lat="43.28463" lon="10.8116617"><ele>336.5</ele><time>2026-04-18T12:54:46.571Z</time></trkpt><trkpt lat="43.2846583" lon="10.8114883"><ele>342.25</ele><time>2026-04-18T12:54:47.571Z</time></trkpt><trkpt lat="43.284705" lon="10.8113117"><ele>348.0</ele><time>2026-04-18T12:54:48.571Z</time></trkpt><trkpt lat="43.2847533" lon="10.81114"><ele>340.25</ele><time>2026-04-18T12:54:49.571Z</time></trkpt><trkpt lat="43.2847833" lon="10.8109733"><ele>332.5</ele><time>2026-04-18T12:54:50.572Z</time></trkpt><trkpt lat="43.2848267" lon="10.810825"><ele>324.75</ele><time>2026-04-18T12:54:51.571Z</time></trkpt><trkpt lat="43.28488" lon="10.810695"><ele>317.0</ele><time>2026-04-18T12:54:52.571Z</time></trkpt><trkpt lat="43.285075" lon="10.8103517"><ele>317.0</ele><time>2026-04-18T12:54:55.572Z</time></trkpt><trkpt lat="43.2851133" lon="10.81025"><ele>317.0</ele><time>2026-04-18T12:54:56.571Z</time></trkpt><trkpt lat="43.285135" lon="10.810135"><ele>317.0</ele><time>2026-04-18T12:54:57.571Z</time></trkpt><trkpt lat="43.2851567" lon="10.8100067"><ele>317.0</ele><time>2026-04-18T12:54:58.571Z</time></trkpt><trkpt lat="43.2851633" lon="10.8098733"><ele>317.0</ele><time>2026-04-18T12:54:59.571Z</time></trkpt><trkpt lat="43.285165" lon="10.8097067"><ele>320.75</ele><time>2026-04-18T12:55:00.571Z</time></trkpt><trkpt lat="43.2851517" lon="10.8095383"><ele>324.5</ele><time>2026-04-18T12:55:01.571Z</time></trkpt><trkpt lat="43.2851233" lon="10.8093767"><ele>328.25</ele><time>2026-04-18T12:55:02.571Z</time></trkpt><trkpt lat="43.2850817" lon="10.809215"><ele>332.0</ele><time>2026-04-18T12:55:03.571Z</time></trkpt><trkpt lat="43.2850367" lon="10.8090533"><ele>332.0</ele><time>2026-04-18T12:55:04.571Z</time></trkpt><trkpt lat="43.28499" lon="10.8089083"><ele>332.0</ele><time>2026-04-18T12:55:05.571Z</time></trkpt><trkpt lat="43.2849417" lon="10.808775"><ele>332.0</ele><time>2026-04-18T12:55:06.571Z</time></trkpt><trkpt lat="43.2848767" lon="10.8086517"><ele>332.0</ele><time>2026-04-18T12:55:07.571Z</time></trkpt><trkpt lat="43.2848167" lon="10.808545"><ele>332.0</ele><time>2026-04-18T12:55:08.571Z</time></trkpt><trkpt lat="43.284765" lon="10.8084467"><ele>340.6</ele><time>2026-04-18T12:55:09.571Z</time></trkpt><trkpt lat="43.2847233" lon="10.808345"><ele>349.20000000000005</ele><time>2026-04-18T12:55:10.571Z</time></trkpt><trkpt lat="43.2846967" lon="10.8082417"><ele>357.8</ele><time>2026-04-18T12:55:11.571Z</time></trkpt><trkpt lat="43.284685" lon="10.808125"><ele>366.4</ele><time>2026-04-18T12:55:12.571Z</time></trkpt><trkpt lat="43.2847033" lon="10.8079917"><ele>375.0</ele><time>2026-04-18T12:55:13.571Z</time></trkpt><trkpt lat="43.28474" lon="10.8078467"><ele>362.75</ele><time>2026-04-18T12:55:14.571Z</time></trkpt><trkpt lat="43.284785" lon="10.8076867"><ele>350.5</ele><time>2026-04-18T12:55:15.571Z</time></trkpt><trkpt lat="43.28483" lon="10.8075417"><ele>338.25</ele><time>2026-04-18T12:55:16.571Z</time></trkpt><trkpt lat="43.2848633" lon="10.8074083"><ele>326.0</ele><time>2026-04-18T12:55:17.571Z</time></trkpt><trkpt lat="43.2848717" lon="10.8072467"><ele>326.0</ele><time>2026-04-18T12:55:18.571Z</time></trkpt><trkpt lat="43.2848517" lon="10.8070767"><ele>326.0</ele><time>2026-04-18T12:55:19.571Z</time></trkpt><trkpt lat="43.28482" lon="10.8069183"><ele>326.0</ele><time>2026-04-18T12:55:20.571Z</time></trkpt><trkpt lat="43.2847833" lon="10.8067683"><ele>326.0</ele><time>2026-04-18T12:55:21.571Z</time></trkpt><trkpt lat="43.28475" lon="10.8066283"><ele>326.0</ele><time>2026-04-18T12:55:22.571Z</time></trkpt><trkpt lat="43.2847367" lon="10.8064983"><ele>326.0</ele><time>2026-04-18T12:55:23.571Z</time></trkpt><trkpt lat="43.2847417" lon="10.8063617"><ele>326.0</ele><time>2026-04-18T12:55:24.571Z</time></trkpt><trkpt lat="43.284765" lon="10.8062167"><ele>326.0</ele><time>2026-04-18T12:55:25.571Z</time></trkpt><trkpt lat="43.28484" lon="10.80576"><ele>327.5</ele><time>2026-04-18T12:55:28.572Z</time></trkpt><trkpt lat="43.28484" lon="10.8055967"><ele>329.0</ele><time>2026-04-18T12:55:29.572Z</time></trkpt><trkpt lat="43.2848283" lon="10.8054333"><ele>330.5</ele><time>2026-04-18T12:55:30.571Z</time></trkpt><trkpt lat="43.2848067" lon="10.8052617"><ele>332.0</ele><time>2026-04-18T12:55:31.571Z</time></trkpt><trkpt lat="43.2848067" lon="10.8050767"><ele>333.5</ele><time>2026-04-18T12:55:32.571Z</time></trkpt><trkpt lat="43.284815" lon="10.804895"><ele>335.0</ele><time>2026-04-18T12:55:33.571Z</time></trkpt><trkpt lat="43.2848183" lon="10.8047183"><ele>336.5</ele><time>2026-04-18T12:55:34.571Z</time></trkpt><trkpt lat="43.2848217" lon="10.804565"><ele>338.0</ele><time>2026-04-18T12:55:35.572Z</time></trkpt><trkpt lat="43.2848383" lon="10.8044233"><ele>339.2</ele><time>2026-04-18T12:55:36.571Z</time></trkpt><trkpt lat="43.28488" lon="10.8042933"><ele>340.4</ele><time>2026-04-18T12:55:37.571Z</time></trkpt><trkpt lat="43.2849433" lon="10.80418"><ele>341.59999999999997</ele><time>2026-04-18T12:55:38.571Z</time></trkpt><trkpt lat="43.285015" lon="10.80408"><ele>342.79999999999995</ele><time>2026-04-18T12:55:39.571Z</time></trkpt><trkpt lat="43.2850683" lon="10.803985"><ele>344.0</ele><time>2026-04-18T12:55:40.571Z</time></trkpt><trkpt lat="43.2850933" lon="10.8038933"><ele>344.0</ele><time>2026-04-18T12:55:41.571Z</time></trkpt><trkpt lat="43.2850883" lon="10.8038033"><ele>344.0</ele><time>2026-04-18T12:55:42.571Z</time></trkpt><trkpt lat="43.28505" lon="10.8037167"><ele>344.0</ele><time>2026-04-18T12:55:43.571Z</time></trkpt><trkpt lat="43.2849767" lon="10.8036183"><ele>344.0</ele><time>2026-04-18T12:55:44.572Z</time></trkpt><trkpt lat="43.2849067" lon="10.80353"><ele>344.0</ele><time>2026-04-18T12:55:45.571Z</time></trkpt><trkpt lat="43.28483" lon="10.8034267"><ele>344.0</ele><time>2026-04-18T12:55:46.571Z</time></trkpt><trkpt lat="43.2847617" lon="10.8033533"><ele>346.5</ele><time>2026-04-18T12:55:47.571Z</time></trkpt><trkpt lat="43.2846933" lon="10.803315"><ele>349.0</ele><time>2026-04-18T12:55:48.572Z</time></trkpt><trkpt lat="43.2846033" lon="10.8033167"><ele>351.5</ele><time>2026-04-18T12:55:50.571Z</time></trkpt><trkpt lat="43.2845817" lon="10.8034333"><ele>354.0</ele><time>2026-04-18T12:55:52.571Z</time></trkpt><trkpt lat="43.2846017" lon="10.8035167"><ele>356.5</ele><time>2026-04-18T12:55:53.571Z</time></trkpt><trkpt lat="43.2846467" lon="10.8035867"><ele>359.0</ele><time>2026-04-18T12:55:54.571Z</time></trkpt><trkpt lat="43.2847" lon="10.8036683"><ele>362.75</ele><time>2026-04-18T12:55:55.571Z</time></trkpt><trkpt lat="43.2847467" lon="10.803745"><ele>366.5</ele><time>2026-04-18T12:55:56.571Z</time></trkpt><trkpt lat="43.2846983" lon="10.80405"><ele>370.25</ele><time>2026-04-18T12:56:00.572Z</time></trkpt><trkpt lat="43.284655" lon="10.8041517"><ele>374.0</ele><time>2026-04-18T12:56:01.571Z</time></trkpt><trkpt lat="43.2846233" lon="10.8042633"><ele>373.0</ele><time>2026-04-18T12:56:02.571Z</time></trkpt><trkpt lat="43.2845767" lon="10.80438"><ele>372.0</ele><time>2026-04-18T12:56:03.571Z</time></trkpt><trkpt lat="43.284535" lon="10.8045"><ele>371.0</ele><time>2026-04-18T12:56:04.571Z</time></trkpt><trkpt lat="43.2844883" lon="10.8046017"><ele>370.0</ele><time>2026-04-18T12:56:05.571Z</time></trkpt><trkpt lat="43.2844417" lon="10.8047133"><ele>369.0</ele><time>2026-04-18T12:56:06.571Z</time></trkpt><trkpt lat="43.284375" lon="10.804815"><ele>369.0</ele><time>2026-04-18T12:56:07.571Z</time></trkpt><trkpt lat="43.2842933" lon="10.8049"><ele>369.0</ele><time>2026-04-18T12:56:08.571Z</time></trkpt><trkpt lat="43.2842083" lon="10.8049917"><ele>369.0</ele><time>2026-04-18T12:56:09.571Z</time></trkpt><trkpt lat="43.2841333" lon="10.805105"><ele>369.0</ele><time>2026-04-18T12:56:10.572Z</time></trkpt><trkpt lat="43.2840767" lon="10.8052233"><ele>369.0</ele><time>2026-04-18T12:56:11.571Z</time></trkpt><trkpt lat="43.2840217" lon="10.8053567"><ele>367.5</ele><time>2026-04-18T12:56:12.571Z</time></trkpt><trkpt lat="43.2839717" lon="10.8054717"><ele>366.0</ele><time>2026-04-18T12:56:13.571Z</time></trkpt><trkpt lat="43.28389" lon="10.8055783"><ele>364.5</ele><time>2026-04-18T12:56:14.571Z</time></trkpt><trkpt lat="43.2837867" lon="10.8056933"><ele>363.0</ele><time>2026-04-18T12:56:15.571Z</time></trkpt><trkpt lat="43.2836933" lon="10.8058"><ele>367.4</ele><time>2026-04-18T12:56:16.571Z</time></trkpt><trkpt lat="43.2836133" lon="10.80591"><ele>371.79999999999995</ele><time>2026-04-18T12:56:17.571Z</time></trkpt><trkpt lat="43.2835667" lon="10.8060267"><ele>376.2</ele><time>2026-04-18T12:56:18.571Z</time></trkpt><trkpt lat="43.2835483" lon="10.8061483"><ele>380.6</ele><time>2026-04-18T12:56:19.571Z</time></trkpt><trkpt lat="43.2835417" lon="10.806265"><ele>385.0</ele><time>2026-04-18T12:56:20.571Z</time></trkpt><trkpt lat="43.2835583" lon="10.8063717"><ele>386.6</ele><time>2026-04-18T12:56:21.571Z</time></trkpt><trkpt lat="43.283605" lon="10.8064733"><ele>388.2</ele><time>2026-04-18T12:56:22.571Z</time></trkpt><trkpt lat="43.2836767" lon="10.80658"><ele>389.79999999999995</ele><time>2026-04-18T12:56:23.571Z</time></trkpt><trkpt lat="43.2837567" lon="10.8067017"><ele>391.4</ele><time>2026-04-18T12:56:24.571Z</time></trkpt><trkpt lat="43.2838233" lon="10.8068317"><ele>393.0</ele><time>2026-04-18T12:56:25.571Z</time></trkpt><trkpt lat="43.283885" lon="10.8069483"><ele>394.0</ele><time>2026-04-18T12:56:26.571Z</time></trkpt><trkpt lat="43.283935" lon="10.80704"><ele>395.0</ele><time>2026-04-18T12:56:27.571Z</time></trkpt><trkpt lat="43.2839683" lon="10.8071383"><ele>396.0</ele><time>2026-04-18T12:56:28.571Z</time></trkpt><trkpt lat="43.2839817" lon="10.8072417"><ele>397.0</ele><time>2026-04-18T12:56:29.571Z</time></trkpt><trkpt lat="43.2838883" lon="10.807465"><ele>398.0</ele><time>2026-04-18T12:56:33.571Z</time></trkpt><trkpt lat="43.283735" lon="10.8074817"><ele>398.0</ele><time>2026-04-18T12:56:35.571Z</time></trkpt><trkpt lat="43.2836283" lon="10.807455"><ele>398.0</ele><time>2026-04-18T12:56:36.571Z</time></trkpt><trkpt lat="43.2835433" lon="10.80744"><ele>398.0</ele><time>2026-04-18T12:56:37.571Z</time></trkpt><trkpt lat="43.2834733" lon="10.8074633"><ele>398.0</ele><time>2026-04-18T12:56:38.572Z</time></trkpt><trkpt lat="43.2833783" lon="10.80756"><ele>398.0</ele><time>2026-04-18T12:56:40.571Z</time></trkpt><trkpt lat="43.2833567" lon="10.8077133"><ele>400.5</ele><time>2026-04-18T12:56:42.571Z</time></trkpt><trkpt lat="43.2834067" lon="10.8078217"><ele>403.0</ele><time>2026-04-18T12:56:43.571Z</time></trkpt><trkpt lat="43.28349" lon="10.8079467"><ele>405.5</ele><time>2026-04-18T12:56:44.571Z</time></trkpt><trkpt lat="43.2835817" lon="10.80809"><ele>408.0</ele><time>2026-04-18T12:56:45.572Z</time></trkpt><trkpt lat="43.28365" lon="10.808245"><ele>408.0</ele><time>2026-04-18T12:56:46.571Z</time></trkpt><trkpt lat="43.283705" lon="10.808365"><ele>408.0</ele><time>2026-04-18T12:56:47.572Z</time></trkpt><trkpt lat="43.2837467" lon="10.8084633"><ele>408.0</ele><time>2026-04-18T12:56:48.572Z</time></trkpt><trkpt lat="43.2837617" lon="10.8085667"><ele>408.0</ele><time>2026-04-18T12:56:49.571Z</time></trkpt><trkpt lat="43.2837667" lon="10.8086783"><ele>408.0</ele><time>2026-04-18T12:56:50.571Z</time></trkpt><trkpt lat="43.2837533" lon="10.8088033"><ele>408.0</ele><time>2026-04-18T12:56:51.571Z</time></trkpt><trkpt lat="43.2837283" lon="10.80893"><ele>408.5</ele><time>2026-04-18T12:56:52.571Z</time></trkpt><trkpt lat="43.28371" lon="10.8090433"><ele>409.0</ele><time>2026-04-18T12:56:53.572Z</time></trkpt><trkpt lat="43.2837033" lon="10.8091683"><ele>409.5</ele><time>2026-04-18T12:56:54.571Z</time></trkpt><trkpt lat="43.2837067" lon="10.8092833"><ele>410.0</ele><time>2026-04-18T12:56:55.571Z</time></trkpt><trkpt lat="43.2837233" lon="10.8094033"><ele>410.5</ele><time>2026-04-18T12:56:56.571Z</time></trkpt><trkpt lat="43.2837867" lon="10.8095067"><ele>411.0</ele><time>2026-04-18T12:56:57.572Z</time></trkpt><trkpt lat="43.283855" lon="10.809595"><ele>411.0</ele><time>2026-04-18T12:56:58.571Z</time></trkpt><trkpt lat="43.283905" lon="10.809685"><ele>411.0</ele><time>2026-04-18T12:56:59.571Z</time></trkpt><trkpt lat="43.283945" lon="10.809775"><ele>411.0</ele><time>2026-04-18T12:57:00.571Z</time></trkpt><trkpt lat="43.2839567" lon="10.8098767"><ele>411.0</ele><time>2026-04-18T12:57:01.571Z</time></trkpt><trkpt lat="43.283955" lon="10.80998"><ele>411.0</ele><time>2026-04-18T12:57:02.571Z</time></trkpt><trkpt lat="43.283925" lon="10.8100883"><ele>411.0</ele><time>2026-04-18T12:57:03.571Z</time></trkpt><trkpt lat="43.28376" lon="10.81029"><ele>408.20000000000005</ele><time>2026-04-18T12:57:06.571Z</time></trkpt><trkpt lat="43.2836783" lon="10.8103333"><ele>405.40000000000003</ele><time>2026-04-18T12:57:07.571Z</time></trkpt><trkpt lat="43.2835717" lon="10.81038"><ele>402.6</ele><time>2026-04-18T12:57:08.571Z</time></trkpt><trkpt lat="43.2834417" lon="10.810415"><ele>399.8</ele><time>2026-04-18T12:57:09.571Z</time></trkpt><trkpt lat="43.28333" lon="10.8104317"><ele>397.0</ele><time>2026-04-18T12:57:10.571Z</time></trkpt><trkpt lat="43.283225" lon="10.81041"><ele>397.0</ele><time>2026-04-18T12:57:11.572Z</time></trkpt><trkpt lat="43.2831367" lon="10.810355"><ele>397.0</ele><time>2026-04-18T12:57:12.571Z</time></trkpt><trkpt lat="43.2830517" lon="10.8102817"><ele>397.0</ele><time>2026-04-18T12:57:13.571Z</time></trkpt><trkpt lat="43.282975" lon="10.8101867"><ele>397.0</ele><time>2026-04-18T12:57:14.571Z</time></trkpt><trkpt lat="43.282895" lon="10.8100733"><ele>397.0</ele><time>2026-04-18T12:57:15.572Z</time></trkpt><trkpt lat="43.2828267" lon="10.8099483"><ele>399.40000000000003</ele><time>2026-04-18T12:57:16.571Z</time></trkpt><trkpt lat="43.28276" lon="10.8098417"><ele>401.8</ele><time>2026-04-18T12:57:17.572Z</time></trkpt><trkpt lat="43.2826933" lon="10.809755"><ele>404.2</ele><time>2026-04-18T12:57:18.571Z</time></trkpt><trkpt lat="43.2826217" lon="10.8096917"><ele>406.6</ele><time>2026-04-18T12:57:19.571Z</time></trkpt><trkpt lat="43.2825267" lon="10.8096517"><ele>409.0</ele><time>2026-04-18T12:57:20.571Z</time></trkpt><trkpt lat="43.2824317" lon="10.8096617"><ele>409.0</ele><time>2026-04-18T12:57:21.571Z</time></trkpt><trkpt lat="43.28234" lon="10.8097067"><ele>409.0</ele><time>2026-04-18T12:57:22.571Z</time></trkpt><trkpt lat="43.2822683" lon="10.8097467"><ele>409.0</ele><time>2026-04-18T12:57:23.571Z</time></trkpt><trkpt lat="43.282185" lon="10.809765"><ele>409.0</ele><time>2026-04-18T12:57:25.571Z</time></trkpt><trkpt lat="43.2821817" lon="10.8096767"><ele>409.0</ele><time>2026-04-18T12:57:28.571Z</time></trkpt><trkpt lat="43.2822783" lon="10.809555"><ele>409.0</ele><time>2026-04-18T12:57:30.571Z</time></trkpt><trkpt lat="43.2823567" lon="10.8095033"><ele>409.0</ele><time>2026-04-18T12:57:31.571Z</time></trkpt><trkpt lat="43.28245" lon="10.8094717"><ele>409.0</ele><time>2026-04-18T12:57:32.571Z</time></trkpt><trkpt lat="43.28254" lon="10.8094367"><ele>409.0</ele><time>2026-04-18T12:57:33.571Z</time></trkpt><trkpt lat="43.282625" lon="10.809435"><ele>409.0</ele><time>2026-04-18T12:57:34.571Z</time></trkpt><trkpt lat="43.2827233" lon="10.8094583"><ele>409.0</ele><time>2026-04-18T12:57:35.571Z</time></trkpt><trkpt lat="43.2828317" lon="10.8095033"><ele>409.0</ele><time>2026-04-18T12:57:36.571Z</time></trkpt><trkpt lat="43.2831" lon="10.809575"><ele>409.0</ele><time>2026-04-18T12:57:39.571Z</time></trkpt><trkpt lat="43.283195" lon="10.80951"><ele>409.4</ele><time>2026-04-18T12:57:41.571Z</time></trkpt><trkpt lat="43.283185" lon="10.8093367"><ele>409.79999999999995</ele><time>2026-04-18T12:57:43.571Z</time></trkpt><trkpt lat="43.2831567" lon="10.8092217"><ele>410.20000000000005</ele><time>2026-04-18T12:57:44.571Z</time></trkpt><trkpt lat="43.28311" lon="10.8090883"><ele>410.6</ele><time>2026-04-18T12:57:45.572Z</time></trkpt><trkpt lat="43.28305" lon="10.8089633"><ele>411.0</ele><time>2026-04-18T12:57:46.57Z</time></trkpt><trkpt lat="43.2829933" lon="10.8088483"><ele>414.6</ele><time>2026-04-18T12:57:47.57Z</time></trkpt><trkpt lat="43.2829317" lon="10.8087733"><ele>418.20000000000005</ele><time>2026-04-18T12:57:48.571Z</time></trkpt><trkpt lat="43.2828167" lon="10.8087267"><ele>421.79999999999995</ele><time>2026-04-18T12:57:50.57Z</time></trkpt><trkpt lat="43.2827383" lon="10.8087417"><ele>425.4</ele><time>2026-04-18T12:57:51.57Z</time></trkpt><trkpt lat="43.282645" lon="10.8087767"><ele>429.0</ele><time>2026-04-18T12:57:52.57Z</time></trkpt><trkpt lat="43.28255" lon="10.8088033"><ele>429.0</ele><time>2026-04-18T12:57:53.57Z</time></trkpt><trkpt lat="43.2824267" lon="10.8088267"><ele>429.0</ele><time>2026-04-18T12:57:54.57Z</time></trkpt><trkpt lat="43.28231" lon="10.808835"><ele>429.0</ele><time>2026-04-18T12:57:55.57Z</time></trkpt><trkpt lat="43.28219" lon="10.8088183"><ele>429.0</ele><time>2026-04-18T12:57:56.57Z</time></trkpt><trkpt lat="43.28209" lon="10.8088033"><ele>428.8333333333333</ele><time>2026-04-18T12:57:57.57Z</time></trkpt><trkpt lat="43.2820067" lon="10.808785"><ele>428.66666666666663</ele><time>2026-04-18T12:57:58.57Z</time></trkpt><trkpt lat="43.2819317" lon="10.8087717"><ele>428.5</ele><time>2026-04-18T12:57:59.57Z</time></trkpt><trkpt lat="43.2818467" lon="10.8087683"><ele>428.3333333333333</ele><time>2026-04-18T12:58:01.57Z</time></trkpt><trkpt lat="43.2817567" lon="10.8087483"><ele>428.16666666666663</ele><time>2026-04-18T12:58:36.57Z</time></trkpt><trkpt lat="43.281695" lon="10.80869"><ele>428.0</ele><time>2026-04-18T12:58:38.571Z</time></trkpt><trkpt lat="43.281635" lon="10.8086117"><ele>428.00000000000006</ele><time>2026-04-18T12:58:40.57Z</time></trkpt><trkpt lat="43.2815533" lon="10.80851"><ele>428.0</ele><time>2026-04-18T12:58:42.57Z</time></trkpt><trkpt lat="43.2815" lon="10.8084633"><ele>428.0</ele><time>2026-04-18T12:58:43.57Z</time></trkpt><trkpt lat="43.2814433" lon="10.808415"><ele>428.0</ele><time>2026-04-18T12:58:44.57Z</time></trkpt><trkpt lat="43.281385" lon="10.8083733"><ele>428.0</ele><time>2026-04-18T12:58:45.57Z</time></trkpt><trkpt lat="43.2813233" lon="10.808345"><ele>428.00000000000006</ele><time>2026-04-18T12:58:46.57Z</time></trkpt><trkpt lat="43.2812617" lon="10.8083167"><ele>428.0</ele><time>2026-04-18T12:58:47.57Z</time></trkpt><trkpt lat="43.2811517" lon="10.8082817"><ele>429.4</ele><time>2026-04-18T12:58:49.57Z</time></trkpt><trkpt lat="43.281055" lon="10.8082867"><ele>430.79999999999995</ele><time>2026-04-18T12:58:51.57Z</time></trkpt><trkpt lat="43.2809567" lon="10.808295"><ele>432.2</ele><time>2026-04-18T12:58:53.57Z</time></trkpt><trkpt lat="43.2808533" lon="10.8082867"><ele>433.6</ele><time>2026-04-18T12:58:55.57Z</time></trkpt><trkpt lat="43.28074" lon="10.8082767"><ele>435.0</ele><time>2026-04-18T12:58:57.57Z</time></trkpt><trkpt lat="43.2806717" lon="10.8082733"><ele>435.0</ele><time>2026-04-18T12:58:58.57Z</time></trkpt><trkpt lat="43.280605" lon="10.80827"><ele>435.0</ele><time>2026-04-18T12:58:59.571Z</time></trkpt><trkpt lat="43.2805417" lon="10.8082833"><ele>435.0</ele><time>2026-04-18T12:59:00.571Z</time></trkpt><trkpt lat="43.28048" lon="10.8083167"><ele>435.0</ele><time>2026-04-18T12:59:01.571Z</time></trkpt><trkpt lat="43.2802783" lon="10.8084767"><ele>435.0</ele><time>2026-04-18T12:59:04.57Z</time></trkpt><trkpt lat="43.280185" lon="10.8084933"><ele>434.3333333333333</ele><time>2026-04-18T12:59:05.57Z</time></trkpt><trkpt lat="43.2800933" lon="10.8085017"><ele>433.66666666666663</ele><time>2026-04-18T12:59:06.57Z</time></trkpt><trkpt lat="43.2800033" lon="10.8084933"><ele>433.0</ele><time>2026-04-18T12:59:07.57Z</time></trkpt><trkpt lat="43.279915" lon="10.808515"><ele>432.3333333333333</ele><time>2026-04-18T12:59:08.57Z</time></trkpt><trkpt lat="43.2798467" lon="10.8085417"><ele>431.66666666666663</ele><time>2026-04-18T12:59:09.57Z</time></trkpt><trkpt lat="43.2797833" lon="10.808585"><ele>431.0</ele><time>2026-04-18T12:59:10.57Z</time></trkpt><trkpt lat="43.2797133" lon="10.8086633"><ele>434.4</ele><time>2026-04-18T12:59:11.57Z</time></trkpt><trkpt lat="43.2796467" lon="10.8087583"><ele>437.8</ele><time>2026-04-18T12:59:12.57Z</time></trkpt><trkpt lat="43.2795683" lon="10.808845"><ele>441.19999999999993</ele><time>2026-04-18T12:59:13.57Z</time></trkpt><trkpt lat="43.2794917" lon="10.808935"><ele>444.59999999999997</ele><time>2026-04-18T12:59:14.57Z</time></trkpt><trkpt lat="43.2794233" lon="10.8090117"><ele>448.0</ele><time>2026-04-18T12:59:15.57Z</time></trkpt><trkpt lat="43.2793667" lon="10.809065"><ele>448.00000000000006</ele><time>2026-04-18T12:59:16.57Z</time></trkpt><trkpt lat="43.2793033" lon="10.8090867"><ele>448.0</ele><time>2026-04-18T12:59:18.57Z</time></trkpt><trkpt lat="43.27924" lon="10.809075"><ele>448.0</ele><time>2026-04-18T12:59:20.57Z</time></trkpt><trkpt lat="43.27917" lon="10.809025"><ele>448.0</ele><time>2026-04-18T12:59:22.57Z</time></trkpt><trkpt lat="43.2791217" lon="10.8089317"><ele>448.00000000000006</ele><time>2026-04-18T12:59:24.57Z</time></trkpt><trkpt lat="43.2790783" lon="10.8088183"><ele>448.0</ele><time>2026-04-18T12:59:26.57Z</time></trkpt><trkpt lat="43.2790517" lon="10.8086883"><ele>448.0</ele><time>2026-04-18T12:59:28.57Z</time></trkpt><trkpt lat="43.2790417" lon="10.80855"><ele>447.99999999999994</ele><time>2026-04-18T12:59:30.57Z</time></trkpt><trkpt lat="43.2790417" lon="10.8084633"><ele>447.99999999999994</ele><time>2026-04-18T12:59:31.57Z</time></trkpt><trkpt lat="43.27904" lon="10.808375"><ele>448.0</ele><time>2026-04-18T12:59:32.57Z</time></trkpt><trkpt lat="43.27903" lon="10.8082267"><ele>448.0</ele><time>2026-04-18T12:59:34.57Z</time></trkpt><trkpt lat="43.278965" lon="10.8080183"><ele>448.00000000000006</ele><time>2026-04-18T12:59:37.57Z</time></trkpt><trkpt lat="43.278925" lon="10.8079417"><ele>448.0</ele><time>2026-04-18T12:59:38.57Z</time></trkpt><trkpt lat="43.27883" lon="10.8078267"><ele>448.0</ele><time>2026-04-18T12:59:40.57Z</time></trkpt><trkpt lat="43.2787717" lon="10.8077833"><ele>448.0</ele><time>2026-04-18T12:59:41.57Z</time></trkpt><trkpt lat="43.2787067" lon="10.8077367"><ele>448.00000000000006</ele><time>2026-04-18T12:59:42.57Z</time></trkpt><trkpt lat="43.2786333" lon="10.8076917"><ele>448.0</ele><time>2026-04-18T12:59:43.57Z</time></trkpt><trkpt lat="43.2785617" lon="10.8076467"><ele>450.0</ele><time>2026-04-18T12:59:44.57Z</time></trkpt><trkpt lat="43.2784917" lon="10.8075933"><ele>452.0</ele><time>2026-04-18T12:59:45.57Z</time></trkpt><trkpt lat="43.2784317" lon="10.8075433"><ele>454.0</ele><time>2026-04-18T12:59:46.57Z</time></trkpt><trkpt lat="43.27838" lon="10.8074867"><ele>456.0</ele><time>2026-04-18T12:59:47.57Z</time></trkpt><trkpt lat="43.2783417" lon="10.8074017"><ele>458.0</ele><time>2026-04-18T12:59:48.57Z</time></trkpt><trkpt lat="43.2783067" lon="10.8073067"><ele>460.0</ele><time>2026-04-18T12:59:49.57Z</time></trkpt><trkpt lat="43.27827" lon="10.8072083"><ele>462.0</ele><time>2026-04-18T12:59:50.57Z</time></trkpt><trkpt lat="43.2782383" lon="10.8071"><ele>462.0</ele><time>2026-04-18T12:59:51.57Z</time></trkpt><trkpt lat="43.2782183" lon="10.8070017"><ele>462.0</ele><time>2026-04-18T12:59:52.57Z</time></trkpt><trkpt lat="43.2781817" lon="10.8069233"><ele>462.0</ele><time>2026-04-18T12:59:53.571Z</time></trkpt><trkpt lat="43.2781117" lon="10.8068417"><ele>462.0</ele><time>2026-04-18T12:59:55.571Z</time></trkpt><trkpt lat="43.278015" lon="10.8068133"><ele>462.0</ele><time>2026-04-18T12:59:57.571Z</time></trkpt><trkpt lat="43.2779133" lon="10.8068017"><ele>462.0</ele><time>2026-04-18T12:59:59.57Z</time></trkpt><trkpt lat="43.2778467" lon="10.8067967"><ele>463.0</ele><time>2026-04-18T13:00:00.57Z</time></trkpt><trkpt lat="43.2777767" lon="10.806785"><ele>464.00000000000006</ele><time>2026-04-18T13:00:01.57Z</time></trkpt><trkpt lat="43.2776767" lon="10.8067283"><ele>465.00000000000006</ele><time>2026-04-18T13:00:03.571Z</time></trkpt><trkpt lat="43.2776367" lon="10.8066567"><ele>466.0</ele><time>2026-04-18T13:00:05.57Z</time></trkpt><trkpt lat="43.2775767" lon="10.8065567"><ele>467.0</ele><time>2026-04-18T13:00:07.57Z</time></trkpt><trkpt lat="43.2774167" lon="10.8063783"><ele>466.99999999999994</ele><time>2026-04-18T13:00:10.571Z</time></trkpt><trkpt lat="43.27737" lon="10.8063083"><ele>467.0</ele><time>2026-04-18T13:00:11.57Z</time></trkpt><trkpt lat="43.2773267" lon="10.8062233"><ele>467.0</ele><time>2026-04-18T13:00:12.57Z</time></trkpt><trkpt lat="43.2772867" lon="10.8061267"><ele>467.0</ele><time>2026-04-18T13:00:13.57Z</time></trkpt><trkpt lat="43.2772483" lon="10.8060217"><ele>466.99999999999994</ele><time>2026-04-18T13:00:14.57Z</time></trkpt><trkpt lat="43.2772017" lon="10.8059283"><ele>467.0</ele><time>2026-04-18T13:00:15.57Z</time></trkpt><trkpt lat="43.277155" lon="10.8058367"><ele>467.49999999999994</ele><time>2026-04-18T13:00:16.57Z</time></trkpt><trkpt lat="43.2771167" lon="10.805765"><ele>468.0</ele><time>2026-04-18T13:00:17.57Z</time></trkpt><trkpt lat="43.2770533" lon="10.8056567"><ele>468.5</ele><time>2026-04-18T13:00:19.57Z</time></trkpt><trkpt lat="43.2769867" lon="10.8055683"><ele>469.0</ele><time>2026-04-18T13:00:21.57Z</time></trkpt><trkpt lat="43.2769033" lon="10.8055217"><ele>469.49999999999994</ele><time>2026-04-18T13:00:23.57Z</time></trkpt><trkpt lat="43.276815" lon="10.80551"><ele>470.0</ele><time>2026-04-18T13:00:25.57Z</time></trkpt><trkpt lat="43.2767083" lon="10.8055433"><ele>469.99999999999994</ele><time>2026-04-18T13:00:27.57Z</time></trkpt><trkpt lat="43.2766417" lon="10.8055767"><ele>470.0</ele><time>2026-04-18T13:00:28.57Z</time></trkpt><trkpt lat="43.2765567" lon="10.80561"><ele>470.0</ele><time>2026-04-18T13:00:29.571Z</time></trkpt><trkpt lat="43.2764633" lon="10.80564"><ele>470.0</ele><time>2026-04-18T13:00:30.57Z</time></trkpt><trkpt lat="43.2763917" lon="10.8056533"><ele>469.99999999999994</ele><time>2026-04-18T13:00:31.57Z</time></trkpt><trkpt lat="43.276325" lon="10.8056583"><ele>470.0</ele><time>2026-04-18T13:00:32.571Z</time></trkpt><trkpt lat="43.27622" lon="10.8056283"><ele>469.0</ele><time>2026-04-18T13:00:34.57Z</time></trkpt><trkpt lat="43.2761183" lon="10.8055683"><ele>468.0</ele><time>2026-04-18T13:00:36.57Z</time></trkpt><trkpt lat="43.2760333" lon="10.8055033"><ele>467.0</ele><time>2026-04-18T13:00:38.57Z</time></trkpt><trkpt lat="43.27596" lon="10.8054383"><ele>466.0</ele><time>2026-04-18T13:00:40.57Z</time></trkpt><trkpt lat="43.2758767" lon="10.805285"><ele>465.0</ele><time>2026-04-18T13:00:43.57Z</time></trkpt><trkpt lat="43.2758117" lon="10.8051767"><ele>465.0</ele><time>2026-04-18T13:00:45.57Z</time></trkpt><trkpt lat="43.275755" lon="10.80508"><ele>465.0</ele><time>2026-04-18T13:00:47.57Z</time></trkpt><trkpt lat="43.2756917" lon="10.805015"><ele>465.0</ele><time>2026-04-18T13:00:49.57Z</time></trkpt><trkpt lat="43.275585" lon="10.80495"><ele>465.0</ele><time>2026-04-18T13:00:51.57Z</time></trkpt><trkpt lat="43.27552" lon="10.8049233"><ele>465.0</ele><time>2026-04-18T13:00:52.57Z</time></trkpt><trkpt lat="43.2754467" lon="10.8049017"><ele>465.0</ele><time>2026-04-18T13:00:53.57Z</time></trkpt><trkpt lat="43.2753733" lon="10.80489"><ele>465.0</ele><time>2026-04-18T13:00:54.57Z</time></trkpt><trkpt lat="43.2752967" lon="10.8048933"><ele>465.0</ele><time>2026-04-18T13:00:55.57Z</time></trkpt><trkpt lat="43.275205" lon="10.8049117"><ele>465.0</ele><time>2026-04-18T13:00:56.57Z</time></trkpt><trkpt lat="43.2751067" lon="10.80493"><ele>465.0</ele><time>2026-04-18T13:00:57.57Z</time></trkpt><trkpt lat="43.27502" lon="10.8049567"><ele>465.0</ele><time>2026-04-18T13:00:58.57Z</time></trkpt><trkpt lat="43.27494" lon="10.80498"><ele>465.0</ele><time>2026-04-18T13:00:59.57Z</time></trkpt><trkpt lat="43.2748683" lon="10.8050033"><ele>465.0</ele><time>2026-04-18T13:01:00.57Z</time></trkpt><trkpt lat="43.274795" lon="10.8050233"><ele>465.0</ele><time>2026-04-18T13:01:01.57Z</time></trkpt><trkpt lat="43.2747233" lon="10.8050483"><ele>465.0</ele><time>2026-04-18T13:01:02.57Z</time></trkpt><trkpt lat="43.2746383" lon="10.8050817"><ele>465.0</ele><time>2026-04-18T13:01:03.57Z</time></trkpt><trkpt lat="43.2745567" lon="10.8051117"><ele>465.0</ele><time>2026-04-18T13:01:04.57Z</time></trkpt><trkpt lat="43.2744517" lon="10.805135"><ele>465.0</ele><time>2026-04-18T13:01:05.57Z</time></trkpt><trkpt lat="43.2743517" lon="10.805155"><ele>461.5</ele><time>2026-04-18T13:01:06.569Z</time></trkpt><trkpt lat="43.2742417" lon="10.8051833"><ele>458.0</ele><time>2026-04-18T13:01:07.57Z</time></trkpt><trkpt lat="43.2741217" lon="10.805205"><ele>454.5</ele><time>2026-04-18T13:01:08.57Z</time></trkpt><trkpt lat="43.2740067" lon="10.8052233"><ele>451.0</ele><time>2026-04-18T13:01:09.569Z</time></trkpt><trkpt lat="43.2738917" lon="10.8052383"><ele>451.0</ele><time>2026-04-18T13:01:10.569Z</time></trkpt><trkpt lat="43.273775" lon="10.8052467"><ele>451.0</ele><time>2026-04-18T13:01:11.57Z</time></trkpt><trkpt lat="43.273665" lon="10.8052583"><ele>451.0</ele><time>2026-04-18T13:01:12.569Z</time></trkpt><trkpt lat="43.2735467" lon="10.8052717"><ele>451.0</ele><time>2026-04-18T13:01:13.569Z</time></trkpt><trkpt lat="43.27318" lon="10.8053117"><ele>450.8</ele><time>2026-04-18T13:01:16.569Z</time></trkpt><trkpt lat="43.27306" lon="10.8053183"><ele>450.6</ele><time>2026-04-18T13:01:17.569Z</time></trkpt><trkpt lat="43.272955" lon="10.8053183"><ele>450.4</ele><time>2026-04-18T13:01:18.569Z</time></trkpt><trkpt lat="43.2728567" lon="10.8053267"><ele>450.2</ele><time>2026-04-18T13:01:19.569Z</time></trkpt><trkpt lat="43.272755" lon="10.8053483"><ele>450.0</ele><time>2026-04-18T13:01:20.57Z</time></trkpt><trkpt lat="43.27265" lon="10.805375"><ele>450.0</ele><time>2026-04-18T13:01:21.569Z</time></trkpt><trkpt lat="43.2725367" lon="10.805405"><ele>450.0</ele><time>2026-04-18T13:01:22.569Z</time></trkpt><trkpt lat="43.272425" lon="10.80544"><ele>450.0</ele><time>2026-04-18T13:01:23.569Z</time></trkpt><trkpt lat="43.27231" lon="10.8054817"><ele>450.0</ele><time>2026-04-18T13:01:24.569Z</time></trkpt><trkpt lat="43.2722033" lon="10.80553"><ele>450.0</ele><time>2026-04-18T13:01:25.569Z</time></trkpt><trkpt lat="43.2720983" lon="10.8055767"><ele>450.0</ele><time>2026-04-18T13:01:26.569Z</time></trkpt><trkpt lat="43.272005" lon="10.805625"><ele>450.0</ele><time>2026-04-18T13:01:27.569Z</time></trkpt><trkpt lat="43.2719217" lon="10.8056683"><ele>450.0</ele><time>2026-04-18T13:01:28.569Z</time></trkpt><trkpt lat="43.2718383" lon="10.8057083"><ele>450.0</ele><time>2026-04-18T13:01:29.569Z</time></trkpt><trkpt lat="43.2717383" lon="10.8057383"><ele>450.0</ele><time>2026-04-18T13:01:30.569Z</time></trkpt><trkpt lat="43.2716383" lon="10.805765"><ele>450.0</ele><time>2026-04-18T13:01:31.569Z</time></trkpt><trkpt lat="43.271545" lon="10.805775"><ele>450.0</ele><time>2026-04-18T13:01:32.569Z</time></trkpt><trkpt lat="43.2714467" lon="10.8057883"><ele>450.0</ele><time>2026-04-18T13:01:33.569Z</time></trkpt><trkpt lat="43.2713483" lon="10.8057883"><ele>450.0</ele><time>2026-04-18T13:01:34.569Z</time></trkpt><trkpt lat="43.27125" lon="10.8057817"><ele>450.2</ele><time>2026-04-18T13:01:35.569Z</time></trkpt><trkpt lat="43.2711467" lon="10.8057833"><ele>450.4</ele><time>2026-04-18T13:01:36.57Z</time></trkpt><trkpt lat="43.2710383" lon="10.8057917"><ele>450.6</ele><time>2026-04-18T13:01:37.569Z</time></trkpt><trkpt lat="43.270925" lon="10.8058117"><ele>450.8</ele><time>2026-04-18T13:01:38.57Z</time></trkpt><trkpt lat="43.2708067" lon="10.8058333"><ele>451.0</ele><time>2026-04-18T13:01:39.57Z</time></trkpt><trkpt lat="43.2706783" lon="10.8058467"><ele>451.25</ele><time>2026-04-18T13:01:40.569Z</time></trkpt><trkpt lat="43.2705417" lon="10.8058617"><ele>451.5</ele><time>2026-04-18T13:01:41.569Z</time></trkpt><trkpt lat="43.2704067" lon="10.8058717"><ele>451.75</ele><time>2026-04-18T13:01:42.569Z</time></trkpt><trkpt lat="43.2702717" lon="10.8058867"><ele>452.0</ele><time>2026-04-18T13:01:43.569Z</time></trkpt><trkpt lat="43.2701367" lon="10.8059017"><ele>452.0</ele><time>2026-04-18T13:01:44.569Z</time></trkpt><trkpt lat="43.2700083" lon="10.80592"><ele>452.0</ele><time>2026-04-18T13:01:45.57Z</time></trkpt><trkpt lat="43.2698917" lon="10.8059233"><ele>452.0</ele><time>2026-04-18T13:01:46.569Z</time></trkpt><trkpt lat="43.2696167" lon="10.8059333"><ele>452.8333333333333</ele><time>2026-04-18T13:01:49.569Z</time></trkpt><trkpt lat="43.269545" lon="10.805915"><ele>453.66666666666663</ele><time>2026-04-18T13:01:50.569Z</time></trkpt><trkpt lat="43.26947" lon="10.805885"><ele>454.5</ele><time>2026-04-18T13:01:51.57Z</time></trkpt><trkpt lat="43.26939" lon="10.8058433"><ele>455.33333333333337</ele><time>2026-04-18T13:01:52.569Z</time></trkpt><trkpt lat="43.26931" lon="10.80579"><ele>456.1666666666667</ele><time>2026-04-18T13:01:53.569Z</time></trkpt><trkpt lat="43.26923" lon="10.8057267"><ele>457.0</ele><time>2026-04-18T13:01:54.569Z</time></trkpt><trkpt lat="43.2691467" lon="10.8056733"><ele>457.0</ele><time>2026-04-18T13:01:55.569Z</time></trkpt><trkpt lat="43.2690683" lon="10.8056283"><ele>457.00000000000006</ele><time>2026-04-18T13:01:56.569Z</time></trkpt><trkpt lat="43.26899" lon="10.8055967"><ele>457.00000000000006</ele><time>2026-04-18T13:01:57.569Z</time></trkpt><trkpt lat="43.2689033" lon="10.8055833"><ele>457.0</ele><time>2026-04-18T13:01:58.569Z</time></trkpt><trkpt lat="43.26881" lon="10.8055817"><ele>457.0</ele><time>2026-04-18T13:01:59.569Z</time></trkpt><trkpt lat="43.268705" lon="10.8056017"><ele>457.0</ele><time>2026-04-18T13:02:00.57Z</time></trkpt><trkpt lat="43.2686017" lon="10.8056233"><ele>457.00000000000006</ele><time>2026-04-18T13:02:01.569Z</time></trkpt><trkpt lat="43.2685" lon="10.805645"><ele>457.00000000000006</ele><time>2026-04-18T13:02:02.569Z</time></trkpt><trkpt lat="43.2684017" lon="10.8056567"><ele>457.0</ele><time>2026-04-18T13:02:03.569Z</time></trkpt><trkpt lat="43.2682967" lon="10.8056583"><ele>457.0</ele><time>2026-04-18T13:02:04.569Z</time></trkpt><trkpt lat="43.2682017" lon="10.8056433"><ele>457.20000000000005</ele><time>2026-04-18T13:02:05.569Z</time></trkpt><trkpt lat="43.2681067" lon="10.805635"><ele>457.40000000000003</ele><time>2026-04-18T13:02:06.569Z</time></trkpt><trkpt lat="43.2680083" lon="10.80561"><ele>457.59999999999997</ele><time>2026-04-18T13:02:07.569Z</time></trkpt><trkpt lat="43.267915" lon="10.8055783"><ele>457.79999999999995</ele><time>2026-04-18T13:02:08.57Z</time></trkpt><trkpt lat="43.26782" lon="10.80554"><ele>458.0</ele><time>2026-04-18T13:02:09.569Z</time></trkpt><trkpt lat="43.267735" lon="10.8055033"><ele>458.0</ele><time>2026-04-18T13:02:10.569Z</time></trkpt><trkpt lat="43.2676433" lon="10.8054683"><ele>457.99999999999994</ele><time>2026-04-18T13:02:11.569Z</time></trkpt><trkpt lat="43.267565" lon="10.8054283"><ele>457.99999999999994</ele><time>2026-04-18T13:02:12.569Z</time></trkpt><trkpt lat="43.267475" lon="10.8053833"><ele>458.0</ele><time>2026-04-18T13:02:13.569Z</time></trkpt><trkpt lat="43.26738" lon="10.80534"><ele>458.0</ele><time>2026-04-18T13:02:14.57Z</time></trkpt><trkpt lat="43.267285" lon="10.8052983"><ele>457.4</ele><time>2026-04-18T13:02:15.569Z</time></trkpt><trkpt lat="43.26719" lon="10.8052683"><ele>456.79999999999995</ele><time>2026-04-18T13:02:16.569Z</time></trkpt><trkpt lat="43.2671" lon="10.80524"><ele>456.2</ele><time>2026-04-18T13:02:17.569Z</time></trkpt><trkpt lat="43.2670167" lon="10.80521"><ele>455.6</ele><time>2026-04-18T13:02:18.57Z</time></trkpt><trkpt lat="43.2669167" lon="10.8051683"><ele>455.0</ele><time>2026-04-18T13:02:19.569Z</time></trkpt><trkpt lat="43.2667217" lon="10.80507"><ele>455.0</ele><time>2026-04-18T13:02:21.569Z</time></trkpt><trkpt lat="43.2666167" lon="10.8050017"><ele>455.0</ele><time>2026-04-18T13:02:22.569Z</time></trkpt><trkpt lat="43.2665083" lon="10.80492"><ele>455.0</ele><time>2026-04-18T13:02:23.569Z</time></trkpt><trkpt lat="43.2664067" lon="10.8048383"><ele>455.0</ele><time>2026-04-18T13:02:24.569Z</time></trkpt><trkpt lat="43.2663083" lon="10.8047383"><ele>456.0</ele><time>2026-04-18T13:02:25.569Z</time></trkpt><trkpt lat="43.266205" lon="10.8046483"><ele>457.0</ele><time>2026-04-18T13:02:26.569Z</time></trkpt><trkpt lat="43.2661067" lon="10.8045667"><ele>458.0</ele><time>2026-04-18T13:02:27.569Z</time></trkpt><trkpt lat="43.2660283" lon="10.8044767"><ele>459.0</ele><time>2026-04-18T13:02:28.569Z</time></trkpt><trkpt lat="43.2659467" lon="10.804395"><ele>460.0</ele><time>2026-04-18T13:02:29.569Z</time></trkpt><trkpt lat="43.26587" lon="10.804325"><ele>460.00000000000006</ele><time>2026-04-18T13:02:30.57Z</time></trkpt><trkpt lat="43.2657883" lon="10.804265"><ele>460.0</ele><time>2026-04-18T13:02:31.569Z</time></trkpt><trkpt lat="43.265705" lon="10.8041967"><ele>460.0</ele><time>2026-04-18T13:02:32.57Z</time></trkpt><trkpt lat="43.2656283" lon="10.804135"><ele>460.0</ele><time>2026-04-18T13:02:33.569Z</time></trkpt><trkpt lat="43.2655633" lon="10.80407"><ele>460.00000000000006</ele><time>2026-04-18T13:02:34.569Z</time></trkpt><trkpt lat="43.265515" lon="10.8040017"><ele>460.0</ele><time>2026-04-18T13:02:35.569Z</time></trkpt><trkpt lat="43.26548" lon="10.8039167"><ele>462.1666666666667</ele><time>2026-04-18T13:02:36.569Z</time></trkpt><trkpt lat="43.2654483" lon="10.8038283"><ele>464.33333333333337</ele><time>2026-04-18T13:02:37.569Z</time></trkpt><trkpt lat="43.265425" lon="10.8037433"><ele>466.5</ele><time>2026-04-18T13:02:38.569Z</time></trkpt><trkpt lat="43.2653633" lon="10.8036033"><ele>468.66666666666663</ele><time>2026-04-18T13:02:40.569Z</time></trkpt><trkpt lat="43.2653117" lon="10.8035517"><ele>470.8333333333333</ele><time>2026-04-18T13:02:41.569Z</time></trkpt><trkpt lat="43.2652467" lon="10.803525"><ele>473.0</ele><time>2026-04-18T13:02:42.569Z</time></trkpt><trkpt lat="43.26517" lon="10.8035083"><ele>473.0</ele><time>2026-04-18T13:02:43.569Z</time></trkpt><trkpt lat="43.2650817" lon="10.8035083"><ele>472.99999999999994</ele><time>2026-04-18T13:02:44.57Z</time></trkpt><trkpt lat="43.2649883" lon="10.8035017"><ele>472.99999999999994</ele><time>2026-04-18T13:02:45.569Z</time></trkpt><trkpt lat="43.2648833" lon="10.8034917"><ele>473.0</ele><time>2026-04-18T13:02:46.569Z</time></trkpt><trkpt lat="43.26477" lon="10.8034867"><ele>473.0</ele><time>2026-04-18T13:02:47.569Z</time></trkpt><trkpt lat="43.2646483" lon="10.8034833"><ele>474.0</ele><time>2026-04-18T13:02:48.569Z</time></trkpt><trkpt lat="43.264525" lon="10.8034917"><ele>474.99999999999994</ele><time>2026-04-18T13:02:49.569Z</time></trkpt><trkpt lat="43.2644117" lon="10.80351"><ele>475.99999999999994</ele><time>2026-04-18T13:02:50.569Z</time></trkpt><trkpt lat="43.2643133" lon="10.8035283"><ele>477.0</ele><time>2026-04-18T13:02:51.569Z</time></trkpt><trkpt lat="43.2642283" lon="10.80353"><ele>478.0</ele><time>2026-04-18T13:02:52.57Z</time></trkpt><trkpt lat="43.2640683" lon="10.80346"><ele>475.4</ele><time>2026-04-18T13:02:54.569Z</time></trkpt><trkpt lat="43.2639933" lon="10.803385"><ele>472.79999999999995</ele><time>2026-04-18T13:02:55.569Z</time></trkpt><trkpt lat="43.26392" lon="10.8032917"><ele>470.2</ele><time>2026-04-18T13:02:56.569Z</time></trkpt><trkpt lat="43.2638483" lon="10.8032"><ele>467.6</ele><time>2026-04-18T13:02:57.569Z</time></trkpt><trkpt lat="43.2637883" lon="10.8031167"><ele>465.0</ele><time>2026-04-18T13:02:58.569Z</time></trkpt><trkpt lat="43.26373" lon="10.803045"><ele>465.0</ele><time>2026-04-18T13:02:59.569Z</time></trkpt><trkpt lat="43.2636783" lon="10.80295"><ele>465.0</ele><time>2026-04-18T13:03:00.569Z</time></trkpt><trkpt lat="43.2636267" lon="10.8028317"><ele>465.0</ele><time>2026-04-18T13:03:01.569Z</time></trkpt><trkpt lat="43.2635867" lon="10.802705"><ele>465.0</ele><time>2026-04-18T13:03:02.569Z</time></trkpt><trkpt lat="43.2635633" lon="10.80259"><ele>465.0</ele><time>2026-04-18T13:03:03.569Z</time></trkpt><trkpt lat="43.2635567" lon="10.8024783"><ele>465.2</ele><time>2026-04-18T13:03:04.57Z</time></trkpt><trkpt lat="43.2635717" lon="10.802355"><ele>465.4</ele><time>2026-04-18T13:03:05.569Z</time></trkpt><trkpt lat="43.2635917" lon="10.80222"><ele>465.6</ele><time>2026-04-18T13:03:06.569Z</time></trkpt><trkpt lat="43.2636133" lon="10.8020783"><ele>465.8</ele><time>2026-04-18T13:03:07.569Z</time></trkpt><trkpt lat="43.26364" lon="10.8019383"><ele>466.0</ele><time>2026-04-18T13:03:08.569Z</time></trkpt><trkpt lat="43.2636633" lon="10.8017983"><ele>466.00000000000006</ele><time>2026-04-18T13:03:09.57Z</time></trkpt><trkpt lat="43.2636867" lon="10.801675"><ele>466.0</ele><time>2026-04-18T13:03:10.569Z</time></trkpt><trkpt lat="43.2637183" lon="10.80156"><ele>466.0</ele><time>2026-04-18T13:03:11.57Z</time></trkpt><trkpt lat="43.2637533" lon="10.80145"><ele>466.0</ele><time>2026-04-18T13:03:12.569Z</time></trkpt><trkpt lat="43.2637917" lon="10.8013483"><ele>466.00000000000006</ele><time>2026-04-18T13:03:13.569Z</time></trkpt><trkpt lat="43.2638233" lon="10.8012617"><ele>466.0</ele><time>2026-04-18T13:03:14.569Z</time></trkpt><trkpt lat="43.2638467" lon="10.80118"><ele>466.0</ele><time>2026-04-18T13:03:15.569Z</time></trkpt><trkpt lat="43.2638683" lon="10.80104"><ele>466.0</ele><time>2026-04-18T13:03:17.569Z</time></trkpt><trkpt lat="43.2638517" lon="10.800895"><ele>466.0</ele><time>2026-04-18T13:03:19.569Z</time></trkpt><trkpt lat="43.2637983" lon="10.8007217"><ele>466.0</ele><time>2026-04-18T13:03:21.569Z</time></trkpt><trkpt lat="43.2637433" lon="10.8006317"><ele>466.0</ele><time>2026-04-18T13:03:22.569Z</time></trkpt><trkpt lat="43.2636633" lon="10.80055"><ele>466.6666666666667</ele><time>2026-04-18T13:03:23.569Z</time></trkpt><trkpt lat="43.2635633" lon="10.8004683"><ele>467.33333333333337</ele><time>2026-04-18T13:03:24.569Z</time></trkpt><trkpt lat="43.26346" lon="10.80038"><ele>468.0</ele><time>2026-04-18T13:03:25.569Z</time></trkpt><trkpt lat="43.26316" lon="10.8000983"><ele>468.25</ele><time>2026-04-18T13:03:28.569Z</time></trkpt><trkpt lat="43.2630533" lon="10.7999883"><ele>468.5</ele><time>2026-04-18T13:03:29.569Z</time></trkpt><trkpt lat="43.262945" lon="10.7998767"><ele>468.75</ele><time>2026-04-18T13:03:30.569Z</time></trkpt><trkpt lat="43.26285" lon="10.7997733"><ele>469.0</ele><time>2026-04-18T13:03:31.569Z</time></trkpt><trkpt lat="43.2627583" lon="10.7996933"><ele>469.00000000000006</ele><time>2026-04-18T13:03:32.569Z</time></trkpt><trkpt lat="43.26268" lon="10.79962"><ele>469.0</ele><time>2026-04-18T13:03:33.569Z</time></trkpt><trkpt lat="43.2626083" lon="10.79956"><ele>469.0</ele><time>2026-04-18T13:03:34.569Z</time></trkpt><trkpt lat="43.2625483" lon="10.7994933"><ele>469.0</ele><time>2026-04-18T13:03:35.569Z</time></trkpt><trkpt lat="43.26249" lon="10.7994317"><ele>469.00000000000006</ele><time>2026-04-18T13:03:36.569Z</time></trkpt><trkpt lat="43.2624367" lon="10.7993617"><ele>469.0</ele><time>2026-04-18T13:03:37.569Z</time></trkpt><trkpt lat="43.262385" lon="10.79927"><ele>470.2</ele><time>2026-04-18T13:03:38.569Z</time></trkpt><trkpt lat="43.26234" lon="10.7991533"><ele>471.4</ele><time>2026-04-18T13:03:39.569Z</time></trkpt><trkpt lat="43.2622933" lon="10.7990217"><ele>472.6</ele><time>2026-04-18T13:03:40.569Z</time></trkpt><trkpt lat="43.2622467" lon="10.7988683"><ele>473.8</ele><time>2026-04-18T13:03:41.57Z</time></trkpt><trkpt lat="43.26221" lon="10.7987067"><ele>475.0</ele><time>2026-04-18T13:03:42.57Z</time></trkpt><trkpt lat="43.2621733" lon="10.798535"><ele>478.5</ele><time>2026-04-18T13:03:43.569Z</time></trkpt><trkpt lat="43.2621317" lon="10.7983683"><ele>482.0</ele><time>2026-04-18T13:03:44.569Z</time></trkpt><trkpt lat="43.2620933" lon="10.798205"><ele>485.5</ele><time>2026-04-18T13:03:45.569Z</time></trkpt><trkpt lat="43.2620617" lon="10.7980617"><ele>489.0</ele><time>2026-04-18T13:03:46.569Z</time></trkpt><trkpt lat="43.26203" lon="10.7979333"><ele>489.0</ele><time>2026-04-18T13:03:47.57Z</time></trkpt><trkpt lat="43.2620033" lon="10.7978017"><ele>489.0</ele><time>2026-04-18T13:03:48.569Z</time></trkpt><trkpt lat="43.2619733" lon="10.7976717"><ele>489.0</ele><time>2026-04-18T13:03:49.569Z</time></trkpt><trkpt lat="43.261935" lon="10.7975483"><ele>489.0</ele><time>2026-04-18T13:03:50.569Z</time></trkpt><trkpt lat="43.2619033" lon="10.797425"><ele>489.0</ele><time>2026-04-18T13:03:51.569Z</time></trkpt><trkpt lat="43.261865" lon="10.79729"><ele>488.6666666666667</ele><time>2026-04-18T13:03:52.569Z</time></trkpt><trkpt lat="43.26183" lon="10.7971567"><ele>488.33333333333337</ele><time>2026-04-18T13:03:53.569Z</time></trkpt><trkpt lat="43.2618033" lon="10.7970383"><ele>488.0</ele><time>2026-04-18T13:03:54.57Z</time></trkpt><trkpt lat="43.2617817" lon="10.7969333"><ele>487.6666666666667</ele><time>2026-04-18T13:03:55.57Z</time></trkpt><trkpt lat="43.2617567" lon="10.796835"><ele>487.33333333333337</ele><time>2026-04-18T13:03:56.569Z</time></trkpt><trkpt lat="43.2617267" lon="10.796735"><ele>487.0</ele><time>2026-04-18T13:03:57.569Z</time></trkpt><trkpt lat="43.2616833" lon="10.7966133"><ele>484.6666666666667</ele><time>2026-04-18T13:03:58.569Z</time></trkpt><trkpt lat="43.261535" lon="10.7962133"><ele>482.33333333333337</ele><time>2026-04-18T13:04:01.569Z</time></trkpt><trkpt lat="43.2614933" lon="10.7960867"><ele>480.0</ele><time>2026-04-18T13:04:02.569Z</time></trkpt><trkpt lat="43.2614583" lon="10.795965"><ele>479.4</ele><time>2026-04-18T13:04:03.569Z</time></trkpt><trkpt lat="43.261425" lon="10.7958467"><ele>478.8</ele><time>2026-04-18T13:04:04.569Z</time></trkpt><trkpt lat="43.2613917" lon="10.7957383"><ele>478.20000000000005</ele><time>2026-04-18T13:04:05.569Z</time></trkpt><trkpt lat="43.2613517" lon="10.79563"><ele>477.6</ele><time>2026-04-18T13:04:06.569Z</time></trkpt><trkpt lat="43.2613083" lon="10.7955183"><ele>477.0</ele><time>2026-04-18T13:04:07.569Z</time></trkpt><trkpt lat="43.26127" lon="10.795405"><ele>477.0</ele><time>2026-04-18T13:04:08.569Z</time></trkpt><trkpt lat="43.26122" lon="10.79529"><ele>477.00000000000006</ele><time>2026-04-18T13:04:09.569Z</time></trkpt><trkpt lat="43.26116" lon="10.7951717"><ele>477.00000000000006</ele><time>2026-04-18T13:04:10.569Z</time></trkpt><trkpt lat="43.2610917" lon="10.7950483"><ele>477.0</ele><time>2026-04-18T13:04:11.569Z</time></trkpt><trkpt lat="43.2610283" lon="10.7949217"><ele>477.0</ele><time>2026-04-18T13:04:12.569Z</time></trkpt><trkpt lat="43.2609633" lon="10.7948083"><ele>475.40000000000003</ele><time>2026-04-18T13:04:13.569Z</time></trkpt><trkpt lat="43.2609083" lon="10.7946917"><ele>473.80000000000007</ele><time>2026-04-18T13:04:14.569Z</time></trkpt><trkpt lat="43.26085" lon="10.7945717"><ele>472.2</ele><time>2026-04-18T13:04:15.569Z</time></trkpt><trkpt lat="43.260785" lon="10.7944517"><ele>470.6</ele><time>2026-04-18T13:04:16.569Z</time></trkpt><trkpt lat="43.26072" lon="10.79434"><ele>469.0</ele><time>2026-04-18T13:04:17.569Z</time></trkpt><trkpt lat="43.260665" lon="10.7942333"><ele>466.6</ele><time>2026-04-18T13:04:18.569Z</time></trkpt><trkpt lat="43.26061" lon="10.7941283"><ele>464.2</ele><time>2026-04-18T13:04:19.569Z</time></trkpt><trkpt lat="43.2605517" lon="10.79401"><ele>461.80000000000007</ele><time>2026-04-18T13:04:20.569Z</time></trkpt><trkpt lat="43.2605067" lon="10.793875"><ele>459.40000000000003</ele><time>2026-04-18T13:04:21.569Z</time></trkpt><trkpt lat="43.2604667" lon="10.7937333"><ele>457.0</ele><time>2026-04-18T13:04:22.569Z</time></trkpt><trkpt lat="43.2604283" lon="10.7936"><ele>457.5</ele><time>2026-04-18T13:04:23.569Z</time></trkpt><trkpt lat="43.2603933" lon="10.7934583"><ele>458.0</ele><time>2026-04-18T13:04:24.569Z</time></trkpt><trkpt lat="43.2603533" lon="10.7933183"><ele>458.5</ele><time>2026-04-18T13:04:25.569Z</time></trkpt><trkpt lat="43.260305" lon="10.7931633"><ele>459.0</ele><time>2026-04-18T13:04:26.57Z</time></trkpt><trkpt lat="43.2602467" lon="10.7930217"><ele>459.0</ele><time>2026-04-18T13:04:27.569Z</time></trkpt><trkpt lat="43.2601917" lon="10.7928867"><ele>459.0</ele><time>2026-04-18T13:04:28.568Z</time></trkpt><trkpt lat="43.2601333" lon="10.7927517"><ele>459.0</ele><time>2026-04-18T13:04:29.569Z</time></trkpt><trkpt lat="43.26007" lon="10.7926183"><ele>459.0</ele><time>2026-04-18T13:04:30.569Z</time></trkpt><trkpt lat="43.2600017" lon="10.792475"><ele>457.5</ele><time>2026-04-18T13:04:31.568Z</time></trkpt><trkpt lat="43.2597633" lon="10.79205"><ele>456.0</ele><time>2026-04-18T13:04:34.569Z</time></trkpt><trkpt lat="43.259685" lon="10.7919167"><ele>456.5</ele><time>2026-04-18T13:04:35.568Z</time></trkpt><trkpt lat="43.259605" lon="10.7917917"><ele>457.0</ele><time>2026-04-18T13:04:36.568Z</time></trkpt><trkpt lat="43.259525" lon="10.7916567"><ele>457.5</ele><time>2026-04-18T13:04:37.568Z</time></trkpt><trkpt lat="43.25942" lon="10.7915067"><ele>458.0</ele><time>2026-04-18T13:04:38.568Z</time></trkpt><trkpt lat="43.2593233" lon="10.7913483"><ele>458.0</ele><time>2026-04-18T13:04:39.569Z</time></trkpt><trkpt lat="43.2592367" lon="10.7911833"><ele>458.0</ele><time>2026-04-18T13:04:40.568Z</time></trkpt><trkpt lat="43.259155" lon="10.79102"><ele>458.0</ele><time>2026-04-18T13:04:41.568Z</time></trkpt><trkpt lat="43.259085" lon="10.7908633"><ele>458.0</ele><time>2026-04-18T13:04:42.569Z</time></trkpt><trkpt lat="43.2590233" lon="10.7907183"><ele>458.0</ele><time>2026-04-18T13:04:43.568Z</time></trkpt><trkpt lat="43.2589633" lon="10.7905867"><ele>457.99999999999994</ele><time>2026-04-18T13:04:44.568Z</time></trkpt><trkpt lat="43.258905" lon="10.7904583"><ele>457.99999999999994</ele><time>2026-04-18T13:04:45.568Z</time></trkpt><trkpt lat="43.2588483" lon="10.7903233"><ele>458.0</ele><time>2026-04-18T13:04:46.568Z</time></trkpt><trkpt lat="43.2587933" lon="10.790195"><ele>458.0</ele><time>2026-04-18T13:04:47.569Z</time></trkpt><trkpt lat="43.2587433" lon="10.790075"><ele>457.79999999999995</ele><time>2026-04-18T13:04:48.568Z</time></trkpt><trkpt lat="43.2586933" lon="10.7899433"><ele>457.59999999999997</ele><time>2026-04-18T13:04:49.568Z</time></trkpt><trkpt lat="43.2586467" lon="10.7898067"><ele>457.40000000000003</ele><time>2026-04-18T13:04:50.568Z</time></trkpt><trkpt lat="43.2586083" lon="10.7896683"><ele>457.20000000000005</ele><time>2026-04-18T13:04:51.568Z</time></trkpt><trkpt lat="43.2585733" lon="10.7895367"><ele>457.0</ele><time>2026-04-18T13:04:52.569Z</time></trkpt><trkpt lat="43.25854" lon="10.7894067"><ele>456.6</ele><time>2026-04-18T13:04:53.568Z</time></trkpt><trkpt lat="43.2585117" lon="10.789265"><ele>456.20000000000005</ele><time>2026-04-18T13:04:54.568Z</time></trkpt><trkpt lat="43.2584833" lon="10.7891217"><ele>455.8</ele><time>2026-04-18T13:04:55.569Z</time></trkpt><trkpt lat="43.258465" lon="10.78897"><ele>455.4</ele><time>2026-04-18T13:04:56.568Z</time></trkpt><trkpt lat="43.2584467" lon="10.7888117"><ele>455.0</ele><time>2026-04-18T13:04:57.568Z</time></trkpt><trkpt lat="43.2584333" lon="10.7886583"><ele>455.0</ele><time>2026-04-18T13:04:58.568Z</time></trkpt><trkpt lat="43.258425" lon="10.7885033"><ele>455.0</ele><time>2026-04-18T13:04:59.568Z</time></trkpt><trkpt lat="43.25842" lon="10.7883533"><ele>455.0</ele><time>2026-04-18T13:05:00.568Z</time></trkpt><trkpt lat="43.258415" lon="10.7882133"><ele>455.0</ele><time>2026-04-18T13:05:01.569Z</time></trkpt><trkpt lat="43.2584133" lon="10.78808"><ele>455.0</ele><time>2026-04-18T13:05:02.568Z</time></trkpt><trkpt lat="43.2584083" lon="10.7879617"><ele>455.0</ele><time>2026-04-18T13:05:03.569Z</time></trkpt><trkpt lat="43.2584067" lon="10.78785"><ele>455.0</ele><time>2026-04-18T13:05:04.568Z</time></trkpt><trkpt lat="43.2583817" lon="10.7875583"><ele>455.0</ele><time>2026-04-18T13:05:07.569Z</time></trkpt><trkpt lat="43.258365" lon="10.7874667"><ele>455.0</ele><time>2026-04-18T13:05:08.568Z</time></trkpt><trkpt lat="43.258335" lon="10.7873717"><ele>455.0</ele><time>2026-04-18T13:05:09.568Z</time></trkpt><trkpt lat="43.2582867" lon="10.78728"><ele>455.4</ele><time>2026-04-18T13:05:10.568Z</time></trkpt><trkpt lat="43.25823" lon="10.7871967"><ele>455.8</ele><time>2026-04-18T13:05:11.568Z</time></trkpt><trkpt lat="43.25817" lon="10.7871333"><ele>456.20000000000005</ele><time>2026-04-18T13:05:12.568Z</time></trkpt><trkpt lat="43.2580817" lon="10.7870633"><ele>456.6</ele><time>2026-04-18T13:05:13.568Z</time></trkpt><trkpt lat="43.2579767" lon="10.7869883"><ele>457.0</ele><time>2026-04-18T13:05:14.568Z</time></trkpt><trkpt lat="43.257885" lon="10.7869083"><ele>454.75</ele><time>2026-04-18T13:05:15.568Z</time></trkpt><trkpt lat="43.257785" lon="10.7868267"><ele>452.5</ele><time>2026-04-18T13:05:16.568Z</time></trkpt><trkpt lat="43.2576933" lon="10.7867317"><ele>450.25</ele><time>2026-04-18T13:05:17.568Z</time></trkpt><trkpt lat="43.2576033" lon="10.7866233"><ele>448.0</ele><time>2026-04-18T13:05:18.568Z</time></trkpt><trkpt lat="43.257515" lon="10.7865183"><ele>448.0</ele><time>2026-04-18T13:05:19.568Z</time></trkpt><trkpt lat="43.257435" lon="10.7864183"><ele>447.99999999999994</ele><time>2026-04-18T13:05:20.568Z</time></trkpt><trkpt lat="43.2573517" lon="10.7863233"><ele>447.99999999999994</ele><time>2026-04-18T13:05:21.568Z</time></trkpt><trkpt lat="43.257285" lon="10.7862383"><ele>448.0</ele><time>2026-04-18T13:05:22.568Z</time></trkpt><trkpt lat="43.2572317" lon="10.7861583"><ele>448.0</ele><time>2026-04-18T13:05:23.569Z</time></trkpt><trkpt lat="43.2572" lon="10.7860817"><ele>446.00000000000006</ele><time>2026-04-18T13:05:24.568Z</time></trkpt><trkpt lat="43.257175" lon="10.7859983"><ele>444.0</ele><time>2026-04-18T13:05:25.568Z</time></trkpt><trkpt lat="43.2571567" lon="10.7859033"><ele>442.0</ele><time>2026-04-18T13:05:26.568Z</time></trkpt><trkpt lat="43.2571567" lon="10.7858017"><ele>440.0</ele><time>2026-04-18T13:05:27.569Z</time></trkpt><trkpt lat="43.257165" lon="10.78568"><ele>438.00000000000006</ele><time>2026-04-18T13:05:28.569Z</time></trkpt><trkpt lat="43.25718" lon="10.78556"><ele>436.0</ele><time>2026-04-18T13:05:29.568Z</time></trkpt><trkpt lat="43.2571783" lon="10.7854567"><ele>436.00000000000006</ele><time>2026-04-18T13:05:30.568Z</time></trkpt><trkpt lat="43.2571717" lon="10.785345"><ele>436.0</ele><time>2026-04-18T13:05:31.569Z</time></trkpt><trkpt lat="43.25715" lon="10.7852367"><ele>436.0</ele><time>2026-04-18T13:05:32.568Z</time></trkpt><trkpt lat="43.257115" lon="10.7851333"><ele>436.0</ele><time>2026-04-18T13:05:33.568Z</time></trkpt><trkpt lat="43.2570583" lon="10.7850333"><ele>436.00000000000006</ele><time>2026-04-18T13:05:34.568Z</time></trkpt><trkpt lat="43.2570017" lon="10.78495"><ele>436.0</ele><time>2026-04-18T13:05:35.568Z</time></trkpt><trkpt lat="43.2569617" lon="10.7848733"><ele>437.33333333333337</ele><time>2026-04-18T13:05:36.568Z</time></trkpt><trkpt lat="43.25693" lon="10.7847783"><ele>438.66666666666663</ele><time>2026-04-18T13:05:37.568Z</time></trkpt><trkpt lat="43.2568517" lon="10.784395"><ele>440.0</ele><time>2026-04-18T13:05:40.569Z</time></trkpt><trkpt lat="43.256825" lon="10.7842367"><ele>440.66666666666663</ele><time>2026-04-18T13:05:41.568Z</time></trkpt><trkpt lat="43.2567917" lon="10.7840967"><ele>441.3333333333333</ele><time>2026-04-18T13:05:42.568Z</time></trkpt><trkpt lat="43.256765" lon="10.7839717"><ele>442.0</ele><time>2026-04-18T13:05:43.568Z</time></trkpt><trkpt lat="43.256755" lon="10.7838583"><ele>442.66666666666663</ele><time>2026-04-18T13:05:44.568Z</time></trkpt><trkpt lat="43.2567483" lon="10.7837533"><ele>443.3333333333333</ele><time>2026-04-18T13:05:45.568Z</time></trkpt><trkpt lat="43.2567433" lon="10.7836483"><ele>444.0</ele><time>2026-04-18T13:05:46.568Z</time></trkpt><trkpt lat="43.2567383" lon="10.7835417"><ele>444.8333333333333</ele><time>2026-04-18T13:05:47.568Z</time></trkpt><trkpt lat="43.2567267" lon="10.7834483"><ele>445.66666666666663</ele><time>2026-04-18T13:05:48.569Z</time></trkpt><trkpt lat="43.256705" lon="10.7833483"><ele>446.5</ele><time>2026-04-18T13:05:49.568Z</time></trkpt><trkpt lat="43.2566733" lon="10.7832517"><ele>447.3333333333333</ele><time>2026-04-18T13:05:50.568Z</time></trkpt><trkpt lat="43.2566367" lon="10.7831767"><ele>448.16666666666663</ele><time>2026-04-18T13:05:51.568Z</time></trkpt><trkpt lat="43.2565283" lon="10.7831033"><ele>449.0</ele><time>2026-04-18T13:05:53.568Z</time></trkpt><trkpt lat="43.256455" lon="10.78309"><ele>449.3333333333333</ele><time>2026-04-18T13:05:54.568Z</time></trkpt><trkpt lat="43.2563783" lon="10.7830833"><ele>449.66666666666663</ele><time>2026-04-18T13:05:55.568Z</time></trkpt><trkpt lat="43.2563017" lon="10.7830767"><ele>450.0</ele><time>2026-04-18T13:05:56.568Z</time></trkpt><trkpt lat="43.2562217" lon="10.7830767"><ele>450.33333333333337</ele><time>2026-04-18T13:05:57.568Z</time></trkpt><trkpt lat="43.2561467" lon="10.7830783"><ele>450.6666666666667</ele><time>2026-04-18T13:05:58.568Z</time></trkpt><trkpt lat="43.25607" lon="10.7830833"><ele>451.0</ele><time>2026-04-18T13:05:59.568Z</time></trkpt><trkpt lat="43.2559833" lon="10.7830733"><ele>451.00000000000006</ele><time>2026-04-18T13:06:00.568Z</time></trkpt><trkpt lat="43.255905" lon="10.7830467"><ele>451.0</ele><time>2026-04-18T13:06:01.568Z</time></trkpt><trkpt lat="43.25584" lon="10.7830083"><ele>451.0</ele><time>2026-04-18T13:06:02.569Z</time></trkpt><trkpt lat="43.255775" lon="10.7829617"><ele>451.0</ele><time>2026-04-18T13:06:03.568Z</time></trkpt><trkpt lat="43.2557083" lon="10.782905"><ele>451.00000000000006</ele><time>2026-04-18T13:06:04.569Z</time></trkpt><trkpt lat="43.25565" lon="10.7828283"><ele>451.0</ele><time>2026-04-18T13:06:05.568Z</time></trkpt><trkpt lat="43.2555883" lon="10.7827367"><ele>451.0</ele><time>2026-04-18T13:06:06.568Z</time></trkpt><trkpt lat="43.2555267" lon="10.7826467"><ele>451.0</ele><time>2026-04-18T13:06:07.568Z</time></trkpt><trkpt lat="43.255465" lon="10.7825667"><ele>451.0</ele><time>2026-04-18T13:06:08.568Z</time></trkpt><trkpt lat="43.2554217" lon="10.7824867"><ele>451.0</ele><time>2026-04-18T13:06:09.568Z</time></trkpt><trkpt lat="43.2553817" lon="10.7824117"><ele>451.0</ele><time>2026-04-18T13:06:10.568Z</time></trkpt><trkpt lat="43.2553467" lon="10.78214"><ele>451.00000000000006</ele><time>2026-04-18T13:06:13.568Z</time></trkpt><trkpt lat="43.2553383" lon="10.7820467"><ele>451.0</ele><time>2026-04-18T13:06:14.568Z</time></trkpt><trkpt lat="43.2553233" lon="10.78193"><ele>451.0</ele><time>2026-04-18T13:06:15.568Z</time></trkpt><trkpt lat="43.255295" lon="10.7818183"><ele>451.0</ele><time>2026-04-18T13:06:16.568Z</time></trkpt><trkpt lat="43.2552567" lon="10.781715"><ele>451.00000000000006</ele><time>2026-04-18T13:06:17.569Z</time></trkpt><trkpt lat="43.2551967" lon="10.7816117"><ele>451.0</ele><time>2026-04-18T13:06:18.568Z</time></trkpt><trkpt lat="43.2551367" lon="10.78151"><ele>452.1666666666667</ele><time>2026-04-18T13:06:19.568Z</time></trkpt><trkpt lat="43.2550767" lon="10.78141"><ele>453.33333333333337</ele><time>2026-04-18T13:06:20.568Z</time></trkpt><trkpt lat="43.2550117" lon="10.7813167"><ele>454.5</ele><time>2026-04-18T13:06:21.568Z</time></trkpt><trkpt lat="43.254945" lon="10.7812417"><ele>455.66666666666663</ele><time>2026-04-18T13:06:22.568Z</time></trkpt><trkpt lat="43.25488" lon="10.7811783"><ele>456.8333333333333</ele><time>2026-04-18T13:06:23.568Z</time></trkpt><trkpt lat="43.2548083" lon="10.7811367"><ele>458.0</ele><time>2026-04-18T13:06:24.568Z</time></trkpt><trkpt lat="43.2547367" lon="10.78111"><ele>457.99999999999994</ele><time>2026-04-18T13:06:25.568Z</time></trkpt><trkpt lat="43.2546667" lon="10.7811117"><ele>458.0</ele><time>2026-04-18T13:06:26.568Z</time></trkpt><trkpt lat="43.2545917" lon="10.7811283"><ele>458.0</ele><time>2026-04-18T13:06:27.568Z</time></trkpt><trkpt lat="43.2545217" lon="10.7811633"><ele>458.0</ele><time>2026-04-18T13:06:28.568Z</time></trkpt><trkpt lat="43.2544467" lon="10.78121"><ele>457.99999999999994</ele><time>2026-04-18T13:06:29.568Z</time></trkpt><trkpt lat="43.2543683" lon="10.7812433"><ele>458.0</ele><time>2026-04-18T13:06:30.568Z</time></trkpt><trkpt lat="43.254285" lon="10.78126"><ele>458.0</ele><time>2026-04-18T13:06:31.568Z</time></trkpt><trkpt lat="43.2541983" lon="10.7812467"><ele>457.99999999999994</ele><time>2026-04-18T13:06:32.568Z</time></trkpt><trkpt lat="43.2541083" lon="10.7812067"><ele>457.99999999999994</ele><time>2026-04-18T13:06:33.568Z</time></trkpt><trkpt lat="43.2540183" lon="10.7811317"><ele>458.0</ele><time>2026-04-18T13:06:34.569Z</time></trkpt><trkpt lat="43.253915" lon="10.7810433"><ele>458.0</ele><time>2026-04-18T13:06:35.568Z</time></trkpt><trkpt lat="43.253815" lon="10.7809483"><ele>458.79999999999995</ele><time>2026-04-18T13:06:36.568Z</time></trkpt><trkpt lat="43.2537417" lon="10.7808567"><ele>459.59999999999997</ele><time>2026-04-18T13:06:37.568Z</time></trkpt><trkpt lat="43.253685" lon="10.7807683"><ele>460.40000000000003</ele><time>2026-04-18T13:06:38.568Z</time></trkpt><trkpt lat="43.253635" lon="10.7806633"><ele>461.20000000000005</ele><time>2026-04-18T13:06:39.568Z</time></trkpt><trkpt lat="43.2535867" lon="10.78054"><ele>462.0</ele><time>2026-04-18T13:06:40.569Z</time></trkpt><trkpt lat="43.2535417" lon="10.7804083"><ele>462.0</ele><time>2026-04-18T13:06:41.568Z</time></trkpt><trkpt lat="43.25349" lon="10.78028"><ele>462.0</ele><time>2026-04-18T13:06:42.569Z</time></trkpt><trkpt lat="43.2534367" lon="10.780155"><ele>462.0</ele><time>2026-04-18T13:06:43.568Z</time></trkpt><trkpt lat="43.2532233" lon="10.7798333"><ele>461.5</ele><time>2026-04-18T13:06:46.568Z</time></trkpt><trkpt lat="43.25313" lon="10.7797317"><ele>461.0</ele><time>2026-04-18T13:06:47.569Z</time></trkpt><trkpt lat="43.2530367" lon="10.7796217"><ele>460.5</ele><time>2026-04-18T13:06:48.569Z</time></trkpt><trkpt lat="43.25294" lon="10.7795117"><ele>460.0</ele><time>2026-04-18T13:06:49.568Z</time></trkpt><trkpt lat="43.2528433" lon="10.7794133"><ele>463.0</ele><time>2026-04-18T13:06:50.569Z</time></trkpt><trkpt lat="43.2527417" lon="10.7793283"><ele>466.0</ele><time>2026-04-18T13:06:51.568Z</time></trkpt><trkpt lat="43.2526433" lon="10.779255"><ele>469.0</ele><time>2026-04-18T13:06:52.568Z</time></trkpt><trkpt lat="43.2525567" lon="10.77918"><ele>472.0</ele><time>2026-04-18T13:06:53.569Z</time></trkpt><trkpt lat="43.2524617" lon="10.7790983"><ele>475.0</ele><time>2026-04-18T13:06:54.568Z</time></trkpt><trkpt lat="43.25236" lon="10.7790117"><ele>472.75</ele><time>2026-04-18T13:06:55.569Z</time></trkpt><trkpt lat="43.25226" lon="10.7789183"><ele>470.5</ele><time>2026-04-18T13:06:56.569Z</time></trkpt><trkpt lat="43.2521533" lon="10.77883"><ele>468.25</ele><time>2026-04-18T13:06:57.568Z</time></trkpt><trkpt lat="43.2520383" lon="10.77873"><ele>466.0</ele><time>2026-04-18T13:06:58.568Z</time></trkpt><trkpt lat="43.25191" lon="10.77863"><ele>466.0</ele><time>2026-04-18T13:06:59.568Z</time></trkpt><trkpt lat="43.251775" lon="10.7785233"><ele>466.0</ele><time>2026-04-18T13:07:00.568Z</time></trkpt><trkpt lat="43.2516517" lon="10.7784333"><ele>466.0</ele><time>2026-04-18T13:07:01.568Z</time></trkpt><trkpt lat="43.2515283" lon="10.7783517"><ele>466.0</ele><time>2026-04-18T13:07:02.568Z</time></trkpt><trkpt lat="43.25142" lon="10.7782733"><ele>467.20000000000005</ele><time>2026-04-18T13:07:03.568Z</time></trkpt><trkpt lat="43.2513167" lon="10.7782067"><ele>468.40000000000003</ele><time>2026-04-18T13:07:04.568Z</time></trkpt><trkpt lat="43.251225" lon="10.7781517"><ele>469.6</ele><time>2026-04-18T13:07:05.568Z</time></trkpt><trkpt lat="43.251135" lon="10.7781"><ele>470.8</ele><time>2026-04-18T13:07:06.568Z</time></trkpt><trkpt lat="43.251065" lon="10.7780583"><ele>472.0</ele><time>2026-04-18T13:07:07.568Z</time></trkpt><trkpt lat="43.2510033" lon="10.77802"><ele>472.00000000000006</ele><time>2026-04-18T13:07:08.568Z</time></trkpt><trkpt lat="43.25089" lon="10.777975"><ele>472.0</ele><time>2026-04-18T13:07:10.568Z</time></trkpt><trkpt lat="43.2508217" lon="10.77798"><ele>472.0</ele><time>2026-04-18T13:07:11.568Z</time></trkpt><trkpt lat="43.2507483" lon="10.7779933"><ele>472.0</ele><time>2026-04-18T13:07:12.568Z</time></trkpt><trkpt lat="43.250665" lon="10.7780217"><ele>472.00000000000006</ele><time>2026-04-18T13:07:13.568Z</time></trkpt><trkpt lat="43.2505817" lon="10.7780467"><ele>472.0</ele><time>2026-04-18T13:07:14.569Z</time></trkpt><trkpt lat="43.2504917" lon="10.778075"><ele>473.33333333333337</ele><time>2026-04-18T13:07:15.568Z</time></trkpt><trkpt lat="43.2503967" lon="10.778095"><ele>474.66666666666663</ele><time>2026-04-18T13:07:16.568Z</time></trkpt><trkpt lat="43.2501117" lon="10.778085"><ele>476.0</ele><time>2026-04-18T13:07:19.568Z</time></trkpt><trkpt lat="43.25003" lon="10.7780883"><ele>476.0</ele><time>2026-04-18T13:07:20.568Z</time></trkpt><trkpt lat="43.2499567" lon="10.7780867"><ele>476.0</ele><time>2026-04-18T13:07:21.568Z</time></trkpt><trkpt lat="43.24989" lon="10.778075"><ele>476.0</ele><time>2026-04-18T13:07:22.569Z</time></trkpt><trkpt lat="43.2497817" lon="10.777995"><ele>476.0</ele><time>2026-04-18T13:07:24.568Z</time></trkpt><trkpt lat="43.2496833" lon="10.7778733"><ele>476.0</ele><time>2026-04-18T13:07:26.568Z</time></trkpt><trkpt lat="43.2496383" lon="10.777795"><ele>480.4</ele><time>2026-04-18T13:07:27.568Z</time></trkpt><trkpt lat="43.249585" lon="10.77771"><ele>484.8</ele><time>2026-04-18T13:07:28.568Z</time></trkpt><trkpt lat="43.249525" lon="10.7776283"><ele>489.19999999999993</ele><time>2026-04-18T13:07:29.568Z</time></trkpt><trkpt lat="43.2494567" lon="10.777545"><ele>493.59999999999997</ele><time>2026-04-18T13:07:30.568Z</time></trkpt><trkpt lat="43.2493883" lon="10.77745"><ele>498.0</ele><time>2026-04-18T13:07:31.568Z</time></trkpt><trkpt lat="43.2493217" lon="10.7773417"><ele>498.0</ele><time>2026-04-18T13:07:32.568Z</time></trkpt><trkpt lat="43.2492633" lon="10.7772267"><ele>497.99999999999994</ele><time>2026-04-18T13:07:33.568Z</time></trkpt><trkpt lat="43.2492133" lon="10.7771"><ele>497.99999999999994</ele><time>2026-04-18T13:07:34.568Z</time></trkpt><trkpt lat="43.249175" lon="10.7769767"><ele>498.0</ele><time>2026-04-18T13:07:35.568Z</time></trkpt><trkpt lat="43.2491483" lon="10.7768617"><ele>498.0</ele><time>2026-04-18T13:07:36.569Z</time></trkpt><trkpt lat="43.2491217" lon="10.776765"><ele>497.2857142857143</ele><time>2026-04-18T13:07:37.568Z</time></trkpt><trkpt lat="43.2491" lon="10.7766783"><ele>496.57142857142856</ele><time>2026-04-18T13:07:38.568Z</time></trkpt><trkpt lat="43.2490733" lon="10.7766"><ele>495.85714285714283</ele><time>2026-04-18T13:07:39.568Z</time></trkpt><trkpt lat="43.249035" lon="10.7765267"><ele>495.1428571428571</ele><time>2026-04-18T13:07:40.568Z</time></trkpt><trkpt lat="43.2489867" lon="10.7764667"><ele>494.42857142857144</ele><time>2026-04-18T13:07:41.568Z</time></trkpt><trkpt lat="43.2489333" lon="10.776405"><ele>493.71428571428567</ele><time>2026-04-18T13:07:42.568Z</time></trkpt><trkpt lat="43.248865" lon="10.77633"><ele>493.0</ele><time>2026-04-18T13:07:43.568Z</time></trkpt><trkpt lat="43.2488" lon="10.77624"><ele>495.0</ele><time>2026-04-18T13:07:44.568Z</time></trkpt><trkpt lat="43.2487417" lon="10.7761417"><ele>496.99999999999994</ele><time>2026-04-18T13:07:45.569Z</time></trkpt><trkpt lat="43.2486933" lon="10.7760233"><ele>498.99999999999994</ele><time>2026-04-18T13:07:46.568Z</time></trkpt><trkpt lat="43.2486517" lon="10.7759217"><ele>501.0</ele><time>2026-04-18T13:07:47.568Z</time></trkpt><trkpt lat="43.2485917" lon="10.7758067"><ele>503.0</ele><time>2026-04-18T13:07:49.568Z</time></trkpt><trkpt lat="43.2484367" lon="10.7757467"><ele>502.99999999999994</ele><time>2026-04-18T13:07:52.567Z</time></trkpt><trkpt lat="43.2483733" lon="10.7757767"><ele>503.0</ele><time>2026-04-18T13:07:53.567Z</time></trkpt><trkpt lat="43.2483133" lon="10.77583"><ele>503.0</ele><time>2026-04-18T13:07:54.567Z</time></trkpt><trkpt lat="43.2481983" lon="10.7758983"><ele>503.0</ele><time>2026-04-18T13:07:56.568Z</time></trkpt><trkpt lat="43.2481183" lon="10.775925"><ele>502.99999999999994</ele><time>2026-04-18T13:07:57.567Z</time></trkpt><trkpt lat="43.24802" lon="10.7759283"><ele>503.0</ele><time>2026-04-18T13:07:58.568Z</time></trkpt><trkpt lat="43.2479333" lon="10.775925"><ele>503.3333333333333</ele><time>2026-04-18T13:07:59.567Z</time></trkpt><trkpt lat="43.2478417" lon="10.7759167"><ele>503.66666666666663</ele><time>2026-04-18T13:08:00.567Z</time></trkpt><trkpt lat="43.24776" lon="10.775915"><ele>504.0</ele><time>2026-04-18T13:08:01.567Z</time></trkpt><trkpt lat="43.247685" lon="10.77592"><ele>504.33333333333337</ele><time>2026-04-18T13:08:02.567Z</time></trkpt><trkpt lat="43.247605" lon="10.7759333"><ele>504.6666666666667</ele><time>2026-04-18T13:08:03.567Z</time></trkpt><trkpt lat="43.2475167" lon="10.7759517"><ele>505.0</ele><time>2026-04-18T13:08:04.567Z</time></trkpt><trkpt lat="43.247425" lon="10.77598"><ele>505.00000000000006</ele><time>2026-04-18T13:08:05.567Z</time></trkpt><trkpt lat="43.24734" lon="10.77601"><ele>505.0</ele><time>2026-04-18T13:08:06.567Z</time></trkpt><trkpt lat="43.24726" lon="10.7760467"><ele>505.0</ele><time>2026-04-18T13:08:07.567Z</time></trkpt><trkpt lat="43.2471817" lon="10.776065"><ele>505.0</ele><time>2026-04-18T13:08:08.567Z</time></trkpt><trkpt lat="43.24711" lon="10.7760967"><ele>505.00000000000006</ele><time>2026-04-18T13:08:09.567Z</time></trkpt><trkpt lat="43.2470383" lon="10.776125"><ele>505.0</ele><time>2026-04-18T13:08:10.567Z</time></trkpt><trkpt lat="43.2469683" lon="10.77614"><ele>505.83333333333337</ele><time>2026-04-18T13:08:11.567Z</time></trkpt><trkpt lat="43.246895" lon="10.77614"><ele>506.6666666666667</ele><time>2026-04-18T13:08:12.567Z</time></trkpt><trkpt lat="43.2468283" lon="10.7761067"><ele>507.5</ele><time>2026-04-18T13:08:13.567Z</time></trkpt><trkpt lat="43.2467533" lon="10.776045"><ele>508.33333333333337</ele><time>2026-04-18T13:08:14.567Z</time></trkpt><trkpt lat="43.24668" lon="10.775945"><ele>509.1666666666667</ele><time>2026-04-18T13:08:15.567Z</time></trkpt><trkpt lat="43.2466083" lon="10.7758383"><ele>510.0</ele><time>2026-04-18T13:08:16.567Z</time></trkpt><trkpt lat="43.2465217" lon="10.7757233"><ele>510.8</ele><time>2026-04-18T13:08:17.567Z</time></trkpt><trkpt lat="43.2464383" lon="10.77563"><ele>511.6</ele><time>2026-04-18T13:08:18.567Z</time></trkpt><trkpt lat="43.2463617" lon="10.7755433"><ele>512.4</ele><time>2026-04-18T13:08:19.567Z</time></trkpt><trkpt lat="43.2463017" lon="10.775435"><ele>513.2</ele><time>2026-04-18T13:08:20.567Z</time></trkpt><trkpt lat="43.2462483" lon="10.7753317"><ele>514.0</ele><time>2026-04-18T13:08:21.567Z</time></trkpt><trkpt lat="43.246215" lon="10.7752283"><ele>511.75</ele><time>2026-04-18T13:08:22.567Z</time></trkpt><trkpt lat="43.246095" lon="10.7750217"><ele>509.5</ele><time>2026-04-18T13:08:25.567Z</time></trkpt><trkpt lat="43.2459983" lon="10.774955"><ele>507.25</ele><time>2026-04-18T13:08:27.567Z</time></trkpt><trkpt lat="43.2458667" lon="10.7749483"><ele>505.0</ele><time>2026-04-18T13:08:29.568Z</time></trkpt><trkpt lat="43.2457867" lon="10.7749817"><ele>505.00000000000006</ele><time>2026-04-18T13:08:30.568Z</time></trkpt><trkpt lat="43.245715" lon="10.7750217"><ele>505.0</ele><time>2026-04-18T13:08:31.567Z</time></trkpt><trkpt lat="43.2456517" lon="10.77505"><ele>505.0</ele><time>2026-04-18T13:08:32.567Z</time></trkpt><trkpt lat="43.24558" lon="10.7750767"><ele>505.0</ele><time>2026-04-18T13:08:34.567Z</time></trkpt><trkpt lat="43.2454983" lon="10.7750917"><ele>505.00000000000006</ele><time>2026-04-18T13:08:36.567Z</time></trkpt><trkpt lat="43.2453917" lon="10.7750383"><ele>505.0</ele><time>2026-04-18T13:08:38.567Z</time></trkpt><trkpt lat="43.2453317" lon="10.7750067"><ele>504.6</ele><time>2026-04-18T13:08:39.567Z</time></trkpt><trkpt lat="43.2452233" lon="10.77493"><ele>504.2</ele><time>2026-04-18T13:08:41.567Z</time></trkpt><trkpt lat="43.2451583" lon="10.7748783"><ele>503.79999999999995</ele><time>2026-04-18T13:08:42.567Z</time></trkpt><trkpt lat="43.245085" lon="10.7748267"><ele>503.4</ele><time>2026-04-18T13:08:43.567Z</time></trkpt><trkpt lat="43.2450033" lon="10.7747717"><ele>503.0</ele><time>2026-04-18T13:08:44.567Z</time></trkpt><trkpt lat="43.24492" lon="10.7747133"><ele>503.0</ele><time>2026-04-18T13:08:45.567Z</time></trkpt><trkpt lat="43.2448283" lon="10.7746467"><ele>502.99999999999994</ele><time>2026-04-18T13:08:46.567Z</time></trkpt><trkpt lat="43.2447433" lon="10.7745833"><ele>502.99999999999994</ele><time>2026-04-18T13:08:47.567Z</time></trkpt><trkpt lat="43.2446617" lon="10.7745233"><ele>503.0</ele><time>2026-04-18T13:08:48.567Z</time></trkpt><trkpt lat="43.2445783" lon="10.7744617"><ele>503.0</ele><time>2026-04-18T13:08:49.567Z</time></trkpt><trkpt lat="43.2444983" lon="10.774405"><ele>502.66666666666663</ele><time>2026-04-18T13:08:50.567Z</time></trkpt><trkpt lat="43.2444167" lon="10.7743517"><ele>502.3333333333333</ele><time>2026-04-18T13:08:51.567Z</time></trkpt><trkpt lat="43.2443383" lon="10.774295"><ele>502.0</ele><time>2026-04-18T13:08:52.567Z</time></trkpt><trkpt lat="43.2442567" lon="10.7742317"><ele>501.66666666666663</ele><time>2026-04-18T13:08:53.567Z</time></trkpt><trkpt lat="43.2441883" lon="10.774165"><ele>501.3333333333333</ele><time>2026-04-18T13:08:54.567Z</time></trkpt><trkpt lat="43.2441267" lon="10.7740917"><ele>501.0</ele><time>2026-04-18T13:08:55.568Z</time></trkpt><trkpt lat="43.24401" lon="10.77375"><ele>501.0</ele><time>2026-04-18T13:08:58.567Z</time></trkpt><trkpt lat="43.2439883" lon="10.7736183"><ele>501.0</ele><time>2026-04-18T13:08:59.567Z</time></trkpt><trkpt lat="43.2439683" lon="10.7735"><ele>501.0</ele><time>2026-04-18T13:09:00.567Z</time></trkpt><trkpt lat="43.2439383" lon="10.7733867"><ele>501.0</ele><time>2026-04-18T13:09:01.567Z</time></trkpt><trkpt lat="43.2439" lon="10.7732883"><ele>501.0</ele><time>2026-04-18T13:09:02.567Z</time></trkpt><trkpt lat="43.2438383" lon="10.7731983"><ele>501.0</ele><time>2026-04-18T13:09:03.567Z</time></trkpt><trkpt lat="43.2437667" lon="10.77311"><ele>501.4</ele><time>2026-04-18T13:09:04.567Z</time></trkpt><trkpt lat="43.2437" lon="10.7730333"><ele>501.8</ele><time>2026-04-18T13:09:05.567Z</time></trkpt><trkpt lat="43.24365" lon="10.7729483"><ele>502.19999999999993</ele><time>2026-04-18T13:09:06.567Z</time></trkpt><trkpt lat="43.2436183" lon="10.7728467"><ele>502.59999999999997</ele><time>2026-04-18T13:09:07.567Z</time></trkpt><trkpt lat="43.2435967" lon="10.772715"><ele>503.0</ele><time>2026-04-18T13:09:08.567Z</time></trkpt><trkpt lat="43.2436" lon="10.7725667"><ele>503.0</ele><time>2026-04-18T13:09:09.567Z</time></trkpt><trkpt lat="43.2436133" lon="10.77241"><ele>502.99999999999994</ele><time>2026-04-18T13:09:10.567Z</time></trkpt><trkpt lat="43.2436183" lon="10.772245"><ele>502.99999999999994</ele><time>2026-04-18T13:09:11.567Z</time></trkpt><trkpt lat="43.2436267" lon="10.7721"><ele>503.0</ele><time>2026-04-18T13:09:12.567Z</time></trkpt><trkpt lat="43.2436383" lon="10.7719683"><ele>503.0</ele><time>2026-04-18T13:09:13.567Z</time></trkpt><trkpt lat="43.243645" lon="10.771855"><ele>502.99999999999994</ele><time>2026-04-18T13:09:14.567Z</time></trkpt><trkpt lat="43.2436383" lon="10.7717633"><ele>503.0</ele><time>2026-04-18T13:09:15.568Z</time></trkpt><trkpt lat="43.2436317" lon="10.7716717"><ele>503.0</ele><time>2026-04-18T13:09:16.568Z</time></trkpt><trkpt lat="43.2435667" lon="10.7715417"><ele>503.0</ele><time>2026-04-18T13:09:18.567Z</time></trkpt><trkpt lat="43.2435033" lon="10.771495"><ele>502.99999999999994</ele><time>2026-04-18T13:09:19.567Z</time></trkpt><trkpt lat="43.2434233" lon="10.7714733"><ele>503.0</ele><time>2026-04-18T13:09:20.567Z</time></trkpt><trkpt lat="43.2433417" lon="10.77147"><ele>503.0</ele><time>2026-04-18T13:09:21.567Z</time></trkpt><trkpt lat="43.2432633" lon="10.771465"><ele>503.00000000000006</ele><time>2026-04-18T13:09:22.567Z</time></trkpt><trkpt lat="43.243195" lon="10.7714383"><ele>503.0</ele><time>2026-04-18T13:09:23.567Z</time></trkpt><trkpt lat="43.2431367" lon="10.7713983"><ele>503.0</ele><time>2026-04-18T13:09:24.568Z</time></trkpt><trkpt lat="43.24309" lon="10.7713367"><ele>503.00000000000006</ele><time>2026-04-18T13:09:25.567Z</time></trkpt><trkpt lat="43.2430533" lon="10.7712483"><ele>503.0</ele><time>2026-04-18T13:09:26.567Z</time></trkpt><trkpt lat="43.2430183" lon="10.77114"><ele>503.0</ele><time>2026-04-18T13:09:27.567Z</time></trkpt><trkpt lat="43.2429417" lon="10.77073"><ele>503.59999999999997</ele><time>2026-04-18T13:09:30.567Z</time></trkpt><trkpt lat="43.2429167" lon="10.7705917"><ele>504.19999999999993</ele><time>2026-04-18T13:09:31.567Z</time></trkpt><trkpt lat="43.242875" lon="10.77045"><ele>504.8</ele><time>2026-04-18T13:09:32.567Z</time></trkpt><trkpt lat="43.2428167" lon="10.7703067"><ele>505.4</ele><time>2026-04-18T13:09:33.567Z</time></trkpt><trkpt lat="43.242765" lon="10.770175"><ele>506.0</ele><time>2026-04-18T13:09:34.567Z</time></trkpt><trkpt lat="43.2427167" lon="10.77004"><ele>503.66666666666663</ele><time>2026-04-18T13:09:35.567Z</time></trkpt><trkpt lat="43.2426883" lon="10.7699167"><ele>501.3333333333333</ele><time>2026-04-18T13:09:36.567Z</time></trkpt><trkpt lat="43.2426517" lon="10.769795"><ele>499.0</ele><time>2026-04-18T13:09:37.567Z</time></trkpt><trkpt lat="43.2426267" lon="10.769675"><ele>496.66666666666663</ele><time>2026-04-18T13:09:38.567Z</time></trkpt><trkpt lat="43.242615" lon="10.76957"><ele>494.3333333333333</ele><time>2026-04-18T13:09:39.567Z</time></trkpt><trkpt lat="43.2426067" lon="10.76948"><ele>492.0</ele><time>2026-04-18T13:09:40.568Z</time></trkpt><trkpt lat="43.2425917" lon="10.7693917"><ele>489.25</ele><time>2026-04-18T13:09:41.567Z</time></trkpt><trkpt lat="43.242545" lon="10.7692283"><ele>486.5</ele><time>2026-04-18T13:09:43.567Z</time></trkpt><trkpt lat="43.2424533" lon="10.7691067"><ele>483.75</ele><time>2026-04-18T13:09:45.567Z</time></trkpt><trkpt lat="43.2423683" lon="10.7690533"><ele>481.0</ele><time>2026-04-18T13:09:46.567Z</time></trkpt><trkpt lat="43.2422717" lon="10.76901"><ele>481.0</ele><time>2026-04-18T13:09:47.567Z</time></trkpt><trkpt lat="43.2421683" lon="10.7689683"><ele>481.0</ele><time>2026-04-18T13:09:48.567Z</time></trkpt><trkpt lat="43.2420683" lon="10.7689333"><ele>481.0</ele><time>2026-04-18T13:09:49.567Z</time></trkpt><trkpt lat="43.241965" lon="10.7688917"><ele>481.0</ele><time>2026-04-18T13:09:50.567Z</time></trkpt><trkpt lat="43.2418667" lon="10.768855"><ele>481.0</ele><time>2026-04-18T13:09:51.567Z</time></trkpt><trkpt lat="43.241785" lon="10.7688217"><ele>480.99999999999994</ele><time>2026-04-18T13:09:52.567Z</time></trkpt><trkpt lat="43.241715" lon="10.7688"><ele>481.0</ele><time>2026-04-18T13:09:53.567Z</time></trkpt><trkpt lat="43.2416383" lon="10.7687783"><ele>480.99999999999994</ele><time>2026-04-18T13:09:54.567Z</time></trkpt><trkpt lat="43.2415683" lon="10.7687683"><ele>480.99999999999994</ele><time>2026-04-18T13:09:55.567Z</time></trkpt><trkpt lat="43.241495" lon="10.7687733"><ele>481.0</ele><time>2026-04-18T13:09:56.568Z</time></trkpt><trkpt lat="43.2414233" lon="10.768775"><ele>480.99999999999994</ele><time>2026-04-18T13:09:57.567Z</time></trkpt><trkpt lat="43.241345" lon="10.7687633"><ele>480.99999999999994</ele><time>2026-04-18T13:09:58.567Z</time></trkpt><trkpt lat="43.2412533" lon="10.7687367"><ele>478.0</ele><time>2026-04-18T13:09:59.567Z</time></trkpt><trkpt lat="43.2411683" lon="10.768705"><ele>475.0</ele><time>2026-04-18T13:10:00.568Z</time></trkpt><trkpt lat="43.2410817" lon="10.7686667"><ele>472.0</ele><time>2026-04-18T13:10:01.568Z</time></trkpt><trkpt lat="43.2408067" lon="10.76852"><ele>470.33333333333337</ele><time>2026-04-18T13:10:04.567Z</time></trkpt><trkpt lat="43.2407333" lon="10.7684833"><ele>468.6666666666667</ele><time>2026-04-18T13:10:05.567Z</time></trkpt><trkpt lat="43.2406733" lon="10.768445"><ele>467.0</ele><time>2026-04-18T13:10:06.567Z</time></trkpt><trkpt lat="43.2406067" lon="10.768415"><ele>465.33333333333337</ele><time>2026-04-18T13:10:08.567Z</time></trkpt><trkpt lat="43.24064" lon="10.7683083"><ele>463.6666666666667</ele><time>2026-04-18T13:10:49.567Z</time></trkpt><trkpt lat="43.24069" lon="10.7681983"><ele>462.0</ele><time>2026-04-18T13:10:52.567Z</time></trkpt><trkpt lat="43.2407033" lon="10.768035"><ele>462.0</ele><time>2026-04-18T13:10:54.567Z</time></trkpt><trkpt lat="43.2407017" lon="10.7679083"><ele>462.00000000000006</ele><time>2026-04-18T13:10:55.567Z</time></trkpt><trkpt lat="43.2407033" lon="10.7677717"><ele>462.00000000000006</ele><time>2026-04-18T13:10:56.567Z</time></trkpt><trkpt lat="43.240715" lon="10.7676317"><ele>462.0</ele><time>2026-04-18T13:10:57.567Z</time></trkpt><trkpt lat="43.2407183" lon="10.7675"><ele>462.0</ele><time>2026-04-18T13:10:58.568Z</time></trkpt><trkpt lat="43.2407333" lon="10.7673683"><ele>461.8</ele><time>2026-04-18T13:10:59.567Z</time></trkpt><trkpt lat="43.240755" lon="10.7672333"><ele>461.6</ele><time>2026-04-18T13:11:00.567Z</time></trkpt><trkpt lat="43.240775" lon="10.7670833"><ele>461.40000000000003</ele><time>2026-04-18T13:11:01.567Z</time></trkpt><trkpt lat="43.2407833" lon="10.76693"><ele>461.20000000000005</ele><time>2026-04-18T13:11:02.567Z</time></trkpt><trkpt lat="43.2408017" lon="10.766785"><ele>461.0</ele><time>2026-04-18T13:11:03.567Z</time></trkpt><trkpt lat="43.2408217" lon="10.7666433"><ele>461.0</ele><time>2026-04-18T13:11:04.567Z</time></trkpt><trkpt lat="43.2408517" lon="10.766515"><ele>461.0</ele><time>2026-04-18T13:11:05.567Z</time></trkpt><trkpt lat="43.2408867" lon="10.76639"><ele>461.0</ele><time>2026-04-18T13:11:06.567Z</time></trkpt><trkpt lat="43.2409233" lon="10.7662533"><ele>461.0</ele><time>2026-04-18T13:11:07.568Z</time></trkpt><trkpt lat="43.240955" lon="10.7661217"><ele>461.0</ele><time>2026-04-18T13:11:08.567Z</time></trkpt><trkpt lat="43.2409783" lon="10.76601"><ele>461.5714285714286</ele><time>2026-04-18T13:11:09.568Z</time></trkpt><trkpt lat="43.2409983" lon="10.7659033"><ele>462.1428571428572</ele><time>2026-04-18T13:11:10.567Z</time></trkpt><trkpt lat="43.2410033" lon="10.765805"><ele>462.7142857142857</ele><time>2026-04-18T13:11:11.567Z</time></trkpt><trkpt lat="43.241" lon="10.7657067"><ele>463.28571428571433</ele><time>2026-04-18T13:11:12.568Z</time></trkpt><trkpt lat="43.2409933" lon="10.765615"><ele>463.8571428571429</ele><time>2026-04-18T13:11:13.567Z</time></trkpt><trkpt lat="43.24098" lon="10.76552"><ele>464.42857142857144</ele><time>2026-04-18T13:11:14.567Z</time></trkpt><trkpt lat="43.240955" lon="10.76542"><ele>465.0</ele><time>2026-04-18T13:11:15.567Z</time></trkpt><trkpt lat="43.2409217" lon="10.7653033"><ele>464.0</ele><time>2026-04-18T13:11:16.568Z</time></trkpt><trkpt lat="43.2408983" lon="10.76519"><ele>463.0</ele><time>2026-04-18T13:11:17.568Z</time></trkpt><trkpt lat="43.240885" lon="10.7650967"><ele>462.0</ele><time>2026-04-18T13:11:18.566Z</time></trkpt><trkpt lat="43.240875" lon="10.7650017"><ele>461.0</ele><time>2026-04-18T13:11:19.566Z</time></trkpt><trkpt lat="43.240865" lon="10.76491"><ele>460.0</ele><time>2026-04-18T13:11:20.566Z</time></trkpt><trkpt lat="43.240845" lon="10.7648233"><ele>459.0</ele><time>2026-04-18T13:11:21.566Z</time></trkpt><trkpt lat="43.2408167" lon="10.7647333"><ele>458.0</ele><time>2026-04-18T13:11:22.566Z</time></trkpt><trkpt lat="43.24071" lon="10.76444"><ele>456.71428571428567</ele><time>2026-04-18T13:11:25.566Z</time></trkpt><trkpt lat="43.2406567" lon="10.7643483"><ele>455.42857142857144</ele><time>2026-04-18T13:11:26.566Z</time></trkpt><trkpt lat="43.2406133" lon="10.7642583"><ele>454.1428571428571</ele><time>2026-04-18T13:11:27.566Z</time></trkpt><trkpt lat="43.2405733" lon="10.764175"><ele>452.85714285714283</ele><time>2026-04-18T13:11:28.566Z</time></trkpt><trkpt lat="43.24053" lon="10.764105"><ele>451.57142857142856</ele><time>2026-04-18T13:11:29.566Z</time></trkpt><trkpt lat="43.2404767" lon="10.76404"><ele>450.2857142857143</ele><time>2026-04-18T13:11:30.566Z</time></trkpt><trkpt lat="43.240425" lon="10.763985"><ele>449.0</ele><time>2026-04-18T13:11:31.566Z</time></trkpt><trkpt lat="43.240315" lon="10.7638967"><ele>452.3333333333333</ele><time>2026-04-18T13:11:33.566Z</time></trkpt><trkpt lat="43.2402567" lon="10.76386"><ele>455.66666666666663</ele><time>2026-04-18T13:11:34.567Z</time></trkpt><trkpt lat="43.2401783" lon="10.7638"><ele>459.0</ele><time>2026-04-18T13:11:36.566Z</time></trkpt><trkpt lat="43.24014" lon="10.7637133"><ele>462.33333333333337</ele><time>2026-04-18T13:11:38.566Z</time></trkpt><trkpt lat="43.2401367" lon="10.76362"><ele>465.6666666666667</ele><time>2026-04-18T13:11:40.566Z</time></trkpt><trkpt lat="43.2401833" lon="10.7635367"><ele>469.0</ele><time>2026-04-18T13:11:42.566Z</time></trkpt><trkpt lat="43.2402617" lon="10.76349"><ele>469.00000000000006</ele><time>2026-04-18T13:11:44.566Z</time></trkpt><trkpt lat="43.2403617" lon="10.7634283"><ele>469.0</ele><time>2026-04-18T13:11:46.566Z</time></trkpt><trkpt lat="43.24047" lon="10.7633633"><ele>469.0</ele><time>2026-04-18T13:11:48.567Z</time></trkpt><trkpt lat="43.2405267" lon="10.7633133"><ele>469.0</ele><time>2026-04-18T13:11:49.566Z</time></trkpt><trkpt lat="43.2405883" lon="10.7632583"><ele>469.00000000000006</ele><time>2026-04-18T13:11:50.566Z</time></trkpt><trkpt lat="43.240655" lon="10.7632133"><ele>469.0</ele><time>2026-04-18T13:11:51.566Z</time></trkpt><trkpt lat="43.2407167" lon="10.7631733"><ele>463.33333333333337</ele><time>2026-04-18T13:11:52.566Z</time></trkpt><trkpt lat="43.2408217" lon="10.7630617"><ele>457.66666666666663</ele><time>2026-04-18T13:11:54.567Z</time></trkpt><trkpt lat="43.2408783" lon="10.76298"><ele>452.0</ele><time>2026-04-18T13:11:55.566Z</time></trkpt><trkpt lat="43.2410683" lon="10.7627067"><ele>454.6</ele><time>2026-04-18T13:11:58.566Z</time></trkpt><trkpt lat="43.2411367" lon="10.7626"><ele>457.20000000000005</ele><time>2026-04-18T13:12:00.567Z</time></trkpt><trkpt lat="43.2411583" lon="10.7624667"><ele>459.8</ele><time>2026-04-18T13:12:02.566Z</time></trkpt><trkpt lat="43.2411617" lon="10.7623683"><ele>462.4</ele><time>2026-04-18T13:12:03.566Z</time></trkpt><trkpt lat="43.2411533" lon="10.7622467"><ele>465.0</ele><time>2026-04-18T13:12:04.566Z</time></trkpt><trkpt lat="43.2411467" lon="10.7621267"><ele>465.0</ele><time>2026-04-18T13:12:05.566Z</time></trkpt><trkpt lat="43.24115" lon="10.7620233"><ele>465.0</ele><time>2026-04-18T13:12:06.566Z</time></trkpt><trkpt lat="43.2411633" lon="10.7619367"><ele>465.0</ele><time>2026-04-18T13:12:07.566Z</time></trkpt><trkpt lat="43.2412333" lon="10.76179"><ele>465.0</ele><time>2026-04-18T13:12:09.566Z</time></trkpt><trkpt lat="43.2412733" lon="10.761715"><ele>465.0</ele><time>2026-04-18T13:12:10.566Z</time></trkpt><trkpt lat="43.241315" lon="10.761635"><ele>465.0</ele><time>2026-04-18T13:12:11.567Z</time></trkpt><trkpt lat="43.2413617" lon="10.7615633"><ele>465.5</ele><time>2026-04-18T13:12:12.566Z</time></trkpt><trkpt lat="43.24141" lon="10.7615067"><ele>466.0</ele><time>2026-04-18T13:12:13.567Z</time></trkpt><trkpt lat="43.24149" lon="10.7614367"><ele>466.5</ele><time>2026-04-18T13:12:15.566Z</time></trkpt><trkpt lat="43.2415317" lon="10.761355"><ele>467.0</ele><time>2026-04-18T13:12:17.566Z</time></trkpt><trkpt lat="43.2415283" lon="10.76126"><ele>467.5</ele><time>2026-04-18T13:12:19.567Z</time></trkpt><trkpt lat="43.24148" lon="10.761155"><ele>468.0</ele><time>2026-04-18T13:12:21.566Z</time></trkpt><trkpt lat="43.2413933" lon="10.76103"><ele>468.0</ele><time>2026-04-18T13:12:23.566Z</time></trkpt><trkpt lat="43.24133" lon="10.7608933"><ele>467.99999999999994</ele><time>2026-04-18T13:12:25.566Z</time></trkpt><trkpt lat="43.2412933" lon="10.7608117"><ele>467.99999999999994</ele><time>2026-04-18T13:12:26.566Z</time></trkpt><trkpt lat="43.24126" lon="10.7607183"><ele>468.0</ele><time>2026-04-18T13:12:27.566Z</time></trkpt><trkpt lat="43.24123" lon="10.760625"><ele>468.0</ele><time>2026-04-18T13:12:28.566Z</time></trkpt><trkpt lat="43.2411867" lon="10.7603033"><ele>468.0</ele><time>2026-04-18T13:12:31.567Z</time></trkpt><trkpt lat="43.2411867" lon="10.7602033"><ele>468.00000000000006</ele><time>2026-04-18T13:12:32.566Z</time></trkpt><trkpt lat="43.2411883" lon="10.760105"><ele>468.0</ele><time>2026-04-18T13:12:33.566Z</time></trkpt><trkpt lat="43.2411867" lon="10.7600133"><ele>468.0</ele><time>2026-04-18T13:12:34.566Z</time></trkpt><trkpt lat="43.2411883" lon="10.759925"><ele>468.00000000000006</ele><time>2026-04-18T13:12:35.566Z</time></trkpt><trkpt lat="43.2411917" lon="10.7598383"><ele>468.0</ele><time>2026-04-18T13:12:36.566Z</time></trkpt><trkpt lat="43.2411967" lon="10.75975"><ele>468.0</ele><time>2026-04-18T13:12:37.566Z</time></trkpt><trkpt lat="43.241205" lon="10.7596633"><ele>465.6666666666667</ele><time>2026-04-18T13:12:38.566Z</time></trkpt><trkpt lat="43.241215" lon="10.7595017"><ele>463.33333333333337</ele><time>2026-04-18T13:12:40.567Z</time></trkpt><trkpt lat="43.2412133" lon="10.7594117"><ele>461.0</ele><time>2026-04-18T13:12:41.566Z</time></trkpt><trkpt lat="43.2412067" lon="10.759325"><ele>458.6666666666667</ele><time>2026-04-18T13:12:42.566Z</time></trkpt><trkpt lat="43.2411633" lon="10.7591883"><ele>456.33333333333337</ele><time>2026-04-18T13:12:44.566Z</time></trkpt><trkpt lat="43.2411317" lon="10.7590817"><ele>454.0</ele><time>2026-04-18T13:12:46.566Z</time></trkpt><trkpt lat="43.2411467" lon="10.7589833"><ele>454.0</ele><time>2026-04-18T13:12:49.566Z</time></trkpt><trkpt lat="43.241225" lon="10.7589467"><ele>454.0</ele><time>2026-04-18T13:12:52.566Z</time></trkpt><trkpt lat="43.2412833" lon="10.7589883"><ele>454.0</ele><time>2026-04-18T13:12:54.566Z</time></trkpt><trkpt lat="43.2413167" lon="10.75913"><ele>454.0</ele><time>2026-04-18T13:12:56.566Z</time></trkpt><trkpt lat="43.2413517" lon="10.7593017"><ele>454.0</ele><time>2026-04-18T13:12:58.566Z</time></trkpt><trkpt lat="43.241375" lon="10.7593933"><ele>454.0</ele><time>2026-04-18T13:12:59.566Z</time></trkpt><trkpt lat="43.2414033" lon="10.7594883"><ele>454.0</ele><time>2026-04-18T13:13:00.567Z</time></trkpt><trkpt lat="43.2414233" lon="10.759585"><ele>454.0</ele><time>2026-04-18T13:13:01.566Z</time></trkpt><trkpt lat="43.2415383" lon="10.7598983"><ele>454.0</ele><time>2026-04-18T13:13:04.566Z</time></trkpt><trkpt lat="43.2415683" lon="10.76"><ele>452.83333333333337</ele><time>2026-04-18T13:13:05.566Z</time></trkpt><trkpt lat="43.2416" lon="10.7600883"><ele>451.6666666666667</ele><time>2026-04-18T13:13:06.566Z</time></trkpt><trkpt lat="43.2416533" lon="10.7601883"><ele>450.5</ele><time>2026-04-18T13:13:08.566Z</time></trkpt><trkpt lat="43.241715" lon="10.7602183"><ele>449.33333333333337</ele><time>2026-04-18T13:13:10.566Z</time></trkpt><trkpt lat="43.24182" lon="10.7602033"><ele>448.1666666666667</ele><time>2026-04-18T13:13:12.566Z</time></trkpt><trkpt lat="43.24189" lon="10.7601817"><ele>447.0</ele><time>2026-04-18T13:13:13.566Z</time></trkpt><trkpt lat="43.2419633" lon="10.7601567"><ele>445.8333333333333</ele><time>2026-04-18T13:13:14.567Z</time></trkpt><trkpt lat="43.2420367" lon="10.7601183"><ele>444.66666666666663</ele><time>2026-04-18T13:13:15.566Z</time></trkpt><trkpt lat="43.2421017" lon="10.76006"><ele>443.5</ele><time>2026-04-18T13:13:16.567Z</time></trkpt><trkpt lat="43.2421733" lon="10.7599833"><ele>442.3333333333333</ele><time>2026-04-18T13:13:17.566Z</time></trkpt><trkpt lat="43.2422333" lon="10.7599033"><ele>441.16666666666663</ele><time>2026-04-18T13:13:18.566Z</time></trkpt><trkpt lat="43.2422833" lon="10.7598383"><ele>440.0</ele><time>2026-04-18T13:13:19.566Z</time></trkpt><trkpt lat="43.24238" lon="10.7597367"><ele>440.0</ele><time>2026-04-18T13:13:21.566Z</time></trkpt><trkpt lat="43.24247" lon="10.7596617"><ele>440.0</ele><time>2026-04-18T13:13:23.566Z</time></trkpt><trkpt lat="43.2425767" lon="10.7595983"><ele>440.0</ele><time>2026-04-18T13:13:25.566Z</time></trkpt><trkpt lat="43.2426717" lon="10.7595567"><ele>440.0</ele><time>2026-04-18T13:13:27.566Z</time></trkpt><trkpt lat="43.242795" lon="10.7595583"><ele>440.0</ele><time>2026-04-18T13:13:29.566Z</time></trkpt><trkpt lat="43.2428583" lon="10.7595767"><ele>440.0</ele><time>2026-04-18T13:13:30.566Z</time></trkpt><trkpt lat="43.242965" lon="10.7596517"><ele>440.0</ele><time>2026-04-18T13:13:32.566Z</time></trkpt><trkpt lat="43.2430617" lon="10.7597167"><ele>440.0</ele><time>2026-04-18T13:13:34.566Z</time></trkpt><trkpt lat="43.24324" lon="10.7598533"><ele>440.0</ele><time>2026-04-18T13:13:37.566Z</time></trkpt><trkpt lat="43.2433067" lon="10.7599033"><ele>438.16666666666663</ele><time>2026-04-18T13:13:38.567Z</time></trkpt><trkpt lat="43.2433833" lon="10.7599383"><ele>436.3333333333333</ele><time>2026-04-18T13:13:39.566Z</time></trkpt><trkpt lat="43.2434683" lon="10.759975"><ele>434.5</ele><time>2026-04-18T13:13:40.566Z</time></trkpt><trkpt lat="43.24355" lon="10.7600133"><ele>432.66666666666663</ele><time>2026-04-18T13:13:41.566Z</time></trkpt><trkpt lat="43.2436317" lon="10.7600567"><ele>430.8333333333333</ele><time>2026-04-18T13:13:42.566Z</time></trkpt><trkpt lat="43.2437167" lon="10.7601133"><ele>429.0</ele><time>2026-04-18T13:13:43.566Z</time></trkpt><trkpt lat="43.2437967" lon="10.7601717"><ele>429.5</ele><time>2026-04-18T13:13:44.566Z</time></trkpt><trkpt lat="43.2438683" lon="10.7602267"><ele>430.0</ele><time>2026-04-18T13:13:45.566Z</time></trkpt><trkpt lat="43.2439367" lon="10.7602817"><ele>430.5</ele><time>2026-04-18T13:13:46.567Z</time></trkpt><trkpt lat="43.2440017" lon="10.76032"><ele>431.0</ele><time>2026-04-18T13:13:47.566Z</time></trkpt><trkpt lat="43.244065" lon="10.76036"><ele>431.5</ele><time>2026-04-18T13:13:48.567Z</time></trkpt><trkpt lat="43.2441367" lon="10.7604033"><ele>432.0</ele><time>2026-04-18T13:13:49.566Z</time></trkpt><trkpt lat="43.2442133" lon="10.760435"><ele>429.6666666666667</ele><time>2026-04-18T13:13:50.567Z</time></trkpt><trkpt lat="43.2442933" lon="10.760465"><ele>427.33333333333337</ele><time>2026-04-18T13:13:51.566Z</time></trkpt><trkpt lat="43.244365" lon="10.7604733"><ele>425.0</ele><time>2026-04-18T13:13:52.566Z</time></trkpt><trkpt lat="43.2444333" lon="10.7604633"><ele>422.6666666666667</ele><time>2026-04-18T13:13:53.566Z</time></trkpt><trkpt lat="43.2444983" lon="10.760445"><ele>420.33333333333337</ele><time>2026-04-18T13:13:54.566Z</time></trkpt><trkpt lat="43.2445667" lon="10.7604233"><ele>418.0</ele><time>2026-04-18T13:13:55.566Z</time></trkpt><trkpt lat="43.2446817" lon="10.76037"><ele>418.0</ele><time>2026-04-18T13:13:57.566Z</time></trkpt><trkpt lat="43.24477" lon="10.7602817"><ele>418.0</ele><time>2026-04-18T13:13:59.566Z</time></trkpt><trkpt lat="43.2448417" lon="10.7601233"><ele>418.0</ele><time>2026-04-18T13:14:01.566Z</time></trkpt><trkpt lat="43.244875" lon="10.7600317"><ele>418.0</ele><time>2026-04-18T13:14:02.566Z</time></trkpt><trkpt lat="43.2448967" lon="10.7599283"><ele>418.0</ele><time>2026-04-18T13:14:03.566Z</time></trkpt><trkpt lat="43.2449167" lon="10.7598017"><ele>421.75</ele><time>2026-04-18T13:14:04.566Z</time></trkpt><trkpt lat="43.24493" lon="10.7596733"><ele>425.5</ele><time>2026-04-18T13:14:05.566Z</time></trkpt><trkpt lat="43.24495" lon="10.7595433"><ele>429.25</ele><time>2026-04-18T13:14:06.566Z</time></trkpt><trkpt lat="43.24497" lon="10.7594217"><ele>433.0</ele><time>2026-04-18T13:14:07.566Z</time></trkpt><trkpt lat="43.2450383" lon="10.7591633"><ele>433.50000000000006</ele><time>2026-04-18T13:14:10.567Z</time></trkpt><trkpt lat="43.2451" lon="10.7590433"><ele>434.0</ele><time>2026-04-18T13:14:12.566Z</time></trkpt><trkpt lat="43.24515" lon="10.7589633"><ele>434.5</ele><time>2026-04-18T13:14:13.566Z</time></trkpt><trkpt lat="43.245205" lon="10.75888"><ele>435.0</ele><time>2026-04-18T13:14:14.566Z</time></trkpt><trkpt lat="43.245265" lon="10.7588017"><ele>435.50000000000006</ele><time>2026-04-18T13:14:15.566Z</time></trkpt><trkpt lat="43.2453383" lon="10.7587133"><ele>436.0</ele><time>2026-04-18T13:14:16.567Z</time></trkpt><trkpt lat="43.2454067" lon="10.7586433"><ele>436.0</ele><time>2026-04-18T13:14:17.566Z</time></trkpt><trkpt lat="43.24547" lon="10.7585883"><ele>436.0</ele><time>2026-04-18T13:14:18.566Z</time></trkpt><trkpt lat="43.2455217" lon="10.7585367"><ele>436.0</ele><time>2026-04-18T13:14:19.566Z</time></trkpt><trkpt lat="43.2456017" lon="10.7584333"><ele>436.0</ele><time>2026-04-18T13:14:21.566Z</time></trkpt><trkpt lat="43.2456283" lon="10.7583133"><ele>436.0</ele><time>2026-04-18T13:14:23.566Z</time></trkpt><trkpt lat="43.24564" lon="10.7581317"><ele>438.33333333333337</ele><time>2026-04-18T13:14:25.566Z</time></trkpt><trkpt lat="43.2456567" lon="10.7580317"><ele>440.6666666666667</ele><time>2026-04-18T13:14:26.566Z</time></trkpt><trkpt lat="43.2456833" lon="10.7579317"><ele>443.0</ele><time>2026-04-18T13:14:27.566Z</time></trkpt><trkpt lat="43.24571" lon="10.7578217"><ele>445.33333333333337</ele><time>2026-04-18T13:14:28.566Z</time></trkpt><trkpt lat="43.2457483" lon="10.7577167"><ele>447.6666666666667</ele><time>2026-04-18T13:14:29.567Z</time></trkpt><trkpt lat="43.2457883" lon="10.7576183"><ele>450.0</ele><time>2026-04-18T13:14:30.566Z</time></trkpt><trkpt lat="43.245825" lon="10.7575183"><ele>450.8333333333333</ele><time>2026-04-18T13:14:31.566Z</time></trkpt><trkpt lat="43.245855" lon="10.7574383"><ele>451.66666666666663</ele><time>2026-04-18T13:14:32.566Z</time></trkpt><trkpt lat="43.2458933" lon="10.7573567"><ele>452.5</ele><time>2026-04-18T13:14:33.566Z</time></trkpt><trkpt lat="43.2459417" lon="10.757275"><ele>453.3333333333333</ele><time>2026-04-18T13:14:34.567Z</time></trkpt><trkpt lat="43.2459983" lon="10.7572017"><ele>454.16666666666663</ele><time>2026-04-18T13:14:35.566Z</time></trkpt><trkpt lat="43.2460667" lon="10.757125"><ele>455.0</ele><time>2026-04-18T13:14:36.566Z</time></trkpt><trkpt lat="43.2461333" lon="10.7570583"><ele>455.0</ele><time>2026-04-18T13:14:37.566Z</time></trkpt><trkpt lat="43.2461883" lon="10.7570067"><ele>455.0</ele><time>2026-04-18T13:14:38.567Z</time></trkpt><trkpt lat="43.246245" lon="10.7569667"><ele>455.0</ele><time>2026-04-18T13:14:39.566Z</time></trkpt><trkpt lat="43.2465483" lon="10.7568517"><ele>455.0</ele><time>2026-04-18T13:14:43.565Z</time></trkpt><trkpt lat="43.2466583" lon="10.7568217"><ele>456.4</ele><time>2026-04-18T13:14:44.565Z</time></trkpt><trkpt lat="43.246775" lon="10.756785"><ele>457.8</ele><time>2026-04-18T13:14:45.565Z</time></trkpt><trkpt lat="43.2468833" lon="10.7567483"><ele>459.20000000000005</ele><time>2026-04-18T13:14:46.565Z</time></trkpt><trkpt lat="43.24699" lon="10.7567117"><ele>460.6</ele><time>2026-04-18T13:14:47.566Z</time></trkpt><trkpt lat="43.2470767" lon="10.7566767"><ele>462.0</ele><time>2026-04-18T13:14:48.565Z</time></trkpt><trkpt lat="43.2471483" lon="10.756645"><ele>462.0</ele><time>2026-04-18T13:14:49.565Z</time></trkpt><trkpt lat="43.2472233" lon="10.75659"><ele>462.00000000000006</ele><time>2026-04-18T13:14:51.565Z</time></trkpt><trkpt lat="43.2472483" lon="10.7564783"><ele>462.00000000000006</ele><time>2026-04-18T13:14:54.565Z</time></trkpt><trkpt lat="43.2471967" lon="10.7563217"><ele>462.0</ele><time>2026-04-18T13:15:11.565Z</time></trkpt><trkpt lat="43.24714" lon="10.7561733"><ele>462.0</ele><time>2026-04-18T13:15:13.565Z</time></trkpt><trkpt lat="43.2471317" lon="10.7558483"><ele>461.0</ele><time>2026-04-18T13:15:17.566Z</time></trkpt><trkpt lat="43.2472017" lon="10.75575"><ele>460.0</ele><time>2026-04-18T13:15:19.565Z</time></trkpt><trkpt lat="43.2472583" lon="10.7556933"><ele>459.0</ele><time>2026-04-18T13:15:20.565Z</time></trkpt><trkpt lat="43.2473233" lon="10.7556233"><ele>458.0</ele><time>2026-04-18T13:15:21.565Z</time></trkpt><trkpt lat="43.2473883" lon="10.7555483"><ele>457.0</ele><time>2026-04-18T13:15:22.565Z</time></trkpt><trkpt lat="43.24746" lon="10.7554683"><ele>456.0</ele><time>2026-04-18T13:15:23.566Z</time></trkpt><trkpt lat="43.2475283" lon="10.7553933"><ele>457.8333333333333</ele><time>2026-04-18T13:15:24.565Z</time></trkpt><trkpt lat="43.2475967" lon="10.7553267"><ele>459.66666666666663</ele><time>2026-04-18T13:15:25.566Z</time></trkpt><trkpt lat="43.2476633" lon="10.7552583"><ele>461.5</ele><time>2026-04-18T13:15:26.566Z</time></trkpt><trkpt lat="43.247725" lon="10.755205"><ele>463.3333333333333</ele><time>2026-04-18T13:15:27.565Z</time></trkpt><trkpt lat="43.2477833" lon="10.7551433"><ele>465.16666666666663</ele><time>2026-04-18T13:15:28.565Z</time></trkpt><trkpt lat="43.2478383" lon="10.7550617"><ele>467.0</ele><time>2026-04-18T13:15:29.565Z</time></trkpt><trkpt lat="43.2478933" lon="10.754965"><ele>466.99999999999994</ele><time>2026-04-18T13:15:30.565Z</time></trkpt><trkpt lat="43.2479567" lon="10.754855"><ele>467.0</ele><time>2026-04-18T13:15:31.565Z</time></trkpt><trkpt lat="43.2480033" lon="10.7547567"><ele>467.0</ele><time>2026-04-18T13:15:32.566Z</time></trkpt><trkpt lat="43.2480517" lon="10.7546683"><ele>467.0</ele><time>2026-04-18T13:15:33.565Z</time></trkpt><trkpt lat="43.2481" lon="10.754575"><ele>466.99999999999994</ele><time>2026-04-18T13:15:34.565Z</time></trkpt><trkpt lat="43.2481467" lon="10.7544783"><ele>467.0</ele><time>2026-04-18T13:15:35.565Z</time></trkpt><trkpt lat="43.2481817" lon="10.754375"><ele>467.6</ele><time>2026-04-18T13:15:36.565Z</time></trkpt><trkpt lat="43.2482183" lon="10.7542467"><ele>468.20000000000005</ele><time>2026-04-18T13:15:37.566Z</time></trkpt><trkpt lat="43.2482517" lon="10.75411"><ele>468.8</ele><time>2026-04-18T13:15:38.565Z</time></trkpt><trkpt lat="43.2482833" lon="10.7539617"><ele>469.4</ele><time>2026-04-18T13:15:39.565Z</time></trkpt><trkpt lat="43.2483183" lon="10.7538083"><ele>470.0</ele><time>2026-04-18T13:15:40.565Z</time></trkpt><trkpt lat="43.2483417" lon="10.753655"><ele>472.2</ele><time>2026-04-18T13:15:41.565Z</time></trkpt><trkpt lat="43.24837" lon="10.75351"><ele>474.4</ele><time>2026-04-18T13:15:42.565Z</time></trkpt><trkpt lat="43.2483983" lon="10.7533783"><ele>476.6</ele><time>2026-04-18T13:15:43.565Z</time></trkpt><trkpt lat="43.2484333" lon="10.7532533"><ele>478.8</ele><time>2026-04-18T13:15:44.566Z</time></trkpt><trkpt lat="43.2484683" lon="10.75315"><ele>481.0</ele><time>2026-04-18T13:15:45.565Z</time></trkpt><trkpt lat="43.2484983" lon="10.75306"><ele>483.6666666666667</ele><time>2026-04-18T13:15:46.565Z</time></trkpt><trkpt lat="43.2485333" lon="10.7526783"><ele>486.33333333333337</ele><time>2026-04-18T13:15:50.565Z</time></trkpt><trkpt lat="43.2485383" lon="10.7525483"><ele>489.0</ele><time>2026-04-18T13:15:51.565Z</time></trkpt><trkpt lat="43.2485417" lon="10.752445"><ele>489.0</ele><time>2026-04-18T13:15:52.565Z</time></trkpt><trkpt lat="43.2485417" lon="10.752355"><ele>489.00000000000006</ele><time>2026-04-18T13:15:53.565Z</time></trkpt><trkpt lat="43.2485417" lon="10.7522683"><ele>489.0</ele><time>2026-04-18T13:15:54.565Z</time></trkpt><trkpt lat="43.24854" lon="10.7521617"><ele>489.0</ele><time>2026-04-18T13:15:55.565Z</time></trkpt><trkpt lat="43.2485367" lon="10.7520583"><ele>489.00000000000006</ele><time>2026-04-18T13:15:56.565Z</time></trkpt><trkpt lat="43.2485367" lon="10.7519533"><ele>489.0</ele><time>2026-04-18T13:15:57.565Z</time></trkpt><trkpt lat="43.248535" lon="10.751845"><ele>489.0</ele><time>2026-04-18T13:15:58.565Z</time></trkpt><trkpt lat="43.2485283" lon="10.7517283"><ele>488.2</ele><time>2026-04-18T13:15:59.565Z</time></trkpt><trkpt lat="43.2485133" lon="10.751605"><ele>487.4</ele><time>2026-04-18T13:16:00.565Z</time></trkpt><trkpt lat="43.2485117" lon="10.7514833"><ele>486.6</ele><time>2026-04-18T13:16:01.565Z</time></trkpt><trkpt lat="43.248525" lon="10.751365"><ele>485.8</ele><time>2026-04-18T13:16:02.565Z</time></trkpt><trkpt lat="43.2485467" lon="10.7512517"><ele>485.0</ele><time>2026-04-18T13:16:03.566Z</time></trkpt><trkpt lat="43.2485733" lon="10.7511067"><ele>483.75</ele><time>2026-04-18T13:16:04.565Z</time></trkpt><trkpt lat="43.24861" lon="10.75094"><ele>482.5</ele><time>2026-04-18T13:16:05.565Z</time></trkpt><trkpt lat="43.2486483" lon="10.7507733"><ele>481.25</ele><time>2026-04-18T13:16:06.566Z</time></trkpt><trkpt lat="43.248675" lon="10.7506267"><ele>480.0</ele><time>2026-04-18T13:16:07.565Z</time></trkpt><trkpt lat="43.2486867" lon="10.750495"><ele>480.0</ele><time>2026-04-18T13:16:08.565Z</time></trkpt><trkpt lat="43.2486883" lon="10.750365"><ele>480.0</ele><time>2026-04-18T13:16:09.565Z</time></trkpt><trkpt lat="43.2486867" lon="10.750255"><ele>480.0</ele><time>2026-04-18T13:16:10.565Z</time></trkpt><trkpt lat="43.2486867" lon="10.75016"><ele>480.0</ele><time>2026-04-18T13:16:11.565Z</time></trkpt><trkpt lat="43.24868" lon="10.7499933"><ele>480.0</ele><time>2026-04-18T13:16:13.565Z</time></trkpt><trkpt lat="43.2486767" lon="10.7498967"><ele>480.0</ele><time>2026-04-18T13:16:14.565Z</time></trkpt><trkpt lat="43.248675" lon="10.7497983"><ele>480.8333333333333</ele><time>2026-04-18T13:16:15.566Z</time></trkpt><trkpt lat="43.248675" lon="10.7497017"><ele>481.66666666666663</ele><time>2026-04-18T13:16:16.565Z</time></trkpt><trkpt lat="43.24867" lon="10.749595"><ele>482.5</ele><time>2026-04-18T13:16:17.565Z</time></trkpt><trkpt lat="43.2486683" lon="10.7494817"><ele>483.3333333333333</ele><time>2026-04-18T13:16:18.565Z</time></trkpt><trkpt lat="43.2486583" lon="10.749345"><ele>484.16666666666663</ele><time>2026-04-18T13:16:19.566Z</time></trkpt><trkpt lat="43.24863" lon="10.749205"><ele>485.0</ele><time>2026-04-18T13:16:20.565Z</time></trkpt><trkpt lat="43.2485383" lon="10.748775"><ele>485.16666666666663</ele><time>2026-04-18T13:16:23.565Z</time></trkpt><trkpt lat="43.2485117" lon="10.7486617"><ele>485.3333333333333</ele><time>2026-04-18T13:16:24.565Z</time></trkpt><trkpt lat="43.24848" lon="10.74856"><ele>485.5</ele><time>2026-04-18T13:16:25.566Z</time></trkpt><trkpt lat="43.2484467" lon="10.7484833"><ele>485.66666666666663</ele><time>2026-04-18T13:16:26.565Z</time></trkpt><trkpt lat="43.2484183" lon="10.7483383"><ele>485.8333333333333</ele><time>2026-04-18T13:16:28.565Z</time></trkpt><trkpt lat="43.2484333" lon="10.7482183"><ele>486.0</ele><time>2026-04-18T13:16:30.565Z</time></trkpt><trkpt lat="43.2485067" lon="10.7481667"><ele>486.6666666666667</ele><time>2026-04-18T13:16:32.565Z</time></trkpt><trkpt lat="43.2486133" lon="10.7481833"><ele>487.33333333333337</ele><time>2026-04-18T13:16:34.565Z</time></trkpt><trkpt lat="43.2486733" lon="10.7482233"><ele>488.0</ele><time>2026-04-18T13:16:35.565Z</time></trkpt><trkpt lat="43.2487417" lon="10.7482733"><ele>488.6666666666667</ele><time>2026-04-18T13:16:36.565Z</time></trkpt><trkpt lat="43.2488217" lon="10.74834"><ele>489.33333333333337</ele><time>2026-04-18T13:16:37.566Z</time></trkpt><trkpt lat="43.2489033" lon="10.7484033"><ele>490.0</ele><time>2026-04-18T13:16:38.565Z</time></trkpt><trkpt lat="43.2489783" lon="10.748465"><ele>490.6666666666667</ele><time>2026-04-18T13:16:39.565Z</time></trkpt><trkpt lat="43.2490433" lon="10.7485317"><ele>491.33333333333337</ele><time>2026-04-18T13:16:40.565Z</time></trkpt><trkpt lat="43.2491067" lon="10.748595"><ele>492.0</ele><time>2026-04-18T13:16:41.565Z</time></trkpt><trkpt lat="43.2491683" lon="10.7486417"><ele>492.66666666666663</ele><time>2026-04-18T13:16:42.565Z</time></trkpt><trkpt lat="43.2492267" lon="10.7486783"><ele>493.3333333333333</ele><time>2026-04-18T13:16:43.565Z</time></trkpt><trkpt lat="43.2493233" lon="10.7487283"><ele>494.0</ele><time>2026-04-18T13:16:45.566Z</time></trkpt><trkpt lat="43.249445" lon="10.7487717"><ele>494.14285714285717</ele><time>2026-04-18T13:16:47.565Z</time></trkpt><trkpt lat="43.249515" lon="10.7487833"><ele>494.2857142857142</ele><time>2026-04-18T13:16:48.566Z</time></trkpt><trkpt lat="43.249585" lon="10.7487867"><ele>494.4285714285714</ele><time>2026-04-18T13:16:49.565Z</time></trkpt><trkpt lat="43.2496533" lon="10.7487817"><ele>494.57142857142856</ele><time>2026-04-18T13:16:50.565Z</time></trkpt><trkpt lat="43.2497233" lon="10.7487667"><ele>494.71428571428567</ele><time>2026-04-18T13:16:51.565Z</time></trkpt><trkpt lat="43.2497933" lon="10.7487433"><ele>494.8571428571428</ele><time>2026-04-18T13:16:52.565Z</time></trkpt><trkpt lat="43.2498633" lon="10.748725"><ele>494.99999999999994</ele><time>2026-04-18T13:16:53.565Z</time></trkpt><trkpt lat="43.2500767" lon="10.7486633"><ele>494.5</ele><time>2026-04-18T13:16:56.565Z</time></trkpt><trkpt lat="43.250155" lon="10.7486167"><ele>494.0</ele><time>2026-04-18T13:16:57.565Z</time></trkpt><trkpt lat="43.2502217" lon="10.7485567"><ele>493.5</ele><time>2026-04-18T13:16:58.566Z</time></trkpt><trkpt lat="43.2502867" lon="10.7484833"><ele>493.0</ele><time>2026-04-18T13:16:59.565Z</time></trkpt><trkpt lat="43.2503617" lon="10.7484333"><ele>492.5</ele><time>2026-04-18T13:17:00.565Z</time></trkpt><trkpt lat="43.2504333" lon="10.7483933"><ele>492.0</ele><time>2026-04-18T13:17:01.566Z</time></trkpt><trkpt lat="43.2505033" lon="10.7483517"><ele>492.0</ele><time>2026-04-18T13:17:02.566Z</time></trkpt><trkpt lat="43.2505633" lon="10.7483083"><ele>492.0</ele><time>2026-04-18T13:17:03.565Z</time></trkpt><trkpt lat="43.2506633" lon="10.748215"><ele>492.0</ele><time>2026-04-18T13:17:05.566Z</time></trkpt><trkpt lat="43.250735" lon="10.7480817"><ele>492.0</ele><time>2026-04-18T13:17:07.565Z</time></trkpt><trkpt lat="43.2507617" lon="10.7480017"><ele>492.0</ele><time>2026-04-18T13:17:08.565Z</time></trkpt><trkpt lat="43.2507833" lon="10.7479133"><ele>492.0</ele><time>2026-04-18T13:17:09.565Z</time></trkpt><trkpt lat="43.2508083" lon="10.7478133"><ele>492.0</ele><time>2026-04-18T13:17:10.566Z</time></trkpt><trkpt lat="43.2508383" lon="10.7477117"><ele>492.00000000000006</ele><time>2026-04-18T13:17:11.566Z</time></trkpt><trkpt lat="43.2508817" lon="10.7475933"><ele>492.00000000000006</ele><time>2026-04-18T13:17:12.566Z</time></trkpt><trkpt lat="43.2509317" lon="10.747475"><ele>492.0</ele><time>2026-04-18T13:17:13.565Z</time></trkpt><trkpt lat="43.2509867" lon="10.7473567"><ele>492.0</ele><time>2026-04-18T13:17:14.566Z</time></trkpt><trkpt lat="43.2510483" lon="10.74724"><ele>492.0</ele><time>2026-04-18T13:17:15.565Z</time></trkpt><trkpt lat="43.2511083" lon="10.7471267"><ele>492.00000000000006</ele><time>2026-04-18T13:17:16.565Z</time></trkpt><trkpt lat="43.2511783" lon="10.7470233"><ele>492.00000000000006</ele><time>2026-04-18T13:17:17.566Z</time></trkpt><trkpt lat="43.2512517" lon="10.7469217"><ele>492.0</ele><time>2026-04-18T13:17:18.565Z</time></trkpt><trkpt lat="43.251315" lon="10.7468233"><ele>492.0</ele><time>2026-04-18T13:17:19.565Z</time></trkpt><trkpt lat="43.2513717" lon="10.7467233"><ele>492.3333333333333</ele><time>2026-04-18T13:17:20.565Z</time></trkpt><trkpt lat="43.2514183" lon="10.7466333"><ele>492.66666666666663</ele><time>2026-04-18T13:17:21.565Z</time></trkpt><trkpt lat="43.2514567" lon="10.7465467"><ele>493.0</ele><time>2026-04-18T13:17:22.565Z</time></trkpt><trkpt lat="43.2515" lon="10.7464633"><ele>493.3333333333333</ele><time>2026-04-18T13:17:23.566Z</time></trkpt><trkpt lat="43.2515467" lon="10.7463917"><ele>493.66666666666663</ele><time>2026-04-18T13:17:24.565Z</time></trkpt><trkpt lat="43.2516317" lon="10.7462983"><ele>494.0</ele><time>2026-04-18T13:17:26.565Z</time></trkpt><trkpt lat="43.251765" lon="10.7463583"><ele>493.99999999999994</ele><time>2026-04-18T13:17:29.566Z</time></trkpt><trkpt lat="43.25181" lon="10.7464217"><ele>494.0</ele><time>2026-04-18T13:17:30.565Z</time></trkpt><trkpt lat="43.25187" lon="10.74652"><ele>494.0</ele><time>2026-04-18T13:17:31.566Z</time></trkpt><trkpt lat="43.2519067" lon="10.746605"><ele>494.0</ele><time>2026-04-18T13:17:32.565Z</time></trkpt><trkpt lat="43.2519383" lon="10.7466833"><ele>493.99999999999994</ele><time>2026-04-18T13:17:33.565Z</time></trkpt><trkpt lat="43.252015" lon="10.74683"><ele>494.0</ele><time>2026-04-18T13:17:35.565Z</time></trkpt><trkpt lat="43.25211" lon="10.7469583"><ele>494.66666666666663</ele><time>2026-04-18T13:17:37.565Z</time></trkpt><trkpt lat="43.2521733" lon="10.7470217"><ele>495.3333333333333</ele><time>2026-04-18T13:17:38.565Z</time></trkpt><trkpt lat="43.2522367" lon="10.74707"><ele>496.0</ele><time>2026-04-18T13:17:39.565Z</time></trkpt><trkpt lat="43.252305" lon="10.7471133"><ele>496.66666666666663</ele><time>2026-04-18T13:17:40.565Z</time></trkpt><trkpt lat="43.252385" lon="10.747145"><ele>497.3333333333333</ele><time>2026-04-18T13:17:41.565Z</time></trkpt><trkpt lat="43.25247" lon="10.7471567"><ele>498.0</ele><time>2026-04-18T13:17:42.565Z</time></trkpt><trkpt lat="43.2525567" lon="10.7471567"><ele>498.0</ele><time>2026-04-18T13:17:43.566Z</time></trkpt><trkpt lat="43.2526417" lon="10.74715"><ele>498.0</ele><time>2026-04-18T13:17:44.566Z</time></trkpt><trkpt lat="43.2527233" lon="10.7471417"><ele>498.0</ele><time>2026-04-18T13:17:45.565Z</time></trkpt><trkpt lat="43.25279" lon="10.7471283"><ele>498.0</ele><time>2026-04-18T13:17:46.565Z</time></trkpt><trkpt lat="43.2528883" lon="10.747175"><ele>498.0</ele><time>2026-04-18T13:17:48.565Z</time></trkpt><trkpt lat="43.2529383" lon="10.7472817"><ele>498.0</ele><time>2026-04-18T13:17:50.565Z</time></trkpt><trkpt lat="43.252955" lon="10.7473683"><ele>498.0</ele><time>2026-04-18T13:17:51.565Z</time></trkpt><trkpt lat="43.25298" lon="10.747475"><ele>498.0</ele><time>2026-04-18T13:17:52.565Z</time></trkpt><trkpt lat="43.2530133" lon="10.747595"><ele>498.0</ele><time>2026-04-18T13:17:53.565Z</time></trkpt><trkpt lat="43.25305" lon="10.7477"><ele>498.0</ele><time>2026-04-18T13:17:54.565Z</time></trkpt><trkpt lat="43.253085" lon="10.747795"><ele>498.0</ele><time>2026-04-18T13:17:55.566Z</time></trkpt><trkpt lat="43.2531217" lon="10.74789"><ele>498.0</ele><time>2026-04-18T13:17:56.565Z</time></trkpt><trkpt lat="43.25316" lon="10.7479733"><ele>494.5</ele><time>2026-04-18T13:17:57.565Z</time></trkpt><trkpt lat="43.253205" lon="10.7480467"><ele>491.0</ele><time>2026-04-18T13:17:58.565Z</time></trkpt><trkpt lat="43.2532583" lon="10.7481017"><ele>487.5</ele><time>2026-04-18T13:17:59.565Z</time></trkpt><trkpt lat="43.2534833" lon="10.7482567"><ele>484.0</ele><time>2026-04-18T13:18:02.565Z</time></trkpt><trkpt lat="43.2535567" lon="10.7483083"><ele>484.00000000000006</ele><time>2026-04-18T13:18:03.565Z</time></trkpt><trkpt lat="43.2536183" lon="10.748355"><ele>484.0</ele><time>2026-04-18T13:18:04.565Z</time></trkpt><trkpt lat="43.2536717" lon="10.7484117"><ele>484.0</ele><time>2026-04-18T13:18:05.565Z</time></trkpt><trkpt lat="43.2537183" lon="10.748575"><ele>484.0</ele><time>2026-04-18T13:18:07.565Z</time></trkpt><trkpt lat="43.2537233" lon="10.7486833"><ele>484.00000000000006</ele><time>2026-04-18T13:18:08.564Z</time></trkpt><trkpt lat="43.2537217" lon="10.7488067"><ele>484.0</ele><time>2026-04-18T13:18:09.564Z</time></trkpt><trkpt lat="43.25372" lon="10.74894"><ele>484.1666666666667</ele><time>2026-04-18T13:18:10.565Z</time></trkpt><trkpt lat="43.2537317" lon="10.7490517"><ele>484.33333333333337</ele><time>2026-04-18T13:18:11.564Z</time></trkpt><trkpt lat="43.2537517" lon="10.749155"><ele>484.5</ele><time>2026-04-18T13:18:12.564Z</time></trkpt><trkpt lat="43.2537833" lon="10.74925"><ele>484.66666666666663</ele><time>2026-04-18T13:18:13.564Z</time></trkpt><trkpt lat="43.2538333" lon="10.7493333"><ele>484.8333333333333</ele><time>2026-04-18T13:18:14.564Z</time></trkpt><trkpt lat="43.2538967" lon="10.7494033"><ele>485.0</ele><time>2026-04-18T13:18:15.564Z</time></trkpt><trkpt lat="43.2539667" lon="10.7494617"><ele>485.2</ele><time>2026-04-18T13:18:16.565Z</time></trkpt><trkpt lat="43.254035" lon="10.7495167"><ele>485.4</ele><time>2026-04-18T13:18:17.564Z</time></trkpt><trkpt lat="43.2541333" lon="10.7496083"><ele>485.6</ele><time>2026-04-18T13:18:19.564Z</time></trkpt><trkpt lat="43.2542017" lon="10.7496917"><ele>485.8</ele><time>2026-04-18T13:18:21.564Z</time></trkpt><trkpt lat="43.2542783" lon="10.7497567"><ele>486.0</ele><time>2026-04-18T13:18:23.564Z</time></trkpt><trkpt lat="43.2543467" lon="10.7498067"><ele>486.0</ele><time>2026-04-18T13:18:24.564Z</time></trkpt><trkpt lat="43.2544167" lon="10.749835"><ele>486.0</ele><time>2026-04-18T13:18:25.564Z</time></trkpt><trkpt lat="43.2544917" lon="10.7498533"><ele>486.0</ele><time>2026-04-18T13:18:26.565Z</time></trkpt><trkpt lat="43.25457" lon="10.7498717"><ele>486.0</ele><time>2026-04-18T13:18:27.564Z</time></trkpt><trkpt lat="43.2546583" lon="10.74989"><ele>486.0</ele><time>2026-04-18T13:18:28.564Z</time></trkpt><trkpt lat="43.2547533" lon="10.74991"><ele>486.0</ele><time>2026-04-18T13:18:29.564Z</time></trkpt><trkpt lat="43.254855" lon="10.7499317"><ele>482.33333333333337</ele><time>2026-04-18T13:18:30.564Z</time></trkpt><trkpt lat="43.25496" lon="10.74995"><ele>478.6666666666667</ele><time>2026-04-18T13:18:31.565Z</time></trkpt><trkpt lat="43.2550567" lon="10.7499483"><ele>475.0</ele><time>2026-04-18T13:18:32.564Z</time></trkpt><trkpt lat="43.2553283" lon="10.7498867"><ele>475.00000000000006</ele><time>2026-04-18T13:18:35.564Z</time></trkpt><trkpt lat="43.255395" lon="10.7498567"><ele>475.0</ele><time>2026-04-18T13:18:36.564Z</time></trkpt><trkpt lat="43.2554583" lon="10.74983"><ele>475.0</ele><time>2026-04-18T13:18:37.564Z</time></trkpt><trkpt lat="43.2555683" lon="10.749845"><ele>475.0</ele><time>2026-04-18T13:18:39.564Z</time></trkpt><trkpt lat="43.2556717" lon="10.7499383"><ele>475.00000000000006</ele><time>2026-04-18T13:18:41.564Z</time></trkpt><trkpt lat="43.2557217" lon="10.75002"><ele>475.0</ele><time>2026-04-18T13:18:42.564Z</time></trkpt><trkpt lat="43.2557617" lon="10.7500983"><ele>474.42857142857144</ele><time>2026-04-18T13:18:43.564Z</time></trkpt><trkpt lat="43.2557983" lon="10.75017"><ele>473.8571428571429</ele><time>2026-04-18T13:18:44.565Z</time></trkpt><trkpt lat="43.2558417" lon="10.7502417"><ele>473.28571428571433</ele><time>2026-04-18T13:18:45.564Z</time></trkpt><trkpt lat="43.2558983" lon="10.7503083"><ele>472.7142857142858</ele><time>2026-04-18T13:18:46.564Z</time></trkpt><trkpt lat="43.2559617" lon="10.7503633"><ele>472.14285714285717</ele><time>2026-04-18T13:18:47.564Z</time></trkpt><trkpt lat="43.2560233" lon="10.750405"><ele>471.57142857142867</ele><time>2026-04-18T13:18:48.564Z</time></trkpt><trkpt lat="43.2560883" lon="10.750425"><ele>471.00000000000006</ele><time>2026-04-18T13:18:49.564Z</time></trkpt><trkpt lat="43.25615" lon="10.7504583"><ele>471.0</ele><time>2026-04-18T13:18:50.565Z</time></trkpt><trkpt lat="43.2562117" lon="10.750485"><ele>471.0</ele><time>2026-04-18T13:18:51.564Z</time></trkpt><trkpt lat="43.2562733" lon="10.7505317"><ele>471.0</ele><time>2026-04-18T13:18:52.565Z</time></trkpt><trkpt lat="43.2563183" lon="10.7506183"><ele>471.0</ele><time>2026-04-18T13:18:53.564Z</time></trkpt><trkpt lat="43.2563633" lon="10.75072"><ele>471.0</ele><time>2026-04-18T13:18:54.564Z</time></trkpt><trkpt lat="43.2564117" lon="10.7508333"><ele>471.0</ele><time>2026-04-18T13:18:55.565Z</time></trkpt><trkpt lat="43.2564583" lon="10.750955"><ele>469.4</ele><time>2026-04-18T13:18:56.564Z</time></trkpt><trkpt lat="43.25651" lon="10.7510717"><ele>467.8</ele><time>2026-04-18T13:18:57.564Z</time></trkpt><trkpt lat="43.2565717" lon="10.7511867"><ele>466.19999999999993</ele><time>2026-04-18T13:18:58.564Z</time></trkpt><trkpt lat="43.256635" lon="10.7513033"><ele>464.59999999999997</ele><time>2026-04-18T13:18:59.564Z</time></trkpt><trkpt lat="43.256695" lon="10.75141"><ele>463.0</ele><time>2026-04-18T13:19:00.564Z</time></trkpt><trkpt lat="43.256755" lon="10.751505"><ele>463.0</ele><time>2026-04-18T13:19:01.564Z</time></trkpt><trkpt lat="43.2568283" lon="10.751615"><ele>462.99999999999994</ele><time>2026-04-18T13:19:02.564Z</time></trkpt><trkpt lat="43.2569" lon="10.7517283"><ele>462.99999999999994</ele><time>2026-04-18T13:19:03.564Z</time></trkpt><trkpt lat="43.25697" lon="10.7518233"><ele>463.0</ele><time>2026-04-18T13:19:04.564Z</time></trkpt><trkpt lat="43.2570483" lon="10.7518833"><ele>463.0</ele><time>2026-04-18T13:19:05.564Z</time></trkpt><trkpt lat="43.2573233" lon="10.7521"><ele>462.6666666666667</ele><time>2026-04-18T13:19:08.564Z</time></trkpt><trkpt lat="43.257415" lon="10.7521633"><ele>462.33333333333337</ele><time>2026-04-18T13:19:09.564Z</time></trkpt><trkpt lat="43.2574967" lon="10.7522267"><ele>462.0</ele><time>2026-04-18T13:19:10.564Z</time></trkpt><trkpt lat="43.2575617" lon="10.7522767"><ele>461.66666666666663</ele><time>2026-04-18T13:19:11.564Z</time></trkpt><trkpt lat="43.2576333" lon="10.75233"><ele>461.3333333333333</ele><time>2026-04-18T13:19:12.564Z</time></trkpt><trkpt lat="43.2577017" lon="10.7523783"><ele>461.0</ele><time>2026-04-18T13:19:13.564Z</time></trkpt><trkpt lat="43.257765" lon="10.752415"><ele>460.99999999999994</ele><time>2026-04-18T13:19:14.564Z</time></trkpt><trkpt lat="43.2578333" lon="10.7524267"><ele>461.0</ele><time>2026-04-18T13:19:15.564Z</time></trkpt><trkpt lat="43.2579233" lon="10.7524283"><ele>461.0</ele><time>2026-04-18T13:19:16.564Z</time></trkpt><trkpt lat="43.25801" lon="10.752425"><ele>461.0</ele><time>2026-04-18T13:19:17.564Z</time></trkpt><trkpt lat="43.2581033" lon="10.7524133"><ele>460.99999999999994</ele><time>2026-04-18T13:19:18.564Z</time></trkpt><trkpt lat="43.2581883" lon="10.7524083"><ele>461.0</ele><time>2026-04-18T13:19:19.564Z</time></trkpt><trkpt lat="43.2582667" lon="10.7523917"><ele>462.0</ele><time>2026-04-18T13:19:20.564Z</time></trkpt><trkpt lat="43.258355" lon="10.7523633"><ele>463.0</ele><time>2026-04-18T13:19:21.564Z</time></trkpt><trkpt lat="43.2584483" lon="10.75232"><ele>464.0</ele><time>2026-04-18T13:19:22.564Z</time></trkpt><trkpt lat="43.2585383" lon="10.7522717"><ele>465.0</ele><time>2026-04-18T13:19:23.564Z</time></trkpt><trkpt lat="43.2586317" lon="10.752225"><ele>466.0</ele><time>2026-04-18T13:19:24.564Z</time></trkpt><trkpt lat="43.2587233" lon="10.752175"><ele>466.00000000000006</ele><time>2026-04-18T13:19:25.565Z</time></trkpt><trkpt lat="43.2588067" lon="10.7521367"><ele>466.0</ele><time>2026-04-18T13:19:26.565Z</time></trkpt><trkpt lat="43.258885" lon="10.7520933"><ele>466.0</ele><time>2026-04-18T13:19:27.564Z</time></trkpt><trkpt lat="43.2589667" lon="10.75206"><ele>466.0</ele><time>2026-04-18T13:19:28.564Z</time></trkpt><trkpt lat="43.25905" lon="10.752035"><ele>466.00000000000006</ele><time>2026-04-18T13:19:29.564Z</time></trkpt><trkpt lat="43.2591417" lon="10.75202"><ele>466.0</ele><time>2026-04-18T13:19:30.564Z</time></trkpt><trkpt lat="43.2592217" lon="10.7520217"><ele>465.83333333333337</ele><time>2026-04-18T13:19:31.564Z</time></trkpt><trkpt lat="43.2593" lon="10.7520283"><ele>465.6666666666667</ele><time>2026-04-18T13:19:32.564Z</time></trkpt><trkpt lat="43.2593717" lon="10.7520467"><ele>465.5</ele><time>2026-04-18T13:19:33.564Z</time></trkpt><trkpt lat="43.2594367" lon="10.7520667"><ele>465.33333333333337</ele><time>2026-04-18T13:19:34.564Z</time></trkpt><trkpt lat="43.2595333" lon="10.752105"><ele>465.1666666666667</ele><time>2026-04-18T13:19:36.564Z</time></trkpt><trkpt lat="43.2595833" lon="10.7521683"><ele>465.0</ele><time>2026-04-18T13:19:38.564Z</time></trkpt><trkpt lat="43.2596" lon="10.752255"><ele>465.0</ele><time>2026-04-18T13:19:40.564Z</time></trkpt><trkpt lat="43.2595933" lon="10.752415"><ele>465.0</ele><time>2026-04-18T13:19:42.564Z</time></trkpt><trkpt lat="43.259575" lon="10.75252"><ele>465.0</ele><time>2026-04-18T13:19:43.564Z</time></trkpt><trkpt lat="43.259545" lon="10.7526333"><ele>465.0</ele><time>2026-04-18T13:19:44.564Z</time></trkpt><trkpt lat="43.259515" lon="10.75274"><ele>465.0</ele><time>2026-04-18T13:19:45.564Z</time></trkpt><trkpt lat="43.2594833" lon="10.7528433"><ele>465.0</ele><time>2026-04-18T13:19:46.564Z</time></trkpt><trkpt lat="43.25946" lon="10.7529433"><ele>463.3333333333333</ele><time>2026-04-18T13:19:47.564Z</time></trkpt><trkpt lat="43.2594433" lon="10.753035"><ele>461.66666666666663</ele><time>2026-04-18T13:19:48.564Z</time></trkpt><trkpt lat="43.25944" lon="10.7531267"><ele>460.0</ele><time>2026-04-18T13:19:49.564Z</time></trkpt><trkpt lat="43.25944" lon="10.7532233"><ele>458.3333333333333</ele><time>2026-04-18T13:19:50.564Z</time></trkpt><trkpt lat="43.2594783" lon="10.7533783"><ele>456.66666666666663</ele><time>2026-04-18T13:19:52.564Z</time></trkpt><trkpt lat="43.2595117" lon="10.753455"><ele>455.0</ele><time>2026-04-18T13:19:53.564Z</time></trkpt><trkpt lat="43.2595617" lon="10.7535383"><ele>455.49999999999994</ele><time>2026-04-18T13:19:54.564Z</time></trkpt><trkpt lat="43.259625" lon="10.7536283"><ele>456.0</ele><time>2026-04-18T13:19:55.564Z</time></trkpt><trkpt lat="43.259685" lon="10.753705"><ele>456.5</ele><time>2026-04-18T13:19:56.564Z</time></trkpt><trkpt lat="43.25974" lon="10.75379"><ele>457.0</ele><time>2026-04-18T13:19:57.564Z</time></trkpt><trkpt lat="43.2598033" lon="10.7538617"><ele>457.49999999999994</ele><time>2026-04-18T13:19:58.564Z</time></trkpt><trkpt lat="43.25987" lon="10.7539217"><ele>458.0</ele><time>2026-04-18T13:19:59.564Z</time></trkpt><trkpt lat="43.25995" lon="10.7539783"><ele>457.99999999999994</ele><time>2026-04-18T13:20:00.564Z</time></trkpt><trkpt lat="43.2600317" lon="10.7540283"><ele>458.0</ele><time>2026-04-18T13:20:01.565Z</time></trkpt><trkpt lat="43.2601183" lon="10.7540567"><ele>458.0</ele><time>2026-04-18T13:20:02.564Z</time></trkpt><trkpt lat="43.2602017" lon="10.7540883"><ele>458.0</ele><time>2026-04-18T13:20:03.564Z</time></trkpt><trkpt lat="43.2602717" lon="10.754115"><ele>457.99999999999994</ele><time>2026-04-18T13:20:04.564Z</time></trkpt><trkpt lat="43.2603533" lon="10.7541367"><ele>458.0</ele><time>2026-04-18T13:20:05.564Z</time></trkpt><trkpt lat="43.2604283" lon="10.7541417"><ele>458.0</ele><time>2026-04-18T13:20:06.564Z</time></trkpt><trkpt lat="43.2605" lon="10.75414"><ele>457.99999999999994</ele><time>2026-04-18T13:20:07.564Z</time></trkpt><trkpt lat="43.2605667" lon="10.754115"><ele>457.99999999999994</ele><time>2026-04-18T13:20:08.564Z</time></trkpt><trkpt lat="43.26064" lon="10.7540933"><ele>458.0</ele><time>2026-04-18T13:20:09.564Z</time></trkpt><trkpt lat="43.2607017" lon="10.7540733"><ele>458.0</ele><time>2026-04-18T13:20:10.564Z</time></trkpt><trkpt lat="43.2608633" lon="10.7539833"><ele>458.0</ele><time>2026-04-18T13:20:13.564Z</time></trkpt><trkpt lat="43.260915" lon="10.7539283"><ele>457.99999999999994</ele><time>2026-04-18T13:20:14.564Z</time></trkpt><trkpt lat="43.26098" lon="10.7537883"><ele>457.99999999999994</ele><time>2026-04-18T13:20:16.564Z</time></trkpt><trkpt lat="43.2610567" lon="10.7536583"><ele>458.0</ele><time>2026-04-18T13:20:18.564Z</time></trkpt><trkpt lat="43.261165" lon="10.7535933"><ele>458.0</ele><time>2026-04-18T13:20:20.564Z</time></trkpt><trkpt lat="43.261235" lon="10.7535733"><ele>458.0</ele><time>2026-04-18T13:20:21.564Z</time></trkpt><trkpt lat="43.2613117" lon="10.7535483"><ele>457.99999999999994</ele><time>2026-04-18T13:20:22.564Z</time></trkpt><trkpt lat="43.2613867" lon="10.7534967"><ele>457.99999999999994</ele><time>2026-04-18T13:20:23.564Z</time></trkpt><trkpt lat="43.26146" lon="10.75342"><ele>458.0</ele><time>2026-04-18T13:20:24.564Z</time></trkpt><trkpt lat="43.2615417" lon="10.7533317"><ele>458.0</ele><time>2026-04-18T13:20:25.564Z</time></trkpt><trkpt lat="43.2616133" lon="10.7532467"><ele>459.3333333333333</ele><time>2026-04-18T13:20:26.565Z</time></trkpt><trkpt lat="43.2616783" lon="10.753175"><ele>460.66666666666663</ele><time>2026-04-18T13:20:27.564Z</time></trkpt><trkpt lat="43.2617317" lon="10.7531233"><ele>462.0</ele><time>2026-04-18T13:20:28.565Z</time></trkpt><trkpt lat="43.26184" lon="10.7530633"><ele>463.33333333333337</ele><time>2026-04-18T13:20:30.564Z</time></trkpt><trkpt lat="43.2619517" lon="10.753075"><ele>464.6666666666667</ele><time>2026-04-18T13:20:32.564Z</time></trkpt><trkpt lat="43.2620167" lon="10.75311"><ele>466.0</ele><time>2026-04-18T13:20:33.564Z</time></trkpt><trkpt lat="43.2620817" lon="10.7531633"><ele>466.00000000000006</ele><time>2026-04-18T13:20:34.565Z</time></trkpt><trkpt lat="43.2621517" lon="10.7532183"><ele>466.0</ele><time>2026-04-18T13:20:35.565Z</time></trkpt><trkpt lat="43.26223" lon="10.7532833"><ele>466.0</ele><time>2026-04-18T13:20:36.565Z</time></trkpt><trkpt lat="43.2623117" lon="10.75331"><ele>466.0</ele><time>2026-04-18T13:20:37.564Z</time></trkpt><trkpt lat="43.2623867" lon="10.753305"><ele>466.00000000000006</ele><time>2026-04-18T13:20:38.565Z</time></trkpt><trkpt lat="43.2624633" lon="10.7532767"><ele>466.0</ele><time>2026-04-18T13:20:39.564Z</time></trkpt><trkpt lat="43.2625367" lon="10.75325"><ele>465.00000000000006</ele><time>2026-04-18T13:20:40.564Z</time></trkpt><trkpt lat="43.2626017" lon="10.753235"><ele>464.0</ele><time>2026-04-18T13:20:41.564Z</time></trkpt><trkpt lat="43.262665" lon="10.7532533"><ele>463.0</ele><time>2026-04-18T13:20:42.564Z</time></trkpt><trkpt lat="43.2627267" lon="10.7532967"><ele>462.0</ele><time>2026-04-18T13:20:43.564Z</time></trkpt><trkpt lat="43.2627867" lon="10.75336"><ele>461.00000000000006</ele><time>2026-04-18T13:20:44.564Z</time></trkpt><trkpt lat="43.2629283" lon="10.75347"><ele>460.0</ele><time>2026-04-18T13:20:46.564Z</time></trkpt><trkpt lat="43.2630133" lon="10.7535083"><ele>460.00000000000006</ele><time>2026-04-18T13:20:47.565Z</time></trkpt><trkpt lat="43.263105" lon="10.7535333"><ele>460.0</ele><time>2026-04-18T13:20:48.564Z</time></trkpt><trkpt lat="43.2631933" lon="10.753545"><ele>460.0</ele><time>2026-04-18T13:20:49.564Z</time></trkpt><trkpt lat="43.263275" lon="10.7535533"><ele>460.0</ele><time>2026-04-18T13:20:50.564Z</time></trkpt><trkpt lat="43.2633517" lon="10.75357"><ele>460.00000000000006</ele><time>2026-04-18T13:20:51.565Z</time></trkpt><trkpt lat="43.2634217" lon="10.753595"><ele>460.0</ele><time>2026-04-18T13:20:52.564Z</time></trkpt><trkpt lat="43.2634817" lon="10.7536267"><ele>457.2</ele><time>2026-04-18T13:20:53.564Z</time></trkpt><trkpt lat="43.2635417" lon="10.7536617"><ele>454.4</ele><time>2026-04-18T13:20:55.564Z</time></trkpt><trkpt lat="43.263625" lon="10.7536683"><ele>451.6</ele><time>2026-04-18T13:23:25.563Z</time></trkpt><trkpt lat="43.2636583" lon="10.7539083"><ele>448.8</ele><time>2026-04-18T13:23:29.563Z</time></trkpt><trkpt lat="43.2636783" lon="10.7540417"><ele>446.0</ele><time>2026-04-18T13:23:30.563Z</time></trkpt><trkpt lat="43.2637117" lon="10.7541867"><ele>445.99999999999994</ele><time>2026-04-18T13:23:31.563Z</time></trkpt><trkpt lat="43.2637567" lon="10.7543217"><ele>446.0</ele><time>2026-04-18T13:23:32.564Z</time></trkpt><trkpt lat="43.2638067" lon="10.75445"><ele>446.0</ele><time>2026-04-18T13:23:33.563Z</time></trkpt><trkpt lat="43.2638583" lon="10.7545467"><ele>446.0</ele><time>2026-04-18T13:23:34.563Z</time></trkpt><trkpt lat="43.2639067" lon="10.7546167"><ele>445.99999999999994</ele><time>2026-04-18T13:23:35.563Z</time></trkpt><trkpt lat="43.263955" lon="10.7546867"><ele>446.0</ele><time>2026-04-18T13:23:36.563Z</time></trkpt><trkpt lat="43.2640083" lon="10.7547417"><ele>447.3333333333333</ele><time>2026-04-18T13:23:37.563Z</time></trkpt><trkpt lat="43.2641167" lon="10.7548083"><ele>448.66666666666663</ele><time>2026-04-18T13:23:39.563Z</time></trkpt><trkpt lat="43.2641817" lon="10.7548283"><ele>450.0</ele><time>2026-04-18T13:23:40.564Z</time></trkpt><trkpt lat="43.26425" lon="10.7548483"><ele>451.33333333333337</ele><time>2026-04-18T13:23:41.563Z</time></trkpt><trkpt lat="43.2643183" lon="10.7548617"><ele>452.6666666666667</ele><time>2026-04-18T13:23:42.563Z</time></trkpt><trkpt lat="43.2643833" lon="10.75487"><ele>454.0</ele><time>2026-04-18T13:23:43.563Z</time></trkpt><trkpt lat="43.2644483" lon="10.7548817"><ele>454.0</ele><time>2026-04-18T13:23:44.563Z</time></trkpt><trkpt lat="43.2645117" lon="10.7549"><ele>454.00000000000006</ele><time>2026-04-18T13:23:45.563Z</time></trkpt><trkpt lat="43.2645767" lon="10.75492"><ele>454.0</ele><time>2026-04-18T13:23:46.563Z</time></trkpt><trkpt lat="43.2646433" lon="10.754955"><ele>454.0</ele><time>2026-04-18T13:23:47.563Z</time></trkpt><trkpt lat="43.2647133" lon="10.7549883"><ele>454.00000000000006</ele><time>2026-04-18T13:23:48.563Z</time></trkpt><trkpt lat="43.26479" lon="10.7550283"><ele>454.0</ele><time>2026-04-18T13:23:49.564Z</time></trkpt><trkpt lat="43.2648667" lon="10.7550617"><ele>454.0</ele><time>2026-04-18T13:23:50.563Z</time></trkpt><trkpt lat="43.264945" lon="10.7550817"><ele>455.28571428571433</ele><time>2026-04-18T13:23:51.563Z</time></trkpt><trkpt lat="43.2650233" lon="10.7550917"><ele>456.5714285714286</ele><time>2026-04-18T13:23:52.563Z</time></trkpt><trkpt lat="43.2650917" lon="10.7551017"><ele>457.8571428571429</ele><time>2026-04-18T13:23:53.563Z</time></trkpt><trkpt lat="43.2651567" lon="10.7551067"><ele>459.1428571428571</ele><time>2026-04-18T13:23:54.563Z</time></trkpt><trkpt lat="43.26522" lon="10.7551033"><ele>460.4285714285714</ele><time>2026-04-18T13:23:55.563Z</time></trkpt><trkpt lat="43.2652833" lon="10.755095"><ele>461.71428571428567</ele><time>2026-04-18T13:23:56.563Z</time></trkpt><trkpt lat="43.2653517" lon="10.7550833"><ele>463.0</ele><time>2026-04-18T13:23:57.564Z</time></trkpt><trkpt lat="43.2654267" lon="10.75507"><ele>463.0</ele><time>2026-04-18T13:23:58.563Z</time></trkpt><trkpt lat="43.2654983" lon="10.755055"><ele>463.0</ele><time>2026-04-18T13:23:59.563Z</time></trkpt><trkpt lat="43.2657417" lon="10.755035"><ele>463.0</ele><time>2026-04-18T13:24:02.563Z</time></trkpt><trkpt lat="43.26583" lon="10.7550217"><ele>463.0</ele><time>2026-04-18T13:24:03.563Z</time></trkpt><trkpt lat="43.26592" lon="10.7549917"><ele>461.00000000000006</ele><time>2026-04-18T13:24:04.563Z</time></trkpt><trkpt lat="43.2660033" lon="10.7549567"><ele>459.0</ele><time>2026-04-18T13:24:05.563Z</time></trkpt><trkpt lat="43.266085" lon="10.7549283"><ele>457.0</ele><time>2026-04-18T13:24:06.564Z</time></trkpt><trkpt lat="43.2661583" lon="10.7549083"><ele>455.0</ele><time>2026-04-18T13:24:07.564Z</time></trkpt><trkpt lat="43.2662283" lon="10.7549017"><ele>453.00000000000006</ele><time>2026-04-18T13:24:08.563Z</time></trkpt><trkpt lat="43.2663" lon="10.7549117"><ele>451.0</ele><time>2026-04-18T13:24:09.563Z</time></trkpt><trkpt lat="43.266365" lon="10.75493"><ele>451.0</ele><time>2026-04-18T13:24:10.563Z</time></trkpt><trkpt lat="43.2664367" lon="10.7549617"><ele>451.0</ele><time>2026-04-18T13:24:11.563Z</time></trkpt><trkpt lat="43.2665083" lon="10.7550133"><ele>451.0</ele><time>2026-04-18T13:24:12.563Z</time></trkpt><trkpt lat="43.2665933" lon="10.7550717"><ele>451.0</ele><time>2026-04-18T13:24:13.563Z</time></trkpt><trkpt lat="43.26667" lon="10.7551467"><ele>451.0</ele><time>2026-04-18T13:24:14.563Z</time></trkpt><trkpt lat="43.2667617" lon="10.75522"><ele>447.20000000000005</ele><time>2026-04-18T13:24:15.563Z</time></trkpt><trkpt lat="43.2668617" lon="10.75529"><ele>443.40000000000003</ele><time>2026-04-18T13:24:16.564Z</time></trkpt><trkpt lat="43.2669733" lon="10.755345"><ele>439.6</ele><time>2026-04-18T13:24:17.563Z</time></trkpt><trkpt lat="43.26707" lon="10.7553967"><ele>435.8</ele><time>2026-04-18T13:24:18.563Z</time></trkpt><trkpt lat="43.2671617" lon="10.7554383"><ele>432.0</ele><time>2026-04-18T13:24:19.563Z</time></trkpt><trkpt lat="43.267245" lon="10.7554567"><ele>433.6666666666667</ele><time>2026-04-18T13:24:20.563Z</time></trkpt><trkpt lat="43.26733" lon="10.7554667"><ele>435.33333333333337</ele><time>2026-04-18T13:24:21.563Z</time></trkpt><trkpt lat="43.267415" lon="10.7554583"><ele>437.0</ele><time>2026-04-18T13:24:22.563Z</time></trkpt><trkpt lat="43.2674983" lon="10.7554283"><ele>438.6666666666667</ele><time>2026-04-18T13:24:23.563Z</time></trkpt><trkpt lat="43.2675833" lon="10.7553867"><ele>440.33333333333337</ele><time>2026-04-18T13:24:24.563Z</time></trkpt><trkpt lat="43.2676667" lon="10.75533"><ele>442.0</ele><time>2026-04-18T13:24:25.563Z</time></trkpt><trkpt lat="43.267745" lon="10.7552633"><ele>441.40000000000003</ele><time>2026-04-18T13:24:26.563Z</time></trkpt><trkpt lat="43.2678167" lon="10.75518"><ele>440.80000000000007</ele><time>2026-04-18T13:24:27.563Z</time></trkpt><trkpt lat="43.26788" lon="10.7551017"><ele>440.2</ele><time>2026-04-18T13:24:28.563Z</time></trkpt><trkpt lat="43.2679367" lon="10.75504"><ele>439.6</ele><time>2026-04-18T13:24:29.563Z</time></trkpt><trkpt lat="43.2680283" lon="10.7550017"><ele>439.0</ele><time>2026-04-18T13:24:31.563Z</time></trkpt><trkpt lat="43.26815" lon="10.755095"><ele>438.83333333333337</ele><time>2026-04-18T13:24:35.564Z</time></trkpt><trkpt lat="43.268205" lon="10.7551767"><ele>438.6666666666667</ele><time>2026-04-18T13:24:37.563Z</time></trkpt><trkpt lat="43.2682517" lon="10.7553033"><ele>438.5</ele><time>2026-04-18T13:24:39.563Z</time></trkpt><trkpt lat="43.2682867" lon="10.755385"><ele>438.33333333333337</ele><time>2026-04-18T13:24:40.564Z</time></trkpt><trkpt lat="43.268335" lon="10.7554683"><ele>438.1666666666667</ele><time>2026-04-18T13:24:41.563Z</time></trkpt><trkpt lat="43.2684017" lon="10.7555667"><ele>438.0</ele><time>2026-04-18T13:24:42.563Z</time></trkpt><trkpt lat="43.2684917" lon="10.7556767"><ele>437.0</ele><time>2026-04-18T13:24:43.563Z</time></trkpt><trkpt lat="43.268585" lon="10.7557867"><ele>436.0</ele><time>2026-04-18T13:24:44.563Z</time></trkpt><trkpt lat="43.268675" lon="10.755905"><ele>435.0</ele><time>2026-04-18T13:24:45.563Z</time></trkpt><trkpt lat="43.2687717" lon="10.7560167"><ele>434.0</ele><time>2026-04-18T13:24:46.563Z</time></trkpt><trkpt lat="43.2688717" lon="10.7561133"><ele>435.5</ele><time>2026-04-18T13:24:47.563Z</time></trkpt><trkpt lat="43.268965" lon="10.756205"><ele>437.0</ele><time>2026-04-18T13:24:48.563Z</time></trkpt><trkpt lat="43.2690633" lon="10.7563017"><ele>438.5</ele><time>2026-04-18T13:24:49.563Z</time></trkpt><trkpt lat="43.2691633" lon="10.7563967"><ele>440.0</ele><time>2026-04-18T13:24:50.563Z</time></trkpt><trkpt lat="43.26926" lon="10.75649"><ele>440.0</ele><time>2026-04-18T13:24:51.563Z</time></trkpt><trkpt lat="43.2693533" lon="10.7565733"><ele>440.0</ele><time>2026-04-18T13:24:52.564Z</time></trkpt><trkpt lat="43.2694517" lon="10.7566533"><ele>440.0</ele><time>2026-04-18T13:24:53.563Z</time></trkpt><trkpt lat="43.26954" lon="10.7567167"><ele>440.0</ele><time>2026-04-18T13:24:54.563Z</time></trkpt><trkpt lat="43.2696233" lon="10.7567683"><ele>440.0</ele><time>2026-04-18T13:24:55.563Z</time></trkpt><trkpt lat="43.269695" lon="10.7567967"><ele>440.6</ele><time>2026-04-18T13:24:56.563Z</time></trkpt><trkpt lat="43.26978" lon="10.75682"><ele>441.2</ele><time>2026-04-18T13:24:57.563Z</time></trkpt><trkpt lat="43.2698667" lon="10.7568433"><ele>441.79999999999995</ele><time>2026-04-18T13:24:58.564Z</time></trkpt><trkpt lat="43.269965" lon="10.75685"><ele>442.4</ele><time>2026-04-18T13:24:59.562Z</time></trkpt><trkpt lat="43.2700683" lon="10.7568567"><ele>443.0</ele><time>2026-04-18T13:25:00.562Z</time></trkpt><trkpt lat="43.2701683" lon="10.7568633"><ele>442.66666666666663</ele><time>2026-04-18T13:25:01.562Z</time></trkpt><trkpt lat="43.2702633" lon="10.7568783"><ele>442.3333333333333</ele><time>2026-04-18T13:25:02.562Z</time></trkpt><trkpt lat="43.2703567" lon="10.756895"><ele>442.0</ele><time>2026-04-18T13:25:03.562Z</time></trkpt><trkpt lat="43.2704333" lon="10.756925"><ele>441.66666666666663</ele><time>2026-04-18T13:25:04.562Z</time></trkpt><trkpt lat="43.270515" lon="10.7569717"><ele>441.3333333333333</ele><time>2026-04-18T13:25:05.563Z</time></trkpt><trkpt lat="43.270585" lon="10.7570367"><ele>441.0</ele><time>2026-04-18T13:25:06.562Z</time></trkpt><trkpt lat="43.270705" lon="10.75717"><ele>443.4</ele><time>2026-04-18T13:25:08.562Z</time></trkpt><trkpt lat="43.2707483" lon="10.75724"><ele>445.8</ele><time>2026-04-18T13:25:09.562Z</time></trkpt><trkpt lat="43.2707867" lon="10.7573833"><ele>448.19999999999993</ele><time>2026-04-18T13:25:11.562Z</time></trkpt><trkpt lat="43.2707867" lon="10.7575367"><ele>450.59999999999997</ele><time>2026-04-18T13:25:13.562Z</time></trkpt><trkpt lat="43.2707683" lon="10.7577083"><ele>453.0</ele><time>2026-04-18T13:25:15.562Z</time></trkpt><trkpt lat="43.2707817" lon="10.7578833"><ele>453.5</ele><time>2026-04-18T13:25:17.562Z</time></trkpt><trkpt lat="43.2708067" lon="10.7579633"><ele>454.0</ele><time>2026-04-18T13:25:18.562Z</time></trkpt><trkpt lat="43.27084" lon="10.7580517"><ele>454.5</ele><time>2026-04-18T13:25:19.562Z</time></trkpt><trkpt lat="43.270875" lon="10.7581417"><ele>455.0</ele><time>2026-04-18T13:25:20.562Z</time></trkpt><trkpt lat="43.2709067" lon="10.7582267"><ele>455.5</ele><time>2026-04-18T13:25:21.562Z</time></trkpt><trkpt lat="43.2709317" lon="10.758315"><ele>456.0</ele><time>2026-04-18T13:25:22.562Z</time></trkpt><trkpt lat="43.2709417" lon="10.758465"><ele>456.6666666666667</ele><time>2026-04-18T13:25:24.562Z</time></trkpt><trkpt lat="43.270925" lon="10.7586217"><ele>457.33333333333337</ele><time>2026-04-18T13:25:26.562Z</time></trkpt><trkpt lat="43.270905" lon="10.7587083"><ele>458.0</ele><time>2026-04-18T13:25:27.562Z</time></trkpt><trkpt lat="43.2708917" lon="10.7588067"><ele>458.6666666666667</ele><time>2026-04-18T13:25:28.562Z</time></trkpt><trkpt lat="43.2708783" lon="10.7589167"><ele>459.33333333333337</ele><time>2026-04-18T13:25:29.562Z</time></trkpt><trkpt lat="43.2708567" lon="10.759015"><ele>460.0</ele><time>2026-04-18T13:25:30.562Z</time></trkpt><trkpt lat="43.270835" lon="10.7591133"><ele>460.00000000000006</ele><time>2026-04-18T13:25:31.562Z</time></trkpt><trkpt lat="43.270805" lon="10.7591917"><ele>460.0</ele><time>2026-04-18T13:25:32.563Z</time></trkpt><trkpt lat="43.27078" lon="10.7592717"><ele>460.0</ele><time>2026-04-18T13:25:33.562Z</time></trkpt><trkpt lat="43.2707733" lon="10.7594217"><ele>460.0</ele><time>2026-04-18T13:25:35.563Z</time></trkpt><trkpt lat="43.2708033" lon="10.7595783"><ele>460.00000000000006</ele><time>2026-04-18T13:25:37.562Z</time></trkpt><trkpt lat="43.2708217" lon="10.7596683"><ele>460.0</ele><time>2026-04-18T13:25:38.562Z</time></trkpt><trkpt lat="43.2708367" lon="10.7597617"><ele>460.1666666666667</ele><time>2026-04-18T13:25:39.562Z</time></trkpt><trkpt lat="43.2708417" lon="10.7599117"><ele>460.33333333333337</ele><time>2026-04-18T13:25:41.562Z</time></trkpt><trkpt lat="43.2708333" lon="10.76004"><ele>460.5</ele><time>2026-04-18T13:25:43.563Z</time></trkpt><trkpt lat="43.270825" lon="10.7601317"><ele>460.66666666666663</ele><time>2026-04-18T13:25:44.562Z</time></trkpt><trkpt lat="43.270815" lon="10.760245"><ele>460.8333333333333</ele><time>2026-04-18T13:25:45.562Z</time></trkpt><trkpt lat="43.2708067" lon="10.760365"><ele>461.0</ele><time>2026-04-18T13:25:46.563Z</time></trkpt><trkpt lat="43.2708" lon="10.7605167"><ele>460.99999999999994</ele><time>2026-04-18T13:25:47.563Z</time></trkpt><trkpt lat="43.2707917" lon="10.7606583"><ele>461.0</ele><time>2026-04-18T13:25:48.562Z</time></trkpt><trkpt lat="43.2707817" lon="10.7607817"><ele>461.0</ele><time>2026-04-18T13:25:49.563Z</time></trkpt><trkpt lat="43.2707717" lon="10.76089"><ele>461.0</ele><time>2026-04-18T13:25:50.562Z</time></trkpt><trkpt lat="43.270765" lon="10.7609817"><ele>460.99999999999994</ele><time>2026-04-18T13:25:51.562Z</time></trkpt><trkpt lat="43.2708" lon="10.7611067"><ele>461.0</ele><time>2026-04-18T13:25:53.562Z</time></trkpt><trkpt lat="43.27088" lon="10.76121"><ele>460.99999999999994</ele><time>2026-04-18T13:25:55.562Z</time></trkpt><trkpt lat="43.2709867" lon="10.76127"><ele>461.0</ele><time>2026-04-18T13:25:57.562Z</time></trkpt><trkpt lat="43.27106" lon="10.7612883"><ele>461.0</ele><time>2026-04-18T13:25:58.562Z</time></trkpt><trkpt lat="43.2711383" lon="10.7613"><ele>461.0</ele><time>2026-04-18T13:25:59.562Z</time></trkpt><trkpt lat="43.27122" lon="10.761295"><ele>460.99999999999994</ele><time>2026-04-18T13:26:00.562Z</time></trkpt><trkpt lat="43.2713033" lon="10.76129"><ele>461.0</ele><time>2026-04-18T13:26:01.562Z</time></trkpt><trkpt lat="43.2713767" lon="10.7612767"><ele>460.20000000000005</ele><time>2026-04-18T13:26:02.562Z</time></trkpt><trkpt lat="43.2714517" lon="10.7612567"><ele>459.40000000000003</ele><time>2026-04-18T13:26:03.562Z</time></trkpt><trkpt lat="43.2715583" lon="10.761225"><ele>458.6</ele><time>2026-04-18T13:26:05.562Z</time></trkpt><trkpt lat="43.27164" lon="10.7611367"><ele>457.8</ele><time>2026-04-18T13:26:07.562Z</time></trkpt><trkpt lat="43.271695" lon="10.7609967"><ele>457.0</ele><time>2026-04-18T13:26:09.562Z</time></trkpt><trkpt lat="43.271715" lon="10.7609"><ele>460.6</ele><time>2026-04-18T13:26:10.562Z</time></trkpt><trkpt lat="43.2717417" lon="10.7608083"><ele>464.20000000000005</ele><time>2026-04-18T13:26:11.562Z</time></trkpt><trkpt lat="43.2717667" lon="10.76071"><ele>467.8</ele><time>2026-04-18T13:26:12.562Z</time></trkpt><trkpt lat="43.271825" lon="10.7605"><ele>471.4</ele><time>2026-04-18T13:26:14.563Z</time></trkpt><trkpt lat="43.2718567" lon="10.76039"><ele>475.0</ele><time>2026-04-18T13:26:15.562Z</time></trkpt><trkpt lat="43.2718917" lon="10.7602983"><ele>475.00000000000006</ele><time>2026-04-18T13:26:16.563Z</time></trkpt><trkpt lat="43.271935" lon="10.7602283"><ele>475.0</ele><time>2026-04-18T13:26:17.562Z</time></trkpt><trkpt lat="43.2719867" lon="10.7601667"><ele>475.0</ele><time>2026-04-18T13:26:18.562Z</time></trkpt><trkpt lat="43.272095" lon="10.760095"><ele>475.0</ele><time>2026-04-18T13:26:20.563Z</time></trkpt><trkpt lat="43.2721583" lon="10.7600717"><ele>475.00000000000006</ele><time>2026-04-18T13:26:21.562Z</time></trkpt><trkpt lat="43.2722233" lon="10.76005"><ele>475.0</ele><time>2026-04-18T13:26:22.562Z</time></trkpt><trkpt lat="43.2723383" lon="10.76005"><ele>476.6</ele><time>2026-04-18T13:26:24.562Z</time></trkpt><trkpt lat="43.2724783" lon="10.7600983"><ele>478.2</ele><time>2026-04-18T13:26:26.562Z</time></trkpt><trkpt lat="43.2725633" lon="10.7601317"><ele>479.79999999999995</ele><time>2026-04-18T13:26:27.562Z</time></trkpt><trkpt lat="43.2726383" lon="10.7601517"><ele>481.4</ele><time>2026-04-18T13:26:28.562Z</time></trkpt><trkpt lat="43.27272" lon="10.7601583"><ele>483.0</ele><time>2026-04-18T13:26:29.562Z</time></trkpt><trkpt lat="43.2727933" lon="10.7601517"><ele>483.0</ele><time>2026-04-18T13:26:30.563Z</time></trkpt><trkpt lat="43.2728583" lon="10.7601267"><ele>483.0</ele><time>2026-04-18T13:26:31.562Z</time></trkpt><trkpt lat="43.272915" lon="10.7600867"><ele>483.0</ele><time>2026-04-18T13:26:32.562Z</time></trkpt><trkpt lat="43.2729667" lon="10.7600317"><ele>483.0</ele><time>2026-04-18T13:26:33.562Z</time></trkpt><trkpt lat="43.2730233" lon="10.7599633"><ele>483.0</ele><time>2026-04-18T13:26:34.562Z</time></trkpt><trkpt lat="43.2730867" lon="10.75988"><ele>483.0</ele><time>2026-04-18T13:26:35.562Z</time></trkpt><trkpt lat="43.2731617" lon="10.75978"><ele>483.1666666666667</ele><time>2026-04-18T13:26:36.563Z</time></trkpt><trkpt lat="43.2732317" lon="10.7596917"><ele>483.33333333333337</ele><time>2026-04-18T13:26:37.563Z</time></trkpt><trkpt lat="43.273295" lon="10.7596233"><ele>483.5</ele><time>2026-04-18T13:26:38.563Z</time></trkpt><trkpt lat="43.27335" lon="10.7595467"><ele>483.6666666666667</ele><time>2026-04-18T13:26:39.562Z</time></trkpt><trkpt lat="43.2734" lon="10.7594883"><ele>483.83333333333337</ele><time>2026-04-18T13:26:40.562Z</time></trkpt><trkpt lat="43.2734867" lon="10.759385"><ele>484.0</ele><time>2026-04-18T13:26:42.563Z</time></trkpt><trkpt lat="43.27356" lon="10.7593167"><ele>484.0</ele><time>2026-04-18T13:26:44.562Z</time></trkpt><trkpt lat="43.2737517" lon="10.7592017"><ele>484.0</ele><time>2026-04-18T13:26:48.562Z</time></trkpt><trkpt lat="43.2738117" lon="10.7591717"><ele>484.0</ele><time>2026-04-18T13:26:49.562Z</time></trkpt><trkpt lat="43.27392" lon="10.759125"><ele>484.0</ele><time>2026-04-18T13:26:51.563Z</time></trkpt><trkpt lat="43.2740267" lon="10.7590883"><ele>485.83333333333337</ele><time>2026-04-18T13:26:53.562Z</time></trkpt><trkpt lat="43.274155" lon="10.759045"><ele>487.6666666666667</ele><time>2026-04-18T13:26:55.562Z</time></trkpt><trkpt lat="43.2742183" lon="10.7590267"><ele>489.5</ele><time>2026-04-18T13:26:56.562Z</time></trkpt><trkpt lat="43.2742817" lon="10.7590083"><ele>491.33333333333337</ele><time>2026-04-18T13:26:57.562Z</time></trkpt><trkpt lat="43.2743433" lon="10.75898"><ele>493.1666666666667</ele><time>2026-04-18T13:26:58.562Z</time></trkpt><trkpt lat="43.2744617" lon="10.758935"><ele>495.0</ele><time>2026-04-18T13:27:00.562Z</time></trkpt><trkpt lat="43.274585" lon="10.7589283"><ele>495.0</ele><time>2026-04-18T13:27:02.562Z</time></trkpt><trkpt lat="43.2746467" lon="10.758955"><ele>495.0</ele><time>2026-04-18T13:27:03.562Z</time></trkpt><trkpt lat="43.2747117" lon="10.7589733"><ele>495.0</ele><time>2026-04-18T13:27:04.562Z</time></trkpt><trkpt lat="43.2748333" lon="10.7589733"><ele>495.0</ele><time>2026-04-18T13:27:06.563Z</time></trkpt><trkpt lat="43.2749367" lon="10.7589217"><ele>495.0</ele><time>2026-04-18T13:27:08.562Z</time></trkpt><trkpt lat="43.275025" lon="10.7588233"><ele>494.6</ele><time>2026-04-18T13:27:10.562Z</time></trkpt><trkpt lat="43.275105" lon="10.7586983"><ele>494.2</ele><time>2026-04-18T13:27:12.563Z</time></trkpt><trkpt lat="43.275195" lon="10.7586267"><ele>493.79999999999995</ele><time>2026-04-18T13:27:14.562Z</time></trkpt><trkpt lat="43.2753067" lon="10.758625"><ele>493.4</ele><time>2026-04-18T13:27:16.562Z</time></trkpt><trkpt lat="43.27537" lon="10.7586617"><ele>493.0</ele><time>2026-04-18T13:27:17.562Z</time></trkpt><trkpt lat="43.2754367" lon="10.75871"><ele>493.0</ele><time>2026-04-18T13:27:18.562Z</time></trkpt><trkpt lat="43.2755817" lon="10.7588"><ele>492.99999999999994</ele><time>2026-04-18T13:27:20.562Z</time></trkpt><trkpt lat="43.2756567" lon="10.75882"><ele>492.99999999999994</ele><time>2026-04-18T13:27:21.562Z</time></trkpt><trkpt lat="43.2757217" lon="10.7588317"><ele>493.0</ele><time>2026-04-18T13:27:22.562Z</time></trkpt><trkpt lat="43.275785" lon="10.7588317"><ele>493.0</ele><time>2026-04-18T13:27:23.562Z</time></trkpt><trkpt lat="43.2758983" lon="10.7587933"><ele>492.2</ele><time>2026-04-18T13:27:25.563Z</time></trkpt><trkpt lat="43.2759767" lon="10.758695"><ele>491.4</ele><time>2026-04-18T13:27:27.562Z</time></trkpt><trkpt lat="43.276025" lon="10.7585367"><ele>490.59999999999997</ele><time>2026-04-18T13:27:29.562Z</time></trkpt><trkpt lat="43.2760367" lon="10.75844"><ele>489.79999999999995</ele><time>2026-04-18T13:27:30.562Z</time></trkpt><trkpt lat="43.2760467" lon="10.7583183"><ele>489.0</ele><time>2026-04-18T13:27:31.562Z</time></trkpt><trkpt lat="43.2760567" lon="10.758195"><ele>489.0</ele><time>2026-04-18T13:27:32.562Z</time></trkpt><trkpt lat="43.2760617" lon="10.7580733"><ele>489.0</ele><time>2026-04-18T13:27:33.562Z</time></trkpt><trkpt lat="43.2760617" lon="10.7579567"><ele>489.0</ele><time>2026-04-18T13:27:34.562Z</time></trkpt><trkpt lat="43.2760683" lon="10.757845"><ele>489.0</ele><time>2026-04-18T13:27:35.562Z</time></trkpt><trkpt lat="43.2760767" lon="10.7577483"><ele>489.0</ele><time>2026-04-18T13:27:36.562Z</time></trkpt><trkpt lat="43.27611" lon="10.757645"><ele>489.0</ele><time>2026-04-18T13:27:37.562Z</time></trkpt><trkpt lat="43.2761517" lon="10.7575267"><ele>489.0</ele><time>2026-04-18T13:27:38.562Z</time></trkpt><trkpt lat="43.2762033" lon="10.7574133"><ele>489.0</ele><time>2026-04-18T13:27:39.562Z</time></trkpt><trkpt lat="43.27625" lon="10.7573083"><ele>489.0</ele><time>2026-04-18T13:27:40.562Z</time></trkpt><trkpt lat="43.2762867" lon="10.7572233"><ele>489.0</ele><time>2026-04-18T13:27:41.562Z</time></trkpt><trkpt lat="43.2763167" lon="10.757145"><ele>489.0</ele><time>2026-04-18T13:27:42.562Z</time></trkpt><trkpt lat="43.2763933" lon="10.7570167"><ele>489.0</ele><time>2026-04-18T13:27:44.562Z</time></trkpt><trkpt lat="43.2764617" lon="10.7569767"><ele>486.4</ele><time>2026-04-18T13:27:45.562Z</time></trkpt><trkpt lat="43.2765417" lon="10.7569533"><ele>483.79999999999995</ele><time>2026-04-18T13:27:46.562Z</time></trkpt><trkpt lat="43.2766433" lon="10.7569517"><ele>481.20000000000005</ele><time>2026-04-18T13:27:47.562Z</time></trkpt><trkpt lat="43.2767483" lon="10.7569567"><ele>478.6</ele><time>2026-04-18T13:27:48.562Z</time></trkpt><trkpt lat="43.27687" lon="10.7569367"><ele>476.0</ele><time>2026-04-18T13:27:49.562Z</time></trkpt><trkpt lat="43.27699" lon="10.7569017"><ele>475.75</ele><time>2026-04-18T13:27:50.562Z</time></trkpt><trkpt lat="43.2771017" lon="10.7568633"><ele>475.5</ele><time>2026-04-18T13:27:51.562Z</time></trkpt><trkpt lat="43.2773167" lon="10.75678"><ele>475.25</ele><time>2026-04-18T13:27:53.562Z</time></trkpt><trkpt lat="43.277405" lon="10.7567433"><ele>475.0</ele><time>2026-04-18T13:27:54.562Z</time></trkpt><trkpt lat="43.2774783" lon="10.7566967"><ele>475.0</ele><time>2026-04-18T13:27:55.562Z</time></trkpt><trkpt lat="43.2775433" lon="10.7566483"><ele>475.0</ele><time>2026-04-18T13:27:56.562Z</time></trkpt><trkpt lat="43.2776083" lon="10.75658"><ele>475.0</ele><time>2026-04-18T13:27:57.562Z</time></trkpt><trkpt lat="43.27767" lon="10.7564983"><ele>475.0</ele><time>2026-04-18T13:27:58.562Z</time></trkpt><trkpt lat="43.2777417" lon="10.75638"><ele>475.0</ele><time>2026-04-18T13:27:59.562Z</time></trkpt><trkpt lat="43.2778183" lon="10.756245"><ele>475.00000000000006</ele><time>2026-04-18T13:28:00.562Z</time></trkpt><trkpt lat="43.2778833" lon="10.7561167"><ele>475.0</ele><time>2026-04-18T13:28:01.562Z</time></trkpt><trkpt lat="43.27794" lon="10.7559967"><ele>475.0</ele><time>2026-04-18T13:28:02.562Z</time></trkpt><trkpt lat="43.27798" lon="10.7558967"><ele>475.0</ele><time>2026-04-18T13:28:03.562Z</time></trkpt><trkpt lat="43.278015" lon="10.7558"><ele>475.00000000000006</ele><time>2026-04-18T13:28:04.562Z</time></trkpt><trkpt lat="43.2780517" lon="10.75572"><ele>475.0</ele><time>2026-04-18T13:28:05.562Z</time></trkpt><trkpt lat="43.278095" lon="10.755655"><ele>473.4</ele><time>2026-04-18T13:28:06.562Z</time></trkpt><trkpt lat="43.2781883" lon="10.7556117"><ele>471.8</ele><time>2026-04-18T13:28:08.563Z</time></trkpt><trkpt lat="43.2782917" lon="10.7556617"><ele>470.20000000000005</ele><time>2026-04-18T13:28:10.562Z</time></trkpt><trkpt lat="43.278345" lon="10.75571"><ele>468.6</ele><time>2026-04-18T13:28:11.562Z</time></trkpt><trkpt lat="43.2784" lon="10.7557883"><ele>467.0</ele><time>2026-04-18T13:28:12.563Z</time></trkpt><trkpt lat="43.2784567" lon="10.7559067"><ele>466.6</ele><time>2026-04-18T13:28:13.562Z</time></trkpt><trkpt lat="43.278515" lon="10.75604"><ele>466.20000000000005</ele><time>2026-04-18T13:28:14.562Z</time></trkpt><trkpt lat="43.2785683" lon="10.756165"><ele>465.8</ele><time>2026-04-18T13:28:15.562Z</time></trkpt><trkpt lat="43.2786167" lon="10.75627"><ele>465.4</ele><time>2026-04-18T13:28:16.562Z</time></trkpt><trkpt lat="43.27866" lon="10.7563617"><ele>465.0</ele><time>2026-04-18T13:28:17.563Z</time></trkpt><trkpt lat="43.27873" lon="10.75647"><ele>465.0</ele><time>2026-04-18T13:28:19.563Z</time></trkpt><trkpt lat="43.2788133" lon="10.7565133"><ele>465.0</ele><time>2026-04-18T13:28:21.562Z</time></trkpt><trkpt lat="43.2789083" lon="10.7564917"><ele>465.0</ele><time>2026-04-18T13:28:23.562Z</time></trkpt><trkpt lat="43.2790317" lon="10.756315"><ele>465.0</ele><time>2026-04-18T13:28:26.561Z</time></trkpt><trkpt lat="43.279065" lon="10.7562083"><ele>465.0</ele><time>2026-04-18T13:28:27.561Z</time></trkpt><trkpt lat="43.2791067" lon="10.7560883"><ele>464.3333333333333</ele><time>2026-04-18T13:28:28.561Z</time></trkpt><trkpt lat="43.2791417" lon="10.7559683"><ele>463.66666666666663</ele><time>2026-04-18T13:28:29.562Z</time></trkpt><trkpt lat="43.2791683" lon="10.7558733"><ele>463.0</ele><time>2026-04-18T13:28:30.561Z</time></trkpt><trkpt lat="43.279175" lon="10.7557683"><ele>462.3333333333333</ele><time>2026-04-18T13:28:31.561Z</time></trkpt><trkpt lat="43.2791733" lon="10.7556533"><ele>461.66666666666663</ele><time>2026-04-18T13:28:32.561Z</time></trkpt><trkpt lat="43.2791633" lon="10.755525"><ele>461.0</ele><time>2026-04-18T13:28:33.562Z</time></trkpt><trkpt lat="43.2791417" lon="10.7554017"><ele>461.0</ele><time>2026-04-18T13:28:34.561Z</time></trkpt><trkpt lat="43.2791233" lon="10.75528"><ele>461.0</ele><time>2026-04-18T13:28:35.561Z</time></trkpt><trkpt lat="43.279115" lon="10.75518"><ele>461.0</ele><time>2026-04-18T13:28:36.561Z</time></trkpt><trkpt lat="43.2791167" lon="10.75509"><ele>461.0</ele><time>2026-04-18T13:28:37.561Z</time></trkpt><trkpt lat="43.2791517" lon="10.7549467"><ele>461.0</ele><time>2026-04-18T13:28:39.561Z</time></trkpt><trkpt lat="43.2792283" lon="10.7548183"><ele>460.49999999999994</ele><time>2026-04-18T13:28:41.561Z</time></trkpt><trkpt lat="43.279295" lon="10.7547617"><ele>460.0</ele><time>2026-04-18T13:28:42.561Z</time></trkpt><trkpt lat="43.2793667" lon="10.7546917"><ele>459.5</ele><time>2026-04-18T13:28:43.561Z</time></trkpt><trkpt lat="43.2794333" lon="10.75461"><ele>459.0</ele><time>2026-04-18T13:28:44.561Z</time></trkpt><trkpt lat="43.279485" lon="10.7545167"><ele>458.49999999999994</ele><time>2026-04-18T13:28:45.561Z</time></trkpt><trkpt lat="43.279525" lon="10.7544167"><ele>458.0</ele><time>2026-04-18T13:28:46.562Z</time></trkpt><trkpt lat="43.2795517" lon="10.75432"><ele>457.49999999999994</ele><time>2026-04-18T13:28:47.561Z</time></trkpt><trkpt lat="43.2795667" lon="10.7542167"><ele>457.0</ele><time>2026-04-18T13:28:48.561Z</time></trkpt><trkpt lat="43.27958" lon="10.7541083"><ele>456.5</ele><time>2026-04-18T13:28:49.561Z</time></trkpt><trkpt lat="43.2795917" lon="10.7539833"><ele>456.0</ele><time>2026-04-18T13:28:50.561Z</time></trkpt><trkpt lat="43.279615" lon="10.7538517"><ele>455.49999999999994</ele><time>2026-04-18T13:28:51.561Z</time></trkpt><trkpt lat="43.279645" lon="10.7537217"><ele>455.0</ele><time>2026-04-18T13:28:52.561Z</time></trkpt><trkpt lat="43.2796783" lon="10.7536033"><ele>455.8</ele><time>2026-04-18T13:28:53.561Z</time></trkpt><trkpt lat="43.27971" lon="10.753495"><ele>456.6</ele><time>2026-04-18T13:28:54.561Z</time></trkpt><trkpt lat="43.27974" lon="10.7533933"><ele>457.4</ele><time>2026-04-18T13:28:55.561Z</time></trkpt><trkpt lat="43.2797617" lon="10.7533017"><ele>458.2</ele><time>2026-04-18T13:28:56.561Z</time></trkpt><trkpt lat="43.2797833" lon="10.753205"><ele>459.0</ele><time>2026-04-18T13:28:57.561Z</time></trkpt><trkpt lat="43.2798267" lon="10.7529967"><ele>459.0</ele><time>2026-04-18T13:28:59.561Z</time></trkpt><trkpt lat="43.2798433" lon="10.7529033"><ele>459.0</ele><time>2026-04-18T13:29:00.561Z</time></trkpt><trkpt lat="43.27986" lon="10.752745"><ele>459.0</ele><time>2026-04-18T13:29:02.561Z</time></trkpt><trkpt lat="43.2798933" lon="10.7526083"><ele>459.0</ele><time>2026-04-18T13:29:04.562Z</time></trkpt><trkpt lat="43.2799683" lon="10.7525017"><ele>459.0</ele><time>2026-04-18T13:29:06.561Z</time></trkpt><trkpt lat="43.2800617" lon="10.7524217"><ele>457.8333333333333</ele><time>2026-04-18T13:29:08.561Z</time></trkpt><trkpt lat="43.280125" lon="10.7523817"><ele>456.66666666666663</ele><time>2026-04-18T13:29:09.561Z</time></trkpt><trkpt lat="43.280205" lon="10.752355"><ele>455.5</ele><time>2026-04-18T13:29:10.561Z</time></trkpt><trkpt lat="43.2802933" lon="10.7523283"><ele>454.3333333333333</ele><time>2026-04-18T13:29:11.561Z</time></trkpt><trkpt lat="43.2803783" lon="10.7523033"><ele>453.16666666666663</ele><time>2026-04-18T13:29:12.561Z</time></trkpt><trkpt lat="43.280455" lon="10.7522717"><ele>452.0</ele><time>2026-04-18T13:29:13.561Z</time></trkpt><trkpt lat="43.28053" lon="10.7522433"><ele>451.8</ele><time>2026-04-18T13:29:14.561Z</time></trkpt><trkpt lat="43.2806183" lon="10.7522233"><ele>451.6</ele><time>2026-04-18T13:29:15.561Z</time></trkpt><trkpt lat="43.2807067" lon="10.75221"><ele>451.40000000000003</ele><time>2026-04-18T13:29:16.561Z</time></trkpt><trkpt lat="43.2808033" lon="10.7521933"><ele>451.20000000000005</ele><time>2026-04-18T13:29:17.561Z</time></trkpt><trkpt lat="43.2809017" lon="10.752185"><ele>451.0</ele><time>2026-04-18T13:29:18.561Z</time></trkpt><trkpt lat="43.281005" lon="10.752175"><ele>451.0</ele><time>2026-04-18T13:29:19.561Z</time></trkpt><trkpt lat="43.2811033" lon="10.752165"><ele>451.0</ele><time>2026-04-18T13:29:20.561Z</time></trkpt><trkpt lat="43.28119" lon="10.7521517"><ele>451.0</ele><time>2026-04-18T13:29:21.561Z</time></trkpt><trkpt lat="43.2812683" lon="10.75214"><ele>451.0</ele><time>2026-04-18T13:29:22.561Z</time></trkpt><trkpt lat="43.2813417" lon="10.752125"><ele>451.0</ele><time>2026-04-18T13:29:23.561Z</time></trkpt><trkpt lat="43.2814567" lon="10.7521"><ele>449.8</ele><time>2026-04-18T13:29:25.561Z</time></trkpt><trkpt lat="43.28154" lon="10.7520617"><ele>448.6</ele><time>2026-04-18T13:29:27.561Z</time></trkpt><trkpt lat="43.2816017" lon="10.7520117"><ele>447.4</ele><time>2026-04-18T13:29:29.562Z</time></trkpt><trkpt lat="43.2816667" lon="10.7519183"><ele>446.2</ele><time>2026-04-18T13:29:31.561Z</time></trkpt><trkpt lat="43.28172" lon="10.7517817"><ele>445.0</ele><time>2026-04-18T13:29:33.561Z</time></trkpt><trkpt lat="43.2817417" lon="10.7516283"><ele>444.4</ele><time>2026-04-18T13:29:35.561Z</time></trkpt><trkpt lat="43.281765" lon="10.7515183"><ele>443.8</ele><time>2026-04-18T13:29:37.561Z</time></trkpt><trkpt lat="43.2817733" lon="10.7513883"><ele>443.20000000000005</ele><time>2026-04-18T13:29:40.561Z</time></trkpt><trkpt lat="43.281775" lon="10.7512617"><ele>442.6</ele><time>2026-04-18T13:29:42.561Z</time></trkpt><trkpt lat="43.2817783" lon="10.751115"><ele>442.0</ele><time>2026-04-18T13:29:44.561Z</time></trkpt><trkpt lat="43.2817933" lon="10.75098"><ele>441.0</ele><time>2026-04-18T13:29:46.561Z</time></trkpt><trkpt lat="43.281795" lon="10.750855"><ele>440.00000000000006</ele><time>2026-04-18T13:29:48.561Z</time></trkpt><trkpt lat="43.2817617" lon="10.7507267"><ele>439.00000000000006</ele><time>2026-04-18T13:29:50.562Z</time></trkpt><trkpt lat="43.2817017" lon="10.7505933"><ele>438.0</ele><time>2026-04-18T13:29:52.561Z</time></trkpt><trkpt lat="43.281645" lon="10.7504467"><ele>437.0</ele><time>2026-04-18T13:29:54.561Z</time></trkpt><trkpt lat="43.2816133" lon="10.7503717"><ele>436.99999999999994</ele><time>2026-04-18T13:29:55.561Z</time></trkpt><trkpt lat="43.2815817" lon="10.7502217"><ele>437.0</ele><time>2026-04-18T13:29:57.561Z</time></trkpt><trkpt lat="43.2815783" lon="10.7501283"><ele>437.0</ele><time>2026-04-18T13:29:58.561Z</time></trkpt><trkpt lat="43.2815867" lon="10.7500267"><ele>437.0</ele><time>2026-04-18T13:29:59.561Z</time></trkpt><trkpt lat="43.2816083" lon="10.7499283"><ele>436.99999999999994</ele><time>2026-04-18T13:30:00.561Z</time></trkpt><trkpt lat="43.281645" lon="10.7498133"><ele>437.0</ele><time>2026-04-18T13:30:01.561Z</time></trkpt><trkpt lat="43.28172" lon="10.74961"><ele>436.0</ele><time>2026-04-18T13:30:03.561Z</time></trkpt><trkpt lat="43.281755" lon="10.749525"><ele>435.00000000000006</ele><time>2026-04-18T13:30:04.561Z</time></trkpt><trkpt lat="43.2818083" lon="10.7493817"><ele>434.00000000000006</ele><time>2026-04-18T13:30:06.562Z</time></trkpt><trkpt lat="43.2818633" lon="10.74925"><ele>433.0</ele><time>2026-04-18T13:30:08.561Z</time></trkpt><trkpt lat="43.2819217" lon="10.7491583"><ele>432.0</ele><time>2026-04-18T13:30:10.561Z</time></trkpt><trkpt lat="43.282005" lon="10.7491133"><ele>431.8</ele><time>2026-04-18T13:30:12.561Z</time></trkpt><trkpt lat="43.2820933" lon="10.7491"><ele>431.6</ele><time>2026-04-18T13:30:14.561Z</time></trkpt><trkpt lat="43.282195" lon="10.7490633"><ele>431.40000000000003</ele><time>2026-04-18T13:30:16.562Z</time></trkpt><trkpt lat="43.2823083" lon="10.7490133"><ele>431.20000000000005</ele><time>2026-04-18T13:30:18.562Z</time></trkpt><trkpt lat="43.28237" lon="10.7489133"><ele>431.0</ele><time>2026-04-18T13:30:20.561Z</time></trkpt><trkpt lat="43.2823467" lon="10.7487483"><ele>430.99999999999994</ele><time>2026-04-18T13:30:22.561Z</time></trkpt><trkpt lat="43.282325" lon="10.748665"><ele>431.0</ele><time>2026-04-18T13:30:23.561Z</time></trkpt><trkpt lat="43.282305" lon="10.7485183"><ele>431.0</ele><time>2026-04-18T13:30:25.561Z</time></trkpt><trkpt lat="43.282325" lon="10.7483917"><ele>431.0</ele><time>2026-04-18T13:30:27.561Z</time></trkpt><trkpt lat="43.282365" lon="10.7483117"><ele>430.99999999999994</ele><time>2026-04-18T13:30:28.561Z</time></trkpt><trkpt lat="43.2824083" lon="10.7482283"><ele>431.0</ele><time>2026-04-18T13:30:29.561Z</time></trkpt><trkpt lat="43.2824483" lon="10.7481533"><ele>428.66666666666663</ele><time>2026-04-18T13:30:30.561Z</time></trkpt><trkpt lat="43.2824917" lon="10.7480867"><ele>426.3333333333333</ele><time>2026-04-18T13:30:31.561Z</time></trkpt><trkpt lat="43.282535" lon="10.7480217"><ele>424.0</ele><time>2026-04-18T13:30:32.561Z</time></trkpt><trkpt lat="43.28259" lon="10.7479617"><ele>421.66666666666663</ele><time>2026-04-18T13:30:33.561Z</time></trkpt><trkpt lat="43.2827" lon="10.7478533"><ele>419.3333333333333</ele><time>2026-04-18T13:30:35.561Z</time></trkpt><trkpt lat="43.2827667" lon="10.7477617"><ele>417.0</ele><time>2026-04-18T13:30:37.561Z</time></trkpt><trkpt lat="43.2828433" lon="10.7476917"><ele>416.5</ele><time>2026-04-18T13:30:39.561Z</time></trkpt><trkpt lat="43.2829467" lon="10.7476817"><ele>416.0</ele><time>2026-04-18T13:30:41.561Z</time></trkpt><trkpt lat="43.2830317" lon="10.7476417"><ele>415.5</ele><time>2026-04-18T13:30:43.561Z</time></trkpt><trkpt lat="43.2830767" lon="10.74752"><ele>415.0</ele><time>2026-04-18T13:30:45.561Z</time></trkpt><trkpt lat="43.2830917" lon="10.7474333"><ele>414.5</ele><time>2026-04-18T13:30:46.561Z</time></trkpt><trkpt lat="43.2831117" lon="10.7473483"><ele>414.0</ele><time>2026-04-18T13:30:47.562Z</time></trkpt><trkpt lat="43.2831783" lon="10.747205"><ele>414.0</ele><time>2026-04-18T13:30:49.561Z</time></trkpt><trkpt lat="43.283295" lon="10.7471317"><ele>414.0</ele><time>2026-04-18T13:30:51.561Z</time></trkpt><trkpt lat="43.28341" lon="10.74711"><ele>414.0</ele><time>2026-04-18T13:30:53.561Z</time></trkpt><trkpt lat="43.283475" lon="10.7471117"><ele>414.0</ele><time>2026-04-18T13:30:54.561Z</time></trkpt><trkpt lat="43.2835733" lon="10.7471217"><ele>414.0</ele><time>2026-04-18T13:30:56.561Z</time></trkpt><trkpt lat="43.28365" lon="10.747115"><ele>414.0</ele><time>2026-04-18T13:30:58.561Z</time></trkpt><trkpt lat="43.2837067" lon="10.7470367"><ele>414.0</ele><time>2026-04-18T13:31:01.561Z</time></trkpt><trkpt lat="43.283745" lon="10.746965"><ele>414.0</ele><time>2026-04-18T13:31:03.561Z</time></trkpt><trkpt lat="43.2836833" lon="10.746765"><ele>414.0</ele><time>2026-04-18T13:31:08.561Z</time></trkpt><trkpt lat="43.2835717" lon="10.74668"><ele>414.0</ele><time>2026-04-18T13:31:10.561Z</time></trkpt><trkpt lat="43.2835083" lon="10.746635"><ele>411.6</ele><time>2026-04-18T13:31:11.561Z</time></trkpt><trkpt lat="43.2834233" lon="10.7465417"><ele>409.2</ele><time>2026-04-18T13:31:13.561Z</time></trkpt><trkpt lat="43.283375" lon="10.7463933"><ele>406.8</ele><time>2026-04-18T13:31:15.561Z</time></trkpt><trkpt lat="43.2833767" lon="10.7462933"><ele>404.40000000000003</ele><time>2026-04-18T13:31:16.561Z</time></trkpt><trkpt lat="43.2833967" lon="10.746175"><ele>402.0</ele><time>2026-04-18T13:31:17.561Z</time></trkpt><trkpt lat="43.2834317" lon="10.74606"><ele>400.5</ele><time>2026-04-18T13:31:18.561Z</time></trkpt><trkpt lat="43.2834633" lon="10.7459583"><ele>399.0</ele><time>2026-04-18T13:31:19.561Z</time></trkpt><trkpt lat="43.283505" lon="10.74586"><ele>397.5</ele><time>2026-04-18T13:31:20.561Z</time></trkpt><trkpt lat="43.2835517" lon="10.745765"><ele>396.0</ele><time>2026-04-18T13:31:21.561Z</time></trkpt><trkpt lat="43.2836017" lon="10.745685"><ele>394.5</ele><time>2026-04-18T13:31:22.561Z</time></trkpt><trkpt lat="43.2836467" lon="10.7456133"><ele>393.0</ele><time>2026-04-18T13:31:23.561Z</time></trkpt><trkpt lat="43.2836817" lon="10.74554"><ele>393.0</ele><time>2026-04-18T13:31:24.561Z</time></trkpt><trkpt lat="43.283725" lon="10.74541"><ele>393.0</ele><time>2026-04-18T13:31:26.561Z</time></trkpt><trkpt lat="43.2837417" lon="10.745265"><ele>393.0</ele><time>2026-04-18T13:31:28.561Z</time></trkpt><trkpt lat="43.283725" lon="10.74512"><ele>393.0</ele><time>2026-04-18T13:31:30.562Z</time></trkpt><trkpt lat="43.2836733" lon="10.7449567"><ele>393.0</ele><time>2026-04-18T13:31:32.561Z</time></trkpt><trkpt lat="43.2836483" lon="10.74487"><ele>392.2</ele><time>2026-04-18T13:31:33.561Z</time></trkpt><trkpt lat="43.2836183" lon="10.7447767"><ele>391.4</ele><time>2026-04-18T13:31:34.561Z</time></trkpt><trkpt lat="43.283585" lon="10.7446833"><ele>390.59999999999997</ele><time>2026-04-18T13:31:35.561Z</time></trkpt><trkpt lat="43.2835533" lon="10.7446"><ele>389.79999999999995</ele><time>2026-04-18T13:31:36.561Z</time></trkpt><trkpt lat="43.2834917" lon="10.744445"><ele>389.0</ele><time>2026-04-18T13:31:38.562Z</time></trkpt><trkpt lat="43.283375" lon="10.7441867"><ele>388.5714285714286</ele><time>2026-04-18T13:31:41.561Z</time></trkpt><trkpt lat="43.28333" lon="10.7440967"><ele>388.1428571428571</ele><time>2026-04-18T13:31:42.561Z</time></trkpt><trkpt lat="43.28328" lon="10.74401"><ele>387.7142857142857</ele><time>2026-04-18T13:31:43.561Z</time></trkpt><trkpt lat="43.2832317" lon="10.743935"><ele>387.28571428571433</ele><time>2026-04-18T13:31:44.561Z</time></trkpt><trkpt lat="43.2831883" lon="10.7438667"><ele>386.8571428571429</ele><time>2026-04-18T13:31:45.561Z</time></trkpt><trkpt lat="43.2831433" lon="10.7437967"><ele>386.42857142857144</ele><time>2026-04-18T13:31:46.561Z</time></trkpt><trkpt lat="43.2831017" lon="10.7437283"><ele>386.0</ele><time>2026-04-18T13:31:47.561Z</time></trkpt><trkpt lat="43.283045" lon="10.7436317"><ele>383.0</ele><time>2026-04-18T13:31:49.562Z</time></trkpt><trkpt lat="43.2830133" lon="10.7435183"><ele>380.0</ele><time>2026-04-18T13:31:51.561Z</time></trkpt><trkpt lat="43.2829817" lon="10.7433567"><ele>377.0</ele><time>2026-04-18T13:31:53.56Z</time></trkpt><trkpt lat="43.2829667" lon="10.7432667"><ele>374.0</ele><time>2026-04-18T13:31:54.56Z</time></trkpt><trkpt lat="43.2829333" lon="10.7431083"><ele>371.0</ele><time>2026-04-18T13:31:56.56Z</time></trkpt><trkpt lat="43.2829367" lon="10.7429833"><ele>371.0</ele><time>2026-04-18T13:31:58.56Z</time></trkpt><trkpt lat="43.28298" lon="10.74289"><ele>371.0</ele><time>2026-04-18T13:32:00.56Z</time></trkpt><trkpt lat="43.2830617" lon="10.7428433"><ele>371.0</ele><time>2026-04-18T13:32:02.56Z</time></trkpt><trkpt lat="43.2831583" lon="10.7428183"><ele>371.0</ele><time>2026-04-18T13:32:04.56Z</time></trkpt><trkpt lat="43.283255" lon="10.7427367"><ele>371.0</ele><time>2026-04-18T13:32:06.56Z</time></trkpt><trkpt lat="43.2833367" lon="10.7426217"><ele>370.75</ele><time>2026-04-18T13:32:08.56Z</time></trkpt><trkpt lat="43.283435" lon="10.7425667"><ele>370.5</ele><time>2026-04-18T13:32:10.56Z</time></trkpt><trkpt lat="43.2835567" lon="10.742575"><ele>370.25</ele><time>2026-04-18T13:32:13.56Z</time></trkpt><trkpt lat="43.2836533" lon="10.7426533"><ele>370.0</ele><time>2026-04-18T13:32:15.561Z</time></trkpt><trkpt lat="43.2837433" lon="10.7427567"><ele>370.66666666666663</ele><time>2026-04-18T13:32:17.56Z</time></trkpt><trkpt lat="43.2837933" lon="10.7428117"><ele>371.3333333333333</ele><time>2026-04-18T13:32:18.56Z</time></trkpt><trkpt lat="43.2838933" lon="10.742885"><ele>372.0</ele><time>2026-04-18T13:32:20.56Z</time></trkpt><trkpt lat="43.2840183" lon="10.742915"><ele>372.6666666666667</ele><time>2026-04-18T13:32:22.56Z</time></trkpt><trkpt lat="43.284085" lon="10.7429233"><ele>373.33333333333337</ele><time>2026-04-18T13:32:23.56Z</time></trkpt><trkpt lat="43.28415" lon="10.742935"><ele>374.0</ele><time>2026-04-18T13:32:24.56Z</time></trkpt><trkpt lat="43.28421" lon="10.7429633"><ele>374.0</ele><time>2026-04-18T13:32:25.56Z</time></trkpt><trkpt lat="43.2842967" lon="10.7430183"><ele>374.0</ele><time>2026-04-18T13:32:27.56Z</time></trkpt><trkpt lat="43.284365" lon="10.74304"><ele>374.0</ele><time>2026-04-18T13:32:29.56Z</time></trkpt><trkpt lat="43.284455" lon="10.7430567"><ele>374.0</ele><time>2026-04-18T13:32:31.561Z</time></trkpt><trkpt lat="43.2845567" lon="10.7430583"><ele>374.0</ele><time>2026-04-18T13:32:33.56Z</time></trkpt><trkpt lat="43.2846467" lon="10.7430267"><ele>374.0</ele><time>2026-04-18T13:32:35.56Z</time></trkpt><trkpt lat="43.2847383" lon="10.74299"><ele>374.0</ele><time>2026-04-18T13:32:37.56Z</time></trkpt><trkpt lat="43.2848317" lon="10.7429783"><ele>374.0</ele><time>2026-04-18T13:32:39.56Z</time></trkpt><trkpt lat="43.2849017" lon="10.74301"><ele>374.0</ele><time>2026-04-18T13:32:41.56Z</time></trkpt><trkpt lat="43.284985" lon="10.743065"><ele>374.0</ele><time>2026-04-18T13:32:43.56Z</time></trkpt><trkpt lat="43.28511" lon="10.7431933"><ele>372.4</ele><time>2026-04-18T13:32:46.56Z</time></trkpt><trkpt lat="43.2851867" lon="10.7432717"><ele>370.79999999999995</ele><time>2026-04-18T13:32:48.56Z</time></trkpt><trkpt lat="43.2852667" lon="10.74332"><ele>369.20000000000005</ele><time>2026-04-18T13:32:50.56Z</time></trkpt><trkpt lat="43.285365" lon="10.7433383"><ele>367.6</ele><time>2026-04-18T13:32:52.56Z</time></trkpt><trkpt lat="43.2854717" lon="10.743365"><ele>366.0</ele><time>2026-04-18T13:32:54.56Z</time></trkpt><trkpt lat="43.2855567" lon="10.743425"><ele>366.20000000000005</ele><time>2026-04-18T13:32:56.56Z</time></trkpt><trkpt lat="43.285625" lon="10.7435217"><ele>366.40000000000003</ele><time>2026-04-18T13:32:58.561Z</time></trkpt><trkpt lat="43.2856617" lon="10.743645"><ele>366.6</ele><time>2026-04-18T13:33:00.561Z</time></trkpt><trkpt lat="43.2856883" lon="10.7437767"><ele>366.8</ele><time>2026-04-18T13:33:02.56Z</time></trkpt><trkpt lat="43.2857333" lon="10.7438817"><ele>367.0</ele><time>2026-04-18T13:33:04.561Z</time></trkpt><trkpt lat="43.285805" lon="10.7439167"><ele>367.0</ele><time>2026-04-18T13:33:06.56Z</time></trkpt><trkpt lat="43.285865" lon="10.7438267"><ele>367.0</ele><time>2026-04-18T13:33:09.56Z</time></trkpt><trkpt lat="43.2858733" lon="10.7436933"><ele>367.0</ele><time>2026-04-18T13:33:11.56Z</time></trkpt><trkpt lat="43.2858867" lon="10.743545"><ele>367.0</ele><time>2026-04-18T13:33:13.56Z</time></trkpt><trkpt lat="43.285885" lon="10.7434017"><ele>367.0</ele><time>2026-04-18T13:33:15.561Z</time></trkpt><trkpt lat="43.2859817" lon="10.74309"><ele>365.66666666666663</ele><time>2026-04-18T13:33:19.56Z</time></trkpt><trkpt lat="43.2860333" lon="10.7430233"><ele>364.3333333333333</ele><time>2026-04-18T13:33:20.561Z</time></trkpt><trkpt lat="43.2860833" lon="10.7429467"><ele>363.0</ele><time>2026-04-18T13:33:21.561Z</time></trkpt><trkpt lat="43.28613" lon="10.7428617"><ele>361.6666666666667</ele><time>2026-04-18T13:33:22.56Z</time></trkpt><trkpt lat="43.2861717" lon="10.74278"><ele>360.33333333333337</ele><time>2026-04-18T13:33:23.56Z</time></trkpt><trkpt lat="43.28622" lon="10.74267"><ele>359.0</ele><time>2026-04-18T13:33:24.56Z</time></trkpt><trkpt lat="43.2862567" lon="10.7425667"><ele>360.33333333333337</ele><time>2026-04-18T13:33:25.56Z</time></trkpt><trkpt lat="43.286285" lon="10.7424733"><ele>361.6666666666667</ele><time>2026-04-18T13:33:26.56Z</time></trkpt><trkpt lat="43.2863067" lon="10.7423833"><ele>363.0</ele><time>2026-04-18T13:33:27.56Z</time></trkpt><trkpt lat="43.2863333" lon="10.7422267"><ele>364.3333333333333</ele><time>2026-04-18T13:33:29.56Z</time></trkpt><trkpt lat="43.28636" lon="10.7420817"><ele>365.66666666666663</ele><time>2026-04-18T13:33:31.56Z</time></trkpt><trkpt lat="43.2863933" lon="10.742"><ele>367.0</ele><time>2026-04-18T13:33:32.56Z</time></trkpt><trkpt lat="43.28643" lon="10.741905"><ele>364.0</ele><time>2026-04-18T13:33:33.56Z</time></trkpt><trkpt lat="43.286465" lon="10.7418067"><ele>361.0</ele><time>2026-04-18T13:33:34.56Z</time></trkpt><trkpt lat="43.2865" lon="10.7416817"><ele>358.0</ele><time>2026-04-18T13:33:35.56Z</time></trkpt><trkpt lat="43.2865367" lon="10.7415667"><ele>355.0</ele><time>2026-04-18T13:33:36.56Z</time></trkpt><trkpt lat="43.2865717" lon="10.7414767"><ele>352.0</ele><time>2026-04-18T13:33:37.56Z</time></trkpt><trkpt lat="43.2866117" lon="10.741395"><ele>349.0</ele><time>2026-04-18T13:33:38.561Z</time></trkpt><trkpt lat="43.28668" lon="10.7412433"><ele>349.0</ele><time>2026-04-18T13:33:40.56Z</time></trkpt><trkpt lat="43.2867033" lon="10.741155"><ele>349.0</ele><time>2026-04-18T13:33:41.56Z</time></trkpt><trkpt lat="43.2867317" lon="10.7410433"><ele>349.0</ele><time>2026-04-18T13:33:42.56Z</time></trkpt><trkpt lat="43.2867667" lon="10.7409217"><ele>349.0</ele><time>2026-04-18T13:33:43.56Z</time></trkpt><trkpt lat="43.2868033" lon="10.7408067"><ele>349.0</ele><time>2026-04-18T13:33:44.56Z</time></trkpt><trkpt lat="43.28684" lon="10.7407033"><ele>349.0</ele><time>2026-04-18T13:33:45.56Z</time></trkpt><trkpt lat="43.2868767" lon="10.7405967"><ele>345.8333333333333</ele><time>2026-04-18T13:33:46.56Z</time></trkpt><trkpt lat="43.2869" lon="10.7405083"><ele>342.66666666666663</ele><time>2026-04-18T13:33:47.56Z</time></trkpt><trkpt lat="43.2869317" lon="10.7404067"><ele>339.5</ele><time>2026-04-18T13:33:48.56Z</time></trkpt><trkpt lat="43.28697" lon="10.7403183"><ele>336.3333333333333</ele><time>2026-04-18T13:33:49.56Z</time></trkpt><trkpt lat="43.2870417" lon="10.740145"><ele>333.1666666666667</ele><time>2026-04-18T13:33:51.56Z</time></trkpt><trkpt lat="43.28709" lon="10.7400767"><ele>330.0</ele><time>2026-04-18T13:33:52.56Z</time></trkpt><trkpt lat="43.2871417" lon="10.7400133"><ele>331.6</ele><time>2026-04-18T13:33:53.56Z</time></trkpt><trkpt lat="43.287235" lon="10.7399133"><ele>333.2</ele><time>2026-04-18T13:33:55.56Z</time></trkpt><trkpt lat="43.2873233" lon="10.7397683"><ele>334.79999999999995</ele><time>2026-04-18T13:33:57.561Z</time></trkpt><trkpt lat="43.2873567" lon="10.7396783"><ele>336.4</ele><time>2026-04-18T13:33:58.56Z</time></trkpt><trkpt lat="43.2873883" lon="10.7396"><ele>338.0</ele><time>2026-04-18T13:33:59.56Z</time></trkpt><trkpt lat="43.287455" lon="10.7394667"><ele>338.0</ele><time>2026-04-18T13:34:01.56Z</time></trkpt><trkpt lat="43.2875217" lon="10.7393717"><ele>338.0</ele><time>2026-04-18T13:34:03.56Z</time></trkpt><trkpt lat="43.2876017" lon="10.739325"><ele>338.0</ele><time>2026-04-18T13:34:05.56Z</time></trkpt><trkpt lat="43.2876983" lon="10.7393233"><ele>338.0</ele><time>2026-04-18T13:34:07.56Z</time></trkpt><trkpt lat="43.2877967" lon="10.7393967"><ele>338.0</ele><time>2026-04-18T13:34:09.56Z</time></trkpt><trkpt lat="43.2878483" lon="10.7394617"><ele>338.0</ele><time>2026-04-18T13:34:10.56Z</time></trkpt><trkpt lat="43.2878967" lon="10.73953"><ele>338.0</ele><time>2026-04-18T13:34:11.56Z</time></trkpt><trkpt lat="43.28795" lon="10.7396183"><ele>338.0</ele><time>2026-04-18T13:34:13.56Z</time></trkpt><trkpt lat="43.2880133" lon="10.7396317"><ele>338.0</ele><time>2026-04-18T13:34:15.561Z</time></trkpt><trkpt lat="43.288075" lon="10.739585"><ele>338.0</ele><time>2026-04-18T13:34:17.56Z</time></trkpt><trkpt lat="43.2880917" lon="10.7394567"><ele>338.0</ele><time>2026-04-18T13:34:19.56Z</time></trkpt><trkpt lat="43.2881133" lon="10.7393583"><ele>336.0</ele><time>2026-04-18T13:34:20.561Z</time></trkpt><trkpt lat="43.288145" lon="10.739255"><ele>334.0</ele><time>2026-04-18T13:34:21.561Z</time></trkpt><trkpt lat="43.2881933" lon="10.7391517"><ele>332.0</ele><time>2026-04-18T13:34:22.56Z</time></trkpt><trkpt lat="43.2883367" lon="10.7388983"><ele>330.0</ele><time>2026-04-18T13:34:25.56Z</time></trkpt><trkpt lat="43.2883983" lon="10.7388183"><ele>330.0</ele><time>2026-04-18T13:34:26.56Z</time></trkpt><trkpt lat="43.288445" lon="10.7387483"><ele>330.0</ele><time>2026-04-18T13:34:27.56Z</time></trkpt><trkpt lat="43.2884983" lon="10.7386783"><ele>330.0</ele><time>2026-04-18T13:34:28.56Z</time></trkpt><trkpt lat="43.2885417" lon="10.7386067"><ele>330.0</ele><time>2026-04-18T13:34:29.56Z</time></trkpt><trkpt lat="43.2885983" lon="10.7385433"><ele>330.0</ele><time>2026-04-18T13:34:30.56Z</time></trkpt><trkpt lat="43.2886733" lon="10.7384817"><ele>330.0</ele><time>2026-04-18T13:34:31.56Z</time></trkpt><trkpt lat="43.2887517" lon="10.7384267"><ele>329.5</ele><time>2026-04-18T13:34:32.56Z</time></trkpt><trkpt lat="43.288835" lon="10.7383817"><ele>329.0</ele><time>2026-04-18T13:34:33.561Z</time></trkpt><trkpt lat="43.2889117" lon="10.738335"><ele>328.5</ele><time>2026-04-18T13:34:34.56Z</time></trkpt><trkpt lat="43.2889867" lon="10.7382933"><ele>328.0</ele><time>2026-04-18T13:34:35.56Z</time></trkpt><trkpt lat="43.2890583" lon="10.73824"><ele>327.5</ele><time>2026-04-18T13:34:36.56Z</time></trkpt><trkpt lat="43.289125" lon="10.73818"><ele>327.0</ele><time>2026-04-18T13:34:37.561Z</time></trkpt><trkpt lat="43.2891917" lon="10.7381217"><ele>327.0</ele><time>2026-04-18T13:34:38.56Z</time></trkpt><trkpt lat="43.2892583" lon="10.7380783"><ele>327.0</ele><time>2026-04-18T13:34:39.56Z</time></trkpt><trkpt lat="43.2893267" lon="10.7380367"><ele>327.0</ele><time>2026-04-18T13:34:40.56Z</time></trkpt><trkpt lat="43.2894333" lon="10.73798"><ele>327.0</ele><time>2026-04-18T13:34:42.561Z</time></trkpt><trkpt lat="43.289545" lon="10.7379183"><ele>327.0</ele><time>2026-04-18T13:34:44.56Z</time></trkpt><trkpt lat="43.2895967" lon="10.73786"><ele>327.0</ele><time>2026-04-18T13:34:45.56Z</time></trkpt><trkpt lat="43.2896517" lon="10.7377767"><ele>327.0</ele><time>2026-04-18T13:34:46.56Z</time></trkpt><trkpt lat="43.2897133" lon="10.7376817"><ele>327.0</ele><time>2026-04-18T13:34:47.561Z</time></trkpt><trkpt lat="43.2897817" lon="10.737595"><ele>327.0</ele><time>2026-04-18T13:34:48.56Z</time></trkpt><trkpt lat="43.289845" lon="10.737525"><ele>327.0</ele><time>2026-04-18T13:34:49.56Z</time></trkpt><trkpt lat="43.2899067" lon="10.73745"><ele>327.0</ele><time>2026-04-18T13:34:50.56Z</time></trkpt><trkpt lat="43.2899667" lon="10.73738"><ele>325.0</ele><time>2026-04-18T13:34:51.56Z</time></trkpt><trkpt lat="43.2900233" lon="10.7373133"><ele>323.0</ele><time>2026-04-18T13:34:52.56Z</time></trkpt><trkpt lat="43.290075" lon="10.7372583"><ele>321.0</ele><time>2026-04-18T13:34:53.56Z</time></trkpt><trkpt lat="43.290155" lon="10.73713"><ele>319.0</ele><time>2026-04-18T13:34:55.56Z</time></trkpt><trkpt lat="43.2902367" lon="10.736995"><ele>317.0</ele><time>2026-04-18T13:34:57.56Z</time></trkpt><trkpt lat="43.2903067" lon="10.7368667"><ele>314.2</ele><time>2026-04-18T13:34:59.56Z</time></trkpt><trkpt lat="43.290345" lon="10.7367333"><ele>311.4</ele><time>2026-04-18T13:35:01.561Z</time></trkpt><trkpt lat="43.290345" lon="10.7366033"><ele>308.6</ele><time>2026-04-18T13:35:03.56Z</time></trkpt><trkpt lat="43.2903217" lon="10.7364383"><ele>305.8</ele><time>2026-04-18T13:35:05.56Z</time></trkpt><trkpt lat="43.290305" lon="10.73635"><ele>303.0</ele><time>2026-04-18T13:35:06.56Z</time></trkpt><trkpt lat="43.290285" lon="10.7362517"><ele>303.0</ele><time>2026-04-18T13:35:07.56Z</time></trkpt><trkpt lat="43.2902617" lon="10.7361683"><ele>303.0</ele><time>2026-04-18T13:35:08.56Z</time></trkpt><trkpt lat="43.290225" lon="10.7360683"><ele>303.0</ele><time>2026-04-18T13:35:10.56Z</time></trkpt><trkpt lat="43.29017" lon="10.7360117"><ele>303.0</ele><time>2026-04-18T13:35:12.561Z</time></trkpt><trkpt lat="43.2900733" lon="10.7359583"><ele>303.0</ele><time>2026-04-18T13:35:14.56Z</time></trkpt><trkpt lat="43.2900033" lon="10.7359233"><ele>303.0</ele><time>2026-04-18T13:35:15.56Z</time></trkpt><trkpt lat="43.2899033" lon="10.7358817"><ele>303.0</ele><time>2026-04-18T13:35:16.561Z</time></trkpt><trkpt lat="43.2897933" lon="10.7358383"><ele>303.0</ele><time>2026-04-18T13:35:17.559Z</time></trkpt><trkpt lat="43.28968" lon="10.7357967"><ele>303.0</ele><time>2026-04-18T13:35:18.559Z</time></trkpt><trkpt lat="43.2895833" lon="10.7357583"><ele>303.0</ele><time>2026-04-18T13:35:19.559Z</time></trkpt><trkpt lat="43.2895017" lon="10.73573"><ele>303.0</ele><time>2026-04-18T13:35:20.559Z</time></trkpt><trkpt lat="43.289435" lon="10.7356933"><ele>300.6</ele><time>2026-04-18T13:35:21.559Z</time></trkpt><trkpt lat="43.289375" lon="10.7356583"><ele>298.20000000000005</ele><time>2026-04-18T13:35:22.56Z</time></trkpt><trkpt lat="43.289295" lon="10.73557"><ele>295.8</ele><time>2026-04-18T13:35:24.559Z</time></trkpt><trkpt lat="43.28924" lon="10.7354283"><ele>293.40000000000003</ele><time>2026-04-18T13:35:26.559Z</time></trkpt><trkpt lat="43.2892267" lon="10.7353417"><ele>291.0</ele><time>2026-04-18T13:35:27.559Z</time></trkpt><trkpt lat="43.2892183" lon="10.7348533"><ele>291.0</ele><time>2026-04-18T13:35:31.559Z</time></trkpt><trkpt lat="43.2892033" lon="10.7347483"><ele>291.0</ele><time>2026-04-18T13:35:32.559Z</time></trkpt><trkpt lat="43.28918" lon="10.7346567"><ele>291.0</ele><time>2026-04-18T13:35:33.559Z</time></trkpt><trkpt lat="43.2891533" lon="10.73457"><ele>291.0</ele><time>2026-04-18T13:35:34.559Z</time></trkpt><trkpt lat="43.289115" lon="10.7344417"><ele>291.0</ele><time>2026-04-18T13:35:36.56Z</time></trkpt><trkpt lat="43.28913" lon="10.734325"><ele>291.0</ele><time>2026-04-18T13:35:38.559Z</time></trkpt><trkpt lat="43.2891817" lon="10.7342183"><ele>289.0</ele><time>2026-04-18T13:35:40.56Z</time></trkpt><trkpt lat="43.2892817" lon="10.7340883"><ele>287.0</ele><time>2026-04-18T13:35:42.559Z</time></trkpt><trkpt lat="43.2893417" lon="10.7340067"><ele>285.0</ele><time>2026-04-18T13:35:43.559Z</time></trkpt><trkpt lat="43.2894067" lon="10.733935"><ele>283.0</ele><time>2026-04-18T13:35:44.559Z</time></trkpt><trkpt lat="43.2894733" lon="10.7338667"><ele>281.0</ele><time>2026-04-18T13:35:45.559Z</time></trkpt><trkpt lat="43.2895367" lon="10.7338"><ele>281.0</ele><time>2026-04-18T13:35:46.559Z</time></trkpt><trkpt lat="43.289595" lon="10.7337283"><ele>281.0</ele><time>2026-04-18T13:35:47.56Z</time></trkpt><trkpt lat="43.289645" lon="10.733645"><ele>281.0</ele><time>2026-04-18T13:35:48.559Z</time></trkpt><trkpt lat="43.28969" lon="10.7335617"><ele>281.0</ele><time>2026-04-18T13:35:49.559Z</time></trkpt><trkpt lat="43.2897333" lon="10.7334883"><ele>281.0</ele><time>2026-04-18T13:35:50.559Z</time></trkpt><trkpt lat="43.2898117" lon="10.73338"><ele>281.0</ele><time>2026-04-18T13:35:52.559Z</time></trkpt><trkpt lat="43.2899233" lon="10.73332"><ele>281.14285714285717</ele><time>2026-04-18T13:35:54.559Z</time></trkpt><trkpt lat="43.28999" lon="10.7333083"><ele>281.2857142857143</ele><time>2026-04-18T13:35:55.559Z</time></trkpt><trkpt lat="43.2900667" lon="10.7333067"><ele>281.42857142857144</ele><time>2026-04-18T13:35:56.56Z</time></trkpt><trkpt lat="43.2901467" lon="10.733305"><ele>281.57142857142856</ele><time>2026-04-18T13:35:57.559Z</time></trkpt><trkpt lat="43.29021" lon="10.733305"><ele>281.7142857142857</ele><time>2026-04-18T13:35:58.559Z</time></trkpt><trkpt lat="43.290275" lon="10.73333"><ele>281.8571428571429</ele><time>2026-04-18T13:35:59.559Z</time></trkpt><trkpt lat="43.2903367" lon="10.7333567"><ele>282.0</ele><time>2026-04-18T13:36:00.559Z</time></trkpt><trkpt lat="43.2903967" lon="10.7333883"><ele>282.0</ele><time>2026-04-18T13:36:01.559Z</time></trkpt><trkpt lat="43.29053" lon="10.7335117"><ele>282.0</ele><time>2026-04-18T13:36:04.56Z</time></trkpt><trkpt lat="43.2905833" lon="10.7336267"><ele>282.0</ele><time>2026-04-18T13:36:06.559Z</time></trkpt><trkpt lat="43.2906" lon="10.7337367"><ele>282.0</ele><time>2026-04-18T13:36:08.559Z</time></trkpt><trkpt lat="43.290625" lon="10.733835"><ele>282.0</ele><time>2026-04-18T13:36:10.559Z</time></trkpt><trkpt lat="43.2906917" lon="10.7339167"><ele>283.0</ele><time>2026-04-18T13:36:12.559Z</time></trkpt><trkpt lat="43.2908083" lon="10.733975"><ele>284.0</ele><time>2026-04-18T13:36:14.559Z</time></trkpt><trkpt lat="43.2908767" lon="10.7339983"><ele>285.0</ele><time>2026-04-18T13:36:15.559Z</time></trkpt><trkpt lat="43.290945" lon="10.7340017"><ele>286.0</ele><time>2026-04-18T13:36:16.559Z</time></trkpt><trkpt lat="43.2910117" lon="10.7340217"><ele>287.0</ele><time>2026-04-18T13:36:17.56Z</time></trkpt><trkpt lat="43.291095" lon="10.734045"><ele>288.0</ele><time>2026-04-18T13:36:18.559Z</time></trkpt><trkpt lat="43.2911767" lon="10.7340767"><ele>288.00000000000006</ele><time>2026-04-18T13:36:19.559Z</time></trkpt><trkpt lat="43.2912533" lon="10.7341183"><ele>288.0</ele><time>2026-04-18T13:36:20.559Z</time></trkpt><trkpt lat="43.2913117" lon="10.7341667"><ele>288.0</ele><time>2026-04-18T13:36:21.559Z</time></trkpt><trkpt lat="43.2913683" lon="10.7342317"><ele>288.0</ele><time>2026-04-18T13:36:22.559Z</time></trkpt><trkpt lat="43.2914167" lon="10.7343067"><ele>288.0</ele><time>2026-04-18T13:36:23.56Z</time></trkpt><trkpt lat="43.291465" lon="10.7343883"><ele>288.00000000000006</ele><time>2026-04-18T13:36:24.559Z</time></trkpt><trkpt lat="43.291505" lon="10.7344667"><ele>288.0</ele><time>2026-04-18T13:36:25.559Z</time></trkpt><trkpt lat="43.2915417" lon="10.7345467"><ele>287.5</ele><time>2026-04-18T13:36:26.559Z</time></trkpt><trkpt lat="43.29158" lon="10.7346917"><ele>287.0</ele><time>2026-04-18T13:36:28.559Z</time></trkpt><trkpt lat="43.291595" lon="10.734815"><ele>286.5</ele><time>2026-04-18T13:36:30.559Z</time></trkpt><trkpt lat="43.29163" lon="10.7349067"><ele>286.0</ele><time>2026-04-18T13:36:32.559Z</time></trkpt><trkpt lat="43.2918567" lon="10.7347733"><ele>286.0</ele><time>2026-04-18T13:36:37.559Z</time></trkpt><trkpt lat="43.291925" lon="10.7347"><ele>286.0</ele><time>2026-04-18T13:36:38.559Z</time></trkpt><trkpt lat="43.2919917" lon="10.7346217"><ele>286.0</ele><time>2026-04-18T13:36:39.559Z</time></trkpt><trkpt lat="43.29204" lon="10.73453"><ele>286.0</ele><time>2026-04-18T13:36:40.559Z</time></trkpt><trkpt lat="43.2920833" lon="10.7344417"><ele>286.0</ele><time>2026-04-18T13:36:41.56Z</time></trkpt><trkpt lat="43.292115" lon="10.73435"><ele>286.0</ele><time>2026-04-18T13:36:42.56Z</time></trkpt><trkpt lat="43.2921433" lon="10.7342433"><ele>285.99999999999994</ele><time>2026-04-18T13:36:43.559Z</time></trkpt><trkpt lat="43.2921667" lon="10.734145"><ele>286.0</ele><time>2026-04-18T13:36:44.559Z</time></trkpt><trkpt lat="43.2921933" lon="10.73405"><ele>286.0</ele><time>2026-04-18T13:36:45.559Z</time></trkpt><trkpt lat="43.2922217" lon="10.7339633"><ele>286.0</ele><time>2026-04-18T13:36:46.559Z</time></trkpt><trkpt lat="43.2922467" lon="10.73388"><ele>286.0</ele><time>2026-04-18T13:36:47.559Z</time></trkpt><trkpt lat="43.2922583" lon="10.7337933"><ele>285.99999999999994</ele><time>2026-04-18T13:36:48.559Z</time></trkpt><trkpt lat="43.29227" lon="10.7337"><ele>286.0</ele><time>2026-04-18T13:36:49.559Z</time></trkpt><trkpt lat="43.2922717" lon="10.73361"><ele>283.71428571428567</ele><time>2026-04-18T13:36:50.559Z</time></trkpt><trkpt lat="43.2922817" lon="10.7335117"><ele>281.42857142857144</ele><time>2026-04-18T13:36:51.559Z</time></trkpt><trkpt lat="43.2922867" lon="10.733425"><ele>279.1428571428571</ele><time>2026-04-18T13:36:52.56Z</time></trkpt><trkpt lat="43.2923" lon="10.7333383"><ele>276.85714285714283</ele><time>2026-04-18T13:36:53.559Z</time></trkpt><trkpt lat="43.2923133" lon="10.7332517"><ele>274.57142857142856</ele><time>2026-04-18T13:36:54.559Z</time></trkpt><trkpt lat="43.2923383" lon="10.73317"><ele>272.2857142857143</ele><time>2026-04-18T13:36:55.56Z</time></trkpt><trkpt lat="43.2924033" lon="10.73305"><ele>270.0</ele><time>2026-04-18T13:36:57.559Z</time></trkpt><trkpt lat="43.2925" lon="10.732995"><ele>270.0</ele><time>2026-04-18T13:36:59.559Z</time></trkpt><trkpt lat="43.29261" lon="10.7329783"><ele>270.0</ele><time>2026-04-18T13:37:01.559Z</time></trkpt><trkpt lat="43.2927183" lon="10.7329317"><ele>270.0</ele><time>2026-04-18T13:37:03.559Z</time></trkpt><trkpt lat="43.2928167" lon="10.7329017"><ele>270.0</ele><time>2026-04-18T13:37:05.559Z</time></trkpt><trkpt lat="43.2929117" lon="10.732895"><ele>270.0</ele><time>2026-04-18T13:37:07.56Z</time></trkpt><trkpt lat="43.2930317" lon="10.7329083"><ele>270.0</ele><time>2026-04-18T13:37:10.559Z</time></trkpt><trkpt lat="43.2930817" lon="10.7328483"><ele>270.0</ele><time>2026-04-18T13:37:12.56Z</time></trkpt><trkpt lat="43.2930767" lon="10.7327083"><ele>270.0</ele><time>2026-04-18T13:37:14.56Z</time></trkpt><trkpt lat="43.2930567" lon="10.732565"><ele>270.0</ele><time>2026-04-18T13:37:16.559Z</time></trkpt><trkpt lat="43.29307" lon="10.7324733"><ele>270.0</ele><time>2026-04-18T13:37:17.559Z</time></trkpt><trkpt lat="43.293095" lon="10.732375"><ele>270.0</ele><time>2026-04-18T13:37:18.559Z</time></trkpt><trkpt lat="43.2931217" lon="10.7322867"><ele>269.4</ele><time>2026-04-18T13:37:19.559Z</time></trkpt><trkpt lat="43.2931583" lon="10.7321333"><ele>268.8</ele><time>2026-04-18T13:37:21.56Z</time></trkpt><trkpt lat="43.2931367" lon="10.7319783"><ele>268.2</ele><time>2026-04-18T13:37:23.559Z</time></trkpt><trkpt lat="43.2930883" lon="10.7318083"><ele>267.6</ele><time>2026-04-18T13:37:25.559Z</time></trkpt><trkpt lat="43.2930417" lon="10.731715"><ele>267.0</ele><time>2026-04-18T13:37:26.559Z</time></trkpt><trkpt lat="43.293" lon="10.7316133"><ele>265.0</ele><time>2026-04-18T13:37:27.56Z</time></trkpt><trkpt lat="43.2929717" lon="10.73152"><ele>263.0</ele><time>2026-04-18T13:37:28.559Z</time></trkpt><trkpt lat="43.2929683" lon="10.7313683"><ele>261.0</ele><time>2026-04-18T13:37:30.559Z</time></trkpt><trkpt lat="43.2930167" lon="10.731235"><ele>259.0</ele><time>2026-04-18T13:37:32.559Z</time></trkpt><trkpt lat="43.2930633" lon="10.7311567"><ele>257.0</ele><time>2026-04-18T13:37:33.559Z</time></trkpt><trkpt lat="43.2931267" lon="10.7310567"><ele>257.0</ele><time>2026-04-18T13:37:34.56Z</time></trkpt><trkpt lat="43.2931767" lon="10.73093"><ele>257.0</ele><time>2026-04-18T13:37:35.559Z</time></trkpt><trkpt lat="43.293215" lon="10.7308033"><ele>257.0</ele><time>2026-04-18T13:37:36.559Z</time></trkpt><trkpt lat="43.2932467" lon="10.730675"><ele>257.0</ele><time>2026-04-18T13:37:37.559Z</time></trkpt><trkpt lat="43.293275" lon="10.73055"><ele>257.0</ele><time>2026-04-18T13:37:38.559Z</time></trkpt><trkpt lat="43.2933133" lon="10.7304283"><ele>257.0</ele><time>2026-04-18T13:37:39.559Z</time></trkpt><trkpt lat="43.2933383" lon="10.7303333"><ele>257.0</ele><time>2026-04-18T13:37:40.559Z</time></trkpt><trkpt lat="43.2934417" lon="10.7301167"><ele>257.0</ele><time>2026-04-18T13:37:43.56Z</time></trkpt><trkpt lat="43.2934983" lon="10.7300417"><ele>257.0</ele><time>2026-04-18T13:37:44.559Z</time></trkpt><trkpt lat="43.2935617" lon="10.72998"><ele>257.0</ele><time>2026-04-18T13:37:45.559Z</time></trkpt><trkpt lat="43.2936367" lon="10.729935"><ele>256.5</ele><time>2026-04-18T13:37:46.559Z</time></trkpt><trkpt lat="43.2937167" lon="10.72991"><ele>256.0</ele><time>2026-04-18T13:37:47.559Z</time></trkpt><trkpt lat="43.293805" lon="10.7298917"><ele>255.5</ele><time>2026-04-18T13:37:48.559Z</time></trkpt><trkpt lat="43.29389" lon="10.7298767"><ele>255.0</ele><time>2026-04-18T13:37:49.559Z</time></trkpt><trkpt lat="43.2939817" lon="10.7298483"><ele>254.50000000000003</ele><time>2026-04-18T13:37:50.559Z</time></trkpt><trkpt lat="43.29407" lon="10.72981"><ele>254.0</ele><time>2026-04-18T13:37:51.559Z</time></trkpt><trkpt lat="43.2941617" lon="10.7297667"><ele>254.00000000000003</ele><time>2026-04-18T13:37:52.559Z</time></trkpt><trkpt lat="43.294245" lon="10.7297183"><ele>254.0</ele><time>2026-04-18T13:37:53.559Z</time></trkpt><trkpt lat="43.2943133" lon="10.729675"><ele>254.0</ele><time>2026-04-18T13:37:54.559Z</time></trkpt><trkpt lat="43.2944033" lon="10.729615"><ele>254.0</ele><time>2026-04-18T13:37:56.559Z</time></trkpt><trkpt lat="43.2944667" lon="10.7296167"><ele>254.00000000000003</ele><time>2026-04-18T13:40:25.558Z</time></trkpt><trkpt lat="43.2945333" lon="10.7297117"><ele>254.0</ele><time>2026-04-18T13:40:29.558Z</time></trkpt><trkpt lat="43.2945783" lon="10.7297783"><ele>254.00000000000003</ele><time>2026-04-18T13:40:32.558Z</time></trkpt><trkpt lat="43.2946633" lon="10.7297867"><ele>254.0</ele><time>2026-04-18T13:40:35.558Z</time></trkpt><trkpt lat="43.2947183" lon="10.72971"><ele>254.0</ele><time>2026-04-18T13:40:38.558Z</time></trkpt><trkpt lat="43.2947383" lon="10.729585"><ele>254.0</ele><time>2026-04-18T13:40:40.559Z</time></trkpt><trkpt lat="43.294785" lon="10.7295083"><ele>254.00000000000003</ele><time>2026-04-18T13:40:41.558Z</time></trkpt><trkpt lat="43.2948467" lon="10.7294183"><ele>254.0</ele><time>2026-04-18T13:40:42.558Z</time></trkpt><trkpt lat="43.2949117" lon="10.7293467"><ele>252.33333333333334</ele><time>2026-04-18T13:40:43.558Z</time></trkpt><trkpt lat="43.2949867" lon="10.72927"><ele>250.66666666666669</ele><time>2026-04-18T13:40:44.558Z</time></trkpt><trkpt lat="43.295065" lon="10.7292083"><ele>249.0</ele><time>2026-04-18T13:40:45.558Z</time></trkpt><trkpt lat="43.295145" lon="10.729145"><ele>247.33333333333331</ele><time>2026-04-18T13:40:46.558Z</time></trkpt><trkpt lat="43.2952183" lon="10.729085"><ele>245.66666666666666</ele><time>2026-04-18T13:40:47.558Z</time></trkpt><trkpt lat="43.2952883" lon="10.7290167"><ele>244.0</ele><time>2026-04-18T13:40:48.558Z</time></trkpt><trkpt lat="43.2953633" lon="10.728945"><ele>244.0</ele><time>2026-04-18T13:40:49.559Z</time></trkpt><trkpt lat="43.2954383" lon="10.728865"><ele>243.99999999999997</ele><time>2026-04-18T13:40:50.558Z</time></trkpt><trkpt lat="43.295515" lon="10.728765"><ele>243.99999999999997</ele><time>2026-04-18T13:40:51.559Z</time></trkpt><trkpt lat="43.2955917" lon="10.7286283"><ele>244.0</ele><time>2026-04-18T13:40:52.558Z</time></trkpt><trkpt lat="43.2956667" lon="10.7285083"><ele>244.0</ele><time>2026-04-18T13:40:53.558Z</time></trkpt><trkpt lat="43.29573" lon="10.7283667"><ele>240.16666666666666</ele><time>2026-04-18T13:40:54.559Z</time></trkpt><trkpt lat="43.2957817" lon="10.7282267"><ele>236.33333333333331</ele><time>2026-04-18T13:40:55.559Z</time></trkpt><trkpt lat="43.2958267" lon="10.7281183"><ele>232.5</ele><time>2026-04-18T13:40:56.558Z</time></trkpt><trkpt lat="43.295865" lon="10.7280017"><ele>228.66666666666669</ele><time>2026-04-18T13:40:57.558Z</time></trkpt><trkpt lat="43.29588" lon="10.7279133"><ele>224.83333333333334</ele><time>2026-04-18T13:40:58.558Z</time></trkpt><trkpt lat="43.295885" lon="10.7278167"><ele>221.0</ele><time>2026-04-18T13:40:59.558Z</time></trkpt><trkpt lat="43.295775" lon="10.7275183"><ele>220.0</ele><time>2026-04-18T13:41:02.558Z</time></trkpt><trkpt lat="43.295695" lon="10.7274217"><ele>219.00000000000003</ele><time>2026-04-18T13:41:03.558Z</time></trkpt><trkpt lat="43.2956133" lon="10.727335"><ele>218.00000000000003</ele><time>2026-04-18T13:41:04.558Z</time></trkpt><trkpt lat="43.29553" lon="10.7272533"><ele>217.0</ele><time>2026-04-18T13:41:05.558Z</time></trkpt><trkpt lat="43.2954617" lon="10.7271833"><ele>216.0</ele><time>2026-04-18T13:41:06.558Z</time></trkpt><trkpt lat="43.2954033" lon="10.7271317"><ele>215.4</ele><time>2026-04-18T13:41:07.558Z</time></trkpt><trkpt lat="43.2953517" lon="10.7270017"><ele>214.8</ele><time>2026-04-18T13:41:09.558Z</time></trkpt><trkpt lat="43.295395" lon="10.7268483"><ele>214.20000000000002</ele><time>2026-04-18T13:41:11.558Z</time></trkpt><trkpt lat="43.295455" lon="10.7267833"><ele>213.60000000000002</ele><time>2026-04-18T13:41:12.558Z</time></trkpt><trkpt lat="43.2955333" lon="10.72672"><ele>213.0</ele><time>2026-04-18T13:41:13.558Z</time></trkpt><trkpt lat="43.2956067" lon="10.72668"><ele>213.5</ele><time>2026-04-18T13:41:14.558Z</time></trkpt><trkpt lat="43.295675" lon="10.726675"><ele>214.0</ele><time>2026-04-18T13:41:15.559Z</time></trkpt><trkpt lat="43.2957517" lon="10.7267"><ele>214.5</ele><time>2026-04-18T13:41:16.558Z</time></trkpt><trkpt lat="43.2958267" lon="10.72675"><ele>215.0</ele><time>2026-04-18T13:41:17.558Z</time></trkpt><trkpt lat="43.2959117" lon="10.72682"><ele>215.5</ele><time>2026-04-18T13:41:18.558Z</time></trkpt><trkpt lat="43.2959983" lon="10.7268983"><ele>216.0</ele><time>2026-04-18T13:41:19.558Z</time></trkpt><trkpt lat="43.296085" lon="10.7269833"><ele>216.0</ele><time>2026-04-18T13:41:20.558Z</time></trkpt><trkpt lat="43.29616" lon="10.72706"><ele>216.00000000000003</ele><time>2026-04-18T13:41:21.559Z</time></trkpt><trkpt lat="43.2962267" lon="10.7271117"><ele>216.00000000000003</ele><time>2026-04-18T13:41:22.558Z</time></trkpt><trkpt lat="43.2962883" lon="10.727145"><ele>216.0</ele><time>2026-04-18T13:41:23.558Z</time></trkpt><trkpt lat="43.29638" lon="10.7271167"><ele>216.0</ele><time>2026-04-18T13:41:25.558Z</time></trkpt><trkpt lat="43.2963967" lon="10.7269383"><ele>213.8</ele><time>2026-04-18T13:41:27.558Z</time></trkpt><trkpt lat="43.2963933" lon="10.726795"><ele>211.60000000000002</ele><time>2026-04-18T13:41:28.558Z</time></trkpt><trkpt lat="43.29642" lon="10.72664"><ele>209.4</ele><time>2026-04-18T13:41:29.559Z</time></trkpt><trkpt lat="43.29646" lon="10.7264967"><ele>207.2</ele><time>2026-04-18T13:41:30.558Z</time></trkpt><trkpt lat="43.2965017" lon="10.7263633"><ele>205.0</ele><time>2026-04-18T13:41:31.558Z</time></trkpt><trkpt lat="43.2965333" lon="10.7262467"><ele>203.0</ele><time>2026-04-18T13:41:32.558Z</time></trkpt><trkpt lat="43.29647" lon="10.7259567"><ele>201.0</ele><time>2026-04-18T13:41:35.558Z</time></trkpt><trkpt lat="43.2964233" lon="10.7258467"><ele>199.0</ele><time>2026-04-18T13:41:36.558Z</time></trkpt><trkpt lat="43.2964033" lon="10.725735"><ele>197.0</ele><time>2026-04-18T13:41:37.559Z</time></trkpt><trkpt lat="43.2963967" lon="10.7256217"><ele>195.39999999999998</ele><time>2026-04-18T13:41:38.558Z</time></trkpt><trkpt lat="43.2964233" lon="10.7255067"><ele>193.79999999999998</ele><time>2026-04-18T13:41:39.558Z</time></trkpt><trkpt lat="43.29647" lon="10.7253967"><ele>192.2</ele><time>2026-04-18T13:41:40.559Z</time></trkpt><trkpt lat="43.2965133" lon="10.7252833"><ele>190.6</ele><time>2026-04-18T13:41:41.558Z</time></trkpt><trkpt lat="43.29657" lon="10.7251833"><ele>189.0</ele><time>2026-04-18T13:41:42.558Z</time></trkpt><trkpt lat="43.29665" lon="10.7250917"><ele>188.0</ele><time>2026-04-18T13:41:43.558Z</time></trkpt><trkpt lat="43.296745" lon="10.7250267"><ele>187.0</ele><time>2026-04-18T13:41:44.558Z</time></trkpt><trkpt lat="43.2968517" lon="10.724975"><ele>186.0</ele><time>2026-04-18T13:41:45.559Z</time></trkpt><trkpt lat="43.2969617" lon="10.7249333"><ele>185.0</ele><time>2026-04-18T13:41:46.558Z</time></trkpt><trkpt lat="43.297075" lon="10.7248833"><ele>185.0</ele><time>2026-04-18T13:41:47.558Z</time></trkpt><trkpt lat="43.2971967" lon="10.7248367"><ele>185.0</ele><time>2026-04-18T13:41:48.559Z</time></trkpt><trkpt lat="43.29731" lon="10.72479"><ele>185.0</ele><time>2026-04-18T13:41:49.558Z</time></trkpt><trkpt lat="43.2974117" lon="10.7247533"><ele>185.0</ele><time>2026-04-18T13:41:50.558Z</time></trkpt><trkpt lat="43.297505" lon="10.7247233"><ele>185.0</ele><time>2026-04-18T13:41:51.558Z</time></trkpt><trkpt lat="43.29758" lon="10.724695"><ele>185.0</ele><time>2026-04-18T13:41:52.558Z</time></trkpt><trkpt lat="43.2976683" lon="10.7246633"><ele>185.0</ele><time>2026-04-18T13:41:54.558Z</time></trkpt><trkpt lat="43.2977033" lon="10.72456"><ele>185.0</ele><time>2026-04-18T13:41:57.558Z</time></trkpt><trkpt lat="43.297675" lon="10.7244183"><ele>185.0</ele><time>2026-04-18T13:41:59.558Z</time></trkpt><trkpt lat="43.297645" lon="10.72432"><ele>185.0</ele><time>2026-04-18T13:42:00.558Z</time></trkpt><trkpt lat="43.2975967" lon="10.724195"><ele>185.4</ele><time>2026-04-18T13:42:01.558Z</time></trkpt><trkpt lat="43.297545" lon="10.7240717"><ele>185.8</ele><time>2026-04-18T13:42:02.558Z</time></trkpt><trkpt lat="43.2974817" lon="10.7239367"><ele>186.2</ele><time>2026-04-18T13:42:03.558Z</time></trkpt><trkpt lat="43.2974217" lon="10.723805"><ele>186.6</ele><time>2026-04-18T13:42:04.559Z</time></trkpt><trkpt lat="43.2973633" lon="10.7236867"><ele>187.0</ele><time>2026-04-18T13:42:05.558Z</time></trkpt><trkpt lat="43.2972783" lon="10.723325"><ele>187.6</ele><time>2026-04-18T13:42:08.557Z</time></trkpt><trkpt lat="43.2972633" lon="10.7231967"><ele>188.2</ele><time>2026-04-18T13:42:09.557Z</time></trkpt><trkpt lat="43.2972433" lon="10.7230833"><ele>188.8</ele><time>2026-04-18T13:42:10.557Z</time></trkpt><trkpt lat="43.2972183" lon="10.7229717"><ele>189.4</ele><time>2026-04-18T13:42:11.558Z</time></trkpt><trkpt lat="43.297185" lon="10.7228583"><ele>190.0</ele><time>2026-04-18T13:42:12.557Z</time></trkpt><trkpt lat="43.2971317" lon="10.7227417"><ele>188.2</ele><time>2026-04-18T13:42:13.557Z</time></trkpt><trkpt lat="43.29706" lon="10.72263"><ele>186.4</ele><time>2026-04-18T13:42:14.557Z</time></trkpt><trkpt lat="43.2969767" lon="10.7225367"><ele>184.60000000000002</ele><time>2026-04-18T13:42:15.557Z</time></trkpt><trkpt lat="43.296895" lon="10.7224567"><ele>182.8</ele><time>2026-04-18T13:42:16.558Z</time></trkpt><trkpt lat="43.2968233" lon="10.7223667"><ele>181.0</ele><time>2026-04-18T13:42:17.557Z</time></trkpt><trkpt lat="43.2967583" lon="10.7222433"><ele>181.0</ele><time>2026-04-18T13:42:18.557Z</time></trkpt><trkpt lat="43.2967133" lon="10.7220917"><ele>181.0</ele><time>2026-04-18T13:42:19.557Z</time></trkpt><trkpt lat="43.29668" lon="10.7219183"><ele>181.0</ele><time>2026-04-18T13:42:20.557Z</time></trkpt><trkpt lat="43.2966483" lon="10.721745"><ele>181.0</ele><time>2026-04-18T13:42:21.557Z</time></trkpt><trkpt lat="43.296615" lon="10.7215933"><ele>180.66666666666669</ele><time>2026-04-18T13:42:22.557Z</time></trkpt><trkpt lat="43.2965967" lon="10.72147"><ele>180.33333333333334</ele><time>2026-04-18T13:42:23.557Z</time></trkpt><trkpt lat="43.2965933" lon="10.72136"><ele>180.0</ele><time>2026-04-18T13:42:24.557Z</time></trkpt><trkpt lat="43.296615" lon="10.7212667"><ele>179.66666666666666</ele><time>2026-04-18T13:42:25.557Z</time></trkpt><trkpt lat="43.2966667" lon="10.7211917"><ele>179.33333333333331</ele><time>2026-04-18T13:42:26.557Z</time></trkpt><trkpt lat="43.2967433" lon="10.721105"><ele>179.0</ele><time>2026-04-18T13:42:27.557Z</time></trkpt><trkpt lat="43.296845" lon="10.721"><ele>179.0</ele><time>2026-04-18T13:42:28.557Z</time></trkpt><trkpt lat="43.2969717" lon="10.7208583"><ele>179.0</ele><time>2026-04-18T13:42:29.557Z</time></trkpt><trkpt lat="43.2971183" lon="10.7206767"><ele>179.0</ele><time>2026-04-18T13:42:30.557Z</time></trkpt><trkpt lat="43.2972533" lon="10.7205083"><ele>177.66666666666666</ele><time>2026-04-18T13:42:31.558Z</time></trkpt><trkpt lat="43.2973717" lon="10.7203483"><ele>176.33333333333334</ele><time>2026-04-18T13:42:32.557Z</time></trkpt><trkpt lat="43.2974867" lon="10.7202"><ele>175.0</ele><time>2026-04-18T13:42:33.557Z</time></trkpt><trkpt lat="43.2975867" lon="10.7200833"><ele>175.0</ele><time>2026-04-18T13:42:34.557Z</time></trkpt><trkpt lat="43.297675" lon="10.7199733"><ele>175.0</ele><time>2026-04-18T13:42:35.557Z</time></trkpt><trkpt lat="43.2977567" lon="10.7198667"><ele>175.0</ele><time>2026-04-18T13:42:36.557Z</time></trkpt><trkpt lat="43.2978317" lon="10.719765"><ele>175.0</ele><time>2026-04-18T13:42:37.557Z</time></trkpt><trkpt lat="43.29789" lon="10.71968"><ele>175.0</ele><time>2026-04-18T13:42:38.557Z</time></trkpt><trkpt lat="43.2978967" lon="10.7194233"><ele>173.75</ele><time>2026-04-18T13:42:41.557Z</time></trkpt><trkpt lat="43.2978433" lon="10.719325"><ele>172.5</ele><time>2026-04-18T13:42:42.557Z</time></trkpt><trkpt lat="43.2977667" lon="10.7192067"><ele>171.25</ele><time>2026-04-18T13:42:43.558Z</time></trkpt><trkpt lat="43.2976733" lon="10.7190833"><ele>170.0</ele><time>2026-04-18T13:42:44.557Z</time></trkpt><trkpt lat="43.2975833" lon="10.7189517"><ele>170.0</ele><time>2026-04-18T13:42:45.557Z</time></trkpt><trkpt lat="43.2974933" lon="10.7188083"><ele>170.0</ele><time>2026-04-18T13:42:46.557Z</time></trkpt><trkpt lat="43.2974067" lon="10.71867"><ele>170.0</ele><time>2026-04-18T13:42:47.558Z</time></trkpt><trkpt lat="43.2973067" lon="10.718525"><ele>170.0</ele><time>2026-04-18T13:42:48.557Z</time></trkpt><trkpt lat="43.2971983" lon="10.7183633"><ele>170.25</ele><time>2026-04-18T13:42:49.557Z</time></trkpt><trkpt lat="43.2970867" lon="10.7182067"><ele>170.5</ele><time>2026-04-18T13:42:50.557Z</time></trkpt><trkpt lat="43.2969917" lon="10.7180617"><ele>170.75</ele><time>2026-04-18T13:42:51.558Z</time></trkpt><trkpt lat="43.29691" lon="10.7179167"><ele>171.0</ele><time>2026-04-18T13:42:52.557Z</time></trkpt><trkpt lat="43.2968583" lon="10.7177883"><ele>170.4</ele><time>2026-04-18T13:42:53.557Z</time></trkpt><trkpt lat="43.2968217" lon="10.717665"><ele>169.8</ele><time>2026-04-18T13:42:54.557Z</time></trkpt><trkpt lat="43.2968067" lon="10.717545"><ele>169.20000000000002</ele><time>2026-04-18T13:42:55.557Z</time></trkpt><trkpt lat="43.2968" lon="10.7174067"><ele>168.60000000000002</ele><time>2026-04-18T13:42:56.558Z</time></trkpt><trkpt lat="43.2968083" lon="10.717245"><ele>168.0</ele><time>2026-04-18T13:42:57.558Z</time></trkpt><trkpt lat="43.2968117" lon="10.7170733"><ele>166.75</ele><time>2026-04-18T13:42:58.557Z</time></trkpt><trkpt lat="43.2968133" lon="10.7169"><ele>165.5</ele><time>2026-04-18T13:42:59.557Z</time></trkpt><trkpt lat="43.2968217" lon="10.7167317"><ele>164.25</ele><time>2026-04-18T13:43:00.557Z</time></trkpt><trkpt lat="43.2968333" lon="10.7165567"><ele>163.0</ele><time>2026-04-18T13:43:01.557Z</time></trkpt><trkpt lat="43.2968517" lon="10.7163717"><ele>163.0</ele><time>2026-04-18T13:43:02.558Z</time></trkpt><trkpt lat="43.2968683" lon="10.7161867"><ele>163.0</ele><time>2026-04-18T13:43:03.557Z</time></trkpt><trkpt lat="43.2968917" lon="10.716"><ele>163.0</ele><time>2026-04-18T13:43:04.557Z</time></trkpt><trkpt lat="43.29691" lon="10.715825"><ele>163.0</ele><time>2026-04-18T13:43:05.557Z</time></trkpt><trkpt lat="43.2969333" lon="10.7156633"><ele>162.60000000000002</ele><time>2026-04-18T13:43:06.557Z</time></trkpt><trkpt lat="43.2969533" lon="10.7154967"><ele>162.20000000000002</ele><time>2026-04-18T13:43:07.557Z</time></trkpt><trkpt lat="43.2969717" lon="10.7153533"><ele>161.8</ele><time>2026-04-18T13:43:08.557Z</time></trkpt><trkpt lat="43.296975" lon="10.7152217"><ele>161.4</ele><time>2026-04-18T13:43:09.557Z</time></trkpt><trkpt lat="43.2969467" lon="10.7150817"><ele>161.0</ele><time>2026-04-18T13:43:10.558Z</time></trkpt><trkpt lat="43.2969017" lon="10.7149367"><ele>158.5</ele><time>2026-04-18T13:43:11.557Z</time></trkpt><trkpt lat="43.2968383" lon="10.7147867"><ele>156.0</ele><time>2026-04-18T13:43:12.557Z</time></trkpt><trkpt lat="43.2966917" lon="10.7143317"><ele>155.25</ele><time>2026-04-18T13:43:15.558Z</time></trkpt><trkpt lat="43.2966517" lon="10.7141783"><ele>154.5</ele><time>2026-04-18T13:43:16.557Z</time></trkpt><trkpt lat="43.296605" lon="10.71401"><ele>153.75</ele><time>2026-04-18T13:43:17.557Z</time></trkpt><trkpt lat="43.2965617" lon="10.7138183"><ele>153.0</ele><time>2026-04-18T13:43:18.557Z</time></trkpt><trkpt lat="43.2965283" lon="10.7136283"><ele>151.75</ele><time>2026-04-18T13:43:19.557Z</time></trkpt><trkpt lat="43.2965167" lon="10.7134483"><ele>150.5</ele><time>2026-04-18T13:43:20.557Z</time></trkpt><trkpt lat="43.2965033" lon="10.7132767"><ele>149.25</ele><time>2026-04-18T13:43:21.557Z</time></trkpt><trkpt lat="43.2964833" lon="10.71312"><ele>148.0</ele><time>2026-04-18T13:43:22.557Z</time></trkpt><trkpt lat="43.2964683" lon="10.7129783"><ele>148.0</ele><time>2026-04-18T13:43:23.557Z</time></trkpt><trkpt lat="43.2964633" lon="10.7128367"><ele>148.0</ele><time>2026-04-18T13:43:24.558Z</time></trkpt><trkpt lat="43.2964683" lon="10.7126967"><ele>148.0</ele><time>2026-04-18T13:43:25.557Z</time></trkpt><trkpt lat="43.296465" lon="10.7125367"><ele>148.0</ele><time>2026-04-18T13:43:26.557Z</time></trkpt><trkpt lat="43.296465" lon="10.7123967"><ele>148.0</ele><time>2026-04-18T13:43:27.557Z</time></trkpt><trkpt lat="43.296455" lon="10.7122817"><ele>146.6</ele><time>2026-04-18T13:43:28.558Z</time></trkpt><trkpt lat="43.2964417" lon="10.7121883"><ele>145.20000000000002</ele><time>2026-04-18T13:43:29.557Z</time></trkpt><trkpt lat="43.2963833" lon="10.7120583"><ele>143.8</ele><time>2026-04-18T13:43:31.557Z</time></trkpt><trkpt lat="43.296315" lon="10.712035"><ele>142.4</ele><time>2026-04-18T13:43:32.557Z</time></trkpt><trkpt lat="43.2962233" lon="10.712045"><ele>141.0</ele><time>2026-04-18T13:43:33.558Z</time></trkpt><trkpt lat="43.2961117" lon="10.7120767"><ele>137.5</ele><time>2026-04-18T13:43:34.557Z</time></trkpt><trkpt lat="43.2959783" lon="10.7121167"><ele>134.0</ele><time>2026-04-18T13:43:35.557Z</time></trkpt><trkpt lat="43.2958483" lon="10.71215"><ele>130.5</ele><time>2026-04-18T13:43:36.557Z</time></trkpt><trkpt lat="43.2957267" lon="10.712175"><ele>127.0</ele><time>2026-04-18T13:43:37.557Z</time></trkpt><trkpt lat="43.2956083" lon="10.7121817"><ele>123.6</ele><time>2026-04-18T13:43:38.557Z</time></trkpt><trkpt lat="43.2954967" lon="10.712175"><ele>120.19999999999999</ele><time>2026-04-18T13:43:39.557Z</time></trkpt><trkpt lat="43.29539" lon="10.7121483"><ele>116.8</ele><time>2026-04-18T13:43:40.558Z</time></trkpt><trkpt lat="43.29529" lon="10.7121033"><ele>113.4</ele><time>2026-04-18T13:43:41.557Z</time></trkpt><trkpt lat="43.2952" lon="10.7120433"><ele>110.0</ele><time>2026-04-18T13:43:42.557Z</time></trkpt><trkpt lat="43.2951317" lon="10.711965"><ele>109.75</ele><time>2026-04-18T13:43:43.557Z</time></trkpt><trkpt lat="43.2950767" lon="10.711875"><ele>109.5</ele><time>2026-04-18T13:43:44.557Z</time></trkpt><trkpt lat="43.2950417" lon="10.7117833"><ele>109.25</ele><time>2026-04-18T13:43:45.557Z</time></trkpt><trkpt lat="43.295025" lon="10.7116833"><ele>109.0</ele><time>2026-04-18T13:43:46.557Z</time></trkpt><trkpt lat="43.29503" lon="10.7113317"><ele>109.0</ele><time>2026-04-18T13:43:49.557Z</time></trkpt><trkpt lat="43.295" lon="10.7112083"><ele>109.0</ele><time>2026-04-18T13:43:50.557Z</time></trkpt><trkpt lat="43.294945" lon="10.7111167"><ele>109.0</ele><time>2026-04-18T13:43:51.557Z</time></trkpt><trkpt lat="43.294875" lon="10.7110367"><ele>109.0</ele><time>2026-04-18T13:43:52.557Z</time></trkpt><trkpt lat="43.2947917" lon="10.71095"><ele>109.0</ele><time>2026-04-18T13:43:53.557Z</time></trkpt><trkpt lat="43.2946867" lon="10.7108533"><ele>107.25</ele><time>2026-04-18T13:43:54.557Z</time></trkpt><trkpt lat="43.294575" lon="10.7107367"><ele>105.5</ele><time>2026-04-18T13:43:55.557Z</time></trkpt><trkpt lat="43.2944717" lon="10.7106083"><ele>103.75</ele><time>2026-04-18T13:43:56.557Z</time></trkpt><trkpt lat="43.294375" lon="10.710485"><ele>102.0</ele><time>2026-04-18T13:43:57.557Z</time></trkpt><trkpt lat="43.2942833" lon="10.71037"><ele>102.0</ele><time>2026-04-18T13:43:58.557Z</time></trkpt><trkpt lat="43.2941967" lon="10.710255"><ele>102.0</ele><time>2026-04-18T13:43:59.557Z</time></trkpt><trkpt lat="43.29411" lon="10.7101483"><ele>102.0</ele><time>2026-04-18T13:44:00.557Z</time></trkpt><trkpt lat="43.29404" lon="10.7100433"><ele>102.0</ele><time>2026-04-18T13:44:01.557Z</time></trkpt><trkpt lat="43.293995" lon="10.7099433"><ele>102.0</ele><time>2026-04-18T13:44:02.557Z</time></trkpt><trkpt lat="43.293965" lon="10.7098383"><ele>100.8</ele><time>2026-04-18T13:44:03.557Z</time></trkpt><trkpt lat="43.2939483" lon="10.709725"><ele>99.6</ele><time>2026-04-18T13:44:04.557Z</time></trkpt><trkpt lat="43.2939467" lon="10.709605"><ele>98.39999999999999</ele><time>2026-04-18T13:44:05.557Z</time></trkpt><trkpt lat="43.2939517" lon="10.7094767"><ele>97.19999999999999</ele><time>2026-04-18T13:44:06.557Z</time></trkpt><trkpt lat="43.29395" lon="10.7093367"><ele>96.0</ele><time>2026-04-18T13:44:07.557Z</time></trkpt><trkpt lat="43.293945" lon="10.7091867"><ele>92.75</ele><time>2026-04-18T13:44:08.557Z</time></trkpt><trkpt lat="43.2939333" lon="10.7090417"><ele>89.5</ele><time>2026-04-18T13:44:09.557Z</time></trkpt><trkpt lat="43.293915" lon="10.7088883"><ele>86.25</ele><time>2026-04-18T13:44:10.558Z</time></trkpt><trkpt lat="43.2938867" lon="10.7087167"><ele>83.0</ele><time>2026-04-18T13:44:11.557Z</time></trkpt><trkpt lat="43.2938483" lon="10.708525"><ele>80.25</ele><time>2026-04-18T13:44:12.557Z</time></trkpt><trkpt lat="43.2938117" lon="10.7083433"><ele>77.5</ele><time>2026-04-18T13:44:13.557Z</time></trkpt><trkpt lat="43.2937767" lon="10.7081783"><ele>74.75</ele><time>2026-04-18T13:44:14.557Z</time></trkpt><trkpt lat="43.2937417" lon="10.70803"><ele>72.0</ele><time>2026-04-18T13:44:15.557Z</time></trkpt><trkpt lat="43.2936917" lon="10.7079083"><ele>72.0</ele><time>2026-04-18T13:44:16.557Z</time></trkpt><trkpt lat="43.29363" lon="10.7078083"><ele>72.0</ele><time>2026-04-18T13:44:17.557Z</time></trkpt><trkpt lat="43.29355" lon="10.7077233"><ele>72.0</ele><time>2026-04-18T13:44:18.557Z</time></trkpt><trkpt lat="43.2934417" lon="10.7076417"><ele>72.0</ele><time>2026-04-18T13:44:19.557Z</time></trkpt><trkpt lat="43.2932983" lon="10.7075483"><ele>67.0</ele><time>2026-04-18T13:44:20.557Z</time></trkpt><trkpt lat="43.2927933" lon="10.70728"><ele>67.0</ele><time>2026-04-18T13:44:23.557Z</time></trkpt><trkpt lat="43.29265" lon="10.70721"><ele>67.0</ele><time>2026-04-18T13:44:24.557Z</time></trkpt><trkpt lat="43.29252" lon="10.7071483"><ele>67.0</ele><time>2026-04-18T13:44:25.557Z</time></trkpt><trkpt lat="43.29241" lon="10.70709"><ele>67.0</ele><time>2026-04-18T13:44:26.557Z</time></trkpt><trkpt lat="43.2923217" lon="10.7070167"><ele>66.8</ele><time>2026-04-18T13:44:27.558Z</time></trkpt><trkpt lat="43.2922483" lon="10.706925"><ele>66.6</ele><time>2026-04-18T13:44:28.557Z</time></trkpt><trkpt lat="43.2922" lon="10.7068117"><ele>66.39999999999999</ele><time>2026-04-18T13:44:29.557Z</time></trkpt><trkpt lat="43.292185" lon="10.7066933"><ele>66.2</ele><time>2026-04-18T13:44:30.558Z</time></trkpt><trkpt lat="43.2922033" lon="10.7065517"><ele>66.0</ele><time>2026-04-18T13:44:31.558Z</time></trkpt><trkpt lat="43.2922617" lon="10.7063967"><ele>66.0</ele><time>2026-04-18T13:44:32.557Z</time></trkpt><trkpt lat="43.2923633" lon="10.7062183"><ele>66.0</ele><time>2026-04-18T13:44:33.557Z</time></trkpt><trkpt lat="43.29248" lon="10.7060267"><ele>66.0</ele><time>2026-04-18T13:44:34.557Z</time></trkpt><trkpt lat="43.29259" lon="10.7058433"><ele>66.66666666666667</ele><time>2026-04-18T13:44:35.557Z</time></trkpt><trkpt lat="43.2926967" lon="10.7056667"><ele>67.33333333333334</ele><time>2026-04-18T13:44:36.558Z</time></trkpt><trkpt lat="43.292795" lon="10.7055017"><ele>68.0</ele><time>2026-04-18T13:44:37.557Z</time></trkpt><trkpt lat="43.2928817" lon="10.7053417"><ele>69.0</ele><time>2026-04-18T13:44:38.557Z</time></trkpt><trkpt lat="43.2929683" lon="10.7051917"><ele>70.0</ele><time>2026-04-18T13:44:39.558Z</time></trkpt><trkpt lat="43.2930417" lon="10.7050433"><ele>71.0</ele><time>2026-04-18T13:44:40.557Z</time></trkpt><trkpt lat="43.2931067" lon="10.7048567"><ele>72.0</ele><time>2026-04-18T13:44:41.557Z</time></trkpt><trkpt lat="43.29317" lon="10.70463"><ele>69.33333333333333</ele><time>2026-04-18T13:44:42.557Z</time></trkpt><trkpt lat="43.2932317" lon="10.70437"><ele>66.66666666666666</ele><time>2026-04-18T13:44:43.558Z</time></trkpt><trkpt lat="43.2932967" lon="10.7041067"><ele>64.0</ele><time>2026-04-18T13:44:44.557Z</time></trkpt><trkpt lat="43.293355" lon="10.7038517"><ele>64.0</ele><time>2026-04-18T13:44:45.557Z</time></trkpt><trkpt lat="43.2934133" lon="10.7036"><ele>64.0</ele><time>2026-04-18T13:44:46.558Z</time></trkpt><trkpt lat="43.29347" lon="10.70337"><ele>64.0</ele><time>2026-04-18T13:44:47.558Z</time></trkpt><trkpt lat="43.29352" lon="10.7031583"><ele>63.33333333333333</ele><time>2026-04-18T13:44:48.557Z</time></trkpt><trkpt lat="43.2935767" lon="10.7029383"><ele>62.66666666666667</ele><time>2026-04-18T13:44:49.557Z</time></trkpt><trkpt lat="43.2936367" lon="10.7027017"><ele>62.0</ele><time>2026-04-18T13:44:50.557Z</time></trkpt><trkpt lat="43.2936933" lon="10.7024583"><ele>61.66666666666667</ele><time>2026-04-18T13:44:51.557Z</time></trkpt><trkpt lat="43.2937467" lon="10.7022233"><ele>61.33333333333333</ele><time>2026-04-18T13:44:52.557Z</time></trkpt><trkpt lat="43.29379" lon="10.7020267"><ele>61.0</ele><time>2026-04-18T13:44:53.557Z</time></trkpt><trkpt lat="43.293815" lon="10.7014583"><ele>61.666666666666664</ele><time>2026-04-18T13:44:56.557Z</time></trkpt><trkpt lat="43.2937817" lon="10.7011867"><ele>62.33333333333333</ele><time>2026-04-18T13:44:57.557Z</time></trkpt><trkpt lat="43.2937367" lon="10.70089"><ele>63.0</ele><time>2026-04-18T13:44:58.557Z</time></trkpt><trkpt lat="43.2937017" lon="10.7006217"><ele>62.66666666666667</ele><time>2026-04-18T13:44:59.557Z</time></trkpt><trkpt lat="43.293665" lon="10.70037"><ele>62.333333333333336</ele><time>2026-04-18T13:45:00.557Z</time></trkpt><trkpt lat="43.2936217" lon="10.7001467"><ele>62.0</ele><time>2026-04-18T13:45:01.557Z</time></trkpt><trkpt lat="43.293595" lon="10.6999617"><ele>62.0</ele><time>2026-04-18T13:45:02.557Z</time></trkpt><trkpt lat="43.2935667" lon="10.6998"><ele>62.0</ele><time>2026-04-18T13:45:03.557Z</time></trkpt><trkpt lat="43.2935483" lon="10.699645"><ele>62.0</ele><time>2026-04-18T13:45:04.557Z</time></trkpt><trkpt lat="43.2935383" lon="10.6995017"><ele>62.0</ele><time>2026-04-18T13:45:05.558Z</time></trkpt><trkpt lat="43.2935267" lon="10.6993667"><ele>62.0</ele><time>2026-04-18T13:45:06.557Z</time></trkpt><trkpt lat="43.2935117" lon="10.699225"><ele>61.0</ele><time>2026-04-18T13:45:07.558Z</time></trkpt><trkpt lat="43.293505" lon="10.69908"><ele>60.0</ele><time>2026-04-18T13:45:08.557Z</time></trkpt><trkpt lat="43.293505" lon="10.6989333"><ele>59.0</ele><time>2026-04-18T13:45:09.557Z</time></trkpt><trkpt lat="43.2935033" lon="10.6987967"><ele>58.0</ele><time>2026-04-18T13:45:10.557Z</time></trkpt><trkpt lat="43.2935017" lon="10.698685"><ele>57.0</ele><time>2026-04-18T13:45:11.557Z</time></trkpt><trkpt lat="43.2935083" lon="10.6985983"><ele>55.5</ele><time>2026-04-18T13:45:12.557Z</time></trkpt><trkpt lat="43.2935667" lon="10.698485"><ele>54.0</ele><time>2026-04-18T13:45:14.557Z</time></trkpt><trkpt lat="43.2937" lon="10.6984267"><ele>52.5</ele><time>2026-04-18T13:45:16.557Z</time></trkpt><trkpt lat="43.293795" lon="10.69837"><ele>51.0</ele><time>2026-04-18T13:45:17.557Z</time></trkpt><trkpt lat="43.293915" lon="10.698285"><ele>51.0</ele><time>2026-04-18T13:45:18.557Z</time></trkpt><trkpt lat="43.2940533" lon="10.6981683"><ele>51.0</ele><time>2026-04-18T13:45:19.557Z</time></trkpt><trkpt lat="43.2942" lon="10.6980483"><ele>51.0</ele><time>2026-04-18T13:45:20.557Z</time></trkpt><trkpt lat="43.2943533" lon="10.6979183"><ele>51.0</ele><time>2026-04-18T13:45:21.557Z</time></trkpt><trkpt lat="43.2945083" lon="10.6977733"><ele>51.0</ele><time>2026-04-18T13:45:22.557Z</time></trkpt><trkpt lat="43.29467" lon="10.6976317"><ele>51.0</ele><time>2026-04-18T13:45:23.557Z</time></trkpt><trkpt lat="43.294825" lon="10.6974833"><ele>51.0</ele><time>2026-04-18T13:45:24.557Z</time></trkpt><trkpt lat="43.2949733" lon="10.6973433"><ele>51.0</ele><time>2026-04-18T13:45:25.557Z</time></trkpt><trkpt lat="43.295105" lon="10.6972167"><ele>51.0</ele><time>2026-04-18T13:45:26.558Z</time></trkpt><trkpt lat="43.2952467" lon="10.6970917"><ele>52.0</ele><time>2026-04-18T13:45:27.557Z</time></trkpt><trkpt lat="43.2957517" lon="10.6966183"><ele>52.0</ele><time>2026-04-18T13:45:30.557Z</time></trkpt><trkpt lat="43.2959217" lon="10.69646"><ele>52.0</ele><time>2026-04-18T13:45:31.556Z</time></trkpt><trkpt lat="43.2960883" lon="10.6963083"><ele>52.0</ele><time>2026-04-18T13:45:32.557Z</time></trkpt><trkpt lat="43.2962583" lon="10.6961467"><ele>51.33333333333333</ele><time>2026-04-18T13:45:33.556Z</time></trkpt><trkpt lat="43.29643" lon="10.6959967"><ele>50.66666666666667</ele><time>2026-04-18T13:45:34.557Z</time></trkpt><trkpt lat="43.2966033" lon="10.69584"><ele>50.0</ele><time>2026-04-18T13:45:35.556Z</time></trkpt><trkpt lat="43.2967833" lon="10.6956817"><ele>50.0</ele><time>2026-04-18T13:45:36.557Z</time></trkpt><trkpt lat="43.2969633" lon="10.6955167"><ele>50.0</ele><time>2026-04-18T13:45:37.556Z</time></trkpt><trkpt lat="43.2971467" lon="10.695345"><ele>50.0</ele><time>2026-04-18T13:45:38.557Z</time></trkpt><trkpt lat="43.2973367" lon="10.6951733"><ele>50.0</ele><time>2026-04-18T13:45:39.556Z</time></trkpt><trkpt lat="43.2975233" lon="10.6950017"><ele>50.0</ele><time>2026-04-18T13:45:40.556Z</time></trkpt><trkpt lat="43.2977117" lon="10.6948383"><ele>50.0</ele><time>2026-04-18T13:45:41.556Z</time></trkpt><trkpt lat="43.2978983" lon="10.6946683"><ele>50.0</ele><time>2026-04-18T13:45:42.556Z</time></trkpt><trkpt lat="43.2980883" lon="10.6945117"><ele>50.0</ele><time>2026-04-18T13:45:43.557Z</time></trkpt><trkpt lat="43.2982767" lon="10.6943483"><ele>50.0</ele><time>2026-04-18T13:45:44.556Z</time></trkpt><trkpt lat="43.29846" lon="10.6941717"><ele>49.0</ele><time>2026-04-18T13:45:45.556Z</time></trkpt><trkpt lat="43.298645" lon="10.694005"><ele>48.0</ele><time>2026-04-18T13:45:46.556Z</time></trkpt><trkpt lat="43.2988233" lon="10.693845"><ele>47.0</ele><time>2026-04-18T13:45:47.556Z</time></trkpt><trkpt lat="43.299" lon="10.6936817"><ele>46.666666666666664</ele><time>2026-04-18T13:45:48.556Z</time></trkpt><trkpt lat="43.2991767" lon="10.693525"><ele>46.333333333333336</ele><time>2026-04-18T13:45:49.556Z</time></trkpt><trkpt lat="43.29935" lon="10.6933683"><ele>46.0</ele><time>2026-04-18T13:45:50.556Z</time></trkpt><trkpt lat="43.29952" lon="10.6932133"><ele>46.0</ele><time>2026-04-18T13:45:51.556Z</time></trkpt><trkpt lat="43.29969" lon="10.6930533"><ele>46.0</ele><time>2026-04-18T13:45:52.556Z</time></trkpt><trkpt lat="43.29986" lon="10.692895"><ele>46.0</ele><time>2026-04-18T13:45:53.556Z</time></trkpt><trkpt lat="43.300035" lon="10.6927433"><ele>46.333333333333336</ele><time>2026-04-18T13:45:54.556Z</time></trkpt><trkpt lat="43.3002083" lon="10.692585"><ele>46.666666666666664</ele><time>2026-04-18T13:45:55.556Z</time></trkpt><trkpt lat="43.3003767" lon="10.6924283"><ele>47.0</ele><time>2026-04-18T13:45:56.556Z</time></trkpt><trkpt lat="43.3005433" lon="10.6922567"><ele>47.666666666666664</ele><time>2026-04-18T13:45:57.556Z</time></trkpt><trkpt lat="43.3007067" lon="10.6920667"><ele>48.33333333333333</ele><time>2026-04-18T13:45:58.556Z</time></trkpt><trkpt lat="43.3008633" lon="10.6918617"><ele>49.0</ele><time>2026-04-18T13:45:59.556Z</time></trkpt><trkpt lat="43.3010167" lon="10.6916317"><ele>49.0</ele><time>2026-04-18T13:46:00.556Z</time></trkpt><trkpt lat="43.3011617" lon="10.6914033"><ele>49.0</ele><time>2026-04-18T13:46:01.556Z</time></trkpt><trkpt lat="43.3015717" lon="10.6907267"><ele>48.666666666666664</ele><time>2026-04-18T13:46:04.556Z</time></trkpt><trkpt lat="43.30171" lon="10.6904933"><ele>48.33333333333333</ele><time>2026-04-18T13:46:05.556Z</time></trkpt><trkpt lat="43.30185" lon="10.690265"><ele>48.0</ele><time>2026-04-18T13:46:06.556Z</time></trkpt><trkpt lat="43.301985" lon="10.690045"><ele>46.666666666666664</ele><time>2026-04-18T13:46:07.557Z</time></trkpt><trkpt lat="43.302115" lon="10.6898333"><ele>45.33333333333333</ele><time>2026-04-18T13:46:08.556Z</time></trkpt><trkpt lat="43.3022483" lon="10.6896317"><ele>44.0</ele><time>2026-04-18T13:46:09.557Z</time></trkpt><trkpt lat="43.30239" lon="10.6894267"><ele>44.666666666666664</ele><time>2026-04-18T13:46:10.557Z</time></trkpt><trkpt lat="43.3025417" lon="10.6892267"><ele>45.333333333333336</ele><time>2026-04-18T13:46:11.556Z</time></trkpt><trkpt lat="43.3026983" lon="10.689035"><ele>46.0</ele><time>2026-04-18T13:46:12.556Z</time></trkpt><trkpt lat="43.3028617" lon="10.6888533"><ele>46.0</ele><time>2026-04-18T13:46:13.556Z</time></trkpt><trkpt lat="43.3030317" lon="10.68868"><ele>46.0</ele><time>2026-04-18T13:46:14.557Z</time></trkpt><trkpt lat="43.3032" lon="10.6885067"><ele>46.0</ele><time>2026-04-18T13:46:15.557Z</time></trkpt><trkpt lat="43.3033667" lon="10.6883283"><ele>46.0</ele><time>2026-04-18T13:46:16.556Z</time></trkpt><trkpt lat="43.3035383" lon="10.6881467"><ele>46.0</ele><time>2026-04-18T13:46:17.556Z</time></trkpt><trkpt lat="43.30371" lon="10.6879583"><ele>46.0</ele><time>2026-04-18T13:46:18.556Z</time></trkpt><trkpt lat="43.3038867" lon="10.6877767"><ele>46.66666666666667</ele><time>2026-04-18T13:46:19.557Z</time></trkpt><trkpt lat="43.3040617" lon="10.6875917"><ele>47.333333333333336</ele><time>2026-04-18T13:46:20.556Z</time></trkpt><trkpt lat="43.3042383" lon="10.6874167"><ele>48.0</ele><time>2026-04-18T13:46:21.556Z</time></trkpt><trkpt lat="43.304405" lon="10.687235"><ele>48.0</ele><time>2026-04-18T13:46:22.556Z</time></trkpt><trkpt lat="43.304575" lon="10.6870517"><ele>48.0</ele><time>2026-04-18T13:46:23.557Z</time></trkpt><trkpt lat="43.3047517" lon="10.6868633"><ele>48.0</ele><time>2026-04-18T13:46:24.556Z</time></trkpt><trkpt lat="43.3049333" lon="10.6866717"><ele>47.0</ele><time>2026-04-18T13:46:25.556Z</time></trkpt><trkpt lat="43.3051183" lon="10.6864833"><ele>46.0</ele><time>2026-04-18T13:46:26.556Z</time></trkpt><trkpt lat="43.3053033" lon="10.6862867"><ele>45.5</ele><time>2026-04-18T13:46:27.556Z</time></trkpt><trkpt lat="43.3054917" lon="10.6860783"><ele>45.0</ele><time>2026-04-18T13:46:28.556Z</time></trkpt><trkpt lat="43.3056667" lon="10.6858467"><ele>45.0</ele><time>2026-04-18T13:46:29.556Z</time></trkpt><trkpt lat="43.3058233" lon="10.6856017"><ele>45.0</ele><time>2026-04-18T13:46:30.556Z</time></trkpt><trkpt lat="43.30596" lon="10.6853533"><ele>44.333333333333336</ele><time>2026-04-18T13:46:31.556Z</time></trkpt><trkpt lat="43.3060917" lon="10.685115"><ele>43.66666666666667</ele><time>2026-04-18T13:46:32.556Z</time></trkpt><trkpt lat="43.30622" lon="10.6848883"><ele>43.0</ele><time>2026-04-18T13:46:33.556Z</time></trkpt><trkpt lat="43.3063517" lon="10.6846567"><ele>44.0</ele><time>2026-04-18T13:46:34.556Z</time></trkpt><trkpt lat="43.306735" lon="10.6839433"><ele>44.0</ele><time>2026-04-18T13:46:37.556Z</time></trkpt><trkpt lat="43.3068633" lon="10.6836983"><ele>44.0</ele><time>2026-04-18T13:46:38.556Z</time></trkpt><trkpt lat="43.3069867" lon="10.683455"><ele>44.0</ele><time>2026-04-18T13:46:39.556Z</time></trkpt><trkpt lat="43.307115" lon="10.6832283"><ele>43.666666666666664</ele><time>2026-04-18T13:46:40.557Z</time></trkpt><trkpt lat="43.3072333" lon="10.683015"><ele>43.333333333333336</ele><time>2026-04-18T13:46:41.557Z</time></trkpt><trkpt lat="43.30735" lon="10.682785"><ele>43.0</ele><time>2026-04-18T13:46:42.556Z</time></trkpt><trkpt lat="43.307475" lon="10.68256"><ele>42.66666666666667</ele><time>2026-04-18T13:46:43.556Z</time></trkpt><trkpt lat="43.3075983" lon="10.6823317"><ele>42.333333333333336</ele><time>2026-04-18T13:46:44.556Z</time></trkpt><trkpt lat="43.3077267" lon="10.68209"><ele>42.0</ele><time>2026-04-18T13:46:45.557Z</time></trkpt><trkpt lat="43.3078617" lon="10.68184"><ele>42.0</ele><time>2026-04-18T13:46:46.556Z</time></trkpt><trkpt lat="43.30801" lon="10.6815967"><ele>42.0</ele><time>2026-04-18T13:46:47.556Z</time></trkpt><trkpt lat="43.30817" lon="10.681375"><ele>42.5</ele><time>2026-04-18T13:46:48.556Z</time></trkpt><trkpt lat="43.30834" lon="10.6811483"><ele>43.0</ele><time>2026-04-18T13:46:49.556Z</time></trkpt><trkpt lat="43.3085117" lon="10.6809317"><ele>43.0</ele><time>2026-04-18T13:46:50.556Z</time></trkpt><trkpt lat="43.30869" lon="10.680715"><ele>43.0</ele><time>2026-04-18T13:46:51.556Z</time></trkpt><trkpt lat="43.30887" lon="10.6805067"><ele>42.5</ele><time>2026-04-18T13:46:52.556Z</time></trkpt><trkpt lat="43.3090483" lon="10.6803017"><ele>42.0</ele><time>2026-04-18T13:46:53.557Z</time></trkpt><trkpt lat="43.3092233" lon="10.68009"><ele>41.0</ele><time>2026-04-18T13:46:54.556Z</time></trkpt><trkpt lat="43.3093967" lon="10.6798767"><ele>40.0</ele><time>2026-04-18T13:46:55.556Z</time></trkpt><trkpt lat="43.309575" lon="10.67967"><ele>40.5</ele><time>2026-04-18T13:46:56.556Z</time></trkpt><trkpt lat="43.3097517" lon="10.679455"><ele>41.0</ele><time>2026-04-18T13:46:57.556Z</time></trkpt><trkpt lat="43.3099283" lon="10.6792533"><ele>40.0</ele><time>2026-04-18T13:46:58.556Z</time></trkpt><trkpt lat="43.3101067" lon="10.6790417"><ele>39.0</ele><time>2026-04-18T13:46:59.556Z</time></trkpt><trkpt lat="43.31028" lon="10.6788333"><ele>39.0</ele><time>2026-04-18T13:47:00.556Z</time></trkpt><trkpt lat="43.3104533" lon="10.6786283"><ele>39.0</ele><time>2026-04-18T13:47:01.556Z</time></trkpt><trkpt lat="43.3106267" lon="10.67842"><ele>39.0</ele><time>2026-04-18T13:47:02.556Z</time></trkpt><trkpt lat="43.3108067" lon="10.6782117"><ele>39.0</ele><time>2026-04-18T13:47:03.556Z</time></trkpt><trkpt lat="43.3109783" lon="10.6779933"><ele>39.0</ele><time>2026-04-18T13:47:04.556Z</time></trkpt><trkpt lat="43.3111533" lon="10.6777917"><ele>39.0</ele><time>2026-04-18T13:47:05.556Z</time></trkpt><trkpt lat="43.31133" lon="10.677575"><ele>39.0</ele><time>2026-04-18T13:47:06.556Z</time></trkpt><trkpt lat="43.3115083" lon="10.6773633"><ele>39.0</ele><time>2026-04-18T13:47:07.556Z</time></trkpt><trkpt lat="43.3120533" lon="10.6767367"><ele>39.0</ele><time>2026-04-18T13:47:10.556Z</time></trkpt><trkpt lat="43.312215" lon="10.67654"><ele>39.0</ele><time>2026-04-18T13:47:11.557Z</time></trkpt><trkpt lat="43.3123717" lon="10.6763533"><ele>39.0</ele><time>2026-04-18T13:47:12.556Z</time></trkpt><trkpt lat="43.31252" lon="10.6761817"><ele>39.0</ele><time>2026-04-18T13:47:13.556Z</time></trkpt><trkpt lat="43.3126683" lon="10.6760183"><ele>39.0</ele><time>2026-04-18T13:47:14.556Z</time></trkpt><trkpt lat="43.3128183" lon="10.675835"><ele>39.0</ele><time>2026-04-18T13:47:15.556Z</time></trkpt><trkpt lat="43.312975" lon="10.6756367"><ele>39.333333333333336</ele><time>2026-04-18T13:47:16.556Z</time></trkpt><trkpt lat="43.3131333" lon="10.67545"><ele>39.66666666666667</ele><time>2026-04-18T13:47:17.556Z</time></trkpt><trkpt lat="43.3133017" lon="10.675245"><ele>40.0</ele><time>2026-04-18T13:47:18.556Z</time></trkpt><trkpt lat="43.31347" lon="10.6750517"><ele>40.333333333333336</ele><time>2026-04-18T13:47:19.556Z</time></trkpt><trkpt lat="43.3136333" lon="10.6748667"><ele>40.666666666666664</ele><time>2026-04-18T13:47:20.556Z</time></trkpt><trkpt lat="43.3138017" lon="10.6746667"><ele>41.0</ele><time>2026-04-18T13:47:21.556Z</time></trkpt><trkpt lat="43.313975" lon="10.674465"><ele>40.0</ele><time>2026-04-18T13:47:22.556Z</time></trkpt><trkpt lat="43.314145" lon="10.674265"><ele>39.0</ele><time>2026-04-18T13:47:23.556Z</time></trkpt><trkpt lat="43.3143183" lon="10.6740667"><ele>38.0</ele><time>2026-04-18T13:47:24.556Z</time></trkpt><trkpt lat="43.314505" lon="10.6738667"><ele>38.0</ele><time>2026-04-18T13:47:25.556Z</time></trkpt><trkpt lat="43.3146967" lon="10.6736733"><ele>38.0</ele><time>2026-04-18T13:47:26.556Z</time></trkpt><trkpt lat="43.3148933" lon="10.6734833"><ele>39.5</ele><time>2026-04-18T13:47:27.556Z</time></trkpt><trkpt lat="43.3150867" lon="10.6733033"><ele>41.0</ele><time>2026-04-18T13:47:28.557Z</time></trkpt><trkpt lat="43.3152817" lon="10.6731283"><ele>41.0</ele><time>2026-04-18T13:47:29.556Z</time></trkpt><trkpt lat="43.315475" lon="10.6729617"><ele>41.0</ele><time>2026-04-18T13:47:30.556Z</time></trkpt><trkpt lat="43.3156683" lon="10.672795"><ele>40.0</ele><time>2026-04-18T13:47:31.557Z</time></trkpt><trkpt lat="43.31587" lon="10.6726283"><ele>39.0</ele><time>2026-04-18T13:47:32.556Z</time></trkpt><trkpt lat="43.316075" lon="10.6724533"><ele>39.0</ele><time>2026-04-18T13:47:33.556Z</time></trkpt><trkpt lat="43.316285" lon="10.67227"><ele>39.0</ele><time>2026-04-18T13:47:34.556Z</time></trkpt><trkpt lat="43.316495" lon="10.6720733"><ele>39.0</ele><time>2026-04-18T13:47:35.556Z</time></trkpt><trkpt lat="43.3167067" lon="10.67189"><ele>39.0</ele><time>2026-04-18T13:47:36.556Z</time></trkpt><trkpt lat="43.3169117" lon="10.6717117"><ele>39.0</ele><time>2026-04-18T13:47:37.556Z</time></trkpt><trkpt lat="43.3171167" lon="10.671545"><ele>39.0</ele><time>2026-04-18T13:47:38.556Z</time></trkpt><trkpt lat="43.3173233" lon="10.6713817"><ele>38.5</ele><time>2026-04-18T13:47:39.556Z</time></trkpt><trkpt lat="43.3175333" lon="10.6712233"><ele>38.0</ele><time>2026-04-18T13:47:40.556Z</time></trkpt><trkpt lat="43.3181967" lon="10.6707733"><ele>37.0</ele><time>2026-04-18T13:47:43.556Z</time></trkpt><trkpt lat="43.318415" lon="10.6706533"><ele>36.0</ele><time>2026-04-18T13:47:44.556Z</time></trkpt><trkpt lat="43.318625" lon="10.6705483"><ele>36.0</ele><time>2026-04-18T13:47:45.556Z</time></trkpt><trkpt lat="43.31883" lon="10.6704533"><ele>36.0</ele><time>2026-04-18T13:47:46.556Z</time></trkpt><trkpt lat="43.3190417" lon="10.6703633"><ele>36.0</ele><time>2026-04-18T13:47:47.556Z</time></trkpt><trkpt lat="43.3192467" lon="10.6702883"><ele>35.666666666666664</ele><time>2026-04-18T13:47:48.556Z</time></trkpt><trkpt lat="43.3194517" lon="10.6702167"><ele>35.33333333333333</ele><time>2026-04-18T13:47:49.557Z</time></trkpt><trkpt lat="43.3196617" lon="10.6701433"><ele>35.0</ele><time>2026-04-18T13:47:50.556Z</time></trkpt><trkpt lat="43.3198783" lon="10.6700783"><ele>36.0</ele><time>2026-04-18T13:47:51.557Z</time></trkpt><trkpt lat="43.32011" lon="10.670025"><ele>37.0</ele><time>2026-04-18T13:47:52.556Z</time></trkpt><trkpt lat="43.3203483" lon="10.669985"><ele>37.0</ele><time>2026-04-18T13:47:53.557Z</time></trkpt><trkpt lat="43.32059" lon="10.669935"><ele>37.0</ele><time>2026-04-18T13:47:54.556Z</time></trkpt><trkpt lat="43.3208317" lon="10.6698983"><ele>37.0</ele><time>2026-04-18T13:47:55.557Z</time></trkpt><trkpt lat="43.3210717" lon="10.6698783"><ele>37.0</ele><time>2026-04-18T13:47:56.556Z</time></trkpt><trkpt lat="43.3213117" lon="10.6698667"><ele>37.0</ele><time>2026-04-18T13:47:57.557Z</time></trkpt><trkpt lat="43.3215433" lon="10.6698633"><ele>37.0</ele><time>2026-04-18T13:47:58.556Z</time></trkpt><trkpt lat="43.3217617" lon="10.66986"><ele>37.0</ele><time>2026-04-18T13:47:59.556Z</time></trkpt><trkpt lat="43.3219617" lon="10.6698633"><ele>37.0</ele><time>2026-04-18T13:48:00.557Z</time></trkpt><trkpt lat="43.3221583" lon="10.66986"><ele>37.0</ele><time>2026-04-18T13:48:01.557Z</time></trkpt><trkpt lat="43.322355" lon="10.66986"><ele>37.333333333333336</ele><time>2026-04-18T13:48:02.556Z</time></trkpt><trkpt lat="43.3225617" lon="10.669865"><ele>37.666666666666664</ele><time>2026-04-18T13:48:03.556Z</time></trkpt><trkpt lat="43.3227833" lon="10.6698633"><ele>38.0</ele><time>2026-04-18T13:48:04.556Z</time></trkpt><trkpt lat="43.3230133" lon="10.6698617"><ele>36.666666666666664</ele><time>2026-04-18T13:48:05.556Z</time></trkpt><trkpt lat="43.3232417" lon="10.6698617"><ele>35.333333333333336</ele><time>2026-04-18T13:48:06.556Z</time></trkpt><trkpt lat="43.32344" lon="10.6698617"><ele>34.0</ele><time>2026-04-18T13:48:07.556Z</time></trkpt><trkpt lat="43.3236283" lon="10.6698633"><ele>34.0</ele><time>2026-04-18T13:48:08.556Z</time></trkpt><trkpt lat="43.3238133" lon="10.6698617"><ele>34.0</ele><time>2026-04-18T13:48:09.556Z</time></trkpt><trkpt lat="43.3240083" lon="10.66986"><ele>34.0</ele><time>2026-04-18T13:48:10.557Z</time></trkpt><trkpt lat="43.3242167" lon="10.66986"><ele>34.66666666666667</ele><time>2026-04-18T13:48:11.556Z</time></trkpt><trkpt lat="43.3244383" lon="10.6698733"><ele>35.333333333333336</ele><time>2026-04-18T13:48:12.556Z</time></trkpt><trkpt lat="43.324665" lon="10.6698933"><ele>36.0</ele><time>2026-04-18T13:48:13.556Z</time></trkpt><trkpt lat="43.325385" lon="10.6700167"><ele>36.0</ele><time>2026-04-18T13:48:16.556Z</time></trkpt><trkpt lat="43.3256217" lon="10.6700633"><ele>36.0</ele><time>2026-04-18T13:48:17.556Z</time></trkpt><trkpt lat="43.32586" lon="10.6701117"><ele>36.0</ele><time>2026-04-18T13:48:18.556Z</time></trkpt><trkpt lat="43.326105" lon="10.6701633"><ele>36.0</ele><time>2026-04-18T13:48:19.557Z</time></trkpt><trkpt lat="43.326345" lon="10.6702117"><ele>35.5</ele><time>2026-04-18T13:48:20.556Z</time></trkpt><trkpt lat="43.326585" lon="10.6702567"><ele>35.0</ele><time>2026-04-18T13:48:21.556Z</time></trkpt><trkpt lat="43.32682" lon="10.6703017"><ele>35.666666666666664</ele><time>2026-04-18T13:48:22.556Z</time></trkpt><trkpt lat="43.3270417" lon="10.670345"><ele>36.333333333333336</ele><time>2026-04-18T13:48:23.556Z</time></trkpt><trkpt lat="43.3272417" lon="10.670375"><ele>37.0</ele><time>2026-04-18T13:48:24.556Z</time></trkpt><trkpt lat="43.32742" lon="10.670415"><ele>37.0</ele><time>2026-04-18T13:48:25.556Z</time></trkpt><trkpt lat="43.3275917" lon="10.6704433"><ele>37.0</ele><time>2026-04-18T13:48:26.556Z</time></trkpt><trkpt lat="43.3277483" lon="10.670475"><ele>37.0</ele><time>2026-04-18T13:48:27.556Z</time></trkpt><trkpt lat="43.3278933" lon="10.670505"><ele>37.0</ele><time>2026-04-18T13:48:28.556Z</time></trkpt><trkpt lat="43.328055" lon="10.6705367"><ele>37.0</ele><time>2026-04-18T13:48:29.556Z</time></trkpt><trkpt lat="43.3282183" lon="10.6705717"><ele>37.0</ele><time>2026-04-18T13:48:30.556Z</time></trkpt><trkpt lat="43.32837" lon="10.6706033"><ele>36.75</ele><time>2026-04-18T13:48:31.556Z</time></trkpt><trkpt lat="43.328495" lon="10.670625"><ele>36.5</ele><time>2026-04-18T13:48:32.556Z</time></trkpt><trkpt lat="43.328615" lon="10.6706167"><ele>36.25</ele><time>2026-04-18T13:48:33.556Z</time></trkpt><trkpt lat="43.3287233" lon="10.6705817"><ele>36.0</ele><time>2026-04-18T13:48:34.556Z</time></trkpt><trkpt lat="43.3288217" lon="10.6705433"><ele>36.166666666666664</ele><time>2026-04-18T13:48:35.556Z</time></trkpt><trkpt lat="43.3289133" lon="10.6705167"><ele>36.333333333333336</ele><time>2026-04-18T13:48:36.556Z</time></trkpt><trkpt lat="43.3290033" lon="10.6705317"><ele>36.5</ele><time>2026-04-18T13:48:37.556Z</time></trkpt><trkpt lat="43.329085" lon="10.67056"><ele>36.66666666666667</ele><time>2026-04-18T13:48:38.556Z</time></trkpt><trkpt lat="43.3291717" lon="10.670575"><ele>36.833333333333336</ele><time>2026-04-18T13:48:39.556Z</time></trkpt><trkpt lat="43.3292483" lon="10.670555"><ele>37.0</ele><time>2026-04-18T13:48:40.556Z</time></trkpt><trkpt lat="43.329315" lon="10.6705"><ele>37.0</ele><time>2026-04-18T13:48:41.556Z</time></trkpt><trkpt lat="43.3293517" lon="10.670415"><ele>37.0</ele><time>2026-04-18T13:48:42.556Z</time></trkpt><trkpt lat="43.3293533" lon="10.670305"><ele>37.0</ele><time>2026-04-18T13:48:43.556Z</time></trkpt><trkpt lat="43.329315" lon="10.6701683"><ele>37.0</ele><time>2026-04-18T13:48:44.557Z</time></trkpt><trkpt lat="43.3292567" lon="10.6700133"><ele>37.0</ele><time>2026-04-18T13:48:45.556Z</time></trkpt><trkpt lat="43.329205" lon="10.6698533"><ele>36.333333333333336</ele><time>2026-04-18T13:48:46.556Z</time></trkpt><trkpt lat="43.3291333" lon="10.6694833"><ele>35.666666666666664</ele><time>2026-04-18T13:48:48.557Z</time></trkpt><trkpt lat="43.329095" lon="10.6692833"><ele>35.0</ele><time>2026-04-18T13:48:49.556Z</time></trkpt><trkpt lat="43.329055" lon="10.66909"><ele>34.75</ele><time>2026-04-18T13:48:50.557Z</time></trkpt><trkpt lat="43.3290267" lon="10.6689033"><ele>34.5</ele><time>2026-04-18T13:48:51.556Z</time></trkpt><trkpt lat="43.3289983" lon="10.6687433"><ele>34.25</ele><time>2026-04-18T13:48:52.556Z</time></trkpt><trkpt lat="43.3289817" lon="10.6685983"><ele>34.0</ele><time>2026-04-18T13:48:53.556Z</time></trkpt><trkpt lat="43.3289667" lon="10.66846"><ele>34.4</ele><time>2026-04-18T13:48:54.556Z</time></trkpt><trkpt lat="43.32894" lon="10.66832"><ele>34.8</ele><time>2026-04-18T13:48:55.556Z</time></trkpt><trkpt lat="43.328915" lon="10.6681817"><ele>35.2</ele><time>2026-04-18T13:48:56.556Z</time></trkpt><trkpt lat="43.3289" lon="10.6680433"><ele>35.6</ele><time>2026-04-18T13:48:57.556Z</time></trkpt><trkpt lat="43.3288817" lon="10.6678933"><ele>36.0</ele><time>2026-04-18T13:48:58.557Z</time></trkpt><trkpt lat="43.3288617" lon="10.66772"><ele>36.25</ele><time>2026-04-18T13:48:59.555Z</time></trkpt><trkpt lat="43.32884" lon="10.6675383"><ele>36.5</ele><time>2026-04-18T13:49:00.555Z</time></trkpt><trkpt lat="43.3288183" lon="10.6673533"><ele>36.75</ele><time>2026-04-18T13:49:01.555Z</time></trkpt><trkpt lat="43.3287817" lon="10.6671567"><ele>37.0</ele><time>2026-04-18T13:49:02.555Z</time></trkpt><trkpt lat="43.3287517" lon="10.6669583"><ele>37.0</ele><time>2026-04-18T13:49:03.555Z</time></trkpt><trkpt lat="43.3287167" lon="10.666765"><ele>37.0</ele><time>2026-04-18T13:49:04.555Z</time></trkpt><trkpt lat="43.32869" lon="10.6665583"><ele>37.0</ele><time>2026-04-18T13:49:05.555Z</time></trkpt><trkpt lat="43.3286633" lon="10.66637"><ele>37.0</ele><time>2026-04-18T13:49:06.555Z</time></trkpt><trkpt lat="43.3286317" lon="10.6661733"><ele>37.333333333333336</ele><time>2026-04-18T13:49:07.555Z</time></trkpt><trkpt lat="43.3285967" lon="10.665975"><ele>37.666666666666664</ele><time>2026-04-18T13:49:08.555Z</time></trkpt><trkpt lat="43.32857" lon="10.66575"><ele>38.0</ele><time>2026-04-18T13:49:09.555Z</time></trkpt><trkpt lat="43.32855" lon="10.6655117"><ele>38.0</ele><time>2026-04-18T13:49:10.555Z</time></trkpt><trkpt lat="43.3285217" lon="10.665275"><ele>38.0</ele><time>2026-04-18T13:49:11.555Z</time></trkpt><trkpt lat="43.3285083" lon="10.6650317"><ele>38.0</ele><time>2026-04-18T13:49:12.555Z</time></trkpt><trkpt lat="43.3284883" lon="10.6647817"><ele>38.0</ele><time>2026-04-18T13:49:13.555Z</time></trkpt><trkpt lat="43.32848" lon="10.6645267"><ele>38.0</ele><time>2026-04-18T13:49:14.555Z</time></trkpt><trkpt lat="43.3284767" lon="10.6642783"><ele>38.0</ele><time>2026-04-18T13:49:15.555Z</time></trkpt><trkpt lat="43.3284933" lon="10.66403"><ele>37.0</ele><time>2026-04-18T13:49:16.555Z</time></trkpt><trkpt lat="43.3285233" lon="10.6637917"><ele>36.0</ele><time>2026-04-18T13:49:17.555Z</time></trkpt><trkpt lat="43.328565" lon="10.6635533"><ele>35.0</ele><time>2026-04-18T13:49:18.555Z</time></trkpt><trkpt lat="43.3286267" lon="10.66333"><ele>35.0</ele><time>2026-04-18T13:49:19.555Z</time></trkpt><trkpt lat="43.3288067" lon="10.6629383"><ele>35.0</ele><time>2026-04-18T13:49:21.555Z</time></trkpt><trkpt lat="43.328935" lon="10.662775"><ele>35.0</ele><time>2026-04-18T13:49:22.555Z</time></trkpt><trkpt lat="43.3290867" lon="10.6626233"><ele>35.0</ele><time>2026-04-18T13:49:23.555Z</time></trkpt><trkpt lat="43.32925" lon="10.662505"><ele>35.0</ele><time>2026-04-18T13:49:24.555Z</time></trkpt><trkpt lat="43.3294217" lon="10.6623933"><ele>35.0</ele><time>2026-04-18T13:49:25.555Z</time></trkpt><trkpt lat="43.3295917" lon="10.6623033"><ele>35.0</ele><time>2026-04-18T13:49:26.555Z</time></trkpt><trkpt lat="43.329765" lon="10.6622217"><ele>35.0</ele><time>2026-04-18T13:49:27.555Z</time></trkpt><trkpt lat="43.329945" lon="10.6621367"><ele>35.33333333333333</ele><time>2026-04-18T13:49:28.555Z</time></trkpt><trkpt lat="43.3301317" lon="10.6620567"><ele>35.666666666666664</ele><time>2026-04-18T13:49:29.555Z</time></trkpt><trkpt lat="43.3303233" lon="10.661975"><ele>36.0</ele><time>2026-04-18T13:49:30.555Z</time></trkpt><trkpt lat="43.3305133" lon="10.66188"><ele>37.333333333333336</ele><time>2026-04-18T13:49:31.555Z</time></trkpt><trkpt lat="43.330705" lon="10.661775"><ele>38.66666666666667</ele><time>2026-04-18T13:49:32.555Z</time></trkpt><trkpt lat="43.3308967" lon="10.66164"><ele>40.0</ele><time>2026-04-18T13:49:33.555Z</time></trkpt><trkpt lat="43.3310817" lon="10.6614917"><ele>40.0</ele><time>2026-04-18T13:49:34.555Z</time></trkpt><trkpt lat="43.3312617" lon="10.661345"><ele>40.0</ele><time>2026-04-18T13:49:35.555Z</time></trkpt><trkpt lat="43.3314417" lon="10.6611767"><ele>40.0</ele><time>2026-04-18T13:49:36.556Z</time></trkpt><trkpt lat="43.3316333" lon="10.6609967"><ele>38.0</ele><time>2026-04-18T13:49:37.555Z</time></trkpt><trkpt lat="43.3318183" lon="10.660795"><ele>36.0</ele><time>2026-04-18T13:49:38.555Z</time></trkpt><trkpt lat="43.3319933" lon="10.6605683"><ele>36.0</ele><time>2026-04-18T13:49:39.555Z</time></trkpt><trkpt lat="43.3321583" lon="10.6603383"><ele>36.0</ele><time>2026-04-18T13:49:40.556Z</time></trkpt><trkpt lat="43.3323117" lon="10.6600983"><ele>37.5</ele><time>2026-04-18T13:49:41.555Z</time></trkpt><trkpt lat="43.332455" lon="10.65985"><ele>39.0</ele><time>2026-04-18T13:49:42.556Z</time></trkpt><trkpt lat="43.3325917" lon="10.6595983"><ele>37.666666666666664</ele><time>2026-04-18T13:49:43.555Z</time></trkpt><trkpt lat="43.332725" lon="10.6593467"><ele>36.33333333333333</ele><time>2026-04-18T13:49:44.556Z</time></trkpt><trkpt lat="43.3328583" lon="10.6591017"><ele>35.0</ele><time>2026-04-18T13:49:45.555Z</time></trkpt><trkpt lat="43.3329967" lon="10.6588517"><ele>33.5</ele><time>2026-04-18T13:49:46.555Z</time></trkpt><trkpt lat="43.3331367" lon="10.658605"><ele>32.0</ele><time>2026-04-18T13:49:47.555Z</time></trkpt><trkpt lat="43.33328" lon="10.6583517"><ele>32.0</ele><time>2026-04-18T13:49:48.555Z</time></trkpt><trkpt lat="43.3334217" lon="10.6581"><ele>32.0</ele><time>2026-04-18T13:49:49.555Z</time></trkpt><trkpt lat="43.3335533" lon="10.6578467"><ele>32.0</ele><time>2026-04-18T13:49:50.556Z</time></trkpt><trkpt lat="43.3336867" lon="10.6576017"><ele>32.0</ele><time>2026-04-18T13:49:51.555Z</time></trkpt><trkpt lat="43.3338183" lon="10.6573583"><ele>32.0</ele><time>2026-04-18T13:49:52.555Z</time></trkpt><trkpt lat="43.3342167" lon="10.656615"><ele>32.33333333333333</ele><time>2026-04-18T13:49:55.555Z</time></trkpt><trkpt lat="43.3343533" lon="10.65638"><ele>32.666666666666664</ele><time>2026-04-18T13:49:56.555Z</time></trkpt><trkpt lat="43.3344867" lon="10.65613"><ele>33.0</ele><time>2026-04-18T13:49:57.555Z</time></trkpt><trkpt lat="43.33462" lon="10.6558867"><ele>33.0</ele><time>2026-04-18T13:49:58.555Z</time></trkpt><trkpt lat="43.3347583" lon="10.6556417"><ele>33.0</ele><time>2026-04-18T13:49:59.555Z</time></trkpt><trkpt lat="43.33489" lon="10.655395"><ele>33.0</ele><time>2026-04-18T13:50:00.555Z</time></trkpt><trkpt lat="43.33502" lon="10.655155"><ele>33.0</ele><time>2026-04-18T13:50:01.555Z</time></trkpt><trkpt lat="43.33515" lon="10.6549167"><ele>33.0</ele><time>2026-04-18T13:50:02.555Z</time></trkpt><trkpt lat="43.3352783" lon="10.6546917"><ele>33.0</ele><time>2026-04-18T13:50:03.555Z</time></trkpt><trkpt lat="43.3354" lon="10.654465"><ele>32.0</ele><time>2026-04-18T13:50:04.555Z</time></trkpt><trkpt lat="43.3355333" lon="10.65423"><ele>31.0</ele><time>2026-04-18T13:50:05.555Z</time></trkpt><trkpt lat="43.3356583" lon="10.6540083"><ele>30.0</ele><time>2026-04-18T13:50:06.555Z</time></trkpt><trkpt lat="43.33578" lon="10.65381"><ele>31.0</ele><time>2026-04-18T13:50:07.556Z</time></trkpt><trkpt lat="43.3358933" lon="10.6536217"><ele>32.0</ele><time>2026-04-18T13:50:08.555Z</time></trkpt><trkpt lat="43.3359983" lon="10.6534567"><ele>33.0</ele><time>2026-04-18T13:50:09.555Z</time></trkpt><trkpt lat="43.33608" lon="10.6533033"><ele>33.0</ele><time>2026-04-18T13:50:10.555Z</time></trkpt><trkpt lat="43.3361583" lon="10.6531783"><ele>33.0</ele><time>2026-04-18T13:50:11.555Z</time></trkpt><trkpt lat="43.33623" lon="10.6530817"><ele>33.0</ele><time>2026-04-18T13:50:12.555Z</time></trkpt><trkpt lat="43.3363033" lon="10.6530233"><ele>33.0</ele><time>2026-04-18T13:50:13.555Z</time></trkpt><trkpt lat="43.336375" lon="10.6529983"><ele>33.0</ele><time>2026-04-18T13:50:14.555Z</time></trkpt><trkpt lat="43.3364883" lon="10.6530133"><ele>33.666666666666664</ele><time>2026-04-18T13:50:16.555Z</time></trkpt><trkpt lat="43.336585" lon="10.653065"><ele>34.333333333333336</ele><time>2026-04-18T13:50:18.555Z</time></trkpt><trkpt lat="43.3366683" lon="10.6531783"><ele>35.0</ele><time>2026-04-18T13:50:20.555Z</time></trkpt><trkpt lat="43.3366983" lon="10.6532733"><ele>35.66666666666667</ele><time>2026-04-18T13:50:21.555Z</time></trkpt><trkpt lat="43.3367117" lon="10.6533683"><ele>36.333333333333336</ele><time>2026-04-18T13:50:22.555Z</time></trkpt><trkpt lat="43.3367167" lon="10.653465"><ele>37.0</ele><time>2026-04-18T13:50:23.555Z</time></trkpt><trkpt lat="43.3367317" lon="10.6535767"><ele>38.0</ele><time>2026-04-18T13:50:24.555Z</time></trkpt><trkpt lat="43.3367633" lon="10.653695"><ele>39.0</ele><time>2026-04-18T13:50:25.555Z</time></trkpt><trkpt lat="43.33698" lon="10.6540083"><ele>40.0</ele><time>2026-04-18T13:50:28.555Z</time></trkpt><trkpt lat="43.3370633" lon="10.6541133"><ele>40.0</ele><time>2026-04-18T13:50:29.555Z</time></trkpt><trkpt lat="43.337155" lon="10.6542283"><ele>40.0</ele><time>2026-04-18T13:50:30.555Z</time></trkpt><trkpt lat="43.3372633" lon="10.6543533"><ele>40.0</ele><time>2026-04-18T13:50:31.556Z</time></trkpt><trkpt lat="43.3374083" lon="10.6545117"><ele>41.0</ele><time>2026-04-18T13:50:32.555Z</time></trkpt><trkpt lat="43.33757" lon="10.6547067"><ele>42.0</ele><time>2026-04-18T13:50:33.555Z</time></trkpt><trkpt lat="43.3377283" lon="10.6549"><ele>43.0</ele><time>2026-04-18T13:50:34.555Z</time></trkpt><trkpt lat="43.3378883" lon="10.6550917"><ele>43.5</ele><time>2026-04-18T13:50:35.555Z</time></trkpt><trkpt lat="43.3380567" lon="10.6552867"><ele>44.0</ele><time>2026-04-18T13:50:36.555Z</time></trkpt><trkpt lat="43.3382333" lon="10.655495"><ele>46.0</ele><time>2026-04-18T13:50:37.555Z</time></trkpt><trkpt lat="43.3384167" lon="10.6557267"><ele>48.0</ele><time>2026-04-18T13:50:38.555Z</time></trkpt><trkpt lat="43.338605" lon="10.6559717"><ele>49.5</ele><time>2026-04-18T13:50:39.555Z</time></trkpt><trkpt lat="43.3387933" lon="10.65622"><ele>51.0</ele><time>2026-04-18T13:50:40.555Z</time></trkpt><trkpt lat="43.338975" lon="10.6564583"><ele>52.5</ele><time>2026-04-18T13:50:41.555Z</time></trkpt><trkpt lat="43.3391467" lon="10.6566817"><ele>54.0</ele><time>2026-04-18T13:50:42.555Z</time></trkpt><trkpt lat="43.3393083" lon="10.6568783"><ele>55.33333333333333</ele><time>2026-04-18T13:50:43.555Z</time></trkpt><trkpt lat="43.3394567" lon="10.6570583"><ele>56.666666666666664</ele><time>2026-04-18T13:50:44.556Z</time></trkpt><trkpt lat="43.3395917" lon="10.6572267"><ele>58.0</ele><time>2026-04-18T13:50:45.555Z</time></trkpt><trkpt lat="43.33971" lon="10.65738"><ele>58.0</ele><time>2026-04-18T13:50:46.555Z</time></trkpt><trkpt lat="43.3398133" lon="10.6575233"><ele>58.0</ele><time>2026-04-18T13:50:47.555Z</time></trkpt><trkpt lat="43.3399" lon="10.6576867"><ele>58.0</ele><time>2026-04-18T13:50:48.555Z</time></trkpt><trkpt lat="43.3399833" lon="10.6578717"><ele>60.0</ele><time>2026-04-18T13:50:49.556Z</time></trkpt><trkpt lat="43.3400483" lon="10.6580783"><ele>62.0</ele><time>2026-04-18T13:50:50.555Z</time></trkpt><trkpt lat="43.3401217" lon="10.6583017"><ele>64.0</ele><time>2026-04-18T13:50:51.555Z</time></trkpt><trkpt lat="43.340195" lon="10.6585283"><ele>65.66666666666666</ele><time>2026-04-18T13:50:52.555Z</time></trkpt><trkpt lat="43.340275" lon="10.6587583"><ele>67.33333333333333</ele><time>2026-04-18T13:50:53.555Z</time></trkpt><trkpt lat="43.3403517" lon="10.658965"><ele>69.0</ele><time>2026-04-18T13:50:54.555Z</time></trkpt><trkpt lat="43.34043" lon="10.659155"><ele>69.0</ele><time>2026-04-18T13:50:55.555Z</time></trkpt><trkpt lat="43.3405117" lon="10.659345"><ele>69.0</ele><time>2026-04-18T13:50:56.555Z</time></trkpt><trkpt lat="43.3405867" lon="10.6595483"><ele>69.0</ele><time>2026-04-18T13:50:57.555Z</time></trkpt><trkpt lat="43.34085" lon="10.6603667"><ele>72.5</ele><time>2026-04-18T13:51:01.555Z</time></trkpt><trkpt lat="43.3409667" lon="10.6607533"><ele>76.0</ele><time>2026-04-18T13:51:03.555Z</time></trkpt><trkpt lat="43.3410283" lon="10.66096"><ele>78.66666666666666</ele><time>2026-04-18T13:51:04.555Z</time></trkpt><trkpt lat="43.34109" lon="10.6611817"><ele>81.33333333333333</ele><time>2026-04-18T13:51:05.555Z</time></trkpt><trkpt lat="43.341155" lon="10.6614167"><ele>84.0</ele><time>2026-04-18T13:51:06.555Z</time></trkpt><trkpt lat="43.3412367" lon="10.6616533"><ele>84.0</ele><time>2026-04-18T13:51:07.555Z</time></trkpt><trkpt lat="43.341315" lon="10.6619"><ele>84.0</ele><time>2026-04-18T13:51:08.556Z</time></trkpt><trkpt lat="43.3414033" lon="10.662135"><ele>84.0</ele><time>2026-04-18T13:51:09.555Z</time></trkpt><trkpt lat="43.34149" lon="10.66236"><ele>82.66666666666667</ele><time>2026-04-18T13:51:10.555Z</time></trkpt><trkpt lat="43.3415767" lon="10.662565"><ele>81.33333333333334</ele><time>2026-04-18T13:51:11.555Z</time></trkpt><trkpt lat="43.34167" lon="10.662745"><ele>80.0</ele><time>2026-04-18T13:51:12.556Z</time></trkpt><trkpt lat="43.34177" lon="10.6629217"><ele>80.0</ele><time>2026-04-18T13:51:13.555Z</time></trkpt><trkpt lat="43.34189" lon="10.6630983"><ele>80.0</ele><time>2026-04-18T13:51:14.555Z</time></trkpt><trkpt lat="43.3420133" lon="10.6632767"><ele>80.0</ele><time>2026-04-18T13:51:15.555Z</time></trkpt><trkpt lat="43.3421417" lon="10.66346"><ele>80.0</ele><time>2026-04-18T13:51:16.555Z</time></trkpt><trkpt lat="43.34227" lon="10.6636383"><ele>80.0</ele><time>2026-04-18T13:51:17.555Z</time></trkpt><trkpt lat="43.3423883" lon="10.6638067"><ele>80.0</ele><time>2026-04-18T13:51:18.555Z</time></trkpt><trkpt lat="43.3425017" lon="10.66396"><ele>80.0</ele><time>2026-04-18T13:51:19.556Z</time></trkpt><trkpt lat="43.3426167" lon="10.6640917"><ele>80.0</ele><time>2026-04-18T13:51:20.555Z</time></trkpt><trkpt lat="43.34273" lon="10.6642"><ele>80.0</ele><time>2026-04-18T13:51:21.555Z</time></trkpt><trkpt lat="43.342855" lon="10.664275"><ele>80.0</ele><time>2026-04-18T13:51:22.555Z</time></trkpt><trkpt lat="43.343" lon="10.66433"><ele>80.33333333333334</ele><time>2026-04-18T13:51:23.555Z</time></trkpt><trkpt lat="43.3431517" lon="10.6643767"><ele>80.66666666666667</ele><time>2026-04-18T13:51:24.555Z</time></trkpt><trkpt lat="43.34332" lon="10.6644217"><ele>81.0</ele><time>2026-04-18T13:51:25.555Z</time></trkpt><trkpt lat="43.343505" lon="10.6644733"><ele>81.0</ele><time>2026-04-18T13:51:26.555Z</time></trkpt><trkpt lat="43.3436967" lon="10.66453"><ele>81.0</ele><time>2026-04-18T13:51:27.556Z</time></trkpt><trkpt lat="43.3438817" lon="10.6645833"><ele>81.0</ele><time>2026-04-18T13:51:28.556Z</time></trkpt><trkpt lat="43.3440583" lon="10.66463"><ele>83.0</ele><time>2026-04-18T13:51:29.555Z</time></trkpt><trkpt lat="43.3442317" lon="10.664675"><ele>85.0</ele><time>2026-04-18T13:51:30.555Z</time></trkpt><trkpt lat="43.3443983" lon="10.6647167"><ele>87.0</ele><time>2026-04-18T13:51:31.555Z</time></trkpt><trkpt lat="43.3447867" lon="10.6647833"><ele>89.0</ele><time>2026-04-18T13:51:34.555Z</time></trkpt><trkpt lat="43.3448833" lon="10.6647533"><ele>91.0</ele><time>2026-04-18T13:51:35.555Z</time></trkpt><trkpt lat="43.3449683" lon="10.6646917"><ele>93.0</ele><time>2026-04-18T13:51:36.555Z</time></trkpt><trkpt lat="43.34503" lon="10.6645817"><ele>95.0</ele><time>2026-04-18T13:51:37.555Z</time></trkpt><trkpt lat="43.3450683" lon="10.66443"><ele>97.0</ele><time>2026-04-18T13:51:38.555Z</time></trkpt><trkpt lat="43.3450733" lon="10.66425"><ele>97.5</ele><time>2026-04-18T13:51:39.556Z</time></trkpt><trkpt lat="43.345075" lon="10.6640683"><ele>98.0</ele><time>2026-04-18T13:51:40.555Z</time></trkpt><trkpt lat="43.3450983" lon="10.6638867"><ele>98.5</ele><time>2026-04-18T13:51:41.555Z</time></trkpt><trkpt lat="43.3451533" lon="10.663695"><ele>99.0</ele><time>2026-04-18T13:51:42.555Z</time></trkpt><trkpt lat="43.345255" lon="10.6634667"><ele>99.0</ele><time>2026-04-18T13:51:43.555Z</time></trkpt><trkpt lat="43.3453717" lon="10.6632483"><ele>99.0</ele><time>2026-04-18T13:51:44.555Z</time></trkpt><trkpt lat="43.345485" lon="10.6630267"><ele>99.0</ele><time>2026-04-18T13:51:45.555Z</time></trkpt><trkpt lat="43.3455833" lon="10.6628017"><ele>102.33333333333334</ele><time>2026-04-18T13:51:46.555Z</time></trkpt><trkpt lat="43.3456867" lon="10.662595"><ele>105.66666666666667</ele><time>2026-04-18T13:51:47.555Z</time></trkpt><trkpt lat="43.345785" lon="10.662415"><ele>109.0</ele><time>2026-04-18T13:51:48.555Z</time></trkpt><trkpt lat="43.3458733" lon="10.66227"><ele>109.0</ele><time>2026-04-18T13:51:49.555Z</time></trkpt><trkpt lat="43.3459633" lon="10.662165"><ele>109.0</ele><time>2026-04-18T13:51:50.555Z</time></trkpt><trkpt lat="43.3460533" lon="10.6621033"><ele>109.0</ele><time>2026-04-18T13:51:51.555Z</time></trkpt><trkpt lat="43.3461633" lon="10.6620717"><ele>109.0</ele><time>2026-04-18T13:51:52.556Z</time></trkpt><trkpt lat="43.3462783" lon="10.66209"><ele>109.0</ele><time>2026-04-18T13:51:53.555Z</time></trkpt><trkpt lat="43.3463767" lon="10.6621317"><ele>109.0</ele><time>2026-04-18T13:51:54.555Z</time></trkpt><trkpt lat="43.3464417" lon="10.6621967"><ele>109.0</ele><time>2026-04-18T13:51:55.555Z</time></trkpt><trkpt lat="43.3464733" lon="10.6622817"><ele>109.0</ele><time>2026-04-18T13:51:56.555Z</time></trkpt><trkpt lat="43.34644" lon="10.662455"><ele>109.0</ele><time>2026-04-18T13:51:58.555Z</time></trkpt><trkpt lat="43.3463733" lon="10.6625367"><ele>109.0</ele><time>2026-04-18T13:51:59.555Z</time></trkpt><trkpt lat="43.3462833" lon="10.6626233"><ele>109.0</ele><time>2026-04-18T13:52:00.555Z</time></trkpt><trkpt lat="43.3461933" lon="10.6627233"><ele>109.0</ele><time>2026-04-18T13:52:01.555Z</time></trkpt><trkpt lat="43.346115" lon="10.6628483"><ele>109.0</ele><time>2026-04-18T13:52:02.555Z</time></trkpt><trkpt lat="43.3460483" lon="10.6629867"><ele>109.0</ele><time>2026-04-18T13:52:03.555Z</time></trkpt><trkpt lat="43.3460067" lon="10.66314"><ele>110.66666666666667</ele><time>2026-04-18T13:52:04.555Z</time></trkpt><trkpt lat="43.3460217" lon="10.663625"><ele>112.33333333333334</ele><time>2026-04-18T13:52:08.555Z</time></trkpt><trkpt lat="43.3460583" lon="10.66374"><ele>114.0</ele><time>2026-04-18T13:52:09.555Z</time></trkpt><trkpt lat="43.34611" lon="10.6638617"><ele>114.0</ele><time>2026-04-18T13:52:10.555Z</time></trkpt><trkpt lat="43.34617" lon="10.6639833"><ele>114.0</ele><time>2026-04-18T13:52:11.555Z</time></trkpt><trkpt lat="43.3462333" lon="10.664095"><ele>114.0</ele><time>2026-04-18T13:52:12.555Z</time></trkpt><trkpt lat="43.34631" lon="10.6641967"><ele>114.0</ele><time>2026-04-18T13:52:13.555Z</time></trkpt><trkpt lat="43.346415" lon="10.6642933"><ele>114.0</ele><time>2026-04-18T13:52:14.555Z</time></trkpt><trkpt lat="43.346535" lon="10.6643983"><ele>116.0</ele><time>2026-04-18T13:52:15.555Z</time></trkpt><trkpt lat="43.3466767" lon="10.6645117"><ele>118.0</ele><time>2026-04-18T13:52:16.555Z</time></trkpt><trkpt lat="43.3468283" lon="10.66461"><ele>120.0</ele><time>2026-04-18T13:52:17.555Z</time></trkpt><trkpt lat="43.3469783" lon="10.664705"><ele>120.0</ele><time>2026-04-18T13:52:18.555Z</time></trkpt><trkpt lat="43.3471283" lon="10.6647883"><ele>120.0</ele><time>2026-04-18T13:52:19.555Z</time></trkpt><trkpt lat="43.3472617" lon="10.66488"><ele>120.0</ele><time>2026-04-18T13:52:20.555Z</time></trkpt><trkpt lat="43.3473783" lon="10.6649933"><ele>120.75</ele><time>2026-04-18T13:52:21.555Z</time></trkpt><trkpt lat="43.34748" lon="10.6651383"><ele>121.5</ele><time>2026-04-18T13:52:22.555Z</time></trkpt><trkpt lat="43.3475617" lon="10.66531"><ele>122.25</ele><time>2026-04-18T13:52:23.556Z</time></trkpt><trkpt lat="43.3476317" lon="10.6654683"><ele>123.0</ele><time>2026-04-18T13:52:24.555Z</time></trkpt><trkpt lat="43.34772" lon="10.66562"><ele>123.0</ele><time>2026-04-18T13:52:25.556Z</time></trkpt><trkpt lat="43.3478383" lon="10.665755"><ele>123.0</ele><time>2026-04-18T13:52:26.555Z</time></trkpt><trkpt lat="43.34796" lon="10.6658817"><ele>123.0</ele><time>2026-04-18T13:52:27.555Z</time></trkpt><trkpt lat="43.3480733" lon="10.666005"><ele>125.75</ele><time>2026-04-18T13:52:28.554Z</time></trkpt><trkpt lat="43.34818" lon="10.6661383"><ele>128.5</ele><time>2026-04-18T13:52:29.554Z</time></trkpt><trkpt lat="43.3482767" lon="10.66628"><ele>131.25</ele><time>2026-04-18T13:52:30.554Z</time></trkpt><trkpt lat="43.34836" lon="10.66643"><ele>134.0</ele><time>2026-04-18T13:52:31.555Z</time></trkpt><trkpt lat="43.3484267" lon="10.6665767"><ele>134.0</ele><time>2026-04-18T13:52:32.555Z</time></trkpt><trkpt lat="43.3484933" lon="10.6667083"><ele>134.0</ele><time>2026-04-18T13:52:33.555Z</time></trkpt><trkpt lat="43.3485767" lon="10.666825"><ele>134.0</ele><time>2026-04-18T13:52:34.554Z</time></trkpt><trkpt lat="43.34868" lon="10.6669217"><ele>134.0</ele><time>2026-04-18T13:52:35.554Z</time></trkpt><trkpt lat="43.3488033" lon="10.6670183"><ele>133.66666666666666</ele><time>2026-04-18T13:52:36.554Z</time></trkpt><trkpt lat="43.3489517" lon="10.6671017"><ele>133.33333333333334</ele><time>2026-04-18T13:52:37.554Z</time></trkpt><trkpt lat="43.34912" lon="10.6672017"><ele>133.0</ele><time>2026-04-18T13:52:38.555Z</time></trkpt><trkpt lat="43.349655" lon="10.6674983"><ele>133.66666666666669</ele><time>2026-04-18T13:52:41.554Z</time></trkpt><trkpt lat="43.3498383" lon="10.6676033"><ele>134.33333333333334</ele><time>2026-04-18T13:52:42.554Z</time></trkpt><trkpt lat="43.3500067" lon="10.667705"><ele>135.0</ele><time>2026-04-18T13:52:43.555Z</time></trkpt><trkpt lat="43.35016" lon="10.6677917"><ele>135.0</ele><time>2026-04-18T13:52:44.554Z</time></trkpt><trkpt lat="43.350295" lon="10.66787"><ele>135.0</ele><time>2026-04-18T13:52:45.554Z</time></trkpt><trkpt lat="43.3504117" lon="10.6679267"><ele>135.0</ele><time>2026-04-18T13:52:46.554Z</time></trkpt><trkpt lat="43.3505033" lon="10.6679667"><ele>135.0</ele><time>2026-04-18T13:52:47.555Z</time></trkpt><trkpt lat="43.3505783" lon="10.6679833"><ele>135.0</ele><time>2026-04-18T13:52:48.555Z</time></trkpt><trkpt lat="43.35067" lon="10.6679817"><ele>135.25</ele><time>2026-04-18T13:52:49.554Z</time></trkpt><trkpt lat="43.3507783" lon="10.6679483"><ele>135.5</ele><time>2026-04-18T13:52:50.554Z</time></trkpt><trkpt lat="43.3508833" lon="10.6678983"><ele>135.75</ele><time>2026-04-18T13:52:51.554Z</time></trkpt><trkpt lat="43.3510067" lon="10.667825"><ele>136.0</ele><time>2026-04-18T13:52:52.554Z</time></trkpt><trkpt lat="43.3511233" lon="10.6677733"><ele>137.5</ele><time>2026-04-18T13:52:53.554Z</time></trkpt><trkpt lat="43.35124" lon="10.6677217"><ele>139.0</ele><time>2026-04-18T13:52:54.554Z</time></trkpt><trkpt lat="43.3513617" lon="10.6677033"><ele>140.5</ele><time>2026-04-18T13:52:55.555Z</time></trkpt><trkpt lat="43.3514833" lon="10.667705"><ele>142.0</ele><time>2026-04-18T13:52:56.554Z</time></trkpt><trkpt lat="43.351615" lon="10.6677283"><ele>142.0</ele><time>2026-04-18T13:52:57.554Z</time></trkpt><trkpt lat="43.35175" lon="10.6677567"><ele>142.0</ele><time>2026-04-18T13:52:58.554Z</time></trkpt><trkpt lat="43.351885" lon="10.6677583"><ele>142.0</ele><time>2026-04-18T13:52:59.554Z</time></trkpt><trkpt lat="43.3520167" lon="10.6677433"><ele>142.0</ele><time>2026-04-18T13:53:00.554Z</time></trkpt><trkpt lat="43.3521417" lon="10.667715"><ele>140.66666666666669</ele><time>2026-04-18T13:53:01.555Z</time></trkpt><trkpt lat="43.3522667" lon="10.6676617"><ele>139.33333333333334</ele><time>2026-04-18T13:53:02.554Z</time></trkpt><trkpt lat="43.3525367" lon="10.6674833"><ele>138.0</ele><time>2026-04-18T13:53:04.554Z</time></trkpt><trkpt lat="43.3526633" lon="10.6673933"><ele>138.0</ele><time>2026-04-18T13:53:05.554Z</time></trkpt><trkpt lat="43.352795" lon="10.6673183"><ele>138.0</ele><time>2026-04-18T13:53:06.554Z</time></trkpt><trkpt lat="43.3529283" lon="10.667255"><ele>138.0</ele><time>2026-04-18T13:53:07.554Z</time></trkpt><trkpt lat="43.3530483" lon="10.6672017"><ele>138.0</ele><time>2026-04-18T13:53:08.554Z</time></trkpt><trkpt lat="43.35316" lon="10.6671767"><ele>137.0</ele><time>2026-04-18T13:53:09.555Z</time></trkpt><trkpt lat="43.35326" lon="10.667175"><ele>136.0</ele><time>2026-04-18T13:53:10.554Z</time></trkpt><trkpt lat="43.3533667" lon="10.6671967"><ele>135.0</ele><time>2026-04-18T13:53:11.554Z</time></trkpt><trkpt lat="43.3534733" lon="10.6672383"><ele>134.0</ele><time>2026-04-18T13:53:12.554Z</time></trkpt><trkpt lat="43.353755" lon="10.66753"><ele>134.0</ele><time>2026-04-18T13:53:15.554Z</time></trkpt><trkpt lat="43.353835" lon="10.6676583"><ele>134.0</ele><time>2026-04-18T13:53:16.555Z</time></trkpt><trkpt lat="43.3539083" lon="10.6677933"><ele>134.0</ele><time>2026-04-18T13:53:17.554Z</time></trkpt><trkpt lat="43.3539683" lon="10.6679283"><ele>134.0</ele><time>2026-04-18T13:53:18.554Z</time></trkpt><trkpt lat="43.35402" lon="10.66805"><ele>133.33333333333331</ele><time>2026-04-18T13:53:19.554Z</time></trkpt><trkpt lat="43.354065" lon="10.66814"><ele>132.66666666666666</ele><time>2026-04-18T13:53:20.554Z</time></trkpt><trkpt lat="43.354125" lon="10.668215"><ele>132.0</ele><time>2026-04-18T13:53:21.555Z</time></trkpt><trkpt lat="43.3541917" lon="10.6682667"><ele>131.33333333333334</ele><time>2026-04-18T13:53:22.554Z</time></trkpt><trkpt lat="43.3542667" lon="10.668285"><ele>130.66666666666669</ele><time>2026-04-18T13:53:23.554Z</time></trkpt><trkpt lat="43.35434" lon="10.6682733"><ele>130.0</ele><time>2026-04-18T13:53:24.554Z</time></trkpt><trkpt lat="43.354425" lon="10.6682133"><ele>130.0</ele><time>2026-04-18T13:53:25.554Z</time></trkpt><trkpt lat="43.354505" lon="10.6681167"><ele>130.0</ele><time>2026-04-18T13:53:26.554Z</time></trkpt><trkpt lat="43.354585" lon="10.6679667"><ele>130.0</ele><time>2026-04-18T13:53:27.554Z</time></trkpt><trkpt lat="43.3546667" lon="10.66782"><ele>130.0</ele><time>2026-04-18T13:53:28.554Z</time></trkpt><trkpt lat="43.3547533" lon="10.66771"><ele>128.75</ele><time>2026-04-18T13:53:29.554Z</time></trkpt><trkpt lat="43.3548567" lon="10.66764"><ele>127.5</ele><time>2026-04-18T13:53:30.554Z</time></trkpt><trkpt lat="43.3549717" lon="10.6675883"><ele>126.25</ele><time>2026-04-18T13:53:31.554Z</time></trkpt><trkpt lat="43.3551033" lon="10.6675733"><ele>125.0</ele><time>2026-04-18T13:53:32.554Z</time></trkpt><trkpt lat="43.3552433" lon="10.6675833"><ele>125.0</ele><time>2026-04-18T13:53:33.554Z</time></trkpt><trkpt lat="43.3553683" lon="10.667605"><ele>125.0</ele><time>2026-04-18T13:53:34.554Z</time></trkpt><trkpt lat="43.3554983" lon="10.6676167"><ele>125.0</ele><time>2026-04-18T13:53:35.554Z</time></trkpt><trkpt lat="43.3556317" lon="10.6676333"><ele>125.0</ele><time>2026-04-18T13:53:36.554Z</time></trkpt><trkpt lat="43.3557683" lon="10.6676567"><ele>123.5</ele><time>2026-04-18T13:53:37.554Z</time></trkpt><trkpt lat="43.3559117" lon="10.6676667"><ele>122.0</ele><time>2026-04-18T13:53:38.554Z</time></trkpt><trkpt lat="43.3560483" lon="10.6676883"><ele>120.5</ele><time>2026-04-18T13:53:39.554Z</time></trkpt><trkpt lat="43.3561833" lon="10.66772"><ele>119.0</ele><time>2026-04-18T13:53:40.554Z</time></trkpt><trkpt lat="43.3563283" lon="10.6677783"><ele>119.33333333333333</ele><time>2026-04-18T13:53:41.555Z</time></trkpt><trkpt lat="43.356475" lon="10.667845"><ele>119.66666666666666</ele><time>2026-04-18T13:53:42.554Z</time></trkpt><trkpt lat="43.3566433" lon="10.667925"><ele>120.0</ele><time>2026-04-18T13:53:43.554Z</time></trkpt><trkpt lat="43.3568067" lon="10.6680067"><ele>120.0</ele><time>2026-04-18T13:53:44.554Z</time></trkpt><trkpt lat="43.35696" lon="10.6680833"><ele>120.0</ele><time>2026-04-18T13:53:45.554Z</time></trkpt><trkpt lat="43.3571133" lon="10.668155"><ele>120.0</ele><time>2026-04-18T13:53:46.554Z</time></trkpt><trkpt lat="43.3575933" lon="10.6683617"><ele>118.33333333333334</ele><time>2026-04-18T13:53:49.554Z</time></trkpt><trkpt lat="43.3577633" lon="10.66841"><ele>116.66666666666667</ele><time>2026-04-18T13:53:50.554Z</time></trkpt><trkpt lat="43.357925" lon="10.6684567"><ele>115.0</ele><time>2026-04-18T13:53:51.554Z</time></trkpt><trkpt lat="43.3580833" lon="10.6684917"><ele>115.0</ele><time>2026-04-18T13:53:52.554Z</time></trkpt><trkpt lat="43.3582383" lon="10.66852"><ele>115.0</ele><time>2026-04-18T13:53:53.554Z</time></trkpt><trkpt lat="43.358385" lon="10.6685433"><ele>115.0</ele><time>2026-04-18T13:53:54.554Z</time></trkpt><trkpt lat="43.3585333" lon="10.66857"><ele>115.0</ele><time>2026-04-18T13:53:55.554Z</time></trkpt><trkpt lat="43.358685" lon="10.668595"><ele>115.0</ele><time>2026-04-18T13:53:56.554Z</time></trkpt><trkpt lat="43.3588317" lon="10.6686217"><ele>115.0</ele><time>2026-04-18T13:53:57.554Z</time></trkpt><trkpt lat="43.3589733" lon="10.6686483"><ele>115.0</ele><time>2026-04-18T13:53:58.554Z</time></trkpt><trkpt lat="43.3591017" lon="10.6686783"><ele>117.0</ele><time>2026-04-18T13:53:59.554Z</time></trkpt><trkpt lat="43.3592833" lon="10.6688283"><ele>119.0</ele><time>2026-04-18T13:54:01.554Z</time></trkpt><trkpt lat="43.35934" lon="10.6689483"><ele>121.0</ele><time>2026-04-18T13:54:02.554Z</time></trkpt><trkpt lat="43.359375" lon="10.6690967"><ele>123.0</ele><time>2026-04-18T13:54:03.554Z</time></trkpt><trkpt lat="43.3594" lon="10.66924"><ele>123.0</ele><time>2026-04-18T13:54:04.554Z</time></trkpt><trkpt lat="43.3594417" lon="10.6693683"><ele>123.00000000000001</ele><time>2026-04-18T13:54:05.554Z</time></trkpt><trkpt lat="43.3595067" lon="10.6694767"><ele>123.00000000000001</ele><time>2026-04-18T13:54:06.554Z</time></trkpt><trkpt lat="43.3595917" lon="10.6695867"><ele>123.0</ele><time>2026-04-18T13:54:07.554Z</time></trkpt><trkpt lat="43.35968" lon="10.6696883"><ele>123.0</ele><time>2026-04-18T13:54:08.554Z</time></trkpt><trkpt lat="43.3597633" lon="10.669785"><ele>125.0</ele><time>2026-04-18T13:54:09.554Z</time></trkpt><trkpt lat="43.3598217" lon="10.6698917"><ele>127.0</ele><time>2026-04-18T13:54:10.555Z</time></trkpt><trkpt lat="43.3598667" lon="10.6700017"><ele>129.0</ele><time>2026-04-18T13:54:11.554Z</time></trkpt><trkpt lat="43.3598867" lon="10.670115"><ele>131.0</ele><time>2026-04-18T13:54:12.554Z</time></trkpt><trkpt lat="43.3598883" lon="10.6702283"><ele>133.0</ele><time>2026-04-18T13:54:13.554Z</time></trkpt><trkpt lat="43.3598517" lon="10.670345"><ele>135.0</ele><time>2026-04-18T13:54:14.554Z</time></trkpt><trkpt lat="43.3597933" lon="10.6704667"><ele>135.75</ele><time>2026-04-18T13:54:15.554Z</time></trkpt><trkpt lat="43.359705" lon="10.67062"><ele>136.5</ele><time>2026-04-18T13:54:16.555Z</time></trkpt><trkpt lat="43.3596333" lon="10.670765"><ele>137.25</ele><time>2026-04-18T13:54:17.554Z</time></trkpt><trkpt lat="43.35958" lon="10.6708917"><ele>138.0</ele><time>2026-04-18T13:54:18.554Z</time></trkpt><trkpt lat="43.35954" lon="10.6710333"><ele>134.0</ele><time>2026-04-18T13:54:19.554Z</time></trkpt><trkpt lat="43.3595267" lon="10.6711767"><ele>130.0</ele><time>2026-04-18T13:54:20.554Z</time></trkpt><trkpt lat="43.3595617" lon="10.6717033"><ele>130.0</ele><time>2026-04-18T13:54:23.554Z</time></trkpt><trkpt lat="43.359565" lon="10.671875"><ele>130.0</ele><time>2026-04-18T13:54:24.554Z</time></trkpt><trkpt lat="43.3595533" lon="10.6720283"><ele>130.0</ele><time>2026-04-18T13:54:25.554Z</time></trkpt><trkpt lat="43.3595317" lon="10.6721867"><ele>130.0</ele><time>2026-04-18T13:54:26.554Z</time></trkpt><trkpt lat="43.359535" lon="10.67234"><ele>130.6</ele><time>2026-04-18T13:54:27.554Z</time></trkpt><trkpt lat="43.3595567" lon="10.6724783"><ele>131.2</ele><time>2026-04-18T13:54:28.554Z</time></trkpt><trkpt lat="43.3596067" lon="10.6725917"><ele>131.8</ele><time>2026-04-18T13:54:29.554Z</time></trkpt><trkpt lat="43.3596967" lon="10.672715"><ele>132.4</ele><time>2026-04-18T13:54:30.554Z</time></trkpt><trkpt lat="43.3597933" lon="10.6728067"><ele>133.0</ele><time>2026-04-18T13:54:31.554Z</time></trkpt><trkpt lat="43.3599117" lon="10.67286"><ele>133.0</ele><time>2026-04-18T13:54:32.554Z</time></trkpt><trkpt lat="43.3600033" lon="10.6728617"><ele>133.0</ele><time>2026-04-18T13:54:33.554Z</time></trkpt><trkpt lat="43.3601533" lon="10.67272"><ele>133.0</ele><time>2026-04-18T13:54:35.554Z</time></trkpt><trkpt lat="43.3601983" lon="10.6725867"><ele>133.0</ele><time>2026-04-18T13:54:36.555Z</time></trkpt><trkpt lat="43.3602317" lon="10.6724217"><ele>135.25</ele><time>2026-04-18T13:54:37.555Z</time></trkpt><trkpt lat="43.3602667" lon="10.672245"><ele>137.5</ele><time>2026-04-18T13:54:38.555Z</time></trkpt><trkpt lat="43.3603" lon="10.67206"><ele>139.75</ele><time>2026-04-18T13:54:39.554Z</time></trkpt><trkpt lat="43.36034" lon="10.67188"><ele>142.0</ele><time>2026-04-18T13:54:40.554Z</time></trkpt><trkpt lat="43.3603833" lon="10.6717067"><ele>142.0</ele><time>2026-04-18T13:54:41.554Z</time></trkpt><trkpt lat="43.360425" lon="10.6715233"><ele>142.0</ele><time>2026-04-18T13:54:42.554Z</time></trkpt><trkpt lat="43.3604617" lon="10.6713567"><ele>142.0</ele><time>2026-04-18T13:54:43.555Z</time></trkpt><trkpt lat="43.3605" lon="10.6712033"><ele>142.0</ele><time>2026-04-18T13:54:44.554Z</time></trkpt><trkpt lat="43.3605483" lon="10.6710433"><ele>145.25</ele><time>2026-04-18T13:54:45.554Z</time></trkpt><trkpt lat="43.3606117" lon="10.6708817"><ele>148.5</ele><time>2026-04-18T13:54:46.554Z</time></trkpt><trkpt lat="43.360685" lon="10.6707267"><ele>151.75</ele><time>2026-04-18T13:54:47.554Z</time></trkpt><trkpt lat="43.3607567" lon="10.670565"><ele>155.0</ele><time>2026-04-18T13:54:48.554Z</time></trkpt><trkpt lat="43.3608283" lon="10.6703883"><ele>154.25</ele><time>2026-04-18T13:54:49.554Z</time></trkpt><trkpt lat="43.3608883" lon="10.6702033"><ele>153.5</ele><time>2026-04-18T13:54:50.554Z</time></trkpt><trkpt lat="43.3609283" lon="10.6700317"><ele>152.75</ele><time>2026-04-18T13:54:51.555Z</time></trkpt><trkpt lat="43.3609833" lon="10.6698817"><ele>152.0</ele><time>2026-04-18T13:54:52.554Z</time></trkpt><trkpt lat="43.3610483" lon="10.669745"><ele>152.0</ele><time>2026-04-18T13:54:53.554Z</time></trkpt><trkpt lat="43.3611317" lon="10.6696083"><ele>152.0</ele><time>2026-04-18T13:54:54.554Z</time></trkpt><trkpt lat="43.3613933" lon="10.6691867"><ele>153.75</ele><time>2026-04-18T13:54:57.554Z</time></trkpt><trkpt lat="43.3614417" lon="10.66903"><ele>155.5</ele><time>2026-04-18T13:54:58.554Z</time></trkpt><trkpt lat="43.361475" lon="10.6688633"><ele>157.25</ele><time>2026-04-18T13:54:59.554Z</time></trkpt><trkpt lat="43.3615017" lon="10.668705"><ele>159.0</ele><time>2026-04-18T13:55:00.554Z</time></trkpt><trkpt lat="43.3615467" lon="10.66855"><ele>159.0</ele><time>2026-04-18T13:55:01.554Z</time></trkpt><trkpt lat="43.3616083" lon="10.6684117"><ele>159.0</ele><time>2026-04-18T13:55:02.554Z</time></trkpt><trkpt lat="43.3616767" lon="10.6682817"><ele>159.0</ele><time>2026-04-18T13:55:03.554Z</time></trkpt><trkpt lat="43.36174" lon="10.6681717"><ele>159.0</ele><time>2026-04-18T13:55:04.554Z</time></trkpt><trkpt lat="43.3618017" lon="10.668085"><ele>159.0</ele><time>2026-04-18T13:55:05.554Z</time></trkpt><trkpt lat="43.3618733" lon="10.6680183"><ele>159.0</ele><time>2026-04-18T13:55:06.554Z</time></trkpt><trkpt lat="43.361955" lon="10.6679817"><ele>159.0</ele><time>2026-04-18T13:55:07.554Z</time></trkpt><trkpt lat="43.3620317" lon="10.66797"><ele>159.0</ele><time>2026-04-18T13:55:08.554Z</time></trkpt><trkpt lat="43.3620933" lon="10.668005"><ele>159.0</ele><time>2026-04-18T13:55:09.554Z</time></trkpt><trkpt lat="43.3621533" lon="10.668075"><ele>159.0</ele><time>2026-04-18T13:55:10.554Z</time></trkpt><trkpt lat="43.362205" lon="10.6681767"><ele>159.0</ele><time>2026-04-18T13:55:11.554Z</time></trkpt><trkpt lat="43.3622533" lon="10.6682817"><ele>160.83333333333334</ele><time>2026-04-18T13:55:12.554Z</time></trkpt><trkpt lat="43.3623067" lon="10.6683717"><ele>162.66666666666666</ele><time>2026-04-18T13:55:13.554Z</time></trkpt><trkpt lat="43.3623717" lon="10.6684467"><ele>164.5</ele><time>2026-04-18T13:55:14.554Z</time></trkpt><trkpt lat="43.3624433" lon="10.6685017"><ele>166.33333333333331</ele><time>2026-04-18T13:55:15.554Z</time></trkpt><trkpt lat="43.3625117" lon="10.66852"><ele>168.16666666666666</ele><time>2026-04-18T13:55:16.554Z</time></trkpt><trkpt lat="43.36259" lon="10.6685067"><ele>170.0</ele><time>2026-04-18T13:55:17.554Z</time></trkpt><trkpt lat="43.3626767" lon="10.66847"><ele>170.0</ele><time>2026-04-18T13:55:18.554Z</time></trkpt><trkpt lat="43.3627683" lon="10.668405"><ele>170.0</ele><time>2026-04-18T13:55:19.554Z</time></trkpt><trkpt lat="43.3628583" lon="10.6683133"><ele>170.0</ele><time>2026-04-18T13:55:20.554Z</time></trkpt><trkpt lat="43.3629483" lon="10.6682383"><ele>170.0</ele><time>2026-04-18T13:55:21.554Z</time></trkpt><trkpt lat="43.36303" lon="10.66818"><ele>170.0</ele><time>2026-04-18T13:55:22.554Z</time></trkpt><trkpt lat="43.3631" lon="10.6681467"><ele>170.75</ele><time>2026-04-18T13:55:23.554Z</time></trkpt><trkpt lat="43.3632517" lon="10.668115"><ele>171.5</ele><time>2026-04-18T13:55:25.554Z</time></trkpt><trkpt lat="43.36333" lon="10.6680783"><ele>172.25</ele><time>2026-04-18T13:55:26.554Z</time></trkpt><trkpt lat="43.3634033" lon="10.6680133"><ele>173.0</ele><time>2026-04-18T13:55:27.555Z</time></trkpt><trkpt lat="43.3635233" lon="10.6675283"><ele>173.0</ele><time>2026-04-18T13:55:31.554Z</time></trkpt><trkpt lat="43.363545" lon="10.667425"><ele>173.0</ele><time>2026-04-18T13:55:32.554Z</time></trkpt><trkpt lat="43.3635933" lon="10.6673583"><ele>173.0</ele><time>2026-04-18T13:55:33.555Z</time></trkpt><trkpt lat="43.3636617" lon="10.6673283"><ele>173.0</ele><time>2026-04-18T13:55:34.554Z</time></trkpt><trkpt lat="43.36375" lon="10.6673483"><ele>173.0</ele><time>2026-04-18T13:55:35.554Z</time></trkpt><trkpt lat="43.3638383" lon="10.667385"><ele>173.0</ele><time>2026-04-18T13:55:36.554Z</time></trkpt><trkpt lat="43.3639267" lon="10.66744"><ele>175.4</ele><time>2026-04-18T13:55:37.554Z</time></trkpt><trkpt lat="43.3640083" lon="10.66749"><ele>177.8</ele><time>2026-04-18T13:55:38.554Z</time></trkpt><trkpt lat="43.3640883" lon="10.667525"><ele>180.2</ele><time>2026-04-18T13:55:39.554Z</time></trkpt><trkpt lat="43.3641767" lon="10.6675567"><ele>182.6</ele><time>2026-04-18T13:55:40.554Z</time></trkpt><trkpt lat="43.3642717" lon="10.66758"><ele>185.0</ele><time>2026-04-18T13:55:41.554Z</time></trkpt><trkpt lat="43.36437" lon="10.6675867"><ele>185.0</ele><time>2026-04-18T13:55:42.555Z</time></trkpt><trkpt lat="43.3644567" lon="10.66757"><ele>185.0</ele><time>2026-04-18T13:55:43.554Z</time></trkpt><trkpt lat="43.3645467" lon="10.6675217"><ele>185.0</ele><time>2026-04-18T13:55:44.555Z</time></trkpt><trkpt lat="43.3646267" lon="10.6674317"><ele>185.0</ele><time>2026-04-18T13:55:45.554Z</time></trkpt><trkpt lat="43.3647033" lon="10.6673267"><ele>185.0</ele><time>2026-04-18T13:55:46.553Z</time></trkpt><trkpt lat="43.364765" lon="10.6672417"><ele>186.66666666666666</ele><time>2026-04-18T13:55:47.553Z</time></trkpt><trkpt lat="43.3648217" lon="10.66717"><ele>188.33333333333331</ele><time>2026-04-18T13:55:48.553Z</time></trkpt><trkpt lat="43.36488" lon="10.6671133"><ele>190.0</ele><time>2026-04-18T13:55:49.554Z</time></trkpt><trkpt lat="43.36495" lon="10.667085"><ele>191.66666666666666</ele><time>2026-04-18T13:55:50.553Z</time></trkpt><trkpt lat="43.3650283" lon="10.66709"><ele>193.33333333333334</ele><time>2026-04-18T13:55:51.553Z</time></trkpt><trkpt lat="43.365115" lon="10.66714"><ele>195.0</ele><time>2026-04-18T13:55:52.553Z</time></trkpt><trkpt lat="43.3651967" lon="10.6672333"><ele>195.0</ele><time>2026-04-18T13:55:53.553Z</time></trkpt><trkpt lat="43.365285" lon="10.6673617"><ele>195.0</ele><time>2026-04-18T13:55:54.553Z</time></trkpt><trkpt lat="43.3654167" lon="10.6675967"><ele>195.0</ele><time>2026-04-18T13:55:56.553Z</time></trkpt><trkpt lat="43.3654583" lon="10.6677233"><ele>195.0</ele><time>2026-04-18T13:55:57.553Z</time></trkpt><trkpt lat="43.36548" lon="10.667855"><ele>195.75</ele><time>2026-04-18T13:55:58.553Z</time></trkpt><trkpt lat="43.3654967" lon="10.6679717"><ele>196.5</ele><time>2026-04-18T13:55:59.553Z</time></trkpt><trkpt lat="43.3655083" lon="10.668085"><ele>197.25</ele><time>2026-04-18T13:56:00.553Z</time></trkpt><trkpt lat="43.36553" lon="10.6681917"><ele>198.0</ele><time>2026-04-18T13:56:01.553Z</time></trkpt><trkpt lat="43.3657017" lon="10.66848"><ele>198.0</ele><time>2026-04-18T13:56:04.553Z</time></trkpt><trkpt lat="43.3657967" lon="10.668555"><ele>198.0</ele><time>2026-04-18T13:56:05.553Z</time></trkpt><trkpt lat="43.3659883" lon="10.6686283"><ele>198.0</ele><time>2026-04-18T13:56:07.553Z</time></trkpt><trkpt lat="43.3660767" lon="10.6686233"><ele>198.0</ele><time>2026-04-18T13:56:08.553Z</time></trkpt><trkpt lat="43.36616" lon="10.6686133"><ele>198.0</ele><time>2026-04-18T13:56:09.551Z</time></trkpt><trkpt lat="43.3662383" lon="10.6685767"><ele>198.0</ele><time>2026-04-18T13:56:10.553Z</time></trkpt><trkpt lat="43.3663233" lon="10.6685183"><ele>198.0</ele><time>2026-04-18T13:56:11.553Z</time></trkpt><trkpt lat="43.366405" lon="10.66846"><ele>198.0</ele><time>2026-04-18T13:56:12.553Z</time></trkpt><trkpt lat="43.3664933" lon="10.6684233"><ele>198.0</ele><time>2026-04-18T13:56:13.554Z</time></trkpt><trkpt lat="43.3665767" lon="10.6684"><ele>198.0</ele><time>2026-04-18T13:56:14.553Z</time></trkpt><trkpt lat="43.3666583" lon="10.6684017"><ele>197.4</ele><time>2026-04-18T13:56:15.553Z</time></trkpt><trkpt lat="43.3667467" lon="10.6684183"><ele>196.8</ele><time>2026-04-18T13:56:16.553Z</time></trkpt><trkpt lat="43.3668333" lon="10.66846"><ele>196.2</ele><time>2026-04-18T13:56:17.553Z</time></trkpt><trkpt lat="43.36692" lon="10.668535"><ele>195.6</ele><time>2026-04-18T13:56:18.553Z</time></trkpt><trkpt lat="43.3670167" lon="10.6686383"><ele>195.0</ele><time>2026-04-18T13:56:19.553Z</time></trkpt><trkpt lat="43.3671067" lon="10.6687517"><ele>197.0</ele><time>2026-04-18T13:56:20.553Z</time></trkpt><trkpt lat="43.3672" lon="10.668865"><ele>199.0</ele><time>2026-04-18T13:56:21.553Z</time></trkpt><trkpt lat="43.3672917" lon="10.6689917"><ele>201.0</ele><time>2026-04-18T13:56:22.553Z</time></trkpt><trkpt lat="43.3673833" lon="10.6691167"><ele>203.0</ele><time>2026-04-18T13:56:23.553Z</time></trkpt><trkpt lat="43.36747" lon="10.6692383"><ele>203.0</ele><time>2026-04-18T13:56:24.553Z</time></trkpt><trkpt lat="43.367555" lon="10.669355"><ele>203.0</ele><time>2026-04-18T13:56:25.553Z</time></trkpt><trkpt lat="43.3676317" lon="10.66947"><ele>203.0</ele><time>2026-04-18T13:56:26.553Z</time></trkpt><trkpt lat="43.36779" lon="10.6696967"><ele>204.60000000000002</ele><time>2026-04-18T13:56:28.553Z</time></trkpt><trkpt lat="43.36788" lon="10.6697917"><ele>206.20000000000002</ele><time>2026-04-18T13:56:29.553Z</time></trkpt><trkpt lat="43.367975" lon="10.6698533"><ele>207.8</ele><time>2026-04-18T13:56:30.553Z</time></trkpt><trkpt lat="43.368075" lon="10.6698833"><ele>209.4</ele><time>2026-04-18T13:56:31.553Z</time></trkpt><trkpt lat="43.368175" lon="10.6698867"><ele>211.0</ele><time>2026-04-18T13:56:32.553Z</time></trkpt><trkpt lat="43.36827" lon="10.6698517"><ele>212.33333333333331</ele><time>2026-04-18T13:56:33.553Z</time></trkpt><trkpt lat="43.368375" lon="10.6698083"><ele>213.66666666666669</ele><time>2026-04-18T13:56:34.553Z</time></trkpt><trkpt lat="43.3684767" lon="10.6697667"><ele>215.0</ele><time>2026-04-18T13:56:35.553Z</time></trkpt><trkpt lat="43.368825" lon="10.6695417"><ele>215.66666666666669</ele><time>2026-04-18T13:56:39.554Z</time></trkpt><trkpt lat="43.3688883" lon="10.6694717"><ele>216.33333333333334</ele><time>2026-04-18T13:56:40.553Z</time></trkpt><trkpt lat="43.3689483" lon="10.6694117"><ele>217.0</ele><time>2026-04-18T13:56:41.554Z</time></trkpt><trkpt lat="43.3690183" lon="10.6693617"><ele>217.66666666666669</ele><time>2026-04-18T13:56:42.553Z</time></trkpt><trkpt lat="43.3691" lon="10.6693167"><ele>218.33333333333334</ele><time>2026-04-18T13:56:43.553Z</time></trkpt><trkpt lat="43.36919" lon="10.669275"><ele>219.0</ele><time>2026-04-18T13:56:44.553Z</time></trkpt><trkpt lat="43.3692783" lon="10.6692483"><ele>219.0</ele><time>2026-04-18T13:56:45.553Z</time></trkpt><trkpt lat="43.3693717" lon="10.66924"><ele>218.99999999999997</ele><time>2026-04-18T13:56:46.553Z</time></trkpt><trkpt lat="43.369475" lon="10.6692533"><ele>218.99999999999997</ele><time>2026-04-18T13:56:47.554Z</time></trkpt><trkpt lat="43.3695783" lon="10.669285"><ele>219.0</ele><time>2026-04-18T13:56:48.553Z</time></trkpt><trkpt lat="43.3696717" lon="10.6693383"><ele>219.0</ele><time>2026-04-18T13:56:49.553Z</time></trkpt><trkpt lat="43.36975" lon="10.66939"><ele>219.0</ele><time>2026-04-18T13:56:50.553Z</time></trkpt><trkpt lat="43.3698167" lon="10.669435"><ele>219.0</ele><time>2026-04-18T13:56:51.554Z</time></trkpt><trkpt lat="43.3698767" lon="10.669475"><ele>219.0</ele><time>2026-04-18T13:56:52.553Z</time></trkpt><trkpt lat="43.3699833" lon="10.669525"><ele>219.0</ele><time>2026-04-18T13:56:54.553Z</time></trkpt><trkpt lat="43.3700733" lon="10.669545"><ele>219.0</ele><time>2026-04-18T13:56:56.553Z</time></trkpt><trkpt lat="43.3701467" lon="10.669565"><ele>219.0</ele><time>2026-04-18T13:56:59.553Z</time></trkpt><trkpt lat="43.3701467" lon="10.6694717"><ele>219.0</ele><time>2026-04-18T13:57:02.553Z</time></trkpt><trkpt lat="43.370055" lon="10.6694917"><ele>218.99999999999997</ele><time>2026-04-18T13:57:05.553Z</time></trkpt><trkpt lat="43.3699867" lon="10.6694867"><ele>218.99999999999997</ele><time>2026-04-18T13:57:06.553Z</time></trkpt><trkpt lat="43.3699017" lon="10.6694483"><ele>219.0</ele><time>2026-04-18T13:57:07.553Z</time></trkpt><trkpt lat="43.369805" lon="10.6694"><ele>219.0</ele><time>2026-04-18T13:57:08.553Z</time></trkpt><trkpt lat="43.3697033" lon="10.6693283"><ele>211.0</ele><time>2026-04-18T13:57:09.553Z</time></trkpt><trkpt lat="43.3692117" lon="10.669235"><ele>211.0</ele><time>2026-04-18T13:57:13.553Z</time></trkpt><trkpt lat="43.3691" lon="10.6692683"><ele>211.0</ele><time>2026-04-18T13:57:14.553Z</time></trkpt><trkpt lat="43.3689933" lon="10.66933"><ele>211.0</ele><time>2026-04-18T13:57:15.553Z</time></trkpt><trkpt lat="43.36889" lon="10.6694167"><ele>211.0</ele><time>2026-04-18T13:57:16.553Z</time></trkpt><trkpt lat="43.3688033" lon="10.6695017"><ele>212.0</ele><time>2026-04-18T13:57:17.553Z</time></trkpt><trkpt lat="43.3687117" lon="10.6695833"><ele>213.0</ele><time>2026-04-18T13:57:18.554Z</time></trkpt><trkpt lat="43.3686183" lon="10.6696533"><ele>214.0</ele><time>2026-04-18T13:57:19.554Z</time></trkpt><trkpt lat="43.3685" lon="10.6697217"><ele>215.0</ele><time>2026-04-18T13:57:20.553Z</time></trkpt><trkpt lat="43.3683733" lon="10.669775"><ele>215.0</ele><time>2026-04-18T13:57:21.553Z</time></trkpt><trkpt lat="43.3682517" lon="10.6698167"><ele>215.0</ele><time>2026-04-18T13:57:22.553Z</time></trkpt><trkpt lat="43.3681433" lon="10.6698333"><ele>215.0</ele><time>2026-04-18T13:57:23.553Z</time></trkpt><trkpt lat="43.3680367" lon="10.6698233"><ele>215.0</ele><time>2026-04-18T13:57:24.553Z</time></trkpt><trkpt lat="43.3678" lon="10.6696617"><ele>214.0</ele><time>2026-04-18T13:57:26.553Z</time></trkpt><trkpt lat="43.367695" lon="10.66952"><ele>213.0</ele><time>2026-04-18T13:57:27.553Z</time></trkpt><trkpt lat="43.3675883" lon="10.6693717"><ele>212.0</ele><time>2026-04-18T13:57:28.553Z</time></trkpt><trkpt lat="43.36749" lon="10.6692267"><ele>211.0</ele><time>2026-04-18T13:57:29.553Z</time></trkpt><trkpt lat="43.3673917" lon="10.669095"><ele>210.25</ele><time>2026-04-18T13:57:30.553Z</time></trkpt><trkpt lat="43.3673033" lon="10.6689767"><ele>209.5</ele><time>2026-04-18T13:57:31.554Z</time></trkpt><trkpt lat="43.36721" lon="10.6688583"><ele>208.75</ele><time>2026-04-18T13:57:32.553Z</time></trkpt><trkpt lat="43.3671167" lon="10.6687367"><ele>208.0</ele><time>2026-04-18T13:57:33.553Z</time></trkpt><trkpt lat="43.36702" lon="10.6686233"><ele>203.66666666666666</ele><time>2026-04-18T13:57:34.554Z</time></trkpt><trkpt lat="43.3668133" lon="10.6684317"><ele>199.33333333333331</ele><time>2026-04-18T13:57:36.553Z</time></trkpt><trkpt lat="43.3666967" lon="10.6683817"><ele>195.0</ele><time>2026-04-18T13:57:37.553Z</time></trkpt><trkpt lat="43.3665733" lon="10.6683667"><ele>195.0</ele><time>2026-04-18T13:57:38.554Z</time></trkpt><trkpt lat="43.3664483" lon="10.6683983"><ele>195.0</ele><time>2026-04-18T13:57:39.553Z</time></trkpt><trkpt lat="43.36632" lon="10.6684617"><ele>195.0</ele><time>2026-04-18T13:57:40.553Z</time></trkpt><trkpt lat="43.3662033" lon="10.6685367"><ele>195.0</ele><time>2026-04-18T13:57:41.554Z</time></trkpt><trkpt lat="43.3660933" lon="10.6685967"><ele>196.5</ele><time>2026-04-18T13:57:42.553Z</time></trkpt><trkpt lat="43.3659817" lon="10.6686117"><ele>198.0</ele><time>2026-04-18T13:57:43.553Z</time></trkpt><trkpt lat="43.3656533" lon="10.668405"><ele>198.0</ele><time>2026-04-18T13:57:46.553Z</time></trkpt><trkpt lat="43.3655683" lon="10.6682467"><ele>198.0</ele><time>2026-04-18T13:57:47.553Z</time></trkpt><trkpt lat="43.3655233" lon="10.6680833"><ele>198.0</ele><time>2026-04-18T13:57:48.553Z</time></trkpt><trkpt lat="43.3655" lon="10.6679217"><ele>198.0</ele><time>2026-04-18T13:57:49.554Z</time></trkpt><trkpt lat="43.3654717" lon="10.6677583"><ele>197.25</ele><time>2026-04-18T13:57:50.553Z</time></trkpt><trkpt lat="43.3654283" lon="10.667595"><ele>196.5</ele><time>2026-04-18T13:57:51.554Z</time></trkpt><trkpt lat="43.3653433" lon="10.6674467"><ele>195.75</ele><time>2026-04-18T13:57:52.553Z</time></trkpt><trkpt lat="43.365245" lon="10.6673217"><ele>195.0</ele><time>2026-04-18T13:57:53.553Z</time></trkpt><trkpt lat="43.3651483" lon="10.6672183"><ele>195.0</ele><time>2026-04-18T13:57:54.553Z</time></trkpt><trkpt lat="43.3650633" lon="10.6671483"><ele>195.0</ele><time>2026-04-18T13:57:55.553Z</time></trkpt><trkpt lat="43.36497" lon="10.66712"><ele>195.0</ele><time>2026-04-18T13:57:56.553Z</time></trkpt><trkpt lat="43.364875" lon="10.6671317"><ele>195.0</ele><time>2026-04-18T13:57:57.553Z</time></trkpt><trkpt lat="43.3647683" lon="10.6672033"><ele>195.0</ele><time>2026-04-18T13:57:58.553Z</time></trkpt><trkpt lat="43.36466" lon="10.6673283"><ele>192.5</ele><time>2026-04-18T13:57:59.553Z</time></trkpt><trkpt lat="43.364555" lon="10.667445"><ele>190.0</ele><time>2026-04-18T13:58:00.553Z</time></trkpt><trkpt lat="43.3644517" lon="10.6675367"><ele>187.5</ele><time>2026-04-18T13:58:01.553Z</time></trkpt><trkpt lat="43.3643383" lon="10.66757"><ele>185.0</ele><time>2026-04-18T13:58:02.554Z</time></trkpt><trkpt lat="43.364215" lon="10.6675667"><ele>185.0</ele><time>2026-04-18T13:58:03.553Z</time></trkpt><trkpt lat="43.3640817" lon="10.667525"><ele>185.0</ele><time>2026-04-18T13:58:04.554Z</time></trkpt><trkpt lat="43.3639467" lon="10.6674617"><ele>185.0</ele><time>2026-04-18T13:58:05.553Z</time></trkpt><trkpt lat="43.363825" lon="10.6674"><ele>185.0</ele><time>2026-04-18T13:58:06.553Z</time></trkpt><trkpt lat="43.3636417" lon="10.6673583"><ele>184.16666666666666</ele><time>2026-04-18T13:58:08.553Z</time></trkpt><trkpt lat="43.363565" lon="10.6673817"><ele>183.33333333333331</ele><time>2026-04-18T13:58:09.554Z</time></trkpt><trkpt lat="43.3634967" lon="10.667445"><ele>182.5</ele><time>2026-04-18T13:58:10.553Z</time></trkpt><trkpt lat="43.3634533" lon="10.6675367"><ele>181.66666666666666</ele><time>2026-04-18T13:58:11.553Z</time></trkpt><trkpt lat="43.3634367" lon="10.6676667"><ele>180.83333333333334</ele><time>2026-04-18T13:58:12.553Z</time></trkpt><trkpt lat="43.3634233" lon="10.6678067"><ele>180.0</ele><time>2026-04-18T13:58:13.554Z</time></trkpt><trkpt lat="43.36339" lon="10.6679383"><ele>180.0</ele><time>2026-04-18T13:58:14.553Z</time></trkpt><trkpt lat="43.36333" lon="10.6680517"><ele>180.0</ele><time>2026-04-18T13:58:15.553Z</time></trkpt><trkpt lat="43.363235" lon="10.6681267"><ele>180.0</ele><time>2026-04-18T13:58:16.553Z</time></trkpt><trkpt lat="43.3631067" lon="10.668185"><ele>180.0</ele><time>2026-04-18T13:58:17.553Z</time></trkpt><trkpt lat="43.36264" lon="10.6684833"><ele>177.5</ele><time>2026-04-18T13:58:21.553Z</time></trkpt><trkpt lat="43.3625317" lon="10.6685"><ele>175.0</ele><time>2026-04-18T13:58:22.553Z</time></trkpt><trkpt lat="43.362415" lon="10.6684667"><ele>172.5</ele><time>2026-04-18T13:58:23.553Z</time></trkpt><trkpt lat="43.3623067" lon="10.6683683"><ele>170.0</ele><time>2026-04-18T13:58:24.553Z</time></trkpt><trkpt lat="43.3622217" lon="10.6682367"><ele>167.8</ele><time>2026-04-18T13:58:25.553Z</time></trkpt><trkpt lat="43.3621383" lon="10.6681183"><ele>165.6</ele><time>2026-04-18T13:58:26.553Z</time></trkpt><trkpt lat="43.36207" lon="10.66803"><ele>163.4</ele><time>2026-04-18T13:58:27.553Z</time></trkpt><trkpt lat="43.3620017" lon="10.6679717"><ele>161.2</ele><time>2026-04-18T13:58:28.553Z</time></trkpt><trkpt lat="43.3619233" lon="10.667955"><ele>159.0</ele><time>2026-04-18T13:58:29.554Z</time></trkpt><trkpt lat="43.3618383" lon="10.6679867"><ele>159.0</ele><time>2026-04-18T13:58:30.553Z</time></trkpt><trkpt lat="43.361655" lon="10.6682117"><ele>159.0</ele><time>2026-04-18T13:58:32.554Z</time></trkpt><trkpt lat="43.3615633" lon="10.668395"><ele>159.0</ele><time>2026-04-18T13:58:33.553Z</time></trkpt><trkpt lat="43.3615" lon="10.668565"><ele>160.5</ele><time>2026-04-18T13:58:34.553Z</time></trkpt><trkpt lat="43.3614567" lon="10.6687517"><ele>162.0</ele><time>2026-04-18T13:58:35.553Z</time></trkpt><trkpt lat="43.3614267" lon="10.6689417"><ele>163.5</ele><time>2026-04-18T13:58:36.553Z</time></trkpt><trkpt lat="43.36139" lon="10.6691033"><ele>165.0</ele><time>2026-04-18T13:58:37.554Z</time></trkpt><trkpt lat="43.3613317" lon="10.6692733"><ele>161.75</ele><time>2026-04-18T13:58:38.553Z</time></trkpt><trkpt lat="43.361255" lon="10.66944"><ele>158.5</ele><time>2026-04-18T13:58:39.553Z</time></trkpt><trkpt lat="43.3611683" lon="10.6695767"><ele>155.25</ele><time>2026-04-18T13:58:40.553Z</time></trkpt><trkpt lat="43.361065" lon="10.6697067"><ele>152.0</ele><time>2026-04-18T13:58:41.554Z</time></trkpt><trkpt lat="43.3609217" lon="10.6699933"><ele>152.0</ele><time>2026-04-18T13:58:43.554Z</time></trkpt><trkpt lat="43.36088" lon="10.6701833"><ele>152.0</ele><time>2026-04-18T13:58:44.553Z</time></trkpt><trkpt lat="43.3608233" lon="10.6703783"><ele>152.0</ele><time>2026-04-18T13:58:45.554Z</time></trkpt><trkpt lat="43.36076" lon="10.6705617"><ele>152.0</ele><time>2026-04-18T13:58:46.553Z</time></trkpt><trkpt lat="43.3606833" lon="10.6707283"><ele>153.0</ele><time>2026-04-18T13:58:47.553Z</time></trkpt><trkpt lat="43.3605983" lon="10.6708983"><ele>154.0</ele><time>2026-04-18T13:58:48.553Z</time></trkpt><trkpt lat="43.36053" lon="10.6710717"><ele>155.0</ele><time>2026-04-18T13:58:49.553Z</time></trkpt><trkpt lat="43.3604617" lon="10.6712867"><ele>148.5</ele><time>2026-04-18T13:58:50.553Z</time></trkpt><trkpt lat="43.3604083" lon="10.6715333"><ele>142.0</ele><time>2026-04-18T13:58:51.553Z</time></trkpt><trkpt lat="43.3602617" lon="10.6721967"><ele>142.0</ele><time>2026-04-18T13:58:54.553Z</time></trkpt><trkpt lat="43.3602183" lon="10.672375"><ele>142.0</ele><time>2026-04-18T13:58:55.553Z</time></trkpt><trkpt lat="43.3601867" lon="10.6725067"><ele>142.0</ele><time>2026-04-18T13:58:56.553Z</time></trkpt><trkpt lat="43.3601617" lon="10.6726117"><ele>142.0</ele><time>2026-04-18T13:58:57.553Z</time></trkpt><trkpt lat="43.3601133" lon="10.6726917"><ele>142.0</ele><time>2026-04-18T13:58:58.554Z</time></trkpt><trkpt lat="43.36005" lon="10.6727683"><ele>142.0</ele><time>2026-04-18T13:58:59.553Z</time></trkpt><trkpt lat="43.35997" lon="10.6728083"><ele>142.0</ele><time>2026-04-18T13:59:00.554Z</time></trkpt><trkpt lat="43.3598817" lon="10.6728067"><ele>142.0</ele><time>2026-04-18T13:59:01.553Z</time></trkpt><trkpt lat="43.3597917" lon="10.672765"><ele>142.0</ele><time>2026-04-18T13:59:02.553Z</time></trkpt><trkpt lat="43.3596933" lon="10.6726683"><ele>142.0</ele><time>2026-04-18T13:59:03.553Z</time></trkpt><trkpt lat="43.3596133" lon="10.6725433"><ele>139.75</ele><time>2026-04-18T13:59:04.553Z</time></trkpt><trkpt lat="43.3595667" lon="10.6724"><ele>137.5</ele><time>2026-04-18T13:59:05.553Z</time></trkpt><trkpt lat="43.3595433" lon="10.67224"><ele>135.25</ele><time>2026-04-18T13:59:06.554Z</time></trkpt><trkpt lat="43.3595433" lon="10.6720717"><ele>133.0</ele><time>2026-04-18T13:59:07.553Z</time></trkpt><trkpt lat="43.359555" lon="10.67188"><ele>132.25</ele><time>2026-04-18T13:59:08.553Z</time></trkpt><trkpt lat="43.3595633" lon="10.6716983"><ele>131.5</ele><time>2026-04-18T13:59:09.553Z</time></trkpt><trkpt lat="43.3595533" lon="10.6715117"><ele>130.75</ele><time>2026-04-18T13:59:10.552Z</time></trkpt><trkpt lat="43.3595367" lon="10.67134"><ele>130.0</ele><time>2026-04-18T13:59:11.552Z</time></trkpt><trkpt lat="43.359535" lon="10.6711683"><ele>129.25</ele><time>2026-04-18T13:59:12.553Z</time></trkpt><trkpt lat="43.3595583" lon="10.670985"><ele>128.5</ele><time>2026-04-18T13:59:13.553Z</time></trkpt><trkpt lat="43.3596117" lon="10.6707967"><ele>127.75</ele><time>2026-04-18T13:59:14.552Z</time></trkpt><trkpt lat="43.35968" lon="10.6706183"><ele>127.0</ele><time>2026-04-18T13:59:15.553Z</time></trkpt><trkpt lat="43.3597567" lon="10.6704583"><ele>128.6</ele><time>2026-04-18T13:59:16.552Z</time></trkpt><trkpt lat="43.359815" lon="10.67031"><ele>130.2</ele><time>2026-04-18T13:59:17.552Z</time></trkpt><trkpt lat="43.35985" lon="10.6701867"><ele>131.8</ele><time>2026-04-18T13:59:18.552Z</time></trkpt><trkpt lat="43.3598717" lon="10.6700633"><ele>133.4</ele><time>2026-04-18T13:59:19.552Z</time></trkpt><trkpt lat="43.3598667" lon="10.6699567"><ele>135.0</ele><time>2026-04-18T13:59:20.552Z</time></trkpt><trkpt lat="43.3598433" lon="10.6698467"><ele>135.0</ele><time>2026-04-18T13:59:21.552Z</time></trkpt><trkpt lat="43.35978" lon="10.6697383"><ele>135.0</ele><time>2026-04-18T13:59:22.552Z</time></trkpt><trkpt lat="43.3596633" lon="10.6696283"><ele>135.0</ele><time>2026-04-18T13:59:23.552Z</time></trkpt><trkpt lat="43.359555" lon="10.6695117"><ele>135.0</ele><time>2026-04-18T13:59:24.552Z</time></trkpt><trkpt lat="43.3594717" lon="10.669385"><ele>123.0</ele><time>2026-04-18T13:59:25.552Z</time></trkpt><trkpt lat="43.35928" lon="10.668795"><ele>123.0</ele><time>2026-04-18T13:59:29.552Z</time></trkpt><trkpt lat="43.3591917" lon="10.66871"><ele>123.0</ele><time>2026-04-18T13:59:30.552Z</time></trkpt><trkpt lat="43.359065" lon="10.668655"><ele>123.0</ele><time>2026-04-18T13:59:31.552Z</time></trkpt><trkpt lat="43.3588983" lon="10.6686167"><ele>123.0</ele><time>2026-04-18T13:59:32.552Z</time></trkpt><trkpt lat="43.3586867" lon="10.668575"><ele>119.0</ele><time>2026-04-18T13:59:33.552Z</time></trkpt><trkpt lat="43.35845" lon="10.6685417"><ele>115.0</ele><time>2026-04-18T13:59:34.552Z</time></trkpt><trkpt lat="43.3582267" lon="10.668505"><ele>115.0</ele><time>2026-04-18T13:59:35.552Z</time></trkpt><trkpt lat="43.3580183" lon="10.66847"><ele>115.0</ele><time>2026-04-18T13:59:36.552Z</time></trkpt><trkpt lat="43.357825" lon="10.6684167"><ele>115.0</ele><time>2026-04-18T13:59:37.552Z</time></trkpt><trkpt lat="43.357635" lon="10.6683583"><ele>115.0</ele><time>2026-04-18T13:59:38.552Z</time></trkpt><trkpt lat="43.3574417" lon="10.6682867"><ele>115.0</ele><time>2026-04-18T13:59:39.552Z</time></trkpt><trkpt lat="43.35725" lon="10.66821"><ele>115.0</ele><time>2026-04-18T13:59:40.552Z</time></trkpt><trkpt lat="43.3570583" lon="10.66812"><ele>116.66666666666667</ele><time>2026-04-18T13:59:41.552Z</time></trkpt><trkpt lat="43.3568583" lon="10.6680283"><ele>118.33333333333334</ele><time>2026-04-18T13:59:42.552Z</time></trkpt><trkpt lat="43.3566817" lon="10.6679433"><ele>120.0</ele><time>2026-04-18T13:59:43.552Z</time></trkpt><trkpt lat="43.35651" lon="10.667865"><ele>119.66666666666666</ele><time>2026-04-18T13:59:44.552Z</time></trkpt><trkpt lat="43.356355" lon="10.6677883"><ele>119.33333333333333</ele><time>2026-04-18T13:59:45.552Z</time></trkpt><trkpt lat="43.356215" lon="10.66772"><ele>119.0</ele><time>2026-04-18T13:59:46.552Z</time></trkpt><trkpt lat="43.356065" lon="10.667675"><ele>119.0</ele><time>2026-04-18T13:59:47.553Z</time></trkpt><trkpt lat="43.355905" lon="10.6676367"><ele>119.0</ele><time>2026-04-18T13:59:48.552Z</time></trkpt><trkpt lat="43.3557367" lon="10.6676183"><ele>119.0</ele><time>2026-04-18T13:59:49.552Z</time></trkpt><trkpt lat="43.35557" lon="10.6676067"><ele>120.5</ele><time>2026-04-18T13:59:50.552Z</time></trkpt><trkpt lat="43.3554217" lon="10.6675867"><ele>122.0</ele><time>2026-04-18T13:59:51.552Z</time></trkpt><trkpt lat="43.3552933" lon="10.6675667"><ele>123.5</ele><time>2026-04-18T13:59:52.552Z</time></trkpt><trkpt lat="43.3551833" lon="10.66755"><ele>125.0</ele><time>2026-04-18T13:59:53.552Z</time></trkpt><trkpt lat="43.355085" lon="10.6675467"><ele>125.0</ele><time>2026-04-18T13:59:54.552Z</time></trkpt><trkpt lat="43.3550067" lon="10.6675517"><ele>125.0</ele><time>2026-04-18T13:59:55.552Z</time></trkpt><trkpt lat="43.3549367" lon="10.6675633"><ele>125.0</ele><time>2026-04-18T13:59:56.552Z</time></trkpt><trkpt lat="43.3547983" lon="10.6676267"><ele>125.0</ele><time>2026-04-18T13:59:58.553Z</time></trkpt><trkpt lat="43.354725" lon="10.6676867"><ele>125.0</ele><time>2026-04-18T13:59:59.553Z</time></trkpt><trkpt lat="43.3545217" lon="10.668025"><ele>125.83333333333333</ele><time>2026-04-18T14:00:02.552Z</time></trkpt><trkpt lat="43.3544617" lon="10.6681217"><ele>126.66666666666666</ele><time>2026-04-18T14:00:03.552Z</time></trkpt><trkpt lat="43.3544017" lon="10.6681933"><ele>127.5</ele><time>2026-04-18T14:00:04.552Z</time></trkpt><trkpt lat="43.354335" lon="10.6682483"><ele>128.33333333333334</ele><time>2026-04-18T14:00:05.552Z</time></trkpt><trkpt lat="43.354255" lon="10.6682633"><ele>129.16666666666669</ele><time>2026-04-18T14:00:06.553Z</time></trkpt><trkpt lat="43.3541767" lon="10.6682383"><ele>130.0</ele><time>2026-04-18T14:00:07.552Z</time></trkpt><trkpt lat="43.354025" lon="10.668065"><ele>130.0</ele><time>2026-04-18T14:00:09.552Z</time></trkpt><trkpt lat="43.3539567" lon="10.6679033"><ele>130.0</ele><time>2026-04-18T14:00:10.552Z</time></trkpt><trkpt lat="43.3538817" lon="10.6677167"><ele>130.0</ele><time>2026-04-18T14:00:11.553Z</time></trkpt><trkpt lat="43.353795" lon="10.6675583"><ele>130.0</ele><time>2026-04-18T14:00:12.552Z</time></trkpt><trkpt lat="43.3536833" lon="10.6674183"><ele>131.0</ele><time>2026-04-18T14:00:13.552Z</time></trkpt><trkpt lat="43.35358" lon="10.6673033"><ele>132.0</ele><time>2026-04-18T14:00:14.552Z</time></trkpt><trkpt lat="43.35347" lon="10.66722"><ele>133.0</ele><time>2026-04-18T14:00:15.552Z</time></trkpt><trkpt lat="43.35335" lon="10.667175"><ele>134.0</ele><time>2026-04-18T14:00:16.552Z</time></trkpt><trkpt lat="43.3532083" lon="10.6671533"><ele>134.0</ele><time>2026-04-18T14:00:17.552Z</time></trkpt><trkpt lat="43.35305" lon="10.6671783"><ele>134.0</ele><time>2026-04-18T14:00:18.552Z</time></trkpt><trkpt lat="43.3528767" lon="10.6672267"><ele>134.0</ele><time>2026-04-18T14:00:19.552Z</time></trkpt><trkpt lat="43.3527017" lon="10.6673267"><ele>135.33333333333331</ele><time>2026-04-18T14:00:20.552Z</time></trkpt><trkpt lat="43.352535" lon="10.6674433"><ele>136.66666666666666</ele><time>2026-04-18T14:00:21.552Z</time></trkpt><trkpt lat="43.352395" lon="10.667545"><ele>138.0</ele><time>2026-04-18T14:00:22.552Z</time></trkpt><trkpt lat="43.3522633" lon="10.6676333"><ele>139.33333333333334</ele><time>2026-04-18T14:00:23.552Z</time></trkpt><trkpt lat="43.3521267" lon="10.6676933"><ele>140.66666666666669</ele><time>2026-04-18T14:00:24.552Z</time></trkpt><trkpt lat="43.35196" lon="10.66772"><ele>142.0</ele><time>2026-04-18T14:00:25.552Z</time></trkpt><trkpt lat="43.3517683" lon="10.667725"><ele>142.0</ele><time>2026-04-18T14:00:26.552Z</time></trkpt><trkpt lat="43.35159" lon="10.6677083"><ele>142.0</ele><time>2026-04-18T14:00:27.552Z</time></trkpt><trkpt lat="43.3514333" lon="10.667695"><ele>142.0</ele><time>2026-04-18T14:00:28.552Z</time></trkpt><trkpt lat="43.3512967" lon="10.6676933"><ele>142.66666666666669</ele><time>2026-04-18T14:00:29.552Z</time></trkpt><trkpt lat="43.3511433" lon="10.66773"><ele>143.33333333333334</ele><time>2026-04-18T14:00:30.552Z</time></trkpt><trkpt lat="43.350995" lon="10.667815"><ele>144.0</ele><time>2026-04-18T14:00:31.552Z</time></trkpt><trkpt lat="43.35085" lon="10.667895"><ele>140.0</ele><time>2026-04-18T14:00:32.552Z</time></trkpt><trkpt lat="43.3507233" lon="10.6679517"><ele>136.0</ele><time>2026-04-18T14:00:33.552Z</time></trkpt><trkpt lat="43.3503983" lon="10.6679183"><ele>135.66666666666669</ele><time>2026-04-18T14:00:36.552Z</time></trkpt><trkpt lat="43.3502633" lon="10.6678517"><ele>135.33333333333334</ele><time>2026-04-18T14:00:37.552Z</time></trkpt><trkpt lat="43.350085" lon="10.6677383"><ele>135.0</ele><time>2026-04-18T14:00:38.552Z</time></trkpt><trkpt lat="43.34987" lon="10.6676167"><ele>134.0</ele><time>2026-04-18T14:00:39.552Z</time></trkpt><trkpt lat="43.3496367" lon="10.6674883"><ele>133.0</ele><time>2026-04-18T14:00:40.552Z</time></trkpt><trkpt lat="43.3494083" lon="10.66736"><ele>133.0</ele><time>2026-04-18T14:00:41.552Z</time></trkpt><trkpt lat="43.3492033" lon="10.6672433"><ele>133.0</ele><time>2026-04-18T14:00:42.552Z</time></trkpt><trkpt lat="43.3490433" lon="10.6671517"><ele>133.0</ele><time>2026-04-18T14:00:43.552Z</time></trkpt><trkpt lat="43.348905" lon="10.6670733"><ele>133.20000000000002</ele><time>2026-04-18T14:00:44.552Z</time></trkpt><trkpt lat="43.3487867" lon="10.6670017"><ele>133.4</ele><time>2026-04-18T14:00:45.552Z</time></trkpt><trkpt lat="43.3487067" lon="10.6669467"><ele>133.60000000000002</ele><time>2026-04-18T14:00:46.552Z</time></trkpt><trkpt lat="43.3486433" lon="10.6668767"><ele>133.8</ele><time>2026-04-18T14:00:47.552Z</time></trkpt><trkpt lat="43.3485767" lon="10.6667917"><ele>134.0</ele><time>2026-04-18T14:00:48.552Z</time></trkpt><trkpt lat="43.3485167" lon="10.666705"><ele>134.0</ele><time>2026-04-18T14:00:49.552Z</time></trkpt><trkpt lat="43.3484667" lon="10.66661"><ele>134.0</ele><time>2026-04-18T14:00:50.552Z</time></trkpt><trkpt lat="43.3484167" lon="10.6665217"><ele>134.0</ele><time>2026-04-18T14:00:51.553Z</time></trkpt><trkpt lat="43.3483283" lon="10.6663167"><ele>134.0</ele><time>2026-04-18T14:00:53.552Z</time></trkpt><trkpt lat="43.34826" lon="10.666205"><ele>134.0</ele><time>2026-04-18T14:00:54.552Z</time></trkpt><trkpt lat="43.34819" lon="10.666105"><ele>135.0</ele><time>2026-04-18T14:00:55.552Z</time></trkpt><trkpt lat="43.3481183" lon="10.6660233"><ele>136.0</ele><time>2026-04-18T14:00:56.553Z</time></trkpt><trkpt lat="43.3480383" lon="10.6659467"><ele>137.0</ele><time>2026-04-18T14:00:57.552Z</time></trkpt><trkpt lat="43.347885" lon="10.6657983"><ele>138.0</ele><time>2026-04-18T14:00:59.552Z</time></trkpt><trkpt lat="43.3478133" lon="10.66572"><ele>136.25</ele><time>2026-04-18T14:01:00.552Z</time></trkpt><trkpt lat="43.3477417" lon="10.66565"><ele>134.5</ele><time>2026-04-18T14:01:01.552Z</time></trkpt><trkpt lat="43.347625" lon="10.6654617"><ele>132.75</ele><time>2026-04-18T14:01:03.552Z</time></trkpt><trkpt lat="43.3475717" lon="10.6653417"><ele>131.0</ele><time>2026-04-18T14:01:04.552Z</time></trkpt><trkpt lat="43.347335" lon="10.66493"><ele>120.0</ele><time>2026-04-18T14:01:07.552Z</time></trkpt><trkpt lat="43.3467617" lon="10.6645583"><ele>120.0</ele><time>2026-04-18T14:01:11.552Z</time></trkpt><trkpt lat="43.34664" lon="10.6644817"><ele>120.0</ele><time>2026-04-18T14:01:12.552Z</time></trkpt><trkpt lat="43.346425" lon="10.6643033"><ele>120.0</ele><time>2026-04-18T14:01:14.552Z</time></trkpt><trkpt lat="43.3463217" lon="10.664195"><ele>118.5</ele><time>2026-04-18T14:01:15.552Z</time></trkpt><trkpt lat="43.346235" lon="10.6640533"><ele>117.0</ele><time>2026-04-18T14:01:16.552Z</time></trkpt><trkpt lat="43.346155" lon="10.6639067"><ele>115.5</ele><time>2026-04-18T14:01:17.552Z</time></trkpt><trkpt lat="43.3460983" lon="10.663785"><ele>114.0</ele><time>2026-04-18T14:01:18.552Z</time></trkpt><trkpt lat="43.3460517" lon="10.66366"><ele>114.25</ele><time>2026-04-18T14:01:19.553Z</time></trkpt><trkpt lat="43.346025" lon="10.6635083"><ele>114.5</ele><time>2026-04-18T14:01:20.553Z</time></trkpt><trkpt lat="43.34601" lon="10.663345"><ele>114.75</ele><time>2026-04-18T14:01:21.552Z</time></trkpt><trkpt lat="43.346025" lon="10.6631867"><ele>115.0</ele><time>2026-04-18T14:01:22.552Z</time></trkpt><trkpt lat="43.346055" lon="10.6630367"><ele>115.0</ele><time>2026-04-18T14:01:23.552Z</time></trkpt><trkpt lat="43.3461133" lon="10.6628967"><ele>115.0</ele><time>2026-04-18T14:01:24.552Z</time></trkpt><trkpt lat="43.3461917" lon="10.6627683"><ele>115.0</ele><time>2026-04-18T14:01:25.552Z</time></trkpt><trkpt lat="43.3462833" lon="10.6626533"><ele>115.0</ele><time>2026-04-18T14:01:26.552Z</time></trkpt><trkpt lat="43.3463683" lon="10.662555"><ele>115.83333333333334</ele><time>2026-04-18T14:01:27.553Z</time></trkpt><trkpt lat="43.3464333" lon="10.6624617"><ele>116.66666666666667</ele><time>2026-04-18T14:01:28.553Z</time></trkpt><trkpt lat="43.3464683" lon="10.662365"><ele>117.5</ele><time>2026-04-18T14:01:29.552Z</time></trkpt><trkpt lat="43.3464717" lon="10.6622667"><ele>118.33333333333334</ele><time>2026-04-18T14:01:30.552Z</time></trkpt><trkpt lat="43.3464383" lon="10.6621767"><ele>119.16666666666667</ele><time>2026-04-18T14:01:31.552Z</time></trkpt><trkpt lat="43.3463983" lon="10.6620933"><ele>120.0</ele><time>2026-04-18T14:01:32.552Z</time></trkpt><trkpt lat="43.3463083" lon="10.6620383"><ele>117.25</ele><time>2026-04-18T14:01:33.552Z</time></trkpt><trkpt lat="43.3462083" lon="10.6620167"><ele>114.5</ele><time>2026-04-18T14:01:34.553Z</time></trkpt><trkpt lat="43.3460933" lon="10.662045"><ele>111.75</ele><time>2026-04-18T14:01:35.552Z</time></trkpt><trkpt lat="43.3459783" lon="10.6621133"><ele>109.0</ele><time>2026-04-18T14:01:36.552Z</time></trkpt><trkpt lat="43.3458783" lon="10.662215"><ele>109.0</ele><time>2026-04-18T14:01:37.552Z</time></trkpt><trkpt lat="43.3457733" lon="10.6623833"><ele>109.0</ele><time>2026-04-18T14:01:38.552Z</time></trkpt><trkpt lat="43.3456767" lon="10.6625917"><ele>109.0</ele><time>2026-04-18T14:01:39.552Z</time></trkpt><trkpt lat="43.345575" lon="10.662815"><ele>106.33333333333334</ele><time>2026-04-18T14:01:40.552Z</time></trkpt><trkpt lat="43.3454833" lon="10.6630217"><ele>103.66666666666666</ele><time>2026-04-18T14:01:41.552Z</time></trkpt><trkpt lat="43.3453883" lon="10.6632117"><ele>101.0</ele><time>2026-04-18T14:01:42.552Z</time></trkpt><trkpt lat="43.3451517" lon="10.6636817"><ele>101.0</ele><time>2026-04-18T14:01:45.552Z</time></trkpt><trkpt lat="43.3451033" lon="10.6638317"><ele>101.0</ele><time>2026-04-18T14:01:46.553Z</time></trkpt><trkpt lat="43.3450783" lon="10.6640067"><ele>101.0</ele><time>2026-04-18T14:01:47.552Z</time></trkpt><trkpt lat="43.3450717" lon="10.66418"><ele>101.0</ele><time>2026-04-18T14:01:48.552Z</time></trkpt><trkpt lat="43.3450733" lon="10.664345"><ele>100.19999999999999</ele><time>2026-04-18T14:01:49.552Z</time></trkpt><trkpt lat="43.3450533" lon="10.6644867"><ele>99.39999999999999</ele><time>2026-04-18T14:01:50.552Z</time></trkpt><trkpt lat="43.3450133" lon="10.6646083"><ele>98.6</ele><time>2026-04-18T14:01:51.552Z</time></trkpt><trkpt lat="43.3449467" lon="10.664695"><ele>97.8</ele><time>2026-04-18T14:01:52.552Z</time></trkpt><trkpt lat="43.3448517" lon="10.6647533"><ele>97.0</ele><time>2026-04-18T14:01:53.552Z</time></trkpt><trkpt lat="43.344735" lon="10.664775"><ele>93.66666666666667</ele><time>2026-04-18T14:01:54.552Z</time></trkpt><trkpt lat="43.34457" lon="10.6647533"><ele>90.33333333333334</ele><time>2026-04-18T14:01:55.552Z</time></trkpt><trkpt lat="43.34438" lon="10.6647"><ele>87.0</ele><time>2026-04-18T14:01:56.552Z</time></trkpt><trkpt lat="43.3441717" lon="10.6646367"><ele>87.0</ele><time>2026-04-18T14:01:57.552Z</time></trkpt><trkpt lat="43.3439767" lon="10.66458"><ele>87.0</ele><time>2026-04-18T14:01:58.552Z</time></trkpt><trkpt lat="43.343795" lon="10.6645367"><ele>87.0</ele><time>2026-04-18T14:01:59.552Z</time></trkpt><trkpt lat="43.343625" lon="10.6644967"><ele>85.66666666666667</ele><time>2026-04-18T14:02:00.552Z</time></trkpt><trkpt lat="43.3434667" lon="10.664455"><ele>84.33333333333334</ele><time>2026-04-18T14:02:01.553Z</time></trkpt><trkpt lat="43.34331" lon="10.6644117"><ele>83.0</ele><time>2026-04-18T14:02:02.553Z</time></trkpt><trkpt lat="43.34315" lon="10.6643733"><ele>82.25</ele><time>2026-04-18T14:02:03.552Z</time></trkpt><trkpt lat="43.343005" lon="10.6643267"><ele>81.5</ele><time>2026-04-18T14:02:04.552Z</time></trkpt><trkpt lat="43.3428683" lon="10.6642683"><ele>80.75</ele><time>2026-04-18T14:02:05.552Z</time></trkpt><trkpt lat="43.342735" lon="10.6641833"><ele>80.0</ele><time>2026-04-18T14:02:06.552Z</time></trkpt><trkpt lat="43.3426017" lon="10.6640533"><ele>80.0</ele><time>2026-04-18T14:02:07.552Z</time></trkpt><trkpt lat="43.3424633" lon="10.66388"><ele>80.0</ele><time>2026-04-18T14:02:08.552Z</time></trkpt><trkpt lat="43.3423333" lon="10.663695"><ele>80.0</ele><time>2026-04-18T14:02:09.552Z</time></trkpt><trkpt lat="43.3421967" lon="10.66352"><ele>80.0</ele><time>2026-04-18T14:02:10.552Z</time></trkpt><trkpt lat="43.342075" lon="10.6633583"><ele>80.0</ele><time>2026-04-18T14:02:11.552Z</time></trkpt><trkpt lat="43.34197" lon="10.6632067"><ele>80.0</ele><time>2026-04-18T14:02:12.552Z</time></trkpt><trkpt lat="43.3418633" lon="10.6630483"><ele>80.0</ele><time>2026-04-18T14:02:13.552Z</time></trkpt><trkpt lat="43.3417583" lon="10.662865"><ele>80.0</ele><time>2026-04-18T14:02:14.553Z</time></trkpt><trkpt lat="43.34166" lon="10.6626883"><ele>80.0</ele><time>2026-04-18T14:02:15.552Z</time></trkpt><trkpt lat="43.3415583" lon="10.6624933"><ele>84.0</ele><time>2026-04-18T14:02:16.553Z</time></trkpt><trkpt lat="43.3412533" lon="10.66167"><ele>84.0</ele><time>2026-04-18T14:02:19.552Z</time></trkpt><trkpt lat="43.3411483" lon="10.661345"><ele>84.0</ele><time>2026-04-18T14:02:20.552Z</time></trkpt><trkpt lat="43.3410533" lon="10.661045"><ele>81.33333333333333</ele><time>2026-04-18T14:02:21.552Z</time></trkpt><trkpt lat="43.3409583" lon="10.660755"><ele>78.66666666666666</ele><time>2026-04-18T14:02:22.552Z</time></trkpt><trkpt lat="43.3408867" lon="10.66049"><ele>76.0</ele><time>2026-04-18T14:02:23.552Z</time></trkpt><trkpt lat="43.3408133" lon="10.66024"><ele>73.33333333333333</ele><time>2026-04-18T14:02:24.552Z</time></trkpt><trkpt lat="43.340745" lon="10.6599883"><ele>70.66666666666667</ele><time>2026-04-18T14:02:25.552Z</time></trkpt><trkpt lat="43.3406533" lon="10.6597167"><ele>68.0</ele><time>2026-04-18T14:02:26.552Z</time></trkpt><trkpt lat="43.3405533" lon="10.659445"><ele>68.33333333333334</ele><time>2026-04-18T14:02:27.552Z</time></trkpt><trkpt lat="43.34045" lon="10.6591917"><ele>68.66666666666667</ele><time>2026-04-18T14:02:28.552Z</time></trkpt><trkpt lat="43.3403483" lon="10.6589417"><ele>69.0</ele><time>2026-04-18T14:02:29.552Z</time></trkpt><trkpt lat="43.3402617" lon="10.658705"><ele>67.33333333333333</ele><time>2026-04-18T14:02:30.552Z</time></trkpt><trkpt lat="43.3401817" lon="10.6584767"><ele>65.66666666666666</ele><time>2026-04-18T14:02:31.552Z</time></trkpt><trkpt lat="43.340115" lon="10.6582633"><ele>64.0</ele><time>2026-04-18T14:02:32.551Z</time></trkpt><trkpt lat="43.3400067" lon="10.657905"><ele>62.5</ele><time>2026-04-18T14:02:34.551Z</time></trkpt><trkpt lat="43.3399567" lon="10.6577467"><ele>61.0</ele><time>2026-04-18T14:02:35.551Z</time></trkpt><trkpt lat="43.3398867" lon="10.6576133"><ele>59.5</ele><time>2026-04-18T14:02:36.551Z</time></trkpt><trkpt lat="43.3397917" lon="10.65747"><ele>58.0</ele><time>2026-04-18T14:02:37.551Z</time></trkpt><trkpt lat="43.339665" lon="10.6573067"><ele>58.0</ele><time>2026-04-18T14:02:38.551Z</time></trkpt><trkpt lat="43.3395083" lon="10.6570967"><ele>58.0</ele><time>2026-04-18T14:02:39.552Z</time></trkpt><trkpt lat="43.33933" lon="10.6568767"><ele>56.666666666666664</ele><time>2026-04-18T14:02:40.551Z</time></trkpt><trkpt lat="43.3391617" lon="10.656675"><ele>55.33333333333333</ele><time>2026-04-18T14:02:41.551Z</time></trkpt><trkpt lat="43.3389983" lon="10.656485"><ele>54.0</ele><time>2026-04-18T14:02:42.551Z</time></trkpt><trkpt lat="43.338845" lon="10.6563"><ele>53.0</ele><time>2026-04-18T14:02:43.551Z</time></trkpt><trkpt lat="43.3387" lon="10.6561217"><ele>52.0</ele><time>2026-04-18T14:02:44.551Z</time></trkpt><trkpt lat="43.3385667" lon="10.65595"><ele>51.0</ele><time>2026-04-18T14:02:45.551Z</time></trkpt><trkpt lat="43.33844" lon="10.6557917"><ele>50.0</ele><time>2026-04-18T14:02:46.551Z</time></trkpt><trkpt lat="43.338325" lon="10.655635"><ele>49.0</ele><time>2026-04-18T14:02:47.551Z</time></trkpt><trkpt lat="43.3382" lon="10.6554917"><ele>48.0</ele><time>2026-04-18T14:02:48.551Z</time></trkpt><trkpt lat="43.3380633" lon="10.65533"><ele>45.5</ele><time>2026-04-18T14:02:49.552Z</time></trkpt><trkpt lat="43.33791" lon="10.6551533"><ele>43.0</ele><time>2026-04-18T14:02:50.551Z</time></trkpt><trkpt lat="43.33747" lon="10.6546017"><ele>42.66666666666667</ele><time>2026-04-18T14:02:53.551Z</time></trkpt><trkpt lat="43.3373383" lon="10.6544383"><ele>42.333333333333336</ele><time>2026-04-18T14:02:54.551Z</time></trkpt><trkpt lat="43.337215" lon="10.654285"><ele>42.0</ele><time>2026-04-18T14:02:55.551Z</time></trkpt><trkpt lat="43.3371017" lon="10.654135"><ele>41.5</ele><time>2026-04-18T14:02:56.551Z</time></trkpt><trkpt lat="43.3370117" lon="10.654005"><ele>41.0</ele><time>2026-04-18T14:02:57.551Z</time></trkpt><trkpt lat="43.3369133" lon="10.653905"><ele>40.5</ele><time>2026-04-18T14:02:58.551Z</time></trkpt><trkpt lat="43.3368383" lon="10.6538083"><ele>40.0</ele><time>2026-04-18T14:02:59.552Z</time></trkpt><trkpt lat="43.3367867" lon="10.6536883"><ele>39.25</ele><time>2026-04-18T14:03:00.551Z</time></trkpt><trkpt lat="43.3367383" lon="10.6535117"><ele>38.5</ele><time>2026-04-18T14:03:01.551Z</time></trkpt><trkpt lat="43.3367067" lon="10.6533133"><ele>37.75</ele><time>2026-04-18T14:03:02.551Z</time></trkpt><trkpt lat="43.3366833" lon="10.6531317"><ele>37.0</ele><time>2026-04-18T14:03:03.551Z</time></trkpt><trkpt lat="43.33666" lon="10.652975"><ele>37.0</ele><time>2026-04-18T14:03:04.552Z</time></trkpt><trkpt lat="43.33665" lon="10.652845"><ele>37.0</ele><time>2026-04-18T14:03:05.551Z</time></trkpt><trkpt lat="43.3366467" lon="10.6527183"><ele>37.0</ele><time>2026-04-18T14:03:06.551Z</time></trkpt><trkpt lat="43.33665" lon="10.65259"><ele>37.0</ele><time>2026-04-18T14:03:07.551Z</time></trkpt><trkpt lat="43.3366567" lon="10.6524817"><ele>37.0</ele><time>2026-04-18T14:03:08.551Z</time></trkpt><trkpt lat="43.3366983" lon="10.652355"><ele>35.66666666666667</ele><time>2026-04-18T14:03:09.551Z</time></trkpt><trkpt lat="43.3367983" lon="10.6521933"><ele>34.333333333333336</ele><time>2026-04-18T14:03:10.552Z</time></trkpt><trkpt lat="43.3369367" lon="10.652"><ele>33.0</ele><time>2026-04-18T14:03:11.552Z</time></trkpt><trkpt lat="43.3370933" lon="10.6517717"><ele>32.5</ele><time>2026-04-18T14:03:12.552Z</time></trkpt><trkpt lat="43.3372533" lon="10.6515467"><ele>32.0</ele><time>2026-04-18T14:03:13.551Z</time></trkpt><trkpt lat="43.3374267" lon="10.6513"><ele>31.5</ele><time>2026-04-18T14:03:14.551Z</time></trkpt><trkpt lat="43.3376" lon="10.6510467"><ele>31.0</ele><time>2026-04-18T14:03:15.552Z</time></trkpt><trkpt lat="43.337775" lon="10.650785"><ele>31.0</ele><time>2026-04-18T14:03:16.551Z</time></trkpt><trkpt lat="43.33795" lon="10.6505317"><ele>31.0</ele><time>2026-04-18T14:03:17.551Z</time></trkpt><trkpt lat="43.3381167" lon="10.65026"><ele>31.5</ele><time>2026-04-18T14:03:18.551Z</time></trkpt><trkpt lat="43.3382733" lon="10.6499833"><ele>32.0</ele><time>2026-04-18T14:03:19.551Z</time></trkpt><trkpt lat="43.3384217" lon="10.6496983"><ele>32.0</ele><time>2026-04-18T14:03:20.552Z</time></trkpt><trkpt lat="43.33856" lon="10.6494033"><ele>32.0</ele><time>2026-04-18T14:03:21.551Z</time></trkpt><trkpt lat="43.3386883" lon="10.6490883"><ele>32.0</ele><time>2026-04-18T14:03:22.551Z</time></trkpt><trkpt lat="43.3388033" lon="10.6487583"><ele>32.0</ele><time>2026-04-18T14:03:23.551Z</time></trkpt><trkpt lat="43.3389083" lon="10.6484233"><ele>32.0</ele><time>2026-04-18T14:03:24.552Z</time></trkpt><trkpt lat="43.3391717" lon="10.6473967"><ele>32.0</ele><time>2026-04-18T14:03:27.552Z</time></trkpt><trkpt lat="43.3392483" lon="10.647055"><ele>32.0</ele><time>2026-04-18T14:03:28.551Z</time></trkpt><trkpt lat="43.3393283" lon="10.6467183"><ele>32.0</ele><time>2026-04-18T14:03:29.551Z</time></trkpt><trkpt lat="43.3394067" lon="10.6463967"><ele>32.0</ele><time>2026-04-18T14:03:30.551Z</time></trkpt><trkpt lat="43.3394717" lon="10.6460917"><ele>31.666666666666664</ele><time>2026-04-18T14:03:31.552Z</time></trkpt><trkpt lat="43.33954" lon="10.6458033"><ele>31.333333333333336</ele><time>2026-04-18T14:03:32.551Z</time></trkpt><trkpt lat="43.33961" lon="10.6455117"><ele>31.0</ele><time>2026-04-18T14:03:33.551Z</time></trkpt><trkpt lat="43.3396867" lon="10.6452167"><ele>31.0</ele><time>2026-04-18T14:03:34.552Z</time></trkpt><trkpt lat="43.3397567" lon="10.6449283"><ele>31.0</ele><time>2026-04-18T14:03:35.551Z</time></trkpt><trkpt lat="43.3398317" lon="10.64466"><ele>31.0</ele><time>2026-04-18T14:03:36.551Z</time></trkpt><trkpt lat="43.3399133" lon="10.6443833"><ele>31.0</ele><time>2026-04-18T14:03:37.551Z</time></trkpt><trkpt lat="43.3399917" lon="10.64411"><ele>31.0</ele><time>2026-04-18T14:03:38.551Z</time></trkpt><trkpt lat="43.340085" lon="10.643825"><ele>31.0</ele><time>2026-04-18T14:03:39.551Z</time></trkpt><trkpt lat="43.34019" lon="10.6435433"><ele>31.0</ele><time>2026-04-18T14:03:40.551Z</time></trkpt><trkpt lat="43.3403267" lon="10.6432717"><ele>31.0</ele><time>2026-04-18T14:03:41.551Z</time></trkpt><trkpt lat="43.3404833" lon="10.6430217"><ele>30.5</ele><time>2026-04-18T14:03:42.551Z</time></trkpt><trkpt lat="43.3406633" lon="10.6427683"><ele>30.0</ele><time>2026-04-18T14:03:43.551Z</time></trkpt><trkpt lat="43.3408567" lon="10.64253"><ele>30.0</ele><time>2026-04-18T14:03:44.551Z</time></trkpt><trkpt lat="43.3410633" lon="10.6422767"><ele>30.0</ele><time>2026-04-18T14:03:45.551Z</time></trkpt><trkpt lat="43.3412533" lon="10.6420483"><ele>31.333333333333336</ele><time>2026-04-18T14:03:46.551Z</time></trkpt><trkpt lat="43.341415" lon="10.6418633"><ele>32.66666666666667</ele><time>2026-04-18T14:03:47.551Z</time></trkpt><trkpt lat="43.3415567" lon="10.6416967"><ele>34.0</ele><time>2026-04-18T14:03:48.552Z</time></trkpt><trkpt lat="43.34169" lon="10.6415383"><ele>34.0</ele><time>2026-04-18T14:03:49.551Z</time></trkpt><trkpt lat="43.3418133" lon="10.6414017"><ele>34.0</ele><time>2026-04-18T14:03:50.551Z</time></trkpt><trkpt lat="43.341925" lon="10.64127"><ele>34.0</ele><time>2026-04-18T14:03:51.551Z</time></trkpt><trkpt lat="43.34203" lon="10.6411483"><ele>34.0</ele><time>2026-04-18T14:03:52.551Z</time></trkpt><trkpt lat="43.3421167" lon="10.64105"><ele>33.6</ele><time>2026-04-18T14:03:53.551Z</time></trkpt><trkpt lat="43.3421783" lon="10.6409783"><ele>33.2</ele><time>2026-04-18T14:03:54.551Z</time></trkpt><trkpt lat="43.3422483" lon="10.6408867"><ele>32.800000000000004</ele><time>2026-04-18T14:03:56.551Z</time></trkpt><trkpt lat="43.3421817" lon="10.6408267"><ele>32.4</ele><time>2026-04-18T14:04:01.551Z</time></trkpt><trkpt lat="43.34209" lon="10.6409567"><ele>32.0</ele><time>2026-04-18T14:04:03.551Z</time></trkpt><trkpt lat="43.342015" lon="10.641065"><ele>32.666666666666664</ele><time>2026-04-18T14:04:04.551Z</time></trkpt><trkpt lat="43.3419117" lon="10.6411933"><ele>33.333333333333336</ele><time>2026-04-18T14:04:05.551Z</time></trkpt><trkpt lat="43.3417917" lon="10.6413433"><ele>34.0</ele><time>2026-04-18T14:04:06.552Z</time></trkpt><trkpt lat="43.3416583" lon="10.6415033"><ele>34.0</ele><time>2026-04-18T14:04:07.551Z</time></trkpt><trkpt lat="43.3415117" lon="10.6416817"><ele>34.0</ele><time>2026-04-18T14:04:08.551Z</time></trkpt><trkpt lat="43.3413467" lon="10.6418767"><ele>34.0</ele><time>2026-04-18T14:04:09.551Z</time></trkpt><trkpt lat="43.34117" lon="10.6420917"><ele>32.0</ele><time>2026-04-18T14:04:10.551Z</time></trkpt><trkpt lat="43.3409883" lon="10.642315"><ele>30.0</ele><time>2026-04-18T14:04:11.552Z</time></trkpt><trkpt lat="43.3408167" lon="10.642535"><ele>30.0</ele><time>2026-04-18T14:04:12.552Z</time></trkpt><trkpt lat="43.3406533" lon="10.6427333"><ele>30.0</ele><time>2026-04-18T14:04:13.551Z</time></trkpt><trkpt lat="43.340505" lon="10.6429267"><ele>30.0</ele><time>2026-04-18T14:04:14.551Z</time></trkpt><trkpt lat="43.3403833" lon="10.6431083"><ele>30.333333333333336</ele><time>2026-04-18T14:04:15.552Z</time></trkpt><trkpt lat="43.3402817" lon="10.64328"><ele>30.666666666666668</ele><time>2026-04-18T14:04:16.551Z</time></trkpt><trkpt lat="43.3401933" lon="10.6434417"><ele>31.0</ele><time>2026-04-18T14:04:17.551Z</time></trkpt><trkpt lat="43.340115" lon="10.643605"><ele>31.166666666666668</ele><time>2026-04-18T14:04:18.551Z</time></trkpt><trkpt lat="43.340055" lon="10.6437617"><ele>31.333333333333336</ele><time>2026-04-18T14:04:19.551Z</time></trkpt><trkpt lat="43.3400183" lon="10.6438833"><ele>31.5</ele><time>2026-04-18T14:04:20.551Z</time></trkpt><trkpt lat="43.3400033" lon="10.6439817"><ele>31.666666666666664</ele><time>2026-04-18T14:04:21.552Z</time></trkpt><trkpt lat="43.34001" lon="10.6440733"><ele>31.833333333333332</ele><time>2026-04-18T14:04:22.551Z</time></trkpt><trkpt lat="43.3400333" lon="10.6441583"><ele>32.0</ele><time>2026-04-18T14:04:23.551Z</time></trkpt><trkpt lat="43.34007" lon="10.6442367"><ele>31.999999999999996</ele><time>2026-04-18T14:04:24.551Z</time></trkpt><trkpt lat="43.3401067" lon="10.6443267"><ele>32.0</ele><time>2026-04-18T14:04:25.551Z</time></trkpt><trkpt lat="43.34014" lon="10.6444383"><ele>32.0</ele><time>2026-04-18T14:04:26.551Z</time></trkpt><trkpt lat="43.34016" lon="10.644555"><ele>32.0</ele><time>2026-04-18T14:04:27.551Z</time></trkpt><trkpt lat="43.34017" lon="10.6446517"><ele>31.999999999999996</ele><time>2026-04-18T14:04:28.551Z</time></trkpt><trkpt lat="43.3401933" lon="10.6447583"><ele>32.0</ele><time>2026-04-18T14:04:30.551Z</time></trkpt><trkpt lat="43.34026" lon="10.6448083"><ele>31.666666666666664</ele><time>2026-04-18T14:04:32.551Z</time></trkpt><trkpt lat="43.3405017" lon="10.644935"><ele>31.333333333333336</ele><time>2026-04-18T14:04:35.551Z</time></trkpt><trkpt lat="43.340615" lon="10.645035"><ele>31.0</ele><time>2026-04-18T14:04:36.551Z</time></trkpt><trkpt lat="43.34072" lon="10.645145"><ele>31.4</ele><time>2026-04-18T14:04:37.552Z</time></trkpt><trkpt lat="43.3408183" lon="10.6452383"><ele>31.8</ele><time>2026-04-18T14:04:38.551Z</time></trkpt><trkpt lat="43.34091" lon="10.64533"><ele>32.199999999999996</ele><time>2026-04-18T14:04:39.551Z</time></trkpt><trkpt lat="43.3409933" lon="10.645405"><ele>32.6</ele><time>2026-04-18T14:04:40.551Z</time></trkpt><trkpt lat="43.3410733" lon="10.645485"><ele>33.0</ele><time>2026-04-18T14:04:41.551Z</time></trkpt><trkpt lat="43.3411683" lon="10.6455717"><ele>33.0</ele><time>2026-04-18T14:04:42.551Z</time></trkpt><trkpt lat="43.3412767" lon="10.64567"><ele>33.0</ele><time>2026-04-18T14:04:43.551Z</time></trkpt><trkpt lat="43.341395" lon="10.6457833"><ele>33.0</ele><time>2026-04-18T14:04:44.551Z</time></trkpt><trkpt lat="43.3415083" lon="10.645905"><ele>33.0</ele><time>2026-04-18T14:04:45.551Z</time></trkpt><trkpt lat="43.3416183" lon="10.6460083"><ele>32.75</ele><time>2026-04-18T14:04:46.551Z</time></trkpt><trkpt lat="43.34172" lon="10.6461017"><ele>32.5</ele><time>2026-04-18T14:04:47.551Z</time></trkpt><trkpt lat="43.3418067" lon="10.64618"><ele>32.25</ele><time>2026-04-18T14:04:48.551Z</time></trkpt><trkpt lat="43.3419033" lon="10.646255"><ele>32.0</ele><time>2026-04-18T14:04:49.551Z</time></trkpt><trkpt lat="43.342015" lon="10.64631"><ele>32.0</ele><time>2026-04-18T14:04:50.551Z</time></trkpt><trkpt lat="43.3421433" lon="10.646365"><ele>32.0</ele><time>2026-04-18T14:04:51.551Z</time></trkpt><trkpt lat="43.3422867" lon="10.6464183"><ele>32.0</ele><time>2026-04-18T14:04:52.551Z</time></trkpt><trkpt lat="43.3424333" lon="10.646465"><ele>32.0</ele><time>2026-04-18T14:04:53.551Z</time></trkpt><trkpt lat="43.342575" lon="10.6465133"><ele>33.0</ele><time>2026-04-18T14:04:54.551Z</time></trkpt><trkpt lat="43.3427083" lon="10.6465617"><ele>34.0</ele><time>2026-04-18T14:04:55.551Z</time></trkpt><trkpt lat="43.3428233" lon="10.6466033"><ele>35.0</ele><time>2026-04-18T14:04:56.551Z</time></trkpt><trkpt lat="43.3429283" lon="10.6466417"><ele>36.0</ele><time>2026-04-18T14:04:57.551Z</time></trkpt><trkpt lat="43.3430367" lon="10.6466717"><ele>36.75</ele><time>2026-04-18T14:04:58.551Z</time></trkpt><trkpt lat="43.3431617" lon="10.6466967"><ele>37.5</ele><time>2026-04-18T14:04:59.551Z</time></trkpt><trkpt lat="43.3433067" lon="10.6467083"><ele>38.25</ele><time>2026-04-18T14:05:00.551Z</time></trkpt><trkpt lat="43.343465" lon="10.6467117"><ele>39.0</ele><time>2026-04-18T14:05:01.551Z</time></trkpt><trkpt lat="43.343615" lon="10.6467167"><ele>39.0</ele><time>2026-04-18T14:05:02.551Z</time></trkpt><trkpt lat="43.343755" lon="10.6467267"><ele>39.0</ele><time>2026-04-18T14:05:03.551Z</time></trkpt><trkpt lat="43.3438933" lon="10.6467567"><ele>39.0</ele><time>2026-04-18T14:05:04.551Z</time></trkpt><trkpt lat="43.3440467" lon="10.6467967"><ele>39.0</ele><time>2026-04-18T14:05:05.551Z</time></trkpt><trkpt lat="43.34454" lon="10.6469283"><ele>39.0</ele><time>2026-04-18T14:05:08.551Z</time></trkpt><trkpt lat="43.3446967" lon="10.6469717"><ele>39.0</ele><time>2026-04-18T14:05:09.551Z</time></trkpt><trkpt lat="43.3448433" lon="10.647005"><ele>39.0</ele><time>2026-04-18T14:05:10.551Z</time></trkpt><trkpt lat="43.3449867" lon="10.6470467"><ele>39.0</ele><time>2026-04-18T14:05:11.551Z</time></trkpt><trkpt lat="43.3451217" lon="10.647095"><ele>39.0</ele><time>2026-04-18T14:05:12.551Z</time></trkpt><trkpt lat="43.3452517" lon="10.6471483"><ele>39.0</ele><time>2026-04-18T14:05:13.551Z</time></trkpt><trkpt lat="43.3453667" lon="10.6472"><ele>39.0</ele><time>2026-04-18T14:05:14.551Z</time></trkpt><trkpt lat="43.345455" lon="10.64723"><ele>39.8</ele><time>2026-04-18T14:05:15.551Z</time></trkpt><trkpt lat="43.3455583" lon="10.6472517"><ele>40.599999999999994</ele><time>2026-04-18T14:05:17.551Z</time></trkpt><trkpt lat="43.3456317" lon="10.6472433"><ele>41.4</ele><time>2026-04-18T14:05:19.551Z</time></trkpt><trkpt lat="43.3457583" lon="10.6472917"><ele>42.199999999999996</ele><time>2026-04-18T14:05:21.551Z</time></trkpt><trkpt lat="43.345845" lon="10.6473217"><ele>43.0</ele><time>2026-04-18T14:05:22.551Z</time></trkpt><trkpt lat="43.3459667" lon="10.6473583"><ele>43.0</ele><time>2026-04-18T14:05:23.552Z</time></trkpt><trkpt lat="43.3461033" lon="10.6474017"><ele>43.0</ele><time>2026-04-18T14:05:24.552Z</time></trkpt><trkpt lat="43.346245" lon="10.6474533"><ele>43.0</ele><time>2026-04-18T14:05:25.551Z</time></trkpt><trkpt lat="43.3463933" lon="10.647515"><ele>43.0</ele><time>2026-04-18T14:05:26.551Z</time></trkpt><trkpt lat="43.3465633" lon="10.6475733"><ele>42.66666666666667</ele><time>2026-04-18T14:05:27.552Z</time></trkpt><trkpt lat="43.3467417" lon="10.64763"><ele>42.333333333333336</ele><time>2026-04-18T14:05:28.551Z</time></trkpt><trkpt lat="43.3469267" lon="10.647695"><ele>42.0</ele><time>2026-04-18T14:05:29.551Z</time></trkpt><trkpt lat="43.347105" lon="10.6477683"><ele>41.0</ele><time>2026-04-18T14:05:30.551Z</time></trkpt><trkpt lat="43.3472917" lon="10.6478367"><ele>40.0</ele><time>2026-04-18T14:05:31.551Z</time></trkpt><trkpt lat="43.3474767" lon="10.6479167"><ele>39.0</ele><time>2026-04-18T14:05:32.551Z</time></trkpt><trkpt lat="43.347675" lon="10.6479917"><ele>39.0</ele><time>2026-04-18T14:05:33.551Z</time></trkpt><trkpt lat="43.3478717" lon="10.64807"><ele>39.0</ele><time>2026-04-18T14:05:34.551Z</time></trkpt><trkpt lat="43.3480717" lon="10.6481683"><ele>39.0</ele><time>2026-04-18T14:05:35.551Z</time></trkpt><trkpt lat="43.3482833" lon="10.648255"><ele>39.333333333333336</ele><time>2026-04-18T14:05:36.551Z</time></trkpt><trkpt lat="43.3484917" lon="10.648345"><ele>39.66666666666667</ele><time>2026-04-18T14:05:37.552Z</time></trkpt><trkpt lat="43.3487017" lon="10.6484267"><ele>40.0</ele><time>2026-04-18T14:05:38.551Z</time></trkpt><trkpt lat="43.3489083" lon="10.6485033"><ele>40.0</ele><time>2026-04-18T14:05:39.551Z</time></trkpt><trkpt lat="43.34939" lon="10.6487117"><ele>40.0</ele><time>2026-04-18T14:05:42.551Z</time></trkpt><trkpt lat="43.3495233" lon="10.6487617"><ele>40.0</ele><time>2026-04-18T14:05:43.551Z</time></trkpt><trkpt lat="43.34965" lon="10.6488167"><ele>40.0</ele><time>2026-04-18T14:05:44.551Z</time></trkpt><trkpt lat="43.34979" lon="10.648885"><ele>40.0</ele><time>2026-04-18T14:05:45.551Z</time></trkpt><trkpt lat="43.3499383" lon="10.64897"><ele>41.333333333333336</ele><time>2026-04-18T14:05:46.551Z</time></trkpt><trkpt lat="43.35011" lon="10.6490517"><ele>42.666666666666664</ele><time>2026-04-18T14:05:47.551Z</time></trkpt><trkpt lat="43.35028" lon="10.649145"><ele>44.0</ele><time>2026-04-18T14:05:48.551Z</time></trkpt><trkpt lat="43.3504667" lon="10.6492333"><ele>44.0</ele><time>2026-04-18T14:05:49.551Z</time></trkpt><trkpt lat="43.350655" lon="10.64933"><ele>44.0</ele><time>2026-04-18T14:05:50.552Z</time></trkpt><trkpt lat="43.350845" lon="10.6494217"><ele>44.0</ele><time>2026-04-18T14:05:51.551Z</time></trkpt><trkpt lat="43.3510317" lon="10.64951"><ele>44.33333333333333</ele><time>2026-04-18T14:05:52.551Z</time></trkpt><trkpt lat="43.3512083" lon="10.6496033"><ele>44.666666666666664</ele><time>2026-04-18T14:05:53.551Z</time></trkpt><trkpt lat="43.351395" lon="10.6496917"><ele>45.0</ele><time>2026-04-18T14:05:54.551Z</time></trkpt><trkpt lat="43.3515833" lon="10.6497867"><ele>45.0</ele><time>2026-04-18T14:05:55.551Z</time></trkpt><trkpt lat="43.3517767" lon="10.6498817"><ele>45.0</ele><time>2026-04-18T14:05:56.551Z</time></trkpt><trkpt lat="43.3519633" lon="10.6499867"><ele>45.0</ele><time>2026-04-18T14:05:57.552Z</time></trkpt><trkpt lat="43.3521633" lon="10.65009"><ele>45.333333333333336</ele><time>2026-04-18T14:05:58.551Z</time></trkpt><trkpt lat="43.3523583" lon="10.65019"><ele>45.66666666666667</ele><time>2026-04-18T14:05:59.55Z</time></trkpt><trkpt lat="43.35255" lon="10.6502867"><ele>46.0</ele><time>2026-04-18T14:06:00.55Z</time></trkpt><trkpt lat="43.35273" lon="10.6503783"><ele>46.0</ele><time>2026-04-18T14:06:01.55Z</time></trkpt><trkpt lat="43.3529083" lon="10.6504583"><ele>46.0</ele><time>2026-04-18T14:06:02.55Z</time></trkpt><trkpt lat="43.3530867" lon="10.65055"><ele>46.0</ele><time>2026-04-18T14:06:03.55Z</time></trkpt><trkpt lat="43.3532633" lon="10.6506333"><ele>46.66666666666667</ele><time>2026-04-18T14:06:04.55Z</time></trkpt><trkpt lat="43.3534283" lon="10.6507233"><ele>47.333333333333336</ele><time>2026-04-18T14:06:05.55Z</time></trkpt><trkpt lat="43.35357" lon="10.6508"><ele>48.0</ele><time>2026-04-18T14:06:06.55Z</time></trkpt><trkpt lat="43.3537017" lon="10.6508567"><ele>48.0</ele><time>2026-04-18T14:06:07.55Z</time></trkpt><trkpt lat="43.3538317" lon="10.6509067"><ele>48.0</ele><time>2026-04-18T14:06:08.55Z</time></trkpt><trkpt lat="43.3539533" lon="10.6509533"><ele>48.0</ele><time>2026-04-18T14:06:09.55Z</time></trkpt><trkpt lat="43.3540833" lon="10.6510017"><ele>48.0</ele><time>2026-04-18T14:06:10.55Z</time></trkpt><trkpt lat="43.3542183" lon="10.6510467"><ele>48.33333333333333</ele><time>2026-04-18T14:06:11.55Z</time></trkpt><trkpt lat="43.3543483" lon="10.651095"><ele>48.666666666666664</ele><time>2026-04-18T14:06:12.55Z</time></trkpt><trkpt lat="43.3544883" lon="10.6511367"><ele>49.0</ele><time>2026-04-18T14:06:13.55Z</time></trkpt><trkpt lat="43.3549183" lon="10.6512733"><ele>49.5</ele><time>2026-04-18T14:06:16.55Z</time></trkpt><trkpt lat="43.3550617" lon="10.6513217"><ele>50.0</ele><time>2026-04-18T14:06:17.55Z</time></trkpt><trkpt lat="43.3551917" lon="10.6513733"><ele>50.5</ele><time>2026-04-18T14:06:18.55Z</time></trkpt><trkpt lat="43.3553133" lon="10.6514117"><ele>51.0</ele><time>2026-04-18T14:06:19.55Z</time></trkpt><trkpt lat="43.3554183" lon="10.6514533"><ele>51.0</ele><time>2026-04-18T14:06:20.55Z</time></trkpt><trkpt lat="43.355515" lon="10.65149"><ele>51.0</ele><time>2026-04-18T14:06:21.55Z</time></trkpt><trkpt lat="43.3556083" lon="10.6515233"><ele>51.0</ele><time>2026-04-18T14:06:22.55Z</time></trkpt><trkpt lat="43.3556967" lon="10.651555"><ele>51.0</ele><time>2026-04-18T14:06:23.55Z</time></trkpt><trkpt lat="43.3557817" lon="10.6515733"><ele>51.0</ele><time>2026-04-18T14:06:24.551Z</time></trkpt><trkpt lat="43.3558633" lon="10.6515983"><ele>52.0</ele><time>2026-04-18T14:06:25.55Z</time></trkpt><trkpt lat="43.355955" lon="10.6516283"><ele>53.0</ele><time>2026-04-18T14:06:26.55Z</time></trkpt><trkpt lat="43.3560433" lon="10.651655"><ele>53.99999999999999</ele><time>2026-04-18T14:06:27.55Z</time></trkpt><trkpt lat="43.356135" lon="10.6516817"><ele>55.0</ele><time>2026-04-18T14:06:28.55Z</time></trkpt><trkpt lat="43.35624" lon="10.65173"><ele>56.0</ele><time>2026-04-18T14:06:29.55Z</time></trkpt><trkpt lat="43.35634" lon="10.6518"><ele>55.75</ele><time>2026-04-18T14:06:30.55Z</time></trkpt><trkpt lat="43.35645" lon="10.651885"><ele>55.5</ele><time>2026-04-18T14:06:31.55Z</time></trkpt><trkpt lat="43.3565683" lon="10.6519633"><ele>55.25</ele><time>2026-04-18T14:06:32.55Z</time></trkpt><trkpt lat="43.356685" lon="10.65204"><ele>55.0</ele><time>2026-04-18T14:06:33.55Z</time></trkpt><trkpt lat="43.356805" lon="10.65211"><ele>55.0</ele><time>2026-04-18T14:06:34.551Z</time></trkpt><trkpt lat="43.35692" lon="10.6521883"><ele>55.0</ele><time>2026-04-18T14:06:35.55Z</time></trkpt><trkpt lat="43.357035" lon="10.6522683"><ele>55.0</ele><time>2026-04-18T14:06:36.55Z</time></trkpt><trkpt lat="43.3571517" lon="10.6523433"><ele>55.0</ele><time>2026-04-18T14:06:37.55Z</time></trkpt><trkpt lat="43.35726" lon="10.6524167"><ele>56.0</ele><time>2026-04-18T14:06:38.551Z</time></trkpt><trkpt lat="43.3573567" lon="10.652485"><ele>57.0</ele><time>2026-04-18T14:06:39.55Z</time></trkpt><trkpt lat="43.3574567" lon="10.6525583"><ele>58.0</ele><time>2026-04-18T14:06:40.55Z</time></trkpt><trkpt lat="43.3575567" lon="10.6526183"><ele>59.0</ele><time>2026-04-18T14:06:41.55Z</time></trkpt><trkpt lat="43.3576533" lon="10.6526733"><ele>60.0</ele><time>2026-04-18T14:06:42.55Z</time></trkpt><trkpt lat="43.3577567" lon="10.652725"><ele>60.0</ele><time>2026-04-18T14:06:43.55Z</time></trkpt><trkpt lat="43.357865" lon="10.6527767"><ele>60.0</ele><time>2026-04-18T14:06:44.551Z</time></trkpt><trkpt lat="43.3579817" lon="10.652825"><ele>60.0</ele><time>2026-04-18T14:06:45.55Z</time></trkpt><trkpt lat="43.358105" lon="10.65287"><ele>60.0</ele><time>2026-04-18T14:06:46.55Z</time></trkpt><trkpt lat="43.3585" lon="10.6529433"><ele>60.2</ele><time>2026-04-18T14:06:49.55Z</time></trkpt><trkpt lat="43.358625" lon="10.65296"><ele>60.4</ele><time>2026-04-18T14:06:50.55Z</time></trkpt><trkpt lat="43.3587283" lon="10.6529717"><ele>60.599999999999994</ele><time>2026-04-18T14:06:51.55Z</time></trkpt><trkpt lat="43.3588283" lon="10.6529917"><ele>60.8</ele><time>2026-04-18T14:06:52.55Z</time></trkpt><trkpt lat="43.3589367" lon="10.6530083"><ele>61.0</ele><time>2026-04-18T14:06:53.55Z</time></trkpt><trkpt lat="43.359045" lon="10.6530483"><ele>61.0</ele><time>2026-04-18T14:06:54.551Z</time></trkpt><trkpt lat="43.3591533" lon="10.6531067"><ele>61.0</ele><time>2026-04-18T14:06:55.55Z</time></trkpt><trkpt lat="43.3592683" lon="10.6531683"><ele>61.0</ele><time>2026-04-18T14:06:56.55Z</time></trkpt><trkpt lat="43.35938" lon="10.6532233"><ele>61.0</ele><time>2026-04-18T14:06:57.55Z</time></trkpt><trkpt lat="43.3594883" lon="10.653265"><ele>61.0</ele><time>2026-04-18T14:06:58.55Z</time></trkpt><trkpt lat="43.3595967" lon="10.6533"><ele>60.99999999999999</ele><time>2026-04-18T14:06:59.55Z</time></trkpt><trkpt lat="43.3597017" lon="10.6533233"><ele>60.99999999999999</ele><time>2026-04-18T14:07:00.55Z</time></trkpt><trkpt lat="43.359805" lon="10.6533417"><ele>61.0</ele><time>2026-04-18T14:07:01.55Z</time></trkpt><trkpt lat="43.359915" lon="10.6533533"><ele>61.0</ele><time>2026-04-18T14:07:02.55Z</time></trkpt><trkpt lat="43.3600233" lon="10.6533717"><ele>61.5</ele><time>2026-04-18T14:07:03.55Z</time></trkpt><trkpt lat="43.36013" lon="10.6533983"><ele>62.0</ele><time>2026-04-18T14:07:04.55Z</time></trkpt><trkpt lat="43.36024" lon="10.6534383"><ele>62.5</ele><time>2026-04-18T14:07:05.55Z</time></trkpt><trkpt lat="43.3603517" lon="10.6534933"><ele>63.0</ele><time>2026-04-18T14:07:06.55Z</time></trkpt><trkpt lat="43.3604633" lon="10.6535533"><ele>63.2</ele><time>2026-04-18T14:07:07.55Z</time></trkpt><trkpt lat="43.3605717" lon="10.6536083"><ele>63.4</ele><time>2026-04-18T14:07:08.55Z</time></trkpt><trkpt lat="43.3606833" lon="10.653655"><ele>63.60000000000001</ele><time>2026-04-18T14:07:09.55Z</time></trkpt><trkpt lat="43.3607867" lon="10.65371"><ele>63.800000000000004</ele><time>2026-04-18T14:07:10.55Z</time></trkpt><trkpt lat="43.36088" lon="10.6537533"><ele>64.0</ele><time>2026-04-18T14:07:11.55Z</time></trkpt><trkpt lat="43.3609767" lon="10.653785"><ele>64.0</ele><time>2026-04-18T14:07:12.55Z</time></trkpt><trkpt lat="43.361065" lon="10.6538317"><ele>64.0</ele><time>2026-04-18T14:07:13.55Z</time></trkpt><trkpt lat="43.36114" lon="10.6538967"><ele>64.0</ele><time>2026-04-18T14:07:14.55Z</time></trkpt><trkpt lat="43.3612217" lon="10.65398"><ele>64.0</ele><time>2026-04-18T14:07:15.55Z</time></trkpt><trkpt lat="43.3613067" lon="10.6540583"><ele>64.0</ele><time>2026-04-18T14:07:16.55Z</time></trkpt><trkpt lat="43.361395" lon="10.654135"><ele>65.0</ele><time>2026-04-18T14:07:17.551Z</time></trkpt><trkpt lat="43.3614733" lon="10.6542317"><ele>66.0</ele><time>2026-04-18T14:07:18.55Z</time></trkpt><trkpt lat="43.36154" lon="10.654325"><ele>67.0</ele><time>2026-04-18T14:07:19.55Z</time></trkpt><trkpt lat="43.3615983" lon="10.6544283"><ele>68.0</ele><time>2026-04-18T14:07:20.55Z</time></trkpt><trkpt lat="43.3617767" lon="10.6546583"><ele>68.0</ele><time>2026-04-18T14:07:23.55Z</time></trkpt><trkpt lat="43.3618467" lon="10.654705"><ele>68.0</ele><time>2026-04-18T14:07:24.55Z</time></trkpt><trkpt lat="43.3619217" lon="10.654735"><ele>68.0</ele><time>2026-04-18T14:07:25.55Z</time></trkpt><trkpt lat="43.3620033" lon="10.654755"><ele>68.0</ele><time>2026-04-18T14:07:26.55Z</time></trkpt><trkpt lat="43.3620917" lon="10.65479"><ele>68.0</ele><time>2026-04-18T14:07:27.55Z</time></trkpt><trkpt lat="43.3621817" lon="10.6548283"><ele>68.0</ele><time>2026-04-18T14:07:28.55Z</time></trkpt><trkpt lat="43.36227" lon="10.654875"><ele>70.6</ele><time>2026-04-18T14:07:29.55Z</time></trkpt><trkpt lat="43.36235" lon="10.6549133"><ele>73.19999999999999</ele><time>2026-04-18T14:07:30.55Z</time></trkpt><trkpt lat="43.362435" lon="10.654925"><ele>75.8</ele><time>2026-04-18T14:07:31.55Z</time></trkpt><trkpt lat="43.362525" lon="10.6549183"><ele>78.39999999999999</ele><time>2026-04-18T14:07:32.55Z</time></trkpt><trkpt lat="43.3626217" lon="10.654905"><ele>81.0</ele><time>2026-04-18T14:07:33.55Z</time></trkpt><trkpt lat="43.3627233" lon="10.654895"><ele>81.0</ele><time>2026-04-18T14:07:34.55Z</time></trkpt><trkpt lat="43.3628133" lon="10.6548917"><ele>81.0</ele><time>2026-04-18T14:07:35.55Z</time></trkpt><trkpt lat="43.362895" lon="10.6549"><ele>81.0</ele><time>2026-04-18T14:07:36.55Z</time></trkpt><trkpt lat="43.3629683" lon="10.654945"><ele>81.0</ele><time>2026-04-18T14:07:37.55Z</time></trkpt><trkpt lat="43.3630367" lon="10.6550067"><ele>81.0</ele><time>2026-04-18T14:07:38.55Z</time></trkpt><trkpt lat="43.363105" lon="10.6550967"><ele>81.0</ele><time>2026-04-18T14:07:39.55Z</time></trkpt><trkpt lat="43.363155" lon="10.6551617"><ele>82.33333333333333</ele><time>2026-04-18T14:07:40.55Z</time></trkpt><trkpt lat="43.3632667" lon="10.6552017"><ele>83.66666666666667</ele><time>2026-04-18T14:07:42.55Z</time></trkpt><trkpt lat="43.3633333" lon="10.6552033"><ele>85.0</ele><time>2026-04-18T14:07:43.55Z</time></trkpt><trkpt lat="43.3634083" lon="10.6552067"><ele>86.33333333333334</ele><time>2026-04-18T14:07:44.55Z</time></trkpt><trkpt lat="43.3634867" lon="10.6552233"><ele>87.66666666666667</ele><time>2026-04-18T14:07:45.55Z</time></trkpt><trkpt lat="43.3635583" lon="10.6552517"><ele>89.0</ele><time>2026-04-18T14:07:46.551Z</time></trkpt><trkpt lat="43.3636617" lon="10.6552833"><ele>89.0</ele><time>2026-04-18T14:07:48.55Z</time></trkpt><trkpt lat="43.36374" lon="10.65523"><ele>89.0</ele><time>2026-04-18T14:07:50.551Z</time></trkpt><trkpt lat="43.3637617" lon="10.6551017"><ele>89.0</ele><time>2026-04-18T14:07:52.55Z</time></trkpt><trkpt lat="43.3636233" lon="10.6547833"><ele>88.99999999999999</ele><time>2026-04-18T14:07:56.55Z</time></trkpt><trkpt lat="43.36358" lon="10.6547033"><ele>89.0</ele><time>2026-04-18T14:07:57.55Z</time></trkpt><trkpt lat="43.3635433" lon="10.6546183"><ele>89.0</ele><time>2026-04-18T14:07:58.55Z</time></trkpt><trkpt lat="43.3635017" lon="10.65453"><ele>89.0</ele><time>2026-04-18T14:07:59.55Z</time></trkpt><trkpt lat="43.3634617" lon="10.6544583"><ele>89.0</ele><time>2026-04-18T14:08:00.55Z</time></trkpt><trkpt lat="43.3634183" lon="10.6543933"><ele>88.99999999999999</ele><time>2026-04-18T14:08:01.55Z</time></trkpt><trkpt lat="43.3633567" lon="10.6543517"><ele>89.0</ele><time>2026-04-18T14:08:02.55Z</time></trkpt><trkpt lat="43.3632633" lon="10.6542883"><ele>90.66666666666667</ele><time>2026-04-18T14:08:04.551Z</time></trkpt><trkpt lat="43.3632533" lon="10.6541983"><ele>92.33333333333334</ele><time>2026-04-18T14:08:08.55Z</time></trkpt><trkpt lat="43.3633417" lon="10.6541867"><ele>94.0</ele><time>2026-04-18T14:08:12.55Z</time></trkpt><trkpt lat="43.3634317" lon="10.654225"><ele>95.66666666666667</ele><time>2026-04-18T14:08:14.551Z</time></trkpt><trkpt lat="43.363495" lon="10.654245"><ele>97.33333333333333</ele><time>2026-04-18T14:08:15.55Z</time></trkpt><trkpt lat="43.363575" lon="10.6542633"><ele>99.0</ele><time>2026-04-18T14:08:16.55Z</time></trkpt><trkpt lat="43.3636617" lon="10.65429"><ele>99.0</ele><time>2026-04-18T14:08:17.55Z</time></trkpt><trkpt lat="43.3637517" lon="10.6543133"><ele>99.0</ele><time>2026-04-18T14:08:18.55Z</time></trkpt><trkpt lat="43.36384" lon="10.6543517"><ele>99.0</ele><time>2026-04-18T14:08:19.55Z</time></trkpt><trkpt lat="43.3639267" lon="10.654405"><ele>99.0</ele><time>2026-04-18T14:08:20.55Z</time></trkpt><trkpt lat="43.3640117" lon="10.65447"><ele>99.0</ele><time>2026-04-18T14:08:21.55Z</time></trkpt><trkpt lat="43.36409" lon="10.6545433"><ele>99.6</ele><time>2026-04-18T14:08:22.55Z</time></trkpt><trkpt lat="43.36416" lon="10.6546267"><ele>100.2</ele><time>2026-04-18T14:08:23.55Z</time></trkpt><trkpt lat="43.36423" lon="10.6547133"><ele>100.8</ele><time>2026-04-18T14:08:24.55Z</time></trkpt><trkpt lat="43.3643" lon="10.65479"><ele>101.39999999999999</ele><time>2026-04-18T14:08:25.55Z</time></trkpt><trkpt lat="43.3643783" lon="10.6548383"><ele>102.0</ele><time>2026-04-18T14:08:26.55Z</time></trkpt><trkpt lat="43.364645" lon="10.6549483"><ele>103.83333333333333</ele><time>2026-04-18T14:08:29.551Z</time></trkpt><trkpt lat="43.36474" lon="10.6549717"><ele>105.66666666666666</ele><time>2026-04-18T14:08:30.55Z</time></trkpt><trkpt lat="43.3648383" lon="10.654995"><ele>107.5</ele><time>2026-04-18T14:08:31.55Z</time></trkpt><trkpt lat="43.364915" lon="10.655025"><ele>109.33333333333333</ele><time>2026-04-18T14:08:32.55Z</time></trkpt><trkpt lat="43.3649867" lon="10.6550467"><ele>111.16666666666666</ele><time>2026-04-18T14:08:33.55Z</time></trkpt><trkpt lat="43.365055" lon="10.6550567"><ele>113.0</ele><time>2026-04-18T14:08:34.55Z</time></trkpt><trkpt lat="43.365135" lon="10.6550367"><ele>113.0</ele><time>2026-04-18T14:08:35.55Z</time></trkpt><trkpt lat="43.36521" lon="10.654995"><ele>113.00000000000001</ele><time>2026-04-18T14:08:36.551Z</time></trkpt><trkpt lat="43.365295" lon="10.654955"><ele>113.00000000000001</ele><time>2026-04-18T14:08:37.55Z</time></trkpt><trkpt lat="43.36539" lon="10.654915"><ele>113.0</ele><time>2026-04-18T14:08:38.55Z</time></trkpt><trkpt lat="43.3655017" lon="10.654875"><ele>113.0</ele><time>2026-04-18T14:08:39.55Z</time></trkpt><trkpt lat="43.36561" lon="10.6548383"><ele>113.0</ele><time>2026-04-18T14:08:40.55Z</time></trkpt><trkpt lat="43.3657167" lon="10.6548117"><ele>113.00000000000001</ele><time>2026-04-18T14:08:41.55Z</time></trkpt><trkpt lat="43.365805" lon="10.6548033"><ele>113.00000000000001</ele><time>2026-04-18T14:08:42.55Z</time></trkpt><trkpt lat="43.3658867" lon="10.654805"><ele>113.0</ele><time>2026-04-18T14:08:43.55Z</time></trkpt><trkpt lat="43.365955" lon="10.6548167"><ele>113.0</ele><time>2026-04-18T14:08:44.55Z</time></trkpt><trkpt lat="43.3660617" lon="10.6548083"><ele>112.99999999999999</ele><time>2026-04-18T14:08:46.55Z</time></trkpt><trkpt lat="43.3661083" lon="10.65475"><ele>113.0</ele><time>2026-04-18T14:08:47.55Z</time></trkpt><trkpt lat="43.366165" lon="10.6546267"><ele>113.0</ele><time>2026-04-18T14:08:49.55Z</time></trkpt><trkpt lat="43.3661717" lon="10.654515"><ele>113.0</ele><time>2026-04-18T14:08:51.55Z</time></trkpt><trkpt lat="43.3661817" lon="10.6543533"><ele>112.99999999999999</ele><time>2026-04-18T14:08:53.55Z</time></trkpt><trkpt lat="43.3661967" lon="10.6542633"><ele>113.0</ele><time>2026-04-18T14:08:54.55Z</time></trkpt><trkpt lat="43.3662233" lon="10.6541683"><ele>115.80000000000001</ele><time>2026-04-18T14:08:55.55Z</time></trkpt><trkpt lat="43.3662517" lon="10.65408"><ele>118.60000000000001</ele><time>2026-04-18T14:08:56.55Z</time></trkpt><trkpt lat="43.3662833" lon="10.6539933"><ele>121.39999999999999</ele><time>2026-04-18T14:08:57.55Z</time></trkpt><trkpt lat="43.3663117" lon="10.6539033"><ele>124.19999999999999</ele><time>2026-04-18T14:08:58.55Z</time></trkpt><trkpt lat="43.36634" lon="10.6538"><ele>127.0</ele><time>2026-04-18T14:08:59.55Z</time></trkpt><trkpt lat="43.3664467" lon="10.653415"><ele>127.6</ele><time>2026-04-18T14:09:03.55Z</time></trkpt><trkpt lat="43.3664917" lon="10.653345"><ele>128.2</ele><time>2026-04-18T14:09:04.55Z</time></trkpt><trkpt lat="43.3665717" lon="10.6532867"><ele>128.8</ele><time>2026-04-18T14:09:06.551Z</time></trkpt><trkpt lat="43.3666667" lon="10.6532917"><ele>129.4</ele><time>2026-04-18T14:09:08.551Z</time></trkpt><trkpt lat="43.3668067" lon="10.6532933"><ele>130.0</ele><time>2026-04-18T14:09:10.55Z</time></trkpt><trkpt lat="43.366895" lon="10.653285"><ele>130.0</ele><time>2026-04-18T14:09:11.55Z</time></trkpt><trkpt lat="43.36699" lon="10.6532783"><ele>130.0</ele><time>2026-04-18T14:09:12.55Z</time></trkpt><trkpt lat="43.3670967" lon="10.65326"><ele>130.0</ele><time>2026-04-18T14:09:13.55Z</time></trkpt><trkpt lat="43.3671917" lon="10.65324"><ele>130.0</ele><time>2026-04-18T14:09:14.55Z</time></trkpt><trkpt lat="43.3672767" lon="10.6532167"><ele>130.0</ele><time>2026-04-18T14:09:15.55Z</time></trkpt><trkpt lat="43.367355" lon="10.65319"><ele>129.6</ele><time>2026-04-18T14:09:16.551Z</time></trkpt><trkpt lat="43.3674417" lon="10.6531583"><ele>129.2</ele><time>2026-04-18T14:09:17.55Z</time></trkpt><trkpt lat="43.367535" lon="10.65313"><ele>128.8</ele><time>2026-04-18T14:09:18.55Z</time></trkpt><trkpt lat="43.3676317" lon="10.65311"><ele>128.4</ele><time>2026-04-18T14:09:19.55Z</time></trkpt><trkpt lat="43.367715" lon="10.6530817"><ele>128.0</ele><time>2026-04-18T14:09:20.55Z</time></trkpt><trkpt lat="43.3677933" lon="10.65305"><ele>128.0</ele><time>2026-04-18T14:09:21.55Z</time></trkpt><trkpt lat="43.3678667" lon="10.6530383"><ele>128.0</ele><time>2026-04-18T14:09:22.55Z</time></trkpt><trkpt lat="43.3679417" lon="10.653055"><ele>128.0</ele><time>2026-04-18T14:09:23.55Z</time></trkpt><trkpt lat="43.3680217" lon="10.6530717"><ele>128.0</ele><time>2026-04-18T14:09:24.549Z</time></trkpt><trkpt lat="43.3681367" lon="10.653065"><ele>128.0</ele><time>2026-04-18T14:09:26.549Z</time></trkpt><trkpt lat="43.36823" lon="10.65295"><ele>129.33333333333331</ele><time>2026-04-18T14:09:28.549Z</time></trkpt><trkpt lat="43.368285" lon="10.65282"><ele>130.66666666666666</ele><time>2026-04-18T14:09:30.55Z</time></trkpt><trkpt lat="43.36836" lon="10.6527"><ele>132.0</ele><time>2026-04-18T14:09:32.549Z</time></trkpt><trkpt lat="43.3685933" lon="10.6524983"><ele>133.0</ele><time>2026-04-18T14:09:36.549Z</time></trkpt><trkpt lat="43.3687" lon="10.6524933"><ele>134.0</ele><time>2026-04-18T14:09:38.55Z</time></trkpt><trkpt lat="43.3687933" lon="10.652555"><ele>135.0</ele><time>2026-04-18T14:09:40.549Z</time></trkpt><trkpt lat="43.3688367" lon="10.6526267"><ele>136.0</ele><time>2026-04-18T14:09:41.549Z</time></trkpt><trkpt lat="43.3688817" lon="10.6527133"><ele>137.0</ele><time>2026-04-18T14:09:42.549Z</time></trkpt><trkpt lat="43.368935" lon="10.6527983"><ele>138.0</ele><time>2026-04-18T14:09:43.549Z</time></trkpt><trkpt lat="43.3689933" lon="10.6528667"><ele>138.0</ele><time>2026-04-18T14:09:44.549Z</time></trkpt><trkpt lat="43.3690567" lon="10.65292"><ele>138.0</ele><time>2026-04-18T14:09:45.549Z</time></trkpt><trkpt lat="43.3691333" lon="10.65295"><ele>138.0</ele><time>2026-04-18T14:09:46.549Z</time></trkpt><trkpt lat="43.3692117" lon="10.65297"><ele>138.0</ele><time>2026-04-18T14:09:47.549Z</time></trkpt><trkpt lat="43.3692933" lon="10.65297"><ele>138.0</ele><time>2026-04-18T14:09:48.549Z</time></trkpt><trkpt lat="43.3693783" lon="10.6529583"><ele>138.0</ele><time>2026-04-18T14:09:49.549Z</time></trkpt><trkpt lat="43.3694667" lon="10.6529383"><ele>138.0</ele><time>2026-04-18T14:09:50.55Z</time></trkpt><trkpt lat="43.3695583" lon="10.652915"><ele>138.0</ele><time>2026-04-18T14:09:51.549Z</time></trkpt><trkpt lat="43.3696417" lon="10.65289"><ele>138.0</ele><time>2026-04-18T14:09:52.549Z</time></trkpt><trkpt lat="43.36973" lon="10.6528583"><ele>138.0</ele><time>2026-04-18T14:09:53.549Z</time></trkpt><trkpt lat="43.3698183" lon="10.6528233"><ele>138.0</ele><time>2026-04-18T14:09:54.549Z</time></trkpt><trkpt lat="43.3699" lon="10.6527783"><ele>141.83333333333334</ele><time>2026-04-18T14:09:55.549Z</time></trkpt><trkpt lat="43.3699667" lon="10.6527317"><ele>145.66666666666666</ele><time>2026-04-18T14:09:56.55Z</time></trkpt><trkpt lat="43.370025" lon="10.652685"><ele>149.5</ele><time>2026-04-18T14:09:57.549Z</time></trkpt><trkpt lat="43.3701367" lon="10.6526317"><ele>153.33333333333331</ele><time>2026-04-18T14:09:59.55Z</time></trkpt><trkpt lat="43.3702017" lon="10.6526333"><ele>157.16666666666666</ele><time>2026-04-18T14:10:00.549Z</time></trkpt><trkpt lat="43.3702767" lon="10.652645"><ele>161.0</ele><time>2026-04-18T14:10:01.549Z</time></trkpt><trkpt lat="43.37035" lon="10.6526567"><ele>161.0</ele><time>2026-04-18T14:10:02.549Z</time></trkpt><trkpt lat="43.3704417" lon="10.652675"><ele>161.0</ele><time>2026-04-18T14:10:03.549Z</time></trkpt><trkpt lat="43.3705333" lon="10.6526833"><ele>161.0</ele><time>2026-04-18T14:10:04.549Z</time></trkpt><trkpt lat="43.370615" lon="10.6526817"><ele>161.0</ele><time>2026-04-18T14:10:05.549Z</time></trkpt><trkpt lat="43.3706767" lon="10.6526517"><ele>161.0</ele><time>2026-04-18T14:10:06.549Z</time></trkpt><trkpt lat="43.3707367" lon="10.6526183"><ele>161.0</ele><time>2026-04-18T14:10:07.549Z</time></trkpt><trkpt lat="43.370885" lon="10.652465"><ele>160.16666666666666</ele><time>2026-04-18T14:10:10.549Z</time></trkpt><trkpt lat="43.3709467" lon="10.6524033"><ele>159.33333333333331</ele><time>2026-04-18T14:10:12.549Z</time></trkpt><trkpt lat="43.3709333" lon="10.65231"><ele>158.5</ele><time>2026-04-18T14:10:15.549Z</time></trkpt><trkpt lat="43.3708733" lon="10.6522633"><ele>157.66666666666666</ele><time>2026-04-18T14:10:17.55Z</time></trkpt><trkpt lat="43.3707967" lon="10.6522783"><ele>156.83333333333334</ele><time>2026-04-18T14:10:19.549Z</time></trkpt><trkpt lat="43.370715" lon="10.6522733"><ele>156.0</ele><time>2026-04-18T14:10:21.549Z</time></trkpt><trkpt lat="43.3706267" lon="10.6522467"><ele>156.0</ele><time>2026-04-18T14:10:23.549Z</time></trkpt><trkpt lat="43.3705367" lon="10.6521683"><ele>156.0</ele><time>2026-04-18T14:10:25.55Z</time></trkpt><trkpt lat="43.3704433" lon="10.652095"><ele>156.0</ele><time>2026-04-18T14:10:27.549Z</time></trkpt><trkpt lat="43.3703367" lon="10.6520517"><ele>156.0</ele><time>2026-04-18T14:10:29.549Z</time></trkpt><trkpt lat="43.3702217" lon="10.65206"><ele>156.0</ele><time>2026-04-18T14:10:31.549Z</time></trkpt><trkpt lat="43.3701" lon="10.6521117"><ele>156.2</ele><time>2026-04-18T14:10:33.55Z</time></trkpt><trkpt lat="43.370025" lon="10.6521333"><ele>156.39999999999998</ele><time>2026-04-18T14:10:34.549Z</time></trkpt><trkpt lat="43.36996" lon="10.6521467"><ele>156.6</ele><time>2026-04-18T14:10:35.55Z</time></trkpt><trkpt lat="43.3698433" lon="10.6521567"><ele>156.79999999999998</ele><time>2026-04-18T14:10:37.549Z</time></trkpt><trkpt lat="43.369765" lon="10.6521267"><ele>157.0</ele><time>2026-04-18T14:10:38.549Z</time></trkpt><trkpt lat="43.3696483" lon="10.6520633"><ele>159.25</ele><time>2026-04-18T14:10:40.549Z</time></trkpt><trkpt lat="43.36946" lon="10.6519117"><ele>161.5</ele><time>2026-04-18T14:10:43.549Z</time></trkpt><trkpt lat="43.3693867" lon="10.6518"><ele>163.75</ele><time>2026-04-18T14:10:45.549Z</time></trkpt><trkpt lat="43.3693517" lon="10.6516867"><ele>166.0</ele><time>2026-04-18T14:10:47.549Z</time></trkpt><trkpt lat="43.3693683" lon="10.6515333"><ele>166.0</ele><time>2026-04-18T14:10:49.549Z</time></trkpt><trkpt lat="43.3693833" lon="10.6514467"><ele>166.0</ele><time>2026-04-18T14:10:50.549Z</time></trkpt><trkpt lat="43.36944" lon="10.6512983"><ele>166.0</ele><time>2026-04-18T14:10:52.549Z</time></trkpt><trkpt lat="43.3694867" lon="10.6511833"><ele>166.0</ele><time>2026-04-18T14:10:53.549Z</time></trkpt><trkpt lat="43.369525" lon="10.6510917"><ele>166.0</ele><time>2026-04-18T14:10:54.55Z</time></trkpt><trkpt lat="43.3696133" lon="10.65097"><ele>166.57142857142856</ele><time>2026-04-18T14:10:56.549Z</time></trkpt><trkpt lat="43.3696667" lon="10.6509217"><ele>167.14285714285717</ele><time>2026-04-18T14:10:57.549Z</time></trkpt><trkpt lat="43.3697267" lon="10.650885"><ele>167.71428571428572</ele><time>2026-04-18T14:10:58.549Z</time></trkpt><trkpt lat="43.36979" lon="10.6508583"><ele>168.28571428571428</ele><time>2026-04-18T14:10:59.549Z</time></trkpt><trkpt lat="43.3698583" lon="10.650835"><ele>168.85714285714283</ele><time>2026-04-18T14:11:00.55Z</time></trkpt><trkpt lat="43.369925" lon="10.65082"><ele>169.42857142857144</ele><time>2026-04-18T14:11:01.55Z</time></trkpt><trkpt lat="43.3699983" lon="10.6508167"><ele>170.0</ele><time>2026-04-18T14:11:02.549Z</time></trkpt><trkpt lat="43.3700783" lon="10.6508367"><ele>171.33333333333331</ele><time>2026-04-18T14:11:03.549Z</time></trkpt><trkpt lat="43.3701633" lon="10.6508467"><ele>172.66666666666666</ele><time>2026-04-18T14:11:04.549Z</time></trkpt><trkpt lat="43.37025" lon="10.65086"><ele>174.0</ele><time>2026-04-18T14:11:05.549Z</time></trkpt><trkpt lat="43.370335" lon="10.650875"><ele>175.33333333333334</ele><time>2026-04-18T14:11:06.55Z</time></trkpt><trkpt lat="43.370405" lon="10.6508967"><ele>176.66666666666669</ele><time>2026-04-18T14:11:07.55Z</time></trkpt><trkpt lat="43.3705017" lon="10.65093"><ele>178.0</ele><time>2026-04-18T14:11:09.549Z</time></trkpt><trkpt lat="43.3705983" lon="10.6509033"><ele>178.0</ele><time>2026-04-18T14:11:12.549Z</time></trkpt><trkpt lat="43.3708483" lon="10.6506267"><ele>178.0</ele><time>2026-04-18T14:11:16.549Z</time></trkpt><trkpt lat="43.37092" lon="10.6505267"><ele>178.0</ele><time>2026-04-18T14:11:17.549Z</time></trkpt><trkpt lat="43.3709967" lon="10.65041"><ele>177.2</ele><time>2026-04-18T14:11:18.549Z</time></trkpt><trkpt lat="43.3710817" lon="10.6502883"><ele>176.4</ele><time>2026-04-18T14:11:19.549Z</time></trkpt><trkpt lat="43.3711667" lon="10.6501683"><ele>175.6</ele><time>2026-04-18T14:11:20.549Z</time></trkpt><trkpt lat="43.3712417" lon="10.650055"><ele>174.79999999999998</ele><time>2026-04-18T14:11:21.549Z</time></trkpt><trkpt lat="43.3713033" lon="10.6499733"><ele>174.0</ele><time>2026-04-18T14:11:22.55Z</time></trkpt><trkpt lat="43.3713633" lon="10.649895"><ele>174.5</ele><time>2026-04-18T14:11:23.55Z</time></trkpt><trkpt lat="43.3714217" lon="10.6498117"><ele>175.0</ele><time>2026-04-18T14:11:24.549Z</time></trkpt><trkpt lat="43.37147" lon="10.64973"><ele>175.5</ele><time>2026-04-18T14:11:25.549Z</time></trkpt><trkpt lat="43.3715117" lon="10.6496433"><ele>176.0</ele><time>2026-04-18T14:11:26.549Z</time></trkpt><trkpt lat="43.3715417" lon="10.6495567"><ele>176.5</ele><time>2026-04-18T14:11:27.549Z</time></trkpt><trkpt lat="43.3715617" lon="10.6493833"><ele>177.0</ele><time>2026-04-18T14:11:29.549Z</time></trkpt><trkpt lat="43.37157" lon="10.6492883"><ele>177.0</ele><time>2026-04-18T14:11:30.549Z</time></trkpt><trkpt lat="43.3715867" lon="10.6492033"><ele>177.0</ele><time>2026-04-18T14:11:31.549Z</time></trkpt><trkpt lat="43.3716483" lon="10.64909"><ele>177.0</ele><time>2026-04-18T14:11:33.549Z</time></trkpt><trkpt lat="43.3717433" lon="10.6490467"><ele>177.0</ele><time>2026-04-18T14:11:35.549Z</time></trkpt><trkpt lat="43.3718083" lon="10.64904"><ele>177.0</ele><time>2026-04-18T14:11:36.549Z</time></trkpt><trkpt lat="43.37189" lon="10.6490367"><ele>177.0</ele><time>2026-04-18T14:11:37.549Z</time></trkpt><trkpt lat="43.3719783" lon="10.64904"><ele>177.0</ele><time>2026-04-18T14:11:38.549Z</time></trkpt><trkpt lat="43.3720717" lon="10.6490333"><ele>177.0</ele><time>2026-04-18T14:11:39.55Z</time></trkpt><trkpt lat="43.3721717" lon="10.6490267"><ele>177.0</ele><time>2026-04-18T14:11:40.549Z</time></trkpt><trkpt lat="43.37229" lon="10.6490183"><ele>177.0</ele><time>2026-04-18T14:11:41.549Z</time></trkpt><trkpt lat="43.372405" lon="10.6490083"><ele>177.0</ele><time>2026-04-18T14:11:42.549Z</time></trkpt><trkpt lat="43.3725217" lon="10.6490083"><ele>177.25</ele><time>2026-04-18T14:11:43.549Z</time></trkpt><trkpt lat="43.3726467" lon="10.6490017"><ele>177.5</ele><time>2026-04-18T14:11:44.549Z</time></trkpt><trkpt lat="43.37277" lon="10.6489983"><ele>177.75</ele><time>2026-04-18T14:11:45.549Z</time></trkpt><trkpt lat="43.3728883" lon="10.648995"><ele>178.0</ele><time>2026-04-18T14:11:46.549Z</time></trkpt><trkpt lat="43.3730033" lon="10.6489883"><ele>178.66666666666669</ele><time>2026-04-18T14:11:47.55Z</time></trkpt><trkpt lat="43.373295" lon="10.648975"><ele>179.33333333333334</ele><time>2026-04-18T14:11:50.549Z</time></trkpt><trkpt lat="43.3733967" lon="10.648965"><ele>180.0</ele><time>2026-04-18T14:11:51.549Z</time></trkpt><trkpt lat="43.3735017" lon="10.6489583"><ele>180.0</ele><time>2026-04-18T14:11:52.549Z</time></trkpt><trkpt lat="43.3735933" lon="10.64895"><ele>180.0</ele><time>2026-04-18T14:11:53.549Z</time></trkpt><trkpt lat="43.3736767" lon="10.6489467"><ele>180.0</ele><time>2026-04-18T14:11:54.549Z</time></trkpt><trkpt lat="43.37375" lon="10.6489367"><ele>180.0</ele><time>2026-04-18T14:11:55.549Z</time></trkpt><trkpt lat="43.3738133" lon="10.6489317"><ele>180.0</ele><time>2026-04-18T14:11:56.55Z</time></trkpt><trkpt lat="43.3738817" lon="10.6489283"><ele>180.0</ele><time>2026-04-18T14:11:57.549Z</time></trkpt><trkpt lat="43.3739867" lon="10.648905"><ele>180.4</ele><time>2026-04-18T14:11:59.549Z</time></trkpt><trkpt lat="43.374105" lon="10.64885"><ele>180.8</ele><time>2026-04-18T14:12:01.55Z</time></trkpt><trkpt lat="43.374175" lon="10.6488033"><ele>181.2</ele><time>2026-04-18T14:12:02.549Z</time></trkpt><trkpt lat="43.3742467" lon="10.6487483"><ele>181.6</ele><time>2026-04-18T14:12:03.549Z</time></trkpt><trkpt lat="43.3743267" lon="10.64868"><ele>182.0</ele><time>2026-04-18T14:12:04.549Z</time></trkpt><trkpt lat="43.3744117" lon="10.6486067"><ele>182.0</ele><time>2026-04-18T14:12:05.549Z</time></trkpt><trkpt lat="43.3744967" lon="10.6485217"><ele>182.0</ele><time>2026-04-18T14:12:06.549Z</time></trkpt><trkpt lat="43.3745733" lon="10.6484533"><ele>182.0</ele><time>2026-04-18T14:12:07.549Z</time></trkpt><trkpt lat="43.37465" lon="10.6483833"><ele>182.0</ele><time>2026-04-18T14:12:08.549Z</time></trkpt><trkpt lat="43.3747233" lon="10.64831"><ele>182.0</ele><time>2026-04-18T14:12:09.549Z</time></trkpt><trkpt lat="43.37479" lon="10.6482483"><ele>181.16666666666666</ele><time>2026-04-18T14:12:10.549Z</time></trkpt><trkpt lat="43.3748567" lon="10.6481917"><ele>180.33333333333331</ele><time>2026-04-18T14:12:11.549Z</time></trkpt><trkpt lat="43.3749283" lon="10.64812"><ele>179.5</ele><time>2026-04-18T14:12:12.55Z</time></trkpt><trkpt lat="43.3750017" lon="10.64805"><ele>178.66666666666666</ele><time>2026-04-18T14:12:13.549Z</time></trkpt><trkpt lat="43.3750683" lon="10.6479783"><ele>177.83333333333334</ele><time>2026-04-18T14:12:14.55Z</time></trkpt><trkpt lat="43.3751283" lon="10.647925"><ele>177.0</ele><time>2026-04-18T14:12:15.549Z</time></trkpt><trkpt lat="43.37519" lon="10.6478817"><ele>177.0</ele><time>2026-04-18T14:12:16.549Z</time></trkpt><trkpt lat="43.37525" lon="10.6478467"><ele>177.0</ele><time>2026-04-18T14:12:17.549Z</time></trkpt><trkpt lat="43.3753217" lon="10.6478083"><ele>177.0</ele><time>2026-04-18T14:12:18.549Z</time></trkpt><trkpt lat="43.3753967" lon="10.6477817"><ele>177.0</ele><time>2026-04-18T14:12:19.549Z</time></trkpt><trkpt lat="43.375475" lon="10.64778"><ele>177.0</ele><time>2026-04-18T14:12:20.55Z</time></trkpt><trkpt lat="43.3755717" lon="10.6477967"><ele>177.0</ele><time>2026-04-18T14:12:21.549Z</time></trkpt><trkpt lat="43.3758633" lon="10.647825"><ele>176.83333333333334</ele><time>2026-04-18T14:12:24.549Z</time></trkpt><trkpt lat="43.37595" lon="10.6478417"><ele>176.66666666666666</ele><time>2026-04-18T14:12:25.549Z</time></trkpt><trkpt lat="43.3760317" lon="10.647855"><ele>176.5</ele><time>2026-04-18T14:12:26.549Z</time></trkpt><trkpt lat="43.3761083" lon="10.6478517"><ele>176.33333333333331</ele><time>2026-04-18T14:12:27.549Z</time></trkpt><trkpt lat="43.3761717" lon="10.6478567"><ele>176.16666666666666</ele><time>2026-04-18T14:12:28.55Z</time></trkpt><trkpt lat="43.3762783" lon="10.647805"><ele>176.0</ele><time>2026-04-18T14:12:30.549Z</time></trkpt><trkpt lat="43.3763783" lon="10.6477217"><ele>179.60000000000002</ele><time>2026-04-18T14:12:32.549Z</time></trkpt><trkpt lat="43.3765033" lon="10.647675"><ele>183.2</ele><time>2026-04-18T14:12:34.549Z</time></trkpt><trkpt lat="43.37658" lon="10.647675"><ele>186.8</ele><time>2026-04-18T14:12:35.549Z</time></trkpt><trkpt lat="43.37666" lon="10.6476817"><ele>190.39999999999998</ele><time>2026-04-18T14:12:36.549Z</time></trkpt><trkpt lat="43.376745" lon="10.6476933"><ele>194.0</ele><time>2026-04-18T14:12:37.549Z</time></trkpt><trkpt lat="43.376845" lon="10.6476967"><ele>194.0</ele><time>2026-04-18T14:12:38.549Z</time></trkpt><trkpt lat="43.3769483" lon="10.647685"><ele>194.0</ele><time>2026-04-18T14:12:39.549Z</time></trkpt><trkpt lat="43.3770567" lon="10.6476617"><ele>194.0</ele><time>2026-04-18T14:12:40.55Z</time></trkpt><trkpt lat="43.3771717" lon="10.6476417"><ele>194.0</ele><time>2026-04-18T14:12:41.549Z</time></trkpt><trkpt lat="43.3772883" lon="10.647625"><ele>194.0</ele><time>2026-04-18T14:12:42.549Z</time></trkpt><trkpt lat="43.377405" lon="10.6475867"><ele>193.33333333333334</ele><time>2026-04-18T14:12:43.549Z</time></trkpt><trkpt lat="43.3775017" lon="10.64757"><ele>192.66666666666669</ele><time>2026-04-18T14:12:44.549Z</time></trkpt><trkpt lat="43.377585" lon="10.6475483"><ele>192.0</ele><time>2026-04-18T14:12:45.549Z</time></trkpt><trkpt lat="43.37767" lon="10.6475333"><ele>191.33333333333334</ele><time>2026-04-18T14:12:46.549Z</time></trkpt><trkpt lat="43.3777433" lon="10.64751"><ele>190.66666666666669</ele><time>2026-04-18T14:12:47.548Z</time></trkpt><trkpt lat="43.3778167" lon="10.6474633"><ele>190.0</ele><time>2026-04-18T14:12:48.548Z</time></trkpt><trkpt lat="43.3778933" lon="10.6474033"><ele>190.0</ele><time>2026-04-18T14:12:49.548Z</time></trkpt><trkpt lat="43.3779633" lon="10.6473333"><ele>190.0</ele><time>2026-04-18T14:12:50.548Z</time></trkpt><trkpt lat="43.3780333" lon="10.6472533"><ele>190.0</ele><time>2026-04-18T14:12:51.548Z</time></trkpt><trkpt lat="43.3781067" lon="10.6471733"><ele>190.0</ele><time>2026-04-18T14:12:52.548Z</time></trkpt><trkpt lat="43.3781833" lon="10.6470933"><ele>190.0</ele><time>2026-04-18T14:12:53.548Z</time></trkpt><trkpt lat="43.37827" lon="10.6470033"><ele>192.0</ele><time>2026-04-18T14:12:54.548Z</time></trkpt><trkpt lat="43.3783517" lon="10.6469183"><ele>194.0</ele><time>2026-04-18T14:12:55.548Z</time></trkpt><trkpt lat="43.37854" lon="10.6466867"><ele>196.0</ele><time>2026-04-18T14:12:58.549Z</time></trkpt><trkpt lat="43.3786067" lon="10.646625"><ele>198.0</ele><time>2026-04-18T14:12:59.548Z</time></trkpt><trkpt lat="43.3786817" lon="10.646575"><ele>198.0</ele><time>2026-04-18T14:13:00.548Z</time></trkpt><trkpt lat="43.378775" lon="10.64653"><ele>198.0</ele><time>2026-04-18T14:13:01.548Z</time></trkpt><trkpt lat="43.3788733" lon="10.6464783"><ele>198.0</ele><time>2026-04-18T14:13:02.549Z</time></trkpt><trkpt lat="43.3789583" lon="10.6464267"><ele>198.0</ele><time>2026-04-18T14:13:03.548Z</time></trkpt><trkpt lat="43.3790417" lon="10.64638"><ele>198.0</ele><time>2026-04-18T14:13:04.548Z</time></trkpt><trkpt lat="43.3791283" lon="10.6463333"><ele>196.0</ele><time>2026-04-18T14:13:05.548Z</time></trkpt><trkpt lat="43.379225" lon="10.6463033"><ele>194.0</ele><time>2026-04-18T14:13:06.549Z</time></trkpt><trkpt lat="43.379315" lon="10.6462917"><ele>192.0</ele><time>2026-04-18T14:13:07.548Z</time></trkpt><trkpt lat="43.379395" lon="10.6462883"><ele>190.0</ele><time>2026-04-18T14:13:08.548Z</time></trkpt><trkpt lat="43.379465" lon="10.64628"><ele>188.0</ele><time>2026-04-18T14:13:09.548Z</time></trkpt><trkpt lat="43.3795417" lon="10.646245"><ele>186.0</ele><time>2026-04-18T14:13:10.548Z</time></trkpt><trkpt lat="43.37962" lon="10.64621"><ele>185.83333333333334</ele><time>2026-04-18T14:13:11.548Z</time></trkpt><trkpt lat="43.3797017" lon="10.6461683"><ele>185.66666666666666</ele><time>2026-04-18T14:13:12.548Z</time></trkpt><trkpt lat="43.3797783" lon="10.6461317"><ele>185.5</ele><time>2026-04-18T14:13:13.548Z</time></trkpt><trkpt lat="43.379855" lon="10.646095"><ele>185.33333333333331</ele><time>2026-04-18T14:13:14.548Z</time></trkpt><trkpt lat="43.3799433" lon="10.6460533"><ele>185.16666666666666</ele><time>2026-04-18T14:13:15.548Z</time></trkpt><trkpt lat="43.3800383" lon="10.6460167"><ele>185.0</ele><time>2026-04-18T14:13:16.549Z</time></trkpt><trkpt lat="43.38014" lon="10.6460033"><ele>186.5</ele><time>2026-04-18T14:13:17.548Z</time></trkpt><trkpt lat="43.38024" lon="10.6459933"><ele>188.0</ele><time>2026-04-18T14:13:18.548Z</time></trkpt><trkpt lat="43.3803383" lon="10.6459883"><ele>189.5</ele><time>2026-04-18T14:13:19.548Z</time></trkpt><trkpt lat="43.380425" lon="10.645965"><ele>191.0</ele><time>2026-04-18T14:13:20.548Z</time></trkpt><trkpt lat="43.380505" lon="10.64596"><ele>192.50000000000003</ele><time>2026-04-18T14:13:21.548Z</time></trkpt><trkpt lat="43.3805817" lon="10.6459617"><ele>194.0</ele><time>2026-04-18T14:13:22.548Z</time></trkpt><trkpt lat="43.3806933" lon="10.6459367"><ele>194.0</ele><time>2026-04-18T14:13:24.548Z</time></trkpt><trkpt lat="43.3807517" lon="10.6458883"><ele>194.0</ele><time>2026-04-18T14:13:25.548Z</time></trkpt><trkpt lat="43.3808117" lon="10.6458267"><ele>194.0</ele><time>2026-04-18T14:13:26.548Z</time></trkpt><trkpt lat="43.38086" lon="10.645755"><ele>194.0</ele><time>2026-04-18T14:13:27.548Z</time></trkpt><trkpt lat="43.3809083" lon="10.645665"><ele>194.0</ele><time>2026-04-18T14:13:28.548Z</time></trkpt><trkpt lat="43.3810167" lon="10.645425"><ele>194.00000000000003</ele><time>2026-04-18T14:13:31.548Z</time></trkpt><trkpt lat="43.38107" lon="10.6453317"><ele>194.0</ele><time>2026-04-18T14:13:33.548Z</time></trkpt><trkpt lat="43.3811433" lon="10.6453083"><ele>194.0</ele><time>2026-04-18T14:13:35.549Z</time></trkpt><trkpt lat="43.38122" lon="10.6453467"><ele>194.0</ele><time>2026-04-18T14:13:37.548Z</time></trkpt><trkpt lat="43.3813267" lon="10.6454283"><ele>194.00000000000003</ele><time>2026-04-18T14:13:39.548Z</time></trkpt><trkpt lat="43.3813917" lon="10.64548"><ele>194.0</ele><time>2026-04-18T14:13:40.548Z</time></trkpt><trkpt lat="43.38146" lon="10.6455233"><ele>193.79999999999998</ele><time>2026-04-18T14:13:41.548Z</time></trkpt><trkpt lat="43.3815283" lon="10.6455617"><ele>193.6</ele><time>2026-04-18T14:13:42.549Z</time></trkpt><trkpt lat="43.38165" lon="10.6455667"><ele>193.4</ele><time>2026-04-18T14:13:44.548Z</time></trkpt><trkpt lat="43.3817483" lon="10.6455017"><ele>193.2</ele><time>2026-04-18T14:13:46.548Z</time></trkpt><trkpt lat="43.3818333" lon="10.6453933"><ele>193.0</ele><time>2026-04-18T14:13:48.549Z</time></trkpt><trkpt lat="43.38191" lon="10.6452783"><ele>196.25</ele><time>2026-04-18T14:13:50.548Z</time></trkpt><trkpt lat="43.3819867" lon="10.645155"><ele>199.5</ele><time>2026-04-18T14:13:52.548Z</time></trkpt><trkpt lat="43.382065" lon="10.6450483"><ele>202.75</ele><time>2026-04-18T14:13:54.548Z</time></trkpt><trkpt lat="43.38215" lon="10.64497"><ele>206.0</ele><time>2026-04-18T14:13:56.548Z</time></trkpt><trkpt lat="43.38227" lon="10.6449233"><ele>206.4</ele><time>2026-04-18T14:13:58.548Z</time></trkpt><trkpt lat="43.3823383" lon="10.6448983"><ele>206.8</ele><time>2026-04-18T14:13:59.548Z</time></trkpt><trkpt lat="43.3824067" lon="10.6448717"><ele>207.20000000000002</ele><time>2026-04-18T14:14:00.548Z</time></trkpt><trkpt lat="43.3824733" lon="10.6448367"><ele>207.60000000000002</ele><time>2026-04-18T14:14:01.548Z</time></trkpt><trkpt lat="43.38254" lon="10.644785"><ele>208.0</ele><time>2026-04-18T14:14:02.548Z</time></trkpt><trkpt lat="43.38271" lon="10.64462"><ele>208.0</ele><time>2026-04-18T14:14:05.548Z</time></trkpt><trkpt lat="43.3827467" lon="10.6445217"><ele>208.0</ele><time>2026-04-18T14:14:06.548Z</time></trkpt><trkpt lat="43.3827817" lon="10.6443783"><ele>208.0</ele><time>2026-04-18T14:14:08.548Z</time></trkpt><trkpt lat="43.3828117" lon="10.64421"><ele>208.0</ele><time>2026-04-18T14:14:10.549Z</time></trkpt><trkpt lat="43.3828383" lon="10.64412"><ele>208.0</ele><time>2026-04-18T14:14:11.548Z</time></trkpt><trkpt lat="43.3828683" lon="10.64404"><ele>209.16666666666666</ele><time>2026-04-18T14:14:12.548Z</time></trkpt><trkpt lat="43.3829033" lon="10.643965"><ele>210.33333333333331</ele><time>2026-04-18T14:14:13.548Z</time></trkpt><trkpt lat="43.3829567" lon="10.6438667"><ele>211.5</ele><time>2026-04-18T14:14:15.548Z</time></trkpt><trkpt lat="43.3830383" lon="10.6438383"><ele>212.66666666666669</ele><time>2026-04-18T14:14:17.548Z</time></trkpt><trkpt lat="43.38315" lon="10.6438383"><ele>213.83333333333334</ele><time>2026-04-18T14:14:19.548Z</time></trkpt><trkpt lat="43.383245" lon="10.6438"><ele>215.0</ele><time>2026-04-18T14:14:21.548Z</time></trkpt><trkpt lat="43.3833183" lon="10.6437217"><ele>217.8</ele><time>2026-04-18T14:14:23.548Z</time></trkpt><trkpt lat="43.3833733" lon="10.643595"><ele>220.6</ele><time>2026-04-18T14:14:25.548Z</time></trkpt><trkpt lat="43.383405" lon="10.64352"><ele>223.39999999999998</ele><time>2026-04-18T14:14:26.549Z</time></trkpt><trkpt lat="43.3835017" lon="10.643405"><ele>226.2</ele><time>2026-04-18T14:14:28.548Z</time></trkpt><trkpt lat="43.3835583" lon="10.6433567"><ele>229.0</ele><time>2026-04-18T14:14:29.548Z</time></trkpt><trkpt lat="43.3836483" lon="10.6432567"><ele>228.99999999999997</ele><time>2026-04-18T14:14:31.548Z</time></trkpt><trkpt lat="43.3836867" lon="10.6431833"><ele>229.0</ele><time>2026-04-18T14:14:32.548Z</time></trkpt><trkpt lat="43.383715" lon="10.6431033"><ele>229.0</ele><time>2026-04-18T14:14:33.548Z</time></trkpt><trkpt lat="43.3837317" lon="10.6430083"><ele>229.0</ele><time>2026-04-18T14:14:34.548Z</time></trkpt><trkpt lat="43.3837567" lon="10.6429233"><ele>228.99999999999997</ele><time>2026-04-18T14:14:35.549Z</time></trkpt><trkpt lat="43.3838433" lon="10.642745"><ele>229.0</ele><time>2026-04-18T14:14:38.548Z</time></trkpt><trkpt lat="43.3839367" lon="10.642705"><ele>230.6</ele><time>2026-04-18T14:14:40.548Z</time></trkpt><trkpt lat="43.3840433" lon="10.6426683"><ele>232.2</ele><time>2026-04-18T14:14:42.548Z</time></trkpt><trkpt lat="43.384125" lon="10.6425967"><ele>233.79999999999998</ele><time>2026-04-18T14:14:44.548Z</time></trkpt><trkpt lat="43.3841917" lon="10.6424967"><ele>235.39999999999998</ele><time>2026-04-18T14:14:46.548Z</time></trkpt><trkpt lat="43.3842617" lon="10.6423783"><ele>237.0</ele><time>2026-04-18T14:14:48.549Z</time></trkpt><trkpt lat="43.3843667" lon="10.6422867"><ele>237.0</ele><time>2026-04-18T14:14:50.548Z</time></trkpt><trkpt lat="43.3844367" lon="10.64223"><ele>237.0</ele><time>2026-04-18T14:14:51.548Z</time></trkpt><trkpt lat="43.38451" lon="10.64218"><ele>237.0</ele><time>2026-04-18T14:14:52.548Z</time></trkpt><trkpt lat="43.3845767" lon="10.6421233"><ele>237.0</ele><time>2026-04-18T14:14:53.548Z</time></trkpt><trkpt lat="43.3846467" lon="10.6420683"><ele>237.0</ele><time>2026-04-18T14:14:54.548Z</time></trkpt><trkpt lat="43.3847217" lon="10.642005"><ele>237.0</ele><time>2026-04-18T14:14:55.548Z</time></trkpt><trkpt lat="43.3847867" lon="10.6419367"><ele>238.33333333333334</ele><time>2026-04-18T14:14:56.548Z</time></trkpt><trkpt lat="43.3848617" lon="10.6418667"><ele>239.66666666666669</ele><time>2026-04-18T14:14:57.548Z</time></trkpt><trkpt lat="43.3849333" lon="10.6417917"><ele>241.0</ele><time>2026-04-18T14:14:58.548Z</time></trkpt><trkpt lat="43.3850133" lon="10.641715"><ele>242.33333333333334</ele><time>2026-04-18T14:14:59.548Z</time></trkpt><trkpt lat="43.3850867" lon="10.6416467"><ele>243.66666666666669</ele><time>2026-04-18T14:15:00.549Z</time></trkpt><trkpt lat="43.3851533" lon="10.6415917"><ele>245.0</ele><time>2026-04-18T14:15:01.548Z</time></trkpt><trkpt lat="43.3852117" lon="10.6415417"><ele>245.0</ele><time>2026-04-18T14:15:02.548Z</time></trkpt><trkpt lat="43.3852667" lon="10.6414967"><ele>245.0</ele><time>2026-04-18T14:15:03.549Z</time></trkpt><trkpt lat="43.3853367" lon="10.6414167"><ele>245.0</ele><time>2026-04-18T14:15:05.548Z</time></trkpt><trkpt lat="43.3854183" lon="10.6413817"><ele>245.0</ele><time>2026-04-18T14:15:07.548Z</time></trkpt><trkpt lat="43.38549" lon="10.6414017"><ele>245.0</ele><time>2026-04-18T14:15:09.548Z</time></trkpt><trkpt lat="43.385625" lon="10.641515"><ele>246.0</ele><time>2026-04-18T14:15:12.548Z</time></trkpt><trkpt lat="43.3856817" lon="10.6415867"><ele>247.0</ele><time>2026-04-18T14:15:13.548Z</time></trkpt><trkpt lat="43.385725" lon="10.641655"><ele>248.0</ele><time>2026-04-18T14:15:14.548Z</time></trkpt><trkpt lat="43.3857533" lon="10.6417333"><ele>249.0</ele><time>2026-04-18T14:15:15.548Z</time></trkpt><trkpt lat="43.3857767" lon="10.641815"><ele>250.0</ele><time>2026-04-18T14:15:16.548Z</time></trkpt><trkpt lat="43.3857917" lon="10.6419117"><ele>251.0</ele><time>2026-04-18T14:15:17.549Z</time></trkpt><trkpt lat="43.385795" lon="10.6420017"><ele>252.0</ele><time>2026-04-18T14:15:18.548Z</time></trkpt><trkpt lat="43.385785" lon="10.6421067"><ele>252.0</ele><time>2026-04-18T14:15:19.548Z</time></trkpt><trkpt lat="43.3857667" lon="10.64222"><ele>252.0</ele><time>2026-04-18T14:15:20.548Z</time></trkpt><trkpt lat="43.385745" lon="10.6423433"><ele>252.0</ele><time>2026-04-18T14:15:21.548Z</time></trkpt><trkpt lat="43.385725" lon="10.6424567"><ele>252.0</ele><time>2026-04-18T14:15:22.548Z</time></trkpt><trkpt lat="43.3857117" lon="10.6425567"><ele>252.0</ele><time>2026-04-18T14:15:23.548Z</time></trkpt><trkpt lat="43.3857183" lon="10.64265"><ele>252.0</ele><time>2026-04-18T14:15:24.548Z</time></trkpt><trkpt lat="43.3857183" lon="10.6427417"><ele>252.0</ele><time>2026-04-18T14:15:25.548Z</time></trkpt><trkpt lat="43.38573" lon="10.642885"><ele>252.0</ele><time>2026-04-18T14:15:27.549Z</time></trkpt><trkpt lat="43.3857633" lon="10.6429733"><ele>252.0</ele><time>2026-04-18T14:15:28.548Z</time></trkpt><trkpt lat="43.3857983" lon="10.6430783"><ele>252.0</ele><time>2026-04-18T14:15:29.549Z</time></trkpt><trkpt lat="43.3858367" lon="10.6431683"><ele>252.0</ele><time>2026-04-18T14:15:30.548Z</time></trkpt><trkpt lat="43.385865" lon="10.6432483"><ele>252.0</ele><time>2026-04-18T14:15:31.548Z</time></trkpt><trkpt lat="43.3859233" lon="10.6433233"><ele>252.0</ele><time>2026-04-18T14:15:33.548Z</time></trkpt><trkpt lat="43.3860283" lon="10.64337"><ele>252.0</ele><time>2026-04-18T14:15:35.548Z</time></trkpt><trkpt lat="43.386095" lon="10.6433867"><ele>252.0</ele><time>2026-04-18T14:15:36.548Z</time></trkpt><trkpt lat="43.3861717" lon="10.6434"><ele>252.0</ele><time>2026-04-18T14:15:37.548Z</time></trkpt><trkpt lat="43.3862533" lon="10.64342"><ele>252.0</ele><time>2026-04-18T14:15:38.548Z</time></trkpt><trkpt lat="43.386335" lon="10.6434333"><ele>252.0</ele><time>2026-04-18T14:15:39.548Z</time></trkpt><trkpt lat="43.386425" lon="10.643455"><ele>254.66666666666669</ele><time>2026-04-18T14:15:40.548Z</time></trkpt><trkpt lat="43.3865233" lon="10.64347"><ele>257.33333333333337</ele><time>2026-04-18T14:15:41.548Z</time></trkpt><trkpt lat="43.386615" lon="10.6434817"><ele>260.0</ele><time>2026-04-18T14:15:42.548Z</time></trkpt><trkpt lat="43.3869817" lon="10.6435283"><ele>260.0</ele><time>2026-04-18T14:15:46.548Z</time></trkpt><trkpt lat="43.3870867" lon="10.6435433"><ele>260.0</ele><time>2026-04-18T14:15:47.548Z</time></trkpt><trkpt lat="43.3871883" lon="10.6435667"><ele>260.0</ele><time>2026-04-18T14:15:48.549Z</time></trkpt><trkpt lat="43.38729" lon="10.6435883"><ele>260.0</ele><time>2026-04-18T14:15:49.548Z</time></trkpt><trkpt lat="43.3873767" lon="10.64361"><ele>260.0</ele><time>2026-04-18T14:15:50.548Z</time></trkpt><trkpt lat="43.3874567" lon="10.64363"><ele>260.1666666666667</ele><time>2026-04-18T14:15:51.548Z</time></trkpt><trkpt lat="43.3875217" lon="10.643655"><ele>260.33333333333337</ele><time>2026-04-18T14:15:52.548Z</time></trkpt><trkpt lat="43.3876067" lon="10.6436917"><ele>260.5</ele><time>2026-04-18T14:15:54.548Z</time></trkpt><trkpt lat="43.387675" lon="10.6436"><ele>260.6666666666667</ele><time>2026-04-18T14:15:57.548Z</time></trkpt><trkpt lat="43.3877" lon="10.6434817"><ele>260.8333333333333</ele><time>2026-04-18T14:15:59.548Z</time></trkpt><trkpt lat="43.387705" lon="10.6433367"><ele>261.0</ele><time>2026-04-18T14:16:01.548Z</time></trkpt><trkpt lat="43.3877133" lon="10.6431583"><ele>262.3333333333333</ele><time>2026-04-18T14:16:03.548Z</time></trkpt><trkpt lat="43.38772" lon="10.6430433"><ele>263.6666666666667</ele><time>2026-04-18T14:16:04.549Z</time></trkpt><trkpt lat="43.3877283" lon="10.6429317"><ele>265.0</ele><time>2026-04-18T14:16:05.548Z</time></trkpt><trkpt lat="43.3877367" lon="10.642825"><ele>266.33333333333337</ele><time>2026-04-18T14:16:06.548Z</time></trkpt><trkpt lat="43.387745" lon="10.6426967"><ele>267.6666666666667</ele><time>2026-04-18T14:16:07.548Z</time></trkpt><trkpt lat="43.38775" lon="10.642565"><ele>269.0</ele><time>2026-04-18T14:16:08.548Z</time></trkpt><trkpt lat="43.3877567" lon="10.6424383"><ele>270.2</ele><time>2026-04-18T14:16:09.548Z</time></trkpt><trkpt lat="43.38776" lon="10.6423267"><ele>271.4</ele><time>2026-04-18T14:16:10.548Z</time></trkpt><trkpt lat="43.3877667" lon="10.6422317"><ele>272.6</ele><time>2026-04-18T14:16:11.548Z</time></trkpt><trkpt lat="43.387785" lon="10.64208"><ele>273.8</ele><time>2026-04-18T14:16:13.547Z</time></trkpt><trkpt lat="43.3878367" lon="10.6419817"><ele>275.0</ele><time>2026-04-18T14:16:15.547Z</time></trkpt><trkpt lat="43.3879317" lon="10.6419033"><ele>275.6666666666667</ele><time>2026-04-18T14:16:19.547Z</time></trkpt><trkpt lat="43.3880017" lon="10.64191"><ele>276.33333333333337</ele><time>2026-04-18T14:16:22.547Z</time></trkpt><trkpt lat="43.3880933" lon="10.64194"><ele>277.0</ele><time>2026-04-18T14:16:24.547Z</time></trkpt><trkpt lat="43.38819" lon="10.64197"><ele>277.6666666666667</ele><time>2026-04-18T14:16:26.547Z</time></trkpt><trkpt lat="43.38827" lon="10.64198"><ele>278.3333333333333</ele><time>2026-04-18T14:16:28.547Z</time></trkpt><trkpt lat="43.3883517" lon="10.642"><ele>279.0</ele><time>2026-04-18T14:16:32.548Z</time></trkpt><trkpt lat="43.3884367" lon="10.6420283"><ele>280.3333333333333</ele><time>2026-04-18T14:16:34.547Z</time></trkpt><trkpt lat="43.3885" lon="10.6420533"><ele>281.6666666666667</ele><time>2026-04-18T14:16:35.547Z</time></trkpt><trkpt lat="43.3885733" lon="10.642085"><ele>283.0</ele><time>2026-04-18T14:16:36.547Z</time></trkpt><trkpt lat="43.3886433" lon="10.6421017"><ele>284.33333333333337</ele><time>2026-04-18T14:16:37.547Z</time></trkpt><trkpt lat="43.3887717" lon="10.6421067"><ele>285.6666666666667</ele><time>2026-04-18T14:16:39.547Z</time></trkpt><trkpt lat="43.3888367" lon="10.6421017"><ele>287.0</ele><time>2026-04-18T14:16:40.547Z</time></trkpt><trkpt lat="43.3889567" lon="10.6420717"><ele>288.1666666666667</ele><time>2026-04-18T14:16:42.547Z</time></trkpt><trkpt lat="43.38902" lon="10.64205"><ele>289.33333333333337</ele><time>2026-04-18T14:16:43.548Z</time></trkpt><trkpt lat="43.38909" lon="10.6420183"><ele>290.5</ele><time>2026-04-18T14:16:44.548Z</time></trkpt><trkpt lat="43.3891667" lon="10.64199"><ele>291.6666666666667</ele><time>2026-04-18T14:16:45.548Z</time></trkpt><trkpt lat="43.3892433" lon="10.64195"><ele>292.8333333333333</ele><time>2026-04-18T14:16:46.547Z</time></trkpt><trkpt lat="43.38932" lon="10.641925"><ele>294.0</ele><time>2026-04-18T14:16:47.547Z</time></trkpt><trkpt lat="43.3894017" lon="10.6419033"><ele>297.75</ele><time>2026-04-18T14:16:48.547Z</time></trkpt><trkpt lat="43.3894783" lon="10.6419"><ele>301.5</ele><time>2026-04-18T14:16:49.548Z</time></trkpt><trkpt lat="43.3895517" lon="10.6418883"><ele>305.25</ele><time>2026-04-18T14:16:50.547Z</time></trkpt><trkpt lat="43.3898233" lon="10.64186"><ele>309.0</ele><time>2026-04-18T14:16:54.547Z</time></trkpt><trkpt lat="43.3898933" lon="10.64187"><ele>309.8333333333333</ele><time>2026-04-18T14:16:55.547Z</time></trkpt><trkpt lat="43.389965" lon="10.6418867"><ele>310.6666666666667</ele><time>2026-04-18T14:16:56.547Z</time></trkpt><trkpt lat="43.39004" lon="10.6419167"><ele>311.5</ele><time>2026-04-18T14:16:57.547Z</time></trkpt><trkpt lat="43.390125" lon="10.6419467"><ele>312.33333333333337</ele><time>2026-04-18T14:16:58.547Z</time></trkpt><trkpt lat="43.390205" lon="10.64198"><ele>313.1666666666667</ele><time>2026-04-18T14:16:59.547Z</time></trkpt><trkpt lat="43.3902783" lon="10.642"><ele>314.0</ele><time>2026-04-18T14:17:00.547Z</time></trkpt><trkpt lat="43.3903517" lon="10.6420083"><ele>312.83333333333337</ele><time>2026-04-18T14:17:01.547Z</time></trkpt><trkpt lat="43.39043" lon="10.64202"><ele>311.6666666666667</ele><time>2026-04-18T14:17:02.547Z</time></trkpt><trkpt lat="43.390515" lon="10.6420283"><ele>310.5</ele><time>2026-04-18T14:17:03.548Z</time></trkpt><trkpt lat="43.3905883" lon="10.6420333"><ele>309.3333333333333</ele><time>2026-04-18T14:17:04.547Z</time></trkpt><trkpt lat="43.3906683" lon="10.64203"><ele>308.16666666666663</ele><time>2026-04-18T14:17:05.548Z</time></trkpt><trkpt lat="43.3907367" lon="10.642025"><ele>307.0</ele><time>2026-04-18T14:17:06.547Z</time></trkpt><trkpt lat="43.3908017" lon="10.6420067"><ele>306.99999999999994</ele><time>2026-04-18T14:17:07.547Z</time></trkpt><trkpt lat="43.390865" lon="10.6419717"><ele>307.0</ele><time>2026-04-18T14:17:08.547Z</time></trkpt><trkpt lat="43.390935" lon="10.641915"><ele>307.0</ele><time>2026-04-18T14:17:09.547Z</time></trkpt><trkpt lat="43.39099" lon="10.64186"><ele>307.0</ele><time>2026-04-18T14:17:10.547Z</time></trkpt><trkpt lat="43.39106" lon="10.641825"><ele>307.0</ele><time>2026-04-18T14:17:11.547Z</time></trkpt><trkpt lat="43.391125" lon="10.6418033"><ele>306.99999999999994</ele><time>2026-04-18T14:17:12.547Z</time></trkpt><trkpt lat="43.39119" lon="10.64181"><ele>307.0</ele><time>2026-04-18T14:17:13.547Z</time></trkpt><trkpt lat="43.3912533" lon="10.6418317"><ele>307.4</ele><time>2026-04-18T14:17:14.547Z</time></trkpt><trkpt lat="43.39137" lon="10.6419033"><ele>307.79999999999995</ele><time>2026-04-18T14:17:16.547Z</time></trkpt><trkpt lat="43.3914783" lon="10.6419617"><ele>308.2</ele><time>2026-04-18T14:17:18.547Z</time></trkpt><trkpt lat="43.3915717" lon="10.6419683"><ele>308.59999999999997</ele><time>2026-04-18T14:17:20.547Z</time></trkpt><trkpt lat="43.3916833" lon="10.641965"><ele>309.0</ele><time>2026-04-18T14:17:22.548Z</time></trkpt><trkpt lat="43.3917517" lon="10.641965"><ele>309.0</ele><time>2026-04-18T14:17:23.547Z</time></trkpt><trkpt lat="43.3918317" lon="10.641965"><ele>309.0</ele><time>2026-04-18T14:17:24.547Z</time></trkpt><trkpt lat="43.392085" lon="10.6419733"><ele>309.0</ele><time>2026-04-18T14:17:27.547Z</time></trkpt><trkpt lat="43.39218" lon="10.641975"><ele>309.0</ele><time>2026-04-18T14:17:28.547Z</time></trkpt><trkpt lat="43.3922733" lon="10.6419667"><ele>313.2</ele><time>2026-04-18T14:17:29.547Z</time></trkpt><trkpt lat="43.3923517" lon="10.6419567"><ele>317.4</ele><time>2026-04-18T14:17:30.547Z</time></trkpt><trkpt lat="43.3924167" lon="10.6419433"><ele>321.6</ele><time>2026-04-18T14:17:31.547Z</time></trkpt><trkpt lat="43.392515" lon="10.6419067"><ele>325.8</ele><time>2026-04-18T14:17:33.547Z</time></trkpt><trkpt lat="43.3925933" lon="10.64181"><ele>330.0</ele><time>2026-04-18T14:17:35.547Z</time></trkpt><trkpt lat="43.3926517" lon="10.64169"><ele>330.0</ele><time>2026-04-18T14:17:37.547Z</time></trkpt><trkpt lat="43.3926933" lon="10.6415467"><ele>330.0</ele><time>2026-04-18T14:17:39.547Z</time></trkpt><trkpt lat="43.3927217" lon="10.6414333"><ele>330.0</ele><time>2026-04-18T14:17:41.547Z</time></trkpt><trkpt lat="43.39275" lon="10.64132"><ele>330.0</ele><time>2026-04-18T14:17:43.547Z</time></trkpt><trkpt lat="43.3927767" lon="10.64119"><ele>330.0</ele><time>2026-04-18T14:17:45.547Z</time></trkpt><trkpt lat="43.39282" lon="10.6410217"><ele>331.5</ele><time>2026-04-18T14:17:47.547Z</time></trkpt><trkpt lat="43.3928417" lon="10.6409317"><ele>333.0</ele><time>2026-04-18T14:17:48.547Z</time></trkpt><trkpt lat="43.3928683" lon="10.6408433"><ele>334.5</ele><time>2026-04-18T14:17:49.547Z</time></trkpt><trkpt lat="43.3928983" lon="10.6407417"><ele>336.0</ele><time>2026-04-18T14:17:50.547Z</time></trkpt><trkpt lat="43.3929267" lon="10.6406467"><ele>337.5</ele><time>2026-04-18T14:17:51.547Z</time></trkpt><trkpt lat="43.3929767" lon="10.6405"><ele>339.0</ele><time>2026-04-18T14:17:53.547Z</time></trkpt><trkpt lat="43.393065" lon="10.6404067"><ele>341.2</ele><time>2026-04-18T14:17:55.547Z</time></trkpt><trkpt lat="43.3931483" lon="10.6403817"><ele>343.4</ele><time>2026-04-18T14:17:57.547Z</time></trkpt><trkpt lat="43.393255" lon="10.6404383"><ele>345.6</ele><time>2026-04-18T14:18:00.547Z</time></trkpt><trkpt lat="43.3933217" lon="10.6405217"><ele>347.8</ele><time>2026-04-18T14:18:02.548Z</time></trkpt><trkpt lat="43.3934067" lon="10.6406517"><ele>350.0</ele><time>2026-04-18T14:18:04.547Z</time></trkpt><trkpt lat="43.3934567" lon="10.6407367"><ele>350.0</ele><time>2026-04-18T14:18:05.547Z</time></trkpt><trkpt lat="43.393525" lon="10.640835"><ele>350.0</ele><time>2026-04-18T14:18:06.547Z</time></trkpt><trkpt lat="43.3936" lon="10.6409317"><ele>350.0</ele><time>2026-04-18T14:18:07.547Z</time></trkpt><trkpt lat="43.3936767" lon="10.6410167"><ele>350.0</ele><time>2026-04-18T14:18:08.548Z</time></trkpt><trkpt lat="43.3937433" lon="10.6410883"><ele>350.0</ele><time>2026-04-18T14:18:09.547Z</time></trkpt><trkpt lat="43.3937917" lon="10.6411667"><ele>350.8</ele><time>2026-04-18T14:18:10.547Z</time></trkpt><trkpt lat="43.3938717" lon="10.64126"><ele>351.6</ele><time>2026-04-18T14:18:12.547Z</time></trkpt><trkpt lat="43.39394" lon="10.6412967"><ele>352.4</ele><time>2026-04-18T14:18:14.547Z</time></trkpt><trkpt lat="43.394025" lon="10.641295"><ele>353.2</ele><time>2026-04-18T14:18:16.547Z</time></trkpt><trkpt lat="43.3941533" lon="10.6412717"><ele>354.0</ele><time>2026-04-18T14:18:18.548Z</time></trkpt><trkpt lat="43.3942383" lon="10.6412533"><ele>354.0</ele><time>2026-04-18T14:18:19.547Z</time></trkpt><trkpt lat="43.3943333" lon="10.6412233"><ele>354.0</ele><time>2026-04-18T14:18:20.547Z</time></trkpt><trkpt lat="43.3944317" lon="10.6411967"><ele>354.0</ele><time>2026-04-18T14:18:21.547Z</time></trkpt><trkpt lat="43.394535" lon="10.64118"><ele>354.0</ele><time>2026-04-18T14:18:22.547Z</time></trkpt><trkpt lat="43.3946417" lon="10.6411567"><ele>354.0</ele><time>2026-04-18T14:18:23.547Z</time></trkpt><trkpt lat="43.3947517" lon="10.6411333"><ele>358.6</ele><time>2026-04-18T14:18:24.547Z</time></trkpt><trkpt lat="43.3948517" lon="10.641095"><ele>363.2</ele><time>2026-04-18T14:18:25.547Z</time></trkpt><trkpt lat="43.394935" lon="10.6410633"><ele>367.8</ele><time>2026-04-18T14:18:26.547Z</time></trkpt><trkpt lat="43.39502" lon="10.6410267"><ele>372.40000000000003</ele><time>2026-04-18T14:18:27.547Z</time></trkpt><trkpt lat="43.3951167" lon="10.64101"><ele>377.0</ele><time>2026-04-18T14:18:28.548Z</time></trkpt><trkpt lat="43.395215" lon="10.640995"><ele>377.0</ele><time>2026-04-18T14:18:29.547Z</time></trkpt><trkpt lat="43.3953267" lon="10.6409817"><ele>377.0</ele><time>2026-04-18T14:18:30.547Z</time></trkpt><trkpt lat="43.3954417" lon="10.6409717"><ele>377.0</ele><time>2026-04-18T14:18:31.547Z</time></trkpt><trkpt lat="43.3957367" lon="10.6409417"><ele>377.20000000000005</ele><time>2026-04-18T14:18:34.547Z</time></trkpt><trkpt lat="43.3958317" lon="10.6409233"><ele>377.4</ele><time>2026-04-18T14:18:35.547Z</time></trkpt><trkpt lat="43.3959267" lon="10.6409067"><ele>377.6</ele><time>2026-04-18T14:18:36.547Z</time></trkpt><trkpt lat="43.3960133" lon="10.6408983"><ele>377.79999999999995</ele><time>2026-04-18T14:18:37.547Z</time></trkpt><trkpt lat="43.3961067" lon="10.6408917"><ele>378.0</ele><time>2026-04-18T14:18:38.547Z</time></trkpt><trkpt lat="43.3961867" lon="10.640875"><ele>378.0</ele><time>2026-04-18T14:18:39.547Z</time></trkpt><trkpt lat="43.396265" lon="10.64085"><ele>378.0</ele><time>2026-04-18T14:18:40.547Z</time></trkpt><trkpt lat="43.39634" lon="10.6408233"><ele>378.0</ele><time>2026-04-18T14:18:41.547Z</time></trkpt><trkpt lat="43.3964167" lon="10.640805"><ele>378.0</ele><time>2026-04-18T14:18:42.547Z</time></trkpt><trkpt lat="43.3964867" lon="10.640785"><ele>378.0</ele><time>2026-04-18T14:18:43.547Z</time></trkpt><trkpt lat="43.3965583" lon="10.6407633"><ele>378.0</ele><time>2026-04-18T14:18:44.547Z</time></trkpt><trkpt lat="43.3966217" lon="10.6407483"><ele>378.0</ele><time>2026-04-18T14:18:45.547Z</time></trkpt><trkpt lat="43.39673" lon="10.6407417"><ele>377.59999999999997</ele><time>2026-04-18T14:18:47.547Z</time></trkpt><trkpt lat="43.3968533" lon="10.6407817"><ele>377.2</ele><time>2026-04-18T14:18:49.547Z</time></trkpt><trkpt lat="43.3969283" lon="10.6408083"><ele>376.8</ele><time>2026-04-18T14:18:50.547Z</time></trkpt><trkpt lat="43.39701" lon="10.6408417"><ele>376.4</ele><time>2026-04-18T14:18:51.548Z</time></trkpt><trkpt lat="43.3970917" lon="10.6408667"><ele>376.0</ele><time>2026-04-18T14:18:52.547Z</time></trkpt><trkpt lat="43.397185" lon="10.6408633"><ele>376.0</ele><time>2026-04-18T14:18:53.547Z</time></trkpt><trkpt lat="43.397265" lon="10.640885"><ele>376.0</ele><time>2026-04-18T14:18:54.547Z</time></trkpt><trkpt lat="43.3973533" lon="10.64091"><ele>376.0</ele><time>2026-04-18T14:18:55.547Z</time></trkpt><trkpt lat="43.39743" lon="10.64093"><ele>376.0</ele><time>2026-04-18T14:18:56.547Z</time></trkpt><trkpt lat="43.3975017" lon="10.6409367"><ele>376.0</ele><time>2026-04-18T14:18:57.547Z</time></trkpt><trkpt lat="43.397565" lon="10.6409383"><ele>376.0</ele><time>2026-04-18T14:18:58.547Z</time></trkpt><trkpt lat="43.3976433" lon="10.64093"><ele>376.0</ele><time>2026-04-18T14:18:59.547Z</time></trkpt><trkpt lat="43.3977133" lon="10.6409117"><ele>376.0</ele><time>2026-04-18T14:19:00.547Z</time></trkpt><trkpt lat="43.397785" lon="10.64088"><ele>376.0</ele><time>2026-04-18T14:19:01.548Z</time></trkpt><trkpt lat="43.3978517" lon="10.6408433"><ele>376.0</ele><time>2026-04-18T14:19:02.548Z</time></trkpt><trkpt lat="43.3979083" lon="10.640805"><ele>376.0</ele><time>2026-04-18T14:19:03.547Z</time></trkpt><trkpt lat="43.3979783" lon="10.6407567"><ele>376.0</ele><time>2026-04-18T14:19:04.547Z</time></trkpt><trkpt lat="43.3983217" lon="10.6406133"><ele>376.4</ele><time>2026-04-18T14:19:08.547Z</time></trkpt><trkpt lat="43.39842" lon="10.6406033"><ele>376.8</ele><time>2026-04-18T14:19:09.547Z</time></trkpt><trkpt lat="43.3985217" lon="10.640595"><ele>377.2</ele><time>2026-04-18T14:19:10.547Z</time></trkpt><trkpt lat="43.39862" lon="10.6405883"><ele>377.59999999999997</ele><time>2026-04-18T14:19:11.547Z</time></trkpt><trkpt lat="43.3987183" lon="10.64059"><ele>378.0</ele><time>2026-04-18T14:19:12.547Z</time></trkpt><trkpt lat="43.3988217" lon="10.64059"><ele>379.3333333333333</ele><time>2026-04-18T14:19:13.547Z</time></trkpt><trkpt lat="43.398905" lon="10.6406"><ele>380.66666666666663</ele><time>2026-04-18T14:19:14.547Z</time></trkpt><trkpt lat="43.3989783" lon="10.6406217"><ele>382.0</ele><time>2026-04-18T14:19:15.547Z</time></trkpt><trkpt lat="43.3990567" lon="10.6406417"><ele>383.3333333333333</ele><time>2026-04-18T14:19:16.547Z</time></trkpt><trkpt lat="43.399135" lon="10.64068"><ele>384.66666666666663</ele><time>2026-04-18T14:19:17.547Z</time></trkpt><trkpt lat="43.399215" lon="10.6407183"><ele>386.0</ele><time>2026-04-18T14:19:18.547Z</time></trkpt><trkpt lat="43.399305" lon="10.64076"><ele>386.0</ele><time>2026-04-18T14:19:19.547Z</time></trkpt><trkpt lat="43.3993867" lon="10.6408183"><ele>386.0</ele><time>2026-04-18T14:19:20.547Z</time></trkpt><trkpt lat="43.3994617" lon="10.6408867"><ele>386.0</ele><time>2026-04-18T14:19:21.547Z</time></trkpt><trkpt lat="43.399515" lon="10.6409433"><ele>386.0</ele><time>2026-04-18T14:19:22.547Z</time></trkpt><trkpt lat="43.3996117" lon="10.6410267"><ele>386.0</ele><time>2026-04-18T14:19:24.547Z</time></trkpt><trkpt lat="43.399705" lon="10.641065"><ele>385.99999999999994</ele><time>2026-04-18T14:19:26.547Z</time></trkpt><trkpt lat="43.39978" lon="10.6410867"><ele>386.0</ele><time>2026-04-18T14:19:28.547Z</time></trkpt><trkpt lat="43.3998467" lon="10.64103"><ele>386.0</ele><time>2026-04-18T14:19:31.548Z</time></trkpt><trkpt lat="43.3998" lon="10.6409333"><ele>386.0</ele><time>2026-04-18T14:19:34.547Z</time></trkpt><trkpt lat="43.3997083" lon="10.6408433"><ele>385.99999999999994</ele><time>2026-04-18T14:19:36.547Z</time></trkpt><trkpt lat="43.399655" lon="10.6407767"><ele>386.0</ele><time>2026-04-18T14:19:37.547Z</time></trkpt><trkpt lat="43.3996133" lon="10.64069"><ele>386.0</ele><time>2026-04-18T14:19:38.547Z</time></trkpt><trkpt lat="43.399585" lon="10.6403167"><ele>386.0</ele><time>2026-04-18T14:19:42.546Z</time></trkpt><trkpt lat="43.3995917" lon="10.64023"><ele>386.0</ele><time>2026-04-18T14:19:43.546Z</time></trkpt><trkpt lat="43.3995667" lon="10.6400617"><ele>387.8333333333333</ele><time>2026-04-18T14:19:45.546Z</time></trkpt><trkpt lat="43.3995533" lon="10.639965"><ele>389.66666666666663</ele><time>2026-04-18T14:19:46.547Z</time></trkpt><trkpt lat="43.399535" lon="10.6398717"><ele>391.5</ele><time>2026-04-18T14:19:47.546Z</time></trkpt><trkpt lat="43.3995183" lon="10.6397733"><ele>393.33333333333337</ele><time>2026-04-18T14:19:48.546Z</time></trkpt><trkpt lat="43.399495" lon="10.639675"><ele>395.1666666666667</ele><time>2026-04-18T14:19:49.546Z</time></trkpt><trkpt lat="43.399455" lon="10.639575"><ele>397.0</ele><time>2026-04-18T14:19:50.546Z</time></trkpt><trkpt lat="43.399425" lon="10.6394617"><ele>400.0</ele><time>2026-04-18T14:19:51.546Z</time></trkpt><trkpt lat="43.3993883" lon="10.6393367"><ele>403.0</ele><time>2026-04-18T14:19:52.546Z</time></trkpt><trkpt lat="43.3993533" lon="10.63922"><ele>406.0</ele><time>2026-04-18T14:19:53.546Z</time></trkpt><trkpt lat="43.3993067" lon="10.6391183"><ele>409.0</ele><time>2026-04-18T14:19:54.546Z</time></trkpt><trkpt lat="43.39925" lon="10.6390217"><ele>412.0</ele><time>2026-04-18T14:19:55.546Z</time></trkpt><trkpt lat="43.3992" lon="10.638925"><ele>412.00000000000006</ele><time>2026-04-18T14:19:56.546Z</time></trkpt><trkpt lat="43.39914" lon="10.6388367"><ele>412.0</ele><time>2026-04-18T14:19:57.546Z</time></trkpt><trkpt lat="43.3990683" lon="10.6387467"><ele>412.0</ele><time>2026-04-18T14:19:58.546Z</time></trkpt><trkpt lat="43.399" lon="10.6386717"><ele>412.0</ele><time>2026-04-18T14:19:59.546Z</time></trkpt><trkpt lat="43.398945" lon="10.6385983"><ele>412.00000000000006</ele><time>2026-04-18T14:20:00.546Z</time></trkpt><trkpt lat="43.3989083" lon="10.6385233"><ele>412.0</ele><time>2026-04-18T14:20:01.546Z</time></trkpt><trkpt lat="43.398875" lon="10.6383517"><ele>413.71428571428567</ele><time>2026-04-18T14:20:03.546Z</time></trkpt><trkpt lat="43.3988767" lon="10.6382633"><ele>415.42857142857144</ele><time>2026-04-18T14:20:04.546Z</time></trkpt><trkpt lat="43.3988783" lon="10.6381717"><ele>417.1428571428571</ele><time>2026-04-18T14:20:05.546Z</time></trkpt><trkpt lat="43.3988817" lon="10.63807"><ele>418.85714285714283</ele><time>2026-04-18T14:20:06.546Z</time></trkpt><trkpt lat="43.398885" lon="10.6379817"><ele>420.57142857142856</ele><time>2026-04-18T14:20:07.547Z</time></trkpt><trkpt lat="43.3988767" lon="10.637895"><ele>422.2857142857143</ele><time>2026-04-18T14:20:08.546Z</time></trkpt><trkpt lat="43.3988533" lon="10.6377383"><ele>424.0</ele><time>2026-04-18T14:20:10.547Z</time></trkpt><trkpt lat="43.3988167" lon="10.6375517"><ele>426.0</ele><time>2026-04-18T14:20:12.546Z</time></trkpt><trkpt lat="43.3987117" lon="10.6372"><ele>428.0</ele><time>2026-04-18T14:20:15.546Z</time></trkpt><trkpt lat="43.3986733" lon="10.637095"><ele>430.0</ele><time>2026-04-18T14:20:16.546Z</time></trkpt><trkpt lat="43.3986367" lon="10.6370017"><ele>432.0</ele><time>2026-04-18T14:20:17.547Z</time></trkpt><trkpt lat="43.3985933" lon="10.6369367"><ele>434.20000000000005</ele><time>2026-04-18T14:20:18.546Z</time></trkpt><trkpt lat="43.3985117" lon="10.636865"><ele>436.40000000000003</ele><time>2026-04-18T14:20:20.547Z</time></trkpt><trkpt lat="43.3984217" lon="10.6368017"><ele>438.59999999999997</ele><time>2026-04-18T14:20:22.547Z</time></trkpt><trkpt lat="43.3983167" lon="10.63673"><ele>440.79999999999995</ele><time>2026-04-18T14:20:24.546Z</time></trkpt><trkpt lat="43.3982583" lon="10.6366817"><ele>443.0</ele><time>2026-04-18T14:20:25.546Z</time></trkpt><trkpt lat="43.3981933" lon="10.63662"><ele>442.99999999999994</ele><time>2026-04-18T14:20:26.546Z</time></trkpt><trkpt lat="43.3981167" lon="10.6365533"><ele>443.0</ele><time>2026-04-18T14:20:27.546Z</time></trkpt><trkpt lat="43.3980467" lon="10.63649"><ele>443.0</ele><time>2026-04-18T14:20:28.546Z</time></trkpt><trkpt lat="43.39798" lon="10.6364317"><ele>443.0</ele><time>2026-04-18T14:20:29.546Z</time></trkpt><trkpt lat="43.3979167" lon="10.6363717"><ele>442.99999999999994</ele><time>2026-04-18T14:20:30.546Z</time></trkpt><trkpt lat="43.3978483" lon="10.6362933"><ele>443.0</ele><time>2026-04-18T14:20:31.546Z</time></trkpt><trkpt lat="43.39779" lon="10.6362183"><ele>446.0</ele><time>2026-04-18T14:20:32.546Z</time></trkpt><trkpt lat="43.397735" lon="10.6361167"><ele>448.99999999999994</ele><time>2026-04-18T14:20:33.546Z</time></trkpt><trkpt lat="43.3976783" lon="10.63601"><ele>451.99999999999994</ele><time>2026-04-18T14:20:34.546Z</time></trkpt><trkpt lat="43.39761" lon="10.6358867"><ele>455.0</ele><time>2026-04-18T14:20:35.546Z</time></trkpt><trkpt lat="43.3975567" lon="10.6357817"><ele>458.0</ele><time>2026-04-18T14:20:36.546Z</time></trkpt><trkpt lat="43.3975067" lon="10.635685"><ele>457.99999999999994</ele><time>2026-04-18T14:20:37.547Z</time></trkpt><trkpt lat="43.3974667" lon="10.6355883"><ele>458.0</ele><time>2026-04-18T14:20:38.546Z</time></trkpt><trkpt lat="43.3974317" lon="10.6354917"><ele>458.0</ele><time>2026-04-18T14:20:39.546Z</time></trkpt><trkpt lat="43.3974033" lon="10.6353933"><ele>458.0</ele><time>2026-04-18T14:20:40.546Z</time></trkpt><trkpt lat="43.3973767" lon="10.6352933"><ele>457.99999999999994</ele><time>2026-04-18T14:20:41.546Z</time></trkpt><trkpt lat="43.3973583" lon="10.6351867"><ele>458.0</ele><time>2026-04-18T14:20:42.546Z</time></trkpt><trkpt lat="43.3973567" lon="10.6350883"><ele>460.5</ele><time>2026-04-18T14:20:43.546Z</time></trkpt><trkpt lat="43.3973517" lon="10.6349817"><ele>463.0</ele><time>2026-04-18T14:20:44.546Z</time></trkpt><trkpt lat="43.3973433" lon="10.6348667"><ele>465.5</ele><time>2026-04-18T14:20:45.546Z</time></trkpt><trkpt lat="43.3973467" lon="10.6347517"><ele>468.0</ele><time>2026-04-18T14:20:46.546Z</time></trkpt><trkpt lat="43.3973767" lon="10.6343817"><ele>468.2</ele><time>2026-04-18T14:20:49.546Z</time></trkpt><trkpt lat="43.397385" lon="10.6342567"><ele>468.4</ele><time>2026-04-18T14:20:50.546Z</time></trkpt><trkpt lat="43.3974017" lon="10.6341367"><ele>468.59999999999997</ele><time>2026-04-18T14:20:51.546Z</time></trkpt><trkpt lat="43.3974267" lon="10.634015"><ele>468.79999999999995</ele><time>2026-04-18T14:20:52.546Z</time></trkpt><trkpt lat="43.3974517" lon="10.633885"><ele>469.0</ele><time>2026-04-18T14:20:53.547Z</time></trkpt><trkpt lat="43.3974783" lon="10.6337517"><ele>468.4</ele><time>2026-04-18T14:20:54.546Z</time></trkpt><trkpt lat="43.397505" lon="10.633605"><ele>467.79999999999995</ele><time>2026-04-18T14:20:55.546Z</time></trkpt><trkpt lat="43.3975317" lon="10.6334567"><ele>467.20000000000005</ele><time>2026-04-18T14:20:56.546Z</time></trkpt><trkpt lat="43.3975633" lon="10.633325"><ele>466.6</ele><time>2026-04-18T14:20:57.547Z</time></trkpt><trkpt lat="43.397585" lon="10.6332017"><ele>466.0</ele><time>2026-04-18T14:20:58.546Z</time></trkpt><trkpt lat="43.3976067" lon="10.633075"><ele>466.0</ele><time>2026-04-18T14:20:59.547Z</time></trkpt><trkpt lat="43.3976317" lon="10.6329383"><ele>466.0</ele><time>2026-04-18T14:21:00.546Z</time></trkpt><trkpt lat="43.3976617" lon="10.6327967"><ele>466.0</ele><time>2026-04-18T14:21:01.546Z</time></trkpt><trkpt lat="43.3976933" lon="10.63264"><ele>466.0</ele><time>2026-04-18T14:21:02.546Z</time></trkpt><trkpt lat="43.3977267" lon="10.632475"><ele>466.4</ele><time>2026-04-18T14:21:03.546Z</time></trkpt><trkpt lat="43.3977517" lon="10.6323083"><ele>466.8</ele><time>2026-04-18T14:21:04.546Z</time></trkpt><trkpt lat="43.39778" lon="10.6321583"><ele>467.19999999999993</ele><time>2026-04-18T14:21:05.547Z</time></trkpt><trkpt lat="43.3978" lon="10.6320333"><ele>467.59999999999997</ele><time>2026-04-18T14:21:06.546Z</time></trkpt><trkpt lat="43.3978217" lon="10.631935"><ele>468.0</ele><time>2026-04-18T14:21:07.546Z</time></trkpt><trkpt lat="43.3978517" lon="10.6318467"><ele>468.5</ele><time>2026-04-18T14:21:08.547Z</time></trkpt><trkpt lat="43.3978917" lon="10.6317583"><ele>469.0</ele><time>2026-04-18T14:21:09.546Z</time></trkpt><trkpt lat="43.39793" lon="10.6316617"><ele>469.5</ele><time>2026-04-18T14:21:10.546Z</time></trkpt><trkpt lat="43.3979683" lon="10.6315767"><ele>470.0</ele><time>2026-04-18T14:21:11.546Z</time></trkpt><trkpt lat="43.398015" lon="10.6314933"><ele>470.5</ele><time>2026-04-18T14:21:12.547Z</time></trkpt><trkpt lat="43.398065" lon="10.6314017"><ele>471.0</ele><time>2026-04-18T14:21:13.546Z</time></trkpt><trkpt lat="43.3981067" lon="10.63132"><ele>471.4</ele><time>2026-04-18T14:21:14.546Z</time></trkpt><trkpt lat="43.3981433" lon="10.6312417"><ele>471.8</ele><time>2026-04-18T14:21:15.547Z</time></trkpt><trkpt lat="43.3981817" lon="10.631165"><ele>472.19999999999993</ele><time>2026-04-18T14:21:16.546Z</time></trkpt><trkpt lat="43.39823" lon="10.631005"><ele>472.59999999999997</ele><time>2026-04-18T14:21:18.546Z</time></trkpt><trkpt lat="43.3982467" lon="10.630915"><ele>473.0</ele><time>2026-04-18T14:21:19.546Z</time></trkpt><trkpt lat="43.3982333" lon="10.6306367"><ele>473.99999999999994</ele><time>2026-04-18T14:21:22.546Z</time></trkpt><trkpt lat="43.3982183" lon="10.6305467"><ele>475.0</ele><time>2026-04-18T14:21:23.546Z</time></trkpt><trkpt lat="43.3982033" lon="10.630455"><ele>476.0</ele><time>2026-04-18T14:21:24.546Z</time></trkpt><trkpt lat="43.39817" lon="10.6302967"><ele>477.0</ele><time>2026-04-18T14:21:26.546Z</time></trkpt><trkpt lat="43.3981583" lon="10.6302083"><ele>477.99999999999994</ele><time>2026-04-18T14:21:27.546Z</time></trkpt><trkpt lat="43.3981567" lon="10.6301133"><ele>479.0</ele><time>2026-04-18T14:21:28.546Z</time></trkpt><trkpt lat="43.39816" lon="10.6300133"><ele>480.99999999999994</ele><time>2026-04-18T14:21:29.546Z</time></trkpt><trkpt lat="43.398165" lon="10.6298983"><ele>483.0</ele><time>2026-04-18T14:21:30.546Z</time></trkpt><trkpt lat="43.3981717" lon="10.6297817"><ele>485.0</ele><time>2026-04-18T14:21:31.546Z</time></trkpt><trkpt lat="43.3981767" lon="10.6296733"><ele>487.0</ele><time>2026-04-18T14:21:32.546Z</time></trkpt><trkpt lat="43.3981783" lon="10.629555"><ele>488.99999999999994</ele><time>2026-04-18T14:21:33.546Z</time></trkpt><trkpt lat="43.3981767" lon="10.6294383"><ele>491.0</ele><time>2026-04-18T14:21:34.546Z</time></trkpt><trkpt lat="43.3981817" lon="10.6293133"><ele>491.8</ele><time>2026-04-18T14:21:35.546Z</time></trkpt><trkpt lat="43.3981867" lon="10.62917"><ele>492.6</ele><time>2026-04-18T14:21:36.546Z</time></trkpt><trkpt lat="43.3981933" lon="10.6290233"><ele>493.4</ele><time>2026-04-18T14:21:37.546Z</time></trkpt><trkpt lat="43.3981917" lon="10.628865"><ele>494.2</ele><time>2026-04-18T14:21:38.546Z</time></trkpt><trkpt lat="43.3981767" lon="10.6287117"><ele>495.0</ele><time>2026-04-18T14:21:39.546Z</time></trkpt><trkpt lat="43.3981733" lon="10.6285667"><ele>495.4</ele><time>2026-04-18T14:21:40.546Z</time></trkpt><trkpt lat="43.3981717" lon="10.6284117"><ele>495.8</ele><time>2026-04-18T14:21:41.546Z</time></trkpt><trkpt lat="43.3981683" lon="10.62827"><ele>496.20000000000005</ele><time>2026-04-18T14:21:42.547Z</time></trkpt><trkpt lat="43.3981667" lon="10.62813"><ele>496.6</ele><time>2026-04-18T14:21:43.546Z</time></trkpt><trkpt lat="43.3981567" lon="10.6280133"><ele>497.0</ele><time>2026-04-18T14:21:44.545Z</time></trkpt><trkpt lat="43.398155" lon="10.6279033"><ele>497.8</ele><time>2026-04-18T14:21:45.546Z</time></trkpt><trkpt lat="43.3981567" lon="10.6278033"><ele>498.6</ele><time>2026-04-18T14:21:46.546Z</time></trkpt><trkpt lat="43.3981333" lon="10.6276517"><ele>499.40000000000003</ele><time>2026-04-18T14:21:48.546Z</time></trkpt><trkpt lat="43.3980817" lon="10.627475"><ele>500.20000000000005</ele><time>2026-04-18T14:21:50.546Z</time></trkpt><trkpt lat="43.3980467" lon="10.6273717"><ele>501.0</ele><time>2026-04-18T14:21:51.546Z</time></trkpt><trkpt lat="43.39801" lon="10.6272517"><ele>503.0</ele><time>2026-04-18T14:21:52.546Z</time></trkpt><trkpt lat="43.3979683" lon="10.6269667"><ele>505.0</ele><time>2026-04-18T14:21:55.547Z</time></trkpt><trkpt lat="43.3979983" lon="10.6268333"><ele>507.0</ele><time>2026-04-18T14:21:57.546Z</time></trkpt><trkpt lat="43.3980683" lon="10.6267167"><ele>509.0</ele><time>2026-04-18T14:21:59.546Z</time></trkpt><trkpt lat="43.398165" lon="10.6266033"><ele>509.3333333333333</ele><time>2026-04-18T14:22:01.546Z</time></trkpt><trkpt lat="43.3982183" lon="10.6265483"><ele>509.66666666666663</ele><time>2026-04-18T14:22:02.546Z</time></trkpt><trkpt lat="43.3982833" lon="10.6264883"><ele>510.0</ele><time>2026-04-18T14:22:03.546Z</time></trkpt><trkpt lat="43.398355" lon="10.6264167"><ele>510.33333333333337</ele><time>2026-04-18T14:22:04.546Z</time></trkpt><trkpt lat="43.3984233" lon="10.6263533"><ele>510.6666666666667</ele><time>2026-04-18T14:22:05.547Z</time></trkpt><trkpt lat="43.3984817" lon="10.62629"><ele>511.0</ele><time>2026-04-18T14:22:06.547Z</time></trkpt><trkpt lat="43.3985583" lon="10.6261883"><ele>513.2</ele><time>2026-04-18T14:22:08.546Z</time></trkpt><trkpt lat="43.398585" lon="10.6260783"><ele>515.4000000000001</ele><time>2026-04-18T14:22:10.547Z</time></trkpt><trkpt lat="43.3985833" lon="10.6259817"><ele>517.6</ele><time>2026-04-18T14:22:12.546Z</time></trkpt><trkpt lat="43.3985617" lon="10.6258517"><ele>519.8000000000001</ele><time>2026-04-18T14:22:15.546Z</time></trkpt><trkpt lat="43.3985367" lon="10.625725"><ele>522.0</ele><time>2026-04-18T14:22:17.546Z</time></trkpt><trkpt lat="43.3984933" lon="10.6255583"><ele>522.0</ele><time>2026-04-18T14:22:19.547Z</time></trkpt><trkpt lat="43.3984633" lon="10.62547"><ele>522.0</ele><time>2026-04-18T14:22:20.546Z</time></trkpt><trkpt lat="43.398445" lon="10.625385"><ele>522.0</ele><time>2026-04-18T14:22:21.546Z</time></trkpt><trkpt lat="43.39842" lon="10.6252967"><ele>522.0</ele><time>2026-04-18T14:22:22.546Z</time></trkpt><trkpt lat="43.3983967" lon="10.6252117"><ele>522.0</ele><time>2026-04-18T14:22:23.546Z</time></trkpt><trkpt lat="43.39835" lon="10.6250533"><ele>522.0</ele><time>2026-04-18T14:22:25.546Z</time></trkpt><trkpt lat="43.3982983" lon="10.6248833"><ele>523.0</ele><time>2026-04-18T14:22:27.546Z</time></trkpt><trkpt lat="43.398275" lon="10.6247917"><ele>524.0</ele><time>2026-04-18T14:22:28.546Z</time></trkpt><trkpt lat="43.39825" lon="10.6247033"><ele>525.0</ele><time>2026-04-18T14:22:29.546Z</time></trkpt><trkpt lat="43.3982167" lon="10.6246117"><ele>526.0</ele><time>2026-04-18T14:22:30.546Z</time></trkpt><trkpt lat="43.3981783" lon="10.6245067"><ele>527.0</ele><time>2026-04-18T14:22:31.546Z</time></trkpt><trkpt lat="43.3981517" lon="10.6244017"><ele>528.0</ele><time>2026-04-18T14:22:32.546Z</time></trkpt><trkpt lat="43.39813" lon="10.62431"><ele>528.8</ele><time>2026-04-18T14:22:33.546Z</time></trkpt><trkpt lat="43.3981117" lon="10.624225"><ele>529.5999999999999</ele><time>2026-04-18T14:22:34.546Z</time></trkpt><trkpt lat="43.3980767" lon="10.6240983"><ele>530.4000000000001</ele><time>2026-04-18T14:22:36.546Z</time></trkpt><trkpt lat="43.3980583" lon="10.62399"><ele>531.2</ele><time>2026-04-18T14:22:38.546Z</time></trkpt><trkpt lat="43.3980567" lon="10.6238367"><ele>532.0</ele><time>2026-04-18T14:22:40.547Z</time></trkpt><trkpt lat="43.398095" lon="10.6236767"><ele>532.3333333333334</ele><time>2026-04-18T14:22:42.546Z</time></trkpt><trkpt lat="43.3981367" lon="10.623585"><ele>532.6666666666667</ele><time>2026-04-18T14:22:43.546Z</time></trkpt><trkpt lat="43.398185" lon="10.6235033"><ele>533.0</ele><time>2026-04-18T14:22:44.546Z</time></trkpt><trkpt lat="43.398235" lon="10.6234167"><ele>533.3333333333334</ele><time>2026-04-18T14:22:45.546Z</time></trkpt><trkpt lat="43.39829" lon="10.6233267"><ele>533.6666666666666</ele><time>2026-04-18T14:22:46.546Z</time></trkpt><trkpt lat="43.3983267" lon="10.62324"><ele>534.0</ele><time>2026-04-18T14:22:47.546Z</time></trkpt><trkpt lat="43.39836" lon="10.6231583"><ele>534.0</ele><time>2026-04-18T14:22:48.547Z</time></trkpt><trkpt lat="43.39839" lon="10.6230767"><ele>534.0</ele><time>2026-04-18T14:22:49.546Z</time></trkpt><trkpt lat="43.39842" lon="10.623"><ele>534.0</ele><time>2026-04-18T14:22:50.546Z</time></trkpt><trkpt lat="43.3984533" lon="10.62286"><ele>534.0</ele><time>2026-04-18T14:22:52.546Z</time></trkpt><trkpt lat="43.3984633" lon="10.6226933"><ele>534.0</ele><time>2026-04-18T14:22:54.546Z</time></trkpt><trkpt lat="43.398465" lon="10.622515"><ele>534.5</ele><time>2026-04-18T14:22:56.546Z</time></trkpt><trkpt lat="43.3984617" lon="10.622415"><ele>535.0</ele><time>2026-04-18T14:22:57.547Z</time></trkpt><trkpt lat="43.398525" lon="10.62212"><ele>535.5</ele><time>2026-04-18T14:23:01.546Z</time></trkpt><trkpt lat="43.3985767" lon="10.6220133"><ele>536.0</ele><time>2026-04-18T14:23:03.546Z</time></trkpt><trkpt lat="43.39863" lon="10.6219217"><ele>536.0</ele><time>2026-04-18T14:23:05.546Z</time></trkpt><trkpt lat="43.3986883" lon="10.6218133"><ele>536.0</ele><time>2026-04-18T14:23:07.546Z</time></trkpt><trkpt lat="43.39874" lon="10.6217133"><ele>536.0</ele><time>2026-04-18T14:23:09.545Z</time></trkpt><trkpt lat="43.3987833" lon="10.6215933"><ele>536.0</ele><time>2026-04-18T14:23:11.545Z</time></trkpt><trkpt lat="43.398795" lon="10.62146"><ele>536.0</ele><time>2026-04-18T14:23:13.545Z</time></trkpt><trkpt lat="43.398785" lon="10.621325"><ele>536.0</ele><time>2026-04-18T14:23:15.545Z</time></trkpt><trkpt lat="43.3987717" lon="10.621185"><ele>536.0</ele><time>2026-04-18T14:23:17.545Z</time></trkpt><trkpt lat="43.3987867" lon="10.6210417"><ele>536.0</ele><time>2026-04-18T14:23:19.545Z</time></trkpt><trkpt lat="43.3988067" lon="10.6209533"><ele>536.0</ele><time>2026-04-18T14:23:20.545Z</time></trkpt><trkpt lat="43.3988367" lon="10.6208533"><ele>536.0</ele><time>2026-04-18T14:23:21.545Z</time></trkpt><trkpt lat="43.39888" lon="10.620755"><ele>536.0</ele><time>2026-04-18T14:23:22.545Z</time></trkpt><trkpt lat="43.3989317" lon="10.6206517"><ele>536.2</ele><time>2026-04-18T14:23:23.545Z</time></trkpt><trkpt lat="43.39899" lon="10.6205467"><ele>536.4000000000001</ele><time>2026-04-18T14:23:24.545Z</time></trkpt><trkpt lat="43.399045" lon="10.6204367"><ele>536.6</ele><time>2026-04-18T14:23:25.545Z</time></trkpt><trkpt lat="43.3991017" lon="10.62034"><ele>536.8000000000001</ele><time>2026-04-18T14:23:26.545Z</time></trkpt><trkpt lat="43.3991517" lon="10.62025"><ele>537.0</ele><time>2026-04-18T14:23:27.545Z</time></trkpt><trkpt lat="43.3992033" lon="10.6201467"><ele>536.0</ele><time>2026-04-18T14:23:28.545Z</time></trkpt><trkpt lat="43.399245" lon="10.6200417"><ele>535.0</ele><time>2026-04-18T14:23:29.545Z</time></trkpt><trkpt lat="43.39929" lon="10.619935"><ele>534.0</ele><time>2026-04-18T14:23:30.545Z</time></trkpt><trkpt lat="43.3993367" lon="10.6198383"><ele>533.0</ele><time>2026-04-18T14:23:31.545Z</time></trkpt><trkpt lat="43.3994417" lon="10.619535"><ele>532.8333333333333</ele><time>2026-04-18T14:23:34.545Z</time></trkpt><trkpt lat="43.399465" lon="10.6194217"><ele>532.6666666666666</ele><time>2026-04-18T14:23:35.546Z</time></trkpt><trkpt lat="43.3994833" lon="10.619305"><ele>532.5</ele><time>2026-04-18T14:23:36.545Z</time></trkpt><trkpt lat="43.3994983" lon="10.6191833"><ele>532.3333333333334</ele><time>2026-04-18T14:23:37.545Z</time></trkpt><trkpt lat="43.39951" lon="10.61906"><ele>532.1666666666667</ele><time>2026-04-18T14:23:38.545Z</time></trkpt><trkpt lat="43.39952" lon="10.6189433"><ele>532.0</ele><time>2026-04-18T14:23:39.545Z</time></trkpt><trkpt lat="43.3995267" lon="10.618835"><ele>532.0</ele><time>2026-04-18T14:23:40.545Z</time></trkpt><trkpt lat="43.3995317" lon="10.6187483"><ele>532.0</ele><time>2026-04-18T14:23:41.545Z</time></trkpt><trkpt lat="43.399545" lon="10.618625"><ele>532.0</ele><time>2026-04-18T14:23:43.545Z</time></trkpt><trkpt lat="43.3996" lon="10.6185567"><ele>532.0</ele><time>2026-04-18T14:23:47.545Z</time></trkpt><trkpt lat="43.3996917" lon="10.61861"><ele>532.0</ele><time>2026-04-18T14:23:49.545Z</time></trkpt><trkpt lat="43.399765" lon="10.61867"><ele>532.0</ele><time>2026-04-18T14:23:50.545Z</time></trkpt><trkpt lat="43.3998533" lon="10.6187433"><ele>533.0</ele><time>2026-04-18T14:23:51.545Z</time></trkpt><trkpt lat="43.3999567" lon="10.6188183"><ele>534.0</ele><time>2026-04-18T14:23:52.545Z</time></trkpt><trkpt lat="43.4000583" lon="10.6188967"><ele>535.0</ele><time>2026-04-18T14:23:53.545Z</time></trkpt><trkpt lat="43.4001533" lon="10.6189783"><ele>536.0</ele><time>2026-04-18T14:23:54.546Z</time></trkpt><trkpt lat="43.40024" lon="10.619055"><ele>537.0</ele><time>2026-04-18T14:23:55.545Z</time></trkpt><trkpt lat="43.400325" lon="10.619125"><ele>537.0</ele><time>2026-04-18T14:23:56.546Z</time></trkpt><trkpt lat="43.400415" lon="10.6191867"><ele>537.0</ele><time>2026-04-18T14:23:57.545Z</time></trkpt><trkpt lat="43.4005167" lon="10.61924"><ele>537.0</ele><time>2026-04-18T14:23:58.545Z</time></trkpt><trkpt lat="43.40062" lon="10.61928"><ele>537.0</ele><time>2026-04-18T14:23:59.545Z</time></trkpt><trkpt lat="43.400715" lon="10.6193017"><ele>537.0</ele><time>2026-04-18T14:24:00.545Z</time></trkpt><trkpt lat="43.4008133" lon="10.6193017"><ele>535.0</ele><time>2026-04-18T14:24:01.545Z</time></trkpt><trkpt lat="43.4009033" lon="10.6192933"><ele>533.0</ele><time>2026-04-18T14:24:02.545Z</time></trkpt><trkpt lat="43.4009817" lon="10.6192817"><ele>531.0</ele><time>2026-04-18T14:24:03.545Z</time></trkpt><trkpt lat="43.4010517" lon="10.6192617"><ele>529.0</ele><time>2026-04-18T14:24:04.545Z</time></trkpt><trkpt lat="43.4012917" lon="10.6191833"><ele>527.0</ele><time>2026-04-18T14:24:07.545Z</time></trkpt><trkpt lat="43.4013683" lon="10.6191783"><ele>525.0</ele><time>2026-04-18T14:24:08.546Z</time></trkpt><trkpt lat="43.401435" lon="10.6191917"><ele>523.0</ele><time>2026-04-18T14:24:09.545Z</time></trkpt><trkpt lat="43.4015117" lon="10.6192317"><ele>521.0</ele><time>2026-04-18T14:24:10.545Z</time></trkpt><trkpt lat="43.4016017" lon="10.6192883"><ele>519.0</ele><time>2026-04-18T14:24:11.545Z</time></trkpt><trkpt lat="43.4017" lon="10.6193617"><ele>517.0</ele><time>2026-04-18T14:24:12.545Z</time></trkpt><trkpt lat="43.4018033" lon="10.619445"><ele>518.5</ele><time>2026-04-18T14:24:13.545Z</time></trkpt><trkpt lat="43.4019117" lon="10.6195233"><ele>520.0</ele><time>2026-04-18T14:24:14.546Z</time></trkpt><trkpt lat="43.402025" lon="10.6195917"><ele>521.5</ele><time>2026-04-18T14:24:15.546Z</time></trkpt><trkpt lat="43.4021317" lon="10.6196583"><ele>523.0</ele><time>2026-04-18T14:24:16.545Z</time></trkpt><trkpt lat="43.402235" lon="10.619735"><ele>518.4</ele><time>2026-04-18T14:24:17.546Z</time></trkpt><trkpt lat="43.4023267" lon="10.6198133"><ele>513.8</ele><time>2026-04-18T14:24:18.545Z</time></trkpt><trkpt lat="43.4024183" lon="10.6198967"><ele>509.2</ele><time>2026-04-18T14:24:19.545Z</time></trkpt><trkpt lat="43.4025" lon="10.619995"><ele>504.6</ele><time>2026-04-18T14:24:20.545Z</time></trkpt><trkpt lat="43.4025817" lon="10.6200933"><ele>500.0</ele><time>2026-04-18T14:24:21.545Z</time></trkpt><trkpt lat="43.402655" lon="10.620215"><ele>499.6</ele><time>2026-04-18T14:24:22.545Z</time></trkpt><trkpt lat="43.4027117" lon="10.62034"><ele>499.2</ele><time>2026-04-18T14:24:23.545Z</time></trkpt><trkpt lat="43.402765" lon="10.6204817"><ele>498.79999999999995</ele><time>2026-04-18T14:24:24.545Z</time></trkpt><trkpt lat="43.40282" lon="10.62061"><ele>498.4</ele><time>2026-04-18T14:24:25.545Z</time></trkpt><trkpt lat="43.4028683" lon="10.6207167"><ele>498.0</ele><time>2026-04-18T14:24:26.545Z</time></trkpt><trkpt lat="43.40291" lon="10.62083"><ele>498.0</ele><time>2026-04-18T14:24:27.545Z</time></trkpt><trkpt lat="43.4029383" lon="10.6209617"><ele>498.0</ele><time>2026-04-18T14:24:28.545Z</time></trkpt><trkpt lat="43.4029467" lon="10.6211133"><ele>498.0</ele><time>2026-04-18T14:24:29.545Z</time></trkpt><trkpt lat="43.4029533" lon="10.6212917"><ele>498.0</ele><time>2026-04-18T14:24:30.546Z</time></trkpt><trkpt lat="43.40297" lon="10.6214833"><ele>497.0</ele><time>2026-04-18T14:24:31.546Z</time></trkpt><trkpt lat="43.40299" lon="10.6216917"><ele>496.0</ele><time>2026-04-18T14:24:32.545Z</time></trkpt><trkpt lat="43.4030067" lon="10.6219117"><ele>495.0</ele><time>2026-04-18T14:24:33.546Z</time></trkpt><trkpt lat="43.4030117" lon="10.6221217"><ele>494.2</ele><time>2026-04-18T14:24:34.545Z</time></trkpt><trkpt lat="43.40301" lon="10.62229"><ele>493.4</ele><time>2026-04-18T14:24:35.545Z</time></trkpt><trkpt lat="43.403005" lon="10.6224317"><ele>492.6</ele><time>2026-04-18T14:24:36.545Z</time></trkpt><trkpt lat="43.40298" lon="10.6225817"><ele>491.8</ele><time>2026-04-18T14:24:37.545Z</time></trkpt><trkpt lat="43.4029383" lon="10.62272"><ele>491.0</ele><time>2026-04-18T14:24:38.545Z</time></trkpt><trkpt lat="43.4027917" lon="10.6231333"><ele>490.8</ele><time>2026-04-18T14:24:41.545Z</time></trkpt><trkpt lat="43.402775" lon="10.6232767"><ele>490.6</ele><time>2026-04-18T14:24:42.545Z</time></trkpt><trkpt lat="43.4027783" lon="10.62343"><ele>490.4</ele><time>2026-04-18T14:24:43.545Z</time></trkpt><trkpt lat="43.402795" lon="10.62359"><ele>490.2</ele><time>2026-04-18T14:24:44.545Z</time></trkpt><trkpt lat="43.4028217" lon="10.6237433"><ele>490.0</ele><time>2026-04-18T14:24:45.545Z</time></trkpt><trkpt lat="43.402855" lon="10.6238867"><ele>490.0</ele><time>2026-04-18T14:24:46.545Z</time></trkpt><trkpt lat="43.4028833" lon="10.62403"><ele>490.0</ele><time>2026-04-18T14:24:47.545Z</time></trkpt><trkpt lat="43.402905" lon="10.6241683"><ele>490.0</ele><time>2026-04-18T14:24:48.545Z</time></trkpt><trkpt lat="43.402925" lon="10.6243"><ele>490.0</ele><time>2026-04-18T14:24:49.545Z</time></trkpt><trkpt lat="43.4029483" lon="10.6244233"><ele>490.0</ele><time>2026-04-18T14:24:50.546Z</time></trkpt><trkpt lat="43.4029883" lon="10.6245683"><ele>490.75</ele><time>2026-04-18T14:24:51.545Z</time></trkpt><trkpt lat="43.4030417" lon="10.6247283"><ele>491.5</ele><time>2026-04-18T14:24:52.545Z</time></trkpt><trkpt lat="43.4030983" lon="10.624885"><ele>492.25</ele><time>2026-04-18T14:24:53.545Z</time></trkpt><trkpt lat="43.40315" lon="10.6250317"><ele>493.0</ele><time>2026-04-18T14:24:54.545Z</time></trkpt><trkpt lat="43.4031917" lon="10.6251683"><ele>493.0</ele><time>2026-04-18T14:24:55.545Z</time></trkpt><trkpt lat="43.4032183" lon="10.6252917"><ele>493.0</ele><time>2026-04-18T14:24:56.545Z</time></trkpt><trkpt lat="43.403265" lon="10.6254233"><ele>493.0</ele><time>2026-04-18T14:24:57.546Z</time></trkpt><trkpt lat="43.4033383" lon="10.6255617"><ele>493.0</ele><time>2026-04-18T14:24:58.545Z</time></trkpt><trkpt lat="43.4034267" lon="10.6257117"><ele>486.6666666666667</ele><time>2026-04-18T14:24:59.545Z</time></trkpt><trkpt lat="43.403525" lon="10.6258733"><ele>480.33333333333337</ele><time>2026-04-18T14:25:00.545Z</time></trkpt><trkpt lat="43.4036267" lon="10.62604"><ele>474.0</ele><time>2026-04-18T14:25:01.545Z</time></trkpt><trkpt lat="43.40372" lon="10.6262083"><ele>476.25</ele><time>2026-04-18T14:25:02.545Z</time></trkpt><trkpt lat="43.4038083" lon="10.626375"><ele>478.5</ele><time>2026-04-18T14:25:03.546Z</time></trkpt><trkpt lat="43.403885" lon="10.6265217"><ele>480.75</ele><time>2026-04-18T14:25:04.545Z</time></trkpt><trkpt lat="43.4039433" lon="10.6266483"><ele>483.0</ele><time>2026-04-18T14:25:05.545Z</time></trkpt><trkpt lat="43.4039983" lon="10.62675"><ele>483.0</ele><time>2026-04-18T14:25:06.545Z</time></trkpt><trkpt lat="43.4040533" lon="10.626835"><ele>482.99999999999994</ele><time>2026-04-18T14:25:07.545Z</time></trkpt><trkpt lat="43.4041233" lon="10.6269183"><ele>482.99999999999994</ele><time>2026-04-18T14:25:08.545Z</time></trkpt><trkpt lat="43.404205" lon="10.6270133"><ele>483.0</ele><time>2026-04-18T14:25:09.545Z</time></trkpt><trkpt lat="43.40429" lon="10.6271183"><ele>483.0</ele><time>2026-04-18T14:25:10.545Z</time></trkpt><trkpt lat="43.40437" lon="10.6272117"><ele>478.33333333333337</ele><time>2026-04-18T14:25:11.545Z</time></trkpt><trkpt lat="43.404445" lon="10.6272883"><ele>473.6666666666667</ele><time>2026-04-18T14:25:12.545Z</time></trkpt><trkpt lat="43.4046983" lon="10.62739"><ele>469.0</ele><time>2026-04-18T14:25:15.545Z</time></trkpt><trkpt lat="43.4048067" lon="10.6273983"><ele>469.0</ele><time>2026-04-18T14:25:16.545Z</time></trkpt><trkpt lat="43.40492" lon="10.62742"><ele>469.0</ele><time>2026-04-18T14:25:17.546Z</time></trkpt><trkpt lat="43.4050333" lon="10.6274433"><ele>469.0</ele><time>2026-04-18T14:25:18.546Z</time></trkpt><trkpt lat="43.4051367" lon="10.6274783"><ele>469.0</ele><time>2026-04-18T14:25:19.545Z</time></trkpt><trkpt lat="43.405225" lon="10.6275283"><ele>469.0</ele><time>2026-04-18T14:25:20.545Z</time></trkpt><trkpt lat="43.4053067" lon="10.627605"><ele>469.0</ele><time>2026-04-18T14:25:21.545Z</time></trkpt><trkpt lat="43.4053683" lon="10.6277067"><ele>469.0</ele><time>2026-04-18T14:25:22.545Z</time></trkpt><trkpt lat="43.4054217" lon="10.6278333"><ele>469.0</ele><time>2026-04-18T14:25:23.545Z</time></trkpt><trkpt lat="43.40547" lon="10.6279817"><ele>469.0</ele><time>2026-04-18T14:25:24.545Z</time></trkpt><trkpt lat="43.405515" lon="10.6281383"><ele>469.0</ele><time>2026-04-18T14:25:25.545Z</time></trkpt><trkpt lat="43.405555" lon="10.6282633"><ele>465.79999999999995</ele><time>2026-04-18T14:25:26.545Z</time></trkpt><trkpt lat="43.4056033" lon="10.6283533"><ele>462.59999999999997</ele><time>2026-04-18T14:25:27.545Z</time></trkpt><trkpt lat="43.405695" lon="10.6284433"><ele>459.4</ele><time>2026-04-18T14:25:29.545Z</time></trkpt><trkpt lat="43.4057683" lon="10.6284633"><ele>456.2</ele><time>2026-04-18T14:25:31.546Z</time></trkpt><trkpt lat="43.40585" lon="10.62849"><ele>453.0</ele><time>2026-04-18T14:25:33.545Z</time></trkpt><trkpt lat="43.4059717" lon="10.6285317"><ele>453.0</ele><time>2026-04-18T14:25:35.545Z</time></trkpt><trkpt lat="43.4060467" lon="10.62855"><ele>453.0</ele><time>2026-04-18T14:25:36.545Z</time></trkpt><trkpt lat="43.406125" lon="10.62858"><ele>453.0</ele><time>2026-04-18T14:25:37.545Z</time></trkpt><trkpt lat="43.4062117" lon="10.6286083"><ele>453.0</ele><time>2026-04-18T14:25:38.545Z</time></trkpt><trkpt lat="43.4063067" lon="10.6286283"><ele>453.0</ele><time>2026-04-18T14:25:39.545Z</time></trkpt><trkpt lat="43.4064117" lon="10.628645"><ele>453.0</ele><time>2026-04-18T14:25:40.545Z</time></trkpt><trkpt lat="43.4065017" lon="10.62868"><ele>450.4</ele><time>2026-04-18T14:25:41.545Z</time></trkpt><trkpt lat="43.4065783" lon="10.6287267"><ele>447.79999999999995</ele><time>2026-04-18T14:25:42.545Z</time></trkpt><trkpt lat="43.4066467" lon="10.6288"><ele>445.2</ele><time>2026-04-18T14:25:43.545Z</time></trkpt><trkpt lat="43.40672" lon="10.6289033"><ele>442.6</ele><time>2026-04-18T14:25:44.545Z</time></trkpt><trkpt lat="43.4067917" lon="10.6290267"><ele>440.0</ele><time>2026-04-18T14:25:45.545Z</time></trkpt><trkpt lat="43.4068733" lon="10.6291567"><ele>428.0</ele><time>2026-04-18T14:25:46.545Z</time></trkpt><trkpt lat="43.407215" lon="10.629735"><ele>428.0</ele><time>2026-04-18T14:25:50.545Z</time></trkpt><trkpt lat="43.407295" lon="10.6298717"><ele>428.0</ele><time>2026-04-18T14:25:51.545Z</time></trkpt><trkpt lat="43.4073733" lon="10.6300067"><ele>428.0</ele><time>2026-04-18T14:25:52.546Z</time></trkpt><trkpt lat="43.40745" lon="10.6301367"><ele>428.0</ele><time>2026-04-18T14:25:53.545Z</time></trkpt><trkpt lat="43.4075267" lon="10.63026"><ele>428.5</ele><time>2026-04-18T14:25:54.545Z</time></trkpt><trkpt lat="43.4076017" lon="10.6303917"><ele>429.0</ele><time>2026-04-18T14:25:55.545Z</time></trkpt><trkpt lat="43.4076767" lon="10.6305183"><ele>429.5</ele><time>2026-04-18T14:25:56.546Z</time></trkpt><trkpt lat="43.4077517" lon="10.630635"><ele>430.0</ele><time>2026-04-18T14:25:57.545Z</time></trkpt><trkpt lat="43.4078283" lon="10.63074"><ele>430.0</ele><time>2026-04-18T14:25:58.545Z</time></trkpt><trkpt lat="43.40789" lon="10.63086"><ele>430.0</ele><time>2026-04-18T14:25:59.545Z</time></trkpt><trkpt lat="43.407945" lon="10.6309733"><ele>430.0</ele><time>2026-04-18T14:26:00.546Z</time></trkpt><trkpt lat="43.4080017" lon="10.6310767"><ele>430.0</ele><time>2026-04-18T14:26:01.545Z</time></trkpt><trkpt lat="43.4080633" lon="10.6311733"><ele>430.0</ele><time>2026-04-18T14:26:02.545Z</time></trkpt><trkpt lat="43.4081383" lon="10.6312667"><ele>427.5</ele><time>2026-04-18T14:26:03.546Z</time></trkpt><trkpt lat="43.4082383" lon="10.631355"><ele>425.0</ele><time>2026-04-18T14:26:04.546Z</time></trkpt><trkpt lat="43.4083533" lon="10.6314367"><ele>422.5</ele><time>2026-04-18T14:26:05.545Z</time></trkpt><trkpt lat="43.4084567" lon="10.6315167"><ele>420.0</ele><time>2026-04-18T14:26:06.546Z</time></trkpt><trkpt lat="43.408565" lon="10.6315883"><ele>420.0</ele><time>2026-04-18T14:26:07.545Z</time></trkpt><trkpt lat="43.4086483" lon="10.631665"><ele>420.0</ele><time>2026-04-18T14:26:08.545Z</time></trkpt><trkpt lat="43.40873" lon="10.631715"><ele>420.0</ele><time>2026-04-18T14:26:09.545Z</time></trkpt><trkpt lat="43.408815" lon="10.6317467"><ele>420.0</ele><time>2026-04-18T14:26:10.546Z</time></trkpt><trkpt lat="43.4089133" lon="10.6317433"><ele>420.0</ele><time>2026-04-18T14:26:11.545Z</time></trkpt><trkpt lat="43.40902" lon="10.6317317"><ele>416.75</ele><time>2026-04-18T14:26:12.545Z</time></trkpt><trkpt lat="43.4091367" lon="10.631705"><ele>413.5</ele><time>2026-04-18T14:26:13.545Z</time></trkpt><trkpt lat="43.409255" lon="10.631665"><ele>410.25</ele><time>2026-04-18T14:26:14.545Z</time></trkpt><trkpt lat="43.4093733" lon="10.6316383"><ele>407.0</ele><time>2026-04-18T14:26:15.546Z</time></trkpt><trkpt lat="43.4094983" lon="10.6316133"><ele>407.0</ele><time>2026-04-18T14:26:16.545Z</time></trkpt><trkpt lat="43.4096067" lon="10.6315783"><ele>407.0</ele><time>2026-04-18T14:26:17.546Z</time></trkpt><trkpt lat="43.4096933" lon="10.631555"><ele>407.0</ele><time>2026-04-18T14:26:18.545Z</time></trkpt><trkpt lat="43.40977" lon="10.6315467"><ele>407.0</ele><time>2026-04-18T14:26:19.545Z</time></trkpt><trkpt lat="43.4098467" lon="10.631565"><ele>407.0</ele><time>2026-04-18T14:26:20.545Z</time></trkpt><trkpt lat="43.4100683" lon="10.6318217"><ele>406.20000000000005</ele><time>2026-04-18T14:26:23.545Z</time></trkpt><trkpt lat="43.41012" lon="10.6319617"><ele>405.4</ele><time>2026-04-18T14:26:24.545Z</time></trkpt><trkpt lat="43.410165" lon="10.63211"><ele>404.6</ele><time>2026-04-18T14:26:25.545Z</time></trkpt><trkpt lat="43.41021" lon="10.6322533"><ele>403.79999999999995</ele><time>2026-04-18T14:26:26.545Z</time></trkpt><trkpt lat="43.410255" lon="10.63237"><ele>403.0</ele><time>2026-04-18T14:26:27.546Z</time></trkpt><trkpt lat="43.4103183" lon="10.63247"><ele>403.0</ele><time>2026-04-18T14:26:28.546Z</time></trkpt><trkpt lat="43.4104067" lon="10.6325517"><ele>403.0</ele><time>2026-04-18T14:26:29.545Z</time></trkpt><trkpt lat="43.41052" lon="10.6326267"><ele>403.0</ele><time>2026-04-18T14:26:30.545Z</time></trkpt><trkpt lat="43.4106467" lon="10.6326933"><ele>403.0</ele><time>2026-04-18T14:26:31.545Z</time></trkpt><trkpt lat="43.4107717" lon="10.6327467"><ele>399.59999999999997</ele><time>2026-04-18T14:26:32.544Z</time></trkpt><trkpt lat="43.410875" lon="10.6328"><ele>396.2</ele><time>2026-04-18T14:26:33.544Z</time></trkpt><trkpt lat="43.41097" lon="10.632865"><ele>392.8</ele><time>2026-04-18T14:26:34.544Z</time></trkpt><trkpt lat="43.41105" lon="10.632955"><ele>389.4</ele><time>2026-04-18T14:26:35.544Z</time></trkpt><trkpt lat="43.4111317" lon="10.6330733"><ele>386.0</ele><time>2026-04-18T14:26:36.544Z</time></trkpt><trkpt lat="43.4111883" lon="10.633225"><ele>386.0</ele><time>2026-04-18T14:26:37.544Z</time></trkpt><trkpt lat="43.41123" lon="10.63338"><ele>386.0</ele><time>2026-04-18T14:26:38.544Z</time></trkpt><trkpt lat="43.411265" lon="10.633525"><ele>386.0</ele><time>2026-04-18T14:26:39.545Z</time></trkpt><trkpt lat="43.4113017" lon="10.6336467"><ele>386.0</ele><time>2026-04-18T14:26:40.544Z</time></trkpt><trkpt lat="43.4113433" lon="10.63376"><ele>386.0</ele><time>2026-04-18T14:26:41.544Z</time></trkpt><trkpt lat="43.411375" lon="10.63389"><ele>384.75</ele><time>2026-04-18T14:26:42.544Z</time></trkpt><trkpt lat="43.411395" lon="10.6340383"><ele>383.5</ele><time>2026-04-18T14:26:43.544Z</time></trkpt><trkpt lat="43.41142" lon="10.6341967"><ele>382.25</ele><time>2026-04-18T14:26:44.544Z</time></trkpt><trkpt lat="43.41145" lon="10.634355"><ele>381.0</ele><time>2026-04-18T14:26:45.544Z</time></trkpt><trkpt lat="43.4115017" lon="10.6345167"><ele>381.0</ele><time>2026-04-18T14:26:46.544Z</time></trkpt><trkpt lat="43.4115867" lon="10.6346917"><ele>381.0</ele><time>2026-04-18T14:26:47.544Z</time></trkpt><trkpt lat="43.4116783" lon="10.63486"><ele>381.0</ele><time>2026-04-18T14:26:48.544Z</time></trkpt><trkpt lat="43.4117483" lon="10.6350183"><ele>381.0</ele><time>2026-04-18T14:26:49.544Z</time></trkpt><trkpt lat="43.411805" lon="10.6351317"><ele>381.0</ele><time>2026-04-18T14:26:50.544Z</time></trkpt><trkpt lat="43.41185" lon="10.6352267"><ele>381.0</ele><time>2026-04-18T14:26:51.544Z</time></trkpt><trkpt lat="43.411885" lon="10.635315"><ele>381.0</ele><time>2026-04-18T14:26:52.544Z</time></trkpt><trkpt lat="43.4119083" lon="10.6354083"><ele>381.0</ele><time>2026-04-18T14:26:53.544Z</time></trkpt><trkpt lat="43.4119217" lon="10.6355217"><ele>381.0</ele><time>2026-04-18T14:26:54.544Z</time></trkpt><trkpt lat="43.4119867" lon="10.635985"><ele>381.6</ele><time>2026-04-18T14:26:58.544Z</time></trkpt><trkpt lat="43.4120033" lon="10.6360933"><ele>382.20000000000005</ele><time>2026-04-18T14:26:59.544Z</time></trkpt><trkpt lat="43.41203" lon="10.6361967"><ele>382.79999999999995</ele><time>2026-04-18T14:27:00.544Z</time></trkpt><trkpt lat="43.4120683" lon="10.63631"><ele>383.4</ele><time>2026-04-18T14:27:01.545Z</time></trkpt><trkpt lat="43.41212" lon="10.636415"><ele>384.0</ele><time>2026-04-18T14:27:02.544Z</time></trkpt><trkpt lat="43.412195" lon="10.6365283"><ele>381.5</ele><time>2026-04-18T14:27:03.544Z</time></trkpt><trkpt lat="43.4122817" lon="10.6366567"><ele>379.0</ele><time>2026-04-18T14:27:04.544Z</time></trkpt><trkpt lat="43.4123783" lon="10.6368017"><ele>376.5</ele><time>2026-04-18T14:27:05.544Z</time></trkpt><trkpt lat="43.412485" lon="10.6369567"><ele>374.0</ele><time>2026-04-18T14:27:06.544Z</time></trkpt><trkpt lat="43.4125817" lon="10.6371033"><ele>373.0</ele><time>2026-04-18T14:27:07.544Z</time></trkpt><trkpt lat="43.4126767" lon="10.6372317"><ele>372.0</ele><time>2026-04-18T14:27:08.544Z</time></trkpt><trkpt lat="43.4127567" lon="10.6373717"><ele>371.0</ele><time>2026-04-18T14:27:09.544Z</time></trkpt><trkpt lat="43.4128317" lon="10.6375017"><ele>370.0</ele><time>2026-04-18T14:27:10.544Z</time></trkpt><trkpt lat="43.4129017" lon="10.6375983"><ele>370.0</ele><time>2026-04-18T14:27:11.544Z</time></trkpt><trkpt lat="43.4129617" lon="10.637675"><ele>370.0</ele><time>2026-04-18T14:27:12.544Z</time></trkpt><trkpt lat="43.41303" lon="10.637725"><ele>370.0</ele><time>2026-04-18T14:27:13.545Z</time></trkpt><trkpt lat="43.4130967" lon="10.6377533"><ele>370.0</ele><time>2026-04-18T14:27:14.544Z</time></trkpt><trkpt lat="43.4132133" lon="10.6377733"><ele>370.0</ele><time>2026-04-18T14:27:16.544Z</time></trkpt><trkpt lat="43.413315" lon="10.6378"><ele>367.8</ele><time>2026-04-18T14:27:18.545Z</time></trkpt><trkpt lat="43.4134267" lon="10.6378667"><ele>365.6</ele><time>2026-04-18T14:27:20.544Z</time></trkpt><trkpt lat="43.4135033" lon="10.6379017"><ele>363.4</ele><time>2026-04-18T14:27:21.544Z</time></trkpt><trkpt lat="43.413585" lon="10.6379367"><ele>361.2</ele><time>2026-04-18T14:27:22.544Z</time></trkpt><trkpt lat="43.4136633" lon="10.6379733"><ele>359.0</ele><time>2026-04-18T14:27:23.544Z</time></trkpt><trkpt lat="43.4137433" lon="10.6380317"><ele>359.0</ele><time>2026-04-18T14:27:24.544Z</time></trkpt><trkpt lat="43.4138217" lon="10.6381083"><ele>359.0</ele><time>2026-04-18T14:27:25.544Z</time></trkpt><trkpt lat="43.4139" lon="10.6381917"><ele>359.0</ele><time>2026-04-18T14:27:26.544Z</time></trkpt><trkpt lat="43.4140033" lon="10.6382767"><ele>359.0</ele><time>2026-04-18T14:27:27.544Z</time></trkpt><trkpt lat="43.4142883" lon="10.6384317"><ele>360.2</ele><time>2026-04-18T14:27:30.544Z</time></trkpt><trkpt lat="43.4143517" lon="10.6385"><ele>361.4</ele><time>2026-04-18T14:27:31.544Z</time></trkpt><trkpt lat="43.4144117" lon="10.6386"><ele>362.6</ele><time>2026-04-18T14:27:32.544Z</time></trkpt><trkpt lat="43.4144717" lon="10.638695"><ele>363.8</ele><time>2026-04-18T14:27:33.545Z</time></trkpt><trkpt lat="43.4145433" lon="10.6387917"><ele>365.0</ele><time>2026-04-18T14:27:34.544Z</time></trkpt><trkpt lat="43.4146317" lon="10.638885"><ele>363.5</ele><time>2026-04-18T14:27:35.544Z</time></trkpt><trkpt lat="43.4147467" lon="10.638985"><ele>362.0</ele><time>2026-04-18T14:27:36.544Z</time></trkpt><trkpt lat="43.4148783" lon="10.639075"><ele>360.5</ele><time>2026-04-18T14:27:37.544Z</time></trkpt><trkpt lat="43.4150017" lon="10.639165"><ele>359.0</ele><time>2026-04-18T14:27:38.544Z</time></trkpt><trkpt lat="43.4151067" lon="10.6392583"><ele>359.0</ele><time>2026-04-18T14:27:39.544Z</time></trkpt><trkpt lat="43.4152033" lon="10.6393383"><ele>359.0</ele><time>2026-04-18T14:27:40.544Z</time></trkpt><trkpt lat="43.41529" lon="10.6394283"><ele>359.0</ele><time>2026-04-18T14:27:41.545Z</time></trkpt><trkpt lat="43.4153733" lon="10.639535"><ele>359.0</ele><time>2026-04-18T14:27:42.544Z</time></trkpt><trkpt lat="43.4154567" lon="10.639645"><ele>360.2</ele><time>2026-04-18T14:27:43.545Z</time></trkpt><trkpt lat="43.4155367" lon="10.63974"><ele>361.4</ele><time>2026-04-18T14:27:44.544Z</time></trkpt><trkpt lat="43.4156233" lon="10.6398333"><ele>362.6</ele><time>2026-04-18T14:27:45.544Z</time></trkpt><trkpt lat="43.41572" lon="10.639905"><ele>363.8</ele><time>2026-04-18T14:27:46.544Z</time></trkpt><trkpt lat="43.4158183" lon="10.6399733"><ele>365.0</ele><time>2026-04-18T14:27:47.544Z</time></trkpt><trkpt lat="43.4159133" lon="10.64003"><ele>365.0</ele><time>2026-04-18T14:27:48.544Z</time></trkpt><trkpt lat="43.4160067" lon="10.64008"><ele>365.0</ele><time>2026-04-18T14:27:49.544Z</time></trkpt><trkpt lat="43.4161083" lon="10.6401283"><ele>365.0</ele><time>2026-04-18T14:27:50.544Z</time></trkpt><trkpt lat="43.4162167" lon="10.640165"><ele>365.0</ele><time>2026-04-18T14:27:51.544Z</time></trkpt><trkpt lat="43.4163333" lon="10.640195"><ele>365.0</ele><time>2026-04-18T14:27:52.544Z</time></trkpt><trkpt lat="43.41644" lon="10.6402183"><ele>365.6</ele><time>2026-04-18T14:27:53.544Z</time></trkpt><trkpt lat="43.41653" lon="10.6402417"><ele>366.2</ele><time>2026-04-18T14:27:54.544Z</time></trkpt><trkpt lat="43.4166017" lon="10.6402633"><ele>366.79999999999995</ele><time>2026-04-18T14:27:55.544Z</time></trkpt><trkpt lat="43.4166617" lon="10.64029"><ele>367.4</ele><time>2026-04-18T14:27:56.544Z</time></trkpt><trkpt lat="43.4167567" lon="10.6403683"><ele>368.0</ele><time>2026-04-18T14:27:58.544Z</time></trkpt><trkpt lat="43.4168333" lon="10.64049"><ele>367.33333333333337</ele><time>2026-04-18T14:28:00.544Z</time></trkpt><trkpt lat="43.4169217" lon="10.6406133"><ele>366.6666666666667</ele><time>2026-04-18T14:28:04.544Z</time></trkpt><trkpt lat="43.4171183" lon="10.6408433"><ele>366.0</ele><time>2026-04-18T14:29:48.545Z</time></trkpt><trkpt lat="43.4172033" lon="10.6409533"><ele>366.0</ele><time>2026-04-18T14:29:49.544Z</time></trkpt><trkpt lat="43.4173017" lon="10.64107"><ele>366.0</ele><time>2026-04-18T14:29:50.544Z</time></trkpt><trkpt lat="43.417405" lon="10.6412083"><ele>366.0</ele><time>2026-04-18T14:29:51.544Z</time></trkpt><trkpt lat="43.4175333" lon="10.6413683"><ele>366.0</ele><time>2026-04-18T14:29:52.544Z</time></trkpt><trkpt lat="43.4176367" lon="10.6415217"><ele>365.75</ele><time>2026-04-18T14:29:53.544Z</time></trkpt><trkpt lat="43.4177317" lon="10.641665"><ele>365.5</ele><time>2026-04-18T14:29:54.544Z</time></trkpt><trkpt lat="43.4178167" lon="10.64179"><ele>365.25</ele><time>2026-04-18T14:29:55.544Z</time></trkpt><trkpt lat="43.417895" lon="10.6418917"><ele>365.0</ele><time>2026-04-18T14:29:56.545Z</time></trkpt><trkpt lat="43.4179633" lon="10.64198"><ele>365.6</ele><time>2026-04-18T14:29:57.543Z</time></trkpt><trkpt lat="43.4180333" lon="10.64206"><ele>366.2</ele><time>2026-04-18T14:29:58.543Z</time></trkpt><trkpt lat="43.4181117" lon="10.6421283"><ele>366.79999999999995</ele><time>2026-04-18T14:29:59.543Z</time></trkpt><trkpt lat="43.418205" lon="10.6422067"><ele>367.4</ele><time>2026-04-18T14:30:00.543Z</time></trkpt><trkpt lat="43.4183017" lon="10.6422867"><ele>368.0</ele><time>2026-04-18T14:30:01.544Z</time></trkpt><trkpt lat="43.4183817" lon="10.642375"><ele>368.0</ele><time>2026-04-18T14:30:02.543Z</time></trkpt><trkpt lat="43.41846" lon="10.6424617"><ele>368.0</ele><time>2026-04-18T14:30:03.543Z</time></trkpt><trkpt lat="43.4185433" lon="10.6425467"><ele>368.0</ele><time>2026-04-18T14:30:04.543Z</time></trkpt><trkpt lat="43.4186383" lon="10.6426133"><ele>368.0</ele><time>2026-04-18T14:30:05.543Z</time></trkpt><trkpt lat="43.4187367" lon="10.6426733"><ele>368.0</ele><time>2026-04-18T14:30:06.544Z</time></trkpt><trkpt lat="43.4188383" lon="10.64274"><ele>370.0</ele><time>2026-04-18T14:30:07.544Z</time></trkpt><trkpt lat="43.41894" lon="10.6428217"><ele>372.0</ele><time>2026-04-18T14:30:08.544Z</time></trkpt><trkpt lat="43.419045" lon="10.6428967"><ele>374.0</ele><time>2026-04-18T14:30:09.543Z</time></trkpt><trkpt lat="43.4191467" lon="10.6429783"><ele>376.0</ele><time>2026-04-18T14:30:10.543Z</time></trkpt><trkpt lat="43.41925" lon="10.6430633"><ele>376.0</ele><time>2026-04-18T14:30:11.543Z</time></trkpt><trkpt lat="43.419355" lon="10.64314"><ele>376.0</ele><time>2026-04-18T14:30:12.543Z</time></trkpt><trkpt lat="43.419445" lon="10.64321"><ele>376.0</ele><time>2026-04-18T14:30:13.543Z</time></trkpt><trkpt lat="43.41953" lon="10.6432667"><ele>376.0</ele><time>2026-04-18T14:30:14.543Z</time></trkpt><trkpt lat="43.4196067" lon="10.6433083"><ele>376.0</ele><time>2026-04-18T14:30:15.543Z</time></trkpt><trkpt lat="43.4197" lon="10.6434117"><ele>377.3333333333333</ele><time>2026-04-18T14:30:17.543Z</time></trkpt><trkpt lat="43.41975" lon="10.6434983"><ele>378.6666666666667</ele><time>2026-04-18T14:30:18.543Z</time></trkpt><trkpt lat="43.419815" lon="10.6436033"><ele>380.0</ele><time>2026-04-18T14:30:19.543Z</time></trkpt><trkpt lat="43.420025" lon="10.64395"><ele>380.0</ele><time>2026-04-18T14:30:22.543Z</time></trkpt><trkpt lat="43.420105" lon="10.644055"><ele>380.0</ele><time>2026-04-18T14:30:23.543Z</time></trkpt><trkpt lat="43.4201817" lon="10.6441533"><ele>380.0</ele><time>2026-04-18T14:30:24.543Z</time></trkpt><trkpt lat="43.4202633" lon="10.6442483"><ele>380.0</ele><time>2026-04-18T14:30:25.543Z</time></trkpt><trkpt lat="43.4203383" lon="10.6443433"><ele>380.0</ele><time>2026-04-18T14:30:26.543Z</time></trkpt><trkpt lat="43.4204117" lon="10.6444267"><ele>378.6</ele><time>2026-04-18T14:30:27.543Z</time></trkpt><trkpt lat="43.4204917" lon="10.6444983"><ele>377.2</ele><time>2026-04-18T14:30:28.543Z</time></trkpt><trkpt lat="43.4205867" lon="10.644575"><ele>375.79999999999995</ele><time>2026-04-18T14:30:29.543Z</time></trkpt><trkpt lat="43.42069" lon="10.6446533"><ele>374.4</ele><time>2026-04-18T14:30:30.543Z</time></trkpt><trkpt lat="43.4207917" lon="10.64472"><ele>373.0</ele><time>2026-04-18T14:30:31.543Z</time></trkpt><trkpt lat="43.42089" lon="10.6448017"><ele>373.0</ele><time>2026-04-18T14:30:32.543Z</time></trkpt><trkpt lat="43.4209833" lon="10.6449083"><ele>373.0</ele><time>2026-04-18T14:30:33.543Z</time></trkpt><trkpt lat="43.4210683" lon="10.6450083"><ele>373.0</ele><time>2026-04-18T14:30:34.543Z</time></trkpt><trkpt lat="43.4211567" lon="10.6451133"><ele>373.0</ele><time>2026-04-18T14:30:35.543Z</time></trkpt><trkpt lat="43.42125" lon="10.6452083"><ele>371.5</ele><time>2026-04-18T14:30:36.543Z</time></trkpt><trkpt lat="43.4213517" lon="10.6453067"><ele>370.0</ele><time>2026-04-18T14:30:37.543Z</time></trkpt><trkpt lat="43.421445" lon="10.6454033"><ele>368.5</ele><time>2026-04-18T14:30:38.543Z</time></trkpt><trkpt lat="43.421535" lon="10.64548"><ele>367.0</ele><time>2026-04-18T14:30:39.543Z</time></trkpt><trkpt lat="43.4216233" lon="10.645555"><ele>367.0</ele><time>2026-04-18T14:30:40.543Z</time></trkpt><trkpt lat="43.4217117" lon="10.6456333"><ele>367.0</ele><time>2026-04-18T14:30:41.543Z</time></trkpt><trkpt lat="43.4218133" lon="10.6457017"><ele>367.0</ele><time>2026-04-18T14:30:42.543Z</time></trkpt><trkpt lat="43.4219233" lon="10.64577"><ele>367.0</ele><time>2026-04-18T14:30:43.543Z</time></trkpt><trkpt lat="43.4220283" lon="10.6458367"><ele>367.0</ele><time>2026-04-18T14:30:44.543Z</time></trkpt><trkpt lat="43.4221283" lon="10.6459017"><ele>367.0</ele><time>2026-04-18T14:30:45.543Z</time></trkpt><trkpt lat="43.42222" lon="10.6459567"><ele>367.0</ele><time>2026-04-18T14:30:46.544Z</time></trkpt><trkpt lat="43.4223033" lon="10.6459867"><ele>367.0</ele><time>2026-04-18T14:30:47.543Z</time></trkpt><trkpt lat="43.4223883" lon="10.6460183"><ele>367.0</ele><time>2026-04-18T14:30:48.543Z</time></trkpt><trkpt lat="43.4224633" lon="10.6460633"><ele>365.6</ele><time>2026-04-18T14:30:49.543Z</time></trkpt><trkpt lat="43.42255" lon="10.646125"><ele>364.20000000000005</ele><time>2026-04-18T14:30:50.543Z</time></trkpt><trkpt lat="43.42264" lon="10.6461983"><ele>362.8</ele><time>2026-04-18T14:30:51.543Z</time></trkpt><trkpt lat="43.4227383" lon="10.6462733"><ele>361.4</ele><time>2026-04-18T14:30:52.544Z</time></trkpt><trkpt lat="43.4228333" lon="10.6463517"><ele>360.0</ele><time>2026-04-18T14:30:53.543Z</time></trkpt><trkpt lat="43.423315" lon="10.6466583"><ele>356.5</ele><time>2026-04-18T14:30:57.543Z</time></trkpt><trkpt lat="43.42344" lon="10.64673"><ele>353.0</ele><time>2026-04-18T14:30:58.543Z</time></trkpt><trkpt lat="43.423565" lon="10.6468017"><ele>349.5</ele><time>2026-04-18T14:30:59.543Z</time></trkpt><trkpt lat="43.42369" lon="10.6468633"><ele>346.0</ele><time>2026-04-18T14:31:00.543Z</time></trkpt><trkpt lat="43.4238133" lon="10.6469117"><ele>340.8</ele><time>2026-04-18T14:31:01.544Z</time></trkpt><trkpt lat="43.4239217" lon="10.6469683"><ele>335.6</ele><time>2026-04-18T14:31:02.543Z</time></trkpt><trkpt lat="43.42401" lon="10.647005"><ele>330.4</ele><time>2026-04-18T14:31:03.543Z</time></trkpt><trkpt lat="43.424095" lon="10.6470583"><ele>325.2</ele><time>2026-04-18T14:31:04.543Z</time></trkpt><trkpt lat="43.424175" lon="10.6471333"><ele>320.0</ele><time>2026-04-18T14:31:05.543Z</time></trkpt><trkpt lat="43.4242633" lon="10.6472167"><ele>320.0</ele><time>2026-04-18T14:31:06.544Z</time></trkpt><trkpt lat="43.4243583" lon="10.6473033"><ele>320.0</ele><time>2026-04-18T14:31:07.543Z</time></trkpt><trkpt lat="43.424445" lon="10.64739"><ele>320.0</ele><time>2026-04-18T14:31:08.544Z</time></trkpt><trkpt lat="43.424535" lon="10.64748"><ele>320.0</ele><time>2026-04-18T14:31:09.543Z</time></trkpt><trkpt lat="43.42462" lon="10.6475767"><ele>320.0</ele><time>2026-04-18T14:31:10.543Z</time></trkpt><trkpt lat="43.424705" lon="10.6476683"><ele>319.8</ele><time>2026-04-18T14:31:11.544Z</time></trkpt><trkpt lat="43.4247833" lon="10.6477467"><ele>319.6</ele><time>2026-04-18T14:31:12.543Z</time></trkpt><trkpt lat="43.4248617" lon="10.64784"><ele>319.4</ele><time>2026-04-18T14:31:13.544Z</time></trkpt><trkpt lat="43.424915" lon="10.647965"><ele>319.2</ele><time>2026-04-18T14:31:14.544Z</time></trkpt><trkpt lat="43.4249467" lon="10.648115"><ele>319.0</ele><time>2026-04-18T14:31:15.543Z</time></trkpt><trkpt lat="43.4249617" lon="10.6482733"><ele>316.4</ele><time>2026-04-18T14:31:16.543Z</time></trkpt><trkpt lat="43.42496" lon="10.6484383"><ele>313.79999999999995</ele><time>2026-04-18T14:31:17.543Z</time></trkpt><trkpt lat="43.4249567" lon="10.6485883"><ele>311.20000000000005</ele><time>2026-04-18T14:31:18.543Z</time></trkpt><trkpt lat="43.42496" lon="10.6487183"><ele>308.6</ele><time>2026-04-18T14:31:19.543Z</time></trkpt><trkpt lat="43.4249567" lon="10.6488333"><ele>306.0</ele><time>2026-04-18T14:31:20.544Z</time></trkpt><trkpt lat="43.42497" lon="10.6489333"><ele>305.6</ele><time>2026-04-18T14:31:21.543Z</time></trkpt><trkpt lat="43.425" lon="10.649045"><ele>305.20000000000005</ele><time>2026-04-18T14:31:22.544Z</time></trkpt><trkpt lat="43.425055" lon="10.649165"><ele>304.79999999999995</ele><time>2026-04-18T14:31:23.543Z</time></trkpt><trkpt lat="43.4251233" lon="10.64927"><ele>304.4</ele><time>2026-04-18T14:31:24.543Z</time></trkpt><trkpt lat="43.42519" lon="10.6493483"><ele>304.0</ele><time>2026-04-18T14:31:25.543Z</time></trkpt><trkpt lat="43.42528" lon="10.649455"><ele>303.25</ele><time>2026-04-18T14:31:27.543Z</time></trkpt><trkpt lat="43.42544" lon="10.6496967"><ele>302.5</ele><time>2026-04-18T14:31:31.544Z</time></trkpt><trkpt lat="43.42546" lon="10.649795"><ele>301.75</ele><time>2026-04-18T14:31:32.543Z</time></trkpt><trkpt lat="43.4254567" lon="10.6498967"><ele>301.0</ele><time>2026-04-18T14:31:33.543Z</time></trkpt><trkpt lat="43.4254433" lon="10.650005"><ele>301.0</ele><time>2026-04-18T14:31:34.543Z</time></trkpt><trkpt lat="43.4254117" lon="10.6501017"><ele>301.0</ele><time>2026-04-18T14:31:35.543Z</time></trkpt><trkpt lat="43.42539" lon="10.6502017"><ele>301.0</ele><time>2026-04-18T14:31:36.543Z</time></trkpt><trkpt lat="43.425375" lon="10.65029"><ele>301.0</ele><time>2026-04-18T14:31:37.543Z</time></trkpt><trkpt lat="43.4253483" lon="10.6504583"><ele>301.0</ele><time>2026-04-18T14:31:39.544Z</time></trkpt><trkpt lat="43.425345" lon="10.6505517"><ele>301.0</ele><time>2026-04-18T14:31:40.543Z</time></trkpt><trkpt lat="43.4253483" lon="10.6506567"><ele>298.66666666666663</ele><time>2026-04-18T14:31:41.543Z</time></trkpt><trkpt lat="43.4253617" lon="10.6507783"><ele>296.3333333333333</ele><time>2026-04-18T14:31:42.543Z</time></trkpt><trkpt lat="43.4253883" lon="10.6509017"><ele>294.0</ele><time>2026-04-18T14:31:43.543Z</time></trkpt><trkpt lat="43.425415" lon="10.651015"><ele>291.6666666666667</ele><time>2026-04-18T14:31:44.543Z</time></trkpt><trkpt lat="43.4254483" lon="10.6511217"><ele>289.33333333333337</ele><time>2026-04-18T14:31:45.543Z</time></trkpt><trkpt lat="43.4254933" lon="10.6512217"><ele>287.0</ele><time>2026-04-18T14:31:46.543Z</time></trkpt><trkpt lat="43.425545" lon="10.651315"><ele>283.4</ele><time>2026-04-18T14:31:47.543Z</time></trkpt><trkpt lat="43.4256217" lon="10.65141"><ele>279.79999999999995</ele><time>2026-04-18T14:31:48.543Z</time></trkpt><trkpt lat="43.425715" lon="10.651495"><ele>276.2</ele><time>2026-04-18T14:31:49.543Z</time></trkpt><trkpt lat="43.4258067" lon="10.6515683"><ele>272.59999999999997</ele><time>2026-04-18T14:31:50.544Z</time></trkpt><trkpt lat="43.425895" lon="10.6516283"><ele>269.0</ele><time>2026-04-18T14:31:51.543Z</time></trkpt><trkpt lat="43.425975" lon="10.6516783"><ele>269.0</ele><time>2026-04-18T14:31:52.543Z</time></trkpt><trkpt lat="43.4260517" lon="10.65173"><ele>269.0</ele><time>2026-04-18T14:31:53.543Z</time></trkpt><trkpt lat="43.4261233" lon="10.6517633"><ele>269.0</ele><time>2026-04-18T14:31:54.543Z</time></trkpt><trkpt lat="43.4261883" lon="10.65182"><ele>269.0</ele><time>2026-04-18T14:31:55.543Z</time></trkpt><trkpt lat="43.42625" lon="10.651905"><ele>269.0</ele><time>2026-04-18T14:31:56.543Z</time></trkpt><trkpt lat="43.42631" lon="10.6520033"><ele>269.0</ele><time>2026-04-18T14:31:57.544Z</time></trkpt><trkpt lat="43.42638" lon="10.6520867"><ele>264.75</ele><time>2026-04-18T14:31:58.543Z</time></trkpt><trkpt lat="43.4264467" lon="10.65216"><ele>260.5</ele><time>2026-04-18T14:31:59.543Z</time></trkpt><trkpt lat="43.4265133" lon="10.6522283"><ele>256.25</ele><time>2026-04-18T14:32:00.543Z</time></trkpt><trkpt lat="43.42658" lon="10.6522967"><ele>252.0</ele><time>2026-04-18T14:32:01.543Z</time></trkpt><trkpt lat="43.4268133" lon="10.6523917"><ele>252.0</ele><time>2026-04-18T14:32:04.543Z</time></trkpt><trkpt lat="43.426895" lon="10.6524017"><ele>252.0</ele><time>2026-04-18T14:32:05.543Z</time></trkpt><trkpt lat="43.4269733" lon="10.65242"><ele>252.0</ele><time>2026-04-18T14:32:06.544Z</time></trkpt><trkpt lat="43.42706" lon="10.652435"><ele>252.0</ele><time>2026-04-18T14:32:07.543Z</time></trkpt><trkpt lat="43.4271467" lon="10.65248"><ele>252.0</ele><time>2026-04-18T14:32:08.543Z</time></trkpt><trkpt lat="43.427245" lon="10.6525433"><ele>250.0</ele><time>2026-04-18T14:32:09.543Z</time></trkpt><trkpt lat="43.4273383" lon="10.6526067"><ele>248.0</ele><time>2026-04-18T14:32:10.543Z</time></trkpt><trkpt lat="43.427425" lon="10.6526717"><ele>246.0</ele><time>2026-04-18T14:32:11.543Z</time></trkpt><trkpt lat="43.42751" lon="10.6527433"><ele>244.0</ele><time>2026-04-18T14:32:12.544Z</time></trkpt><trkpt lat="43.4275717" lon="10.6528267"><ele>242.0</ele><time>2026-04-18T14:32:13.543Z</time></trkpt><trkpt lat="43.42762" lon="10.6529283"><ele>240.66666666666669</ele><time>2026-04-18T14:32:14.543Z</time></trkpt><trkpt lat="43.427645" lon="10.65303"><ele>239.33333333333334</ele><time>2026-04-18T14:32:15.543Z</time></trkpt><trkpt lat="43.4276533" lon="10.6531467"><ele>238.0</ele><time>2026-04-18T14:32:16.543Z</time></trkpt><trkpt lat="43.42765" lon="10.6532733"><ele>236.66666666666669</ele><time>2026-04-18T14:32:17.543Z</time></trkpt><trkpt lat="43.42763" lon="10.6533883"><ele>235.33333333333334</ele><time>2026-04-18T14:32:18.543Z</time></trkpt><trkpt lat="43.4276" lon="10.6534933"><ele>234.0</ele><time>2026-04-18T14:32:19.543Z</time></trkpt><trkpt lat="43.427555" lon="10.6536017"><ele>231.6</ele><time>2026-04-18T14:32:20.543Z</time></trkpt><trkpt lat="43.42749" lon="10.6537067"><ele>229.2</ele><time>2026-04-18T14:32:21.544Z</time></trkpt><trkpt lat="43.42742" lon="10.653815"><ele>226.79999999999998</ele><time>2026-04-18T14:32:22.543Z</time></trkpt><trkpt lat="43.4273567" lon="10.6539267"><ele>224.39999999999998</ele><time>2026-04-18T14:32:23.543Z</time></trkpt><trkpt lat="43.427305" lon="10.6540283"><ele>222.0</ele><time>2026-04-18T14:32:24.543Z</time></trkpt><trkpt lat="43.4272617" lon="10.6541217"><ele>222.0</ele><time>2026-04-18T14:32:25.543Z</time></trkpt><trkpt lat="43.427225" lon="10.6542167"><ele>222.0</ele><time>2026-04-18T14:32:26.543Z</time></trkpt><trkpt lat="43.427215" lon="10.6543283"><ele>222.0</ele><time>2026-04-18T14:32:27.543Z</time></trkpt><trkpt lat="43.4272217" lon="10.6544467"><ele>222.0</ele><time>2026-04-18T14:32:28.543Z</time></trkpt><trkpt lat="43.4272483" lon="10.65456"><ele>222.0</ele><time>2026-04-18T14:32:29.543Z</time></trkpt><trkpt lat="43.4272917" lon="10.65466"><ele>222.0</ele><time>2026-04-18T14:32:30.543Z</time></trkpt><trkpt lat="43.4273433" lon="10.6547417"><ele>219.6</ele><time>2026-04-18T14:32:31.543Z</time></trkpt><trkpt lat="43.4273967" lon="10.654805"><ele>217.2</ele><time>2026-04-18T14:32:32.543Z</time></trkpt><trkpt lat="43.4274617" lon="10.6548483"><ele>214.8</ele><time>2026-04-18T14:32:33.543Z</time></trkpt><trkpt lat="43.4275467" lon="10.6549067"><ele>212.4</ele><time>2026-04-18T14:32:34.543Z</time></trkpt><trkpt lat="43.427655" lon="10.6549683"><ele>210.0</ele><time>2026-04-18T14:32:35.543Z</time></trkpt><trkpt lat="43.428015" lon="10.65516"><ele>209.33333333333334</ele><time>2026-04-18T14:32:39.543Z</time></trkpt><trkpt lat="43.4280917" lon="10.655205"><ele>208.66666666666669</ele><time>2026-04-18T14:32:40.543Z</time></trkpt><trkpt lat="43.4281633" lon="10.65527"><ele>208.0</ele><time>2026-04-18T14:32:41.543Z</time></trkpt><trkpt lat="43.4282383" lon="10.6553367"><ele>207.33333333333334</ele><time>2026-04-18T14:32:42.544Z</time></trkpt><trkpt lat="43.4283117" lon="10.6554067"><ele>206.66666666666669</ele><time>2026-04-18T14:32:43.543Z</time></trkpt><trkpt lat="43.4283833" lon="10.6554867"><ele>206.0</ele><time>2026-04-18T14:32:44.543Z</time></trkpt><trkpt lat="43.4284483" lon="10.655565"><ele>204.00000000000003</ele><time>2026-04-18T14:32:45.543Z</time></trkpt><trkpt lat="43.4285083" lon="10.6556467"><ele>202.0</ele><time>2026-04-18T14:32:46.543Z</time></trkpt><trkpt lat="43.42856" lon="10.6557317"><ele>200.0</ele><time>2026-04-18T14:32:47.543Z</time></trkpt><trkpt lat="43.4286083" lon="10.6558233"><ele>198.0</ele><time>2026-04-18T14:32:48.544Z</time></trkpt><trkpt lat="43.4286567" lon="10.655905"><ele>196.00000000000003</ele><time>2026-04-18T14:32:49.543Z</time></trkpt><trkpt lat="43.4287083" lon="10.65598"><ele>194.0</ele><time>2026-04-18T14:32:50.543Z</time></trkpt><trkpt lat="43.4287617" lon="10.6560517"><ele>193.50000000000003</ele><time>2026-04-18T14:32:51.543Z</time></trkpt><trkpt lat="43.42882" lon="10.6561117"><ele>193.0</ele><time>2026-04-18T14:32:52.543Z</time></trkpt><trkpt lat="43.4288833" lon="10.6561583"><ele>192.5</ele><time>2026-04-18T14:32:53.543Z</time></trkpt><trkpt lat="43.4289517" lon="10.6561883"><ele>192.0</ele><time>2026-04-18T14:32:54.543Z</time></trkpt><trkpt lat="43.429025" lon="10.6562133"><ele>191.5</ele><time>2026-04-18T14:32:55.543Z</time></trkpt><trkpt lat="43.4291033" lon="10.656235"><ele>191.0</ele><time>2026-04-18T14:32:56.543Z</time></trkpt><trkpt lat="43.4291867" lon="10.6562633"><ele>189.60000000000002</ele><time>2026-04-18T14:32:57.543Z</time></trkpt><trkpt lat="43.4292433" lon="10.656305"><ele>188.2</ele><time>2026-04-18T14:32:58.543Z</time></trkpt><trkpt lat="43.429335" lon="10.6564017"><ele>186.8</ele><time>2026-04-18T14:33:00.543Z</time></trkpt><trkpt lat="43.42942" lon="10.6565167"><ele>185.39999999999998</ele><time>2026-04-18T14:33:02.543Z</time></trkpt><trkpt lat="43.42952" lon="10.65662"><ele>184.0</ele><time>2026-04-18T14:33:04.543Z</time></trkpt><trkpt lat="43.4296" lon="10.65668"><ele>184.0</ele><time>2026-04-18T14:33:05.544Z</time></trkpt><trkpt lat="43.42971" lon="10.6567517"><ele>184.0</ele><time>2026-04-18T14:33:06.543Z</time></trkpt><trkpt lat="43.4298567" lon="10.6568517"><ele>184.0</ele><time>2026-04-18T14:33:07.543Z</time></trkpt><trkpt lat="43.4300283" lon="10.6569683"><ele>183.5</ele><time>2026-04-18T14:33:08.543Z</time></trkpt><trkpt lat="43.4302067" lon="10.65708"><ele>183.0</ele><time>2026-04-18T14:33:09.543Z</time></trkpt><trkpt lat="43.431025" lon="10.65762"><ele>182.5</ele><time>2026-04-18T14:33:13.543Z</time></trkpt><trkpt lat="43.431245" lon="10.6577617"><ele>182.0</ele><time>2026-04-18T14:33:14.543Z</time></trkpt><trkpt lat="43.4314583" lon="10.6579083"><ele>181.5</ele><time>2026-04-18T14:33:15.542Z</time></trkpt><trkpt lat="43.43168" lon="10.658055"><ele>181.0</ele><time>2026-04-18T14:33:16.542Z</time></trkpt><trkpt lat="43.4318983" lon="10.6581933"><ele>181.0</ele><time>2026-04-18T14:33:17.542Z</time></trkpt><trkpt lat="43.4321" lon="10.65833"><ele>181.0</ele><time>2026-04-18T14:33:18.542Z</time></trkpt><trkpt lat="43.4322883" lon="10.65845"><ele>181.0</ele><time>2026-04-18T14:33:19.542Z</time></trkpt><trkpt lat="43.4324583" lon="10.6585717"><ele>180.25</ele><time>2026-04-18T14:33:20.542Z</time></trkpt><trkpt lat="43.4326133" lon="10.6586817"><ele>179.5</ele><time>2026-04-18T14:33:21.542Z</time></trkpt><trkpt lat="43.4327467" lon="10.6587717"><ele>178.75</ele><time>2026-04-18T14:33:22.542Z</time></trkpt><trkpt lat="43.4328483" lon="10.6588633"><ele>178.0</ele><time>2026-04-18T14:33:23.542Z</time></trkpt><trkpt lat="43.4329467" lon="10.6589717"><ele>177.75</ele><time>2026-04-18T14:33:24.542Z</time></trkpt><trkpt lat="43.4330417" lon="10.659105"><ele>177.5</ele><time>2026-04-18T14:33:25.542Z</time></trkpt><trkpt lat="43.4331217" lon="10.6592633"><ele>177.25</ele><time>2026-04-18T14:33:26.542Z</time></trkpt><trkpt lat="43.4332033" lon="10.6594083"><ele>177.0</ele><time>2026-04-18T14:33:27.543Z</time></trkpt><trkpt lat="43.4332817" lon="10.6595333"><ele>177.0</ele><time>2026-04-18T14:33:28.542Z</time></trkpt><trkpt lat="43.4333683" lon="10.6596433"><ele>177.0</ele><time>2026-04-18T14:33:29.542Z</time></trkpt><trkpt lat="43.4334967" lon="10.659725"><ele>177.0</ele><time>2026-04-18T14:33:30.542Z</time></trkpt><trkpt lat="43.433655" lon="10.6597733"><ele>177.0</ele><time>2026-04-18T14:33:31.542Z</time></trkpt><trkpt lat="43.4338433" lon="10.6598217"><ele>178.0</ele><time>2026-04-18T14:33:32.542Z</time></trkpt><trkpt lat="43.43405" lon="10.6598783"><ele>179.0</ele><time>2026-04-18T14:33:33.542Z</time></trkpt><trkpt lat="43.4342667" lon="10.6599517"><ele>180.0</ele><time>2026-04-18T14:33:34.542Z</time></trkpt><trkpt lat="43.434475" lon="10.66005"><ele>180.33333333333334</ele><time>2026-04-18T14:33:35.542Z</time></trkpt><trkpt lat="43.4346767" lon="10.6601433"><ele>180.66666666666669</ele><time>2026-04-18T14:33:36.542Z</time></trkpt><trkpt lat="43.4348783" lon="10.6602617"><ele>181.0</ele><time>2026-04-18T14:33:37.542Z</time></trkpt><trkpt lat="43.4350717" lon="10.6604033"><ele>179.66666666666669</ele><time>2026-04-18T14:33:38.542Z</time></trkpt><trkpt lat="43.435265" lon="10.6605417"><ele>178.33333333333334</ele><time>2026-04-18T14:33:39.542Z</time></trkpt><trkpt lat="43.4354533" lon="10.6606783"><ele>177.0</ele><time>2026-04-18T14:33:40.542Z</time></trkpt><trkpt lat="43.4356283" lon="10.6608167"><ele>177.0</ele><time>2026-04-18T14:33:41.542Z</time></trkpt><trkpt lat="43.4357983" lon="10.6609367"><ele>177.0</ele><time>2026-04-18T14:33:42.542Z</time></trkpt><trkpt lat="43.4359483" lon="10.6610733"><ele>177.0</ele><time>2026-04-18T14:33:43.542Z</time></trkpt><trkpt lat="43.4366083" lon="10.6615833"><ele>175.33333333333334</ele><time>2026-04-18T14:33:47.542Z</time></trkpt><trkpt lat="43.4367683" lon="10.661685"><ele>173.66666666666669</ele><time>2026-04-18T14:33:48.542Z</time></trkpt><trkpt lat="43.436915" lon="10.66177"><ele>172.0</ele><time>2026-04-18T14:33:49.542Z</time></trkpt><trkpt lat="43.437055" lon="10.6618417"><ele>170.33333333333334</ele><time>2026-04-18T14:33:50.542Z</time></trkpt><trkpt lat="43.43719" lon="10.6619"><ele>168.66666666666666</ele><time>2026-04-18T14:33:51.543Z</time></trkpt><trkpt lat="43.43734" lon="10.6619583"><ele>167.0</ele><time>2026-04-18T14:33:52.543Z</time></trkpt><trkpt lat="43.4375083" lon="10.6620217"><ele>167.0</ele><time>2026-04-18T14:33:53.542Z</time></trkpt><trkpt lat="43.437675" lon="10.662075"><ele>167.0</ele><time>2026-04-18T14:33:54.542Z</time></trkpt><trkpt lat="43.43784" lon="10.66212"><ele>167.0</ele><time>2026-04-18T14:33:55.542Z</time></trkpt><trkpt lat="43.4379967" lon="10.6621683"><ele>167.75</ele><time>2026-04-18T14:33:56.542Z</time></trkpt><trkpt lat="43.4381433" lon="10.6622217"><ele>168.5</ele><time>2026-04-18T14:33:57.542Z</time></trkpt><trkpt lat="43.4382783" lon="10.6622783"><ele>169.25</ele><time>2026-04-18T14:33:58.542Z</time></trkpt><trkpt lat="43.4384183" lon="10.6623283"><ele>170.0</ele><time>2026-04-18T14:33:59.542Z</time></trkpt><trkpt lat="43.438555" lon="10.6623783"><ele>170.0</ele><time>2026-04-18T14:34:00.542Z</time></trkpt><trkpt lat="43.438695" lon="10.66245"><ele>170.0</ele><time>2026-04-18T14:34:01.542Z</time></trkpt><trkpt lat="43.4388283" lon="10.6625283"><ele>170.0</ele><time>2026-04-18T14:34:02.543Z</time></trkpt><trkpt lat="43.43895" lon="10.6626233"><ele>170.0</ele><time>2026-04-18T14:34:03.543Z</time></trkpt><trkpt lat="43.43907" lon="10.6627483"><ele>169.66666666666666</ele><time>2026-04-18T14:34:04.542Z</time></trkpt><trkpt lat="43.4392017" lon="10.6629033"><ele>169.33333333333334</ele><time>2026-04-18T14:34:05.542Z</time></trkpt><trkpt lat="43.4393317" lon="10.663075"><ele>169.0</ele><time>2026-04-18T14:34:06.542Z</time></trkpt><trkpt lat="43.4394683" lon="10.6632783"><ele>169.0</ele><time>2026-04-18T14:34:07.542Z</time></trkpt><trkpt lat="43.4396" lon="10.66347"><ele>169.0</ele><time>2026-04-18T14:34:08.542Z</time></trkpt><trkpt lat="43.4397317" lon="10.6636483"><ele>169.0</ele><time>2026-04-18T14:34:09.542Z</time></trkpt><trkpt lat="43.4398617" lon="10.6638267"><ele>167.66666666666669</ele><time>2026-04-18T14:34:10.542Z</time></trkpt><trkpt lat="43.4399833" lon="10.6639867"><ele>166.33333333333334</ele><time>2026-04-18T14:34:11.542Z</time></trkpt><trkpt lat="43.440105" lon="10.6641383"><ele>165.0</ele><time>2026-04-18T14:34:12.542Z</time></trkpt><trkpt lat="43.440225" lon="10.6642883"><ele>165.0</ele><time>2026-04-18T14:34:13.542Z</time></trkpt><trkpt lat="43.440365" lon="10.6644183"><ele>165.0</ele><time>2026-04-18T14:34:14.542Z</time></trkpt><trkpt lat="43.4405233" lon="10.6645367"><ele>165.0</ele><time>2026-04-18T14:34:15.543Z</time></trkpt><trkpt lat="43.4406933" lon="10.664645"><ele>163.5</ele><time>2026-04-18T14:34:16.542Z</time></trkpt><trkpt lat="43.4408917" lon="10.6647467"><ele>162.0</ele><time>2026-04-18T14:34:17.542Z</time></trkpt><trkpt lat="43.4419" lon="10.6650683"><ele>163.0</ele><time>2026-04-18T14:34:21.542Z</time></trkpt><trkpt lat="43.4421433" lon="10.6651467"><ele>164.0</ele><time>2026-04-18T14:34:22.543Z</time></trkpt><trkpt lat="43.442385" lon="10.6652167"><ele>161.5</ele><time>2026-04-18T14:34:23.542Z</time></trkpt><trkpt lat="43.4426333" lon="10.6652883"><ele>159.0</ele><time>2026-04-18T14:34:24.542Z</time></trkpt><trkpt lat="43.4428783" lon="10.665365"><ele>158.0</ele><time>2026-04-18T14:34:25.542Z</time></trkpt><trkpt lat="43.4431183" lon="10.6654333"><ele>157.0</ele><time>2026-04-18T14:34:26.542Z</time></trkpt><trkpt lat="43.4433433" lon="10.6654967"><ele>157.0</ele><time>2026-04-18T14:34:27.543Z</time></trkpt><trkpt lat="43.44355" lon="10.6655733"><ele>157.0</ele><time>2026-04-18T14:34:28.542Z</time></trkpt><trkpt lat="43.443765" lon="10.6656483"><ele>157.0</ele><time>2026-04-18T14:34:29.542Z</time></trkpt><trkpt lat="43.4439783" lon="10.665725"><ele>157.0</ele><time>2026-04-18T14:34:30.542Z</time></trkpt><trkpt lat="43.444195" lon="10.665815"><ele>157.0</ele><time>2026-04-18T14:34:31.542Z</time></trkpt><trkpt lat="43.4444167" lon="10.665905"><ele>156.5</ele><time>2026-04-18T14:34:32.542Z</time></trkpt><trkpt lat="43.4446367" lon="10.6659917"><ele>156.0</ele><time>2026-04-18T14:34:33.543Z</time></trkpt><trkpt lat="43.4448633" lon="10.66608"><ele>154.5</ele><time>2026-04-18T14:34:34.543Z</time></trkpt><trkpt lat="43.4450983" lon="10.6661783"><ele>153.0</ele><time>2026-04-18T14:34:35.542Z</time></trkpt><trkpt lat="43.4453417" lon="10.666275"><ele>153.0</ele><time>2026-04-18T14:34:36.542Z</time></trkpt><trkpt lat="43.4455917" lon="10.6663783"><ele>153.0</ele><time>2026-04-18T14:34:37.542Z</time></trkpt><trkpt lat="43.44584" lon="10.6664717"><ele>153.0</ele><time>2026-04-18T14:34:38.542Z</time></trkpt><trkpt lat="43.4460867" lon="10.666565"><ele>153.0</ele><time>2026-04-18T14:34:39.542Z</time></trkpt><trkpt lat="43.446335" lon="10.666665"><ele>152.0</ele><time>2026-04-18T14:34:40.543Z</time></trkpt><trkpt lat="43.4465833" lon="10.666765"><ele>151.0</ele><time>2026-04-18T14:34:41.542Z</time></trkpt><trkpt lat="43.4468183" lon="10.66686"><ele>150.5</ele><time>2026-04-18T14:34:42.543Z</time></trkpt><trkpt lat="43.4470417" lon="10.6669483"><ele>150.0</ele><time>2026-04-18T14:34:43.543Z</time></trkpt><trkpt lat="43.4472567" lon="10.6670383"><ele>150.0</ele><time>2026-04-18T14:34:44.542Z</time></trkpt><trkpt lat="43.4474733" lon="10.6671317"><ele>150.0</ele><time>2026-04-18T14:34:45.542Z</time></trkpt><trkpt lat="43.4476933" lon="10.667215"><ele>150.0</ele><time>2026-04-18T14:34:46.542Z</time></trkpt><trkpt lat="43.4478967" lon="10.6673"><ele>150.0</ele><time>2026-04-18T14:34:47.542Z</time></trkpt><trkpt lat="43.4480883" lon="10.66738"><ele>150.0</ele><time>2026-04-18T14:34:48.542Z</time></trkpt><trkpt lat="43.448275" lon="10.6674467"><ele>150.0</ele><time>2026-04-18T14:34:49.542Z</time></trkpt><trkpt lat="43.44845" lon="10.6675083"><ele>150.0</ele><time>2026-04-18T14:34:50.542Z</time></trkpt><trkpt lat="43.44863" lon="10.6675633"><ele>150.0</ele><time>2026-04-18T14:34:51.542Z</time></trkpt><trkpt lat="43.449185" lon="10.667635"><ele>150.33333333333334</ele><time>2026-04-18T14:34:54.542Z</time></trkpt><trkpt lat="43.44935" lon="10.66764"><ele>150.66666666666669</ele><time>2026-04-18T14:34:55.542Z</time></trkpt><trkpt lat="43.4495133" lon="10.66761"><ele>151.0</ele><time>2026-04-18T14:34:56.542Z</time></trkpt><trkpt lat="43.4496867" lon="10.6675367"><ele>150.33333333333334</ele><time>2026-04-18T14:34:57.542Z</time></trkpt><trkpt lat="43.44985" lon="10.6674483"><ele>149.66666666666666</ele><time>2026-04-18T14:34:58.542Z</time></trkpt><trkpt lat="43.45" lon="10.667375"><ele>149.0</ele><time>2026-04-18T14:34:59.542Z</time></trkpt><trkpt lat="43.4501483" lon="10.6673067"><ele>149.0</ele><time>2026-04-18T14:35:00.542Z</time></trkpt><trkpt lat="43.4502867" lon="10.6672717"><ele>149.0</ele><time>2026-04-18T14:35:01.543Z</time></trkpt><trkpt lat="43.450445" lon="10.6672633"><ele>149.0</ele><time>2026-04-18T14:35:02.543Z</time></trkpt><trkpt lat="43.4506267" lon="10.6672667"><ele>149.0</ele><time>2026-04-18T14:35:03.542Z</time></trkpt><trkpt lat="43.4508067" lon="10.6672917"><ele>149.0</ele><time>2026-04-18T14:35:04.542Z</time></trkpt><trkpt lat="43.4509833" lon="10.6673217"><ele>149.0</ele><time>2026-04-18T14:35:05.542Z</time></trkpt><trkpt lat="43.4511483" lon="10.667365"><ele>149.66666666666666</ele><time>2026-04-18T14:35:06.543Z</time></trkpt><trkpt lat="43.4513233" lon="10.667405"><ele>150.33333333333334</ele><time>2026-04-18T14:35:07.542Z</time></trkpt><trkpt lat="43.4515117" lon="10.6674417"><ele>151.0</ele><time>2026-04-18T14:35:08.542Z</time></trkpt><trkpt lat="43.4517" lon="10.66748"><ele>151.0</ele><time>2026-04-18T14:35:09.543Z</time></trkpt><trkpt lat="43.4518783" lon="10.66752"><ele>151.0</ele><time>2026-04-18T14:35:10.542Z</time></trkpt><trkpt lat="43.4520467" lon="10.6675517"><ele>151.0</ele><time>2026-04-18T14:35:11.542Z</time></trkpt><trkpt lat="43.4522017" lon="10.6675783"><ele>150.5</ele><time>2026-04-18T14:35:12.542Z</time></trkpt><trkpt lat="43.4523483" lon="10.667595"><ele>150.0</ele><time>2026-04-18T14:35:13.542Z</time></trkpt><trkpt lat="43.4524983" lon="10.6675933"><ele>149.5</ele><time>2026-04-18T14:35:14.542Z</time></trkpt><trkpt lat="43.4526417" lon="10.6675917"><ele>149.0</ele><time>2026-04-18T14:35:15.542Z</time></trkpt><trkpt lat="43.4527867" lon="10.6675833"><ele>149.0</ele><time>2026-04-18T14:35:16.542Z</time></trkpt><trkpt lat="43.4529367" lon="10.6675783"><ele>149.0</ele><time>2026-04-18T14:35:17.542Z</time></trkpt><trkpt lat="43.4530717" lon="10.6675833"><ele>149.0</ele><time>2026-04-18T14:35:18.542Z</time></trkpt><trkpt lat="43.4532067" lon="10.6675833"><ele>149.0</ele><time>2026-04-18T14:35:19.542Z</time></trkpt><trkpt lat="43.4533383" lon="10.6675933"><ele>148.66666666666666</ele><time>2026-04-18T14:35:20.542Z</time></trkpt><trkpt lat="43.4534867" lon="10.6675933"><ele>148.33333333333334</ele><time>2026-04-18T14:35:21.542Z</time></trkpt><trkpt lat="43.45364" lon="10.6676233"><ele>148.0</ele><time>2026-04-18T14:35:22.542Z</time></trkpt><trkpt lat="43.453815" lon="10.6676483"><ele>147.0</ele><time>2026-04-18T14:35:23.542Z</time></trkpt><trkpt lat="43.45399" lon="10.6676817"><ele>146.0</ele><time>2026-04-18T14:35:24.542Z</time></trkpt><trkpt lat="43.4541733" lon="10.6677083"><ele>145.0</ele><time>2026-04-18T14:35:25.542Z</time></trkpt><trkpt lat="43.454975" lon="10.6678617"><ele>144.66666666666669</ele><time>2026-04-18T14:35:29.542Z</time></trkpt><trkpt lat="43.45516" lon="10.66789"><ele>144.33333333333334</ele><time>2026-04-18T14:35:30.542Z</time></trkpt><trkpt lat="43.4553117" lon="10.667925"><ele>144.0</ele><time>2026-04-18T14:35:31.542Z</time></trkpt><trkpt lat="43.4554533" lon="10.6679483"><ele>143.75</ele><time>2026-04-18T14:35:32.542Z</time></trkpt><trkpt lat="43.455585" lon="10.6679817"><ele>143.5</ele><time>2026-04-18T14:35:33.542Z</time></trkpt><trkpt lat="43.4557233" lon="10.6680283"><ele>143.25</ele><time>2026-04-18T14:35:34.542Z</time></trkpt><trkpt lat="43.4558867" lon="10.66809"><ele>143.0</ele><time>2026-04-18T14:35:35.542Z</time></trkpt><trkpt lat="43.4560617" lon="10.6681983"><ele>143.0</ele><time>2026-04-18T14:35:36.542Z</time></trkpt><trkpt lat="43.456245" lon="10.66833"><ele>143.0</ele><time>2026-04-18T14:35:37.543Z</time></trkpt><trkpt lat="43.45644" lon="10.6684733"><ele>143.0</ele><time>2026-04-18T14:35:38.542Z</time></trkpt><trkpt lat="43.4566317" lon="10.6686117"><ele>142.33333333333331</ele><time>2026-04-18T14:35:39.542Z</time></trkpt><trkpt lat="43.4568283" lon="10.668755"><ele>141.66666666666666</ele><time>2026-04-18T14:35:40.542Z</time></trkpt><trkpt lat="43.4570233" lon="10.6688967"><ele>141.0</ele><time>2026-04-18T14:35:41.542Z</time></trkpt><trkpt lat="43.4572217" lon="10.6690417"><ele>140.66666666666666</ele><time>2026-04-18T14:35:42.542Z</time></trkpt><trkpt lat="43.45742" lon="10.669185"><ele>140.33333333333331</ele><time>2026-04-18T14:35:43.542Z</time></trkpt><trkpt lat="43.4576183" lon="10.6693317"><ele>140.0</ele><time>2026-04-18T14:35:44.542Z</time></trkpt><trkpt lat="43.4578217" lon="10.6694833"><ele>139.5</ele><time>2026-04-18T14:35:45.542Z</time></trkpt><trkpt lat="43.458035" lon="10.6696283"><ele>139.0</ele><time>2026-04-18T14:35:46.542Z</time></trkpt><trkpt lat="43.458245" lon="10.6697833"><ele>139.0</ele><time>2026-04-18T14:35:47.542Z</time></trkpt><trkpt lat="43.4584667" lon="10.6699367"><ele>139.0</ele><time>2026-04-18T14:35:48.542Z</time></trkpt><trkpt lat="43.4586783" lon="10.6700967"><ele>140.0</ele><time>2026-04-18T14:35:49.542Z</time></trkpt><trkpt lat="43.458895" lon="10.67026"><ele>141.0</ele><time>2026-04-18T14:35:50.542Z</time></trkpt><trkpt lat="43.45912" lon="10.6704133"><ele>138.0</ele><time>2026-04-18T14:35:51.542Z</time></trkpt><trkpt lat="43.45935" lon="10.670575"><ele>135.0</ele><time>2026-04-18T14:35:52.542Z</time></trkpt><trkpt lat="43.4595833" lon="10.6707367"><ele>136.0</ele><time>2026-04-18T14:35:53.542Z</time></trkpt><trkpt lat="43.4598267" lon="10.6709083"><ele>137.0</ele><time>2026-04-18T14:35:54.542Z</time></trkpt><trkpt lat="43.4600767" lon="10.671085"><ele>135.0</ele><time>2026-04-18T14:35:55.542Z</time></trkpt><trkpt lat="43.4603267" lon="10.671265"><ele>133.0</ele><time>2026-04-18T14:35:56.542Z</time></trkpt><trkpt lat="43.46059" lon="10.6714583"><ele>132.5</ele><time>2026-04-18T14:35:57.542Z</time></trkpt><trkpt lat="43.4608567" lon="10.6716467"><ele>132.0</ele><time>2026-04-18T14:35:58.542Z</time></trkpt><trkpt lat="43.4611017" lon="10.671825"><ele>131.0</ele><time>2026-04-18T14:35:59.542Z</time></trkpt><trkpt lat="43.461755" lon="10.672295"><ele>131.0</ele><time>2026-04-18T14:36:02.543Z</time></trkpt><trkpt lat="43.4619717" lon="10.6724517"><ele>131.0</ele><time>2026-04-18T14:36:03.542Z</time></trkpt><trkpt lat="43.4621783" lon="10.6726017"><ele>130.66666666666666</ele><time>2026-04-18T14:36:04.542Z</time></trkpt><trkpt lat="43.462375" lon="10.6727383"><ele>130.33333333333334</ele><time>2026-04-18T14:36:05.542Z</time></trkpt><trkpt lat="43.4625533" lon="10.6728633"><ele>130.0</ele><time>2026-04-18T14:36:06.542Z</time></trkpt><trkpt lat="43.46274" lon="10.6729983"><ele>130.0</ele><time>2026-04-18T14:36:07.542Z</time></trkpt><trkpt lat="43.4629417" lon="10.6731433"><ele>130.0</ele><time>2026-04-18T14:36:08.543Z</time></trkpt><trkpt lat="43.4631533" lon="10.6732933"><ele>131.0</ele><time>2026-04-18T14:36:09.542Z</time></trkpt><trkpt lat="43.4633717" lon="10.673455"><ele>132.0</ele><time>2026-04-18T14:36:10.542Z</time></trkpt><trkpt lat="43.4636" lon="10.6736183"><ele>130.0</ele><time>2026-04-18T14:36:11.542Z</time></trkpt><trkpt lat="43.4638283" lon="10.6737817"><ele>128.0</ele><time>2026-04-18T14:36:12.542Z</time></trkpt><trkpt lat="43.4640467" lon="10.6739417"><ele>128.0</ele><time>2026-04-18T14:36:13.542Z</time></trkpt><trkpt lat="43.4642483" lon="10.6740933"><ele>128.0</ele><time>2026-04-18T14:36:14.542Z</time></trkpt><trkpt lat="43.464435" lon="10.6742433"><ele>128.0</ele><time>2026-04-18T14:36:15.542Z</time></trkpt><trkpt lat="43.46461" lon="10.67439"><ele>127.33333333333333</ele><time>2026-04-18T14:36:16.542Z</time></trkpt><trkpt lat="43.4647767" lon="10.6745583"><ele>126.66666666666666</ele><time>2026-04-18T14:36:17.542Z</time></trkpt><trkpt lat="43.4649267" lon="10.674745"><ele>126.0</ele><time>2026-04-18T14:36:18.542Z</time></trkpt><trkpt lat="43.46507" lon="10.6749383"><ele>126.0</ele><time>2026-04-18T14:36:19.542Z</time></trkpt><trkpt lat="43.4652083" lon="10.675155"><ele>126.0</ele><time>2026-04-18T14:36:20.542Z</time></trkpt><trkpt lat="43.4653267" lon="10.675395"><ele>126.0</ele><time>2026-04-18T14:36:21.542Z</time></trkpt><trkpt lat="43.46544" lon="10.67565"><ele>127.0</ele><time>2026-04-18T14:36:22.542Z</time></trkpt><trkpt lat="43.46555" lon="10.6759317"><ele>128.0</ele><time>2026-04-18T14:36:23.542Z</time></trkpt><trkpt lat="43.46566" lon="10.6762233"><ele>128.0</ele><time>2026-04-18T14:36:24.542Z</time></trkpt><trkpt lat="43.4657733" lon="10.6765183"><ele>128.0</ele><time>2026-04-18T14:36:25.542Z</time></trkpt><trkpt lat="43.465885" lon="10.6768183"><ele>126.5</ele><time>2026-04-18T14:36:26.542Z</time></trkpt><trkpt lat="43.4659967" lon="10.67711"><ele>125.0</ele><time>2026-04-18T14:36:27.543Z</time></trkpt><trkpt lat="43.46611" lon="10.6773933"><ele>125.0</ele><time>2026-04-18T14:36:28.542Z</time></trkpt><trkpt lat="43.4662117" lon="10.677665"><ele>125.0</ele><time>2026-04-18T14:36:29.542Z</time></trkpt><trkpt lat="43.4663133" lon="10.6779217"><ele>125.0</ele><time>2026-04-18T14:36:30.543Z</time></trkpt><trkpt lat="43.466415" lon="10.67818"><ele>127.0</ele><time>2026-04-18T14:36:31.542Z</time></trkpt><trkpt lat="43.466515" lon="10.6784267"><ele>129.0</ele><time>2026-04-18T14:36:32.542Z</time></trkpt><trkpt lat="43.4670033" lon="10.6794383"><ele>125.0</ele><time>2026-04-18T14:36:36.542Z</time></trkpt><trkpt lat="43.4671517" lon="10.6796867"><ele>121.0</ele><time>2026-04-18T14:36:37.543Z</time></trkpt><trkpt lat="43.4673033" lon="10.6799467"><ele>121.0</ele><time>2026-04-18T14:36:38.542Z</time></trkpt><trkpt lat="43.4674567" lon="10.68021"><ele>121.0</ele><time>2026-04-18T14:36:39.541Z</time></trkpt><trkpt lat="43.467615" lon="10.6804733"><ele>120.0</ele><time>2026-04-18T14:36:40.542Z</time></trkpt><trkpt lat="43.4677583" lon="10.680725"><ele>119.0</ele><time>2026-04-18T14:36:41.541Z</time></trkpt><trkpt lat="43.467895" lon="10.68096"><ele>121.33333333333333</ele><time>2026-04-18T14:36:42.541Z</time></trkpt><trkpt lat="43.4680267" lon="10.6811833"><ele>123.66666666666666</ele><time>2026-04-18T14:36:43.541Z</time></trkpt><trkpt lat="43.46816" lon="10.6814"><ele>126.0</ele><time>2026-04-18T14:36:44.541Z</time></trkpt><trkpt lat="43.4682833" lon="10.6816233"><ele>126.0</ele><time>2026-04-18T14:36:45.541Z</time></trkpt><trkpt lat="43.468405" lon="10.6818283"><ele>126.0</ele><time>2026-04-18T14:36:46.541Z</time></trkpt><trkpt lat="43.4685233" lon="10.68204"><ele>126.0</ele><time>2026-04-18T14:36:47.541Z</time></trkpt><trkpt lat="43.4686267" lon="10.682225"><ele>124.66666666666666</ele><time>2026-04-18T14:36:48.541Z</time></trkpt><trkpt lat="43.4687333" lon="10.68238"><ele>123.33333333333333</ele><time>2026-04-18T14:36:49.541Z</time></trkpt><trkpt lat="43.4688033" lon="10.6825667"><ele>122.0</ele><time>2026-04-18T14:36:50.541Z</time></trkpt><trkpt lat="43.4688467" lon="10.6827917"><ele>121.33333333333333</ele><time>2026-04-18T14:36:51.541Z</time></trkpt><trkpt lat="43.46885" lon="10.6830183"><ele>120.66666666666666</ele><time>2026-04-18T14:36:52.541Z</time></trkpt><trkpt lat="43.468815" lon="10.683255"><ele>120.0</ele><time>2026-04-18T14:36:53.541Z</time></trkpt><trkpt lat="43.46876" lon="10.68347"><ele>119.25</ele><time>2026-04-18T14:36:54.542Z</time></trkpt><trkpt lat="43.468735" lon="10.6836367"><ele>118.5</ele><time>2026-04-18T14:36:55.542Z</time></trkpt><trkpt lat="43.4687317" lon="10.6837933"><ele>117.75</ele><time>2026-04-18T14:36:56.541Z</time></trkpt><trkpt lat="43.46874" lon="10.6839517"><ele>117.0</ele><time>2026-04-18T14:36:57.541Z</time></trkpt><trkpt lat="43.46879" lon="10.6841267"><ele>117.0</ele><time>2026-04-18T14:36:58.541Z</time></trkpt><trkpt lat="43.46887" lon="10.6842883"><ele>117.0</ele><time>2026-04-18T14:36:59.542Z</time></trkpt><trkpt lat="43.4689583" lon="10.6844283"><ele>117.0</ele><time>2026-04-18T14:37:00.541Z</time></trkpt><trkpt lat="43.4690833" lon="10.6845633"><ele>117.0</ele><time>2026-04-18T14:37:01.541Z</time></trkpt><trkpt lat="43.4692433" lon="10.6847"><ele>117.0</ele><time>2026-04-18T14:37:02.541Z</time></trkpt><trkpt lat="43.4694167" lon="10.6848367"><ele>117.0</ele><time>2026-04-18T14:37:03.541Z</time></trkpt><trkpt lat="43.469585" lon="10.6849583"><ele>117.0</ele><time>2026-04-18T14:37:04.541Z</time></trkpt><trkpt lat="43.4697417" lon="10.6850683"><ele>115.0</ele><time>2026-04-18T14:37:05.541Z</time></trkpt><trkpt lat="43.4698983" lon="10.6852117"><ele>113.0</ele><time>2026-04-18T14:37:06.541Z</time></trkpt><trkpt lat="43.4704217" lon="10.6856133"><ele>113.33333333333333</ele><time>2026-04-18T14:37:09.541Z</time></trkpt><trkpt lat="43.4706217" lon="10.685735"><ele>113.66666666666666</ele><time>2026-04-18T14:37:10.541Z</time></trkpt><trkpt lat="43.47082" lon="10.685855"><ele>114.0</ele><time>2026-04-18T14:37:11.541Z</time></trkpt><trkpt lat="43.47101" lon="10.6859867"><ele>113.66666666666666</ele><time>2026-04-18T14:37:12.541Z</time></trkpt><trkpt lat="43.471195" lon="10.6861317"><ele>113.33333333333333</ele><time>2026-04-18T14:37:13.542Z</time></trkpt><trkpt lat="43.4713783" lon="10.6862967"><ele>113.0</ele><time>2026-04-18T14:37:14.542Z</time></trkpt><trkpt lat="43.4715417" lon="10.6864883"><ele>113.0</ele><time>2026-04-18T14:37:15.542Z</time></trkpt><trkpt lat="43.4716967" lon="10.686695"><ele>113.0</ele><time>2026-04-18T14:37:16.541Z</time></trkpt><trkpt lat="43.47185" lon="10.686935"><ele>113.0</ele><time>2026-04-18T14:37:17.541Z</time></trkpt><trkpt lat="43.472" lon="10.6872033"><ele>113.0</ele><time>2026-04-18T14:37:18.541Z</time></trkpt><trkpt lat="43.4721433" lon="10.687495"><ele>113.0</ele><time>2026-04-18T14:37:19.542Z</time></trkpt><trkpt lat="43.4722783" lon="10.6877683"><ele>111.5</ele><time>2026-04-18T14:37:20.541Z</time></trkpt><trkpt lat="43.47241" lon="10.688045"><ele>110.0</ele><time>2026-04-18T14:37:21.542Z</time></trkpt><trkpt lat="43.4725417" lon="10.6883417"><ele>109.0</ele><time>2026-04-18T14:37:22.541Z</time></trkpt><trkpt lat="43.4726717" lon="10.688655"><ele>108.0</ele><time>2026-04-18T14:37:23.541Z</time></trkpt><trkpt lat="43.4728067" lon="10.6889883"><ele>110.0</ele><time>2026-04-18T14:37:24.541Z</time></trkpt><trkpt lat="43.4729433" lon="10.6893483"><ele>112.0</ele><time>2026-04-18T14:37:25.541Z</time></trkpt><trkpt lat="43.47308" lon="10.6896933"><ele>112.0</ele><time>2026-04-18T14:37:26.541Z</time></trkpt><trkpt lat="43.4732117" lon="10.6900283"><ele>112.0</ele><time>2026-04-18T14:37:27.541Z</time></trkpt><trkpt lat="43.47334" lon="10.690365"><ele>110.0</ele><time>2026-04-18T14:37:28.541Z</time></trkpt><trkpt lat="43.4734717" lon="10.6907033"><ele>108.0</ele><time>2026-04-18T14:37:29.541Z</time></trkpt><trkpt lat="43.473605" lon="10.6910567"><ele>108.0</ele><time>2026-04-18T14:37:30.541Z</time></trkpt><trkpt lat="43.473745" lon="10.6914117"><ele>108.0</ele><time>2026-04-18T14:37:31.541Z</time></trkpt><trkpt lat="43.4738833" lon="10.6917783"><ele>108.5</ele><time>2026-04-18T14:37:32.541Z</time></trkpt><trkpt lat="43.4740233" lon="10.6921483"><ele>109.0</ele><time>2026-04-18T14:37:33.541Z</time></trkpt><trkpt lat="43.47415" lon="10.6925"><ele>107.5</ele><time>2026-04-18T14:37:34.541Z</time></trkpt><trkpt lat="43.474275" lon="10.6928233"><ele>106.0</ele><time>2026-04-18T14:37:35.541Z</time></trkpt><trkpt lat="43.4743833" lon="10.6931317"><ele>106.0</ele><time>2026-04-18T14:37:36.541Z</time></trkpt><trkpt lat="43.4744933" lon="10.693425"><ele>106.0</ele><time>2026-04-18T14:37:37.541Z</time></trkpt><trkpt lat="43.474605" lon="10.6937033"><ele>105.33333333333334</ele><time>2026-04-18T14:37:38.541Z</time></trkpt><trkpt lat="43.4747017" lon="10.6939633"><ele>104.66666666666666</ele><time>2026-04-18T14:37:39.541Z</time></trkpt><trkpt lat="43.47479" lon="10.694195"><ele>104.0</ele><time>2026-04-18T14:37:40.541Z</time></trkpt><trkpt lat="43.4750633" lon="10.6947683"><ele>104.0</ele><time>2026-04-18T14:37:43.542Z</time></trkpt><trkpt lat="43.4751733" lon="10.6949767"><ele>104.0</ele><time>2026-04-18T14:37:44.541Z</time></trkpt><trkpt lat="43.4753017" lon="10.6952033"><ele>104.0</ele><time>2026-04-18T14:37:45.542Z</time></trkpt><trkpt lat="43.4754383" lon="10.6954467"><ele>105.0</ele><time>2026-04-18T14:37:46.542Z</time></trkpt><trkpt lat="43.4755817" lon="10.6957017"><ele>106.0</ele><time>2026-04-18T14:37:47.542Z</time></trkpt><trkpt lat="43.475715" lon="10.695945"><ele>104.66666666666667</ele><time>2026-04-18T14:37:48.542Z</time></trkpt><trkpt lat="43.47584" lon="10.696175"><ele>103.33333333333334</ele><time>2026-04-18T14:37:49.541Z</time></trkpt><trkpt lat="43.4759683" lon="10.696395"><ele>102.0</ele><time>2026-04-18T14:37:50.541Z</time></trkpt><trkpt lat="43.4760933" lon="10.696605"><ele>102.0</ele><time>2026-04-18T14:37:51.541Z</time></trkpt><trkpt lat="43.4762167" lon="10.6968167"><ele>102.0</ele><time>2026-04-18T14:37:52.541Z</time></trkpt><trkpt lat="43.4763483" lon="10.6970317"><ele>102.0</ele><time>2026-04-18T14:37:53.541Z</time></trkpt><trkpt lat="43.4764767" lon="10.6972317"><ele>101.5</ele><time>2026-04-18T14:37:54.541Z</time></trkpt><trkpt lat="43.476605" lon="10.6974083"><ele>101.0</ele><time>2026-04-18T14:37:55.541Z</time></trkpt><trkpt lat="43.476715" lon="10.69755"><ele>100.5</ele><time>2026-04-18T14:37:56.541Z</time></trkpt><trkpt lat="43.47679" lon="10.6976567"><ele>100.0</ele><time>2026-04-18T14:37:57.541Z</time></trkpt><trkpt lat="43.4768483" lon="10.69773"><ele>99.4</ele><time>2026-04-18T14:37:58.541Z</time></trkpt><trkpt lat="43.4769333" lon="10.6978333"><ele>98.8</ele><time>2026-04-18T14:38:00.541Z</time></trkpt><trkpt lat="43.4769883" lon="10.6978883"><ele>98.19999999999999</ele><time>2026-04-18T14:38:02.541Z</time></trkpt><trkpt lat="43.4770467" lon="10.6979617"><ele>97.6</ele><time>2026-04-18T14:38:04.541Z</time></trkpt><trkpt lat="43.4771067" lon="10.6980383"><ele>97.0</ele><time>2026-04-18T14:38:05.541Z</time></trkpt><trkpt lat="43.4771867" lon="10.6981417"><ele>96.8</ele><time>2026-04-18T14:38:06.541Z</time></trkpt><trkpt lat="43.4772717" lon="10.6982467"><ele>96.6</ele><time>2026-04-18T14:38:07.541Z</time></trkpt><trkpt lat="43.47735" lon="10.69834"><ele>96.39999999999999</ele><time>2026-04-18T14:38:08.542Z</time></trkpt><trkpt lat="43.4774183" lon="10.6984217"><ele>96.19999999999999</ele><time>2026-04-18T14:38:09.541Z</time></trkpt><trkpt lat="43.47747" lon="10.6984817"><ele>96.0</ele><time>2026-04-18T14:38:10.541Z</time></trkpt><trkpt lat="43.4775583" lon="10.6985033"><ele>96.0</ele><time>2026-04-18T14:38:12.541Z</time></trkpt><trkpt lat="43.47781" lon="10.6981783"><ele>96.0</ele><time>2026-04-18T14:38:16.541Z</time></trkpt><trkpt lat="43.477915" lon="10.6980767"><ele>96.0</ele><time>2026-04-18T14:38:17.541Z</time></trkpt><trkpt lat="43.4780333" lon="10.69798"><ele>96.0</ele><time>2026-04-18T14:38:18.541Z</time></trkpt><trkpt lat="43.47816" lon="10.697885"><ele>96.0</ele><time>2026-04-18T14:38:19.542Z</time></trkpt><trkpt lat="43.4782967" lon="10.6977817"><ele>96.0</ele><time>2026-04-18T14:38:20.541Z</time></trkpt><trkpt lat="43.478425" lon="10.697685"><ele>96.5</ele><time>2026-04-18T14:38:21.541Z</time></trkpt><trkpt lat="43.4785417" lon="10.6975917"><ele>97.0</ele><time>2026-04-18T14:38:22.541Z</time></trkpt><trkpt lat="43.4786433" lon="10.6975"><ele>97.5</ele><time>2026-04-18T14:38:23.541Z</time></trkpt><trkpt lat="43.4787217" lon="10.6974033"><ele>98.0</ele><time>2026-04-18T14:38:24.541Z</time></trkpt><trkpt lat="43.4788" lon="10.697265"><ele>100.0</ele><time>2026-04-18T14:38:25.541Z</time></trkpt><trkpt lat="43.47886" lon="10.6970933"><ele>102.0</ele><time>2026-04-18T14:38:26.541Z</time></trkpt><trkpt lat="43.4789117" lon="10.6968867"><ele>104.0</ele><time>2026-04-18T14:38:27.541Z</time></trkpt><trkpt lat="43.4789567" lon="10.6966467"><ele>104.0</ele><time>2026-04-18T14:38:28.541Z</time></trkpt><trkpt lat="43.4789933" lon="10.6964017"><ele>104.0</ele><time>2026-04-18T14:38:29.541Z</time></trkpt><trkpt lat="43.4790333" lon="10.6961733"><ele>104.0</ele><time>2026-04-18T14:38:30.541Z</time></trkpt><trkpt lat="43.4790867" lon="10.6959483"><ele>104.33333333333333</ele><time>2026-04-18T14:38:31.541Z</time></trkpt><trkpt lat="43.4791517" lon="10.6957133"><ele>104.66666666666666</ele><time>2026-04-18T14:38:32.541Z</time></trkpt><trkpt lat="43.4792217" lon="10.69548"><ele>105.0</ele><time>2026-04-18T14:38:33.541Z</time></trkpt><trkpt lat="43.4793033" lon="10.6952583"><ele>104.33333333333334</ele><time>2026-04-18T14:38:34.541Z</time></trkpt><trkpt lat="43.4794" lon="10.6950483"><ele>103.66666666666667</ele><time>2026-04-18T14:38:35.541Z</time></trkpt><trkpt lat="43.4794983" lon="10.6948533"><ele>103.0</ele><time>2026-04-18T14:38:36.541Z</time></trkpt><trkpt lat="43.47961" lon="10.6946617"><ele>104.33333333333334</ele><time>2026-04-18T14:38:37.541Z</time></trkpt><trkpt lat="43.4797267" lon="10.694475"><ele>105.66666666666666</ele><time>2026-04-18T14:38:38.541Z</time></trkpt><trkpt lat="43.4798467" lon="10.6943067"><ele>107.0</ele><time>2026-04-18T14:38:39.542Z</time></trkpt><trkpt lat="43.4799533" lon="10.69417"><ele>107.0</ele><time>2026-04-18T14:38:40.542Z</time></trkpt><trkpt lat="43.48005" lon="10.694055"><ele>107.0</ele><time>2026-04-18T14:38:41.541Z</time></trkpt><trkpt lat="43.4801617" lon="10.6939583"><ele>107.0</ele><time>2026-04-18T14:38:42.542Z</time></trkpt><trkpt lat="43.4802783" lon="10.6938817"><ele>107.0</ele><time>2026-04-18T14:38:43.542Z</time></trkpt><trkpt lat="43.4803967" lon="10.6938233"><ele>106.66666666666666</ele><time>2026-04-18T14:38:44.541Z</time></trkpt><trkpt lat="43.4805067" lon="10.6937633"><ele>106.33333333333334</ele><time>2026-04-18T14:38:45.542Z</time></trkpt><trkpt lat="43.480605" lon="10.6936617"><ele>106.0</ele><time>2026-04-18T14:38:46.541Z</time></trkpt><trkpt lat="43.4808817" lon="10.69312"><ele>106.0</ele><time>2026-04-18T14:38:49.541Z</time></trkpt><trkpt lat="43.4809483" lon="10.6929067"><ele>106.0</ele><time>2026-04-18T14:38:50.541Z</time></trkpt><trkpt lat="43.4810033" lon="10.6926633"><ele>106.0</ele><time>2026-04-18T14:38:51.541Z</time></trkpt><trkpt lat="43.481045" lon="10.6923917"><ele>106.33333333333334</ele><time>2026-04-18T14:38:52.541Z</time></trkpt><trkpt lat="43.48109" lon="10.6920967"><ele>106.66666666666666</ele><time>2026-04-18T14:38:53.542Z</time></trkpt><trkpt lat="43.4811417" lon="10.6917933"><ele>107.0</ele><time>2026-04-18T14:38:54.541Z</time></trkpt><trkpt lat="43.4811933" lon="10.6914833"><ele>107.66666666666666</ele><time>2026-04-18T14:38:55.541Z</time></trkpt><trkpt lat="43.48125" lon="10.69118"><ele>108.33333333333334</ele><time>2026-04-18T14:38:56.541Z</time></trkpt><trkpt lat="43.4813017" lon="10.690905"><ele>109.0</ele><time>2026-04-18T14:38:57.541Z</time></trkpt><trkpt lat="43.48135" lon="10.6906483"><ele>109.66666666666667</ele><time>2026-04-18T14:38:58.541Z</time></trkpt><trkpt lat="43.481395" lon="10.6903967"><ele>110.33333333333334</ele><time>2026-04-18T14:38:59.541Z</time></trkpt><trkpt lat="43.4814267" lon="10.6901533"><ele>111.0</ele><time>2026-04-18T14:39:00.541Z</time></trkpt><trkpt lat="43.481435" lon="10.6899"><ele>111.0</ele><time>2026-04-18T14:39:01.541Z</time></trkpt><trkpt lat="43.4814333" lon="10.6896267"><ele>111.0</ele><time>2026-04-18T14:39:02.541Z</time></trkpt><trkpt lat="43.48142" lon="10.6893433"><ele>111.0</ele><time>2026-04-18T14:39:03.541Z</time></trkpt><trkpt lat="43.4814017" lon="10.6890467"><ele>112.0</ele><time>2026-04-18T14:39:04.541Z</time></trkpt><trkpt lat="43.4813783" lon="10.688765"><ele>113.0</ele><time>2026-04-18T14:39:05.541Z</time></trkpt><trkpt lat="43.4813567" lon="10.688505"><ele>114.0</ele><time>2026-04-18T14:39:06.541Z</time></trkpt><trkpt lat="43.4813417" lon="10.6882783"><ele>115.0</ele><time>2026-04-18T14:39:07.541Z</time></trkpt><trkpt lat="43.4813417" lon="10.6880617"><ele>116.0</ele><time>2026-04-18T14:39:08.541Z</time></trkpt><trkpt lat="43.481355" lon="10.687835"><ele>117.0</ele><time>2026-04-18T14:39:09.542Z</time></trkpt><trkpt lat="43.4813833" lon="10.6875783"><ele>117.0</ele><time>2026-04-18T14:39:10.541Z</time></trkpt><trkpt lat="43.481425" lon="10.687315"><ele>117.0</ele><time>2026-04-18T14:39:11.541Z</time></trkpt><trkpt lat="43.48147" lon="10.68706"><ele>117.0</ele><time>2026-04-18T14:39:12.541Z</time></trkpt><trkpt lat="43.4815167" lon="10.6868067"><ele>116.0</ele><time>2026-04-18T14:39:13.541Z</time></trkpt><trkpt lat="43.4815583" lon="10.6865633"><ele>115.0</ele><time>2026-04-18T14:39:14.541Z</time></trkpt><trkpt lat="43.4816017" lon="10.6863483"><ele>114.0</ele><time>2026-04-18T14:39:15.542Z</time></trkpt><trkpt lat="43.48165" lon="10.6861417"><ele>113.66666666666666</ele><time>2026-04-18T14:39:16.541Z</time></trkpt><trkpt lat="43.4817" lon="10.685945"><ele>113.33333333333333</ele><time>2026-04-18T14:39:17.541Z</time></trkpt><trkpt lat="43.48173" lon="10.6857633"><ele>113.0</ele><time>2026-04-18T14:39:18.541Z</time></trkpt><trkpt lat="43.48173" lon="10.6855383"><ele>113.0</ele><time>2026-04-18T14:39:19.541Z</time></trkpt><trkpt lat="43.4817033" lon="10.6852967"><ele>113.0</ele><time>2026-04-18T14:39:20.542Z</time></trkpt><trkpt lat="43.4816017" lon="10.6846233"><ele>113.66666666666666</ele><time>2026-04-18T14:39:23.541Z</time></trkpt><trkpt lat="43.481565" lon="10.68443"><ele>114.33333333333334</ele><time>2026-04-18T14:39:24.541Z</time></trkpt><trkpt lat="43.48152" lon="10.684235"><ele>115.0</ele><time>2026-04-18T14:39:25.541Z</time></trkpt><trkpt lat="43.4814517" lon="10.6840383"><ele>115.33333333333334</ele><time>2026-04-18T14:39:26.541Z</time></trkpt><trkpt lat="43.4813767" lon="10.6838383"><ele>115.66666666666666</ele><time>2026-04-18T14:39:27.541Z</time></trkpt><trkpt lat="43.4813" lon="10.68365"><ele>116.0</ele><time>2026-04-18T14:39:28.541Z</time></trkpt><trkpt lat="43.4812283" lon="10.683475"><ele>116.0</ele><time>2026-04-18T14:39:29.541Z</time></trkpt><trkpt lat="43.4811817" lon="10.6832933"><ele>116.0</ele><time>2026-04-18T14:39:30.542Z</time></trkpt><trkpt lat="43.4811567" lon="10.683085"><ele>116.0</ele><time>2026-04-18T14:39:31.542Z</time></trkpt><trkpt lat="43.48115" lon="10.6828467"><ele>116.66666666666666</ele><time>2026-04-18T14:39:32.541Z</time></trkpt><trkpt lat="43.4811633" lon="10.6825933"><ele>117.33333333333334</ele><time>2026-04-18T14:39:33.541Z</time></trkpt><trkpt lat="43.48118" lon="10.6823617"><ele>118.0</ele><time>2026-04-18T14:39:34.541Z</time></trkpt><trkpt lat="43.4811917" lon="10.6821583"><ele>118.0</ele><time>2026-04-18T14:39:35.541Z</time></trkpt><trkpt lat="43.4812" lon="10.6819583"><ele>118.0</ele><time>2026-04-18T14:39:36.541Z</time></trkpt><trkpt lat="43.48121" lon="10.6817417"><ele>118.0</ele><time>2026-04-18T14:39:37.541Z</time></trkpt><trkpt lat="43.481225" lon="10.6815183"><ele>118.33333333333334</ele><time>2026-04-18T14:39:38.541Z</time></trkpt><trkpt lat="43.4812417" lon="10.6812917"><ele>118.66666666666666</ele><time>2026-04-18T14:39:39.542Z</time></trkpt><trkpt lat="43.4812617" lon="10.6810167"><ele>119.0</ele><time>2026-04-18T14:39:40.541Z</time></trkpt><trkpt lat="43.4812833" lon="10.6807267"><ele>119.0</ele><time>2026-04-18T14:39:41.541Z</time></trkpt><trkpt lat="43.4813083" lon="10.6804133"><ele>119.0</ele><time>2026-04-18T14:39:42.541Z</time></trkpt><trkpt lat="43.4813267" lon="10.6800967"><ele>119.66666666666666</ele><time>2026-04-18T14:39:43.542Z</time></trkpt><trkpt lat="43.4813383" lon="10.67979"><ele>120.33333333333334</ele><time>2026-04-18T14:39:44.541Z</time></trkpt><trkpt lat="43.4813417" lon="10.6794967"><ele>121.0</ele><time>2026-04-18T14:39:45.541Z</time></trkpt><trkpt lat="43.4813567" lon="10.67921"><ele>121.66666666666667</ele><time>2026-04-18T14:39:46.541Z</time></trkpt><trkpt lat="43.4813733" lon="10.6789567"><ele>122.33333333333334</ele><time>2026-04-18T14:39:47.541Z</time></trkpt><trkpt lat="43.4813933" lon="10.6787133"><ele>123.0</ele><time>2026-04-18T14:39:48.541Z</time></trkpt><trkpt lat="43.4814083" lon="10.6784933"><ele>123.66666666666666</ele><time>2026-04-18T14:39:49.541Z</time></trkpt><trkpt lat="43.4814317" lon="10.6782783"><ele>124.33333333333333</ele><time>2026-04-18T14:39:50.541Z</time></trkpt><trkpt lat="43.4814633" lon="10.6780667"><ele>125.0</ele><time>2026-04-18T14:39:51.541Z</time></trkpt><trkpt lat="43.481515" lon="10.6778333"><ele>126.0</ele><time>2026-04-18T14:39:52.541Z</time></trkpt><trkpt lat="43.48158" lon="10.6775767"><ele>127.0</ele><time>2026-04-18T14:39:53.542Z</time></trkpt><trkpt lat="43.48186" lon="10.6766983"><ele>128.5</ele><time>2026-04-18T14:39:56.542Z</time></trkpt><trkpt lat="43.4819533" lon="10.676385"><ele>130.0</ele><time>2026-04-18T14:39:57.541Z</time></trkpt><trkpt lat="43.4820433" lon="10.6760867"><ele>131.33333333333334</ele><time>2026-04-18T14:39:58.541Z</time></trkpt><trkpt lat="43.482125" lon="10.6758183"><ele>132.66666666666666</ele><time>2026-04-18T14:39:59.542Z</time></trkpt><trkpt lat="43.4822017" lon="10.6755733"><ele>134.0</ele><time>2026-04-18T14:40:00.541Z</time></trkpt><trkpt lat="43.4822783" lon="10.6753383"><ele>135.66666666666666</ele><time>2026-04-18T14:40:01.541Z</time></trkpt><trkpt lat="43.4823333" lon="10.6751267"><ele>137.33333333333334</ele><time>2026-04-18T14:40:02.541Z</time></trkpt><trkpt lat="43.4823667" lon="10.6749283"><ele>139.0</ele><time>2026-04-18T14:40:03.542Z</time></trkpt><trkpt lat="43.4823817" lon="10.6747383"><ele>139.0</ele><time>2026-04-18T14:40:04.542Z</time></trkpt><trkpt lat="43.4823833" lon="10.67456"><ele>139.0</ele><time>2026-04-18T14:40:05.542Z</time></trkpt><trkpt lat="43.48237" lon="10.6743783"><ele>139.0</ele><time>2026-04-18T14:40:06.541Z</time></trkpt><trkpt lat="43.4823283" lon="10.674205"><ele>139.0</ele><time>2026-04-18T14:40:07.54Z</time></trkpt><trkpt lat="43.48228" lon="10.6740433"><ele>138.6</ele><time>2026-04-18T14:40:08.54Z</time></trkpt><trkpt lat="43.48224" lon="10.6739317"><ele>138.2</ele><time>2026-04-18T14:40:09.54Z</time></trkpt><trkpt lat="43.4821983" lon="10.67384"><ele>137.79999999999998</ele><time>2026-04-18T14:40:11.54Z</time></trkpt><trkpt lat="43.4821717" lon="10.6737367"><ele>137.4</ele><time>2026-04-18T14:40:15.54Z</time></trkpt><trkpt lat="43.4821833" lon="10.6736233"><ele>137.0</ele><time>2026-04-18T14:40:17.54Z</time></trkpt><trkpt lat="43.4822167" lon="10.6734583"><ele>136.16666666666666</ele><time>2026-04-18T14:40:19.54Z</time></trkpt><trkpt lat="43.4822583" lon="10.67337"><ele>135.33333333333331</ele><time>2026-04-18T14:40:20.54Z</time></trkpt><trkpt lat="43.482325" lon="10.6732767"><ele>134.5</ele><time>2026-04-18T14:40:21.54Z</time></trkpt><trkpt lat="43.4824" lon="10.6732"><ele>133.66666666666666</ele><time>2026-04-18T14:40:22.54Z</time></trkpt><trkpt lat="43.4824683" lon="10.67314"><ele>132.83333333333334</ele><time>2026-04-18T14:40:23.54Z</time></trkpt><trkpt lat="43.482535" lon="10.673075"><ele>132.0</ele><time>2026-04-18T14:40:24.54Z</time></trkpt><trkpt lat="43.4826033" lon="10.6730117"><ele>132.0</ele><time>2026-04-18T14:40:25.54Z</time></trkpt><trkpt lat="43.4826617" lon="10.6729717"><ele>132.0</ele><time>2026-04-18T14:40:26.54Z</time></trkpt><trkpt lat="43.4827217" lon="10.67293"><ele>132.0</ele><time>2026-04-18T14:40:27.541Z</time></trkpt><trkpt lat="43.482995" lon="10.6728067"><ele>132.0</ele><time>2026-04-18T14:40:31.54Z</time></trkpt><trkpt lat="43.4830617" lon="10.6727933"><ele>131.83333333333334</ele><time>2026-04-18T14:40:32.541Z</time></trkpt><trkpt lat="43.4831317" lon="10.67278"><ele>131.66666666666666</ele><time>2026-04-18T14:40:33.54Z</time></trkpt><trkpt lat="43.48321" lon="10.6727633"><ele>131.5</ele><time>2026-04-18T14:40:34.54Z</time></trkpt><trkpt lat="43.4832933" lon="10.6727517"><ele>131.33333333333331</ele><time>2026-04-18T14:40:35.54Z</time></trkpt><trkpt lat="43.483375" lon="10.67273"><ele>131.16666666666666</ele><time>2026-04-18T14:40:36.54Z</time></trkpt><trkpt lat="43.483455" lon="10.6727117"><ele>131.0</ele><time>2026-04-18T14:40:37.54Z</time></trkpt><trkpt lat="43.4835333" lon="10.6726917"><ele>130.2</ele><time>2026-04-18T14:40:38.541Z</time></trkpt><trkpt lat="43.4836167" lon="10.67266"><ele>129.39999999999998</ele><time>2026-04-18T14:40:39.541Z</time></trkpt><trkpt lat="43.4836867" lon="10.6726183"><ele>128.6</ele><time>2026-04-18T14:40:40.54Z</time></trkpt><trkpt lat="43.4837567" lon="10.6725583"><ele>127.8</ele><time>2026-04-18T14:40:41.54Z</time></trkpt><trkpt lat="43.483825" lon="10.6724867"><ele>127.0</ele><time>2026-04-18T14:40:42.54Z</time></trkpt><trkpt lat="43.4839517" lon="10.672355"><ele>126.19999999999999</ele><time>2026-04-18T14:40:44.54Z</time></trkpt><trkpt lat="43.4840267" lon="10.6722683"><ele>125.39999999999999</ele><time>2026-04-18T14:40:45.54Z</time></trkpt><trkpt lat="43.4840967" lon="10.67218"><ele>124.60000000000001</ele><time>2026-04-18T14:40:46.54Z</time></trkpt><trkpt lat="43.4841683" lon="10.6720917"><ele>123.80000000000001</ele><time>2026-04-18T14:40:47.54Z</time></trkpt><trkpt lat="43.484245" lon="10.671995"><ele>123.0</ele><time>2026-04-18T14:40:48.54Z</time></trkpt><trkpt lat="43.4843233" lon="10.6719017"><ele>122.33333333333333</ele><time>2026-04-18T14:40:49.541Z</time></trkpt><trkpt lat="43.4843933" lon="10.671815"><ele>121.66666666666666</ele><time>2026-04-18T14:40:50.54Z</time></trkpt><trkpt lat="43.4844567" lon="10.671725"><ele>121.0</ele><time>2026-04-18T14:40:51.54Z</time></trkpt><trkpt lat="43.4845167" lon="10.6716317"><ele>120.33333333333333</ele><time>2026-04-18T14:40:52.54Z</time></trkpt><trkpt lat="43.48456" lon="10.6715383"><ele>119.66666666666666</ele><time>2026-04-18T14:40:53.54Z</time></trkpt><trkpt lat="43.4845883" lon="10.67145"><ele>119.0</ele><time>2026-04-18T14:40:54.54Z</time></trkpt><trkpt lat="43.4846083" lon="10.6713567"><ele>118.4</ele><time>2026-04-18T14:40:55.54Z</time></trkpt><trkpt lat="43.4846233" lon="10.67127"><ele>117.80000000000001</ele><time>2026-04-18T14:40:56.54Z</time></trkpt><trkpt lat="43.4846467" lon="10.6711217"><ele>117.19999999999999</ele><time>2026-04-18T14:40:58.54Z</time></trkpt><trkpt lat="43.484645" lon="10.6710167"><ele>116.6</ele><time>2026-04-18T14:41:00.54Z</time></trkpt><trkpt lat="43.4846433" lon="10.670775"><ele>116.0</ele><time>2026-04-18T14:41:05.54Z</time></trkpt><trkpt lat="43.4846183" lon="10.670925"><ele>116.0</ele><time>2026-04-18T14:41:26.54Z</time></trkpt><trkpt lat="43.48462" lon="10.6710533"><ele>116.0</ele><time>2026-04-18T14:41:27.54Z</time></trkpt><trkpt lat="43.484605" lon="10.671215"><ele>116.0</ele><time>2026-04-18T14:41:28.54Z</time></trkpt><trkpt lat="43.4845783" lon="10.6713833"><ele>116.0</ele><time>2026-04-18T14:41:29.54Z</time></trkpt><trkpt lat="43.484525" lon="10.6715483"><ele>117.0</ele><time>2026-04-18T14:41:30.54Z</time></trkpt><trkpt lat="43.484435" lon="10.6717033"><ele>118.0</ele><time>2026-04-18T14:41:31.54Z</time></trkpt><trkpt lat="43.4843183" lon="10.67185"><ele>119.0</ele><time>2026-04-18T14:41:32.54Z</time></trkpt><trkpt lat="43.4841933" lon="10.6720083"><ele>120.33333333333333</ele><time>2026-04-18T14:41:33.541Z</time></trkpt><trkpt lat="43.4840567" lon="10.6721717"><ele>121.66666666666666</ele><time>2026-04-18T14:41:34.54Z</time></trkpt><trkpt lat="43.4839333" lon="10.6723283"><ele>123.0</ele><time>2026-04-18T14:41:35.54Z</time></trkpt><trkpt lat="43.4835767" lon="10.672645"><ele>124.33333333333334</ele><time>2026-04-18T14:41:38.54Z</time></trkpt><trkpt lat="43.48344" lon="10.6726933"><ele>125.66666666666667</ele><time>2026-04-18T14:41:39.54Z</time></trkpt><trkpt lat="43.4832867" lon="10.6727333"><ele>127.0</ele><time>2026-04-18T14:41:40.54Z</time></trkpt><trkpt lat="43.4831117" lon="10.6727717"><ele>128.33333333333334</ele><time>2026-04-18T14:41:41.54Z</time></trkpt><trkpt lat="43.4829383" lon="10.6728117"><ele>129.66666666666666</ele><time>2026-04-18T14:41:42.54Z</time></trkpt><trkpt lat="43.4827883" lon="10.6728633"><ele>131.0</ele><time>2026-04-18T14:41:43.54Z</time></trkpt><trkpt lat="43.4826533" lon="10.6729267"><ele>131.25</ele><time>2026-04-18T14:41:44.54Z</time></trkpt><trkpt lat="43.4825367" lon="10.67301"><ele>131.5</ele><time>2026-04-18T14:41:45.54Z</time></trkpt><trkpt lat="43.48243" lon="10.6731133"><ele>131.75</ele><time>2026-04-18T14:41:46.54Z</time></trkpt><trkpt lat="43.4823183" lon="10.6732383"><ele>132.0</ele><time>2026-04-18T14:41:47.54Z</time></trkpt><trkpt lat="43.4822383" lon="10.67337"><ele>132.0</ele><time>2026-04-18T14:41:48.54Z</time></trkpt><trkpt lat="43.4821783" lon="10.67351"><ele>132.0</ele><time>2026-04-18T14:41:49.54Z</time></trkpt><trkpt lat="43.4821467" lon="10.6736283"><ele>132.0</ele><time>2026-04-18T14:41:50.54Z</time></trkpt><trkpt lat="43.48212" lon="10.6737567"><ele>132.0</ele><time>2026-04-18T14:41:52.54Z</time></trkpt><trkpt lat="43.482045" lon="10.67378"><ele>132.0</ele><time>2026-04-18T14:41:55.54Z</time></trkpt><trkpt lat="43.481945" lon="10.6737633"><ele>132.6</ele><time>2026-04-18T14:41:58.54Z</time></trkpt><trkpt lat="43.4818183" lon="10.6737433"><ele>133.2</ele><time>2026-04-18T14:42:00.54Z</time></trkpt><trkpt lat="43.4817383" lon="10.6737183"><ele>133.8</ele><time>2026-04-18T14:42:01.54Z</time></trkpt><trkpt lat="43.4816433" lon="10.6736683"><ele>134.4</ele><time>2026-04-18T14:42:02.54Z</time></trkpt><trkpt lat="43.4815633" lon="10.6735867"><ele>135.0</ele><time>2026-04-18T14:42:03.54Z</time></trkpt><trkpt lat="43.4815017" lon="10.6734767"><ele>135.5</ele><time>2026-04-18T14:42:04.54Z</time></trkpt><trkpt lat="43.481445" lon="10.6733467"><ele>136.0</ele><time>2026-04-18T14:42:05.54Z</time></trkpt><trkpt lat="43.4813867" lon="10.673195"><ele>136.5</ele><time>2026-04-18T14:42:06.54Z</time></trkpt><trkpt lat="43.48133" lon="10.673035"><ele>137.0</ele><time>2026-04-18T14:42:07.54Z</time></trkpt><trkpt lat="43.4812667" lon="10.6728633"><ele>144.0</ele><time>2026-04-18T14:42:08.54Z</time></trkpt><trkpt lat="43.4811117" lon="10.6722817"><ele>144.0</ele><time>2026-04-18T14:42:11.54Z</time></trkpt><trkpt lat="43.4810633" lon="10.67208"><ele>144.0</ele><time>2026-04-18T14:42:12.54Z</time></trkpt><trkpt lat="43.4810233" lon="10.671885"><ele>144.0</ele><time>2026-04-18T14:42:13.54Z</time></trkpt><trkpt lat="43.480985" lon="10.67172"><ele>144.0</ele><time>2026-04-18T14:42:14.54Z</time></trkpt><trkpt lat="43.4809467" lon="10.67156"><ele>145.6</ele><time>2026-04-18T14:42:15.54Z</time></trkpt><trkpt lat="43.4809117" lon="10.6714117"><ele>147.2</ele><time>2026-04-18T14:42:16.54Z</time></trkpt><trkpt lat="43.4808833" lon="10.67128"><ele>148.79999999999998</ele><time>2026-04-18T14:42:17.54Z</time></trkpt><trkpt lat="43.48087" lon="10.6711667"><ele>150.4</ele><time>2026-04-18T14:42:18.54Z</time></trkpt><trkpt lat="43.4808683" lon="10.6710633"><ele>152.0</ele><time>2026-04-18T14:42:19.54Z</time></trkpt><trkpt lat="43.4808817" lon="10.6709483"><ele>153.0</ele><time>2026-04-18T14:42:20.541Z</time></trkpt><trkpt lat="43.4809067" lon="10.67083"><ele>154.0</ele><time>2026-04-18T14:42:21.54Z</time></trkpt><trkpt lat="43.4809367" lon="10.6707"><ele>155.0</ele><time>2026-04-18T14:42:22.54Z</time></trkpt><trkpt lat="43.4809517" lon="10.67058"><ele>156.0</ele><time>2026-04-18T14:42:23.541Z</time></trkpt><trkpt lat="43.480945" lon="10.6704717"><ele>157.0</ele><time>2026-04-18T14:42:24.54Z</time></trkpt><trkpt lat="43.4809233" lon="10.67035"><ele>158.0</ele><time>2026-04-18T14:42:25.54Z</time></trkpt><trkpt lat="43.4808767" lon="10.6702283"><ele>158.0</ele><time>2026-04-18T14:42:26.541Z</time></trkpt><trkpt lat="43.4808033" lon="10.6701067"><ele>158.0</ele><time>2026-04-18T14:42:27.54Z</time></trkpt><trkpt lat="43.4807167" lon="10.6699767"><ele>158.0</ele><time>2026-04-18T14:42:28.54Z</time></trkpt><trkpt lat="43.480625" lon="10.669835"><ele>158.0</ele><time>2026-04-18T14:42:29.54Z</time></trkpt><trkpt lat="43.4805217" lon="10.6696767"><ele>158.0</ele><time>2026-04-18T14:42:30.54Z</time></trkpt><trkpt lat="43.480425" lon="10.6695083"><ele>158.0</ele><time>2026-04-18T14:42:31.54Z</time></trkpt><trkpt lat="43.4803217" lon="10.6693367"><ele>158.0</ele><time>2026-04-18T14:42:32.541Z</time></trkpt><trkpt lat="43.480215" lon="10.66916"><ele>157.25</ele><time>2026-04-18T14:42:33.54Z</time></trkpt><trkpt lat="43.48013" lon="10.6689967"><ele>156.5</ele><time>2026-04-18T14:42:34.54Z</time></trkpt><trkpt lat="43.4800583" lon="10.6688433"><ele>155.75</ele><time>2026-04-18T14:42:35.54Z</time></trkpt><trkpt lat="43.4799867" lon="10.6687117"><ele>155.0</ele><time>2026-04-18T14:42:36.54Z</time></trkpt><trkpt lat="43.47993" lon="10.6685867"><ele>155.16666666666666</ele><time>2026-04-18T14:42:37.54Z</time></trkpt><trkpt lat="43.4798733" lon="10.6684833"><ele>155.33333333333331</ele><time>2026-04-18T14:42:38.54Z</time></trkpt><trkpt lat="43.4798083" lon="10.668395"><ele>155.5</ele><time>2026-04-18T14:42:39.54Z</time></trkpt><trkpt lat="43.4797367" lon="10.66833"><ele>155.66666666666666</ele><time>2026-04-18T14:42:40.54Z</time></trkpt><trkpt lat="43.4796633" lon="10.668295"><ele>155.83333333333334</ele><time>2026-04-18T14:42:41.54Z</time></trkpt><trkpt lat="43.4795867" lon="10.668295"><ele>156.0</ele><time>2026-04-18T14:42:42.54Z</time></trkpt><trkpt lat="43.479355" lon="10.6684233"><ele>156.0</ele><time>2026-04-18T14:42:45.54Z</time></trkpt><trkpt lat="43.47926" lon="10.66851"><ele>156.0</ele><time>2026-04-18T14:42:47.54Z</time></trkpt><trkpt lat="43.479165" lon="10.6685533"><ele>156.0</ele><time>2026-04-18T14:42:49.541Z</time></trkpt><trkpt lat="43.4790317" lon="10.6685783"><ele>156.0</ele><time>2026-04-18T14:42:51.54Z</time></trkpt><trkpt lat="43.4789517" lon="10.6685767"><ele>156.0</ele><time>2026-04-18T14:42:52.541Z</time></trkpt><trkpt lat="43.4788633" lon="10.668565"><ele>156.0</ele><time>2026-04-18T14:42:53.54Z</time></trkpt><trkpt lat="43.4787633" lon="10.6685467"><ele>156.0</ele><time>2026-04-18T14:42:54.541Z</time></trkpt><trkpt lat="43.4786467" lon="10.668525"><ele>156.0</ele><time>2026-04-18T14:42:55.54Z</time></trkpt><trkpt lat="43.4785233" lon="10.6684967"><ele>156.0</ele><time>2026-04-18T14:42:56.541Z</time></trkpt><trkpt lat="43.4783933" lon="10.668455"><ele>156.0</ele><time>2026-04-18T14:42:57.54Z</time></trkpt><trkpt lat="43.4782733" lon="10.6684233"><ele>156.0</ele><time>2026-04-18T14:42:58.54Z</time></trkpt><trkpt lat="43.4781667" lon="10.6684"><ele>156.0</ele><time>2026-04-18T14:42:59.54Z</time></trkpt><trkpt lat="43.4780717" lon="10.6683783"><ele>156.0</ele><time>2026-04-18T14:43:00.54Z</time></trkpt><trkpt lat="43.4779817" lon="10.6683667"><ele>156.0</ele><time>2026-04-18T14:43:01.54Z</time></trkpt><trkpt lat="43.47789" lon="10.6683617"><ele>156.75</ele><time>2026-04-18T14:43:02.54Z</time></trkpt><trkpt lat="43.47779" lon="10.668375"><ele>157.5</ele><time>2026-04-18T14:43:03.54Z</time></trkpt><trkpt lat="43.4776783" lon="10.6683967"><ele>158.25</ele><time>2026-04-18T14:43:04.54Z</time></trkpt><trkpt lat="43.4775583" lon="10.6684183"><ele>159.0</ele><time>2026-04-18T14:43:05.54Z</time></trkpt><trkpt lat="43.47744" lon="10.66844"><ele>159.0</ele><time>2026-04-18T14:43:06.541Z</time></trkpt><trkpt lat="43.4773167" lon="10.66847"><ele>159.0</ele><time>2026-04-18T14:43:07.541Z</time></trkpt><trkpt lat="43.4771883" lon="10.6684967"><ele>159.0</ele><time>2026-04-18T14:43:08.54Z</time></trkpt><trkpt lat="43.4770567" lon="10.668535"><ele>159.0</ele><time>2026-04-18T14:43:09.54Z</time></trkpt><trkpt lat="43.476915" lon="10.6685767"><ele>157.0</ele><time>2026-04-18T14:43:10.54Z</time></trkpt><trkpt lat="43.4767733" lon="10.6686167"><ele>155.0</ele><time>2026-04-18T14:43:11.54Z</time></trkpt><trkpt lat="43.4766367" lon="10.668665"><ele>153.0</ele><time>2026-04-18T14:43:12.54Z</time></trkpt><trkpt lat="43.4764917" lon="10.6687067"><ele>151.0</ele><time>2026-04-18T14:43:13.54Z</time></trkpt><trkpt lat="43.47636" lon="10.6687467"><ele>153.5</ele><time>2026-04-18T14:43:14.54Z</time></trkpt><trkpt lat="43.47623" lon="10.668785"><ele>156.0</ele><time>2026-04-18T14:43:15.54Z</time></trkpt><trkpt lat="43.4758467" lon="10.6688917"><ele>156.0</ele><time>2026-04-18T14:43:18.54Z</time></trkpt><trkpt lat="43.4757383" lon="10.6689267"><ele>156.0</ele><time>2026-04-18T14:43:19.54Z</time></trkpt><trkpt lat="43.4756317" lon="10.6689567"><ele>156.0</ele><time>2026-04-18T14:43:20.54Z</time></trkpt><trkpt lat="43.4755317" lon="10.66898"><ele>156.0</ele><time>2026-04-18T14:43:21.541Z</time></trkpt><trkpt lat="43.4754267" lon="10.6689767"><ele>156.0</ele><time>2026-04-18T14:43:22.54Z</time></trkpt><trkpt lat="43.4753333" lon="10.6689483"><ele>158.0</ele><time>2026-04-18T14:43:23.54Z</time></trkpt><trkpt lat="43.4752533" lon="10.668905"><ele>160.0</ele><time>2026-04-18T14:43:24.54Z</time></trkpt><trkpt lat="43.4751767" lon="10.6688383"><ele>162.0</ele><time>2026-04-18T14:43:25.54Z</time></trkpt><trkpt lat="43.4750983" lon="10.6687583"><ele>164.0</ele><time>2026-04-18T14:43:26.54Z</time></trkpt><trkpt lat="43.4750233" lon="10.6686767"><ele>166.0</ele><time>2026-04-18T14:43:27.54Z</time></trkpt><trkpt lat="43.4749483" lon="10.6685967"><ele>166.0</ele><time>2026-04-18T14:43:28.54Z</time></trkpt><trkpt lat="43.47487" lon="10.6685283"><ele>166.0</ele><time>2026-04-18T14:43:29.54Z</time></trkpt><trkpt lat="43.4747817" lon="10.6684667"><ele>166.0</ele><time>2026-04-18T14:43:30.54Z</time></trkpt><trkpt lat="43.4746683" lon="10.6684083"><ele>166.0</ele><time>2026-04-18T14:43:31.541Z</time></trkpt><trkpt lat="43.474545" lon="10.6683467"><ele>166.0</ele><time>2026-04-18T14:43:32.54Z</time></trkpt><trkpt lat="43.474405" lon="10.6682767"><ele>167.25</ele><time>2026-04-18T14:43:33.54Z</time></trkpt><trkpt lat="43.47426" lon="10.668205"><ele>168.5</ele><time>2026-04-18T14:43:34.54Z</time></trkpt><trkpt lat="43.47412" lon="10.6681433"><ele>169.75</ele><time>2026-04-18T14:43:35.54Z</time></trkpt><trkpt lat="43.4740017" lon="10.6680817"><ele>171.0</ele><time>2026-04-18T14:43:36.539Z</time></trkpt><trkpt lat="43.4738967" lon="10.6680317"><ele>171.0</ele><time>2026-04-18T14:43:37.54Z</time></trkpt><trkpt lat="43.473805" lon="10.66799"><ele>171.0</ele><time>2026-04-18T14:43:38.539Z</time></trkpt><trkpt lat="43.4737133" lon="10.6679467"><ele>171.0</ele><time>2026-04-18T14:43:39.54Z</time></trkpt><trkpt lat="43.4736167" lon="10.6679017"><ele>171.0</ele><time>2026-04-18T14:43:40.539Z</time></trkpt><trkpt lat="43.4735183" lon="10.6678533"><ele>171.0</ele><time>2026-04-18T14:43:41.54Z</time></trkpt><trkpt lat="43.4734233" lon="10.6678033"><ele>172.8</ele><time>2026-04-18T14:43:42.539Z</time></trkpt><trkpt lat="43.4733283" lon="10.66775"><ele>174.60000000000002</ele><time>2026-04-18T14:43:43.539Z</time></trkpt><trkpt lat="43.47324" lon="10.66767"><ele>176.4</ele><time>2026-04-18T14:43:44.539Z</time></trkpt><trkpt lat="43.4731567" lon="10.66756"><ele>178.2</ele><time>2026-04-18T14:43:45.539Z</time></trkpt><trkpt lat="43.47308" lon="10.6674233"><ele>180.0</ele><time>2026-04-18T14:43:46.539Z</time></trkpt><trkpt lat="43.473015" lon="10.667295"><ele>180.0</ele><time>2026-04-18T14:43:47.539Z</time></trkpt><trkpt lat="43.4729667" lon="10.6671867"><ele>180.0</ele><time>2026-04-18T14:43:48.54Z</time></trkpt><trkpt lat="43.472825" lon="10.6669267"><ele>180.0</ele><time>2026-04-18T14:43:51.539Z</time></trkpt><trkpt lat="43.472745" lon="10.6668483"><ele>180.0</ele><time>2026-04-18T14:43:52.539Z</time></trkpt><trkpt lat="43.472655" lon="10.6667717"><ele>181.75</ele><time>2026-04-18T14:43:53.539Z</time></trkpt><trkpt lat="43.4725517" lon="10.6666917"><ele>183.5</ele><time>2026-04-18T14:43:54.54Z</time></trkpt><trkpt lat="43.4724433" lon="10.6666033"><ele>185.25</ele><time>2026-04-18T14:43:55.539Z</time></trkpt><trkpt lat="43.47232" lon="10.666505"><ele>187.0</ele><time>2026-04-18T14:43:56.539Z</time></trkpt><trkpt lat="43.4721867" lon="10.6663933"><ele>186.75</ele><time>2026-04-18T14:43:57.54Z</time></trkpt><trkpt lat="43.4720483" lon="10.6662933"><ele>186.5</ele><time>2026-04-18T14:43:58.539Z</time></trkpt><trkpt lat="43.47192" lon="10.6662033"><ele>186.25</ele><time>2026-04-18T14:43:59.54Z</time></trkpt><trkpt lat="43.4717983" lon="10.66612"><ele>186.0</ele><time>2026-04-18T14:44:00.539Z</time></trkpt><trkpt lat="43.4716717" lon="10.6660333"><ele>187.5</ele><time>2026-04-18T14:44:01.539Z</time></trkpt><trkpt lat="43.4715583" lon="10.66594"><ele>189.0</ele><time>2026-04-18T14:44:02.539Z</time></trkpt><trkpt lat="43.471445" lon="10.6658483"><ele>190.5</ele><time>2026-04-18T14:44:03.54Z</time></trkpt><trkpt lat="43.4713183" lon="10.66575"><ele>192.0</ele><time>2026-04-18T14:44:04.539Z</time></trkpt><trkpt lat="43.4711917" lon="10.6656383"><ele>192.39999999999998</ele><time>2026-04-18T14:44:05.539Z</time></trkpt><trkpt lat="43.4710633" lon="10.66555"><ele>192.79999999999998</ele><time>2026-04-18T14:44:06.539Z</time></trkpt><trkpt lat="43.4709533" lon="10.6654717"><ele>193.2</ele><time>2026-04-18T14:44:07.539Z</time></trkpt><trkpt lat="43.4708733" lon="10.665415"><ele>193.6</ele><time>2026-04-18T14:44:08.539Z</time></trkpt><trkpt lat="43.470805" lon="10.6653617"><ele>194.0</ele><time>2026-04-18T14:44:09.539Z</time></trkpt><trkpt lat="43.4707417" lon="10.6653017"><ele>195.39999999999998</ele><time>2026-04-18T14:44:10.539Z</time></trkpt><trkpt lat="43.4706833" lon="10.6652383"><ele>196.8</ele><time>2026-04-18T14:44:11.539Z</time></trkpt><trkpt lat="43.47063" lon="10.6651583"><ele>198.2</ele><time>2026-04-18T14:44:12.539Z</time></trkpt><trkpt lat="43.4705783" lon="10.6650517"><ele>199.60000000000002</ele><time>2026-04-18T14:44:13.54Z</time></trkpt><trkpt lat="43.4705217" lon="10.6649317"><ele>201.0</ele><time>2026-04-18T14:44:14.539Z</time></trkpt><trkpt lat="43.47046" lon="10.6648033"><ele>204.20000000000002</ele><time>2026-04-18T14:44:15.54Z</time></trkpt><trkpt lat="43.4704" lon="10.66467"><ele>207.4</ele><time>2026-04-18T14:44:16.539Z</time></trkpt><trkpt lat="43.47035" lon="10.66455"><ele>210.6</ele><time>2026-04-18T14:44:17.539Z</time></trkpt><trkpt lat="43.4703133" lon="10.664445"><ele>213.8</ele><time>2026-04-18T14:44:18.539Z</time></trkpt><trkpt lat="43.4702883" lon="10.6643383"><ele>217.0</ele><time>2026-04-18T14:44:19.539Z</time></trkpt><trkpt lat="43.4702717" lon="10.6642217"><ele>217.66666666666666</ele><time>2026-04-18T14:44:20.539Z</time></trkpt><trkpt lat="43.4702683" lon="10.6640883"><ele>218.33333333333331</ele><time>2026-04-18T14:44:21.54Z</time></trkpt><trkpt lat="43.4702767" lon="10.6639367"><ele>219.0</ele><time>2026-04-18T14:44:22.539Z</time></trkpt><trkpt lat="43.470295" lon="10.6634533"><ele>219.83333333333334</ele><time>2026-04-18T14:44:25.539Z</time></trkpt><trkpt lat="43.470285" lon="10.6633133"><ele>220.66666666666669</ele><time>2026-04-18T14:44:26.539Z</time></trkpt><trkpt lat="43.4702633" lon="10.6632017"><ele>221.5</ele><time>2026-04-18T14:44:27.539Z</time></trkpt><trkpt lat="43.4702317" lon="10.6631067"><ele>222.33333333333334</ele><time>2026-04-18T14:44:28.539Z</time></trkpt><trkpt lat="43.4701833" lon="10.6630183"><ele>223.16666666666669</ele><time>2026-04-18T14:44:29.539Z</time></trkpt><trkpt lat="43.470115" lon="10.6629333"><ele>224.0</ele><time>2026-04-18T14:44:30.539Z</time></trkpt><trkpt lat="43.4700467" lon="10.66284"><ele>225.0</ele><time>2026-04-18T14:44:31.539Z</time></trkpt><trkpt lat="43.46996" lon="10.662735"><ele>226.0</ele><time>2026-04-18T14:44:32.539Z</time></trkpt><trkpt lat="43.4698633" lon="10.662615"><ele>227.0</ele><time>2026-04-18T14:44:33.539Z</time></trkpt><trkpt lat="43.469765" lon="10.6624933"><ele>228.0</ele><time>2026-04-18T14:44:34.54Z</time></trkpt><trkpt lat="43.46967" lon="10.66238"><ele>229.2</ele><time>2026-04-18T14:44:35.539Z</time></trkpt><trkpt lat="43.4695783" lon="10.662265"><ele>230.4</ele><time>2026-04-18T14:44:36.54Z</time></trkpt><trkpt lat="43.4694933" lon="10.6621633"><ele>231.59999999999997</ele><time>2026-04-18T14:44:37.54Z</time></trkpt><trkpt lat="43.4694267" lon="10.6620717"><ele>232.79999999999998</ele><time>2026-04-18T14:44:38.539Z</time></trkpt><trkpt lat="43.4693683" lon="10.6619883"><ele>234.0</ele><time>2026-04-18T14:44:39.539Z</time></trkpt><trkpt lat="43.4693033" lon="10.6618883"><ele>234.0</ele><time>2026-04-18T14:44:40.539Z</time></trkpt><trkpt lat="43.4692417" lon="10.6617567"><ele>234.0</ele><time>2026-04-18T14:44:41.539Z</time></trkpt><trkpt lat="43.46917" lon="10.6616117"><ele>234.0</ele><time>2026-04-18T14:44:42.54Z</time></trkpt><trkpt lat="43.4691083" lon="10.6614617"><ele>234.0</ele><time>2026-04-18T14:44:43.539Z</time></trkpt><trkpt lat="43.469045" lon="10.661325"><ele>234.0</ele><time>2026-04-18T14:44:44.539Z</time></trkpt><trkpt lat="43.46899" lon="10.6612067"><ele>233.99999999999997</ele><time>2026-04-18T14:44:45.539Z</time></trkpt><trkpt lat="43.4689367" lon="10.66109"><ele>233.99999999999997</ele><time>2026-04-18T14:44:46.539Z</time></trkpt><trkpt lat="43.46888" lon="10.6609717"><ele>234.0</ele><time>2026-04-18T14:44:47.539Z</time></trkpt><trkpt lat="43.468825" lon="10.6608567"><ele>234.0</ele><time>2026-04-18T14:44:48.539Z</time></trkpt><trkpt lat="43.46876" lon="10.6607383"><ele>234.5</ele><time>2026-04-18T14:44:49.54Z</time></trkpt><trkpt lat="43.46868" lon="10.6606083"><ele>235.0</ele><time>2026-04-18T14:44:50.539Z</time></trkpt><trkpt lat="43.468595" lon="10.6604783"><ele>235.5</ele><time>2026-04-18T14:44:51.539Z</time></trkpt><trkpt lat="43.4685033" lon="10.6603383"><ele>236.0</ele><time>2026-04-18T14:44:52.539Z</time></trkpt><trkpt lat="43.4684017" lon="10.66018"><ele>238.66666666666669</ele><time>2026-04-18T14:44:53.539Z</time></trkpt><trkpt lat="43.46829" lon="10.6600183"><ele>241.33333333333331</ele><time>2026-04-18T14:44:54.539Z</time></trkpt><trkpt lat="43.46817" lon="10.6598533"><ele>244.0</ele><time>2026-04-18T14:44:55.539Z</time></trkpt><trkpt lat="43.4680617" lon="10.6597067"><ele>250.5</ele><time>2026-04-18T14:44:56.539Z</time></trkpt><trkpt lat="43.4677883" lon="10.6593167"><ele>257.0</ele><time>2026-04-18T14:44:59.539Z</time></trkpt><trkpt lat="43.4676967" lon="10.6591917"><ele>257.0</ele><time>2026-04-18T14:45:00.54Z</time></trkpt><trkpt lat="43.467605" lon="10.659065"><ele>257.0</ele><time>2026-04-18T14:45:01.539Z</time></trkpt><trkpt lat="43.4674983" lon="10.6589283"><ele>257.0</ele><time>2026-04-18T14:45:02.539Z</time></trkpt><trkpt lat="43.4673767" lon="10.6587933"><ele>257.0</ele><time>2026-04-18T14:45:03.539Z</time></trkpt><trkpt lat="43.4672467" lon="10.658645"><ele>261.33333333333337</ele><time>2026-04-18T14:45:04.539Z</time></trkpt><trkpt lat="43.4671067" lon="10.6584967"><ele>265.6666666666667</ele><time>2026-04-18T14:45:05.539Z</time></trkpt><trkpt lat="43.4669717" lon="10.6583567"><ele>270.0</ele><time>2026-04-18T14:45:06.539Z</time></trkpt><trkpt lat="43.466835" lon="10.6582233"><ele>270.0</ele><time>2026-04-18T14:45:07.539Z</time></trkpt><trkpt lat="43.4667117" lon="10.6580983"><ele>270.0</ele><time>2026-04-18T14:45:08.539Z</time></trkpt><trkpt lat="43.4666067" lon="10.65799"><ele>270.0</ele><time>2026-04-18T14:45:09.539Z</time></trkpt><trkpt lat="43.4665167" lon="10.6578933"><ele>270.0</ele><time>2026-04-18T14:45:10.539Z</time></trkpt><trkpt lat="43.4664367" lon="10.657815"><ele>270.6666666666667</ele><time>2026-04-18T14:45:11.539Z</time></trkpt><trkpt lat="43.466375" lon="10.6577367"><ele>271.3333333333333</ele><time>2026-04-18T14:45:12.539Z</time></trkpt><trkpt lat="43.4663233" lon="10.6576667"><ele>272.0</ele><time>2026-04-18T14:45:13.539Z</time></trkpt><trkpt lat="43.4662833" lon="10.65758"><ele>272.66666666666663</ele><time>2026-04-18T14:45:14.539Z</time></trkpt><trkpt lat="43.4662517" lon="10.6574767"><ele>273.3333333333333</ele><time>2026-04-18T14:45:15.54Z</time></trkpt><trkpt lat="43.4662233" lon="10.65734"><ele>274.0</ele><time>2026-04-18T14:45:16.539Z</time></trkpt><trkpt lat="43.4661867" lon="10.657195"><ele>274.5</ele><time>2026-04-18T14:45:17.539Z</time></trkpt><trkpt lat="43.4661483" lon="10.657035"><ele>275.0</ele><time>2026-04-18T14:45:18.539Z</time></trkpt><trkpt lat="43.46611" lon="10.6568733"><ele>275.5</ele><time>2026-04-18T14:45:19.54Z</time></trkpt><trkpt lat="43.4660733" lon="10.6567067"><ele>276.0</ele><time>2026-04-18T14:45:20.54Z</time></trkpt><trkpt lat="43.4660367" lon="10.6565433"><ele>277.0</ele><time>2026-04-18T14:45:21.539Z</time></trkpt><trkpt lat="43.4660017" lon="10.6563967"><ele>278.0</ele><time>2026-04-18T14:45:22.539Z</time></trkpt><trkpt lat="43.465965" lon="10.6562567"><ele>279.0</ele><time>2026-04-18T14:45:23.539Z</time></trkpt><trkpt lat="43.465935" lon="10.6561183"><ele>280.0</ele><time>2026-04-18T14:45:24.539Z</time></trkpt><trkpt lat="43.4659017" lon="10.65598"><ele>281.0</ele><time>2026-04-18T14:45:25.539Z</time></trkpt><trkpt lat="43.4658733" lon="10.6558417"><ele>282.2</ele><time>2026-04-18T14:45:26.539Z</time></trkpt><trkpt lat="43.465845" lon="10.6557033"><ele>283.40000000000003</ele><time>2026-04-18T14:45:27.539Z</time></trkpt><trkpt lat="43.4658117" lon="10.6555567"><ele>284.6</ele><time>2026-04-18T14:45:28.54Z</time></trkpt><trkpt lat="43.46578" lon="10.6554133"><ele>285.8</ele><time>2026-04-18T14:45:29.539Z</time></trkpt><trkpt lat="43.465745" lon="10.6552533"><ele>287.0</ele><time>2026-04-18T14:45:30.539Z</time></trkpt><trkpt lat="43.4656467" lon="10.6548317"><ele>288.0</ele><time>2026-04-18T14:45:33.539Z</time></trkpt><trkpt lat="43.46562" lon="10.6546933"><ele>289.0</ele><time>2026-04-18T14:45:34.539Z</time></trkpt><trkpt lat="43.46558" lon="10.6545383"><ele>290.0</ele><time>2026-04-18T14:45:35.539Z</time></trkpt><trkpt lat="43.4655433" lon="10.6543783"><ele>291.0</ele><time>2026-04-18T14:45:36.539Z</time></trkpt><trkpt lat="43.4655017" lon="10.65421"><ele>292.0</ele><time>2026-04-18T14:45:37.539Z</time></trkpt><trkpt lat="43.46546" lon="10.6540267"><ele>293.0</ele><time>2026-04-18T14:45:38.539Z</time></trkpt><trkpt lat="43.4654183" lon="10.653845"><ele>294.0</ele><time>2026-04-18T14:45:39.539Z</time></trkpt><trkpt lat="43.4653733" lon="10.6536517"><ele>295.0</ele><time>2026-04-18T14:45:40.539Z</time></trkpt><trkpt lat="43.4653233" lon="10.6534617"><ele>296.5</ele><time>2026-04-18T14:45:41.539Z</time></trkpt><trkpt lat="43.4652783" lon="10.65328"><ele>298.0</ele><time>2026-04-18T14:45:42.54Z</time></trkpt><trkpt lat="43.4652367" lon="10.6531117"><ele>299.5</ele><time>2026-04-18T14:45:43.539Z</time></trkpt><trkpt lat="43.4652067" lon="10.6529733"><ele>301.0</ele><time>2026-04-18T14:45:44.539Z</time></trkpt><trkpt lat="43.4651783" lon="10.6528383"><ele>301.5</ele><time>2026-04-18T14:45:45.539Z</time></trkpt><trkpt lat="43.46515" lon="10.6527167"><ele>302.0</ele><time>2026-04-18T14:45:46.539Z</time></trkpt><trkpt lat="43.4651333" lon="10.652595"><ele>302.5</ele><time>2026-04-18T14:45:47.539Z</time></trkpt><trkpt lat="43.4651233" lon="10.6524783"><ele>303.0</ele><time>2026-04-18T14:45:48.539Z</time></trkpt><trkpt lat="43.46513" lon="10.6523667"><ele>303.5</ele><time>2026-04-18T14:45:49.539Z</time></trkpt><trkpt lat="43.4651417" lon="10.652245"><ele>304.0</ele><time>2026-04-18T14:45:50.54Z</time></trkpt><trkpt lat="43.4651683" lon="10.6521083"><ele>304.0</ele><time>2026-04-18T14:45:51.54Z</time></trkpt><trkpt lat="43.46519" lon="10.6519617"><ele>304.0</ele><time>2026-04-18T14:45:52.539Z</time></trkpt><trkpt lat="43.4652133" lon="10.6518083"><ele>304.0</ele><time>2026-04-18T14:45:53.539Z</time></trkpt><trkpt lat="43.4652383" lon="10.6516433"><ele>304.0</ele><time>2026-04-18T14:45:54.54Z</time></trkpt><trkpt lat="43.46526" lon="10.6514867"><ele>304.4</ele><time>2026-04-18T14:45:55.539Z</time></trkpt><trkpt lat="43.4652817" lon="10.6513283"><ele>304.79999999999995</ele><time>2026-04-18T14:45:56.54Z</time></trkpt><trkpt lat="43.4653017" lon="10.6511817"><ele>305.20000000000005</ele><time>2026-04-18T14:45:57.539Z</time></trkpt><trkpt lat="43.4653183" lon="10.6510317"><ele>305.6</ele><time>2026-04-18T14:45:58.539Z</time></trkpt><trkpt lat="43.465335" lon="10.6508833"><ele>306.0</ele><time>2026-04-18T14:45:59.539Z</time></trkpt><trkpt lat="43.465355" lon="10.650735"><ele>306.2</ele><time>2026-04-18T14:46:00.539Z</time></trkpt><trkpt lat="43.4653733" lon="10.65059"><ele>306.40000000000003</ele><time>2026-04-18T14:46:01.54Z</time></trkpt><trkpt lat="43.4653833" lon="10.6504767"><ele>306.6</ele><time>2026-04-18T14:46:02.539Z</time></trkpt><trkpt lat="43.4653967" lon="10.65038"><ele>306.8</ele><time>2026-04-18T14:46:03.539Z</time></trkpt><trkpt lat="43.4654017" lon="10.6502"><ele>307.0</ele><time>2026-04-18T14:46:07.539Z</time></trkpt><trkpt lat="43.46543" lon="10.650055"><ele>306.99999999999994</ele><time>2026-04-18T14:46:10.539Z</time></trkpt><trkpt lat="43.46545" lon="10.6499683"><ele>307.0</ele><time>2026-04-18T14:46:11.539Z</time></trkpt><trkpt lat="43.4654717" lon="10.64987"><ele>307.0</ele><time>2026-04-18T14:46:12.539Z</time></trkpt><trkpt lat="43.4654933" lon="10.6497733"><ele>307.0</ele><time>2026-04-18T14:46:13.539Z</time></trkpt><trkpt lat="43.465515" lon="10.6496767"><ele>307.0</ele><time>2026-04-18T14:46:14.539Z</time></trkpt><trkpt lat="43.4655333" lon="10.6495733"><ele>306.99999999999994</ele><time>2026-04-18T14:46:15.539Z</time></trkpt><trkpt lat="43.4655533" lon="10.6494733"><ele>307.0</ele><time>2026-04-18T14:46:16.539Z</time></trkpt><trkpt lat="43.4655733" lon="10.6493733"><ele>307.0</ele><time>2026-04-18T14:46:17.54Z</time></trkpt><trkpt lat="43.465595" lon="10.6492667"><ele>307.0</ele><time>2026-04-18T14:46:18.539Z</time></trkpt><trkpt lat="43.4656167" lon="10.64915"><ele>307.0</ele><time>2026-04-18T14:46:19.539Z</time></trkpt><trkpt lat="43.4656433" lon="10.6490217"><ele>307.0</ele><time>2026-04-18T14:46:20.539Z</time></trkpt><trkpt lat="43.4656667" lon="10.6488883"><ele>307.0</ele><time>2026-04-18T14:46:21.539Z</time></trkpt><trkpt lat="43.4656933" lon="10.6487667"><ele>307.0</ele><time>2026-04-18T14:46:22.54Z</time></trkpt><trkpt lat="43.4657183" lon="10.648635"><ele>307.0</ele><time>2026-04-18T14:46:23.539Z</time></trkpt><trkpt lat="43.46574" lon="10.6485133"><ele>307.0</ele><time>2026-04-18T14:46:24.539Z</time></trkpt><trkpt lat="43.4657633" lon="10.648395"><ele>307.0</ele><time>2026-04-18T14:46:25.539Z</time></trkpt><trkpt lat="43.46578" lon="10.64828"><ele>307.0</ele><time>2026-04-18T14:46:26.539Z</time></trkpt><trkpt lat="43.4657967" lon="10.6481467"><ele>304.6</ele><time>2026-04-18T14:46:27.54Z</time></trkpt><trkpt lat="43.4658133" lon="10.6480067"><ele>302.2</ele><time>2026-04-18T14:46:28.54Z</time></trkpt><trkpt lat="43.46583" lon="10.6478617"><ele>299.8</ele><time>2026-04-18T14:46:29.539Z</time></trkpt><trkpt lat="43.46585" lon="10.6477067"><ele>297.4</ele><time>2026-04-18T14:46:30.539Z</time></trkpt><trkpt lat="43.4658667" lon="10.6475567"><ele>295.0</ele><time>2026-04-18T14:46:31.539Z</time></trkpt><trkpt lat="43.4658917" lon="10.6473833"><ele>293.25</ele><time>2026-04-18T14:46:32.54Z</time></trkpt><trkpt lat="43.4659117" lon="10.6472083"><ele>291.5</ele><time>2026-04-18T14:46:33.539Z</time></trkpt><trkpt lat="43.4659317" lon="10.6470317"><ele>289.75</ele><time>2026-04-18T14:46:34.539Z</time></trkpt><trkpt lat="43.4659467" lon="10.6468583"><ele>288.0</ele><time>2026-04-18T14:46:35.539Z</time></trkpt><trkpt lat="43.46596" lon="10.6466967"><ele>288.0</ele><time>2026-04-18T14:46:36.539Z</time></trkpt><trkpt lat="43.465975" lon="10.6465383"><ele>288.0</ele><time>2026-04-18T14:46:37.539Z</time></trkpt><trkpt lat="43.4660467" lon="10.6460283"><ele>288.0</ele><time>2026-04-18T14:46:40.54Z</time></trkpt><trkpt lat="43.4660817" lon="10.6458517"><ele>288.0</ele><time>2026-04-18T14:46:41.539Z</time></trkpt><trkpt lat="43.466115" lon="10.6456767"><ele>288.0</ele><time>2026-04-18T14:46:42.539Z</time></trkpt><trkpt lat="43.4661533" lon="10.645505"><ele>288.0</ele><time>2026-04-18T14:46:43.54Z</time></trkpt><trkpt lat="43.4661917" lon="10.6453533"><ele>288.25</ele><time>2026-04-18T14:46:44.539Z</time></trkpt><trkpt lat="43.4662283" lon="10.6452017"><ele>288.5</ele><time>2026-04-18T14:46:45.539Z</time></trkpt><trkpt lat="43.4662683" lon="10.6450467"><ele>288.75</ele><time>2026-04-18T14:46:46.539Z</time></trkpt><trkpt lat="43.4663083" lon="10.6448983"><ele>289.0</ele><time>2026-04-18T14:46:47.539Z</time></trkpt><trkpt lat="43.4663517" lon="10.6447433"><ele>290.0</ele><time>2026-04-18T14:46:48.539Z</time></trkpt><trkpt lat="43.4663983" lon="10.6445917"><ele>291.0</ele><time>2026-04-18T14:46:49.539Z</time></trkpt><trkpt lat="43.4664583" lon="10.6444217"><ele>292.0</ele><time>2026-04-18T14:46:50.54Z</time></trkpt><trkpt lat="43.4665217" lon="10.6442417"><ele>293.0</ele><time>2026-04-18T14:46:51.539Z</time></trkpt><trkpt lat="43.4665917" lon="10.644055"><ele>294.0</ele><time>2026-04-18T14:46:52.539Z</time></trkpt><trkpt lat="43.4666567" lon="10.6438733"><ele>295.0</ele><time>2026-04-18T14:46:53.539Z</time></trkpt><trkpt lat="43.46672" lon="10.6436967"><ele>296.0</ele><time>2026-04-18T14:46:54.539Z</time></trkpt><trkpt lat="43.466775" lon="10.6435417"><ele>297.0</ele><time>2026-04-18T14:46:55.539Z</time></trkpt><trkpt lat="43.4668267" lon="10.6434033"><ele>298.0</ele><time>2026-04-18T14:46:56.539Z</time></trkpt><trkpt lat="43.4668667" lon="10.643285"><ele>299.0</ele><time>2026-04-18T14:46:57.539Z</time></trkpt><trkpt lat="43.4669033" lon="10.6431867"><ele>300.0</ele><time>2026-04-18T14:46:58.539Z</time></trkpt><trkpt lat="43.466935" lon="10.6431017"><ele>301.0</ele><time>2026-04-18T14:46:59.539Z</time></trkpt><trkpt lat="43.4669617" lon="10.6429533"><ele>302.0</ele><time>2026-04-18T14:47:01.539Z</time></trkpt><trkpt lat="43.46693" lon="10.64282"><ele>303.0</ele><time>2026-04-18T14:47:03.538Z</time></trkpt><trkpt lat="43.466935" lon="10.6426983"><ele>304.0</ele><time>2026-04-18T14:47:05.538Z</time></trkpt><trkpt lat="43.4670083" lon="10.64259"><ele>305.0</ele><time>2026-04-18T14:47:07.539Z</time></trkpt><trkpt lat="43.4670633" lon="10.64253"><ele>306.0</ele><time>2026-04-18T14:47:08.538Z</time></trkpt><trkpt lat="43.467115" lon="10.6424667"><ele>307.0</ele><time>2026-04-18T14:47:09.538Z</time></trkpt><trkpt lat="43.46716" lon="10.642405"><ele>308.0</ele><time>2026-04-18T14:47:10.538Z</time></trkpt><trkpt lat="43.4672083" lon="10.6423383"><ele>309.33333333333337</ele><time>2026-04-18T14:47:11.538Z</time></trkpt><trkpt lat="43.467405" lon="10.6420117"><ele>310.6666666666667</ele><time>2026-04-18T14:47:15.538Z</time></trkpt><trkpt lat="43.467455" lon="10.6419317"><ele>312.0</ele><time>2026-04-18T14:47:16.538Z</time></trkpt><trkpt lat="43.4674983" lon="10.6418483"><ele>313.1666666666667</ele><time>2026-04-18T14:47:17.538Z</time></trkpt><trkpt lat="43.4675317" lon="10.6417733"><ele>314.3333333333333</ele><time>2026-04-18T14:47:18.538Z</time></trkpt><trkpt lat="43.4675617" lon="10.641685"><ele>315.5</ele><time>2026-04-18T14:47:19.539Z</time></trkpt><trkpt lat="43.467595" lon="10.6415867"><ele>316.66666666666663</ele><time>2026-04-18T14:47:20.539Z</time></trkpt><trkpt lat="43.4676283" lon="10.6414867"><ele>317.8333333333333</ele><time>2026-04-18T14:47:21.538Z</time></trkpt><trkpt lat="43.4676667" lon="10.64137"><ele>319.0</ele><time>2026-04-18T14:47:22.538Z</time></trkpt><trkpt lat="43.467715" lon="10.6412483"><ele>319.0</ele><time>2026-04-18T14:47:23.538Z</time></trkpt><trkpt lat="43.46776" lon="10.6411333"><ele>319.0</ele><time>2026-04-18T14:47:24.538Z</time></trkpt><trkpt lat="43.4678033" lon="10.6410167"><ele>319.0</ele><time>2026-04-18T14:47:25.538Z</time></trkpt><trkpt lat="43.4678417" lon="10.6409"><ele>319.0</ele><time>2026-04-18T14:47:26.538Z</time></trkpt><trkpt lat="43.467875" lon="10.6407883"><ele>319.0</ele><time>2026-04-18T14:47:27.538Z</time></trkpt><trkpt lat="43.467915" lon="10.6406817"><ele>320.0</ele><time>2026-04-18T14:47:28.538Z</time></trkpt><trkpt lat="43.467955" lon="10.6405717"><ele>321.0</ele><time>2026-04-18T14:47:29.538Z</time></trkpt><trkpt lat="43.4680033" lon="10.6404617"><ele>322.0</ele><time>2026-04-18T14:47:30.538Z</time></trkpt><trkpt lat="43.468045" lon="10.640365"><ele>323.0</ele><time>2026-04-18T14:47:31.538Z</time></trkpt><trkpt lat="43.4680867" lon="10.6402717"><ele>324.0</ele><time>2026-04-18T14:47:32.538Z</time></trkpt><trkpt lat="43.46814" lon="10.6401817"><ele>325.0</ele><time>2026-04-18T14:47:33.538Z</time></trkpt><trkpt lat="43.4681983" lon="10.6400967"><ele>326.16666666666663</ele><time>2026-04-18T14:47:34.538Z</time></trkpt><trkpt lat="43.4682617" lon="10.64002"><ele>327.3333333333333</ele><time>2026-04-18T14:47:35.539Z</time></trkpt><trkpt lat="43.4683233" lon="10.6399617"><ele>328.5</ele><time>2026-04-18T14:47:36.538Z</time></trkpt><trkpt lat="43.4683867" lon="10.63992"><ele>329.6666666666667</ele><time>2026-04-18T14:47:37.539Z</time></trkpt><trkpt lat="43.4684583" lon="10.6398833"><ele>330.83333333333337</ele><time>2026-04-18T14:47:38.538Z</time></trkpt><trkpt lat="43.4685333" lon="10.6398533"><ele>332.0</ele><time>2026-04-18T14:47:39.539Z</time></trkpt><trkpt lat="43.4686067" lon="10.6398183"><ele>332.0</ele><time>2026-04-18T14:47:40.538Z</time></trkpt><trkpt lat="43.46868" lon="10.63979"><ele>332.0</ele><time>2026-04-18T14:47:41.538Z</time></trkpt><trkpt lat="43.4687567" lon="10.6397567"><ele>332.0</ele><time>2026-04-18T14:47:42.539Z</time></trkpt><trkpt lat="43.46884" lon="10.63971"><ele>332.0</ele><time>2026-04-18T14:47:43.539Z</time></trkpt><trkpt lat="43.4689233" lon="10.6396567"><ele>332.0</ele><time>2026-04-18T14:47:44.539Z</time></trkpt><trkpt lat="43.469015" lon="10.6395867"><ele>332.0</ele><time>2026-04-18T14:47:45.538Z</time></trkpt><trkpt lat="43.4692917" lon="10.63932"><ele>332.20000000000005</ele><time>2026-04-18T14:47:48.538Z</time></trkpt><trkpt lat="43.469365" lon="10.6392333"><ele>332.4</ele><time>2026-04-18T14:47:49.539Z</time></trkpt><trkpt lat="43.469425" lon="10.6391467"><ele>332.6</ele><time>2026-04-18T14:47:50.538Z</time></trkpt><trkpt lat="43.4694783" lon="10.6390417"><ele>332.79999999999995</ele><time>2026-04-18T14:47:51.538Z</time></trkpt><trkpt lat="43.4695167" lon="10.6389267"><ele>333.0</ele><time>2026-04-18T14:47:52.538Z</time></trkpt><trkpt lat="43.4695467" lon="10.6387817"><ele>333.0</ele><time>2026-04-18T14:47:53.538Z</time></trkpt><trkpt lat="43.4695733" lon="10.6386633"><ele>333.0</ele><time>2026-04-18T14:47:54.538Z</time></trkpt><trkpt lat="43.4696017" lon="10.63856"><ele>333.0</ele><time>2026-04-18T14:47:55.538Z</time></trkpt><trkpt lat="43.469635" lon="10.6384833"><ele>333.0</ele><time>2026-04-18T14:47:56.538Z</time></trkpt><trkpt lat="43.4696817" lon="10.6384067"><ele>333.0</ele><time>2026-04-18T14:47:57.538Z</time></trkpt><trkpt lat="43.4697267" lon="10.6383367"><ele>333.0</ele><time>2026-04-18T14:47:58.538Z</time></trkpt><trkpt lat="43.4697833" lon="10.63827"><ele>335.0</ele><time>2026-04-18T14:47:59.538Z</time></trkpt><trkpt lat="43.4698417" lon="10.6382133"><ele>337.0</ele><time>2026-04-18T14:48:00.538Z</time></trkpt><trkpt lat="43.4699" lon="10.6381633"><ele>339.0</ele><time>2026-04-18T14:48:01.538Z</time></trkpt><trkpt lat="43.469955" lon="10.6381167"><ele>341.0</ele><time>2026-04-18T14:48:02.539Z</time></trkpt><trkpt lat="43.4700217" lon="10.6380617"><ele>343.0</ele><time>2026-04-18T14:48:03.538Z</time></trkpt><trkpt lat="43.4701033" lon="10.6380117"><ele>345.0</ele><time>2026-04-18T14:48:04.538Z</time></trkpt><trkpt lat="43.4701867" lon="10.6379767"><ele>345.0</ele><time>2026-04-18T14:48:05.538Z</time></trkpt><trkpt lat="43.4702833" lon="10.6379383"><ele>345.0</ele><time>2026-04-18T14:48:06.538Z</time></trkpt><trkpt lat="43.47039" lon="10.63789"><ele>345.0</ele><time>2026-04-18T14:48:07.538Z</time></trkpt><trkpt lat="43.470485" lon="10.6378383"><ele>345.0</ele><time>2026-04-18T14:48:08.538Z</time></trkpt><trkpt lat="43.470585" lon="10.6377817"><ele>345.0</ele><time>2026-04-18T14:48:09.538Z</time></trkpt><trkpt lat="43.4706783" lon="10.6377317"><ele>345.8333333333333</ele><time>2026-04-18T14:48:10.538Z</time></trkpt><trkpt lat="43.470755" lon="10.637705"><ele>346.6666666666667</ele><time>2026-04-18T14:48:11.538Z</time></trkpt><trkpt lat="43.4708183" lon="10.63768"><ele>347.5</ele><time>2026-04-18T14:48:12.538Z</time></trkpt><trkpt lat="43.4708817" lon="10.637655"><ele>348.33333333333337</ele><time>2026-04-18T14:48:13.538Z</time></trkpt><trkpt lat="43.4709417" lon="10.6376"><ele>349.1666666666667</ele><time>2026-04-18T14:48:14.538Z</time></trkpt><trkpt lat="43.47101" lon="10.63752"><ele>350.0</ele><time>2026-04-18T14:48:15.538Z</time></trkpt><trkpt lat="43.4710817" lon="10.6374417"><ele>350.0</ele><time>2026-04-18T14:48:16.538Z</time></trkpt><trkpt lat="43.4711567" lon="10.6373717"><ele>350.0</ele><time>2026-04-18T14:48:17.538Z</time></trkpt><trkpt lat="43.4714033" lon="10.6371333"><ele>350.0</ele><time>2026-04-18T14:48:20.538Z</time></trkpt><trkpt lat="43.4714917" lon="10.637055"><ele>349.2</ele><time>2026-04-18T14:48:21.538Z</time></trkpt><trkpt lat="43.4715833" lon="10.63698"><ele>348.4</ele><time>2026-04-18T14:48:22.538Z</time></trkpt><trkpt lat="43.4716783" lon="10.6369083"><ele>347.6</ele><time>2026-04-18T14:48:23.538Z</time></trkpt><trkpt lat="43.4717733" lon="10.6368417"><ele>346.8</ele><time>2026-04-18T14:48:24.538Z</time></trkpt><trkpt lat="43.4718683" lon="10.63678"><ele>346.0</ele><time>2026-04-18T14:48:25.538Z</time></trkpt><trkpt lat="43.4719683" lon="10.6366983"><ele>347.20000000000005</ele><time>2026-04-18T14:48:26.538Z</time></trkpt><trkpt lat="43.472055" lon="10.6366267"><ele>348.40000000000003</ele><time>2026-04-18T14:48:27.538Z</time></trkpt><trkpt lat="43.4721467" lon="10.636555"><ele>349.6</ele><time>2026-04-18T14:48:28.539Z</time></trkpt><trkpt lat="43.4722333" lon="10.6364733"><ele>350.8</ele><time>2026-04-18T14:48:29.538Z</time></trkpt><trkpt lat="43.4723167" lon="10.6363983"><ele>352.0</ele><time>2026-04-18T14:48:30.538Z</time></trkpt><trkpt lat="43.4723883" lon="10.6363283"><ele>352.0</ele><time>2026-04-18T14:48:31.538Z</time></trkpt><trkpt lat="43.47245" lon="10.6362717"><ele>352.0</ele><time>2026-04-18T14:48:32.539Z</time></trkpt><trkpt lat="43.47253" lon="10.6361867"><ele>352.0</ele><time>2026-04-18T14:48:34.538Z</time></trkpt><trkpt lat="43.47257" lon="10.6361133"><ele>352.0</ele><time>2026-04-18T14:48:37.538Z</time></trkpt><trkpt lat="43.4725233" lon="10.6360417"><ele>352.0</ele><time>2026-04-18T14:48:42.538Z</time></trkpt><trkpt lat="43.47245" lon="10.6360833"><ele>352.0</ele><time>2026-04-18T14:48:44.539Z</time></trkpt><trkpt lat="43.4723867" lon="10.6361083"><ele>352.0</ele><time>2026-04-18T14:48:45.538Z</time></trkpt><trkpt lat="43.4723133" lon="10.63613"><ele>352.0</ele><time>2026-04-18T14:48:46.538Z</time></trkpt><trkpt lat="43.47222" lon="10.6361483"><ele>352.0</ele><time>2026-04-18T14:48:47.538Z</time></trkpt><trkpt lat="43.4721217" lon="10.6361367"><ele>352.0</ele><time>2026-04-18T14:48:48.538Z</time></trkpt><trkpt lat="43.47203" lon="10.63609"><ele>352.0</ele><time>2026-04-18T14:48:49.538Z</time></trkpt><trkpt lat="43.4719433" lon="10.6360133"><ele>354.66666666666663</ele><time>2026-04-18T14:48:50.538Z</time></trkpt><trkpt lat="43.4718617" lon="10.6359033"><ele>357.3333333333333</ele><time>2026-04-18T14:48:51.538Z</time></trkpt><trkpt lat="43.4717767" lon="10.6357783"><ele>360.0</ele><time>2026-04-18T14:48:52.538Z</time></trkpt><trkpt lat="43.4715617" lon="10.6352517"><ele>361.0</ele><time>2026-04-18T14:48:55.538Z</time></trkpt><trkpt lat="43.471485" lon="10.6350483"><ele>362.0</ele><time>2026-04-18T14:48:56.538Z</time></trkpt><trkpt lat="43.4714133" lon="10.6348383"><ele>363.0</ele><time>2026-04-18T14:48:57.538Z</time></trkpt><trkpt lat="43.471335" lon="10.6346333"><ele>359.3333333333333</ele><time>2026-04-18T14:48:58.538Z</time></trkpt><trkpt lat="43.4712467" lon="10.6344217"><ele>355.66666666666663</ele><time>2026-04-18T14:48:59.538Z</time></trkpt><trkpt lat="43.4711633" lon="10.634215"><ele>352.0</ele><time>2026-04-18T14:49:00.538Z</time></trkpt><trkpt lat="43.4710867" lon="10.6340217"><ele>352.0</ele><time>2026-04-18T14:49:01.538Z</time></trkpt><trkpt lat="43.4710133" lon="10.6338367"><ele>352.0</ele><time>2026-04-18T14:49:02.538Z</time></trkpt><trkpt lat="43.4709483" lon="10.6336583"><ele>352.0</ele><time>2026-04-18T14:49:03.538Z</time></trkpt><trkpt lat="43.4708817" lon="10.6334717"><ele>352.0</ele><time>2026-04-18T14:49:04.538Z</time></trkpt><trkpt lat="43.4708183" lon="10.633295"><ele>354.3333333333333</ele><time>2026-04-18T14:49:05.538Z</time></trkpt><trkpt lat="43.470745" lon="10.633135"><ele>356.6666666666667</ele><time>2026-04-18T14:49:06.538Z</time></trkpt><trkpt lat="43.470655" lon="10.6329767"><ele>359.0</ele><time>2026-04-18T14:49:07.538Z</time></trkpt><trkpt lat="43.4705283" lon="10.632805"><ele>356.33333333333337</ele><time>2026-04-18T14:49:08.539Z</time></trkpt><trkpt lat="43.470395" lon="10.6326483"><ele>353.6666666666667</ele><time>2026-04-18T14:49:09.538Z</time></trkpt><trkpt lat="43.4702683" lon="10.63249"><ele>351.0</ele><time>2026-04-18T14:49:10.538Z</time></trkpt><trkpt lat="43.47016" lon="10.6323433"><ele>351.0</ele><time>2026-04-18T14:49:11.538Z</time></trkpt><trkpt lat="43.470055" lon="10.6322017"><ele>351.0</ele><time>2026-04-18T14:49:12.538Z</time></trkpt><trkpt lat="43.4699517" lon="10.63208"><ele>351.0</ele><time>2026-04-18T14:49:13.538Z</time></trkpt><trkpt lat="43.46983" lon="10.6319817"><ele>351.0</ele><time>2026-04-18T14:49:14.538Z</time></trkpt><trkpt lat="43.4696983" lon="10.631915"><ele>348.6</ele><time>2026-04-18T14:49:15.538Z</time></trkpt><trkpt lat="43.4695833" lon="10.6318683"><ele>346.20000000000005</ele><time>2026-04-18T14:49:16.539Z</time></trkpt><trkpt lat="43.4694883" lon="10.6318117"><ele>343.79999999999995</ele><time>2026-04-18T14:49:17.538Z</time></trkpt><trkpt lat="43.4694233" lon="10.6317367"><ele>341.4</ele><time>2026-04-18T14:49:18.538Z</time></trkpt><trkpt lat="43.469395" lon="10.631645"><ele>339.0</ele><time>2026-04-18T14:49:19.538Z</time></trkpt><trkpt lat="43.4693867" lon="10.631515"><ele>339.0</ele><time>2026-04-18T14:49:20.538Z</time></trkpt><trkpt lat="43.46938" lon="10.63134"><ele>339.0</ele><time>2026-04-18T14:49:21.538Z</time></trkpt><trkpt lat="43.469345" lon="10.6311533"><ele>339.0</ele><time>2026-04-18T14:49:22.538Z</time></trkpt><trkpt lat="43.4692967" lon="10.6309917"><ele>339.0</ele><time>2026-04-18T14:49:23.538Z</time></trkpt><trkpt lat="43.4692633" lon="10.630835"><ele>342.3333333333333</ele><time>2026-04-18T14:49:24.539Z</time></trkpt><trkpt lat="43.4692267" lon="10.630685"><ele>345.66666666666663</ele><time>2026-04-18T14:49:25.538Z</time></trkpt><trkpt lat="43.4692783" lon="10.6303433"><ele>349.0</ele><time>2026-04-18T14:49:28.539Z</time></trkpt><trkpt lat="43.4693417" lon="10.6302533"><ele>351.0</ele><time>2026-04-18T14:49:29.538Z</time></trkpt><trkpt lat="43.4694117" lon="10.6301467"><ele>353.0</ele><time>2026-04-18T14:49:30.538Z</time></trkpt><trkpt lat="43.4694667" lon="10.6300233"><ele>355.0</ele><time>2026-04-18T14:49:31.539Z</time></trkpt><trkpt lat="43.4695" lon="10.6299017"><ele>357.0</ele><time>2026-04-18T14:49:32.538Z</time></trkpt><trkpt lat="43.4695167" lon="10.6297783"><ele>359.0</ele><time>2026-04-18T14:49:33.538Z</time></trkpt><trkpt lat="43.46952" lon="10.629675"><ele>359.0</ele><time>2026-04-18T14:49:34.538Z</time></trkpt><trkpt lat="43.4695" lon="10.6295883"><ele>359.0</ele><time>2026-04-18T14:49:35.538Z</time></trkpt><trkpt lat="43.4693767" lon="10.6295317"><ele>359.0</ele><time>2026-04-18T14:49:37.538Z</time></trkpt><trkpt lat="43.4692817" lon="10.62954"><ele>359.0</ele><time>2026-04-18T14:49:38.538Z</time></trkpt><trkpt lat="43.4692083" lon="10.6295683"><ele>359.0</ele><time>2026-04-18T14:49:39.538Z</time></trkpt><trkpt lat="43.4691367" lon="10.6296117"><ele>359.0</ele><time>2026-04-18T14:49:40.538Z</time></trkpt><trkpt lat="43.4690617" lon="10.6296883"><ele>359.0</ele><time>2026-04-18T14:49:41.538Z</time></trkpt><trkpt lat="43.4689683" lon="10.6297517"><ele>359.0</ele><time>2026-04-18T14:49:42.538Z</time></trkpt><trkpt lat="43.46887" lon="10.6298383"><ele>359.0</ele><time>2026-04-18T14:49:43.538Z</time></trkpt><trkpt lat="43.468775" lon="10.6299533"><ele>359.0</ele><time>2026-04-18T14:49:44.538Z</time></trkpt><trkpt lat="43.4686983" lon="10.6300983"><ele>360.6666666666667</ele><time>2026-04-18T14:49:45.538Z</time></trkpt><trkpt lat="43.46863" lon="10.6302833"><ele>362.3333333333333</ele><time>2026-04-18T14:49:46.538Z</time></trkpt><trkpt lat="43.46857" lon="10.630495"><ele>364.0</ele><time>2026-04-18T14:49:47.538Z</time></trkpt><trkpt lat="43.4685333" lon="10.6307"><ele>364.0</ele><time>2026-04-18T14:49:48.538Z</time></trkpt><trkpt lat="43.4684783" lon="10.6308767"><ele>364.0</ele><time>2026-04-18T14:49:49.538Z</time></trkpt><trkpt lat="43.468405" lon="10.6310367"><ele>364.0</ele><time>2026-04-18T14:49:50.538Z</time></trkpt><trkpt lat="43.4683333" lon="10.6311483"><ele>364.0</ele><time>2026-04-18T14:49:51.538Z</time></trkpt><trkpt lat="43.468245" lon="10.6312183"><ele>364.25</ele><time>2026-04-18T14:49:52.538Z</time></trkpt><trkpt lat="43.468165" lon="10.63124"><ele>364.5</ele><time>2026-04-18T14:49:53.538Z</time></trkpt><trkpt lat="43.46807" lon="10.6312317"><ele>364.75</ele><time>2026-04-18T14:49:54.538Z</time></trkpt><trkpt lat="43.4679567" lon="10.6311783"><ele>365.0</ele><time>2026-04-18T14:49:55.538Z</time></trkpt><trkpt lat="43.467815" lon="10.63109"><ele>365.0</ele><time>2026-04-18T14:49:56.538Z</time></trkpt><trkpt lat="43.4676617" lon="10.6309983"><ele>365.0</ele><time>2026-04-18T14:49:57.538Z</time></trkpt><trkpt lat="43.4672367" lon="10.6307933"><ele>364.75</ele><time>2026-04-18T14:50:00.539Z</time></trkpt><trkpt lat="43.4671067" lon="10.630755"><ele>364.5</ele><time>2026-04-18T14:50:01.538Z</time></trkpt><trkpt lat="43.46696" lon="10.6307567"><ele>364.25</ele><time>2026-04-18T14:50:02.538Z</time></trkpt><trkpt lat="43.4668033" lon="10.6308167"><ele>364.0</ele><time>2026-04-18T14:50:03.538Z</time></trkpt><trkpt lat="43.4666583" lon="10.6308917"><ele>364.0</ele><time>2026-04-18T14:50:04.538Z</time></trkpt><trkpt lat="43.46654" lon="10.6309283"><ele>364.0</ele><time>2026-04-18T14:50:05.538Z</time></trkpt><trkpt lat="43.46642" lon="10.6309433"><ele>364.0</ele><time>2026-04-18T14:50:06.538Z</time></trkpt><trkpt lat="43.4663133" lon="10.630915"><ele>364.0</ele><time>2026-04-18T14:50:07.538Z</time></trkpt><trkpt lat="43.4662217" lon="10.6308667"><ele>364.0</ele><time>2026-04-18T14:50:08.538Z</time></trkpt><trkpt lat="43.4661567" lon="10.63082"><ele>363.79999999999995</ele><time>2026-04-18T14:50:09.538Z</time></trkpt><trkpt lat="43.466095" lon="10.630775"><ele>363.59999999999997</ele><time>2026-04-18T14:50:11.538Z</time></trkpt><trkpt lat="43.4659933" lon="10.63074"><ele>363.4</ele><time>2026-04-18T14:50:15.538Z</time></trkpt><trkpt lat="43.4658483" lon="10.630775"><ele>363.2</ele><time>2026-04-18T14:50:17.538Z</time></trkpt><trkpt lat="43.46575" lon="10.6308233"><ele>363.0</ele><time>2026-04-18T14:50:18.538Z</time></trkpt><trkpt lat="43.4656517" lon="10.630885"><ele>363.0</ele><time>2026-04-18T14:50:19.539Z</time></trkpt><trkpt lat="43.4655517" lon="10.630955"><ele>363.0</ele><time>2026-04-18T14:50:20.538Z</time></trkpt><trkpt lat="43.4654583" lon="10.631015"><ele>363.0</ele><time>2026-04-18T14:50:21.538Z</time></trkpt><trkpt lat="43.465385" lon="10.631055"><ele>363.0</ele><time>2026-04-18T14:50:22.538Z</time></trkpt><trkpt lat="43.465275" lon="10.631095"><ele>363.0</ele><time>2026-04-18T14:50:24.538Z</time></trkpt><trkpt lat="43.4652067" lon="10.6311183"><ele>363.0</ele><time>2026-04-18T14:50:26.539Z</time></trkpt><trkpt lat="43.46514" lon="10.6311633"><ele>363.0</ele><time>2026-04-18T14:50:29.538Z</time></trkpt><trkpt lat="43.4652317" lon="10.6311383"><ele>363.0</ele><time>2026-04-18T14:50:58.537Z</time></trkpt><trkpt lat="43.46531" lon="10.631095"><ele>363.0</ele><time>2026-04-18T14:50:59.537Z</time></trkpt><trkpt lat="43.4654" lon="10.6310367"><ele>363.0</ele><time>2026-04-18T14:51:00.537Z</time></trkpt><trkpt lat="43.4654967" lon="10.6309683"><ele>363.0</ele><time>2026-04-18T14:51:01.537Z</time></trkpt><trkpt lat="43.4655983" lon="10.63091"><ele>363.0</ele><time>2026-04-18T14:51:02.538Z</time></trkpt><trkpt lat="43.4656967" lon="10.63085"><ele>363.0</ele><time>2026-04-18T14:51:03.537Z</time></trkpt><trkpt lat="43.46579" lon="10.6308"><ele>363.0</ele><time>2026-04-18T14:51:04.537Z</time></trkpt><trkpt lat="43.4658733" lon="10.6307683"><ele>363.0</ele><time>2026-04-18T14:51:05.537Z</time></trkpt><trkpt lat="43.466035" lon="10.630765"><ele>363.0</ele><time>2026-04-18T14:51:08.538Z</time></trkpt><trkpt lat="43.466095" lon="10.63073"><ele>363.0</ele><time>2026-04-18T14:51:11.537Z</time></trkpt><trkpt lat="43.4660783" lon="10.630625"><ele>363.0</ele><time>2026-04-18T14:51:14.537Z</time></trkpt><trkpt lat="43.4660517" lon="10.6304933"><ele>363.0</ele><time>2026-04-18T14:51:17.538Z</time></trkpt><trkpt lat="43.4660517" lon="10.6303533"><ele>363.0</ele><time>2026-04-18T14:51:19.537Z</time></trkpt><trkpt lat="43.466065" lon="10.6301933"><ele>363.4</ele><time>2026-04-18T14:51:21.537Z</time></trkpt><trkpt lat="43.4660717" lon="10.6300383"><ele>363.79999999999995</ele><time>2026-04-18T14:51:23.537Z</time></trkpt><trkpt lat="43.466055" lon="10.6298983"><ele>364.2</ele><time>2026-04-18T14:51:25.537Z</time></trkpt><trkpt lat="43.4659983" lon="10.6297533"><ele>364.6</ele><time>2026-04-18T14:51:27.537Z</time></trkpt><trkpt lat="43.46596" lon="10.629675"><ele>365.0</ele><time>2026-04-18T14:51:28.537Z</time></trkpt><trkpt lat="43.4659133" lon="10.6295933"><ele>365.0</ele><time>2026-04-18T14:51:29.537Z</time></trkpt><trkpt lat="43.4658617" lon="10.6295067"><ele>365.0</ele><time>2026-04-18T14:51:30.537Z</time></trkpt><trkpt lat="43.4658083" lon="10.62942"><ele>365.0</ele><time>2026-04-18T14:51:31.537Z</time></trkpt><trkpt lat="43.4657517" lon="10.62933"><ele>365.0</ele><time>2026-04-18T14:51:32.537Z</time></trkpt><trkpt lat="43.46569" lon="10.6292467"><ele>365.0</ele><time>2026-04-18T14:51:33.537Z</time></trkpt><trkpt lat="43.46563" lon="10.6291733"><ele>365.0</ele><time>2026-04-18T14:51:34.537Z</time></trkpt><trkpt lat="43.4655633" lon="10.62911"><ele>365.4</ele><time>2026-04-18T14:51:35.537Z</time></trkpt><trkpt lat="43.4654917" lon="10.62905"><ele>365.8</ele><time>2026-04-18T14:51:36.537Z</time></trkpt><trkpt lat="43.4654267" lon="10.62899"><ele>366.20000000000005</ele><time>2026-04-18T14:51:37.537Z</time></trkpt><trkpt lat="43.4653633" lon="10.6289117"><ele>366.6</ele><time>2026-04-18T14:51:38.537Z</time></trkpt><trkpt lat="43.4652967" lon="10.6288133"><ele>367.0</ele><time>2026-04-18T14:51:39.537Z</time></trkpt><trkpt lat="43.4651417" lon="10.628535"><ele>367.0</ele><time>2026-04-18T14:51:42.537Z</time></trkpt><trkpt lat="43.46511" lon="10.6284483"><ele>367.0</ele><time>2026-04-18T14:51:43.537Z</time></trkpt><trkpt lat="43.465075" lon="10.628305"><ele>367.0</ele><time>2026-04-18T14:51:45.537Z</time></trkpt><trkpt lat="43.4650883" lon="10.62818"><ele>367.0</ele><time>2026-04-18T14:51:47.537Z</time></trkpt><trkpt lat="43.4651433" lon="10.6280317"><ele>367.0</ele><time>2026-04-18T14:51:49.537Z</time></trkpt><trkpt lat="43.465185" lon="10.6279467"><ele>367.0</ele><time>2026-04-18T14:51:50.537Z</time></trkpt><trkpt lat="43.46522" lon="10.627865"><ele>367.0</ele><time>2026-04-18T14:51:51.537Z</time></trkpt><trkpt lat="43.4652667" lon="10.6277717"><ele>367.0</ele><time>2026-04-18T14:51:52.537Z</time></trkpt><trkpt lat="43.4653233" lon="10.6276733"><ele>367.0</ele><time>2026-04-18T14:51:53.537Z</time></trkpt><trkpt lat="43.46539" lon="10.627605"><ele>367.0</ele><time>2026-04-18T14:51:54.537Z</time></trkpt><trkpt lat="43.4654483" lon="10.6275417"><ele>367.0</ele><time>2026-04-18T14:51:55.537Z</time></trkpt><trkpt lat="43.465515" lon="10.6274383"><ele>367.66666666666663</ele><time>2026-04-18T14:51:57.537Z</time></trkpt><trkpt lat="43.465535" lon="10.62732"><ele>368.3333333333333</ele><time>2026-04-18T14:52:00.537Z</time></trkpt><trkpt lat="43.4654867" lon="10.6272217"><ele>369.0</ele><time>2026-04-18T14:52:02.537Z</time></trkpt><trkpt lat="43.465415" lon="10.6271567"><ele>369.6666666666667</ele><time>2026-04-18T14:52:04.537Z</time></trkpt><trkpt lat="43.4653533" lon="10.627115"><ele>370.33333333333337</ele><time>2026-04-18T14:52:05.537Z</time></trkpt><trkpt lat="43.46527" lon="10.6270867"><ele>371.0</ele><time>2026-04-18T14:52:06.537Z</time></trkpt><trkpt lat="43.4651867" lon="10.6270467"><ele>371.0</ele><time>2026-04-18T14:52:07.537Z</time></trkpt><trkpt lat="43.4650867" lon="10.62701"><ele>371.0</ele><time>2026-04-18T14:52:08.537Z</time></trkpt><trkpt lat="43.464995" lon="10.6269833"><ele>371.0</ele><time>2026-04-18T14:52:09.537Z</time></trkpt><trkpt lat="43.4649067" lon="10.6269717"><ele>371.0</ele><time>2026-04-18T14:52:10.537Z</time></trkpt><trkpt lat="43.4648267" lon="10.6269633"><ele>371.0</ele><time>2026-04-18T14:52:11.537Z</time></trkpt><trkpt lat="43.4647617" lon="10.626945"><ele>371.0</ele><time>2026-04-18T14:52:12.537Z</time></trkpt><trkpt lat="43.464585" lon="10.6268217"><ele>369.20000000000005</ele><time>2026-04-18T14:52:15.538Z</time></trkpt><trkpt lat="43.46451" lon="10.6267083"><ele>367.40000000000003</ele><time>2026-04-18T14:52:17.537Z</time></trkpt><trkpt lat="43.4644583" lon="10.6265633"><ele>365.6</ele><time>2026-04-18T14:52:19.537Z</time></trkpt><trkpt lat="43.4644383" lon="10.6264767"><ele>363.8</ele><time>2026-04-18T14:52:20.537Z</time></trkpt><trkpt lat="43.4644267" lon="10.62637"><ele>362.0</ele><time>2026-04-18T14:52:21.537Z</time></trkpt><trkpt lat="43.4644267" lon="10.6262567"><ele>362.0</ele><time>2026-04-18T14:52:22.537Z</time></trkpt><trkpt lat="43.4644283" lon="10.6261533"><ele>362.0</ele><time>2026-04-18T14:52:23.537Z</time></trkpt><trkpt lat="43.4644467" lon="10.6260067"><ele>362.0</ele><time>2026-04-18T14:52:25.537Z</time></trkpt><trkpt lat="43.464505" lon="10.6258717"><ele>362.0</ele><time>2026-04-18T14:52:27.537Z</time></trkpt><trkpt lat="43.46454" lon="10.6257983"><ele>362.0</ele><time>2026-04-18T14:52:28.537Z</time></trkpt><trkpt lat="43.46458" lon="10.6257233"><ele>362.0</ele><time>2026-04-18T14:52:29.537Z</time></trkpt><trkpt lat="43.4646383" lon="10.62564"><ele>367.83333333333337</ele><time>2026-04-18T14:52:30.537Z</time></trkpt><trkpt lat="43.4646933" lon="10.6255633"><ele>373.6666666666667</ele><time>2026-04-18T14:52:31.537Z</time></trkpt><trkpt lat="43.46474" lon="10.6254967"><ele>379.5</ele><time>2026-04-18T14:52:32.537Z</time></trkpt><trkpt lat="43.464775" lon="10.6254167"><ele>385.33333333333337</ele><time>2026-04-18T14:52:33.537Z</time></trkpt><trkpt lat="43.4647783" lon="10.6252433"><ele>391.1666666666667</ele><time>2026-04-18T14:52:35.537Z</time></trkpt><trkpt lat="43.4647733" lon="10.6251517"><ele>397.0</ele><time>2026-04-18T14:52:36.537Z</time></trkpt><trkpt lat="43.4647633" lon="10.6250567"><ele>397.0</ele><time>2026-04-18T14:52:37.537Z</time></trkpt><trkpt lat="43.4647883" lon="10.6248983"><ele>397.0</ele><time>2026-04-18T14:52:39.537Z</time></trkpt><trkpt lat="43.464865" lon="10.624755"><ele>397.0</ele><time>2026-04-18T14:52:41.537Z</time></trkpt><trkpt lat="43.4649283" lon="10.6246833"><ele>397.0</ele><time>2026-04-18T14:52:42.537Z</time></trkpt><trkpt lat="43.464995" lon="10.6245917"><ele>397.0</ele><time>2026-04-18T14:52:43.537Z</time></trkpt><trkpt lat="43.46507" lon="10.62448"><ele>392.6666666666667</ele><time>2026-04-18T14:52:44.537Z</time></trkpt><trkpt lat="43.4651367" lon="10.6243633"><ele>388.33333333333337</ele><time>2026-04-18T14:52:45.537Z</time></trkpt><trkpt lat="43.4652567" lon="10.6240217"><ele>384.0</ele><time>2026-04-18T14:52:48.537Z</time></trkpt><trkpt lat="43.4652883" lon="10.6239183"><ele>384.0</ele><time>2026-04-18T14:52:49.537Z</time></trkpt><trkpt lat="43.465325" lon="10.6238233"><ele>384.0</ele><time>2026-04-18T14:52:50.537Z</time></trkpt><trkpt lat="43.4653717" lon="10.62374"><ele>384.0</ele><time>2026-04-18T14:52:51.538Z</time></trkpt><trkpt lat="43.4654283" lon="10.6236433"><ele>384.0</ele><time>2026-04-18T14:52:52.537Z</time></trkpt><trkpt lat="43.465485" lon="10.6235433"><ele>384.0</ele><time>2026-04-18T14:52:53.537Z</time></trkpt><trkpt lat="43.465535" lon="10.6234333"><ele>384.0</ele><time>2026-04-18T14:52:54.537Z</time></trkpt><trkpt lat="43.465575" lon="10.623335"><ele>387.2</ele><time>2026-04-18T14:52:55.537Z</time></trkpt><trkpt lat="43.4656167" lon="10.6232433"><ele>390.4</ele><time>2026-04-18T14:52:56.537Z</time></trkpt><trkpt lat="43.46566" lon="10.623165"><ele>393.6</ele><time>2026-04-18T14:52:57.537Z</time></trkpt><trkpt lat="43.4657367" lon="10.6230467"><ele>396.8</ele><time>2026-04-18T14:52:59.537Z</time></trkpt><trkpt lat="43.4658217" lon="10.6229933"><ele>400.0</ele><time>2026-04-18T14:53:01.537Z</time></trkpt><trkpt lat="43.465955" lon="10.62297"><ele>400.00000000000006</ele><time>2026-04-18T14:53:03.537Z</time></trkpt><trkpt lat="43.4660367" lon="10.622955"><ele>400.0</ele><time>2026-04-18T14:53:04.537Z</time></trkpt><trkpt lat="43.46611" lon="10.6229433"><ele>400.0</ele><time>2026-04-18T14:53:05.537Z</time></trkpt><trkpt lat="43.4662267" lon="10.6228767"><ele>400.0</ele><time>2026-04-18T14:53:07.537Z</time></trkpt><trkpt lat="43.46629" lon="10.62282"><ele>400.00000000000006</ele><time>2026-04-18T14:53:08.537Z</time></trkpt><trkpt lat="43.4663433" lon="10.6227617"><ele>400.0</ele><time>2026-04-18T14:53:09.537Z</time></trkpt><trkpt lat="43.4663867" lon="10.6226867"><ele>402.1666666666667</ele><time>2026-04-18T14:53:10.537Z</time></trkpt><trkpt lat="43.46643" lon="10.6226133"><ele>404.33333333333337</ele><time>2026-04-18T14:53:11.537Z</time></trkpt><trkpt lat="43.4664667" lon="10.6224517"><ele>406.5</ele><time>2026-04-18T14:53:13.537Z</time></trkpt><trkpt lat="43.4664683" lon="10.6223383"><ele>408.66666666666663</ele><time>2026-04-18T14:53:14.537Z</time></trkpt><trkpt lat="43.4664683" lon="10.622225"><ele>410.8333333333333</ele><time>2026-04-18T14:53:15.537Z</time></trkpt><trkpt lat="43.4664683" lon="10.6221083"><ele>413.0</ele><time>2026-04-18T14:53:16.537Z</time></trkpt><trkpt lat="43.466475" lon="10.621985"><ele>411.0</ele><time>2026-04-18T14:53:17.537Z</time></trkpt><trkpt lat="43.4664833" lon="10.6218733"><ele>409.0</ele><time>2026-04-18T14:53:18.537Z</time></trkpt><trkpt lat="43.46649" lon="10.6217833"><ele>407.0</ele><time>2026-04-18T14:53:19.537Z</time></trkpt><trkpt lat="43.4665583" lon="10.621595"><ele>405.0</ele><time>2026-04-18T14:53:22.537Z</time></trkpt><trkpt lat="43.4666317" lon="10.6215183"><ele>403.0</ele><time>2026-04-18T14:53:24.537Z</time></trkpt><trkpt lat="43.4667383" lon="10.6214367"><ele>403.00000000000006</ele><time>2026-04-18T14:53:26.538Z</time></trkpt><trkpt lat="43.4667933" lon="10.6213917"><ele>403.0</ele><time>2026-04-18T14:53:27.537Z</time></trkpt><trkpt lat="43.4668533" lon="10.6213167"><ele>403.0</ele><time>2026-04-18T14:53:29.538Z</time></trkpt><trkpt lat="43.4668933" lon="10.6212117"><ele>403.0</ele><time>2026-04-18T14:53:31.538Z</time></trkpt><trkpt lat="43.46691" lon="10.6210883"><ele>403.00000000000006</ele><time>2026-04-18T14:53:33.537Z</time></trkpt><trkpt lat="43.4668817" lon="10.620945"><ele>403.0</ele><time>2026-04-18T14:53:35.537Z</time></trkpt><trkpt lat="43.4668467" lon="10.62086"><ele>401.79999999999995</ele><time>2026-04-18T14:53:36.537Z</time></trkpt><trkpt lat="43.4667983" lon="10.6207633"><ele>400.6</ele><time>2026-04-18T14:53:37.537Z</time></trkpt><trkpt lat="43.466745" lon="10.62067"><ele>399.4</ele><time>2026-04-18T14:53:38.538Z</time></trkpt><trkpt lat="43.4666967" lon="10.6205683"><ele>398.20000000000005</ele><time>2026-04-18T14:53:39.537Z</time></trkpt><trkpt lat="43.4666617" lon="10.62048"><ele>397.0</ele><time>2026-04-18T14:53:40.537Z</time></trkpt><trkpt lat="43.4666317" lon="10.62032"><ele>398.50000000000006</ele><time>2026-04-18T14:53:42.538Z</time></trkpt><trkpt lat="43.4666317" lon="10.6202317"><ele>400.0</ele><time>2026-04-18T14:53:43.537Z</time></trkpt><trkpt lat="43.4666433" lon="10.6201217"><ele>401.5</ele><time>2026-04-18T14:53:44.537Z</time></trkpt><trkpt lat="43.46666" lon="10.6200033"><ele>403.0</ele><time>2026-04-18T14:53:45.537Z</time></trkpt><trkpt lat="43.466675" lon="10.6198967"><ele>404.50000000000006</ele><time>2026-04-18T14:53:46.537Z</time></trkpt><trkpt lat="43.4666983" lon="10.6198017"><ele>406.0</ele><time>2026-04-18T14:53:47.537Z</time></trkpt><trkpt lat="43.46671" lon="10.6197017"><ele>406.0</ele><time>2026-04-18T14:53:48.537Z</time></trkpt><trkpt lat="43.466725" lon="10.61959"><ele>406.0</ele><time>2026-04-18T14:53:49.538Z</time></trkpt><trkpt lat="43.4667233" lon="10.6194717"><ele>406.0</ele><time>2026-04-18T14:53:50.537Z</time></trkpt><trkpt lat="43.4667183" lon="10.6193417"><ele>406.0</ele><time>2026-04-18T14:53:51.537Z</time></trkpt><trkpt lat="43.4667017" lon="10.6192083"><ele>406.0</ele><time>2026-04-18T14:53:52.537Z</time></trkpt><trkpt lat="43.46669" lon="10.619075"><ele>407.5</ele><time>2026-04-18T14:53:53.537Z</time></trkpt><trkpt lat="43.4666767" lon="10.6187183"><ele>409.0</ele><time>2026-04-18T14:53:56.537Z</time></trkpt><trkpt lat="43.4666533" lon="10.6185817"><ele>410.5</ele><time>2026-04-18T14:53:58.537Z</time></trkpt><trkpt lat="43.4666083" lon="10.6184783"><ele>412.0</ele><time>2026-04-18T14:54:00.537Z</time></trkpt><trkpt lat="43.4665567" lon="10.6184117"><ele>410.33333333333337</ele><time>2026-04-18T14:54:01.536Z</time></trkpt><trkpt lat="43.4664933" lon="10.6183333"><ele>408.6666666666667</ele><time>2026-04-18T14:54:02.536Z</time></trkpt><trkpt lat="43.46644" lon="10.618255"><ele>407.0</ele><time>2026-04-18T14:54:03.536Z</time></trkpt><trkpt lat="43.4663967" lon="10.618155"><ele>405.33333333333337</ele><time>2026-04-18T14:54:04.537Z</time></trkpt><trkpt lat="43.466345" lon="10.6180517"><ele>403.6666666666667</ele><time>2026-04-18T14:54:05.536Z</time></trkpt><trkpt lat="43.466295" lon="10.6179633"><ele>402.0</ele><time>2026-04-18T14:54:06.536Z</time></trkpt><trkpt lat="43.466225" lon="10.6178233"><ele>404.40000000000003</ele><time>2026-04-18T14:54:08.536Z</time></trkpt><trkpt lat="43.4661683" lon="10.617685"><ele>406.8</ele><time>2026-04-18T14:54:10.536Z</time></trkpt><trkpt lat="43.4661383" lon="10.617585"><ele>409.2</ele><time>2026-04-18T14:54:11.536Z</time></trkpt><trkpt lat="43.4661017" lon="10.6174783"><ele>411.6</ele><time>2026-04-18T14:54:12.536Z</time></trkpt><trkpt lat="43.4660567" lon="10.617365"><ele>414.0</ele><time>2026-04-18T14:54:13.536Z</time></trkpt><trkpt lat="43.4660033" lon="10.61725"><ele>414.0</ele><time>2026-04-18T14:54:14.536Z</time></trkpt><trkpt lat="43.4659583" lon="10.61714"><ele>414.0</ele><time>2026-04-18T14:54:15.536Z</time></trkpt><trkpt lat="43.4659167" lon="10.6170333"><ele>414.0</ele><time>2026-04-18T14:54:16.536Z</time></trkpt><trkpt lat="43.4658783" lon="10.6169333"><ele>414.0</ele><time>2026-04-18T14:54:17.536Z</time></trkpt><trkpt lat="43.465845" lon="10.616825"><ele>414.0</ele><time>2026-04-18T14:54:18.536Z</time></trkpt><trkpt lat="43.4658183" lon="10.6167117"><ele>414.0</ele><time>2026-04-18T14:54:19.537Z</time></trkpt><trkpt lat="43.4657933" lon="10.6166033"><ele>417.0</ele><time>2026-04-18T14:54:20.536Z</time></trkpt><trkpt lat="43.46576" lon="10.6165"><ele>420.0</ele><time>2026-04-18T14:54:21.537Z</time></trkpt><trkpt lat="43.4657417" lon="10.6163833"><ele>423.0</ele><time>2026-04-18T14:54:22.536Z</time></trkpt><trkpt lat="43.4657217" lon="10.61626"><ele>426.0</ele><time>2026-04-18T14:54:23.536Z</time></trkpt><trkpt lat="43.465705" lon="10.616145"><ele>429.0</ele><time>2026-04-18T14:54:24.536Z</time></trkpt><trkpt lat="43.46567" lon="10.61604"><ele>432.0</ele><time>2026-04-18T14:54:25.536Z</time></trkpt><trkpt lat="43.46565" lon="10.61595"><ele>434.25</ele><time>2026-04-18T14:54:26.536Z</time></trkpt><trkpt lat="43.46559" lon="10.6157167"><ele>436.5</ele><time>2026-04-18T14:54:29.536Z</time></trkpt><trkpt lat="43.4656083" lon="10.6155783"><ele>438.75</ele><time>2026-04-18T14:54:31.536Z</time></trkpt><trkpt lat="43.46564" lon="10.6154933"><ele>441.0</ele><time>2026-04-18T14:54:33.536Z</time></trkpt><trkpt lat="43.4657117" lon="10.6153867"><ele>441.20000000000005</ele><time>2026-04-18T14:54:35.537Z</time></trkpt><trkpt lat="43.4657633" lon="10.61525"><ele>441.40000000000003</ele><time>2026-04-18T14:54:37.536Z</time></trkpt><trkpt lat="43.4657833" lon="10.6150783"><ele>441.6</ele><time>2026-04-18T14:54:39.537Z</time></trkpt><trkpt lat="43.465795" lon="10.6149767"><ele>441.8</ele><time>2026-04-18T14:54:40.536Z</time></trkpt><trkpt lat="43.4658033" lon="10.61487"><ele>442.0</ele><time>2026-04-18T14:54:41.536Z</time></trkpt><trkpt lat="43.4658283" lon="10.6147783"><ele>442.00000000000006</ele><time>2026-04-18T14:54:42.536Z</time></trkpt><trkpt lat="43.4658633" lon="10.6147017"><ele>442.0</ele><time>2026-04-18T14:54:43.536Z</time></trkpt><trkpt lat="43.465935" lon="10.6145517"><ele>442.0</ele><time>2026-04-18T14:54:45.536Z</time></trkpt><trkpt lat="43.4659733" lon="10.61447"><ele>442.0</ele><time>2026-04-18T14:54:46.536Z</time></trkpt><trkpt lat="43.4660183" lon="10.614385"><ele>442.00000000000006</ele><time>2026-04-18T14:54:47.536Z</time></trkpt><trkpt lat="43.46606" lon="10.6142967"><ele>442.0</ele><time>2026-04-18T14:54:48.537Z</time></trkpt><trkpt lat="43.4661" lon="10.6142133"><ele>443.50000000000006</ele><time>2026-04-18T14:54:49.536Z</time></trkpt><trkpt lat="43.4661317" lon="10.614135"><ele>445.0</ele><time>2026-04-18T14:54:50.536Z</time></trkpt><trkpt lat="43.46617" lon="10.6140517"><ele>446.5</ele><time>2026-04-18T14:54:51.536Z</time></trkpt><trkpt lat="43.46621" lon="10.6139717"><ele>448.0</ele><time>2026-04-18T14:54:52.536Z</time></trkpt><trkpt lat="43.4662417" lon="10.61389"><ele>449.50000000000006</ele><time>2026-04-18T14:54:53.536Z</time></trkpt><trkpt lat="43.466285" lon="10.61374"><ele>451.0</ele><time>2026-04-18T14:54:55.536Z</time></trkpt><trkpt lat="43.4663017" lon="10.6136167"><ele>454.8</ele><time>2026-04-18T14:54:57.536Z</time></trkpt><trkpt lat="43.4662567" lon="10.613495"><ele>458.6</ele><time>2026-04-18T14:54:59.536Z</time></trkpt><trkpt lat="43.466125" lon="10.6134017"><ele>462.4</ele><time>2026-04-18T14:55:02.536Z</time></trkpt><trkpt lat="43.466055" lon="10.613415"><ele>466.2</ele><time>2026-04-18T14:55:04.536Z</time></trkpt><trkpt lat="43.4660067" lon="10.6135017"><ele>470.0</ele><time>2026-04-18T14:55:06.536Z</time></trkpt><trkpt lat="43.46597" lon="10.6135783"><ele>466.8333333333333</ele><time>2026-04-18T14:55:07.536Z</time></trkpt><trkpt lat="43.4659283" lon="10.6136617"><ele>463.66666666666663</ele><time>2026-04-18T14:55:08.536Z</time></trkpt><trkpt lat="43.4658733" lon="10.61374"><ele>460.5</ele><time>2026-04-18T14:55:09.536Z</time></trkpt><trkpt lat="43.4658183" lon="10.61382"><ele>457.33333333333337</ele><time>2026-04-18T14:55:10.537Z</time></trkpt><trkpt lat="43.4657633" lon="10.6139033"><ele>454.1666666666667</ele><time>2026-04-18T14:55:11.536Z</time></trkpt><trkpt lat="43.4656833" lon="10.6139983"><ele>451.0</ele><time>2026-04-18T14:55:12.536Z</time></trkpt><trkpt lat="43.4656067" lon="10.6141017"><ele>451.0</ele><time>2026-04-18T14:55:13.536Z</time></trkpt><trkpt lat="43.465535" lon="10.6142033"><ele>451.0</ele><time>2026-04-18T14:55:14.536Z</time></trkpt><trkpt lat="43.4654717" lon="10.6142983"><ele>451.0</ele><time>2026-04-18T14:55:15.536Z</time></trkpt><trkpt lat="43.465415" lon="10.6143933"><ele>451.0</ele><time>2026-04-18T14:55:16.536Z</time></trkpt><trkpt lat="43.4653533" lon="10.61449"><ele>451.0</ele><time>2026-04-18T14:55:17.536Z</time></trkpt><trkpt lat="43.4652883" lon="10.6145933"><ele>453.6666666666667</ele><time>2026-04-18T14:55:18.536Z</time></trkpt><trkpt lat="43.4652233" lon="10.614685"><ele>456.33333333333337</ele><time>2026-04-18T14:55:19.536Z</time></trkpt><trkpt lat="43.4651683" lon="10.6147633"><ele>459.0</ele><time>2026-04-18T14:55:20.536Z</time></trkpt><trkpt lat="43.4651083" lon="10.6148533"><ele>461.66666666666663</ele><time>2026-04-18T14:55:21.537Z</time></trkpt><trkpt lat="43.46505" lon="10.6149433"><ele>464.3333333333333</ele><time>2026-04-18T14:55:22.536Z</time></trkpt><trkpt lat="43.4649933" lon="10.615055"><ele>467.0</ele><time>2026-04-18T14:55:23.536Z</time></trkpt><trkpt lat="43.464955" lon="10.6151483"><ele>467.0</ele><time>2026-04-18T14:55:24.537Z</time></trkpt><trkpt lat="43.464915" lon="10.615245"><ele>467.00000000000006</ele><time>2026-04-18T14:55:25.536Z</time></trkpt><trkpt lat="43.464865" lon="10.61534"><ele>467.00000000000006</ele><time>2026-04-18T14:55:26.536Z</time></trkpt><trkpt lat="43.4648117" lon="10.6154583"><ele>467.0</ele><time>2026-04-18T14:55:27.536Z</time></trkpt><trkpt lat="43.4647533" lon="10.6155717"><ele>467.0</ele><time>2026-04-18T14:55:28.536Z</time></trkpt><trkpt lat="43.4646967" lon="10.615685"><ele>468.16666666666663</ele><time>2026-04-18T14:55:29.537Z</time></trkpt><trkpt lat="43.4646467" lon="10.615775"><ele>469.3333333333333</ele><time>2026-04-18T14:55:30.536Z</time></trkpt><trkpt lat="43.4645917" lon="10.61586"><ele>470.5</ele><time>2026-04-18T14:55:31.536Z</time></trkpt><trkpt lat="43.4645417" lon="10.6159317"><ele>471.66666666666663</ele><time>2026-04-18T14:55:32.537Z</time></trkpt><trkpt lat="43.4644633" lon="10.61606"><ele>472.8333333333333</ele><time>2026-04-18T14:55:34.536Z</time></trkpt><trkpt lat="43.464425" lon="10.6161383"><ele>474.0</ele><time>2026-04-18T14:55:35.537Z</time></trkpt><trkpt lat="43.46439" lon="10.616225"><ele>471.1666666666667</ele><time>2026-04-18T14:55:36.536Z</time></trkpt><trkpt lat="43.4643633" lon="10.6163067"><ele>468.33333333333337</ele><time>2026-04-18T14:55:37.537Z</time></trkpt><trkpt lat="43.4643383" lon="10.6164083"><ele>465.5</ele><time>2026-04-18T14:55:38.536Z</time></trkpt><trkpt lat="43.4642933" lon="10.616515"><ele>462.6666666666667</ele><time>2026-04-18T14:55:39.536Z</time></trkpt><trkpt lat="43.464235" lon="10.6166283"><ele>459.83333333333337</ele><time>2026-04-18T14:55:41.536Z</time></trkpt><trkpt lat="43.4641883" lon="10.6166867"><ele>457.0</ele><time>2026-04-18T14:55:44.536Z</time></trkpt><trkpt lat="43.4641167" lon="10.6166817"><ele>457.0</ele><time>2026-04-18T14:55:49.536Z</time></trkpt><trkpt lat="43.4640717" lon="10.6165733"><ele>457.00000000000006</ele><time>2026-04-18T14:55:52.536Z</time></trkpt><trkpt lat="43.4640233" lon="10.616485"><ele>457.00000000000006</ele><time>2026-04-18T14:55:54.536Z</time></trkpt><trkpt lat="43.46399" lon="10.6163717"><ele>457.0</ele><time>2026-04-18T14:55:56.536Z</time></trkpt><trkpt lat="43.46396" lon="10.616245"><ele>457.0</ele><time>2026-04-18T14:55:58.536Z</time></trkpt><trkpt lat="43.4639183" lon="10.6161133"><ele>461.0</ele><time>2026-04-18T14:56:00.537Z</time></trkpt><trkpt lat="43.46386" lon="10.6159683"><ele>465.0</ele><time>2026-04-18T14:56:02.536Z</time></trkpt><trkpt lat="43.4638283" lon="10.6158933"><ele>469.0</ele><time>2026-04-18T14:56:03.536Z</time></trkpt><trkpt lat="43.463765" lon="10.6157583"><ele>473.0</ele><time>2026-04-18T14:56:05.536Z</time></trkpt><trkpt lat="43.4636383" lon="10.615565"><ele>473.0</ele><time>2026-04-18T14:56:08.536Z</time></trkpt><trkpt lat="43.4635667" lon="10.61543"><ele>472.99999999999994</ele><time>2026-04-18T14:56:10.536Z</time></trkpt><trkpt lat="43.4635133" lon="10.61531"><ele>472.99999999999994</ele><time>2026-04-18T14:56:12.536Z</time></trkpt><trkpt lat="43.4634567" lon="10.6152217"><ele>473.0</ele><time>2026-04-18T14:56:14.536Z</time></trkpt><trkpt lat="43.4633767" lon="10.6151717"><ele>473.0</ele><time>2026-04-18T14:56:19.536Z</time></trkpt><trkpt lat="43.4633117" lon="10.6152133"><ele>472.99999999999994</ele><time>2026-04-18T14:56:23.536Z</time></trkpt><trkpt lat="43.4632883" lon="10.6153583"><ele>473.0</ele><time>2026-04-18T14:56:26.536Z</time></trkpt><trkpt lat="43.4632867" lon="10.6154717"><ele>473.0</ele><time>2026-04-18T14:56:27.536Z</time></trkpt><trkpt lat="43.4632833" lon="10.6155867"><ele>473.0</ele><time>2026-04-18T14:56:28.536Z</time></trkpt><trkpt lat="43.4632833" lon="10.615705"><ele>472.99999999999994</ele><time>2026-04-18T14:56:29.536Z</time></trkpt><trkpt lat="43.463285" lon="10.6158283"><ele>473.0</ele><time>2026-04-18T14:56:30.537Z</time></trkpt><trkpt lat="43.4632817" lon="10.6159517"><ele>472.99999999999994</ele><time>2026-04-18T14:56:31.536Z</time></trkpt><trkpt lat="43.463285" lon="10.6160567"><ele>473.0</ele><time>2026-04-18T14:56:32.536Z</time></trkpt><trkpt lat="43.4632783" lon="10.6161467"><ele>473.0</ele><time>2026-04-18T14:56:33.536Z</time></trkpt><trkpt lat="43.4632733" lon="10.6162367"><ele>473.0</ele><time>2026-04-18T14:56:34.536Z</time></trkpt><trkpt lat="43.4632583" lon="10.616325"><ele>472.99999999999994</ele><time>2026-04-18T14:56:35.536Z</time></trkpt><trkpt lat="43.46322" lon="10.6164867"><ele>473.0</ele><time>2026-04-18T14:56:37.536Z</time></trkpt><trkpt lat="43.463095" lon="10.6167133"><ele>471.3333333333333</ele><time>2026-04-18T14:56:41.536Z</time></trkpt><trkpt lat="43.4630283" lon="10.61677"><ele>469.66666666666663</ele><time>2026-04-18T14:56:43.537Z</time></trkpt><trkpt lat="43.4629467" lon="10.616805"><ele>468.0</ele><time>2026-04-18T14:56:45.536Z</time></trkpt><trkpt lat="43.46286" lon="10.6168217"><ele>466.33333333333337</ele><time>2026-04-18T14:56:47.536Z</time></trkpt><trkpt lat="43.4627633" lon="10.6168167"><ele>464.6666666666667</ele><time>2026-04-18T14:56:49.536Z</time></trkpt><trkpt lat="43.4626683" lon="10.616775"><ele>463.0</ele><time>2026-04-18T14:56:51.536Z</time></trkpt><trkpt lat="43.4626017" lon="10.6167"><ele>463.0</ele><time>2026-04-18T14:56:53.536Z</time></trkpt><trkpt lat="43.4625183" lon="10.6165767"><ele>462.99999999999994</ele><time>2026-04-18T14:56:55.537Z</time></trkpt><trkpt lat="43.4624733" lon="10.6164967"><ele>462.99999999999994</ele><time>2026-04-18T14:56:56.536Z</time></trkpt><trkpt lat="43.4624333" lon="10.6164017"><ele>463.0</ele><time>2026-04-18T14:56:57.536Z</time></trkpt><trkpt lat="43.4624" lon="10.61632"><ele>463.0</ele><time>2026-04-18T14:56:58.536Z</time></trkpt><trkpt lat="43.4623433" lon="10.61618"><ele>464.1666666666667</ele><time>2026-04-18T14:57:00.537Z</time></trkpt><trkpt lat="43.4623017" lon="10.6160667"><ele>465.33333333333337</ele><time>2026-04-18T14:57:02.536Z</time></trkpt><trkpt lat="43.4622383" lon="10.6159867"><ele>466.5</ele><time>2026-04-18T14:57:05.536Z</time></trkpt><trkpt lat="43.462175" lon="10.61599"><ele>467.66666666666663</ele><time>2026-04-18T14:57:08.536Z</time></trkpt><trkpt lat="43.4621233" lon="10.6160417"><ele>468.8333333333333</ele><time>2026-04-18T14:57:10.536Z</time></trkpt><trkpt lat="43.4620333" lon="10.6161933"><ele>470.0</ele><time>2026-04-18T14:57:13.536Z</time></trkpt><trkpt lat="43.4619533" lon="10.6163267"><ele>470.0</ele><time>2026-04-18T14:57:15.536Z</time></trkpt><trkpt lat="43.461905" lon="10.61642"><ele>470.0</ele><time>2026-04-18T14:57:16.536Z</time></trkpt><trkpt lat="43.461855" lon="10.61651"><ele>470.0</ele><time>2026-04-18T14:57:17.536Z</time></trkpt><trkpt lat="43.46181" lon="10.6166267"><ele>470.0</ele><time>2026-04-18T14:57:18.536Z</time></trkpt><trkpt lat="43.4617617" lon="10.6167483"><ele>470.0</ele><time>2026-04-18T14:57:19.536Z</time></trkpt><trkpt lat="43.461715" lon="10.6168683"><ele>470.0</ele><time>2026-04-18T14:57:20.536Z</time></trkpt><trkpt lat="43.461675" lon="10.6169767"><ele>470.0</ele><time>2026-04-18T14:57:21.536Z</time></trkpt><trkpt lat="43.46164" lon="10.6170667"><ele>470.0</ele><time>2026-04-18T14:57:22.536Z</time></trkpt><trkpt lat="43.4615683" lon="10.6172017"><ele>470.0</ele><time>2026-04-18T14:57:24.536Z</time></trkpt><trkpt lat="43.4614733" lon="10.6173383"><ele>470.0</ele><time>2026-04-18T14:57:26.536Z</time></trkpt><trkpt lat="43.4614267" lon="10.6173967"><ele>472.4</ele><time>2026-04-18T14:57:27.536Z</time></trkpt><trkpt lat="43.4613367" lon="10.6175067"><ele>474.8</ele><time>2026-04-18T14:57:29.536Z</time></trkpt><trkpt lat="43.4612483" lon="10.617595"><ele>477.20000000000005</ele><time>2026-04-18T14:57:31.535Z</time></trkpt><trkpt lat="43.461195" lon="10.617685"><ele>479.6</ele><time>2026-04-18T14:57:33.535Z</time></trkpt><trkpt lat="43.4611733" lon="10.6177817"><ele>482.0</ele><time>2026-04-18T14:57:35.535Z</time></trkpt><trkpt lat="43.46119" lon="10.6179117"><ele>482.0</ele><time>2026-04-18T14:57:37.535Z</time></trkpt><trkpt lat="43.4611933" lon="10.6180717"><ele>482.00000000000006</ele><time>2026-04-18T14:57:39.535Z</time></trkpt><trkpt lat="43.4611667" lon="10.6182417"><ele>482.00000000000006</ele><time>2026-04-18T14:57:41.535Z</time></trkpt><trkpt lat="43.4611483" lon="10.6183267"><ele>482.0</ele><time>2026-04-18T14:57:42.536Z</time></trkpt><trkpt lat="43.4610967" lon="10.6184883"><ele>482.0</ele><time>2026-04-18T14:57:44.535Z</time></trkpt><trkpt lat="43.461" lon="10.6186683"><ele>479.7142857142857</ele><time>2026-04-18T14:57:46.535Z</time></trkpt><trkpt lat="43.4609633" lon="10.618745"><ele>477.42857142857144</ele><time>2026-04-18T14:57:47.535Z</time></trkpt><trkpt lat="43.4609183" lon="10.61884"><ele>475.14285714285717</ele><time>2026-04-18T14:57:48.535Z</time></trkpt><trkpt lat="43.4608717" lon="10.6189183"><ele>472.8571428571429</ele><time>2026-04-18T14:57:49.535Z</time></trkpt><trkpt lat="43.4608233" lon="10.618995"><ele>470.57142857142856</ele><time>2026-04-18T14:57:50.535Z</time></trkpt><trkpt lat="43.4607733" lon="10.6190667"><ele>468.28571428571433</ele><time>2026-04-18T14:57:51.535Z</time></trkpt><trkpt lat="43.4607283" lon="10.6191417"><ele>466.0</ele><time>2026-04-18T14:57:52.535Z</time></trkpt><trkpt lat="43.4606833" lon="10.6192133"><ele>466.0</ele><time>2026-04-18T14:57:53.535Z</time></trkpt><trkpt lat="43.4606417" lon="10.6193"><ele>466.0</ele><time>2026-04-18T14:57:54.536Z</time></trkpt><trkpt lat="43.46061" lon="10.619375"><ele>466.0</ele><time>2026-04-18T14:57:55.536Z</time></trkpt><trkpt lat="43.4605833" lon="10.619455"><ele>466.0</ele><time>2026-04-18T14:57:56.535Z</time></trkpt><trkpt lat="43.46056" lon="10.6195367"><ele>466.0</ele><time>2026-04-18T14:57:57.535Z</time></trkpt><trkpt lat="43.4605367" lon="10.6196383"><ele>466.0</ele><time>2026-04-18T14:57:58.535Z</time></trkpt><trkpt lat="43.460525" lon="10.6197333"><ele>466.0</ele><time>2026-04-18T14:57:59.535Z</time></trkpt><trkpt lat="43.4605" lon="10.61983"><ele>467.33333333333337</ele><time>2026-04-18T14:58:00.535Z</time></trkpt><trkpt lat="43.4604783" lon="10.6199217"><ele>468.6666666666667</ele><time>2026-04-18T14:58:01.535Z</time></trkpt><trkpt lat="43.460455" lon="10.620015"><ele>470.0</ele><time>2026-04-18T14:58:02.535Z</time></trkpt><trkpt lat="43.4604267" lon="10.6201117"><ele>471.33333333333337</ele><time>2026-04-18T14:58:03.535Z</time></trkpt><trkpt lat="43.4603967" lon="10.6202183"><ele>472.6666666666667</ele><time>2026-04-18T14:58:04.535Z</time></trkpt><trkpt lat="43.4603683" lon="10.6203267"><ele>474.0</ele><time>2026-04-18T14:58:05.535Z</time></trkpt><trkpt lat="43.46034" lon="10.6204283"><ele>474.0</ele><time>2026-04-18T14:58:06.536Z</time></trkpt><trkpt lat="43.4603117" lon="10.6205283"><ele>474.0</ele><time>2026-04-18T14:58:07.536Z</time></trkpt><trkpt lat="43.4602833" lon="10.62062"><ele>474.0</ele><time>2026-04-18T14:58:08.535Z</time></trkpt><trkpt lat="43.460255" lon="10.6207217"><ele>474.0</ele><time>2026-04-18T14:58:09.535Z</time></trkpt><trkpt lat="43.4602233" lon="10.62083"><ele>474.0</ele><time>2026-04-18T14:58:10.535Z</time></trkpt><trkpt lat="43.46019" lon="10.62093"><ele>474.0</ele><time>2026-04-18T14:58:11.535Z</time></trkpt><trkpt lat="43.4601483" lon="10.6210367"><ele>470.6</ele><time>2026-04-18T14:58:12.535Z</time></trkpt><trkpt lat="43.4601067" lon="10.6211517"><ele>467.2</ele><time>2026-04-18T14:58:13.535Z</time></trkpt><trkpt lat="43.4600617" lon="10.6212683"><ele>463.80000000000007</ele><time>2026-04-18T14:58:14.535Z</time></trkpt><trkpt lat="43.4600133" lon="10.6213983"><ele>460.40000000000003</ele><time>2026-04-18T14:58:15.535Z</time></trkpt><trkpt lat="43.4599667" lon="10.6215133"><ele>457.0</ele><time>2026-04-18T14:58:16.535Z</time></trkpt><trkpt lat="43.459925" lon="10.6216217"><ele>457.0</ele><time>2026-04-18T14:58:17.535Z</time></trkpt><trkpt lat="43.4598233" lon="10.6218767"><ele>457.0</ele><time>2026-04-18T14:58:20.535Z</time></trkpt><trkpt lat="43.45975" lon="10.6220167"><ele>457.0</ele><time>2026-04-18T14:58:22.535Z</time></trkpt><trkpt lat="43.4596867" lon="10.62213"><ele>457.0</ele><time>2026-04-18T14:58:24.535Z</time></trkpt><trkpt lat="43.4596317" lon="10.6221933"><ele>454.6666666666667</ele><time>2026-04-18T14:58:26.535Z</time></trkpt><trkpt lat="43.4595683" lon="10.6222417"><ele>452.33333333333337</ele><time>2026-04-18T14:58:28.535Z</time></trkpt><trkpt lat="43.4594933" lon="10.6222667"><ele>450.0</ele><time>2026-04-18T14:58:30.535Z</time></trkpt><trkpt lat="43.4594017" lon="10.6222633"><ele>447.66666666666663</ele><time>2026-04-18T14:58:32.535Z</time></trkpt><trkpt lat="43.4592933" lon="10.6222683"><ele>445.3333333333333</ele><time>2026-04-18T14:58:34.536Z</time></trkpt><trkpt lat="43.4592283" lon="10.6222717"><ele>443.0</ele><time>2026-04-18T14:58:35.535Z</time></trkpt><trkpt lat="43.4591033" lon="10.6222917"><ele>443.0</ele><time>2026-04-18T14:58:37.535Z</time></trkpt><trkpt lat="43.4590183" lon="10.6222967"><ele>442.99999999999994</ele><time>2026-04-18T14:58:39.535Z</time></trkpt><trkpt lat="43.4589483" lon="10.6222533"><ele>442.99999999999994</ele><time>2026-04-18T14:58:41.535Z</time></trkpt><trkpt lat="43.4588733" lon="10.6221383"><ele>443.0</ele><time>2026-04-18T14:58:43.536Z</time></trkpt><trkpt lat="43.4587967" lon="10.621995"><ele>443.0</ele><time>2026-04-18T14:58:45.535Z</time></trkpt><trkpt lat="43.4587517" lon="10.6219233"><ele>441.0</ele><time>2026-04-18T14:58:46.536Z</time></trkpt><trkpt lat="43.4587" lon="10.6218467"><ele>438.99999999999994</ele><time>2026-04-18T14:58:47.535Z</time></trkpt><trkpt lat="43.458655" lon="10.62176"><ele>436.99999999999994</ele><time>2026-04-18T14:58:48.536Z</time></trkpt><trkpt lat="43.458605" lon="10.6216833"><ele>435.0</ele><time>2026-04-18T14:58:49.536Z</time></trkpt><trkpt lat="43.458495" lon="10.6215117"><ele>433.0</ele><time>2026-04-18T14:58:52.535Z</time></trkpt><trkpt lat="43.4584217" lon="10.6214083"><ele>433.0</ele><time>2026-04-18T14:58:54.535Z</time></trkpt><trkpt lat="43.4583483" lon="10.6213033"><ele>432.99999999999994</ele><time>2026-04-18T14:58:56.535Z</time></trkpt><trkpt lat="43.4583117" lon="10.6211817"><ele>432.99999999999994</ele><time>2026-04-18T14:58:58.536Z</time></trkpt><trkpt lat="43.4582683" lon="10.6210083"><ele>433.0</ele><time>2026-04-18T14:59:00.535Z</time></trkpt><trkpt lat="43.4582417" lon="10.6209017"><ele>433.0</ele><time>2026-04-18T14:59:01.535Z</time></trkpt><trkpt lat="43.45822" lon="10.6208083"><ele>435.59999999999997</ele><time>2026-04-18T14:59:02.536Z</time></trkpt><trkpt lat="43.4581967" lon="10.62071"><ele>438.19999999999993</ele><time>2026-04-18T14:59:03.535Z</time></trkpt><trkpt lat="43.4581667" lon="10.6205633"><ele>440.8</ele><time>2026-04-18T14:59:05.535Z</time></trkpt><trkpt lat="43.4581483" lon="10.6204417"><ele>443.4</ele><time>2026-04-18T14:59:07.536Z</time></trkpt><trkpt lat="43.4581617" lon="10.6202967"><ele>446.0</ele><time>2026-04-18T14:59:09.535Z</time></trkpt><trkpt lat="43.4581917" lon="10.620125"><ele>445.99999999999994</ele><time>2026-04-18T14:59:11.535Z</time></trkpt><trkpt lat="43.4582167" lon="10.6200267"><ele>446.0</ele><time>2026-04-18T14:59:12.535Z</time></trkpt><trkpt lat="43.4582417" lon="10.6199383"><ele>446.0</ele><time>2026-04-18T14:59:13.535Z</time></trkpt><trkpt lat="43.458275" lon="10.61978"><ele>446.0</ele><time>2026-04-18T14:59:15.535Z</time></trkpt><trkpt lat="43.4583" lon="10.619635"><ele>445.99999999999994</ele><time>2026-04-18T14:59:17.536Z</time></trkpt><trkpt lat="43.4583167" lon="10.6195467"><ele>446.0</ele><time>2026-04-18T14:59:18.535Z</time></trkpt><trkpt lat="43.4583217" lon="10.6194433"><ele>446.0</ele><time>2026-04-18T14:59:19.535Z</time></trkpt><trkpt lat="43.4583317" lon="10.6193467"><ele>446.0</ele><time>2026-04-18T14:59:20.535Z</time></trkpt><trkpt lat="43.4583367" lon="10.61919"><ele>446.0</ele><time>2026-04-18T14:59:22.535Z</time></trkpt><trkpt lat="43.4583183" lon="10.61888"><ele>446.0</ele><time>2026-04-18T14:59:26.535Z</time></trkpt><trkpt lat="43.45829" lon="10.6187917"><ele>445.99999999999994</ele><time>2026-04-18T14:59:27.535Z</time></trkpt><trkpt lat="43.4582517" lon="10.618695"><ele>446.0</ele><time>2026-04-18T14:59:28.535Z</time></trkpt><trkpt lat="43.4582067" lon="10.6185983"><ele>446.0</ele><time>2026-04-18T14:59:29.535Z</time></trkpt><trkpt lat="43.4581617" lon="10.6184983"><ele>446.0</ele><time>2026-04-18T14:59:30.536Z</time></trkpt><trkpt lat="43.458115" lon="10.6183867"><ele>445.99999999999994</ele><time>2026-04-18T14:59:31.535Z</time></trkpt><trkpt lat="43.4580733" lon="10.6182817"><ele>446.0</ele><time>2026-04-18T14:59:32.535Z</time></trkpt><trkpt lat="43.4580433" lon="10.6181783"><ele>447.4</ele><time>2026-04-18T14:59:33.535Z</time></trkpt><trkpt lat="43.4580233" lon="10.6180717"><ele>448.8</ele><time>2026-04-18T14:59:34.535Z</time></trkpt><trkpt lat="43.4579817" lon="10.6179133"><ele>450.19999999999993</ele><time>2026-04-18T14:59:36.535Z</time></trkpt><trkpt lat="43.4579433" lon="10.6177783"><ele>451.59999999999997</ele><time>2026-04-18T14:59:38.535Z</time></trkpt><trkpt lat="43.45792" lon="10.61768"><ele>453.0</ele><time>2026-04-18T14:59:41.536Z</time></trkpt><trkpt lat="43.4579017" lon="10.6175533"><ele>447.79999999999995</ele><time>2026-04-18T14:59:44.535Z</time></trkpt><trkpt lat="43.4578983" lon="10.6174"><ele>442.59999999999997</ele><time>2026-04-18T14:59:46.535Z</time></trkpt><trkpt lat="43.4578967" lon="10.6172283"><ele>437.40000000000003</ele><time>2026-04-18T14:59:48.535Z</time></trkpt><trkpt lat="43.45791" lon="10.61709"><ele>432.20000000000005</ele><time>2026-04-18T14:59:50.535Z</time></trkpt><trkpt lat="43.457905" lon="10.617"><ele>427.0</ele><time>2026-04-18T14:59:52.535Z</time></trkpt><trkpt lat="43.4579033" lon="10.61686"><ele>426.8</ele><time>2026-04-18T14:59:55.536Z</time></trkpt><trkpt lat="43.4579217" lon="10.6166133"><ele>426.6</ele><time>2026-04-18T14:59:58.535Z</time></trkpt><trkpt lat="43.4579183" lon="10.61651"><ele>426.40000000000003</ele><time>2026-04-18T14:59:59.536Z</time></trkpt><trkpt lat="43.4579083" lon="10.6163967"><ele>426.20000000000005</ele><time>2026-04-18T15:00:00.535Z</time></trkpt><trkpt lat="43.4578783" lon="10.61628"><ele>426.0</ele><time>2026-04-18T15:00:01.535Z</time></trkpt><trkpt lat="43.45784" lon="10.61615"><ele>426.8333333333333</ele><time>2026-04-18T15:00:02.535Z</time></trkpt><trkpt lat="43.457795" lon="10.6160333"><ele>427.66666666666663</ele><time>2026-04-18T15:00:03.535Z</time></trkpt><trkpt lat="43.4577467" lon="10.6159233"><ele>428.5</ele><time>2026-04-18T15:00:04.535Z</time></trkpt><trkpt lat="43.4577" lon="10.6158167"><ele>429.3333333333333</ele><time>2026-04-18T15:00:05.535Z</time></trkpt><trkpt lat="43.4576583" lon="10.615715"><ele>430.16666666666663</ele><time>2026-04-18T15:00:06.535Z</time></trkpt><trkpt lat="43.4576183" lon="10.61564"><ele>431.0</ele><time>2026-04-18T15:00:07.535Z</time></trkpt><trkpt lat="43.4575733" lon="10.6155083"><ele>431.0</ele><time>2026-04-18T15:00:09.535Z</time></trkpt><trkpt lat="43.457545" lon="10.6153733"><ele>431.0</ele><time>2026-04-18T15:00:11.535Z</time></trkpt><trkpt lat="43.4575433" lon="10.615225"><ele>431.0</ele><time>2026-04-18T15:00:13.535Z</time></trkpt><trkpt lat="43.4575617" lon="10.6150683"><ele>431.0</ele><time>2026-04-18T15:00:15.535Z</time></trkpt><trkpt lat="43.4575467" lon="10.6149117"><ele>431.0</ele><time>2026-04-18T15:00:17.535Z</time></trkpt><trkpt lat="43.457495" lon="10.6147667"><ele>431.8333333333333</ele><time>2026-04-18T15:00:19.536Z</time></trkpt><trkpt lat="43.457465" lon="10.6146383"><ele>432.66666666666663</ele><time>2026-04-18T15:00:21.535Z</time></trkpt><trkpt lat="43.457435" lon="10.614475"><ele>433.5</ele><time>2026-04-18T15:00:23.535Z</time></trkpt><trkpt lat="43.4574267" lon="10.614385"><ele>434.33333333333337</ele><time>2026-04-18T15:00:24.535Z</time></trkpt><trkpt lat="43.4574267" lon="10.6142933"><ele>435.1666666666667</ele><time>2026-04-18T15:00:25.536Z</time></trkpt><trkpt lat="43.45743" lon="10.6141983"><ele>436.0</ele><time>2026-04-18T15:00:26.535Z</time></trkpt><trkpt lat="43.4574367" lon="10.6141117"><ele>436.25</ele><time>2026-04-18T15:00:27.535Z</time></trkpt><trkpt lat="43.4574517" lon="10.6139483"><ele>436.5</ele><time>2026-04-18T15:00:29.535Z</time></trkpt><trkpt lat="43.457495" lon="10.6136783"><ele>436.75</ele><time>2026-04-18T15:00:32.535Z</time></trkpt><trkpt lat="43.4575183" lon="10.613595"><ele>437.0</ele><time>2026-04-18T15:00:33.535Z</time></trkpt><trkpt lat="43.4575683" lon="10.6134533"><ele>435.40000000000003</ele><time>2026-04-18T15:00:35.536Z</time></trkpt><trkpt lat="43.457605" lon="10.6133417"><ele>433.80000000000007</ele><time>2026-04-18T15:00:37.536Z</time></trkpt><trkpt lat="43.4576567" lon="10.6132667"><ele>432.2</ele><time>2026-04-18T15:00:40.535Z</time></trkpt><trkpt lat="43.457715" lon="10.6132"><ele>430.6</ele><time>2026-04-18T15:00:43.535Z</time></trkpt><trkpt lat="43.4577933" lon="10.6130517"><ele>429.0</ele><time>2026-04-18T15:00:57.534Z</time></trkpt><trkpt lat="43.4578683" lon="10.6129917"><ele>429.0</ele><time>2026-04-18T15:01:00.534Z</time></trkpt><trkpt lat="43.4579233" lon="10.612945"><ele>429.0</ele><time>2026-04-18T15:01:02.534Z</time></trkpt><trkpt lat="43.45799" lon="10.6128367"><ele>429.0</ele><time>2026-04-18T15:01:04.534Z</time></trkpt><trkpt lat="43.4580317" lon="10.6127133"><ele>429.0</ele><time>2026-04-18T15:01:06.534Z</time></trkpt><trkpt lat="43.458065" lon="10.6125517"><ele>429.0</ele><time>2026-04-18T15:01:08.534Z</time></trkpt><trkpt lat="43.458085" lon="10.6124333"><ele>430.6</ele><time>2026-04-18T15:01:09.534Z</time></trkpt><trkpt lat="43.4581033" lon="10.612345"><ele>432.2</ele><time>2026-04-18T15:01:10.534Z</time></trkpt><trkpt lat="43.458115" lon="10.6121917"><ele>433.80000000000007</ele><time>2026-04-18T15:01:12.535Z</time></trkpt><trkpt lat="43.4581367" lon="10.61205"><ele>435.40000000000003</ele><time>2026-04-18T15:01:14.534Z</time></trkpt><trkpt lat="43.4581683" lon="10.611915"><ele>437.0</ele><time>2026-04-18T15:01:16.534Z</time></trkpt><trkpt lat="43.4582167" lon="10.61181"><ele>436.99999999999994</ele><time>2026-04-18T15:01:18.535Z</time></trkpt><trkpt lat="43.4582933" lon="10.611755"><ele>437.0</ele><time>2026-04-18T15:01:20.534Z</time></trkpt><trkpt lat="43.458375" lon="10.6117233"><ele>437.0</ele><time>2026-04-18T15:01:22.534Z</time></trkpt><trkpt lat="43.458445" lon="10.6116467"><ele>437.0</ele><time>2026-04-18T15:01:24.534Z</time></trkpt><trkpt lat="43.45851" lon="10.6115267"><ele>436.99999999999994</ele><time>2026-04-18T15:01:26.534Z</time></trkpt><trkpt lat="43.45855" lon="10.611455"><ele>437.0</ele><time>2026-04-18T15:01:27.534Z</time></trkpt><trkpt lat="43.4586233" lon="10.61131"><ele>436.99999999999994</ele><time>2026-04-18T15:01:29.534Z</time></trkpt><trkpt lat="43.4586733" lon="10.611245"><ele>437.0</ele><time>2026-04-18T15:01:30.534Z</time></trkpt><trkpt lat="43.4587233" lon="10.61119"><ele>437.0</ele><time>2026-04-18T15:01:31.534Z</time></trkpt><trkpt lat="43.4587817" lon="10.61113"><ele>437.0</ele><time>2026-04-18T15:01:32.534Z</time></trkpt><trkpt lat="43.458835" lon="10.6110617"><ele>436.99999999999994</ele><time>2026-04-18T15:01:33.534Z</time></trkpt><trkpt lat="43.458885" lon="10.6110083"><ele>437.0</ele><time>2026-04-18T15:01:34.534Z</time></trkpt><trkpt lat="43.45903" lon="10.6108967"><ele>438.6</ele><time>2026-04-18T15:01:37.535Z</time></trkpt><trkpt lat="43.45913" lon="10.6108"><ele>440.20000000000005</ele><time>2026-04-18T15:01:39.535Z</time></trkpt><trkpt lat="43.4592133" lon="10.6106517"><ele>441.8</ele><time>2026-04-18T15:01:41.534Z</time></trkpt><trkpt lat="43.4592633" lon="10.6105617"><ele>443.4</ele><time>2026-04-18T15:01:42.534Z</time></trkpt><trkpt lat="43.4593067" lon="10.6104733"><ele>445.0</ele><time>2026-04-18T15:01:43.534Z</time></trkpt><trkpt lat="43.45935" lon="10.6103783"><ele>443.33333333333337</ele><time>2026-04-18T15:01:44.534Z</time></trkpt><trkpt lat="43.4593917" lon="10.6103"><ele>441.6666666666667</ele><time>2026-04-18T15:01:45.534Z</time></trkpt><trkpt lat="43.4594367" lon="10.6102317"><ele>440.0</ele><time>2026-04-18T15:01:46.535Z</time></trkpt><trkpt lat="43.4594783" lon="10.6101617"><ele>438.33333333333337</ele><time>2026-04-18T15:01:47.534Z</time></trkpt><trkpt lat="43.4595183" lon="10.6100633"><ele>436.6666666666667</ele><time>2026-04-18T15:01:48.534Z</time></trkpt><trkpt lat="43.459555" lon="10.6099517"><ele>435.0</ele><time>2026-04-18T15:01:49.534Z</time></trkpt><trkpt lat="43.4595933" lon="10.6098317"><ele>436.8</ele><time>2026-04-18T15:01:50.534Z</time></trkpt><trkpt lat="43.45963" lon="10.6097217"><ele>438.6</ele><time>2026-04-18T15:01:51.534Z</time></trkpt><trkpt lat="43.4596667" lon="10.6096167"><ele>440.4</ele><time>2026-04-18T15:01:52.535Z</time></trkpt><trkpt lat="43.4597083" lon="10.609505"><ele>442.2</ele><time>2026-04-18T15:01:53.534Z</time></trkpt><trkpt lat="43.459755" lon="10.60939"><ele>444.0</ele><time>2026-04-18T15:01:54.534Z</time></trkpt><trkpt lat="43.4598067" lon="10.6092783"><ele>444.0</ele><time>2026-04-18T15:01:55.534Z</time></trkpt><trkpt lat="43.459855" lon="10.6091683"><ele>444.0</ele><time>2026-04-18T15:01:56.534Z</time></trkpt><trkpt lat="43.459895" lon="10.6090683"><ele>444.0</ele><time>2026-04-18T15:01:57.535Z</time></trkpt><trkpt lat="43.459925" lon="10.6089717"><ele>444.0</ele><time>2026-04-18T15:01:58.535Z</time></trkpt><trkpt lat="43.459945" lon="10.6088783"><ele>444.0</ele><time>2026-04-18T15:01:59.534Z</time></trkpt><trkpt lat="43.4599567" lon="10.6087917"><ele>444.0</ele><time>2026-04-18T15:02:00.534Z</time></trkpt><trkpt lat="43.4599717" lon="10.6087033"><ele>442.0</ele><time>2026-04-18T15:02:01.534Z</time></trkpt><trkpt lat="43.4599983" lon="10.60861"><ele>440.0</ele><time>2026-04-18T15:02:02.534Z</time></trkpt><trkpt lat="43.4600317" lon="10.6085267"><ele>438.0</ele><time>2026-04-18T15:02:03.534Z</time></trkpt><trkpt lat="43.4600683" lon="10.6084533"><ele>436.0</ele><time>2026-04-18T15:02:04.534Z</time></trkpt><trkpt lat="43.46012" lon="10.6083733"><ele>434.0</ele><time>2026-04-18T15:02:05.534Z</time></trkpt><trkpt lat="43.4601667" lon="10.6083"><ele>432.0</ele><time>2026-04-18T15:02:06.534Z</time></trkpt><trkpt lat="43.4602517" lon="10.6082033"><ele>432.0</ele><time>2026-04-18T15:02:08.534Z</time></trkpt><trkpt lat="43.4603383" lon="10.608175"><ele>432.00000000000006</ele><time>2026-04-18T15:02:11.535Z</time></trkpt><trkpt lat="43.46042" lon="10.6082583"><ele>432.00000000000006</ele><time>2026-04-18T15:02:14.534Z</time></trkpt><trkpt lat="43.460515" lon="10.608335"><ele>432.0</ele><time>2026-04-18T15:02:16.534Z</time></trkpt><trkpt lat="43.4605983" lon="10.6083917"><ele>432.0</ele><time>2026-04-18T15:02:18.534Z</time></trkpt><trkpt lat="43.4606767" lon="10.6084133"><ele>434.6</ele><time>2026-04-18T15:02:20.534Z</time></trkpt><trkpt lat="43.4607667" lon="10.608395"><ele>437.20000000000005</ele><time>2026-04-18T15:02:22.534Z</time></trkpt><trkpt lat="43.4608683" lon="10.60834"><ele>439.8</ele><time>2026-04-18T15:02:24.534Z</time></trkpt><trkpt lat="43.460955" lon="10.6082383"><ele>442.4</ele><time>2026-04-18T15:02:26.535Z</time></trkpt><trkpt lat="43.4610217" lon="10.6080767"><ele>445.0</ele><time>2026-04-18T15:02:28.534Z</time></trkpt><trkpt lat="43.4610417" lon="10.6079783"><ele>445.00000000000006</ele><time>2026-04-18T15:02:29.534Z</time></trkpt><trkpt lat="43.4610667" lon="10.6078733"><ele>445.0</ele><time>2026-04-18T15:02:30.535Z</time></trkpt><trkpt lat="43.4610833" lon="10.6077717"><ele>445.0</ele><time>2026-04-18T15:02:31.534Z</time></trkpt><trkpt lat="43.4610967" lon="10.6076833"><ele>445.0</ele><time>2026-04-18T15:02:32.534Z</time></trkpt><trkpt lat="43.46111" lon="10.60758"><ele>445.00000000000006</ele><time>2026-04-18T15:02:33.534Z</time></trkpt><trkpt lat="43.4611233" lon="10.60747"><ele>445.0</ele><time>2026-04-18T15:02:34.534Z</time></trkpt><trkpt lat="43.4611317" lon="10.60737"><ele>443.2</ele><time>2026-04-18T15:02:35.534Z</time></trkpt><trkpt lat="43.461155" lon="10.6072233"><ele>441.4</ele><time>2026-04-18T15:02:37.534Z</time></trkpt><trkpt lat="43.4611833" lon="10.6071217"><ele>439.6</ele><time>2026-04-18T15:02:39.534Z</time></trkpt><trkpt lat="43.46118" lon="10.6070233"><ele>437.8</ele><time>2026-04-18T15:02:41.535Z</time></trkpt><trkpt lat="43.4611667" lon="10.6068283"><ele>436.0</ele><time>2026-04-18T15:02:44.534Z</time></trkpt><trkpt lat="43.4611533" lon="10.6067033"><ele>433.6</ele><time>2026-04-18T15:02:46.534Z</time></trkpt><trkpt lat="43.4611717" lon="10.60659"><ele>431.20000000000005</ele><time>2026-04-18T15:02:48.534Z</time></trkpt><trkpt lat="43.4612133" lon="10.6065033"><ele>428.79999999999995</ele><time>2026-04-18T15:02:49.534Z</time></trkpt><trkpt lat="43.4612833" lon="10.6063517"><ele>426.4</ele><time>2026-04-18T15:02:51.534Z</time></trkpt><trkpt lat="43.4613233" lon="10.6062583"><ele>424.0</ele><time>2026-04-18T15:02:52.534Z</time></trkpt><trkpt lat="43.4613733" lon="10.6061683"><ele>426.6666666666667</ele><time>2026-04-18T15:02:53.534Z</time></trkpt><trkpt lat="43.4614217" lon="10.606075"><ele>429.33333333333337</ele><time>2026-04-18T15:02:54.534Z</time></trkpt><trkpt lat="43.4614833" lon="10.6059733"><ele>432.0</ele><time>2026-04-18T15:02:55.534Z</time></trkpt><trkpt lat="43.4615417" lon="10.6058683"><ele>434.66666666666663</ele><time>2026-04-18T15:02:56.534Z</time></trkpt><trkpt lat="43.46159" lon="10.605775"><ele>437.3333333333333</ele><time>2026-04-18T15:02:57.534Z</time></trkpt><trkpt lat="43.4616333" lon="10.60568"><ele>440.0</ele><time>2026-04-18T15:02:58.535Z</time></trkpt><trkpt lat="43.4616733" lon="10.6056"><ele>439.99999999999994</ele><time>2026-04-18T15:02:59.535Z</time></trkpt><trkpt lat="43.461715" lon="10.6055167"><ele>440.0</ele><time>2026-04-18T15:03:00.534Z</time></trkpt><trkpt lat="43.4617483" lon="10.605435"><ele>440.0</ele><time>2026-04-18T15:03:01.534Z</time></trkpt><trkpt lat="43.4617817" lon="10.60535"><ele>440.0</ele><time>2026-04-18T15:03:02.534Z</time></trkpt><trkpt lat="43.461825" lon="10.605245"><ele>439.99999999999994</ele><time>2026-04-18T15:03:03.535Z</time></trkpt><trkpt lat="43.4618733" lon="10.6051317"><ele>440.0</ele><time>2026-04-18T15:03:04.534Z</time></trkpt><trkpt lat="43.46192" lon="10.6050267"><ele>441.2</ele><time>2026-04-18T15:03:05.534Z</time></trkpt><trkpt lat="43.4619717" lon="10.6049233"><ele>442.4</ele><time>2026-04-18T15:03:06.534Z</time></trkpt><trkpt lat="43.4620233" lon="10.604815"><ele>443.6</ele><time>2026-04-18T15:03:07.534Z</time></trkpt><trkpt lat="43.4620817" lon="10.6047"><ele>444.8</ele><time>2026-04-18T15:03:08.534Z</time></trkpt><trkpt lat="43.4621333" lon="10.6045783"><ele>446.0</ele><time>2026-04-18T15:03:09.534Z</time></trkpt><trkpt lat="43.46219" lon="10.6044617"><ele>446.0</ele><time>2026-04-18T15:03:10.534Z</time></trkpt><trkpt lat="43.4622467" lon="10.6043467"><ele>446.0</ele><time>2026-04-18T15:03:11.534Z</time></trkpt><trkpt lat="43.4622967" lon="10.6042483"><ele>446.0</ele><time>2026-04-18T15:03:12.534Z</time></trkpt><trkpt lat="43.4623417" lon="10.6041567"><ele>446.0</ele><time>2026-04-18T15:03:13.534Z</time></trkpt><trkpt lat="43.4623783" lon="10.60408"><ele>446.0</ele><time>2026-04-18T15:03:14.534Z</time></trkpt><trkpt lat="43.46249" lon="10.6038833"><ele>446.0</ele><time>2026-04-18T15:03:17.534Z</time></trkpt><trkpt lat="43.4625517" lon="10.6038"><ele>446.0</ele><time>2026-04-18T15:03:19.534Z</time></trkpt><trkpt lat="43.4626383" lon="10.6037583"><ele>446.0</ele><time>2026-04-18T15:03:21.534Z</time></trkpt><trkpt lat="43.4627333" lon="10.6037567"><ele>446.0</ele><time>2026-04-18T15:03:23.534Z</time></trkpt><trkpt lat="43.4628233" lon="10.60378"><ele>446.0</ele><time>2026-04-18T15:03:25.534Z</time></trkpt><trkpt lat="43.4629417" lon="10.6038333"><ele>448.3333333333333</ele><time>2026-04-18T15:03:27.534Z</time></trkpt><trkpt lat="43.463015" lon="10.6038717"><ele>450.66666666666663</ele><time>2026-04-18T15:03:28.534Z</time></trkpt><trkpt lat="43.46308" lon="10.6039233"><ele>453.0</ele><time>2026-04-18T15:03:29.535Z</time></trkpt><trkpt lat="43.4631567" lon="10.6039667"><ele>455.33333333333337</ele><time>2026-04-18T15:03:30.534Z</time></trkpt><trkpt lat="43.4632317" lon="10.6040133"><ele>457.6666666666667</ele><time>2026-04-18T15:03:31.534Z</time></trkpt><trkpt lat="43.4633133" lon="10.6040667"><ele>460.0</ele><time>2026-04-18T15:03:32.534Z</time></trkpt><trkpt lat="43.4634" lon="10.604125"><ele>460.0</ele><time>2026-04-18T15:03:33.534Z</time></trkpt><trkpt lat="43.463485" lon="10.6041833"><ele>460.0</ele><time>2026-04-18T15:03:34.534Z</time></trkpt><trkpt lat="43.463575" lon="10.6042367"><ele>460.0</ele><time>2026-04-18T15:03:35.534Z</time></trkpt><trkpt lat="43.4636617" lon="10.6042817"><ele>460.0</ele><time>2026-04-18T15:03:36.534Z</time></trkpt><trkpt lat="43.46374" lon="10.6042983"><ele>460.0</ele><time>2026-04-18T15:03:37.534Z</time></trkpt><trkpt lat="43.46382" lon="10.6043433"><ele>462.1666666666667</ele><time>2026-04-18T15:03:38.535Z</time></trkpt><trkpt lat="43.4639017" lon="10.60437"><ele>464.33333333333337</ele><time>2026-04-18T15:03:39.534Z</time></trkpt><trkpt lat="43.4639733" lon="10.60439"><ele>466.5</ele><time>2026-04-18T15:03:40.534Z</time></trkpt><trkpt lat="43.4640733" lon="10.6044"><ele>468.66666666666663</ele><time>2026-04-18T15:03:42.534Z</time></trkpt><trkpt lat="43.464145" lon="10.6043667"><ele>470.8333333333333</ele><time>2026-04-18T15:03:44.534Z</time></trkpt><trkpt lat="43.4641883" lon="10.6042867"><ele>473.0</ele><time>2026-04-18T15:03:46.534Z</time></trkpt><trkpt lat="43.4641883" lon="10.6041633"><ele>472.99999999999994</ele><time>2026-04-18T15:03:49.534Z</time></trkpt><trkpt lat="43.4641383" lon="10.6040517"><ele>473.0</ele><time>2026-04-18T15:03:51.534Z</time></trkpt><trkpt lat="43.464075" lon="10.6039317"><ele>473.0</ele><time>2026-04-18T15:03:53.534Z</time></trkpt><trkpt lat="43.464035" lon="10.6038617"><ele>473.0</ele><time>2026-04-18T15:03:54.534Z</time></trkpt><trkpt lat="43.4640017" lon="10.603775"><ele>472.99999999999994</ele><time>2026-04-18T15:03:55.534Z</time></trkpt><trkpt lat="43.46396" lon="10.6036733"><ele>473.0</ele><time>2026-04-18T15:03:56.534Z</time></trkpt><trkpt lat="43.463915" lon="10.603565"><ele>475.16666666666663</ele><time>2026-04-18T15:03:57.534Z</time></trkpt><trkpt lat="43.4638517" lon="10.60345"><ele>477.3333333333333</ele><time>2026-04-18T15:03:58.534Z</time></trkpt><trkpt lat="43.463795" lon="10.6033417"><ele>479.5</ele><time>2026-04-18T15:03:59.534Z</time></trkpt><trkpt lat="43.4637433" lon="10.6032467"><ele>481.66666666666663</ele><time>2026-04-18T15:04:00.534Z</time></trkpt><trkpt lat="43.4637033" lon="10.6031483"><ele>483.8333333333333</ele><time>2026-04-18T15:04:01.534Z</time></trkpt><trkpt lat="43.463675" lon="10.6030483"><ele>486.0</ele><time>2026-04-18T15:04:02.534Z</time></trkpt><trkpt lat="43.4636517" lon="10.6029533"><ele>485.8333333333333</ele><time>2026-04-18T15:04:03.534Z</time></trkpt><trkpt lat="43.46364" lon="10.6028667"><ele>485.66666666666663</ele><time>2026-04-18T15:04:04.535Z</time></trkpt><trkpt lat="43.4636467" lon="10.6027733"><ele>485.5</ele><time>2026-04-18T15:04:05.534Z</time></trkpt><trkpt lat="43.463695" lon="10.60262"><ele>485.3333333333333</ele><time>2026-04-18T15:04:07.534Z</time></trkpt><trkpt lat="43.4637617" lon="10.6024917"><ele>485.16666666666663</ele><time>2026-04-18T15:04:09.534Z</time></trkpt><trkpt lat="43.463805" lon="10.6024267"><ele>485.0</ele><time>2026-04-18T15:04:10.534Z</time></trkpt><trkpt lat="43.4638467" lon="10.60236"><ele>484.99999999999994</ele><time>2026-04-18T15:04:11.534Z</time></trkpt><trkpt lat="43.4639033" lon="10.6022867"><ele>485.0</ele><time>2026-04-18T15:04:12.534Z</time></trkpt><trkpt lat="43.4639667" lon="10.6022083"><ele>485.0</ele><time>2026-04-18T15:04:13.534Z</time></trkpt><trkpt lat="43.4640417" lon="10.602135"><ele>485.0</ele><time>2026-04-18T15:04:14.534Z</time></trkpt><trkpt lat="43.46411" lon="10.6020667"><ele>484.99999999999994</ele><time>2026-04-18T15:04:15.534Z</time></trkpt><trkpt lat="43.4641683" lon="10.6020133"><ele>485.0</ele><time>2026-04-18T15:04:16.534Z</time></trkpt><trkpt lat="43.4642517" lon="10.6019083"><ele>483.25</ele><time>2026-04-18T15:04:18.534Z</time></trkpt><trkpt lat="43.4643033" lon="10.6017717"><ele>481.5</ele><time>2026-04-18T15:04:20.534Z</time></trkpt><trkpt lat="43.464335" lon="10.601535"><ele>479.75</ele><time>2026-04-18T15:04:23.534Z</time></trkpt><trkpt lat="43.4643333" lon="10.6014133"><ele>478.0</ele><time>2026-04-18T15:04:25.533Z</time></trkpt><trkpt lat="43.464295" lon="10.6013167"><ele>478.00000000000006</ele><time>2026-04-18T15:04:27.533Z</time></trkpt><trkpt lat="43.4642017" lon="10.6012783"><ele>478.0</ele><time>2026-04-18T15:04:30.534Z</time></trkpt><trkpt lat="43.4641067" lon="10.6012533"><ele>478.0</ele><time>2026-04-18T15:04:32.534Z</time></trkpt><trkpt lat="43.4640433" lon="10.6012367"><ele>478.0</ele><time>2026-04-18T15:04:33.533Z</time></trkpt><trkpt lat="43.4639783" lon="10.60122"><ele>478.00000000000006</ele><time>2026-04-18T15:04:34.533Z</time></trkpt><trkpt lat="43.4639167" lon="10.6011933"><ele>478.0</ele><time>2026-04-18T15:04:35.533Z</time></trkpt><trkpt lat="43.4638267" lon="10.6010883"><ele>477.1666666666667</ele><time>2026-04-18T15:04:37.533Z</time></trkpt><trkpt lat="43.4637917" lon="10.601005"><ele>476.33333333333337</ele><time>2026-04-18T15:04:38.533Z</time></trkpt><trkpt lat="43.463755" lon="10.6009167"><ele>475.5</ele><time>2026-04-18T15:04:39.534Z</time></trkpt><trkpt lat="43.4637383" lon="10.6008117"><ele>474.66666666666663</ele><time>2026-04-18T15:04:40.533Z</time></trkpt><trkpt lat="43.46372" lon="10.6006783"><ele>473.8333333333333</ele><time>2026-04-18T15:04:41.533Z</time></trkpt><trkpt lat="43.463705" lon="10.6005517"><ele>473.0</ele><time>2026-04-18T15:04:42.534Z</time></trkpt><trkpt lat="43.4637017" lon="10.6004083"><ele>473.5</ele><time>2026-04-18T15:04:43.533Z</time></trkpt><trkpt lat="43.4636867" lon="10.6002617"><ele>474.0</ele><time>2026-04-18T15:04:44.533Z</time></trkpt><trkpt lat="43.4636683" lon="10.6001017"><ele>474.5</ele><time>2026-04-18T15:04:45.533Z</time></trkpt><trkpt lat="43.4636567" lon="10.5999267"><ele>475.0</ele><time>2026-04-18T15:04:46.534Z</time></trkpt><trkpt lat="43.4636433" lon="10.59974"><ele>475.0</ele><time>2026-04-18T15:04:47.533Z</time></trkpt><trkpt lat="43.4636267" lon="10.599565"><ele>475.0</ele><time>2026-04-18T15:04:48.534Z</time></trkpt><trkpt lat="43.463615" lon="10.5993867"><ele>475.0</ele><time>2026-04-18T15:04:49.533Z</time></trkpt><trkpt lat="43.4636017" lon="10.599215"><ele>475.0</ele><time>2026-04-18T15:04:50.533Z</time></trkpt><trkpt lat="43.4636017" lon="10.5990467"><ele>476.0</ele><time>2026-04-18T15:04:51.533Z</time></trkpt><trkpt lat="43.4636033" lon="10.598885"><ele>477.0</ele><time>2026-04-18T15:04:52.533Z</time></trkpt><trkpt lat="43.4636067" lon="10.598745"><ele>478.0</ele><time>2026-04-18T15:04:53.533Z</time></trkpt><trkpt lat="43.463665" lon="10.598295"><ele>478.00000000000006</ele><time>2026-04-18T15:04:57.533Z</time></trkpt><trkpt lat="43.4637333" lon="10.5981583"><ele>478.0</ele><time>2026-04-18T15:04:59.533Z</time></trkpt><trkpt lat="43.4637867" lon="10.598105"><ele>478.0</ele><time>2026-04-18T15:05:00.533Z</time></trkpt><trkpt lat="43.46385" lon="10.5980633"><ele>478.0</ele><time>2026-04-18T15:05:01.533Z</time></trkpt><trkpt lat="43.4639183" lon="10.5980367"><ele>478.00000000000006</ele><time>2026-04-18T15:05:02.533Z</time></trkpt><trkpt lat="43.463985" lon="10.598015"><ele>478.0</ele><time>2026-04-18T15:05:03.533Z</time></trkpt><trkpt lat="43.464065" lon="10.59801"><ele>480.79999999999995</ele><time>2026-04-18T15:05:04.533Z</time></trkpt><trkpt lat="43.4641433" lon="10.5980283"><ele>483.59999999999997</ele><time>2026-04-18T15:05:05.533Z</time></trkpt><trkpt lat="43.46421" lon="10.5980317"><ele>486.40000000000003</ele><time>2026-04-18T15:05:06.533Z</time></trkpt><trkpt lat="43.4643217" lon="10.598015"><ele>489.20000000000005</ele><time>2026-04-18T15:05:08.533Z</time></trkpt><trkpt lat="43.4643967" lon="10.5979517"><ele>492.0</ele><time>2026-04-18T15:05:10.533Z</time></trkpt><trkpt lat="43.4644617" lon="10.59782"><ele>492.0</ele><time>2026-04-18T15:05:12.533Z</time></trkpt><trkpt lat="43.464485" lon="10.597725"><ele>492.00000000000006</ele><time>2026-04-18T15:05:13.533Z</time></trkpt><trkpt lat="43.4645183" lon="10.5975933"><ele>492.00000000000006</ele><time>2026-04-18T15:05:14.533Z</time></trkpt><trkpt lat="43.4645633" lon="10.5974417"><ele>492.0</ele><time>2026-04-18T15:05:15.533Z</time></trkpt><trkpt lat="43.46462" lon="10.597255"><ele>492.0</ele><time>2026-04-18T15:05:16.533Z</time></trkpt><trkpt lat="43.4646983" lon="10.5970133"><ele>495.25</ele><time>2026-04-18T15:05:17.533Z</time></trkpt><trkpt lat="43.4647533" lon="10.5968267"><ele>498.5</ele><time>2026-04-18T15:05:18.533Z</time></trkpt><trkpt lat="43.4648017" lon="10.5966583"><ele>501.75</ele><time>2026-04-18T15:05:19.533Z</time></trkpt><trkpt lat="43.4648417" lon="10.596515"><ele>505.0</ele><time>2026-04-18T15:05:20.533Z</time></trkpt><trkpt lat="43.4648717" lon="10.5964033"><ele>505.0</ele><time>2026-04-18T15:05:21.533Z</time></trkpt><trkpt lat="43.46491" lon="10.59631"><ele>505.0</ele><time>2026-04-18T15:05:22.533Z</time></trkpt><trkpt lat="43.4649517" lon="10.5962433"><ele>505.0</ele><time>2026-04-18T15:05:23.533Z</time></trkpt><trkpt lat="43.4650317" lon="10.5961683"><ele>505.0</ele><time>2026-04-18T15:05:25.534Z</time></trkpt><trkpt lat="43.46515" lon="10.5961517"><ele>505.0</ele><time>2026-04-18T15:05:27.533Z</time></trkpt><trkpt lat="43.465335" lon="10.5961317"><ele>504.50000000000006</ele><time>2026-04-18T15:05:30.533Z</time></trkpt><trkpt lat="43.4654017" lon="10.5960583"><ele>504.0</ele><time>2026-04-18T15:05:32.533Z</time></trkpt><trkpt lat="43.4654333" lon="10.5959617"><ele>503.5</ele><time>2026-04-18T15:05:34.533Z</time></trkpt><trkpt lat="43.465405" lon="10.5958233"><ele>503.0</ele><time>2026-04-18T15:05:36.533Z</time></trkpt><trkpt lat="43.46537" lon="10.59573"><ele>502.50000000000006</ele><time>2026-04-18T15:05:37.533Z</time></trkpt><trkpt lat="43.4653233" lon="10.595615"><ele>502.0</ele><time>2026-04-18T15:05:38.533Z</time></trkpt><trkpt lat="43.46527" lon="10.5955"><ele>502.00000000000006</ele><time>2026-04-18T15:05:39.534Z</time></trkpt><trkpt lat="43.4652233" lon="10.595385"><ele>502.0</ele><time>2026-04-18T15:05:40.533Z</time></trkpt><trkpt lat="43.465195" lon="10.59527"><ele>502.0</ele><time>2026-04-18T15:05:41.533Z</time></trkpt><trkpt lat="43.4651717" lon="10.595155"><ele>502.0</ele><time>2026-04-18T15:05:42.533Z</time></trkpt><trkpt lat="43.4651667" lon="10.595035"><ele>502.00000000000006</ele><time>2026-04-18T15:05:43.533Z</time></trkpt><trkpt lat="43.4651617" lon="10.5949117"><ele>502.0</ele><time>2026-04-18T15:05:44.533Z</time></trkpt><trkpt lat="43.4651617" lon="10.59479"><ele>502.50000000000006</ele><time>2026-04-18T15:05:45.534Z</time></trkpt><trkpt lat="43.4651633" lon="10.5946717"><ele>503.0</ele><time>2026-04-18T15:05:46.533Z</time></trkpt><trkpt lat="43.4651717" lon="10.5945767"><ele>503.5</ele><time>2026-04-18T15:05:47.533Z</time></trkpt><trkpt lat="43.4651783" lon="10.5944767"><ele>504.0</ele><time>2026-04-18T15:05:49.533Z</time></trkpt><trkpt lat="43.465165" lon="10.5943617"><ele>504.50000000000006</ele><time>2026-04-18T15:05:52.534Z</time></trkpt><trkpt lat="43.4651567" lon="10.5942467"><ele>505.0</ele><time>2026-04-18T15:05:54.533Z</time></trkpt><trkpt lat="43.4651267" lon="10.594065"><ele>505.0</ele><time>2026-04-18T15:05:56.534Z</time></trkpt><trkpt lat="43.4650917" lon="10.5939833"><ele>505.0</ele><time>2026-04-18T15:05:57.534Z</time></trkpt><trkpt lat="43.46505" lon="10.59391"><ele>505.0</ele><time>2026-04-18T15:05:58.534Z</time></trkpt><trkpt lat="43.4650083" lon="10.593845"><ele>505.0</ele><time>2026-04-18T15:05:59.533Z</time></trkpt><trkpt lat="43.4648417" lon="10.5936633"><ele>505.0</ele><time>2026-04-18T15:06:03.533Z</time></trkpt><trkpt lat="43.4647883" lon="10.5936"><ele>503.6666666666667</ele><time>2026-04-18T15:06:05.533Z</time></trkpt><trkpt lat="43.4647217" lon="10.59353"><ele>502.33333333333337</ele><time>2026-04-18T15:06:08.534Z</time></trkpt><trkpt lat="43.46465" lon="10.5934717"><ele>501.0</ele><time>2026-04-18T15:06:11.533Z</time></trkpt><trkpt lat="43.4645867" lon="10.59341"><ele>499.66666666666663</ele><time>2026-04-18T15:06:14.533Z</time></trkpt><trkpt lat="43.4645183" lon="10.5933367"><ele>498.3333333333333</ele><time>2026-04-18T15:06:17.533Z</time></trkpt><trkpt lat="43.46446" lon="10.593255"><ele>497.0</ele><time>2026-04-18T15:06:20.533Z</time></trkpt><trkpt lat="43.4644" lon="10.593175"><ele>496.8333333333333</ele><time>2026-04-18T15:06:23.533Z</time></trkpt><trkpt lat="43.4643517" lon="10.59308"><ele>496.66666666666663</ele><time>2026-04-18T15:06:26.533Z</time></trkpt><trkpt lat="43.4643683" lon="10.5929833"><ele>496.5</ele><time>2026-04-18T15:06:29.533Z</time></trkpt><trkpt lat="43.4643633" lon="10.5928933"><ele>496.33333333333337</ele><time>2026-04-18T15:06:33.533Z</time></trkpt><trkpt lat="43.464345" lon="10.5930283"><ele>496.1666666666667</ele><time>2026-04-18T15:06:43.533Z</time></trkpt><trkpt lat="43.4643883" lon="10.5931567"><ele>496.0</ele><time>2026-04-18T15:06:45.533Z</time></trkpt><trkpt lat="43.464465" lon="10.5932783"><ele>496.00000000000006</ele><time>2026-04-18T15:06:47.534Z</time></trkpt><trkpt lat="43.4645717" lon="10.593375"><ele>496.0</ele><time>2026-04-18T15:06:49.533Z</time></trkpt><trkpt lat="43.4646333" lon="10.59343"><ele>496.0</ele><time>2026-04-18T15:06:50.533Z</time></trkpt><trkpt lat="43.4646983" lon="10.5934883"><ele>496.0</ele><time>2026-04-18T15:06:51.533Z</time></trkpt><trkpt lat="43.4647583" lon="10.5935517"><ele>496.00000000000006</ele><time>2026-04-18T15:06:52.533Z</time></trkpt><trkpt lat="43.46482" lon="10.5936183"><ele>496.0</ele><time>2026-04-18T15:06:53.533Z</time></trkpt><trkpt lat="43.4648783" lon="10.5936833"><ele>497.8</ele><time>2026-04-18T15:06:54.533Z</time></trkpt><trkpt lat="43.4649383" lon="10.5937483"><ele>499.6</ele><time>2026-04-18T15:06:55.533Z</time></trkpt><trkpt lat="43.4649917" lon="10.593805"><ele>501.4</ele><time>2026-04-18T15:06:56.533Z</time></trkpt><trkpt lat="43.46507" lon="10.5939133"><ele>503.2</ele><time>2026-04-18T15:06:58.533Z</time></trkpt><trkpt lat="43.4651283" lon="10.5940367"><ele>505.0</ele><time>2026-04-18T15:07:00.533Z</time></trkpt><trkpt lat="43.4651483" lon="10.5941783"><ele>505.00000000000006</ele><time>2026-04-18T15:07:02.533Z</time></trkpt><trkpt lat="43.4651567" lon="10.5942683"><ele>505.0</ele><time>2026-04-18T15:07:04.533Z</time></trkpt><trkpt lat="43.4652133" lon="10.5942233"><ele>505.0</ele><time>2026-04-18T15:07:12.533Z</time></trkpt><trkpt lat="43.4652233" lon="10.5941217"><ele>505.0</ele><time>2026-04-18T15:07:14.533Z</time></trkpt><trkpt lat="43.4652633" lon="10.594035"><ele>505.00000000000006</ele><time>2026-04-18T15:07:17.533Z</time></trkpt><trkpt lat="43.4653467" lon="10.5940017"><ele>505.0</ele><time>2026-04-18T15:07:19.533Z</time></trkpt><trkpt lat="43.4654683" lon="10.5940033"><ele>506.4</ele><time>2026-04-18T15:07:21.533Z</time></trkpt><trkpt lat="43.465535" lon="10.5940067"><ele>507.8</ele><time>2026-04-18T15:07:22.533Z</time></trkpt><trkpt lat="43.4656033" lon="10.5940167"><ele>509.20000000000005</ele><time>2026-04-18T15:07:23.533Z</time></trkpt><trkpt lat="43.4656667" lon="10.5940317"><ele>510.6</ele><time>2026-04-18T15:07:24.534Z</time></trkpt><trkpt lat="43.4657783" lon="10.594095"><ele>512.0</ele><time>2026-04-18T15:07:26.533Z</time></trkpt><trkpt lat="43.465885" lon="10.5941983"><ele>512.0</ele><time>2026-04-18T15:07:28.533Z</time></trkpt><trkpt lat="43.4659367" lon="10.59426"><ele>512.0</ele><time>2026-04-18T15:07:29.533Z</time></trkpt><trkpt lat="43.4660133" lon="10.5943783"><ele>512.0</ele><time>2026-04-18T15:07:31.533Z</time></trkpt><trkpt lat="43.4660633" lon="10.59449"><ele>512.0</ele><time>2026-04-18T15:07:33.533Z</time></trkpt><trkpt lat="43.466085" lon="10.59463"><ele>512.0</ele><time>2026-04-18T15:07:35.533Z</time></trkpt><trkpt lat="43.466095" lon="10.5947217"><ele>512.8000000000001</ele><time>2026-04-18T15:07:36.533Z</time></trkpt><trkpt lat="43.4661017" lon="10.5948133"><ele>513.6</ele><time>2026-04-18T15:07:37.533Z</time></trkpt><trkpt lat="43.46611" lon="10.59492"><ele>514.4000000000001</ele><time>2026-04-18T15:07:38.533Z</time></trkpt><trkpt lat="43.4661217" lon="10.595025"><ele>515.2</ele><time>2026-04-18T15:07:39.533Z</time></trkpt><trkpt lat="43.4661567" lon="10.5953317"><ele>516.0</ele><time>2026-04-18T15:07:42.533Z</time></trkpt><trkpt lat="43.4661783" lon="10.5954267"><ele>516.1666666666666</ele><time>2026-04-18T15:07:43.533Z</time></trkpt><trkpt lat="43.4661983" lon="10.59552"><ele>516.3333333333334</ele><time>2026-04-18T15:07:44.533Z</time></trkpt><trkpt lat="43.4662217" lon="10.5956233"><ele>516.5</ele><time>2026-04-18T15:07:45.533Z</time></trkpt><trkpt lat="43.4662517" lon="10.5957367"><ele>516.6666666666667</ele><time>2026-04-18T15:07:46.533Z</time></trkpt><trkpt lat="43.46628" lon="10.5958517"><ele>516.8333333333334</ele><time>2026-04-18T15:07:47.534Z</time></trkpt><trkpt lat="43.4663033" lon="10.5959683"><ele>517.0</ele><time>2026-04-18T15:07:48.533Z</time></trkpt><trkpt lat="43.4663233" lon="10.5960817"><ele>519.8000000000001</ele><time>2026-04-18T15:07:49.533Z</time></trkpt><trkpt lat="43.4663467" lon="10.5961917"><ele>522.6</ele><time>2026-04-18T15:07:50.533Z</time></trkpt><trkpt lat="43.46636" lon="10.5963067"><ele>525.4000000000001</ele><time>2026-04-18T15:07:51.533Z</time></trkpt><trkpt lat="43.4663717" lon="10.5964183"><ele>528.2</ele><time>2026-04-18T15:07:52.532Z</time></trkpt><trkpt lat="43.4663817" lon="10.5965633"><ele>531.0</ele><time>2026-04-18T15:07:53.532Z</time></trkpt><trkpt lat="43.46639" lon="10.5966983"><ele>531.0</ele><time>2026-04-18T15:07:54.532Z</time></trkpt><trkpt lat="43.4663967" lon="10.5968133"><ele>531.0</ele><time>2026-04-18T15:07:55.532Z</time></trkpt><trkpt lat="43.466395" lon="10.5969283"><ele>531.0</ele><time>2026-04-18T15:07:56.532Z</time></trkpt><trkpt lat="43.4663917" lon="10.5970233"><ele>531.0</ele><time>2026-04-18T15:07:57.533Z</time></trkpt><trkpt lat="43.4663583" lon="10.5971733"><ele>531.0</ele><time>2026-04-18T15:07:59.532Z</time></trkpt><trkpt lat="43.4663183" lon="10.59727"><ele>531.0</ele><time>2026-04-18T15:08:01.532Z</time></trkpt><trkpt lat="43.46627" lon="10.59734"><ele>531.6</ele><time>2026-04-18T15:08:16.532Z</time></trkpt><trkpt lat="43.4662083" lon="10.597425"><ele>532.2</ele><time>2026-04-18T15:08:19.532Z</time></trkpt><trkpt lat="43.4661383" lon="10.5974867"><ele>532.8</ele><time>2026-04-18T15:08:21.532Z</time></trkpt><trkpt lat="43.4660417" lon="10.59755"><ele>533.4</ele><time>2026-04-18T15:08:23.532Z</time></trkpt><trkpt lat="43.4659433" lon="10.5976167"><ele>534.0</ele><time>2026-04-18T15:08:25.532Z</time></trkpt><trkpt lat="43.4658683" lon="10.5976933"><ele>534.0</ele><time>2026-04-18T15:08:27.532Z</time></trkpt><trkpt lat="43.46581" lon="10.5977683"><ele>534.0</ele><time>2026-04-18T15:08:29.533Z</time></trkpt><trkpt lat="43.4657667" lon="10.5978633"><ele>534.0</ele><time>2026-04-18T15:08:31.532Z</time></trkpt><trkpt lat="43.4657517" lon="10.5979833"><ele>534.0</ele><time>2026-04-18T15:08:33.532Z</time></trkpt><trkpt lat="43.46577" lon="10.5981183"><ele>534.0</ele><time>2026-04-18T15:08:35.532Z</time></trkpt><trkpt lat="43.465805" lon="10.5982583"><ele>536.4</ele><time>2026-04-18T15:08:37.532Z</time></trkpt><trkpt lat="43.4658617" lon="10.5983933"><ele>538.8</ele><time>2026-04-18T15:08:39.533Z</time></trkpt><trkpt lat="43.4659233" lon="10.5985167"><ele>541.2</ele><time>2026-04-18T15:08:41.532Z</time></trkpt><trkpt lat="43.4659833" lon="10.5986333"><ele>543.6</ele><time>2026-04-18T15:08:43.532Z</time></trkpt><trkpt lat="43.4660667" lon="10.5987583"><ele>546.0</ele><time>2026-04-18T15:08:45.532Z</time></trkpt><trkpt lat="43.46611" lon="10.5988283"><ele>546.5</ele><time>2026-04-18T15:08:46.533Z</time></trkpt><trkpt lat="43.4661633" lon="10.5989067"><ele>547.0</ele><time>2026-04-18T15:08:47.532Z</time></trkpt><trkpt lat="43.46622" lon="10.5989983"><ele>547.5</ele><time>2026-04-18T15:08:48.532Z</time></trkpt><trkpt lat="43.4662883" lon="10.5990817"><ele>548.0</ele><time>2026-04-18T15:08:49.532Z</time></trkpt><trkpt lat="43.4665617" lon="10.5993283"><ele>549.6</ele><time>2026-04-18T15:08:53.532Z</time></trkpt><trkpt lat="43.466645" lon="10.599405"><ele>551.1999999999999</ele><time>2026-04-18T15:08:54.532Z</time></trkpt><trkpt lat="43.466725" lon="10.59949"><ele>552.8</ele><time>2026-04-18T15:08:55.533Z</time></trkpt><trkpt lat="43.4668" lon="10.5995733"><ele>554.4</ele><time>2026-04-18T15:08:56.532Z</time></trkpt><trkpt lat="43.4668767" lon="10.59966"><ele>556.0</ele><time>2026-04-18T15:08:57.532Z</time></trkpt><trkpt lat="43.4669533" lon="10.5997433"><ele>557.0</ele><time>2026-04-18T15:08:58.532Z</time></trkpt><trkpt lat="43.46702" lon="10.59983"><ele>558.0</ele><time>2026-04-18T15:08:59.532Z</time></trkpt><trkpt lat="43.46709" lon="10.5999183"><ele>559.0</ele><time>2026-04-18T15:09:00.532Z</time></trkpt><trkpt lat="43.4671583" lon="10.6000083"><ele>560.0</ele><time>2026-04-18T15:09:01.532Z</time></trkpt><trkpt lat="43.4672267" lon="10.6001017"><ele>561.0</ele><time>2026-04-18T15:09:02.532Z</time></trkpt><trkpt lat="43.46729" lon="10.6001817"><ele>561.5</ele><time>2026-04-18T15:09:03.532Z</time></trkpt><trkpt lat="43.4673433" lon="10.6002533"><ele>562.0</ele><time>2026-04-18T15:09:04.532Z</time></trkpt><trkpt lat="43.467405" lon="10.6003783"><ele>562.5</ele><time>2026-04-18T15:09:06.532Z</time></trkpt><trkpt lat="43.467435" lon="10.600455"><ele>563.0</ele><time>2026-04-18T15:09:07.532Z</time></trkpt><trkpt lat="43.4674633" lon="10.6005483"><ele>563.5</ele><time>2026-04-18T15:09:08.532Z</time></trkpt><trkpt lat="43.467495" lon="10.600655"><ele>564.0</ele><time>2026-04-18T15:09:09.532Z</time></trkpt><trkpt lat="43.4675267" lon="10.6007767"><ele>567.5</ele><time>2026-04-18T15:09:10.532Z</time></trkpt><trkpt lat="43.4675683" lon="10.600915"><ele>571.0</ele><time>2026-04-18T15:09:11.533Z</time></trkpt><trkpt lat="43.4676217" lon="10.60107"><ele>574.5</ele><time>2026-04-18T15:09:12.532Z</time></trkpt><trkpt lat="43.4676717" lon="10.60122"><ele>578.0</ele><time>2026-04-18T15:09:13.532Z</time></trkpt><trkpt lat="43.46773" lon="10.6013717"><ele>578.0</ele><time>2026-04-18T15:09:14.533Z</time></trkpt><trkpt lat="43.4677883" lon="10.6015183"><ele>578.0</ele><time>2026-04-18T15:09:15.532Z</time></trkpt><trkpt lat="43.4678533" lon="10.6016717"><ele>578.0</ele><time>2026-04-18T15:09:16.532Z</time></trkpt><trkpt lat="43.4679167" lon="10.6018283"><ele>578.0</ele><time>2026-04-18T15:09:17.532Z</time></trkpt><trkpt lat="43.467975" lon="10.6019733"><ele>579.1999999999999</ele><time>2026-04-18T15:09:18.532Z</time></trkpt><trkpt lat="43.4680167" lon="10.6021183"><ele>580.4</ele><time>2026-04-18T15:09:19.533Z</time></trkpt><trkpt lat="43.4680483" lon="10.6022583"><ele>581.5999999999999</ele><time>2026-04-18T15:09:20.532Z</time></trkpt><trkpt lat="43.468075" lon="10.6023917"><ele>582.8</ele><time>2026-04-18T15:09:21.532Z</time></trkpt><trkpt lat="43.4681067" lon="10.602495"><ele>584.0</ele><time>2026-04-18T15:09:22.532Z</time></trkpt><trkpt lat="43.4681383" lon="10.6025767"><ele>584.0</ele><time>2026-04-18T15:09:23.533Z</time></trkpt><trkpt lat="43.4682367" lon="10.6027383"><ele>584.0</ele><time>2026-04-18T15:09:26.533Z</time></trkpt><trkpt lat="43.4683017" lon="10.6027933"><ele>584.0</ele><time>2026-04-18T15:09:28.532Z</time></trkpt><trkpt lat="43.4683883" lon="10.60284"><ele>584.0</ele><time>2026-04-18T15:09:30.532Z</time></trkpt><trkpt lat="43.4685017" lon="10.60291"><ele>584.0</ele><time>2026-04-18T15:09:32.532Z</time></trkpt><trkpt lat="43.4685717" lon="10.6029467"><ele>583.3333333333333</ele><time>2026-04-18T15:09:33.532Z</time></trkpt><trkpt lat="43.4686367" lon="10.6029833"><ele>582.6666666666666</ele><time>2026-04-18T15:09:34.532Z</time></trkpt><trkpt lat="43.4687117" lon="10.60303"><ele>582.0</ele><time>2026-04-18T15:09:35.532Z</time></trkpt><trkpt lat="43.4687917" lon="10.6030783"><ele>581.3333333333334</ele><time>2026-04-18T15:09:36.532Z</time></trkpt><trkpt lat="43.4688733" lon="10.603135"><ele>580.6666666666667</ele><time>2026-04-18T15:09:37.532Z</time></trkpt><trkpt lat="43.468955" lon="10.6031967"><ele>580.0</ele><time>2026-04-18T15:09:38.532Z</time></trkpt><trkpt lat="43.4690383" lon="10.60326"><ele>581.8</ele><time>2026-04-18T15:09:39.532Z</time></trkpt><trkpt lat="43.469115" lon="10.6033183"><ele>583.6</ele><time>2026-04-18T15:09:40.532Z</time></trkpt><trkpt lat="43.4691867" lon="10.6033783"><ele>585.4</ele><time>2026-04-18T15:09:41.532Z</time></trkpt><trkpt lat="43.4692533" lon="10.60343"><ele>587.2</ele><time>2026-04-18T15:09:42.532Z</time></trkpt><trkpt lat="43.4693533" lon="10.6035033"><ele>589.0</ele><time>2026-04-18T15:09:44.532Z</time></trkpt><trkpt lat="43.4694333" lon="10.6035583"><ele>589.0</ele><time>2026-04-18T15:09:46.532Z</time></trkpt><trkpt lat="43.4695067" lon="10.603615"><ele>589.0</ele><time>2026-04-18T15:09:48.532Z</time></trkpt><trkpt lat="43.469595" lon="10.6036867"><ele>589.0</ele><time>2026-04-18T15:09:50.532Z</time></trkpt><trkpt lat="43.4696783" lon="10.6037767"><ele>589.0</ele><time>2026-04-18T15:09:52.532Z</time></trkpt><trkpt lat="43.46977" lon="10.6038617"><ele>589.0</ele><time>2026-04-18T15:09:54.532Z</time></trkpt><trkpt lat="43.4698617" lon="10.6039433"><ele>588.1666666666667</ele><time>2026-04-18T15:09:56.532Z</time></trkpt><trkpt lat="43.4699683" lon="10.6040133"><ele>587.3333333333334</ele><time>2026-04-18T15:09:58.532Z</time></trkpt><trkpt lat="43.4700383" lon="10.60405"><ele>586.5</ele><time>2026-04-18T15:09:59.532Z</time></trkpt><trkpt lat="43.4701133" lon="10.6040767"><ele>585.6666666666666</ele><time>2026-04-18T15:10:00.532Z</time></trkpt><trkpt lat="43.4701817" lon="10.60411"><ele>584.8333333333333</ele><time>2026-04-18T15:10:01.532Z</time></trkpt><trkpt lat="43.4702483" lon="10.6041433"><ele>584.0</ele><time>2026-04-18T15:10:02.533Z</time></trkpt><trkpt lat="43.4703133" lon="10.60417"><ele>584.0</ele><time>2026-04-18T15:10:03.532Z</time></trkpt><trkpt lat="43.4703833" lon="10.6041983"><ele>584.0</ele><time>2026-04-18T15:10:04.532Z</time></trkpt><trkpt lat="43.470445" lon="10.60422"><ele>584.0</ele><time>2026-04-18T15:10:05.533Z</time></trkpt><trkpt lat="43.4705083" lon="10.6042317"><ele>584.0</ele><time>2026-04-18T15:10:06.533Z</time></trkpt><trkpt lat="43.4705767" lon="10.6042417"><ele>584.0</ele><time>2026-04-18T15:10:07.532Z</time></trkpt><trkpt lat="43.4706567" lon="10.6042583"><ele>584.0</ele><time>2026-04-18T15:10:08.532Z</time></trkpt><trkpt lat="43.47073" lon="10.60426"><ele>584.0</ele><time>2026-04-18T15:10:09.532Z</time></trkpt><trkpt lat="43.470805" lon="10.6042583"><ele>583.6666666666666</ele><time>2026-04-18T15:10:10.532Z</time></trkpt><trkpt lat="43.47089" lon="10.6042483"><ele>583.3333333333333</ele><time>2026-04-18T15:10:11.532Z</time></trkpt><trkpt lat="43.4709667" lon="10.6042483"><ele>583.0</ele><time>2026-04-18T15:10:12.532Z</time></trkpt><trkpt lat="43.471055" lon="10.6042683"><ele>582.6666666666666</ele><time>2026-04-18T15:10:13.532Z</time></trkpt><trkpt lat="43.4711383" lon="10.604295"><ele>582.3333333333334</ele><time>2026-04-18T15:10:14.532Z</time></trkpt><trkpt lat="43.4712233" lon="10.6043167"><ele>582.0</ele><time>2026-04-18T15:10:15.532Z</time></trkpt><trkpt lat="43.47131" lon="10.60433"><ele>582.0</ele><time>2026-04-18T15:10:16.532Z</time></trkpt><trkpt lat="43.471405" lon="10.604335"><ele>582.0</ele><time>2026-04-18T15:10:17.532Z</time></trkpt><trkpt lat="43.4714983" lon="10.60433"><ele>582.0</ele><time>2026-04-18T15:10:18.532Z</time></trkpt><trkpt lat="43.4715867" lon="10.6043167"><ele>582.0</ele><time>2026-04-18T15:10:19.532Z</time></trkpt><trkpt lat="43.4716717" lon="10.60429"><ele>582.0</ele><time>2026-04-18T15:10:20.533Z</time></trkpt><trkpt lat="43.4717367" lon="10.6042617"><ele>582.0</ele><time>2026-04-18T15:10:21.532Z</time></trkpt><trkpt lat="43.4718667" lon="10.6042"><ele>582.0</ele><time>2026-04-18T15:10:23.532Z</time></trkpt><trkpt lat="43.47193" lon="10.6041833"><ele>582.0</ele><time>2026-04-18T15:10:24.532Z</time></trkpt><trkpt lat="43.4720417" lon="10.6041667"><ele>582.0</ele><time>2026-04-18T15:10:26.532Z</time></trkpt><trkpt lat="43.47215" lon="10.60419"><ele>582.0</ele><time>2026-04-18T15:10:28.532Z</time></trkpt><trkpt lat="43.47232" lon="10.6045233"><ele>582.8000000000001</ele><time>2026-04-18T15:10:32.532Z</time></trkpt><trkpt lat="43.47237" lon="10.60463"><ele>583.6</ele><time>2026-04-18T15:10:33.532Z</time></trkpt><trkpt lat="43.4724217" lon="10.6047367"><ele>584.4000000000001</ele><time>2026-04-18T15:10:34.532Z</time></trkpt><trkpt lat="43.4724733" lon="10.6048367"><ele>585.2</ele><time>2026-04-18T15:10:35.532Z</time></trkpt><trkpt lat="43.472515" lon="10.6049383"><ele>586.0</ele><time>2026-04-18T15:10:36.532Z</time></trkpt><trkpt lat="43.47256" lon="10.6050567"><ele>586.0</ele><time>2026-04-18T15:10:37.533Z</time></trkpt><trkpt lat="43.4725967" lon="10.60518"><ele>586.0</ele><time>2026-04-18T15:10:38.533Z</time></trkpt><trkpt lat="43.472625" lon="10.6052783"><ele>586.0</ele><time>2026-04-18T15:10:39.533Z</time></trkpt><trkpt lat="43.472665" lon="10.6053667"><ele>586.0</ele><time>2026-04-18T15:10:40.532Z</time></trkpt><trkpt lat="43.4727067" lon="10.6054467"><ele>586.0</ele><time>2026-04-18T15:10:41.532Z</time></trkpt><trkpt lat="43.472755" lon="10.605515"><ele>586.0</ele><time>2026-04-18T15:10:42.532Z</time></trkpt><trkpt lat="43.4728133" lon="10.6055867"><ele>586.4</ele><time>2026-04-18T15:10:43.532Z</time></trkpt><trkpt lat="43.47288" lon="10.6056633"><ele>586.8</ele><time>2026-04-18T15:10:44.532Z</time></trkpt><trkpt lat="43.472955" lon="10.605745"><ele>587.1999999999999</ele><time>2026-04-18T15:10:45.532Z</time></trkpt><trkpt lat="43.4730317" lon="10.60583"><ele>587.6</ele><time>2026-04-18T15:10:46.533Z</time></trkpt><trkpt lat="43.4731083" lon="10.6059167"><ele>588.0</ele><time>2026-04-18T15:10:47.532Z</time></trkpt><trkpt lat="43.4731817" lon="10.6060133"><ele>588.0</ele><time>2026-04-18T15:10:48.532Z</time></trkpt><trkpt lat="43.4732467" lon="10.6060883"><ele>588.0</ele><time>2026-04-18T15:10:49.532Z</time></trkpt><trkpt lat="43.4733033" lon="10.606145"><ele>588.0</ele><time>2026-04-18T15:10:50.532Z</time></trkpt><trkpt lat="43.4733833" lon="10.60622"><ele>588.0</ele><time>2026-04-18T15:10:52.532Z</time></trkpt><trkpt lat="43.4734583" lon="10.6062567"><ele>588.0</ele><time>2026-04-18T15:10:54.533Z</time></trkpt><trkpt lat="43.473545" lon="10.6062833"><ele>588.0</ele><time>2026-04-18T15:10:56.532Z</time></trkpt><trkpt lat="43.473625" lon="10.6062833"><ele>586.5</ele><time>2026-04-18T15:10:58.532Z</time></trkpt><trkpt lat="43.47372" lon="10.6062783"><ele>585.0</ele><time>2026-04-18T15:11:00.532Z</time></trkpt><trkpt lat="43.4737833" lon="10.6062783"><ele>583.5</ele><time>2026-04-18T15:11:01.532Z</time></trkpt><trkpt lat="43.47386" lon="10.6062733"><ele>582.0</ele><time>2026-04-18T15:11:02.532Z</time></trkpt><trkpt lat="43.474105" lon="10.6063"><ele>581.3333333333334</ele><time>2026-04-18T15:11:05.532Z</time></trkpt><trkpt lat="43.4741833" lon="10.6062983"><ele>580.6666666666666</ele><time>2026-04-18T15:11:06.532Z</time></trkpt><trkpt lat="43.4742617" lon="10.6063017"><ele>580.0</ele><time>2026-04-18T15:11:07.532Z</time></trkpt><trkpt lat="43.4743383" lon="10.6063033"><ele>579.3333333333333</ele><time>2026-04-18T15:11:08.532Z</time></trkpt><trkpt lat="43.47442" lon="10.6062933"><ele>578.6666666666666</ele><time>2026-04-18T15:11:09.532Z</time></trkpt><trkpt lat="43.4745067" lon="10.6062783"><ele>578.0</ele><time>2026-04-18T15:11:10.532Z</time></trkpt><trkpt lat="43.4745833" lon="10.60627"><ele>577.6666666666666</ele><time>2026-04-18T15:11:11.532Z</time></trkpt><trkpt lat="43.474665" lon="10.6062683"><ele>577.3333333333333</ele><time>2026-04-18T15:11:12.532Z</time></trkpt><trkpt lat="43.4747533" lon="10.6062683"><ele>577.0</ele><time>2026-04-18T15:11:13.532Z</time></trkpt><trkpt lat="43.47485" lon="10.606275"><ele>576.6666666666666</ele><time>2026-04-18T15:11:14.532Z</time></trkpt><trkpt lat="43.474935" lon="10.6062883"><ele>576.3333333333334</ele><time>2026-04-18T15:11:15.532Z</time></trkpt><trkpt lat="43.4750117" lon="10.606305"><ele>576.0</ele><time>2026-04-18T15:11:16.532Z</time></trkpt><trkpt lat="43.4750833" lon="10.6063283"><ele>576.0</ele><time>2026-04-18T15:11:17.532Z</time></trkpt><trkpt lat="43.4751483" lon="10.6063583"><ele>576.0</ele><time>2026-04-18T15:11:18.532Z</time></trkpt><trkpt lat="43.4752133" lon="10.6063933"><ele>576.0</ele><time>2026-04-18T15:11:19.532Z</time></trkpt><trkpt lat="43.4752717" lon="10.6064383"><ele>576.0</ele><time>2026-04-18T15:11:20.531Z</time></trkpt><trkpt lat="43.4753683" lon="10.6065133"><ele>576.0</ele><time>2026-04-18T15:11:22.531Z</time></trkpt><trkpt lat="43.475445" lon="10.6065617"><ele>576.0</ele><time>2026-04-18T15:11:24.531Z</time></trkpt><trkpt lat="43.4754967" lon="10.60662"><ele>577.0</ele><time>2026-04-18T15:11:26.531Z</time></trkpt><trkpt lat="43.4755433" lon="10.606685"><ele>578.0</ele><time>2026-04-18T15:11:28.531Z</time></trkpt><trkpt lat="43.4755883" lon="10.6067533"><ele>579.0</ele><time>2026-04-18T15:11:30.531Z</time></trkpt><trkpt lat="43.4756633" lon="10.6068467"><ele>580.0</ele><time>2026-04-18T15:11:32.531Z</time></trkpt><trkpt lat="43.4757483" lon="10.6069617"><ele>581.0</ele><time>2026-04-18T15:11:34.531Z</time></trkpt><trkpt lat="43.47591" lon="10.6072167"><ele>581.5</ele><time>2026-04-18T15:11:38.532Z</time></trkpt><trkpt lat="43.4759517" lon="10.60729"><ele>582.0</ele><time>2026-04-18T15:11:39.531Z</time></trkpt><trkpt lat="43.476" lon="10.60738"><ele>582.5</ele><time>2026-04-18T15:11:40.531Z</time></trkpt><trkpt lat="43.4760717" lon="10.6075033"><ele>583.0</ele><time>2026-04-18T15:11:42.531Z</time></trkpt><trkpt lat="43.47613" lon="10.6075917"><ele>583.5</ele><time>2026-04-18T15:11:44.531Z</time></trkpt><trkpt lat="43.4761767" lon="10.6076883"><ele>584.0</ele><time>2026-04-18T15:11:47.531Z</time></trkpt><trkpt lat="43.4760967" lon="10.6075283"><ele>584.0</ele><time>2026-04-18T15:12:25.531Z</time></trkpt><trkpt lat="43.476035" lon="10.6074283"><ele>584.0</ele><time>2026-04-18T15:12:27.531Z</time></trkpt><trkpt lat="43.47598" lon="10.6073417"><ele>584.0</ele><time>2026-04-18T15:12:29.531Z</time></trkpt><trkpt lat="43.4759333" lon="10.60727"><ele>584.0</ele><time>2026-04-18T15:12:31.531Z</time></trkpt><trkpt lat="43.475885" lon="10.6071717"><ele>584.0</ele><time>2026-04-18T15:12:33.532Z</time></trkpt><trkpt lat="43.47583" lon="10.607075"><ele>584.0</ele><time>2026-04-18T15:12:35.531Z</time></trkpt><trkpt lat="43.4757667" lon="10.6069867"><ele>583.5</ele><time>2026-04-18T15:12:37.531Z</time></trkpt><trkpt lat="43.4756983" lon="10.6068783"><ele>583.0</ele><time>2026-04-18T15:12:39.531Z</time></trkpt><trkpt lat="43.4756433" lon="10.6067867"><ele>582.5</ele><time>2026-04-18T15:12:41.531Z</time></trkpt><trkpt lat="43.4756" lon="10.6067167"><ele>582.0</ele><time>2026-04-18T15:12:43.531Z</time></trkpt><trkpt lat="43.4755467" lon="10.6066517"><ele>581.5</ele><time>2026-04-18T15:12:45.531Z</time></trkpt><trkpt lat="43.47549" lon="10.606585"><ele>581.0</ele><time>2026-04-18T15:12:47.531Z</time></trkpt><trkpt lat="43.4754267" lon="10.6065167"><ele>580.1666666666666</ele><time>2026-04-18T15:12:50.531Z</time></trkpt><trkpt lat="43.47537" lon="10.6064583"><ele>579.3333333333333</ele><time>2026-04-18T15:13:24.531Z</time></trkpt><trkpt lat="43.4752967" lon="10.606375"><ele>578.5</ele><time>2026-04-18T15:13:25.532Z</time></trkpt><trkpt lat="43.475305" lon="10.6062517"><ele>577.6666666666666</ele><time>2026-04-18T15:14:16.531Z</time></trkpt><trkpt lat="43.47523" lon="10.606295"><ele>576.8333333333334</ele><time>2026-04-18T15:16:26.531Z</time></trkpt><trkpt lat="43.4752817" lon="10.6063883"><ele>576.0</ele><time>2026-04-18T15:21:47.528Z</time></trkpt><trkpt lat="43.475225" lon="10.6063083"><ele>576.0</ele><time>2026-04-18T15:22:27.528Z</time></trkpt><trkpt lat="43.47512" lon="10.6062467"><ele>576.0</ele><time>2026-04-18T15:22:29.528Z</time></trkpt><trkpt lat="43.47502" lon="10.6062133"><ele>576.0</ele><time>2026-04-18T15:22:31.528Z</time></trkpt><trkpt lat="43.474935" lon="10.6061917"><ele>576.0</ele><time>2026-04-18T15:22:33.528Z</time></trkpt><trkpt lat="43.4748583" lon="10.6061867"><ele>576.0</ele><time>2026-04-18T15:22:36.528Z</time></trkpt><trkpt lat="43.474755" lon="10.6061667"><ele>576.5</ele><time>2026-04-18T15:22:39.529Z</time></trkpt><trkpt lat="43.4745917" lon="10.60617"><ele>577.0</ele><time>2026-04-18T15:22:42.529Z</time></trkpt><trkpt lat="43.4744117" lon="10.6062117"><ele>577.5</ele><time>2026-04-18T15:22:47.528Z</time></trkpt><trkpt lat="43.4743367" lon="10.60623"><ele>578.0</ele><time>2026-04-18T15:22:49.528Z</time></trkpt><trkpt lat="43.4742633" lon="10.6062367"><ele>578.0</ele><time>2026-04-18T15:22:51.529Z</time></trkpt><trkpt lat="43.4741983" lon="10.6062233"><ele>578.0</ele><time>2026-04-18T15:22:54.528Z</time></trkpt><trkpt lat="43.474435" lon="10.606245"><ele>578.0</ele><time>2026-04-18T15:23:21.529Z</time></trkpt><trkpt lat="43.47452" lon="10.6062383"><ele>578.0</ele><time>2026-04-18T15:23:23.528Z</time></trkpt><trkpt lat="43.4746083" lon="10.6062217"><ele>577.6666666666666</ele><time>2026-04-18T15:23:25.528Z</time></trkpt><trkpt lat="43.47471" lon="10.6061967"><ele>577.3333333333333</ele><time>2026-04-18T15:23:27.528Z</time></trkpt><trkpt lat="43.4747767" lon="10.6061817"><ele>577.0</ele><time>2026-04-18T15:23:29.528Z</time></trkpt><trkpt lat="43.4748567" lon="10.60613"><ele>576.6666666666666</ele><time>2026-04-18T15:23:41.528Z</time></trkpt><trkpt lat="43.4749133" lon="10.6060767"><ele>576.3333333333334</ele><time>2026-04-18T15:23:43.528Z</time></trkpt><trkpt lat="43.4749617" lon="10.6060117"><ele>576.0</ele><time>2026-04-18T15:23:46.528Z</time></trkpt><trkpt lat="43.474975" lon="10.60591"><ele>576.25</ele><time>2026-04-18T15:23:50.528Z</time></trkpt><trkpt lat="43.4749817" lon="10.60562"><ele>576.5</ele><time>2026-04-18T15:23:55.528Z</time></trkpt><trkpt lat="43.47498" lon="10.6055217"><ele>576.75</ele><time>2026-04-18T15:23:56.528Z</time></trkpt><trkpt lat="43.4749733" lon="10.60543"><ele>577.0</ele><time>2026-04-18T15:23:57.528Z</time></trkpt><trkpt lat="43.4749467" lon="10.6052633"><ele>577.0</ele><time>2026-04-18T15:23:59.528Z</time></trkpt><trkpt lat="43.47492" lon="10.605095"><ele>577.0</ele><time>2026-04-18T15:24:01.528Z</time></trkpt><trkpt lat="43.4748767" lon="10.6049367"><ele>577.0</ele><time>2026-04-18T15:24:03.528Z</time></trkpt><trkpt lat="43.4748567" lon="10.6048017"><ele>577.0</ele><time>2026-04-18T15:24:05.529Z</time></trkpt><trkpt lat="43.4748317" lon="10.6047033"><ele>577.0</ele><time>2026-04-18T15:24:08.528Z</time></trkpt><trkpt lat="43.47482" lon="10.6045767"><ele>577.6</ele><time>2026-04-18T15:24:12.528Z</time></trkpt><trkpt lat="43.474815" lon="10.6044617"><ele>578.2</ele><time>2026-04-18T15:24:14.528Z</time></trkpt><trkpt lat="43.4748167" lon="10.604325"><ele>578.8</ele><time>2026-04-18T15:24:16.528Z</time></trkpt><trkpt lat="43.474805" lon="10.6041833"><ele>579.4</ele><time>2026-04-18T15:24:18.528Z</time></trkpt><trkpt lat="43.4748283" lon="10.6040283"><ele>580.0</ele><time>2026-04-18T15:24:20.528Z</time></trkpt><trkpt lat="43.474845" lon="10.6039283"><ele>580.0</ele><time>2026-04-18T15:24:21.529Z</time></trkpt><trkpt lat="43.4748633" lon="10.6038367"><ele>580.0</ele><time>2026-04-18T15:24:22.528Z</time></trkpt><trkpt lat="43.4748717" lon="10.6037483"><ele>580.0</ele><time>2026-04-18T15:24:23.528Z</time></trkpt><trkpt lat="43.4748967" lon="10.6036333"><ele>580.0</ele><time>2026-04-18T15:24:25.528Z</time></trkpt><trkpt lat="43.4749517" lon="10.6035"><ele>580.0</ele><time>2026-04-18T15:24:29.529Z</time></trkpt><trkpt lat="43.47505" lon="10.6034567"><ele>580.0</ele><time>2026-04-18T15:24:32.528Z</time></trkpt><trkpt lat="43.4751583" lon="10.6034583"><ele>579.6666666666667</ele><time>2026-04-18T15:24:34.528Z</time></trkpt><trkpt lat="43.47524" lon="10.6034483"><ele>579.3333333333334</ele><time>2026-04-18T15:24:36.528Z</time></trkpt><trkpt lat="43.4753217" lon="10.6034367"><ele>579.0</ele><time>2026-04-18T15:24:51.528Z</time></trkpt><trkpt lat="43.4754217" lon="10.6034183"><ele>578.6666666666666</ele><time>2026-04-18T15:24:53.528Z</time></trkpt><trkpt lat="43.4754883" lon="10.6034067"><ele>578.3333333333333</ele><time>2026-04-18T15:24:54.528Z</time></trkpt><trkpt lat="43.47557" lon="10.6033917"><ele>578.0</ele><time>2026-04-18T15:24:55.528Z</time></trkpt><trkpt lat="43.475645" lon="10.6033817"><ele>577.4</ele><time>2026-04-18T15:24:56.528Z</time></trkpt><trkpt lat="43.475725" lon="10.6033717"><ele>576.8</ele><time>2026-04-18T15:24:57.529Z</time></trkpt><trkpt lat="43.4758083" lon="10.6033817"><ele>576.2</ele><time>2026-04-18T15:24:58.528Z</time></trkpt><trkpt lat="43.4758867" lon="10.60339"><ele>575.6</ele><time>2026-04-18T15:24:59.528Z</time></trkpt><trkpt lat="43.4759617" lon="10.6034083"><ele>575.0</ele><time>2026-04-18T15:25:00.527Z</time></trkpt><trkpt lat="43.4762117" lon="10.60357"><ele>575.0</ele><time>2026-04-18T15:25:04.527Z</time></trkpt><trkpt lat="43.4762683" lon="10.6036383"><ele>575.0</ele><time>2026-04-18T15:25:05.527Z</time></trkpt><trkpt lat="43.4763233" lon="10.6036933"><ele>575.0</ele><time>2026-04-18T15:25:06.527Z</time></trkpt><trkpt lat="43.4763833" lon="10.603745"><ele>575.0</ele><time>2026-04-18T15:25:07.528Z</time></trkpt><trkpt lat="43.4764483" lon="10.6037883"><ele>575.0</ele><time>2026-04-18T15:25:08.527Z</time></trkpt><trkpt lat="43.4765733" lon="10.6038483"><ele>575.0</ele><time>2026-04-18T15:25:10.527Z</time></trkpt><trkpt lat="43.4766467" lon="10.60388"><ele>573.8333333333333</ele><time>2026-04-18T15:25:11.527Z</time></trkpt><trkpt lat="43.47672" lon="10.60389"><ele>572.6666666666666</ele><time>2026-04-18T15:25:12.528Z</time></trkpt><trkpt lat="43.4767967" lon="10.60388"><ele>571.5</ele><time>2026-04-18T15:25:13.528Z</time></trkpt><trkpt lat="43.4768817" lon="10.6038617"><ele>570.3333333333334</ele><time>2026-04-18T15:25:14.527Z</time></trkpt><trkpt lat="43.4769567" lon="10.6038167"><ele>569.1666666666667</ele><time>2026-04-18T15:25:15.527Z</time></trkpt><trkpt lat="43.4770383" lon="10.603765"><ele>568.0</ele><time>2026-04-18T15:25:16.527Z</time></trkpt><trkpt lat="43.47713" lon="10.603715"><ele>566.5</ele><time>2026-04-18T15:25:17.527Z</time></trkpt><trkpt lat="43.47723" lon="10.6036767"><ele>565.0</ele><time>2026-04-18T15:25:18.528Z</time></trkpt><trkpt lat="43.4773333" lon="10.6036533"><ele>563.5</ele><time>2026-04-18T15:25:19.527Z</time></trkpt><trkpt lat="43.477425" lon="10.603625"><ele>562.0</ele><time>2026-04-18T15:25:20.528Z</time></trkpt><trkpt lat="43.4774983" lon="10.6035983"><ele>560.5</ele><time>2026-04-18T15:25:21.527Z</time></trkpt><trkpt lat="43.4775567" lon="10.603565"><ele>559.0</ele><time>2026-04-18T15:25:22.527Z</time></trkpt><trkpt lat="43.4776683" lon="10.60346"><ele>559.0</ele><time>2026-04-18T15:25:24.527Z</time></trkpt><trkpt lat="43.477735" lon="10.603385"><ele>559.0</ele><time>2026-04-18T15:25:25.527Z</time></trkpt><trkpt lat="43.477805" lon="10.6033"><ele>559.0</ele><time>2026-04-18T15:25:26.527Z</time></trkpt><trkpt lat="43.47787" lon="10.6032117"><ele>559.0</ele><time>2026-04-18T15:25:27.527Z</time></trkpt><trkpt lat="43.477935" lon="10.603125"><ele>559.0</ele><time>2026-04-18T15:25:28.527Z</time></trkpt><trkpt lat="43.4780033" lon="10.6030317"><ele>557.0</ele><time>2026-04-18T15:25:29.527Z</time></trkpt><trkpt lat="43.4780667" lon="10.6029433"><ele>555.0</ele><time>2026-04-18T15:25:30.527Z</time></trkpt><trkpt lat="43.4781233" lon="10.6028633"><ele>553.0</ele><time>2026-04-18T15:25:31.527Z</time></trkpt><trkpt lat="43.4781817" lon="10.6027767"><ele>551.0</ele><time>2026-04-18T15:25:32.528Z</time></trkpt><trkpt lat="43.4782267" lon="10.6026783"><ele>549.0</ele><time>2026-04-18T15:25:33.527Z</time></trkpt><trkpt lat="43.4782583" lon="10.6025767"><ele>547.0</ele><time>2026-04-18T15:25:34.527Z</time></trkpt><trkpt lat="43.478395" lon="10.6021867"><ele>547.0</ele><time>2026-04-18T15:25:37.527Z</time></trkpt><trkpt lat="43.47845" lon="10.6020883"><ele>547.0</ele><time>2026-04-18T15:25:38.527Z</time></trkpt><trkpt lat="43.4785067" lon="10.6020167"><ele>547.0</ele><time>2026-04-18T15:25:39.527Z</time></trkpt><trkpt lat="43.4785683" lon="10.6019467"><ele>547.0</ele><time>2026-04-18T15:25:40.527Z</time></trkpt><trkpt lat="43.478625" lon="10.6018817"><ele>547.0</ele><time>2026-04-18T15:25:41.527Z</time></trkpt><trkpt lat="43.4786817" lon="10.6018267"><ele>547.0</ele><time>2026-04-18T15:25:42.527Z</time></trkpt><trkpt lat="43.4787667" lon="10.6017467"><ele>546.2</ele><time>2026-04-18T15:25:44.527Z</time></trkpt><trkpt lat="43.47886" lon="10.6017283"><ele>545.4000000000001</ele><time>2026-04-18T15:25:46.527Z</time></trkpt><trkpt lat="43.4789933" lon="10.6017383"><ele>544.5999999999999</ele><time>2026-04-18T15:25:48.527Z</time></trkpt><trkpt lat="43.479055" lon="10.6017583"><ele>543.8</ele><time>2026-04-18T15:25:49.527Z</time></trkpt><trkpt lat="43.479125" lon="10.6017717"><ele>543.0</ele><time>2026-04-18T15:25:50.527Z</time></trkpt><trkpt lat="43.4792417" lon="10.6017633"><ele>543.0</ele><time>2026-04-18T15:25:52.527Z</time></trkpt><trkpt lat="43.47935" lon="10.6016867"><ele>543.0</ele><time>2026-04-18T15:25:54.527Z</time></trkpt><trkpt lat="43.479415" lon="10.6016183"><ele>543.0</ele><time>2026-04-18T15:25:55.527Z</time></trkpt><trkpt lat="43.47948" lon="10.6015417"><ele>543.0</ele><time>2026-04-18T15:25:56.527Z</time></trkpt><trkpt lat="43.4795417" lon="10.6014583"><ele>543.0</ele><time>2026-04-18T15:25:57.527Z</time></trkpt><trkpt lat="43.4796167" lon="10.6013567"><ele>541.1999999999999</ele><time>2026-04-18T15:25:58.527Z</time></trkpt><trkpt lat="43.4796983" lon="10.6012567"><ele>539.4</ele><time>2026-04-18T15:25:59.527Z</time></trkpt><trkpt lat="43.4797733" lon="10.6011717"><ele>537.5999999999999</ele><time>2026-04-18T15:26:00.527Z</time></trkpt><trkpt lat="43.4798383" lon="10.6011067"><ele>535.8</ele><time>2026-04-18T15:26:01.527Z</time></trkpt><trkpt lat="43.4799283" lon="10.6009983"><ele>534.0</ele><time>2026-04-18T15:26:03.527Z</time></trkpt><trkpt lat="43.4799783" lon="10.6008533"><ele>534.0</ele><time>2026-04-18T15:26:05.527Z</time></trkpt><trkpt lat="43.4800017" lon="10.6007483"><ele>534.0</ele><time>2026-04-18T15:26:06.527Z</time></trkpt><trkpt lat="43.48002" lon="10.6006283"><ele>534.0</ele><time>2026-04-18T15:26:07.527Z</time></trkpt><trkpt lat="43.48003" lon="10.6005083"><ele>534.0</ele><time>2026-04-18T15:26:08.527Z</time></trkpt><trkpt lat="43.4801233" lon="10.600085"><ele>533.3333333333334</ele><time>2026-04-18T15:26:12.527Z</time></trkpt><trkpt lat="43.480175" lon="10.6000017"><ele>532.6666666666666</ele><time>2026-04-18T15:26:13.527Z</time></trkpt><trkpt lat="43.4802333" lon="10.599915"><ele>532.0</ele><time>2026-04-18T15:26:14.527Z</time></trkpt><trkpt lat="43.4802983" lon="10.5998383"><ele>531.3333333333333</ele><time>2026-04-18T15:26:15.527Z</time></trkpt><trkpt lat="43.4803583" lon="10.5997817"><ele>530.6666666666666</ele><time>2026-04-18T15:26:16.527Z</time></trkpt><trkpt lat="43.480425" lon="10.5997217"><ele>530.0</ele><time>2026-04-18T15:26:17.527Z</time></trkpt><trkpt lat="43.4804933" lon="10.5996833"><ele>529.3333333333333</ele><time>2026-04-18T15:26:18.527Z</time></trkpt><trkpt lat="43.48056" lon="10.599655"><ele>528.6666666666666</ele><time>2026-04-18T15:26:19.528Z</time></trkpt><trkpt lat="43.480635" lon="10.5996133"><ele>528.0</ele><time>2026-04-18T15:26:20.527Z</time></trkpt><trkpt lat="43.480715" lon="10.5995917"><ele>527.3333333333334</ele><time>2026-04-18T15:26:21.527Z</time></trkpt><trkpt lat="43.4807917" lon="10.5995733"><ele>526.6666666666667</ele><time>2026-04-18T15:26:22.527Z</time></trkpt><trkpt lat="43.48087" lon="10.5995483"><ele>526.0</ele><time>2026-04-18T15:26:23.527Z</time></trkpt><trkpt lat="43.4809467" lon="10.5995133"><ele>525.5</ele><time>2026-04-18T15:26:24.527Z</time></trkpt><trkpt lat="43.48101" lon="10.5994883"><ele>525.0</ele><time>2026-04-18T15:26:25.527Z</time></trkpt><trkpt lat="43.4811167" lon="10.5994517"><ele>524.5</ele><time>2026-04-18T15:26:27.527Z</time></trkpt><trkpt lat="43.48123" lon="10.599415"><ele>524.0</ele><time>2026-04-18T15:26:29.527Z</time></trkpt><trkpt lat="43.4812967" lon="10.5994083"><ele>523.5</ele><time>2026-04-18T15:26:30.527Z</time></trkpt><trkpt lat="43.4813683" lon="10.599385"><ele>523.0</ele><time>2026-04-18T15:26:31.528Z</time></trkpt><trkpt lat="43.4814433" lon="10.59937"><ele>520.8</ele><time>2026-04-18T15:26:32.527Z</time></trkpt><trkpt lat="43.4815383" lon="10.599335"><ele>518.5999999999999</ele><time>2026-04-18T15:26:33.527Z</time></trkpt><trkpt lat="43.4816383" lon="10.599315"><ele>516.4000000000001</ele><time>2026-04-18T15:26:34.527Z</time></trkpt><trkpt lat="43.4817533" lon="10.5993183"><ele>514.2</ele><time>2026-04-18T15:26:35.527Z</time></trkpt><trkpt lat="43.481875" lon="10.59933"><ele>512.0</ele><time>2026-04-18T15:26:36.527Z</time></trkpt><trkpt lat="43.4819867" lon="10.5993217"><ele>512.0</ele><time>2026-04-18T15:26:37.527Z</time></trkpt><trkpt lat="43.4820717" lon="10.59932"><ele>512.0</ele><time>2026-04-18T15:26:38.527Z</time></trkpt><trkpt lat="43.4821533" lon="10.5993317"><ele>512.0</ele><time>2026-04-18T15:26:39.527Z</time></trkpt><trkpt lat="43.4822217" lon="10.599345"><ele>512.0</ele><time>2026-04-18T15:26:40.527Z</time></trkpt><trkpt lat="43.4823483" lon="10.5993783"><ele>512.0</ele><time>2026-04-18T15:26:42.527Z</time></trkpt><trkpt lat="43.48262" lon="10.5995133"><ele>508.25</ele><time>2026-04-18T15:26:45.527Z</time></trkpt><trkpt lat="43.4827233" lon="10.5995683"><ele>504.5</ele><time>2026-04-18T15:26:46.527Z</time></trkpt><trkpt lat="43.4828383" lon="10.5996483"><ele>500.75</ele><time>2026-04-18T15:26:47.528Z</time></trkpt><trkpt lat="43.4829533" lon="10.5997217"><ele>497.0</ele><time>2026-04-18T15:26:48.527Z</time></trkpt><trkpt lat="43.4830717" lon="10.5997917"><ele>497.0</ele><time>2026-04-18T15:26:49.527Z</time></trkpt><trkpt lat="43.4831917" lon="10.599855"><ele>497.0</ele><time>2026-04-18T15:26:50.527Z</time></trkpt><trkpt lat="43.4833033" lon="10.5999083"><ele>497.0</ele><time>2026-04-18T15:26:51.527Z</time></trkpt><trkpt lat="43.4834167" lon="10.59997"><ele>497.0</ele><time>2026-04-18T15:26:52.527Z</time></trkpt><trkpt lat="43.4835217" lon="10.6000167"><ele>497.0</ele><time>2026-04-18T15:26:53.527Z</time></trkpt><trkpt lat="43.4836167" lon="10.6000567"><ele>497.00000000000006</ele><time>2026-04-18T15:26:54.527Z</time></trkpt><trkpt lat="43.48371" lon="10.60008"><ele>497.00000000000006</ele><time>2026-04-18T15:26:55.527Z</time></trkpt><trkpt lat="43.4838083" lon="10.6000983"><ele>497.0</ele><time>2026-04-18T15:26:56.527Z</time></trkpt><trkpt lat="43.4839133" lon="10.6001"><ele>497.0</ele><time>2026-04-18T15:26:57.527Z</time></trkpt><trkpt lat="43.4840267" lon="10.6000883"><ele>498.20000000000005</ele><time>2026-04-18T15:26:58.527Z</time></trkpt><trkpt lat="43.48413" lon="10.6000817"><ele>499.40000000000003</ele><time>2026-04-18T15:26:59.527Z</time></trkpt><trkpt lat="43.4842367" lon="10.600065"><ele>500.59999999999997</ele><time>2026-04-18T15:27:00.527Z</time></trkpt><trkpt lat="43.48435" lon="10.60005"><ele>501.79999999999995</ele><time>2026-04-18T15:27:01.527Z</time></trkpt><trkpt lat="43.4844733" lon="10.600025"><ele>503.0</ele><time>2026-04-18T15:27:02.527Z</time></trkpt><trkpt lat="43.4846017" lon="10.60002"><ele>503.5</ele><time>2026-04-18T15:27:03.527Z</time></trkpt><trkpt lat="43.484735" lon="10.6000083"><ele>504.0</ele><time>2026-04-18T15:27:04.527Z</time></trkpt><trkpt lat="43.4848633" lon="10.6000033"><ele>504.5</ele><time>2026-04-18T15:27:05.527Z</time></trkpt><trkpt lat="43.4849917" lon="10.6"><ele>505.0</ele><time>2026-04-18T15:27:06.527Z</time></trkpt><trkpt lat="43.4851083" lon="10.5999783"><ele>505.00000000000006</ele><time>2026-04-18T15:27:07.527Z</time></trkpt><trkpt lat="43.48521" lon="10.5999583"><ele>505.0</ele><time>2026-04-18T15:27:08.527Z</time></trkpt><trkpt lat="43.48529" lon="10.5999267"><ele>505.0</ele><time>2026-04-18T15:27:09.528Z</time></trkpt><trkpt lat="43.4853617" lon="10.5998817"><ele>505.0</ele><time>2026-04-18T15:27:10.528Z</time></trkpt><trkpt lat="43.485435" lon="10.5998517"><ele>505.00000000000006</ele><time>2026-04-18T15:27:11.527Z</time></trkpt><trkpt lat="43.4854967" lon="10.5998117"><ele>505.0</ele><time>2026-04-18T15:27:12.528Z</time></trkpt><trkpt lat="43.4855617" lon="10.5997783"><ele>505.5</ele><time>2026-04-18T15:27:13.527Z</time></trkpt><trkpt lat="43.4856217" lon="10.5997467"><ele>506.0</ele><time>2026-04-18T15:27:14.527Z</time></trkpt><trkpt lat="43.485685" lon="10.5997083"><ele>506.5</ele><time>2026-04-18T15:27:15.527Z</time></trkpt><trkpt lat="43.4859217" lon="10.59965"><ele>507.0</ele><time>2026-04-18T15:27:18.527Z</time></trkpt><trkpt lat="43.486025" lon="10.5996533"><ele>507.0</ele><time>2026-04-18T15:27:19.528Z</time></trkpt><trkpt lat="43.4861417" lon="10.5996617"><ele>507.00000000000006</ele><time>2026-04-18T15:27:20.527Z</time></trkpt><trkpt lat="43.4862567" lon="10.5996767"><ele>507.00000000000006</ele><time>2026-04-18T15:27:21.527Z</time></trkpt><trkpt lat="43.4863533" lon="10.599695"><ele>507.0</ele><time>2026-04-18T15:27:22.527Z</time></trkpt><trkpt lat="43.4864333" lon="10.5997133"><ele>507.0</ele><time>2026-04-18T15:27:23.527Z</time></trkpt><trkpt lat="43.4865067" lon="10.5997317"><ele>506.1666666666667</ele><time>2026-04-18T15:27:24.528Z</time></trkpt><trkpt lat="43.4865817" lon="10.5997467"><ele>505.33333333333337</ele><time>2026-04-18T15:27:25.527Z</time></trkpt><trkpt lat="43.48666" lon="10.5997617"><ele>504.5</ele><time>2026-04-18T15:27:26.527Z</time></trkpt><trkpt lat="43.486745" lon="10.5997683"><ele>503.6666666666667</ele><time>2026-04-18T15:27:27.527Z</time></trkpt><trkpt lat="43.4868217" lon="10.599765"><ele>502.83333333333337</ele><time>2026-04-18T15:27:28.527Z</time></trkpt><trkpt lat="43.48689" lon="10.5997583"><ele>502.0</ele><time>2026-04-18T15:27:29.527Z</time></trkpt><trkpt lat="43.4869617" lon="10.5997417"><ele>502.0</ele><time>2026-04-18T15:27:30.528Z</time></trkpt><trkpt lat="43.4870367" lon="10.599705"><ele>502.00000000000006</ele><time>2026-04-18T15:27:31.528Z</time></trkpt><trkpt lat="43.4871117" lon="10.5996467"><ele>502.00000000000006</ele><time>2026-04-18T15:27:32.527Z</time></trkpt><trkpt lat="43.4871917" lon="10.5995633"><ele>502.0</ele><time>2026-04-18T15:27:33.527Z</time></trkpt><trkpt lat="43.4872733" lon="10.5994683"><ele>502.0</ele><time>2026-04-18T15:27:34.527Z</time></trkpt><trkpt lat="43.4873633" lon="10.59934"><ele>500.0</ele><time>2026-04-18T15:27:35.527Z</time></trkpt><trkpt lat="43.4874567" lon="10.59919"><ele>498.0</ele><time>2026-04-18T15:27:36.527Z</time></trkpt><trkpt lat="43.4875367" lon="10.59907"><ele>496.0</ele><time>2026-04-18T15:27:37.528Z</time></trkpt><trkpt lat="43.4876067" lon="10.59896"><ele>494.0</ele><time>2026-04-18T15:27:38.527Z</time></trkpt><trkpt lat="43.4876683" lon="10.5988583"><ele>494.0</ele><time>2026-04-18T15:27:39.527Z</time></trkpt><trkpt lat="43.4877217" lon="10.5987583"><ele>494.0</ele><time>2026-04-18T15:27:40.527Z</time></trkpt><trkpt lat="43.48777" lon="10.5986517"><ele>494.0</ele><time>2026-04-18T15:27:41.527Z</time></trkpt><trkpt lat="43.48781" lon="10.5985383"><ele>494.0</ele><time>2026-04-18T15:27:42.527Z</time></trkpt><trkpt lat="43.4878467" lon="10.5984067"><ele>494.0</ele><time>2026-04-18T15:27:43.527Z</time></trkpt><trkpt lat="43.4878867" lon="10.5982817"><ele>493.79999999999995</ele><time>2026-04-18T15:27:44.527Z</time></trkpt><trkpt lat="43.48793" lon="10.598165"><ele>493.59999999999997</ele><time>2026-04-18T15:27:45.527Z</time></trkpt><trkpt lat="43.4879767" lon="10.5980567"><ele>493.4</ele><time>2026-04-18T15:27:46.527Z</time></trkpt><trkpt lat="43.488025" lon="10.5979633"><ele>493.2</ele><time>2026-04-18T15:27:47.527Z</time></trkpt><trkpt lat="43.488085" lon="10.59787"><ele>493.0</ele><time>2026-04-18T15:27:48.527Z</time></trkpt><trkpt lat="43.4882883" lon="10.59761"><ele>493.2857142857143</ele><time>2026-04-18T15:27:51.527Z</time></trkpt><trkpt lat="43.4883383" lon="10.5975317"><ele>493.57142857142856</ele><time>2026-04-18T15:27:52.527Z</time></trkpt><trkpt lat="43.4883833" lon="10.597465"><ele>493.85714285714283</ele><time>2026-04-18T15:27:53.527Z</time></trkpt><trkpt lat="43.48842" lon="10.59739"><ele>494.1428571428571</ele><time>2026-04-18T15:27:54.527Z</time></trkpt><trkpt lat="43.488455" lon="10.5973117"><ele>494.42857142857144</ele><time>2026-04-18T15:27:55.527Z</time></trkpt><trkpt lat="43.48849" lon="10.5972167"><ele>494.71428571428567</ele><time>2026-04-18T15:27:56.528Z</time></trkpt><trkpt lat="43.4885267" lon="10.5971167"><ele>494.99999999999994</ele><time>2026-04-18T15:27:57.527Z</time></trkpt><trkpt lat="43.4885717" lon="10.5970083"><ele>494.5</ele><time>2026-04-18T15:27:58.527Z</time></trkpt><trkpt lat="43.4886133" lon="10.5969067"><ele>494.0</ele><time>2026-04-18T15:27:59.527Z</time></trkpt><trkpt lat="43.4886617" lon="10.5968033"><ele>493.5</ele><time>2026-04-18T15:28:00.527Z</time></trkpt><trkpt lat="43.4887083" lon="10.596715"><ele>493.0</ele><time>2026-04-18T15:28:01.527Z</time></trkpt><trkpt lat="43.4887583" lon="10.5966283"><ele>492.5</ele><time>2026-04-18T15:28:02.527Z</time></trkpt><trkpt lat="43.488805" lon="10.596555"><ele>492.0</ele><time>2026-04-18T15:28:03.527Z</time></trkpt><trkpt lat="43.488855" lon="10.5964967"><ele>492.0</ele><time>2026-04-18T15:28:04.528Z</time></trkpt><trkpt lat="43.4889117" lon="10.5964417"><ele>492.0</ele><time>2026-04-18T15:28:05.528Z</time></trkpt><trkpt lat="43.4889717" lon="10.5964017"><ele>492.0</ele><time>2026-04-18T15:28:06.527Z</time></trkpt><trkpt lat="43.4890933" lon="10.5963617"><ele>492.0</ele><time>2026-04-18T15:28:08.527Z</time></trkpt><trkpt lat="43.4891633" lon="10.59637"><ele>492.0</ele><time>2026-04-18T15:28:09.527Z</time></trkpt><trkpt lat="43.489235" lon="10.5963883"><ele>492.0</ele><time>2026-04-18T15:28:10.528Z</time></trkpt><trkpt lat="43.4893083" lon="10.5964333"><ele>492.0</ele><time>2026-04-18T15:28:11.527Z</time></trkpt><trkpt lat="43.4893967" lon="10.5964817"><ele>492.0</ele><time>2026-04-18T15:28:12.527Z</time></trkpt><trkpt lat="43.4894933" lon="10.5965167"><ele>492.0</ele><time>2026-04-18T15:28:13.527Z</time></trkpt><trkpt lat="43.489585" lon="10.596545"><ele>492.0</ele><time>2026-04-18T15:28:14.527Z</time></trkpt><trkpt lat="43.489665" lon="10.5965583"><ele>492.0</ele><time>2026-04-18T15:28:15.528Z</time></trkpt><trkpt lat="43.4897433" lon="10.596575"><ele>492.0</ele><time>2026-04-18T15:28:16.527Z</time></trkpt><trkpt lat="43.48982" lon="10.5965833"><ele>492.0</ele><time>2026-04-18T15:28:17.527Z</time></trkpt><trkpt lat="43.489905" lon="10.5965683"><ele>492.00000000000006</ele><time>2026-04-18T15:28:18.527Z</time></trkpt><trkpt lat="43.49" lon="10.59655"><ele>492.00000000000006</ele><time>2026-04-18T15:28:19.527Z</time></trkpt><trkpt lat="43.4901017" lon="10.5965117"><ele>492.0</ele><time>2026-04-18T15:28:20.527Z</time></trkpt><trkpt lat="43.4901967" lon="10.59646"><ele>492.0</ele><time>2026-04-18T15:28:21.527Z</time></trkpt><trkpt lat="43.49028" lon="10.59642"><ele>491.5</ele><time>2026-04-18T15:28:22.527Z</time></trkpt><trkpt lat="43.49052" lon="10.59634"><ele>491.0</ele><time>2026-04-18T15:28:25.527Z</time></trkpt><trkpt lat="43.4905983" lon="10.5963283"><ele>490.5</ele><time>2026-04-18T15:28:26.527Z</time></trkpt><trkpt lat="43.49068" lon="10.5963367"><ele>490.0</ele><time>2026-04-18T15:28:27.527Z</time></trkpt><trkpt lat="43.49077" lon="10.596345"><ele>490.0</ele><time>2026-04-18T15:28:28.526Z</time></trkpt><trkpt lat="43.4908783" lon="10.59635"><ele>490.0</ele><time>2026-04-18T15:28:29.526Z</time></trkpt><trkpt lat="43.4909817" lon="10.5963567"><ele>490.0</ele><time>2026-04-18T15:28:30.526Z</time></trkpt><trkpt lat="43.4910717" lon="10.59637"><ele>490.0</ele><time>2026-04-18T15:28:31.526Z</time></trkpt><trkpt lat="43.4911583" lon="10.5963717"><ele>490.0</ele><time>2026-04-18T15:28:32.526Z</time></trkpt><trkpt lat="43.4912433" lon="10.5963767"><ele>489.2</ele><time>2026-04-18T15:28:33.526Z</time></trkpt><trkpt lat="43.4913283" lon="10.5964"><ele>488.4</ele><time>2026-04-18T15:28:34.526Z</time></trkpt><trkpt lat="43.4914217" lon="10.5964433"><ele>487.6</ele><time>2026-04-18T15:28:35.526Z</time></trkpt><trkpt lat="43.4915267" lon="10.5965083"><ele>486.8</ele><time>2026-04-18T15:28:36.526Z</time></trkpt><trkpt lat="43.4916317" lon="10.5965767"><ele>486.0</ele><time>2026-04-18T15:28:37.527Z</time></trkpt><trkpt lat="43.4917217" lon="10.5966533"><ele>486.0</ele><time>2026-04-18T15:28:38.527Z</time></trkpt><trkpt lat="43.4918017" lon="10.5967133"><ele>486.0</ele><time>2026-04-18T15:28:39.526Z</time></trkpt><trkpt lat="43.4918717" lon="10.59675"><ele>486.0</ele><time>2026-04-18T15:28:40.526Z</time></trkpt><trkpt lat="43.4919383" lon="10.5967833"><ele>486.0</ele><time>2026-04-18T15:28:41.526Z</time></trkpt><trkpt lat="43.492005" lon="10.596805"><ele>486.0</ele><time>2026-04-18T15:28:42.526Z</time></trkpt><trkpt lat="43.49207" lon="10.59681"><ele>486.0</ele><time>2026-04-18T15:28:43.526Z</time></trkpt><trkpt lat="43.4921817" lon="10.5968067"><ele>486.3333333333333</ele><time>2026-04-18T15:28:45.526Z</time></trkpt><trkpt lat="43.4923083" lon="10.5967667"><ele>486.66666666666663</ele><time>2026-04-18T15:28:47.527Z</time></trkpt><trkpt lat="43.492375" lon="10.59672"><ele>487.0</ele><time>2026-04-18T15:28:48.526Z</time></trkpt><trkpt lat="43.492445" lon="10.59666"><ele>487.3333333333333</ele><time>2026-04-18T15:28:49.526Z</time></trkpt><trkpt lat="43.4925133" lon="10.5966083"><ele>487.66666666666663</ele><time>2026-04-18T15:28:50.526Z</time></trkpt><trkpt lat="43.49258" lon="10.5965483"><ele>488.0</ele><time>2026-04-18T15:28:51.526Z</time></trkpt><trkpt lat="43.4926367" lon="10.5965033"><ele>488.0</ele><time>2026-04-18T15:28:52.526Z</time></trkpt><trkpt lat="43.4927217" lon="10.5964417"><ele>487.99999999999994</ele><time>2026-04-18T15:28:54.526Z</time></trkpt><trkpt lat="43.4927967" lon="10.5963583"><ele>487.99999999999994</ele><time>2026-04-18T15:28:59.526Z</time></trkpt><trkpt lat="43.4927283" lon="10.596395"><ele>488.0</ele><time>2026-04-18T15:29:22.526Z</time></trkpt><trkpt lat="43.492635" lon="10.5965"><ele>488.0</ele><time>2026-04-18T15:29:24.526Z</time></trkpt><trkpt lat="43.4925617" lon="10.596565"><ele>488.0</ele><time>2026-04-18T15:29:25.526Z</time></trkpt><trkpt lat="43.492495" lon="10.59662"><ele>487.99999999999994</ele><time>2026-04-18T15:29:26.526Z</time></trkpt><trkpt lat="43.4924317" lon="10.596665"><ele>487.99999999999994</ele><time>2026-04-18T15:29:27.526Z</time></trkpt><trkpt lat="43.4923733" lon="10.5967083"><ele>488.0</ele><time>2026-04-18T15:29:28.526Z</time></trkpt><trkpt lat="43.492275" lon="10.5967717"><ele>488.0</ele><time>2026-04-18T15:29:30.526Z</time></trkpt><trkpt lat="43.4921217" lon="10.59683"><ele>487.59999999999997</ele><time>2026-04-18T15:29:33.526Z</time></trkpt><trkpt lat="43.4920183" lon="10.5968117"><ele>487.19999999999993</ele><time>2026-04-18T15:29:35.526Z</time></trkpt><trkpt lat="43.4919483" lon="10.5967867"><ele>486.8</ele><time>2026-04-18T15:29:37.526Z</time></trkpt><trkpt lat="43.4919033" lon="10.5968483"><ele>486.4</ele><time>2026-04-18T15:29:40.526Z</time></trkpt><trkpt lat="43.4919017" lon="10.5969583"><ele>486.0</ele><time>2026-04-18T15:29:42.526Z</time></trkpt><trkpt lat="43.4919167" lon="10.5971383"><ele>485.4</ele><time>2026-04-18T15:29:44.526Z</time></trkpt><trkpt lat="43.4919333" lon="10.59726"><ele>484.8</ele><time>2026-04-18T15:29:45.526Z</time></trkpt><trkpt lat="43.4919533" lon="10.59739"><ele>484.19999999999993</ele><time>2026-04-18T15:29:46.526Z</time></trkpt><trkpt lat="43.4919783" lon="10.5975367"><ele>483.59999999999997</ele><time>2026-04-18T15:29:47.526Z</time></trkpt><trkpt lat="43.492" lon="10.5976867"><ele>483.0</ele><time>2026-04-18T15:29:48.526Z</time></trkpt><trkpt lat="43.4920167" lon="10.59783"><ele>481.2</ele><time>2026-04-18T15:29:49.526Z</time></trkpt><trkpt lat="43.492035" lon="10.5979733"><ele>479.4</ele><time>2026-04-18T15:29:50.526Z</time></trkpt><trkpt lat="43.4920517" lon="10.5980917"><ele>477.59999999999997</ele><time>2026-04-18T15:29:51.526Z</time></trkpt><trkpt lat="43.492065" lon="10.5981783"><ele>475.79999999999995</ele><time>2026-04-18T15:29:52.527Z</time></trkpt><trkpt lat="43.49207" lon="10.5983517"><ele>474.0</ele><time>2026-04-18T15:29:54.526Z</time></trkpt><trkpt lat="43.4920583" lon="10.5984583"><ele>474.0</ele><time>2026-04-18T15:29:55.527Z</time></trkpt><trkpt lat="43.49204" lon="10.5985783"><ele>474.0</ele><time>2026-04-18T15:29:56.526Z</time></trkpt><trkpt lat="43.4920183" lon="10.5987"><ele>474.0</ele><time>2026-04-18T15:29:57.526Z</time></trkpt><trkpt lat="43.492" lon="10.5988183"><ele>474.0</ele><time>2026-04-18T15:29:58.526Z</time></trkpt><trkpt lat="43.491985" lon="10.5989383"><ele>474.0</ele><time>2026-04-18T15:29:59.527Z</time></trkpt><trkpt lat="43.4919783" lon="10.5990617"><ele>474.0</ele><time>2026-04-18T15:30:00.526Z</time></trkpt><trkpt lat="43.49198" lon="10.5991867"><ele>472.5</ele><time>2026-04-18T15:30:01.526Z</time></trkpt><trkpt lat="43.4919817" lon="10.599325"><ele>471.0</ele><time>2026-04-18T15:30:02.526Z</time></trkpt><trkpt lat="43.4919817" lon="10.5994417"><ele>469.5</ele><time>2026-04-18T15:30:03.526Z</time></trkpt><trkpt lat="43.492" lon="10.5997133"><ele>468.0</ele><time>2026-04-18T15:30:06.526Z</time></trkpt><trkpt lat="43.49207" lon="10.5998583"><ele>467.8333333333333</ele><time>2026-04-18T15:30:08.526Z</time></trkpt><trkpt lat="43.4921283" lon="10.5999217"><ele>467.66666666666663</ele><time>2026-04-18T15:30:09.527Z</time></trkpt><trkpt lat="43.4922017" lon="10.5999767"><ele>467.5</ele><time>2026-04-18T15:30:10.526Z</time></trkpt><trkpt lat="43.4922833" lon="10.6000217"><ele>467.3333333333333</ele><time>2026-04-18T15:30:11.526Z</time></trkpt><trkpt lat="43.49235" lon="10.6000833"><ele>467.16666666666663</ele><time>2026-04-18T15:30:12.526Z</time></trkpt><trkpt lat="43.4924" lon="10.600155"><ele>467.0</ele><time>2026-04-18T15:30:13.526Z</time></trkpt><trkpt lat="43.492455" lon="10.6002933"><ele>466.3333333333333</ele><time>2026-04-18T15:30:15.526Z</time></trkpt><trkpt lat="43.4924833" lon="10.6003717"><ele>465.66666666666663</ele><time>2026-04-18T15:30:27.526Z</time></trkpt><trkpt lat="43.4925717" lon="10.600435"><ele>465.0</ele><time>2026-04-18T15:30:29.526Z</time></trkpt><trkpt lat="43.492635" lon="10.6004967"><ele>464.33333333333337</ele><time>2026-04-18T15:30:30.526Z</time></trkpt><trkpt lat="43.49269" lon="10.6005483"><ele>463.6666666666667</ele><time>2026-04-18T15:30:31.526Z</time></trkpt><trkpt lat="43.4927967" lon="10.6005933"><ele>463.0</ele><time>2026-04-18T15:30:33.526Z</time></trkpt><trkpt lat="43.492865" lon="10.600595"><ele>463.6666666666667</ele><time>2026-04-18T15:30:34.527Z</time></trkpt><trkpt lat="43.4929483" lon="10.6005783"><ele>464.33333333333337</ele><time>2026-04-18T15:30:35.526Z</time></trkpt><trkpt lat="43.49305" lon="10.6005483"><ele>465.0</ele><time>2026-04-18T15:30:36.526Z</time></trkpt><trkpt lat="43.4933667" lon="10.6004967"><ele>465.0</ele><time>2026-04-18T15:30:39.526Z</time></trkpt><trkpt lat="43.4934483" lon="10.6005033"><ele>465.0</ele><time>2026-04-18T15:30:40.526Z</time></trkpt><trkpt lat="43.493525" lon="10.6005267"><ele>465.0</ele><time>2026-04-18T15:30:41.527Z</time></trkpt><trkpt lat="43.4936067" lon="10.6005767"><ele>465.0</ele><time>2026-04-18T15:30:42.526Z</time></trkpt><trkpt lat="43.4936917" lon="10.60064"><ele>465.0</ele><time>2026-04-18T15:30:43.526Z</time></trkpt><trkpt lat="43.493775" lon="10.6007017"><ele>465.0</ele><time>2026-04-18T15:30:44.526Z</time></trkpt><trkpt lat="43.4938617" lon="10.6007683"><ele>463.0</ele><time>2026-04-18T15:30:45.527Z</time></trkpt><trkpt lat="43.4939467" lon="10.6008383"><ele>461.0</ele><time>2026-04-18T15:30:46.527Z</time></trkpt><trkpt lat="43.4940283" lon="10.6008933"><ele>459.0</ele><time>2026-04-18T15:30:47.527Z</time></trkpt><trkpt lat="43.49411" lon="10.6009583"><ele>457.0</ele><time>2026-04-18T15:30:48.526Z</time></trkpt><trkpt lat="43.4941767" lon="10.6010233"><ele>455.0</ele><time>2026-04-18T15:30:49.526Z</time></trkpt><trkpt lat="43.4942267" lon="10.6010783"><ele>453.0</ele><time>2026-04-18T15:30:50.526Z</time></trkpt><trkpt lat="43.4942783" lon="10.6011283"><ele>451.5</ele><time>2026-04-18T15:30:51.526Z</time></trkpt><trkpt lat="43.4943633" lon="10.6011883"><ele>450.0</ele><time>2026-04-18T15:30:53.526Z</time></trkpt><trkpt lat="43.4944317" lon="10.6011983"><ele>448.5</ele><time>2026-04-18T15:30:55.526Z</time></trkpt><trkpt lat="43.4944967" lon="10.601185"><ele>447.0</ele><time>2026-04-18T15:30:57.526Z</time></trkpt><trkpt lat="43.494595" lon="10.6010917"><ele>445.5</ele><time>2026-04-18T15:30:59.527Z</time></trkpt><trkpt lat="43.4946533" lon="10.6010317"><ele>444.0</ele><time>2026-04-18T15:31:00.526Z</time></trkpt><trkpt lat="43.49471" lon="10.6009733"><ele>444.0</ele><time>2026-04-18T15:31:01.526Z</time></trkpt><trkpt lat="43.4947733" lon="10.600935"><ele>444.0</ele><time>2026-04-18T15:31:02.526Z</time></trkpt><trkpt lat="43.4948467" lon="10.6009117"><ele>444.0</ele><time>2026-04-18T15:31:03.527Z</time></trkpt><trkpt lat="43.49492" lon="10.6008917"><ele>444.0</ele><time>2026-04-18T15:31:04.526Z</time></trkpt><trkpt lat="43.4949917" lon="10.6008717"><ele>444.0</ele><time>2026-04-18T15:31:05.526Z</time></trkpt><trkpt lat="43.49507" lon="10.6008767"><ele>444.0</ele><time>2026-04-18T15:31:06.526Z</time></trkpt><trkpt lat="43.495155" lon="10.6009067"><ele>444.0</ele><time>2026-04-18T15:31:07.526Z</time></trkpt><trkpt lat="43.4952483" lon="10.600935"><ele>444.0</ele><time>2026-04-18T15:31:08.526Z</time></trkpt><trkpt lat="43.4953617" lon="10.6009967"><ele>444.0</ele><time>2026-04-18T15:31:09.526Z</time></trkpt><trkpt lat="43.4957" lon="10.601135"><ele>443.25</ele><time>2026-04-18T15:31:12.526Z</time></trkpt><trkpt lat="43.49582" lon="10.6011783"><ele>442.5</ele><time>2026-04-18T15:31:13.526Z</time></trkpt><trkpt lat="43.49593" lon="10.6012117"><ele>441.75</ele><time>2026-04-18T15:31:14.526Z</time></trkpt><trkpt lat="43.4960367" lon="10.601245"><ele>441.0</ele><time>2026-04-18T15:31:15.527Z</time></trkpt><trkpt lat="43.49614" lon="10.6012733"><ele>441.0</ele><time>2026-04-18T15:31:16.526Z</time></trkpt><trkpt lat="43.49624" lon="10.6013083"><ele>441.0</ele><time>2026-04-18T15:31:17.526Z</time></trkpt><trkpt lat="43.49634" lon="10.601335"><ele>441.0</ele><time>2026-04-18T15:31:18.526Z</time></trkpt><trkpt lat="43.4964317" lon="10.6013517"><ele>441.0</ele><time>2026-04-18T15:31:19.526Z</time></trkpt><trkpt lat="43.4965067" lon="10.6013633"><ele>441.0</ele><time>2026-04-18T15:31:20.526Z</time></trkpt><trkpt lat="43.4966117" lon="10.6014067"><ele>439.4</ele><time>2026-04-18T15:31:22.526Z</time></trkpt><trkpt lat="43.4966733" lon="10.60149"><ele>437.8</ele><time>2026-04-18T15:31:24.526Z</time></trkpt><trkpt lat="43.49671" lon="10.60166"><ele>436.19999999999993</ele><time>2026-04-18T15:31:26.527Z</time></trkpt><trkpt lat="43.4967167" lon="10.601785"><ele>434.59999999999997</ele><time>2026-04-18T15:31:27.526Z</time></trkpt><trkpt lat="43.4967233" lon="10.6019033"><ele>433.0</ele><time>2026-04-18T15:31:28.526Z</time></trkpt><trkpt lat="43.4967367" lon="10.6020183"><ele>433.00000000000006</ele><time>2026-04-18T15:31:29.526Z</time></trkpt><trkpt lat="43.496765" lon="10.6021217"><ele>433.0</ele><time>2026-04-18T15:31:30.526Z</time></trkpt><trkpt lat="43.4967967" lon="10.6022333"><ele>433.0</ele><time>2026-04-18T15:31:31.526Z</time></trkpt><trkpt lat="43.4968417" lon="10.602335"><ele>433.0</ele><time>2026-04-18T15:31:32.526Z</time></trkpt><trkpt lat="43.496895" lon="10.6024517"><ele>433.00000000000006</ele><time>2026-04-18T15:31:33.526Z</time></trkpt><trkpt lat="43.4969383" lon="10.602555"><ele>433.0</ele><time>2026-04-18T15:31:34.526Z</time></trkpt><trkpt lat="43.4969883" lon="10.6026533"><ele>432.99999999999994</ele><time>2026-04-18T15:31:35.526Z</time></trkpt><trkpt lat="43.4970333" lon="10.6027367"><ele>433.0</ele><time>2026-04-18T15:31:36.527Z</time></trkpt><trkpt lat="43.49708" lon="10.602825"><ele>433.0</ele><time>2026-04-18T15:31:37.526Z</time></trkpt><trkpt lat="43.4971217" lon="10.602895"><ele>433.0</ele><time>2026-04-18T15:31:38.526Z</time></trkpt><trkpt lat="43.4971567" lon="10.6029767"><ele>433.0</ele><time>2026-04-18T15:31:39.527Z</time></trkpt><trkpt lat="43.4971817" lon="10.6030717"><ele>432.99999999999994</ele><time>2026-04-18T15:31:40.526Z</time></trkpt><trkpt lat="43.4972017" lon="10.60318"><ele>433.0</ele><time>2026-04-18T15:31:41.526Z</time></trkpt><trkpt lat="43.4972017" lon="10.6032833"><ele>430.0</ele><time>2026-04-18T15:31:42.526Z</time></trkpt><trkpt lat="43.4972333" lon="10.6035033"><ele>426.99999999999994</ele><time>2026-04-18T15:31:45.527Z</time></trkpt><trkpt lat="43.4972733" lon="10.6035733"><ele>424.0</ele><time>2026-04-18T15:31:46.526Z</time></trkpt><trkpt lat="43.49733" lon="10.603655"><ele>421.0</ele><time>2026-04-18T15:31:47.526Z</time></trkpt><trkpt lat="43.4973933" lon="10.60376"><ele>418.0</ele><time>2026-04-18T15:31:48.526Z</time></trkpt><trkpt lat="43.4974433" lon="10.6038783"><ele>417.33333333333337</ele><time>2026-04-18T15:31:49.526Z</time></trkpt><trkpt lat="43.4974833" lon="10.6039933"><ele>416.6666666666667</ele><time>2026-04-18T15:31:50.526Z</time></trkpt><trkpt lat="43.4975183" lon="10.6041033"><ele>416.0</ele><time>2026-04-18T15:31:51.527Z</time></trkpt><trkpt lat="43.4975483" lon="10.60421"><ele>415.33333333333337</ele><time>2026-04-18T15:31:52.526Z</time></trkpt><trkpt lat="43.4976117" lon="10.604315"><ele>414.6666666666667</ele><time>2026-04-18T15:31:54.526Z</time></trkpt><trkpt lat="43.4976883" lon="10.6043433"><ele>414.0</ele><time>2026-04-18T15:31:56.526Z</time></trkpt><trkpt lat="43.4977533" lon="10.6043333"><ele>414.0</ele><time>2026-04-18T15:31:57.526Z</time></trkpt><trkpt lat="43.49788" lon="10.604355"><ele>414.0</ele><time>2026-04-18T15:31:59.525Z</time></trkpt><trkpt lat="43.4979633" lon="10.6044"><ele>414.0</ele><time>2026-04-18T15:32:00.525Z</time></trkpt><trkpt lat="43.498045" lon="10.60445"><ele>414.0</ele><time>2026-04-18T15:32:01.525Z</time></trkpt><trkpt lat="43.4981283" lon="10.6045"><ele>414.0</ele><time>2026-04-18T15:32:02.525Z</time></trkpt><trkpt lat="43.4982083" lon="10.6045367"><ele>412.2</ele><time>2026-04-18T15:32:03.525Z</time></trkpt><trkpt lat="43.4982983" lon="10.604575"><ele>410.4</ele><time>2026-04-18T15:32:04.525Z</time></trkpt><trkpt lat="43.4983783" lon="10.6045983"><ele>408.6</ele><time>2026-04-18T15:32:05.525Z</time></trkpt><trkpt lat="43.4984583" lon="10.6046333"><ele>406.8</ele><time>2026-04-18T15:32:06.525Z</time></trkpt><trkpt lat="43.4985317" lon="10.60468"><ele>405.0</ele><time>2026-04-18T15:32:07.525Z</time></trkpt><trkpt lat="43.4986367" lon="10.6047783"><ele>405.0</ele><time>2026-04-18T15:32:09.525Z</time></trkpt><trkpt lat="43.498685" lon="10.60485"><ele>405.0</ele><time>2026-04-18T15:32:10.525Z</time></trkpt><trkpt lat="43.4987267" lon="10.6049433"><ele>405.0</ele><time>2026-04-18T15:32:11.525Z</time></trkpt><trkpt lat="43.4987667" lon="10.6050783"><ele>405.0</ele><time>2026-04-18T15:32:12.525Z</time></trkpt><trkpt lat="43.4987917" lon="10.6052233"><ele>405.0</ele><time>2026-04-18T15:32:13.525Z</time></trkpt><trkpt lat="43.498815" lon="10.6053733"><ele>400.75</ele><time>2026-04-18T15:32:14.525Z</time></trkpt><trkpt lat="43.4988417" lon="10.6055017"><ele>396.5</ele><time>2026-04-18T15:32:15.525Z</time></trkpt><trkpt lat="43.498905" lon="10.605845"><ele>392.25</ele><time>2026-04-18T15:32:18.525Z</time></trkpt><trkpt lat="43.4989017" lon="10.6059533"><ele>388.0</ele><time>2026-04-18T15:32:19.525Z</time></trkpt><trkpt lat="43.4988917" lon="10.6060517"><ele>387.79999999999995</ele><time>2026-04-18T15:32:20.525Z</time></trkpt><trkpt lat="43.4989133" lon="10.6062317"><ele>387.6</ele><time>2026-04-18T15:32:22.525Z</time></trkpt><trkpt lat="43.4989533" lon="10.6063333"><ele>387.4</ele><time>2026-04-18T15:32:23.525Z</time></trkpt><trkpt lat="43.4990133" lon="10.6064267"><ele>387.20000000000005</ele><time>2026-04-18T15:32:24.525Z</time></trkpt><trkpt lat="43.4990717" lon="10.6065117"><ele>387.0</ele><time>2026-04-18T15:32:25.525Z</time></trkpt><trkpt lat="43.4991183" lon="10.606585"><ele>387.0</ele><time>2026-04-18T15:32:26.525Z</time></trkpt><trkpt lat="43.4991567" lon="10.606655"><ele>387.0</ele><time>2026-04-18T15:32:27.525Z</time></trkpt><trkpt lat="43.4991833" lon="10.606735"><ele>387.0</ele><time>2026-04-18T15:32:28.525Z</time></trkpt><trkpt lat="43.4992017" lon="10.6068317"><ele>387.0</ele><time>2026-04-18T15:32:29.525Z</time></trkpt><trkpt lat="43.4992083" lon="10.60694"><ele>387.0</ele><time>2026-04-18T15:32:30.525Z</time></trkpt><trkpt lat="43.4992067" lon="10.6070483"><ele>387.0</ele><time>2026-04-18T15:32:31.525Z</time></trkpt><trkpt lat="43.4992" lon="10.6071467"><ele>387.0</ele><time>2026-04-18T15:32:32.525Z</time></trkpt><trkpt lat="43.4991833" lon="10.6072917"><ele>386.3333333333333</ele><time>2026-04-18T15:32:34.525Z</time></trkpt><trkpt lat="43.49922" lon="10.6074267"><ele>385.6666666666667</ele><time>2026-04-18T15:32:36.525Z</time></trkpt><trkpt lat="43.49927" lon="10.6074833"><ele>385.0</ele><time>2026-04-18T15:32:37.526Z</time></trkpt><trkpt lat="43.4993467" lon="10.6075283"><ele>384.33333333333337</ele><time>2026-04-18T15:32:38.525Z</time></trkpt><trkpt lat="43.4994417" lon="10.6075683"><ele>383.6666666666667</ele><time>2026-04-18T15:32:39.525Z</time></trkpt><trkpt lat="43.499525" lon="10.607615"><ele>383.0</ele><time>2026-04-18T15:32:40.525Z</time></trkpt><trkpt lat="43.4996167" lon="10.6076717"><ele>380.59999999999997</ele><time>2026-04-18T15:32:41.525Z</time></trkpt><trkpt lat="43.4996867" lon="10.6077467"><ele>378.2</ele><time>2026-04-18T15:32:42.525Z</time></trkpt><trkpt lat="43.4997483" lon="10.6078433"><ele>375.8</ele><time>2026-04-18T15:32:43.525Z</time></trkpt><trkpt lat="43.4998233" lon="10.6079483"><ele>373.4</ele><time>2026-04-18T15:32:44.525Z</time></trkpt><trkpt lat="43.4998883" lon="10.60805"><ele>371.0</ele><time>2026-04-18T15:32:45.525Z</time></trkpt><trkpt lat="43.4999517" lon="10.608155"><ele>371.0</ele><time>2026-04-18T15:32:46.525Z</time></trkpt><trkpt lat="43.50002" lon="10.6082583"><ele>371.0</ele><time>2026-04-18T15:32:47.525Z</time></trkpt><trkpt lat="43.5000833" lon="10.608365"><ele>371.0</ele><time>2026-04-18T15:32:48.526Z</time></trkpt><trkpt lat="43.5002067" lon="10.60869"><ele>372.5</ele><time>2026-04-18T15:32:51.525Z</time></trkpt><trkpt lat="43.5002433" lon="10.6087833"><ele>374.0</ele><time>2026-04-18T15:32:52.525Z</time></trkpt><trkpt lat="43.50029" lon="10.60887"><ele>375.5</ele><time>2026-04-18T15:32:53.525Z</time></trkpt><trkpt lat="43.500355" lon="10.608965"><ele>377.0</ele><time>2026-04-18T15:32:54.525Z</time></trkpt><trkpt lat="43.5004233" lon="10.6090517"><ele>378.5</ele><time>2026-04-18T15:32:55.525Z</time></trkpt><trkpt lat="43.5004833" lon="10.609115"><ele>380.0</ele><time>2026-04-18T15:32:56.525Z</time></trkpt><trkpt lat="43.5005467" lon="10.6091667"><ele>378.42857142857144</ele><time>2026-04-18T15:32:57.525Z</time></trkpt><trkpt lat="43.5006" lon="10.6092267"><ele>376.8571428571429</ele><time>2026-04-18T15:32:58.525Z</time></trkpt><trkpt lat="43.50064" lon="10.6093033"><ele>375.2857142857143</ele><time>2026-04-18T15:32:59.526Z</time></trkpt><trkpt lat="43.500675" lon="10.609395"><ele>373.7142857142857</ele><time>2026-04-18T15:33:00.525Z</time></trkpt><trkpt lat="43.5007217" lon="10.6094733"><ele>372.1428571428571</ele><time>2026-04-18T15:33:01.525Z</time></trkpt><trkpt lat="43.5007783" lon="10.609525"><ele>370.57142857142856</ele><time>2026-04-18T15:33:02.525Z</time></trkpt><trkpt lat="43.50084" lon="10.609565"><ele>369.0</ele><time>2026-04-18T15:33:03.526Z</time></trkpt><trkpt lat="43.5009183" lon="10.60958"><ele>369.0</ele><time>2026-04-18T15:33:04.525Z</time></trkpt><trkpt lat="43.5010133" lon="10.6095733"><ele>369.0</ele><time>2026-04-18T15:33:05.525Z</time></trkpt><trkpt lat="43.5011033" lon="10.6095583"><ele>369.0</ele><time>2026-04-18T15:33:06.526Z</time></trkpt><trkpt lat="43.5011817" lon="10.6095267"><ele>369.0</ele><time>2026-04-18T15:33:07.525Z</time></trkpt><trkpt lat="43.5012517" lon="10.6094917"><ele>369.0</ele><time>2026-04-18T15:33:08.525Z</time></trkpt><trkpt lat="43.5013783" lon="10.6094683"><ele>366.57142857142856</ele><time>2026-04-18T15:33:10.525Z</time></trkpt><trkpt lat="43.5014417" lon="10.6095"><ele>364.1428571428571</ele><time>2026-04-18T15:33:11.525Z</time></trkpt><trkpt lat="43.50151" lon="10.6095617"><ele>361.7142857142857</ele><time>2026-04-18T15:33:12.525Z</time></trkpt><trkpt lat="43.5015767" lon="10.609625"><ele>359.2857142857143</ele><time>2026-04-18T15:33:13.525Z</time></trkpt><trkpt lat="43.50164" lon="10.6096767"><ele>356.85714285714283</ele><time>2026-04-18T15:33:14.525Z</time></trkpt><trkpt lat="43.501705" lon="10.6097067"><ele>354.42857142857144</ele><time>2026-04-18T15:33:15.525Z</time></trkpt><trkpt lat="43.5017817" lon="10.6097133"><ele>352.0</ele><time>2026-04-18T15:33:16.525Z</time></trkpt><trkpt lat="43.5018717" lon="10.6096967"><ele>352.0</ele><time>2026-04-18T15:33:17.526Z</time></trkpt><trkpt lat="43.50197" lon="10.609665"><ele>352.0</ele><time>2026-04-18T15:33:18.525Z</time></trkpt><trkpt lat="43.5020617" lon="10.60962"><ele>352.0</ele><time>2026-04-18T15:33:19.526Z</time></trkpt><trkpt lat="43.5021467" lon="10.60957"><ele>352.0</ele><time>2026-04-18T15:33:20.525Z</time></trkpt><trkpt lat="43.5022233" lon="10.6095167"><ele>352.0</ele><time>2026-04-18T15:33:21.525Z</time></trkpt><trkpt lat="43.5024467" lon="10.6093667"><ele>348.8333333333333</ele><time>2026-04-18T15:33:24.525Z</time></trkpt><trkpt lat="43.5025267" lon="10.6093367"><ele>345.66666666666663</ele><time>2026-04-18T15:33:25.525Z</time></trkpt><trkpt lat="43.5026067" lon="10.6093267"><ele>342.5</ele><time>2026-04-18T15:33:26.525Z</time></trkpt><trkpt lat="43.5026867" lon="10.609335"><ele>339.3333333333333</ele><time>2026-04-18T15:33:27.525Z</time></trkpt><trkpt lat="43.5027583" lon="10.6093583"><ele>336.1666666666667</ele><time>2026-04-18T15:33:28.525Z</time></trkpt><trkpt lat="43.5028217" lon="10.609405"><ele>333.0</ele><time>2026-04-18T15:33:29.526Z</time></trkpt><trkpt lat="43.5028717" lon="10.6094733"><ele>330.8333333333333</ele><time>2026-04-18T15:33:30.525Z</time></trkpt><trkpt lat="43.5029067" lon="10.60955"><ele>328.6666666666667</ele><time>2026-04-18T15:33:31.525Z</time></trkpt><trkpt lat="43.5029583" lon="10.6096967"><ele>326.5</ele><time>2026-04-18T15:33:33.525Z</time></trkpt><trkpt lat="43.5029783" lon="10.6097867"><ele>324.33333333333337</ele><time>2026-04-18T15:33:34.526Z</time></trkpt><trkpt lat="43.5029917" lon="10.609875"><ele>322.1666666666667</ele><time>2026-04-18T15:33:35.525Z</time></trkpt><trkpt lat="43.50299" lon="10.6099733"><ele>320.0</ele><time>2026-04-18T15:33:36.525Z</time></trkpt><trkpt lat="43.502985" lon="10.6100617"><ele>320.0</ele><time>2026-04-18T15:33:37.525Z</time></trkpt><trkpt lat="43.5029933" lon="10.6102267"><ele>320.0</ele><time>2026-04-18T15:33:39.525Z</time></trkpt><trkpt lat="43.5030383" lon="10.6103683"><ele>320.0</ele><time>2026-04-18T15:33:41.525Z</time></trkpt><trkpt lat="43.5030633" lon="10.61045"><ele>320.0</ele><time>2026-04-18T15:33:42.525Z</time></trkpt><trkpt lat="43.5031017" lon="10.6106033"><ele>320.0</ele><time>2026-04-18T15:33:44.525Z</time></trkpt><trkpt lat="43.5031233" lon="10.6107617"><ele>320.6</ele><time>2026-04-18T15:33:46.525Z</time></trkpt><trkpt lat="43.5030983" lon="10.6109433"><ele>321.2</ele><time>2026-04-18T15:33:48.525Z</time></trkpt><trkpt lat="43.5030583" lon="10.6110517"><ele>321.79999999999995</ele><time>2026-04-18T15:33:49.526Z</time></trkpt><trkpt lat="43.50301" lon="10.6111533"><ele>322.4</ele><time>2026-04-18T15:33:50.526Z</time></trkpt><trkpt lat="43.5029633" lon="10.6112317"><ele>323.0</ele><time>2026-04-18T15:33:51.525Z</time></trkpt><trkpt lat="43.5028817" lon="10.6113367"><ele>323.79999999999995</ele><time>2026-04-18T15:33:53.525Z</time></trkpt><trkpt lat="43.502855" lon="10.61153"><ele>324.6</ele><time>2026-04-18T15:33:57.525Z</time></trkpt><trkpt lat="43.5029283" lon="10.6115933"><ele>325.4</ele><time>2026-04-18T15:33:59.525Z</time></trkpt><trkpt lat="43.5030333" lon="10.6115733"><ele>326.20000000000005</ele><time>2026-04-18T15:34:01.525Z</time></trkpt><trkpt lat="43.5031033" lon="10.611515"><ele>327.0</ele><time>2026-04-18T15:34:02.526Z</time></trkpt><trkpt lat="43.5031733" lon="10.6114667"><ele>327.0</ele><time>2026-04-18T15:34:03.525Z</time></trkpt><trkpt lat="43.5032467" lon="10.61143"><ele>327.0</ele><time>2026-04-18T15:34:04.525Z</time></trkpt><trkpt lat="43.5033367" lon="10.6114083"><ele>327.0</ele><time>2026-04-18T15:34:05.525Z</time></trkpt><trkpt lat="43.503435" lon="10.6114067"><ele>327.0</ele><time>2026-04-18T15:34:06.526Z</time></trkpt><trkpt lat="43.5035283" lon="10.6114333"><ele>327.0</ele><time>2026-04-18T15:34:07.525Z</time></trkpt><trkpt lat="43.5036233" lon="10.611465"><ele>327.0</ele><time>2026-04-18T15:34:08.525Z</time></trkpt><trkpt lat="43.5037283" lon="10.6115283"><ele>327.0</ele><time>2026-04-18T15:34:09.525Z</time></trkpt><trkpt lat="43.503835" lon="10.6115983"><ele>327.0</ele><time>2026-04-18T15:34:10.525Z</time></trkpt><trkpt lat="43.5039333" lon="10.6116867"><ele>327.0</ele><time>2026-04-18T15:34:11.525Z</time></trkpt><trkpt lat="43.5040383" lon="10.6117967"><ele>328.75</ele><time>2026-04-18T15:34:12.525Z</time></trkpt><trkpt lat="43.5041417" lon="10.6119217"><ele>330.5</ele><time>2026-04-18T15:34:13.525Z</time></trkpt><trkpt lat="43.5042367" lon="10.6120467"><ele>332.25</ele><time>2026-04-18T15:34:14.525Z</time></trkpt><trkpt lat="43.5043367" lon="10.6121433"><ele>334.0</ele><time>2026-04-18T15:34:15.525Z</time></trkpt><trkpt lat="43.5044283" lon="10.61222"><ele>334.0</ele><time>2026-04-18T15:34:16.525Z</time></trkpt><trkpt lat="43.5045117" lon="10.6122683"><ele>334.0</ele><time>2026-04-18T15:34:17.525Z</time></trkpt><trkpt lat="43.5045717" lon="10.6122983"><ele>334.0</ele><time>2026-04-18T15:34:18.525Z</time></trkpt><trkpt lat="43.5046467" lon="10.6123033"><ele>334.0</ele><time>2026-04-18T15:34:19.525Z</time></trkpt><trkpt lat="43.50474" lon="10.612295"><ele>334.0</ele><time>2026-04-18T15:34:20.525Z</time></trkpt><trkpt lat="43.5048317" lon="10.6122867"><ele>334.0</ele><time>2026-04-18T15:34:21.525Z</time></trkpt><trkpt lat="43.50492" lon="10.6122833"><ele>332.0</ele><time>2026-04-18T15:34:22.525Z</time></trkpt><trkpt lat="43.5050017" lon="10.612295"><ele>330.0</ele><time>2026-04-18T15:34:23.526Z</time></trkpt><trkpt lat="43.5050733" lon="10.61231"><ele>328.0</ele><time>2026-04-18T15:34:24.525Z</time></trkpt><trkpt lat="43.5051333" lon="10.6123367"><ele>326.0</ele><time>2026-04-18T15:34:25.525Z</time></trkpt><trkpt lat="43.5051933" lon="10.6123933"><ele>324.0</ele><time>2026-04-18T15:34:26.525Z</time></trkpt><trkpt lat="43.5052567" lon="10.612485"><ele>322.0</ele><time>2026-04-18T15:34:27.525Z</time></trkpt><trkpt lat="43.5054683" lon="10.6128133"><ele>322.6</ele><time>2026-04-18T15:34:30.525Z</time></trkpt><trkpt lat="43.50554" lon="10.61291"><ele>323.20000000000005</ele><time>2026-04-18T15:34:31.525Z</time></trkpt><trkpt lat="43.5056033" lon="10.6129933"><ele>323.8</ele><time>2026-04-18T15:34:32.525Z</time></trkpt><trkpt lat="43.5056517" lon="10.6130883"><ele>324.4</ele><time>2026-04-18T15:34:33.525Z</time></trkpt><trkpt lat="43.505695" lon="10.6132017"><ele>325.0</ele><time>2026-04-18T15:34:34.525Z</time></trkpt><trkpt lat="43.5057367" lon="10.6133233"><ele>325.0</ele><time>2026-04-18T15:34:35.525Z</time></trkpt><trkpt lat="43.505755" lon="10.61345"><ele>325.0</ele><time>2026-04-18T15:34:36.525Z</time></trkpt><trkpt lat="43.50577" lon="10.6135583"><ele>325.0</ele><time>2026-04-18T15:34:37.525Z</time></trkpt><trkpt lat="43.5057917" lon="10.6136617"><ele>325.0</ele><time>2026-04-18T15:34:38.526Z</time></trkpt><trkpt lat="43.5058133" lon="10.6137583"><ele>325.0</ele><time>2026-04-18T15:34:39.526Z</time></trkpt><trkpt lat="43.5058217" lon="10.6138467"><ele>325.0</ele><time>2026-04-18T15:34:40.525Z</time></trkpt><trkpt lat="43.5058467" lon="10.6139533"><ele>326.0</ele><time>2026-04-18T15:34:41.525Z</time></trkpt><trkpt lat="43.5058633" lon="10.6140733"><ele>327.0</ele><time>2026-04-18T15:34:42.525Z</time></trkpt><trkpt lat="43.5058783" lon="10.6142067"><ele>328.0</ele><time>2026-04-18T15:34:43.525Z</time></trkpt><trkpt lat="43.5059017" lon="10.6143317"><ele>329.0</ele><time>2026-04-18T15:34:44.525Z</time></trkpt><trkpt lat="43.5059233" lon="10.6144417"><ele>330.0</ele><time>2026-04-18T15:34:45.525Z</time></trkpt><trkpt lat="43.5059483" lon="10.61454"><ele>331.0</ele><time>2026-04-18T15:34:46.525Z</time></trkpt><trkpt lat="43.5059733" lon="10.614635"><ele>331.20000000000005</ele><time>2026-04-18T15:34:47.525Z</time></trkpt><trkpt lat="43.506005" lon="10.6147233"><ele>331.40000000000003</ele><time>2026-04-18T15:34:48.525Z</time></trkpt><trkpt lat="43.5060583" lon="10.614825"><ele>331.6</ele><time>2026-04-18T15:34:49.525Z</time></trkpt><trkpt lat="43.506115" lon="10.614955"><ele>331.8</ele><time>2026-04-18T15:34:50.525Z</time></trkpt><trkpt lat="43.5061783" lon="10.615085"><ele>332.0</ele><time>2026-04-18T15:34:51.525Z</time></trkpt><trkpt lat="43.5062417" lon="10.6152167"><ele>330.20000000000005</ele><time>2026-04-18T15:34:52.525Z</time></trkpt><trkpt lat="43.5063067" lon="10.6153467"><ele>328.4</ele><time>2026-04-18T15:34:53.525Z</time></trkpt><trkpt lat="43.5063617" lon="10.6154533"><ele>326.6</ele><time>2026-04-18T15:34:54.525Z</time></trkpt><trkpt lat="43.5064267" lon="10.615565"><ele>324.79999999999995</ele><time>2026-04-18T15:34:55.525Z</time></trkpt><trkpt lat="43.506485" lon="10.615665"><ele>323.0</ele><time>2026-04-18T15:34:56.525Z</time></trkpt><trkpt lat="43.5065383" lon="10.61575"><ele>323.0</ele><time>2026-04-18T15:34:57.525Z</time></trkpt><trkpt lat="43.5065933" lon="10.6158417"><ele>323.0</ele><time>2026-04-18T15:34:58.525Z</time></trkpt><trkpt lat="43.5066433" lon="10.6159133"><ele>323.0</ele><time>2026-04-18T15:34:59.525Z</time></trkpt><trkpt lat="43.5067" lon="10.6159833"><ele>323.0</ele><time>2026-04-18T15:35:00.525Z</time></trkpt><trkpt lat="43.5069183" lon="10.6160417"><ele>323.0</ele><time>2026-04-18T15:35:03.525Z</time></trkpt><trkpt lat="43.50702" lon="10.6160317"><ele>323.0</ele><time>2026-04-18T15:35:04.526Z</time></trkpt><trkpt lat="43.5071233" lon="10.6160117"><ele>323.0</ele><time>2026-04-18T15:35:05.525Z</time></trkpt><trkpt lat="43.507225" lon="10.6159933"><ele>323.0</ele><time>2026-04-18T15:35:06.525Z</time></trkpt><trkpt lat="43.5073233" lon="10.615985"><ele>323.0</ele><time>2026-04-18T15:35:07.525Z</time></trkpt><trkpt lat="43.5074267" lon="10.615955"><ele>321.25</ele><time>2026-04-18T15:35:08.525Z</time></trkpt><trkpt lat="43.5075483" lon="10.6158967"><ele>319.5</ele><time>2026-04-18T15:35:09.525Z</time></trkpt><trkpt lat="43.5076717" lon="10.6158367"><ele>317.75</ele><time>2026-04-18T15:35:10.526Z</time></trkpt><trkpt lat="43.5077883" lon="10.61577"><ele>316.0</ele><time>2026-04-18T15:35:11.525Z</time></trkpt><trkpt lat="43.5078917" lon="10.615705"><ele>314.3333333333333</ele><time>2026-04-18T15:35:12.526Z</time></trkpt><trkpt lat="43.50799" lon="10.6156583"><ele>312.66666666666663</ele><time>2026-04-18T15:35:13.525Z</time></trkpt><trkpt lat="43.5080783" lon="10.61563"><ele>311.0</ele><time>2026-04-18T15:35:14.526Z</time></trkpt><trkpt lat="43.5081633" lon="10.6156033"><ele>309.3333333333333</ele><time>2026-04-18T15:35:15.525Z</time></trkpt><trkpt lat="43.508235" lon="10.615575"><ele>307.6666666666667</ele><time>2026-04-18T15:35:16.525Z</time></trkpt><trkpt lat="43.5083033" lon="10.6155267"><ele>306.0</ele><time>2026-04-18T15:35:17.525Z</time></trkpt><trkpt lat="43.5083667" lon="10.615475"><ele>306.0</ele><time>2026-04-18T15:35:18.526Z</time></trkpt><trkpt lat="43.5084267" lon="10.6154267"><ele>306.0</ele><time>2026-04-18T15:35:19.525Z</time></trkpt><trkpt lat="43.50848" lon="10.61535"><ele>306.0</ele><time>2026-04-18T15:35:20.525Z</time></trkpt><trkpt lat="43.50853" lon="10.6152667"><ele>306.0</ele><time>2026-04-18T15:35:21.525Z</time></trkpt><trkpt lat="43.5086117" lon="10.61516"><ele>306.0</ele><time>2026-04-18T15:35:23.525Z</time></trkpt><trkpt lat="43.508685" lon="10.6151067"><ele>306.0</ele><time>2026-04-18T15:35:25.525Z</time></trkpt><trkpt lat="43.50876" lon="10.6152"><ele>304.3333333333333</ele><time>2026-04-18T15:35:27.524Z</time></trkpt><trkpt lat="43.5087933" lon="10.615295"><ele>302.6666666666667</ele><time>2026-04-18T15:35:28.524Z</time></trkpt><trkpt lat="43.50882" lon="10.61539"><ele>301.0</ele><time>2026-04-18T15:35:29.525Z</time></trkpt><trkpt lat="43.5088383" lon="10.6154833"><ele>299.33333333333337</ele><time>2026-04-18T15:35:30.524Z</time></trkpt><trkpt lat="43.5088667" lon="10.615585"><ele>297.6666666666667</ele><time>2026-04-18T15:35:31.525Z</time></trkpt><trkpt lat="43.50888" lon="10.6156717"><ele>296.0</ele><time>2026-04-18T15:35:32.524Z</time></trkpt><trkpt lat="43.5089383" lon="10.61587"><ele>295.6</ele><time>2026-04-18T15:35:36.524Z</time></trkpt><trkpt lat="43.5089967" lon="10.6160133"><ele>295.20000000000005</ele><time>2026-04-18T15:35:38.524Z</time></trkpt><trkpt lat="43.5090317" lon="10.6161433"><ele>294.79999999999995</ele><time>2026-04-18T15:35:40.524Z</time></trkpt><trkpt lat="43.5090483" lon="10.6162383"><ele>294.4</ele><time>2026-04-18T15:35:42.524Z</time></trkpt><trkpt lat="43.5090033" lon="10.6163283"><ele>294.0</ele><time>2026-04-18T15:35:45.524Z</time></trkpt><trkpt lat="43.5089017" lon="10.6164317"><ele>293.59999999999997</ele><time>2026-04-18T15:35:47.524Z</time></trkpt><trkpt lat="43.50883" lon="10.6165167"><ele>293.2</ele><time>2026-04-18T15:35:48.524Z</time></trkpt><trkpt lat="43.5087667" lon="10.6166067"><ele>292.79999999999995</ele><time>2026-04-18T15:35:49.525Z</time></trkpt><trkpt lat="43.5086983" lon="10.6166967"><ele>292.4</ele><time>2026-04-18T15:35:50.524Z</time></trkpt><trkpt lat="43.508635" lon="10.6167783"><ele>292.0</ele><time>2026-04-18T15:35:51.524Z</time></trkpt><trkpt lat="43.5085667" lon="10.616875"><ele>291.4</ele><time>2026-04-18T15:35:52.524Z</time></trkpt><trkpt lat="43.5085017" lon="10.616965"><ele>290.79999999999995</ele><time>2026-04-18T15:35:53.524Z</time></trkpt><trkpt lat="43.508435" lon="10.617065"><ele>290.2</ele><time>2026-04-18T15:35:54.524Z</time></trkpt><trkpt lat="43.5083717" lon="10.61716"><ele>289.59999999999997</ele><time>2026-04-18T15:35:55.524Z</time></trkpt><trkpt lat="43.508315" lon="10.6172533"><ele>289.0</ele><time>2026-04-18T15:35:56.524Z</time></trkpt><trkpt lat="43.5082517" lon="10.617355"><ele>289.0</ele><time>2026-04-18T15:35:57.524Z</time></trkpt><trkpt lat="43.50821" lon="10.617475"><ele>289.0</ele><time>2026-04-18T15:35:58.524Z</time></trkpt><trkpt lat="43.5081683" lon="10.6176"><ele>289.0</ele><time>2026-04-18T15:35:59.524Z</time></trkpt><trkpt lat="43.5081217" lon="10.6177183"><ele>289.0</ele><time>2026-04-18T15:36:00.524Z</time></trkpt><trkpt lat="43.5080767" lon="10.6178233"><ele>289.0</ele><time>2026-04-18T15:36:01.524Z</time></trkpt><trkpt lat="43.5080333" lon="10.61794"><ele>288.2</ele><time>2026-04-18T15:36:02.524Z</time></trkpt><trkpt lat="43.5079917" lon="10.618045"><ele>287.4</ele><time>2026-04-18T15:36:03.524Z</time></trkpt><trkpt lat="43.5079383" lon="10.6181367"><ele>286.6</ele><time>2026-04-18T15:36:04.524Z</time></trkpt><trkpt lat="43.507895" lon="10.6182283"><ele>285.8</ele><time>2026-04-18T15:36:05.524Z</time></trkpt><trkpt lat="43.507845" lon="10.618315"><ele>285.0</ele><time>2026-04-18T15:36:06.525Z</time></trkpt><trkpt lat="43.5076633" lon="10.618575"><ele>285.0</ele><time>2026-04-18T15:36:09.524Z</time></trkpt><trkpt lat="43.507595" lon="10.6186283"><ele>285.0</ele><time>2026-04-18T15:36:10.524Z</time></trkpt><trkpt lat="43.5075267" lon="10.6186817"><ele>285.0</ele><time>2026-04-18T15:36:11.524Z</time></trkpt><trkpt lat="43.507455" lon="10.6187183"><ele>285.0</ele><time>2026-04-18T15:36:12.524Z</time></trkpt><trkpt lat="43.5073767" lon="10.6187567"><ele>285.0</ele><time>2026-04-18T15:36:13.525Z</time></trkpt><trkpt lat="43.5072883" lon="10.6187933"><ele>285.0</ele><time>2026-04-18T15:36:14.524Z</time></trkpt><trkpt lat="43.5072017" lon="10.6188367"><ele>285.6666666666667</ele><time>2026-04-18T15:36:15.525Z</time></trkpt><trkpt lat="43.50712" lon="10.618895"><ele>286.3333333333333</ele><time>2026-04-18T15:36:16.525Z</time></trkpt><trkpt lat="43.5070483" lon="10.6189617"><ele>287.0</ele><time>2026-04-18T15:36:17.524Z</time></trkpt><trkpt lat="43.5070017" lon="10.6190233"><ele>287.66666666666663</ele><time>2026-04-18T15:36:18.524Z</time></trkpt><trkpt lat="43.5069517" lon="10.619085"><ele>288.3333333333333</ele><time>2026-04-18T15:36:19.525Z</time></trkpt><trkpt lat="43.50687" lon="10.6191817"><ele>289.0</ele><time>2026-04-18T15:36:21.524Z</time></trkpt><trkpt lat="43.506755" lon="10.6192483"><ele>289.0</ele><time>2026-04-18T15:36:23.525Z</time></trkpt><trkpt lat="43.50669" lon="10.619275"><ele>289.0</ele><time>2026-04-18T15:36:24.524Z</time></trkpt><trkpt lat="43.5066267" lon="10.6193"><ele>289.0</ele><time>2026-04-18T15:36:25.524Z</time></trkpt><trkpt lat="43.5065467" lon="10.61931"><ele>289.0</ele><time>2026-04-18T15:36:26.524Z</time></trkpt><trkpt lat="43.506465" lon="10.61931"><ele>289.0</ele><time>2026-04-18T15:36:27.524Z</time></trkpt><trkpt lat="43.5063767" lon="10.6193117"><ele>289.0</ele><time>2026-04-18T15:36:28.524Z</time></trkpt><trkpt lat="43.5062883" lon="10.619315"><ele>290.8333333333333</ele><time>2026-04-18T15:36:29.524Z</time></trkpt><trkpt lat="43.5061917" lon="10.61934"><ele>292.66666666666663</ele><time>2026-04-18T15:36:30.525Z</time></trkpt><trkpt lat="43.5061067" lon="10.6193667"><ele>294.5</ele><time>2026-04-18T15:36:31.524Z</time></trkpt><trkpt lat="43.5060167" lon="10.6193967"><ele>296.3333333333333</ele><time>2026-04-18T15:36:32.524Z</time></trkpt><trkpt lat="43.5059267" lon="10.6194283"><ele>298.1666666666667</ele><time>2026-04-18T15:36:33.524Z</time></trkpt><trkpt lat="43.505855" lon="10.619455"><ele>300.0</ele><time>2026-04-18T15:36:34.525Z</time></trkpt><trkpt lat="43.50579" lon="10.619465"><ele>300.0</ele><time>2026-04-18T15:36:35.524Z</time></trkpt><trkpt lat="43.5057233" lon="10.6194683"><ele>300.0</ele><time>2026-04-18T15:36:36.525Z</time></trkpt><trkpt lat="43.5056583" lon="10.6194567"><ele>300.0</ele><time>2026-04-18T15:36:37.524Z</time></trkpt><trkpt lat="43.50559" lon="10.6194333"><ele>300.0</ele><time>2026-04-18T15:36:38.524Z</time></trkpt><trkpt lat="43.50552" lon="10.6194"><ele>300.0</ele><time>2026-04-18T15:36:39.524Z</time></trkpt><trkpt lat="43.505315" lon="10.619335"><ele>301.8</ele><time>2026-04-18T15:36:42.525Z</time></trkpt><trkpt lat="43.5052233" lon="10.6193417"><ele>303.6</ele><time>2026-04-18T15:36:44.524Z</time></trkpt><trkpt lat="43.5051617" lon="10.6194233"><ele>305.4</ele><time>2026-04-18T15:36:46.524Z</time></trkpt><trkpt lat="43.5051083" lon="10.61955"><ele>307.2</ele><time>2026-04-18T15:36:48.525Z</time></trkpt><trkpt lat="43.5050633" lon="10.6196817"><ele>309.0</ele><time>2026-04-18T15:36:50.524Z</time></trkpt><trkpt lat="43.505025" lon="10.6198"><ele>309.0</ele><time>2026-04-18T15:36:52.524Z</time></trkpt><trkpt lat="43.5049583" lon="10.6198933"><ele>309.0</ele><time>2026-04-18T15:36:54.524Z</time></trkpt><trkpt lat="43.504885" lon="10.6199817"><ele>309.0</ele><time>2026-04-18T15:36:56.524Z</time></trkpt><trkpt lat="43.504805" lon="10.620065"><ele>309.0</ele><time>2026-04-18T15:36:58.524Z</time></trkpt><trkpt lat="43.50472" lon="10.62014"><ele>309.0</ele><time>2026-04-18T15:37:00.524Z</time></trkpt><trkpt lat="43.5046733" lon="10.6202317"><ele>309.0</ele><time>2026-04-18T15:37:03.525Z</time></trkpt><trkpt lat="43.5047383" lon="10.6202883"><ele>309.0</ele><time>2026-04-18T15:37:08.524Z</time></trkpt><trkpt lat="43.504815" lon="10.62025"><ele>309.0</ele><time>2026-04-18T15:37:11.524Z</time></trkpt><trkpt lat="43.50484" lon="10.6201283"><ele>309.0</ele><time>2026-04-18T15:37:15.524Z</time></trkpt><trkpt lat="43.5047667" lon="10.6201067"><ele>309.0</ele><time>2026-04-18T15:37:18.524Z</time></trkpt><trkpt lat="43.50469" lon="10.6201767"><ele>309.0</ele><time>2026-04-18T15:39:41.523Z</time></trkpt><trkpt lat="43.50469" lon="10.6202833"><ele>309.0</ele><time>2026-04-18T15:39:45.523Z</time></trkpt><trkpt lat="43.50476" lon="10.620265"><ele>309.0</ele><time>2026-04-18T15:39:48.523Z</time></trkpt><trkpt lat="43.5048217" lon="10.6201733"><ele>309.0</ele><time>2026-04-18T15:39:51.523Z</time></trkpt><trkpt lat="43.5048617" lon="10.620085"><ele>309.0</ele><time>2026-04-18T15:39:53.524Z</time></trkpt><trkpt lat="43.5048783" lon="10.6199667"><ele>309.0</ele><time>2026-04-18T15:39:55.523Z</time></trkpt><trkpt lat="43.5049233" lon="10.6199033"><ele>309.0</ele><time>2026-04-18T15:39:57.523Z</time></trkpt><trkpt lat="43.50498" lon="10.6198417"><ele>309.0</ele><time>2026-04-18T15:39:59.523Z</time></trkpt><trkpt lat="43.5050333" lon="10.6197933"><ele>309.0</ele><time>2026-04-18T15:40:01.523Z</time></trkpt><trkpt lat="43.5050783" lon="10.6196967"><ele>309.0</ele><time>2026-04-18T15:40:04.523Z</time></trkpt><trkpt lat="43.5051083" lon="10.6196017"><ele>309.0</ele><time>2026-04-18T15:40:07.523Z</time></trkpt></trkseg></trk></gpx>